<?xml version='1.0' encoding='UTF-8'?><gpx version="1.1" creator="JPX - https://github.com/jenetics/jpx" xmlns="http://www.topografix.com/GPX/1/1"><trk><trkseg><trkpt lat="45.5045789" lon="9.2394766"><ele>130.0</ele><time>2026-03-25T10:38:47.36Z</time></trkpt><trkpt lat="45.5046411" lon="9.2395794"><ele>130.0</ele><time>2026-03-25T10:38:49.36Z</time></trkpt><trkpt lat="45.5047021" lon="9.2396656"><ele>130.0</ele><time>2026-03-25T10:38:51.279Z</time></trkpt><trkpt lat="45.5047361" lon="9.2397425"><ele>130.0</ele><time>2026-03-25T10:38:52.359Z</time></trkpt><trkpt lat="45.5048025" lon="9.2398422"><ele>130.0</ele><time>2026-03-25T10:38:54.358Z</time></trkpt><trkpt lat="45.5048719" lon="9.2399339"><ele>130.0</ele><time>2026-03-25T10:38:56.36Z</time></trkpt><trkpt lat="45.5049445" lon="9.2400317"><ele>130.0</ele><time>2026-03-25T10:38:58.36Z</time></trkpt><trkpt lat="45.5050228" lon="9.2401337"><ele>130.0</ele><time>2026-03-25T10:39:00.36Z</time></trkpt><trkpt lat="45.5050998" lon="9.2402246"><ele>130.0</ele><time>2026-03-25T10:39:02.36Z</time></trkpt><trkpt lat="45.5051741" lon="9.2403223"><ele>130.0</ele><time>2026-03-25T10:39:04.359Z</time></trkpt><trkpt lat="45.5052428" lon="9.2404279"><ele>130.0</ele><time>2026-03-25T10:39:06.36Z</time></trkpt><trkpt lat="45.5053055" lon="9.2405169"><ele>130.0</ele><time>2026-03-25T10:39:08.358Z</time></trkpt><trkpt lat="45.505384" lon="9.24061"><ele>130.0</ele><time>2026-03-25T10:39:12.359Z</time></trkpt><trkpt lat="45.505424" lon="9.2407676"><ele>130.0</ele><time>2026-03-25T10:39:14.36Z</time></trkpt><trkpt lat="45.5054359" lon="9.24086"><ele>130.0</ele><time>2026-03-25T10:39:15.358Z</time></trkpt><trkpt lat="45.5054717" lon="9.2410199"><ele>130.0</ele><time>2026-03-25T10:39:17.36Z</time></trkpt><trkpt lat="45.5055071" lon="9.2411897"><ele>129.75</ele><time>2026-03-25T10:39:19.36Z</time></trkpt><trkpt lat="45.5055411" lon="9.2413499"><ele>129.5</ele><time>2026-03-25T10:39:21.359Z</time></trkpt><trkpt lat="45.5055757" lon="9.2415072"><ele>129.25</ele><time>2026-03-25T10:39:23.359Z</time></trkpt><trkpt lat="45.5056041" lon="9.2416661"><ele>129.0</ele><time>2026-03-25T10:39:25.358Z</time></trkpt><trkpt lat="45.5056323" lon="9.2418243"><ele>129.0</ele><time>2026-03-25T10:39:27.359Z</time></trkpt><trkpt lat="45.5056536" lon="9.2419845"><ele>129.0</ele><time>2026-03-25T10:39:29.358Z</time></trkpt><trkpt lat="45.5056843" lon="9.2421444"><ele>129.0</ele><time>2026-03-25T10:39:31.359Z</time></trkpt><trkpt lat="45.505713" lon="9.2422828"><ele>129.0</ele><time>2026-03-25T10:39:33.36Z</time></trkpt><trkpt lat="45.5057046" lon="9.2423924"><ele>129.0</ele><time>2026-03-25T10:39:35.359Z</time></trkpt><trkpt lat="45.5056784" lon="9.2424795"><ele>128.8</ele><time>2026-03-25T10:39:38.36Z</time></trkpt><trkpt lat="45.5056811" lon="9.2426182"><ele>128.60000000000002</ele><time>2026-03-25T10:39:42.359Z</time></trkpt><trkpt lat="45.5057442" lon="9.2427285"><ele>128.4</ele><time>2026-03-25T10:39:44.359Z</time></trkpt><trkpt lat="45.5058205" lon="9.2428252"><ele>128.20000000000002</ele><time>2026-03-25T10:39:46.358Z</time></trkpt><trkpt lat="45.5059015" lon="9.2429181"><ele>128.0</ele><time>2026-03-25T10:39:48.359Z</time></trkpt><trkpt lat="45.5059781" lon="9.2430048"><ele>127.99999999999999</ele><time>2026-03-25T10:39:50.36Z</time></trkpt><trkpt lat="45.5060419" lon="9.2430698"><ele>128.0</ele><time>2026-03-25T10:39:52.359Z</time></trkpt><trkpt lat="45.5060947" lon="9.243122"><ele>128.0</ele><time>2026-03-25T10:39:54.36Z</time></trkpt><trkpt lat="45.5061523" lon="9.243191"><ele>128.0</ele><time>2026-03-25T10:39:57.361Z</time></trkpt><trkpt lat="45.5061937" lon="9.2432748"><ele>127.99999999999999</ele><time>2026-03-25T10:39:59.359Z</time></trkpt><trkpt lat="45.5062554" lon="9.2433772"><ele>128.0</ele><time>2026-03-25T10:40:01.36Z</time></trkpt><trkpt lat="45.5063358" lon="9.2434889"><ele>128.0</ele><time>2026-03-25T10:40:03.359Z</time></trkpt><trkpt lat="45.5064318" lon="9.243595"><ele>128.0</ele><time>2026-03-25T10:40:05.36Z</time></trkpt><trkpt lat="45.5065185" lon="9.24372"><ele>128.0</ele><time>2026-03-25T10:40:07.361Z</time></trkpt><trkpt lat="45.5065655" lon="9.2437813"><ele>128.0</ele><time>2026-03-25T10:40:08.361Z</time></trkpt><trkpt lat="45.5066584" lon="9.2439122"><ele>128.0</ele><time>2026-03-25T10:40:10.358Z</time></trkpt><trkpt lat="45.5067152" lon="9.2439842"><ele>128.16666666666666</ele><time>2026-03-25T10:40:11.358Z</time></trkpt><trkpt lat="45.5067714" lon="9.2440537"><ele>128.33333333333331</ele><time>2026-03-25T10:40:12.36Z</time></trkpt><trkpt lat="45.5068318" lon="9.2441296"><ele>128.5</ele><time>2026-03-25T10:40:13.36Z</time></trkpt><trkpt lat="45.5068887" lon="9.2442069"><ele>128.66666666666666</ele><time>2026-03-25T10:40:14.359Z</time></trkpt><trkpt lat="45.5069446" lon="9.2442836"><ele>128.83333333333334</ele><time>2026-03-25T10:40:15.361Z</time></trkpt><trkpt lat="45.5070017" lon="9.2443609"><ele>129.0</ele><time>2026-03-25T10:40:16.359Z</time></trkpt><trkpt lat="45.5070612" lon="9.244451"><ele>129.66666666666666</ele><time>2026-03-25T10:40:17.36Z</time></trkpt><trkpt lat="45.5071292" lon="9.2445315"><ele>130.33333333333334</ele><time>2026-03-25T10:40:18.36Z</time></trkpt><trkpt lat="45.5071929" lon="9.2446132"><ele>131.0</ele><time>2026-03-25T10:40:19.359Z</time></trkpt><trkpt lat="45.5072598" lon="9.2446935"><ele>131.66666666666669</ele><time>2026-03-25T10:40:20.359Z</time></trkpt><trkpt lat="45.5073255" lon="9.244771"><ele>132.33333333333334</ele><time>2026-03-25T10:40:21.36Z</time></trkpt><trkpt lat="45.5073848" lon="9.2448506"><ele>133.0</ele><time>2026-03-25T10:40:22.36Z</time></trkpt><trkpt lat="45.5074363" lon="9.2449234"><ele>133.28571428571428</ele><time>2026-03-25T10:40:23.36Z</time></trkpt><trkpt lat="45.5074916" lon="9.2449887"><ele>133.57142857142856</ele><time>2026-03-25T10:40:24.36Z</time></trkpt><trkpt lat="45.5075427" lon="9.2450579"><ele>133.85714285714286</ele><time>2026-03-25T10:40:25.36Z</time></trkpt><trkpt lat="45.5075913" lon="9.2451245"><ele>134.14285714285714</ele><time>2026-03-25T10:40:26.359Z</time></trkpt><trkpt lat="45.5076393" lon="9.245196"><ele>134.42857142857142</ele><time>2026-03-25T10:40:27.359Z</time></trkpt><trkpt lat="45.5076871" lon="9.2452696"><ele>134.71428571428572</ele><time>2026-03-25T10:40:28.358Z</time></trkpt><trkpt lat="45.5077345" lon="9.2453415"><ele>135.0</ele><time>2026-03-25T10:40:29.359Z</time></trkpt><trkpt lat="45.5077801" lon="9.2454128"><ele>135.0</ele><time>2026-03-25T10:40:30.36Z</time></trkpt><trkpt lat="45.5078365" lon="9.2454785"><ele>135.0</ele><time>2026-03-25T10:40:31.359Z</time></trkpt><trkpt lat="45.5078844" lon="9.2455514"><ele>135.0</ele><time>2026-03-25T10:40:32.359Z</time></trkpt><trkpt lat="45.5079375" lon="9.2456085"><ele>135.0</ele><time>2026-03-25T10:40:33.359Z</time></trkpt><trkpt lat="45.5079923" lon="9.2456773"><ele>135.0</ele><time>2026-03-25T10:40:34.36Z</time></trkpt><trkpt lat="45.5080431" lon="9.2457503"><ele>135.0</ele><time>2026-03-25T10:40:35.359Z</time></trkpt><trkpt lat="45.5080937" lon="9.245822"><ele>135.0</ele><time>2026-03-25T10:40:36.36Z</time></trkpt><trkpt lat="45.5081379" lon="9.2458944"><ele>134.28571428571428</ele><time>2026-03-25T10:40:37.36Z</time></trkpt><trkpt lat="45.5081917" lon="9.2459718"><ele>133.57142857142856</ele><time>2026-03-25T10:40:38.359Z</time></trkpt><trkpt lat="45.5082457" lon="9.2460355"><ele>132.85714285714286</ele><time>2026-03-25T10:40:39.36Z</time></trkpt><trkpt lat="45.5082897" lon="9.2461031"><ele>132.14285714285714</ele><time>2026-03-25T10:40:40.359Z</time></trkpt><trkpt lat="45.5083384" lon="9.2461763"><ele>131.42857142857144</ele><time>2026-03-25T10:40:41.36Z</time></trkpt><trkpt lat="45.5083916" lon="9.2462498"><ele>130.71428571428572</ele><time>2026-03-25T10:40:42.36Z</time></trkpt><trkpt lat="45.5084433" lon="9.246314"><ele>130.0</ele><time>2026-03-25T10:40:43.36Z</time></trkpt><trkpt lat="45.5084956" lon="9.2463799"><ele>130.0</ele><time>2026-03-25T10:40:44.36Z</time></trkpt><trkpt lat="45.5085444" lon="9.2464439"><ele>130.0</ele><time>2026-03-25T10:40:45.361Z</time></trkpt><trkpt lat="45.5085983" lon="9.2465112"><ele>130.0</ele><time>2026-03-25T10:40:46.359Z</time></trkpt><trkpt lat="45.5086532" lon="9.2465781"><ele>130.0</ele><time>2026-03-25T10:40:47.359Z</time></trkpt><trkpt lat="45.5087025" lon="9.2466459"><ele>130.0</ele><time>2026-03-25T10:40:48.36Z</time></trkpt><trkpt lat="45.508749" lon="9.2467175"><ele>130.0</ele><time>2026-03-25T10:40:49.36Z</time></trkpt><trkpt lat="45.5088306" lon="9.2468526"><ele>130.0</ele><time>2026-03-25T10:40:51.36Z</time></trkpt><trkpt lat="45.5088704" lon="9.2469276"><ele>130.0</ele><time>2026-03-25T10:40:52.359Z</time></trkpt><trkpt lat="45.5089155" lon="9.2469905"><ele>130.0</ele><time>2026-03-25T10:40:53.36Z</time></trkpt><trkpt lat="45.5090139" lon="9.2471118"><ele>130.0</ele><time>2026-03-25T10:40:55.358Z</time></trkpt><trkpt lat="45.5090974" lon="9.2472244"><ele>130.0</ele><time>2026-03-25T10:40:57.36Z</time></trkpt><trkpt lat="45.5091712" lon="9.2473211"><ele>130.0</ele><time>2026-03-25T10:40:59.359Z</time></trkpt><trkpt lat="45.5092173" lon="9.2473855"><ele>130.0</ele><time>2026-03-25T10:41:01.36Z</time></trkpt><trkpt lat="45.509261" lon="9.2474552"><ele>130.0</ele><time>2026-03-25T10:41:45.361Z</time></trkpt><trkpt lat="45.5093234" lon="9.2475315"><ele>130.0</ele><time>2026-03-25T10:41:47.359Z</time></trkpt><trkpt lat="45.5094112" lon="9.2476435"><ele>130.0</ele><time>2026-03-25T10:41:49.359Z</time></trkpt><trkpt lat="45.5094989" lon="9.2477576"><ele>130.0</ele><time>2026-03-25T10:41:51.361Z</time></trkpt><trkpt lat="45.50958" lon="9.2478784"><ele>130.0</ele><time>2026-03-25T10:41:53.36Z</time></trkpt><trkpt lat="45.5096543" lon="9.2479979"><ele>130.0</ele><time>2026-03-25T10:41:55.36Z</time></trkpt><trkpt lat="45.5097173" lon="9.2481206"><ele>130.0</ele><time>2026-03-25T10:41:57.359Z</time></trkpt><trkpt lat="45.5097875" lon="9.2482317"><ele>130.0</ele><time>2026-03-25T10:41:59.359Z</time></trkpt><trkpt lat="45.5098221" lon="9.2483195"><ele>130.0</ele><time>2026-03-25T10:42:02.353Z</time></trkpt><trkpt lat="45.509869" lon="9.2484121"><ele>130.33333333333334</ele><time>2026-03-25T10:42:05.36Z</time></trkpt><trkpt lat="45.5099262" lon="9.2485063"><ele>130.66666666666669</ele><time>2026-03-25T10:43:17.358Z</time></trkpt><trkpt lat="45.5099706" lon="9.2485898"><ele>131.0</ele><time>2026-03-25T10:43:18.359Z</time></trkpt><trkpt lat="45.5100063" lon="9.2486693"><ele>131.33333333333334</ele><time>2026-03-25T10:43:19.359Z</time></trkpt><trkpt lat="45.5100742" lon="9.248821"><ele>131.66666666666666</ele><time>2026-03-25T10:43:21.36Z</time></trkpt><trkpt lat="45.5101033" lon="9.2489049"><ele>132.0</ele><time>2026-03-25T10:43:22.36Z</time></trkpt><trkpt lat="45.5101329" lon="9.2489908"><ele>132.0</ele><time>2026-03-25T10:43:23.36Z</time></trkpt><trkpt lat="45.5101564" lon="9.2490827"><ele>132.0</ele><time>2026-03-25T10:43:24.358Z</time></trkpt><trkpt lat="45.5101776" lon="9.2491775"><ele>132.0</ele><time>2026-03-25T10:43:25.36Z</time></trkpt><trkpt lat="45.5101973" lon="9.2492743"><ele>132.0</ele><time>2026-03-25T10:43:26.36Z</time></trkpt><trkpt lat="45.5102156" lon="9.2493727"><ele>132.0</ele><time>2026-03-25T10:43:27.36Z</time></trkpt><trkpt lat="45.5102372" lon="9.2494664"><ele>132.0</ele><time>2026-03-25T10:43:28.359Z</time></trkpt><trkpt lat="45.5102601" lon="9.2495674"><ele>132.0</ele><time>2026-03-25T10:43:29.36Z</time></trkpt><trkpt lat="45.5102806" lon="9.2496695"><ele>132.0</ele><time>2026-03-25T10:43:30.359Z</time></trkpt><trkpt lat="45.5103007" lon="9.2497736"><ele>132.0</ele><time>2026-03-25T10:43:31.36Z</time></trkpt><trkpt lat="45.510322" lon="9.2498773"><ele>132.0</ele><time>2026-03-25T10:43:32.359Z</time></trkpt><trkpt lat="45.5103398" lon="9.2499801"><ele>132.0</ele><time>2026-03-25T10:43:33.359Z</time></trkpt><trkpt lat="45.510356" lon="9.2500849"><ele>132.0</ele><time>2026-03-25T10:43:34.361Z</time></trkpt><trkpt lat="45.5103739" lon="9.2501899"><ele>132.0</ele><time>2026-03-25T10:43:35.36Z</time></trkpt><trkpt lat="45.5103938" lon="9.2503024"><ele>131.83333333333334</ele><time>2026-03-25T10:43:36.36Z</time></trkpt><trkpt lat="45.5104155" lon="9.2504139"><ele>131.66666666666666</ele><time>2026-03-25T10:43:37.359Z</time></trkpt><trkpt lat="45.510436" lon="9.2505221"><ele>131.5</ele><time>2026-03-25T10:43:38.361Z</time></trkpt><trkpt lat="45.5104575" lon="9.2506306"><ele>131.33333333333331</ele><time>2026-03-25T10:43:39.36Z</time></trkpt><trkpt lat="45.5104788" lon="9.2507403"><ele>131.16666666666666</ele><time>2026-03-25T10:43:40.359Z</time></trkpt><trkpt lat="45.5104993" lon="9.2508471"><ele>131.0</ele><time>2026-03-25T10:43:41.36Z</time></trkpt><trkpt lat="45.5105228" lon="9.2509544"><ele>131.0</ele><time>2026-03-25T10:43:42.359Z</time></trkpt><trkpt lat="45.5105463" lon="9.2510642"><ele>131.0</ele><time>2026-03-25T10:43:43.359Z</time></trkpt><trkpt lat="45.5105692" lon="9.2511772"><ele>131.0</ele><time>2026-03-25T10:43:44.36Z</time></trkpt><trkpt lat="45.5105897" lon="9.2512893"><ele>131.0</ele><time>2026-03-25T10:43:45.361Z</time></trkpt><trkpt lat="45.5106084" lon="9.2514"><ele>131.0</ele><time>2026-03-25T10:43:46.359Z</time></trkpt><trkpt lat="45.5106307" lon="9.2515123"><ele>131.0</ele><time>2026-03-25T10:43:47.359Z</time></trkpt><trkpt lat="45.5106478" lon="9.2516271"><ele>131.0</ele><time>2026-03-25T10:43:48.361Z</time></trkpt><trkpt lat="45.5106682" lon="9.2517447"><ele>131.0</ele><time>2026-03-25T10:43:49.36Z</time></trkpt><trkpt lat="45.5106895" lon="9.251867"><ele>131.0</ele><time>2026-03-25T10:43:50.359Z</time></trkpt><trkpt lat="45.510715" lon="9.2519852"><ele>131.0</ele><time>2026-03-25T10:43:51.36Z</time></trkpt><trkpt lat="45.5107418" lon="9.2521081"><ele>131.0</ele><time>2026-03-25T10:43:52.359Z</time></trkpt><trkpt lat="45.510771" lon="9.2522304"><ele>131.0</ele><time>2026-03-25T10:43:53.359Z</time></trkpt><trkpt lat="45.5107968" lon="9.2523525"><ele>131.0</ele><time>2026-03-25T10:43:54.359Z</time></trkpt><trkpt lat="45.510821" lon="9.2524751"><ele>131.0</ele><time>2026-03-25T10:43:55.359Z</time></trkpt><trkpt lat="45.5108477" lon="9.2525986"><ele>131.0</ele><time>2026-03-25T10:43:56.361Z</time></trkpt><trkpt lat="45.5108735" lon="9.2527246"><ele>131.0</ele><time>2026-03-25T10:43:57.36Z</time></trkpt><trkpt lat="45.5108992" lon="9.2528457"><ele>131.0</ele><time>2026-03-25T10:43:58.359Z</time></trkpt><trkpt lat="45.5109224" lon="9.2529711"><ele>131.0</ele><time>2026-03-25T10:43:59.358Z</time></trkpt><trkpt lat="45.5109426" lon="9.2531001"><ele>131.0</ele><time>2026-03-25T10:44:00.36Z</time></trkpt><trkpt lat="45.510967" lon="9.2532309"><ele>131.0</ele><time>2026-03-25T10:44:01.361Z</time></trkpt><trkpt lat="45.5109891" lon="9.2533598"><ele>131.0</ele><time>2026-03-25T10:44:02.36Z</time></trkpt><trkpt lat="45.5110124" lon="9.2534856"><ele>131.0</ele><time>2026-03-25T10:44:03.36Z</time></trkpt><trkpt lat="45.5110377" lon="9.2536112"><ele>130.83333333333331</ele><time>2026-03-25T10:44:04.359Z</time></trkpt><trkpt lat="45.5110619" lon="9.2537412"><ele>130.66666666666666</ele><time>2026-03-25T10:44:05.36Z</time></trkpt><trkpt lat="45.5110879" lon="9.253864"><ele>130.5</ele><time>2026-03-25T10:44:06.36Z</time></trkpt><trkpt lat="45.5111127" lon="9.2539821"><ele>130.33333333333334</ele><time>2026-03-25T10:44:07.359Z</time></trkpt><trkpt lat="45.5111378" lon="9.254097"><ele>130.16666666666669</ele><time>2026-03-25T10:44:08.359Z</time></trkpt><trkpt lat="45.5111605" lon="9.2542087"><ele>130.0</ele><time>2026-03-25T10:44:09.36Z</time></trkpt><trkpt lat="45.5111847" lon="9.2543198"><ele>130.0</ele><time>2026-03-25T10:44:10.36Z</time></trkpt><trkpt lat="45.5112123" lon="9.2544228"><ele>130.0</ele><time>2026-03-25T10:44:11.36Z</time></trkpt><trkpt lat="45.5112413" lon="9.2545243"><ele>130.0</ele><time>2026-03-25T10:44:12.359Z</time></trkpt><trkpt lat="45.5112684" lon="9.2546291"><ele>130.0</ele><time>2026-03-25T10:44:13.361Z</time></trkpt><trkpt lat="45.5112914" lon="9.2547368"><ele>130.0</ele><time>2026-03-25T10:44:14.359Z</time></trkpt><trkpt lat="45.511316" lon="9.254841"><ele>130.0</ele><time>2026-03-25T10:44:15.361Z</time></trkpt><trkpt lat="45.5113258" lon="9.2549475"><ele>130.0</ele><time>2026-03-25T10:44:16.359Z</time></trkpt><trkpt lat="45.5113262" lon="9.2550496"><ele>130.0</ele><time>2026-03-25T10:44:17.36Z</time></trkpt><trkpt lat="45.5113017" lon="9.2551327"><ele>130.0</ele><time>2026-03-25T10:44:18.359Z</time></trkpt><trkpt lat="45.5112657" lon="9.2552109"><ele>130.0</ele><time>2026-03-25T10:44:19.36Z</time></trkpt><trkpt lat="45.511256" lon="9.2553581"><ele>130.0</ele><time>2026-03-25T10:44:21.36Z</time></trkpt><trkpt lat="45.5113295" lon="9.2554699"><ele>130.0</ele><time>2026-03-25T10:44:23.359Z</time></trkpt><trkpt lat="45.5113824" lon="9.2555287"><ele>130.0</ele><time>2026-03-25T10:44:24.36Z</time></trkpt><trkpt lat="45.5114347" lon="9.2555953"><ele>130.0</ele><time>2026-03-25T10:44:25.36Z</time></trkpt><trkpt lat="45.5114868" lon="9.2556701"><ele>130.0</ele><time>2026-03-25T10:44:26.36Z</time></trkpt><trkpt lat="45.5115467" lon="9.2557496"><ele>130.0</ele><time>2026-03-25T10:44:27.36Z</time></trkpt><trkpt lat="45.5116092" lon="9.255831"><ele>130.0</ele><time>2026-03-25T10:44:28.358Z</time></trkpt><trkpt lat="45.5116717" lon="9.2559146"><ele>130.0</ele><time>2026-03-25T10:44:29.36Z</time></trkpt><trkpt lat="45.5117361" lon="9.2559986"><ele>130.0</ele><time>2026-03-25T10:44:30.359Z</time></trkpt><trkpt lat="45.5117956" lon="9.256073"><ele>130.0</ele><time>2026-03-25T10:44:31.359Z</time></trkpt><trkpt lat="45.5118444" lon="9.2561389"><ele>130.0</ele><time>2026-03-25T10:44:32.36Z</time></trkpt><trkpt lat="45.5119132" lon="9.25623"><ele>130.0</ele><time>2026-03-25T10:44:34.36Z</time></trkpt><trkpt lat="45.5119593" lon="9.2563038"><ele>130.0</ele><time>2026-03-25T10:44:43.36Z</time></trkpt><trkpt lat="45.512029" lon="9.2563561"><ele>130.0</ele><time>2026-03-25T10:44:45.359Z</time></trkpt><trkpt lat="45.5120898" lon="9.2564031"><ele>129.66666666666669</ele><time>2026-03-25T10:44:46.358Z</time></trkpt><trkpt lat="45.5122075" lon="9.2564847"><ele>129.33333333333334</ele><time>2026-03-25T10:44:48.36Z</time></trkpt><trkpt lat="45.5122716" lon="9.2565255"><ele>129.0</ele><time>2026-03-25T10:44:49.361Z</time></trkpt><trkpt lat="45.5123337" lon="9.2565709"><ele>128.66666666666666</ele><time>2026-03-25T10:44:50.36Z</time></trkpt><trkpt lat="45.5124002" lon="9.2566091"><ele>128.33333333333331</ele><time>2026-03-25T10:44:51.36Z</time></trkpt><trkpt lat="45.5124648" lon="9.2566627"><ele>128.0</ele><time>2026-03-25T10:44:52.36Z</time></trkpt><trkpt lat="45.5125318" lon="9.2567021"><ele>127.99999999999999</ele><time>2026-03-25T10:44:53.359Z</time></trkpt><trkpt lat="45.5125974" lon="9.2567443"><ele>128.0</ele><time>2026-03-25T10:44:54.36Z</time></trkpt><trkpt lat="45.5126673" lon="9.2567796"><ele>128.0</ele><time>2026-03-25T10:44:55.361Z</time></trkpt><trkpt lat="45.5127305" lon="9.256812"><ele>128.0</ele><time>2026-03-25T10:44:56.359Z</time></trkpt><trkpt lat="45.5128372" lon="9.2568793"><ele>127.99999999999999</ele><time>2026-03-25T10:44:58.36Z</time></trkpt><trkpt lat="45.5129355" lon="9.2569359"><ele>128.0</ele><time>2026-03-25T10:45:00.36Z</time></trkpt><trkpt lat="45.5130244" lon="9.2569494"><ele>127.99999999999999</ele><time>2026-03-25T10:45:02.36Z</time></trkpt><trkpt lat="45.5130774" lon="9.2570025"><ele>128.0</ele><time>2026-03-25T10:45:04.36Z</time></trkpt><trkpt lat="45.5131192" lon="9.2571016"><ele>128.0</ele><time>2026-03-25T10:45:07.359Z</time></trkpt><trkpt lat="45.5131063" lon="9.2572103"><ele>128.0</ele><time>2026-03-25T10:45:09.36Z</time></trkpt><trkpt lat="45.5130329" lon="9.2572937"><ele>127.99999999999999</ele><time>2026-03-25T10:45:11.361Z</time></trkpt><trkpt lat="45.5129513" lon="9.2572988"><ele>128.0</ele><time>2026-03-25T10:45:13.359Z</time></trkpt><trkpt lat="45.5128715" lon="9.2573631"><ele>128.4</ele><time>2026-03-25T10:45:15.359Z</time></trkpt><trkpt lat="45.5128146" lon="9.2574867"><ele>128.8</ele><time>2026-03-25T10:45:17.36Z</time></trkpt><trkpt lat="45.5127552" lon="9.257628"><ele>129.2</ele><time>2026-03-25T10:45:19.359Z</time></trkpt><trkpt lat="45.5127283" lon="9.2577116"><ele>129.6</ele><time>2026-03-25T10:45:20.359Z</time></trkpt><trkpt lat="45.5126495" lon="9.2578672"><ele>130.0</ele><time>2026-03-25T10:45:22.359Z</time></trkpt><trkpt lat="45.5126027" lon="9.257955"><ele>130.0</ele><time>2026-03-25T10:45:23.359Z</time></trkpt><trkpt lat="45.5125646" lon="9.2580374"><ele>130.0</ele><time>2026-03-25T10:45:24.359Z</time></trkpt><trkpt lat="45.5125" lon="9.258081"><ele>130.0</ele><time>2026-03-25T10:45:25.361Z</time></trkpt><trkpt lat="45.5124379" lon="9.2581159"><ele>130.0</ele><time>2026-03-25T10:45:26.36Z</time></trkpt><trkpt lat="45.5123735" lon="9.2581473"><ele>130.0</ele><time>2026-03-25T10:45:27.359Z</time></trkpt><trkpt lat="45.5122629" lon="9.2582084"><ele>130.0</ele><time>2026-03-25T10:45:29.36Z</time></trkpt><trkpt lat="45.5121896" lon="9.2582421"><ele>129.5</ele><time>2026-03-25T10:45:31.36Z</time></trkpt><trkpt lat="45.5121268" lon="9.2582826"><ele>129.0</ele><time>2026-03-25T10:45:33.359Z</time></trkpt><trkpt lat="45.5120709" lon="9.2583789"><ele>128.5</ele><time>2026-03-25T10:45:35.36Z</time></trkpt><trkpt lat="45.5120638" lon="9.2585181"><ele>128.0</ele><time>2026-03-25T10:45:37.359Z</time></trkpt><trkpt lat="45.512096" lon="9.2586837"><ele>127.50000000000001</ele><time>2026-03-25T10:45:39.36Z</time></trkpt><trkpt lat="45.5121082" lon="9.2587845"><ele>127.0</ele><time>2026-03-25T10:45:40.36Z</time></trkpt><trkpt lat="45.5121307" lon="9.2588826"><ele>126.85714285714286</ele><time>2026-03-25T10:45:41.359Z</time></trkpt><trkpt lat="45.5121524" lon="9.2589847"><ele>126.71428571428571</ele><time>2026-03-25T10:45:42.36Z</time></trkpt><trkpt lat="45.5121681" lon="9.2590861"><ele>126.57142857142857</ele><time>2026-03-25T10:45:43.36Z</time></trkpt><trkpt lat="45.5121869" lon="9.2591936"><ele>126.42857142857143</ele><time>2026-03-25T10:45:44.36Z</time></trkpt><trkpt lat="45.5121993" lon="9.2593036"><ele>126.28571428571428</ele><time>2026-03-25T10:45:45.36Z</time></trkpt><trkpt lat="45.5122153" lon="9.2593996"><ele>126.14285714285714</ele><time>2026-03-25T10:45:46.36Z</time></trkpt><trkpt lat="45.512229" lon="9.2595018"><ele>126.0</ele><time>2026-03-25T10:45:47.36Z</time></trkpt><trkpt lat="45.51224" lon="9.2596045"><ele>126.0</ele><time>2026-03-25T10:45:48.361Z</time></trkpt><trkpt lat="45.5122573" lon="9.259713"><ele>126.0</ele><time>2026-03-25T10:45:49.359Z</time></trkpt><trkpt lat="45.5122867" lon="9.2598245"><ele>126.0</ele><time>2026-03-25T10:45:50.36Z</time></trkpt><trkpt lat="45.5122998" lon="9.2599413"><ele>126.0</ele><time>2026-03-25T10:45:51.36Z</time></trkpt><trkpt lat="45.5123162" lon="9.2600473"><ele>126.0</ele><time>2026-03-25T10:45:52.361Z</time></trkpt><trkpt lat="45.5123387" lon="9.260159"><ele>126.0</ele><time>2026-03-25T10:45:53.361Z</time></trkpt><trkpt lat="45.5123582" lon="9.2602768"><ele>126.33333333333333</ele><time>2026-03-25T10:45:54.361Z</time></trkpt><trkpt lat="45.512378" lon="9.2603921"><ele>126.66666666666666</ele><time>2026-03-25T10:45:55.361Z</time></trkpt><trkpt lat="45.5124037" lon="9.2605071"><ele>127.0</ele><time>2026-03-25T10:45:56.36Z</time></trkpt><trkpt lat="45.5124251" lon="9.260625"><ele>127.33333333333333</ele><time>2026-03-25T10:45:57.359Z</time></trkpt><trkpt lat="45.5124531" lon="9.2607369"><ele>127.66666666666666</ele><time>2026-03-25T10:45:58.361Z</time></trkpt><trkpt lat="45.5124725" lon="9.2608559"><ele>128.0</ele><time>2026-03-25T10:45:59.36Z</time></trkpt><trkpt lat="45.5124988" lon="9.2609747"><ele>128.16666666666666</ele><time>2026-03-25T10:46:00.36Z</time></trkpt><trkpt lat="45.5125256" lon="9.261087"><ele>128.33333333333331</ele><time>2026-03-25T10:46:01.36Z</time></trkpt><trkpt lat="45.5125551" lon="9.2612054"><ele>128.5</ele><time>2026-03-25T10:46:02.359Z</time></trkpt><trkpt lat="45.5125824" lon="9.2613233"><ele>128.66666666666666</ele><time>2026-03-25T10:46:03.36Z</time></trkpt><trkpt lat="45.5126064" lon="9.2614352"><ele>128.83333333333334</ele><time>2026-03-25T10:46:04.36Z</time></trkpt><trkpt lat="45.5126337" lon="9.2615529"><ele>129.0</ele><time>2026-03-25T10:46:05.36Z</time></trkpt><trkpt lat="45.5126565" lon="9.2616735"><ele>128.6</ele><time>2026-03-25T10:46:06.36Z</time></trkpt><trkpt lat="45.5126727" lon="9.261803"><ele>128.2</ele><time>2026-03-25T10:46:07.359Z</time></trkpt><trkpt lat="45.5126859" lon="9.2619368"><ele>127.79999999999998</ele><time>2026-03-25T10:46:08.359Z</time></trkpt><trkpt lat="45.5126907" lon="9.2620698"><ele>127.39999999999999</ele><time>2026-03-25T10:46:09.36Z</time></trkpt><trkpt lat="45.512687" lon="9.2622035"><ele>127.0</ele><time>2026-03-25T10:46:10.36Z</time></trkpt><trkpt lat="45.5126766" lon="9.2623298"><ele>126.83333333333334</ele><time>2026-03-25T10:46:11.36Z</time></trkpt><trkpt lat="45.5126547" lon="9.2624551"><ele>126.66666666666667</ele><time>2026-03-25T10:46:12.359Z</time></trkpt><trkpt lat="45.5126354" lon="9.2625762"><ele>126.5</ele><time>2026-03-25T10:46:13.36Z</time></trkpt><trkpt lat="45.5126206" lon="9.2626983"><ele>126.33333333333334</ele><time>2026-03-25T10:46:14.36Z</time></trkpt><trkpt lat="45.5126094" lon="9.2628184"><ele>126.16666666666667</ele><time>2026-03-25T10:46:15.361Z</time></trkpt><trkpt lat="45.5126001" lon="9.262937"><ele>126.0</ele><time>2026-03-25T10:46:16.359Z</time></trkpt><trkpt lat="45.5125931" lon="9.2630554"><ele>126.16666666666667</ele><time>2026-03-25T10:46:17.36Z</time></trkpt><trkpt lat="45.5125876" lon="9.2631753"><ele>126.33333333333334</ele><time>2026-03-25T10:46:18.359Z</time></trkpt><trkpt lat="45.5125785" lon="9.2633007"><ele>126.5</ele><time>2026-03-25T10:46:19.361Z</time></trkpt><trkpt lat="45.5125722" lon="9.2634271"><ele>126.66666666666667</ele><time>2026-03-25T10:46:20.36Z</time></trkpt><trkpt lat="45.5125656" lon="9.2635545"><ele>126.83333333333334</ele><time>2026-03-25T10:46:21.36Z</time></trkpt><trkpt lat="45.5125607" lon="9.2636881"><ele>127.0</ele><time>2026-03-25T10:46:22.36Z</time></trkpt><trkpt lat="45.5125589" lon="9.2638147"><ele>127.0</ele><time>2026-03-25T10:46:23.361Z</time></trkpt><trkpt lat="45.5125592" lon="9.263943"><ele>126.99999999999999</ele><time>2026-03-25T10:46:24.359Z</time></trkpt><trkpt lat="45.5125603" lon="9.2640707"><ele>126.99999999999999</ele><time>2026-03-25T10:46:25.36Z</time></trkpt><trkpt lat="45.5125619" lon="9.2642028"><ele>127.0</ele><time>2026-03-25T10:46:26.361Z</time></trkpt><trkpt lat="45.5125593" lon="9.2643359"><ele>127.0</ele><time>2026-03-25T10:46:27.359Z</time></trkpt><trkpt lat="45.5125614" lon="9.2644726"><ele>127.19999999999999</ele><time>2026-03-25T10:46:28.361Z</time></trkpt><trkpt lat="45.5125523" lon="9.2646064"><ele>127.39999999999999</ele><time>2026-03-25T10:46:29.361Z</time></trkpt><trkpt lat="45.5125445" lon="9.2647406"><ele>127.60000000000001</ele><time>2026-03-25T10:46:30.36Z</time></trkpt><trkpt lat="45.5125386" lon="9.2648694"><ele>127.80000000000001</ele><time>2026-03-25T10:46:31.36Z</time></trkpt><trkpt lat="45.512532" lon="9.2649959"><ele>128.0</ele><time>2026-03-25T10:46:32.361Z</time></trkpt><trkpt lat="45.5125296" lon="9.2651142"><ele>127.66666666666666</ele><time>2026-03-25T10:46:33.361Z</time></trkpt><trkpt lat="45.5125285" lon="9.2652269"><ele>127.33333333333333</ele><time>2026-03-25T10:46:34.36Z</time></trkpt><trkpt lat="45.5125238" lon="9.2653471"><ele>127.0</ele><time>2026-03-25T10:46:35.361Z</time></trkpt><trkpt lat="45.5125171" lon="9.2654692"><ele>126.66666666666666</ele><time>2026-03-25T10:46:36.361Z</time></trkpt><trkpt lat="45.5125103" lon="9.2655963"><ele>126.33333333333333</ele><time>2026-03-25T10:46:37.36Z</time></trkpt><trkpt lat="45.5125049" lon="9.2657245"><ele>126.0</ele><time>2026-03-25T10:46:38.36Z</time></trkpt><trkpt lat="45.5125002" lon="9.2658462"><ele>126.0</ele><time>2026-03-25T10:46:39.359Z</time></trkpt><trkpt lat="45.5124973" lon="9.2659589"><ele>126.0</ele><time>2026-03-25T10:46:40.359Z</time></trkpt><trkpt lat="45.512494" lon="9.2660674"><ele>126.0</ele><time>2026-03-25T10:46:41.361Z</time></trkpt><trkpt lat="45.5124911" lon="9.2661734"><ele>126.0</ele><time>2026-03-25T10:46:42.359Z</time></trkpt><trkpt lat="45.5124935" lon="9.2662771"><ele>126.0</ele><time>2026-03-25T10:46:43.361Z</time></trkpt><trkpt lat="45.512501" lon="9.266378"><ele>126.0</ele><time>2026-03-25T10:46:44.359Z</time></trkpt><trkpt lat="45.5125284" lon="9.266539"><ele>126.0</ele><time>2026-03-25T10:46:46.36Z</time></trkpt><trkpt lat="45.5125439" lon="9.2666805"><ele>126.0</ele><time>2026-03-25T10:46:48.36Z</time></trkpt><trkpt lat="45.5125367" lon="9.2667919"><ele>126.0</ele><time>2026-03-25T10:46:50.361Z</time></trkpt><trkpt lat="45.5124953" lon="9.2668712"><ele>126.0</ele><time>2026-03-25T10:46:54.361Z</time></trkpt><trkpt lat="45.5124463" lon="9.267024"><ele>126.0</ele><time>2026-03-25T10:46:56.359Z</time></trkpt><trkpt lat="45.5124322" lon="9.2671239"><ele>126.0</ele><time>2026-03-25T10:46:57.36Z</time></trkpt><trkpt lat="45.5124299" lon="9.2672244"><ele>126.33333333333333</ele><time>2026-03-25T10:46:58.361Z</time></trkpt><trkpt lat="45.5124341" lon="9.2673275"><ele>126.66666666666666</ele><time>2026-03-25T10:46:59.36Z</time></trkpt><trkpt lat="45.5124427" lon="9.2674273"><ele>127.0</ele><time>2026-03-25T10:47:00.361Z</time></trkpt><trkpt lat="45.5124575" lon="9.26752"><ele>127.33333333333333</ele><time>2026-03-25T10:47:01.36Z</time></trkpt><trkpt lat="45.5124666" lon="9.2676102"><ele>127.66666666666666</ele><time>2026-03-25T10:47:02.36Z</time></trkpt><trkpt lat="45.5124586" lon="9.2677835"><ele>128.0</ele><time>2026-03-25T10:47:04.361Z</time></trkpt><trkpt lat="45.512444" lon="9.2678723"><ele>127.99999999999999</ele><time>2026-03-25T10:47:05.361Z</time></trkpt><trkpt lat="45.5124232" lon="9.2679667"><ele>128.0</ele><time>2026-03-25T10:47:06.36Z</time></trkpt><trkpt lat="45.5124001" lon="9.2680646"><ele>128.0</ele><time>2026-03-25T10:47:07.36Z</time></trkpt><trkpt lat="45.5123841" lon="9.2681695"><ele>128.0</ele><time>2026-03-25T10:47:08.361Z</time></trkpt><trkpt lat="45.512374" lon="9.2682805"><ele>127.99999999999999</ele><time>2026-03-25T10:47:09.361Z</time></trkpt><trkpt lat="45.5123681" lon="9.2683941"><ele>128.0</ele><time>2026-03-25T10:47:10.361Z</time></trkpt><trkpt lat="45.5123557" lon="9.2685082"><ele>127.83333333333333</ele><time>2026-03-25T10:47:11.361Z</time></trkpt><trkpt lat="45.5123454" lon="9.268622"><ele>127.66666666666666</ele><time>2026-03-25T10:47:12.359Z</time></trkpt><trkpt lat="45.5123375" lon="9.2687334"><ele>127.5</ele><time>2026-03-25T10:47:13.36Z</time></trkpt><trkpt lat="45.5123372" lon="9.2688443"><ele>127.33333333333334</ele><time>2026-03-25T10:47:14.36Z</time></trkpt><trkpt lat="45.5123387" lon="9.2689651"><ele>127.16666666666667</ele><time>2026-03-25T10:47:15.361Z</time></trkpt><trkpt lat="45.5123405" lon="9.269084"><ele>127.0</ele><time>2026-03-25T10:47:16.36Z</time></trkpt><trkpt lat="45.5123342" lon="9.2691997"><ele>127.33333333333334</ele><time>2026-03-25T10:47:17.359Z</time></trkpt><trkpt lat="45.5123271" lon="9.2693193"><ele>127.66666666666667</ele><time>2026-03-25T10:47:18.36Z</time></trkpt><trkpt lat="45.512318" lon="9.2694418"><ele>128.0</ele><time>2026-03-25T10:47:19.36Z</time></trkpt><trkpt lat="45.5123098" lon="9.2695676"><ele>128.33333333333334</ele><time>2026-03-25T10:47:20.359Z</time></trkpt><trkpt lat="45.5123026" lon="9.2696943"><ele>128.66666666666666</ele><time>2026-03-25T10:47:21.361Z</time></trkpt><trkpt lat="45.5122977" lon="9.2698209"><ele>129.0</ele><time>2026-03-25T10:47:22.361Z</time></trkpt><trkpt lat="45.5122934" lon="9.2699474"><ele>129.0</ele><time>2026-03-25T10:47:23.36Z</time></trkpt><trkpt lat="45.5122816" lon="9.270073"><ele>129.0</ele><time>2026-03-25T10:47:24.361Z</time></trkpt><trkpt lat="45.5122721" lon="9.2701971"><ele>129.0</ele><time>2026-03-25T10:47:25.359Z</time></trkpt><trkpt lat="45.5122606" lon="9.2703231"><ele>129.0</ele><time>2026-03-25T10:47:26.36Z</time></trkpt><trkpt lat="45.5122515" lon="9.2704493"><ele>129.0</ele><time>2026-03-25T10:47:27.359Z</time></trkpt><trkpt lat="45.5122481" lon="9.2705728"><ele>129.0</ele><time>2026-03-25T10:47:28.36Z</time></trkpt><trkpt lat="45.512243" lon="9.2706981"><ele>128.66666666666666</ele><time>2026-03-25T10:47:29.36Z</time></trkpt><trkpt lat="45.5122306" lon="9.2708217"><ele>128.33333333333334</ele><time>2026-03-25T10:47:30.36Z</time></trkpt><trkpt lat="45.5122229" lon="9.2709472"><ele>128.0</ele><time>2026-03-25T10:47:31.36Z</time></trkpt><trkpt lat="45.5122144" lon="9.2710732"><ele>127.66666666666667</ele><time>2026-03-25T10:47:32.361Z</time></trkpt><trkpt lat="45.5122074" lon="9.2711992"><ele>127.33333333333334</ele><time>2026-03-25T10:47:33.361Z</time></trkpt><trkpt lat="45.5122048" lon="9.2713277"><ele>127.0</ele><time>2026-03-25T10:47:34.36Z</time></trkpt><trkpt lat="45.5122023" lon="9.2714588"><ele>126.8</ele><time>2026-03-25T10:47:35.359Z</time></trkpt><trkpt lat="45.5121959" lon="9.2715937"><ele>126.6</ele><time>2026-03-25T10:47:36.361Z</time></trkpt><trkpt lat="45.5121875" lon="9.271732"><ele>126.39999999999999</ele><time>2026-03-25T10:47:37.361Z</time></trkpt><trkpt lat="45.5121821" lon="9.2718709"><ele>126.19999999999999</ele><time>2026-03-25T10:47:38.36Z</time></trkpt><trkpt lat="45.5121746" lon="9.2720135"><ele>126.0</ele><time>2026-03-25T10:47:39.359Z</time></trkpt><trkpt lat="45.5121667" lon="9.2721507"><ele>126.19999999999999</ele><time>2026-03-25T10:47:40.361Z</time></trkpt><trkpt lat="45.512157" lon="9.2722918"><ele>126.39999999999999</ele><time>2026-03-25T10:47:41.358Z</time></trkpt><trkpt lat="45.5121523" lon="9.2724376"><ele>126.6</ele><time>2026-03-25T10:47:42.36Z</time></trkpt><trkpt lat="45.5121484" lon="9.2725807"><ele>126.8</ele><time>2026-03-25T10:47:43.36Z</time></trkpt><trkpt lat="45.5121425" lon="9.2727232"><ele>127.0</ele><time>2026-03-25T10:47:44.361Z</time></trkpt><trkpt lat="45.5121359" lon="9.2728643"><ele>127.0</ele><time>2026-03-25T10:47:45.36Z</time></trkpt><trkpt lat="45.5121283" lon="9.2730074"><ele>126.99999999999999</ele><time>2026-03-25T10:47:46.36Z</time></trkpt><trkpt lat="45.5121216" lon="9.2731513"><ele>126.99999999999999</ele><time>2026-03-25T10:47:47.36Z</time></trkpt><trkpt lat="45.5121158" lon="9.2732951"><ele>127.0</ele><time>2026-03-25T10:47:48.36Z</time></trkpt><trkpt lat="45.5121104" lon="9.2734404"><ele>127.0</ele><time>2026-03-25T10:47:49.361Z</time></trkpt><trkpt lat="45.512102" lon="9.2735818"><ele>127.0</ele><time>2026-03-25T10:47:50.361Z</time></trkpt><trkpt lat="45.5120966" lon="9.2737181"><ele>126.99999999999999</ele><time>2026-03-25T10:47:51.361Z</time></trkpt><trkpt lat="45.5120903" lon="9.273858"><ele>126.99999999999999</ele><time>2026-03-25T10:47:52.361Z</time></trkpt><trkpt lat="45.5120828" lon="9.2739974"><ele>127.0</ele><time>2026-03-25T10:47:53.361Z</time></trkpt><trkpt lat="45.5120784" lon="9.274139"><ele>127.0</ele><time>2026-03-25T10:47:54.361Z</time></trkpt><trkpt lat="45.5120748" lon="9.2742753"><ele>127.33333333333334</ele><time>2026-03-25T10:47:55.361Z</time></trkpt><trkpt lat="45.512071" lon="9.2744039"><ele>127.66666666666667</ele><time>2026-03-25T10:47:56.36Z</time></trkpt><trkpt lat="45.5120632" lon="9.2745275"><ele>128.0</ele><time>2026-03-25T10:47:57.36Z</time></trkpt><trkpt lat="45.5120557" lon="9.2746482"><ele>128.33333333333334</ele><time>2026-03-25T10:47:58.36Z</time></trkpt><trkpt lat="45.5120508" lon="9.2747656"><ele>128.66666666666666</ele><time>2026-03-25T10:47:59.36Z</time></trkpt><trkpt lat="45.5120522" lon="9.2748838"><ele>129.0</ele><time>2026-03-25T10:48:00.361Z</time></trkpt><trkpt lat="45.5120528" lon="9.275012"><ele>129.2</ele><time>2026-03-25T10:48:01.361Z</time></trkpt><trkpt lat="45.5120519" lon="9.275143"><ele>129.4</ele><time>2026-03-25T10:48:02.361Z</time></trkpt><trkpt lat="45.5120427" lon="9.2752794"><ele>129.6</ele><time>2026-03-25T10:48:03.36Z</time></trkpt><trkpt lat="45.5120359" lon="9.2754143"><ele>129.8</ele><time>2026-03-25T10:48:04.359Z</time></trkpt><trkpt lat="45.5120302" lon="9.2755545"><ele>130.0</ele><time>2026-03-25T10:48:05.359Z</time></trkpt><trkpt lat="45.5120201" lon="9.2756973"><ele>129.6</ele><time>2026-03-25T10:48:06.36Z</time></trkpt><trkpt lat="45.5120143" lon="9.2758399"><ele>129.2</ele><time>2026-03-25T10:48:07.361Z</time></trkpt><trkpt lat="45.5120119" lon="9.275987"><ele>128.8</ele><time>2026-03-25T10:48:08.359Z</time></trkpt><trkpt lat="45.5120095" lon="9.2761398"><ele>128.4</ele><time>2026-03-25T10:48:09.359Z</time></trkpt><trkpt lat="45.5120049" lon="9.2762897"><ele>128.0</ele><time>2026-03-25T10:48:10.361Z</time></trkpt><trkpt lat="45.5119972" lon="9.2764482"><ele>127.60000000000001</ele><time>2026-03-25T10:48:11.359Z</time></trkpt><trkpt lat="45.5119854" lon="9.2766023"><ele>127.20000000000002</ele><time>2026-03-25T10:48:12.361Z</time></trkpt><trkpt lat="45.5119788" lon="9.2767524"><ele>126.8</ele><time>2026-03-25T10:48:13.359Z</time></trkpt><trkpt lat="45.5119733" lon="9.2769017"><ele>126.4</ele><time>2026-03-25T10:48:14.361Z</time></trkpt><trkpt lat="45.5119665" lon="9.2770536"><ele>126.0</ele><time>2026-03-25T10:48:15.359Z</time></trkpt><trkpt lat="45.5119616" lon="9.2772081"><ele>126.0</ele><time>2026-03-25T10:48:16.36Z</time></trkpt><trkpt lat="45.5119584" lon="9.2773601"><ele>126.0</ele><time>2026-03-25T10:48:17.36Z</time></trkpt><trkpt lat="45.5119539" lon="9.2775088"><ele>126.0</ele><time>2026-03-25T10:48:18.361Z</time></trkpt><trkpt lat="45.5119485" lon="9.2776573"><ele>126.0</ele><time>2026-03-25T10:48:19.36Z</time></trkpt><trkpt lat="45.5119443" lon="9.277806"><ele>126.0</ele><time>2026-03-25T10:48:20.36Z</time></trkpt><trkpt lat="45.5119372" lon="9.2779525"><ele>126.0</ele><time>2026-03-25T10:48:21.359Z</time></trkpt><trkpt lat="45.51193" lon="9.2780895"><ele>126.0</ele><time>2026-03-25T10:48:22.36Z</time></trkpt><trkpt lat="45.5119167" lon="9.2782127"><ele>126.0</ele><time>2026-03-25T10:48:23.359Z</time></trkpt><trkpt lat="45.5119054" lon="9.2783255"><ele>126.0</ele><time>2026-03-25T10:48:24.359Z</time></trkpt><trkpt lat="45.5118919" lon="9.2784341"><ele>126.0</ele><time>2026-03-25T10:48:25.36Z</time></trkpt><trkpt lat="45.5118671" lon="9.2785352"><ele>126.0</ele><time>2026-03-25T10:48:26.36Z</time></trkpt><trkpt lat="45.5118303" lon="9.2786205"><ele>125.5</ele><time>2026-03-25T10:48:27.359Z</time></trkpt><trkpt lat="45.5118146" lon="9.2787164"><ele>125.0</ele><time>2026-03-25T10:48:28.361Z</time></trkpt><trkpt lat="45.5118127" lon="9.2788128"><ele>124.5</ele><time>2026-03-25T10:48:29.359Z</time></trkpt><trkpt lat="45.5118306" lon="9.2789152"><ele>124.0</ele><time>2026-03-25T10:48:30.359Z</time></trkpt><trkpt lat="45.5118592" lon="9.2790196"><ele>123.5</ele><time>2026-03-25T10:48:31.36Z</time></trkpt><trkpt lat="45.5118804" lon="9.2791334"><ele>123.0</ele><time>2026-03-25T10:48:32.36Z</time></trkpt><trkpt lat="45.5118785" lon="9.2792597"><ele>123.0</ele><time>2026-03-25T10:48:33.36Z</time></trkpt><trkpt lat="45.5118659" lon="9.2793892"><ele>123.0</ele><time>2026-03-25T10:48:34.36Z</time></trkpt><trkpt lat="45.5118514" lon="9.2795138"><ele>123.0</ele><time>2026-03-25T10:48:35.361Z</time></trkpt><trkpt lat="45.5118415" lon="9.2796357"><ele>123.0</ele><time>2026-03-25T10:48:36.36Z</time></trkpt><trkpt lat="45.5118328" lon="9.279758"><ele>123.0</ele><time>2026-03-25T10:48:37.36Z</time></trkpt><trkpt lat="45.5118253" lon="9.2798744"><ele>123.0</ele><time>2026-03-25T10:48:38.36Z</time></trkpt><trkpt lat="45.5118179" lon="9.279988"><ele>123.66666666666667</ele><time>2026-03-25T10:48:39.36Z</time></trkpt><trkpt lat="45.5118205" lon="9.2800952"><ele>124.33333333333334</ele><time>2026-03-25T10:48:40.36Z</time></trkpt><trkpt lat="45.5118133" lon="9.2801951"><ele>125.0</ele><time>2026-03-25T10:48:41.359Z</time></trkpt><trkpt lat="45.5118056" lon="9.2802928"><ele>125.66666666666667</ele><time>2026-03-25T10:48:42.36Z</time></trkpt><trkpt lat="45.511805" lon="9.2803828"><ele>126.33333333333334</ele><time>2026-03-25T10:48:43.361Z</time></trkpt><trkpt lat="45.5117924" lon="9.2805509"><ele>127.0</ele><time>2026-03-25T10:48:45.36Z</time></trkpt><trkpt lat="45.5117814" lon="9.2806795"><ele>127.39999999999999</ele><time>2026-03-25T10:48:47.359Z</time></trkpt><trkpt lat="45.5117774" lon="9.2807835"><ele>127.79999999999998</ele><time>2026-03-25T10:48:50.361Z</time></trkpt><trkpt lat="45.5117839" lon="9.2809118"><ele>128.2</ele><time>2026-03-25T10:48:53.36Z</time></trkpt><trkpt lat="45.511779" lon="9.281079"><ele>128.6</ele><time>2026-03-25T10:48:55.361Z</time></trkpt><trkpt lat="45.5117745" lon="9.2812559"><ele>129.0</ele><time>2026-03-25T10:48:57.36Z</time></trkpt><trkpt lat="45.5117674" lon="9.2813618"><ele>128.83333333333334</ele><time>2026-03-25T10:48:58.36Z</time></trkpt><trkpt lat="45.5117673" lon="9.281471"><ele>128.66666666666666</ele><time>2026-03-25T10:48:59.361Z</time></trkpt><trkpt lat="45.511763" lon="9.2815836"><ele>128.5</ele><time>2026-03-25T10:49:00.36Z</time></trkpt><trkpt lat="45.511759" lon="9.2817025"><ele>128.33333333333331</ele><time>2026-03-25T10:49:01.36Z</time></trkpt><trkpt lat="45.5117512" lon="9.2818309"><ele>128.16666666666666</ele><time>2026-03-25T10:49:02.361Z</time></trkpt><trkpt lat="45.511742" lon="9.2819657"><ele>128.0</ele><time>2026-03-25T10:49:03.359Z</time></trkpt><trkpt lat="45.5117321" lon="9.2821009"><ele>128.0</ele><time>2026-03-25T10:49:04.361Z</time></trkpt><trkpt lat="45.5117224" lon="9.2822364"><ele>128.0</ele><time>2026-03-25T10:49:05.359Z</time></trkpt><trkpt lat="45.5117134" lon="9.2823713"><ele>128.0</ele><time>2026-03-25T10:49:06.36Z</time></trkpt><trkpt lat="45.511708" lon="9.2825056"><ele>128.0</ele><time>2026-03-25T10:49:07.361Z</time></trkpt><trkpt lat="45.5117059" lon="9.2826427"><ele>128.0</ele><time>2026-03-25T10:49:08.36Z</time></trkpt><trkpt lat="45.5117" lon="9.2827783"><ele>128.4</ele><time>2026-03-25T10:49:09.36Z</time></trkpt><trkpt lat="45.5116947" lon="9.2829206"><ele>128.8</ele><time>2026-03-25T10:49:10.361Z</time></trkpt><trkpt lat="45.5116886" lon="9.283056"><ele>129.2</ele><time>2026-03-25T10:49:11.361Z</time></trkpt><trkpt lat="45.5116775" lon="9.2831936"><ele>129.6</ele><time>2026-03-25T10:49:12.36Z</time></trkpt><trkpt lat="45.5116712" lon="9.2833286"><ele>130.0</ele><time>2026-03-25T10:49:13.36Z</time></trkpt><trkpt lat="45.5116612" lon="9.2834636"><ele>130.0</ele><time>2026-03-25T10:49:14.36Z</time></trkpt><trkpt lat="45.5116539" lon="9.2835991"><ele>130.0</ele><time>2026-03-25T10:49:15.361Z</time></trkpt><trkpt lat="45.511645" lon="9.2837339"><ele>130.0</ele><time>2026-03-25T10:49:16.36Z</time></trkpt><trkpt lat="45.5116403" lon="9.2838652"><ele>130.0</ele><time>2026-03-25T10:49:17.36Z</time></trkpt><trkpt lat="45.5116318" lon="9.2839809"><ele>130.0</ele><time>2026-03-25T10:49:18.36Z</time></trkpt><trkpt lat="45.5116266" lon="9.2840897"><ele>130.0</ele><time>2026-03-25T10:49:19.361Z</time></trkpt><trkpt lat="45.5116128" lon="9.2842113"><ele>129.83333333333334</ele><time>2026-03-25T10:49:21.359Z</time></trkpt><trkpt lat="45.5116328" lon="9.2842984"><ele>129.66666666666669</ele><time>2026-03-25T10:49:48.359Z</time></trkpt><trkpt lat="45.5116097" lon="9.2844155"><ele>129.5</ele><time>2026-03-25T10:49:50.36Z</time></trkpt><trkpt lat="45.5115746" lon="9.2845748"><ele>129.33333333333334</ele><time>2026-03-25T10:49:52.36Z</time></trkpt><trkpt lat="45.51155" lon="9.2846632"><ele>129.16666666666666</ele><time>2026-03-25T10:49:53.361Z</time></trkpt><trkpt lat="45.5115211" lon="9.2847556"><ele>129.0</ele><time>2026-03-25T10:49:54.361Z</time></trkpt><trkpt lat="45.5114846" lon="9.2848402"><ele>128.99999999999997</ele><time>2026-03-25T10:49:55.36Z</time></trkpt><trkpt lat="45.5114469" lon="9.2849252"><ele>129.0</ele><time>2026-03-25T10:49:56.361Z</time></trkpt><trkpt lat="45.5114249" lon="9.2850296"><ele>129.0</ele><time>2026-03-25T10:49:57.361Z</time></trkpt><trkpt lat="45.511423" lon="9.2851254"><ele>129.0</ele><time>2026-03-25T10:49:58.36Z</time></trkpt><trkpt lat="45.511447" lon="9.2852283"><ele>129.0</ele><time>2026-03-25T10:49:59.361Z</time></trkpt><trkpt lat="45.5114833" lon="9.2853192"><ele>128.99999999999997</ele><time>2026-03-25T10:50:00.359Z</time></trkpt><trkpt lat="45.5115286" lon="9.2854137"><ele>129.0</ele><time>2026-03-25T10:50:01.359Z</time></trkpt><trkpt lat="45.5115702" lon="9.2855159"><ele>128.8</ele><time>2026-03-25T10:50:02.361Z</time></trkpt><trkpt lat="45.511594" lon="9.2856274"><ele>128.60000000000002</ele><time>2026-03-25T10:50:03.359Z</time></trkpt><trkpt lat="45.5116204" lon="9.2857498"><ele>128.4</ele><time>2026-03-25T10:50:04.359Z</time></trkpt><trkpt lat="45.5116491" lon="9.2858739"><ele>128.20000000000002</ele><time>2026-03-25T10:50:05.36Z</time></trkpt><trkpt lat="45.5116779" lon="9.2860042"><ele>128.0</ele><time>2026-03-25T10:50:06.362Z</time></trkpt><trkpt lat="45.5117063" lon="9.2861352"><ele>128.0</ele><time>2026-03-25T10:50:07.361Z</time></trkpt><trkpt lat="45.51174" lon="9.286264"><ele>128.0</ele><time>2026-03-25T10:50:08.359Z</time></trkpt><trkpt lat="45.511773" lon="9.2863965"><ele>128.0</ele><time>2026-03-25T10:50:09.361Z</time></trkpt><trkpt lat="45.5118032" lon="9.2865315"><ele>128.0</ele><time>2026-03-25T10:50:10.361Z</time></trkpt><trkpt lat="45.5118348" lon="9.2866729"><ele>128.0</ele><time>2026-03-25T10:50:11.36Z</time></trkpt><trkpt lat="45.5118697" lon="9.286807"><ele>128.0</ele><time>2026-03-25T10:50:12.361Z</time></trkpt><trkpt lat="45.5119035" lon="9.2869445"><ele>128.0</ele><time>2026-03-25T10:50:13.36Z</time></trkpt><trkpt lat="45.511945" lon="9.2870822"><ele>128.0</ele><time>2026-03-25T10:50:14.36Z</time></trkpt><trkpt lat="45.5119841" lon="9.2872182"><ele>128.0</ele><time>2026-03-25T10:50:15.36Z</time></trkpt><trkpt lat="45.5120139" lon="9.28736"><ele>128.0</ele><time>2026-03-25T10:50:16.36Z</time></trkpt><trkpt lat="45.5120503" lon="9.2874996"><ele>128.0</ele><time>2026-03-25T10:50:17.361Z</time></trkpt><trkpt lat="45.5120863" lon="9.287631"><ele>128.0</ele><time>2026-03-25T10:50:18.361Z</time></trkpt><trkpt lat="45.5121191" lon="9.2877738"><ele>128.0</ele><time>2026-03-25T10:50:19.36Z</time></trkpt><trkpt lat="45.5121588" lon="9.2879177"><ele>128.0</ele><time>2026-03-25T10:50:20.36Z</time></trkpt><trkpt lat="45.5121958" lon="9.2880618"><ele>128.0</ele><time>2026-03-25T10:50:21.359Z</time></trkpt><trkpt lat="45.5122324" lon="9.2882158"><ele>128.0</ele><time>2026-03-25T10:50:22.36Z</time></trkpt><trkpt lat="45.5122635" lon="9.2883581"><ele>128.0</ele><time>2026-03-25T10:50:23.36Z</time></trkpt><trkpt lat="45.5122911" lon="9.2885073"><ele>128.0</ele><time>2026-03-25T10:50:24.36Z</time></trkpt><trkpt lat="45.5123279" lon="9.2886526"><ele>128.0</ele><time>2026-03-25T10:50:25.361Z</time></trkpt><trkpt lat="45.5123713" lon="9.2888065"><ele>128.0</ele><time>2026-03-25T10:50:26.361Z</time></trkpt><trkpt lat="45.5124099" lon="9.2889525"><ele>127.60000000000001</ele><time>2026-03-25T10:50:27.36Z</time></trkpt><trkpt lat="45.5124495" lon="9.2891004"><ele>127.20000000000002</ele><time>2026-03-25T10:50:28.36Z</time></trkpt><trkpt lat="45.5124897" lon="9.2892513"><ele>126.8</ele><time>2026-03-25T10:50:29.36Z</time></trkpt><trkpt lat="45.5125327" lon="9.289402"><ele>126.4</ele><time>2026-03-25T10:50:30.36Z</time></trkpt><trkpt lat="45.5125725" lon="9.2895493"><ele>126.0</ele><time>2026-03-25T10:50:31.36Z</time></trkpt><trkpt lat="45.5126113" lon="9.2896976"><ele>126.6</ele><time>2026-03-25T10:50:32.361Z</time></trkpt><trkpt lat="45.5126521" lon="9.2898445"><ele>127.19999999999999</ele><time>2026-03-25T10:50:33.36Z</time></trkpt><trkpt lat="45.5126918" lon="9.2899909"><ele>127.80000000000001</ele><time>2026-03-25T10:50:34.361Z</time></trkpt><trkpt lat="45.5127282" lon="9.2901419"><ele>128.4</ele><time>2026-03-25T10:50:35.359Z</time></trkpt><trkpt lat="45.5127577" lon="9.2902934"><ele>129.0</ele><time>2026-03-25T10:50:36.359Z</time></trkpt><trkpt lat="45.5127767" lon="9.2904487"><ele>129.25</ele><time>2026-03-25T10:50:37.36Z</time></trkpt><trkpt lat="45.5127936" lon="9.2906075"><ele>129.5</ele><time>2026-03-25T10:50:38.359Z</time></trkpt><trkpt lat="45.5128085" lon="9.2907679"><ele>129.75</ele><time>2026-03-25T10:50:39.361Z</time></trkpt><trkpt lat="45.5128258" lon="9.290926"><ele>130.0</ele><time>2026-03-25T10:50:40.359Z</time></trkpt><trkpt lat="45.5128429" lon="9.2910852"><ele>130.0</ele><time>2026-03-25T10:50:41.361Z</time></trkpt><trkpt lat="45.5128589" lon="9.291245"><ele>130.0</ele><time>2026-03-25T10:50:42.36Z</time></trkpt><trkpt lat="45.5128698" lon="9.2914093"><ele>130.0</ele><time>2026-03-25T10:50:43.361Z</time></trkpt><trkpt lat="45.5128847" lon="9.2915754"><ele>130.0</ele><time>2026-03-25T10:50:44.361Z</time></trkpt><trkpt lat="45.512899" lon="9.2917436"><ele>129.25</ele><time>2026-03-25T10:50:45.361Z</time></trkpt><trkpt lat="45.5129153" lon="9.2919063"><ele>128.5</ele><time>2026-03-25T10:50:46.36Z</time></trkpt><trkpt lat="45.5129305" lon="9.2920694"><ele>127.75</ele><time>2026-03-25T10:50:47.36Z</time></trkpt><trkpt lat="45.5129451" lon="9.2922355"><ele>127.0</ele><time>2026-03-25T10:50:48.36Z</time></trkpt><trkpt lat="45.512953" lon="9.2924055"><ele>127.0</ele><time>2026-03-25T10:50:49.36Z</time></trkpt><trkpt lat="45.5129708" lon="9.2925732"><ele>127.0</ele><time>2026-03-25T10:50:50.361Z</time></trkpt><trkpt lat="45.5129869" lon="9.2927384"><ele>127.0</ele><time>2026-03-25T10:50:51.36Z</time></trkpt><trkpt lat="45.5130008" lon="9.2929047"><ele>127.0</ele><time>2026-03-25T10:50:52.36Z</time></trkpt><trkpt lat="45.5130145" lon="9.2930732"><ele>127.25</ele><time>2026-03-25T10:50:53.361Z</time></trkpt><trkpt lat="45.513027" lon="9.293239"><ele>127.5</ele><time>2026-03-25T10:50:54.36Z</time></trkpt><trkpt lat="45.5130424" lon="9.2933978"><ele>127.75</ele><time>2026-03-25T10:50:55.36Z</time></trkpt><trkpt lat="45.5130557" lon="9.2935558"><ele>128.0</ele><time>2026-03-25T10:50:56.359Z</time></trkpt><trkpt lat="45.5130664" lon="9.2937161"><ele>128.0</ele><time>2026-03-25T10:50:57.36Z</time></trkpt><trkpt lat="45.5130812" lon="9.2938699"><ele>128.0</ele><time>2026-03-25T10:50:58.361Z</time></trkpt><trkpt lat="45.5130983" lon="9.2940137"><ele>128.0</ele><time>2026-03-25T10:50:59.36Z</time></trkpt><trkpt lat="45.5131055" lon="9.2941551"><ele>128.0</ele><time>2026-03-25T10:51:00.36Z</time></trkpt><trkpt lat="45.5131097" lon="9.2942924"><ele>128.0</ele><time>2026-03-25T10:51:01.36Z</time></trkpt><trkpt lat="45.513112" lon="9.2944255"><ele>128.0</ele><time>2026-03-25T10:51:02.36Z</time></trkpt><trkpt lat="45.5131121" lon="9.2945586"><ele>128.0</ele><time>2026-03-25T10:51:03.36Z</time></trkpt><trkpt lat="45.5131113" lon="9.2946953"><ele>128.0</ele><time>2026-03-25T10:51:04.362Z</time></trkpt><trkpt lat="45.513122" lon="9.2948285"><ele>128.0</ele><time>2026-03-25T10:51:05.36Z</time></trkpt><trkpt lat="45.5131478" lon="9.2949515"><ele>128.0</ele><time>2026-03-25T10:51:06.359Z</time></trkpt><trkpt lat="45.5131829" lon="9.2950759"><ele>128.0</ele><time>2026-03-25T10:51:07.36Z</time></trkpt><trkpt lat="45.51321" lon="9.2952094"><ele>128.0</ele><time>2026-03-25T10:51:08.36Z</time></trkpt><trkpt lat="45.51323" lon="9.2953477"><ele>128.0</ele><time>2026-03-25T10:51:09.361Z</time></trkpt><trkpt lat="45.513245" lon="9.2954852"><ele>128.0</ele><time>2026-03-25T10:51:10.362Z</time></trkpt><trkpt lat="45.5132587" lon="9.2956284"><ele>128.0</ele><time>2026-03-25T10:51:11.361Z</time></trkpt><trkpt lat="45.5132714" lon="9.2957727"><ele>128.0</ele><time>2026-03-25T10:51:12.36Z</time></trkpt><trkpt lat="45.5132835" lon="9.2959189"><ele>128.0</ele><time>2026-03-25T10:51:13.36Z</time></trkpt><trkpt lat="45.5133015" lon="9.2960644"><ele>128.0</ele><time>2026-03-25T10:51:14.361Z</time></trkpt><trkpt lat="45.5133211" lon="9.2962145"><ele>128.0</ele><time>2026-03-25T10:51:15.361Z</time></trkpt><trkpt lat="45.5133359" lon="9.2963687"><ele>128.0</ele><time>2026-03-25T10:51:16.36Z</time></trkpt><trkpt lat="45.513348" lon="9.2965248"><ele>128.0</ele><time>2026-03-25T10:51:17.359Z</time></trkpt><trkpt lat="45.5133635" lon="9.2966796"><ele>128.0</ele><time>2026-03-25T10:51:18.36Z</time></trkpt><trkpt lat="45.5133772" lon="9.2968347"><ele>128.0</ele><time>2026-03-25T10:51:19.361Z</time></trkpt><trkpt lat="45.5133925" lon="9.2969911"><ele>128.0</ele><time>2026-03-25T10:51:20.359Z</time></trkpt><trkpt lat="45.5134024" lon="9.2971431"><ele>128.0</ele><time>2026-03-25T10:51:21.36Z</time></trkpt><trkpt lat="45.5134153" lon="9.2973028"><ele>127.80000000000001</ele><time>2026-03-25T10:51:22.361Z</time></trkpt><trkpt lat="45.5134362" lon="9.2974579"><ele>127.60000000000001</ele><time>2026-03-25T10:51:23.36Z</time></trkpt><trkpt lat="45.51345" lon="9.297607"><ele>127.39999999999999</ele><time>2026-03-25T10:51:24.36Z</time></trkpt><trkpt lat="45.5134627" lon="9.2977519"><ele>127.19999999999999</ele><time>2026-03-25T10:51:25.361Z</time></trkpt><trkpt lat="45.5134746" lon="9.297898"><ele>127.0</ele><time>2026-03-25T10:51:26.361Z</time></trkpt><trkpt lat="45.5134873" lon="9.298041"><ele>127.00000000000001</ele><time>2026-03-25T10:51:27.36Z</time></trkpt><trkpt lat="45.5134954" lon="9.2981804"><ele>127.0</ele><time>2026-03-25T10:51:28.36Z</time></trkpt><trkpt lat="45.5135028" lon="9.2983096"><ele>127.0</ele><time>2026-03-25T10:51:29.361Z</time></trkpt><trkpt lat="45.5135136" lon="9.2984234"><ele>127.0</ele><time>2026-03-25T10:51:30.36Z</time></trkpt><trkpt lat="45.5135262" lon="9.2985272"><ele>127.00000000000001</ele><time>2026-03-25T10:51:31.36Z</time></trkpt><trkpt lat="45.5135363" lon="9.298621"><ele>127.0</ele><time>2026-03-25T10:51:32.359Z</time></trkpt><trkpt lat="45.513535" lon="9.2987824"><ele>127.16666666666667</ele><time>2026-03-25T10:51:34.36Z</time></trkpt><trkpt lat="45.5135141" lon="9.2989236"><ele>127.33333333333334</ele><time>2026-03-25T10:51:36.36Z</time></trkpt><trkpt lat="45.5134885" lon="9.2990734"><ele>127.5</ele><time>2026-03-25T10:51:38.361Z</time></trkpt><trkpt lat="45.5134888" lon="9.2991636"><ele>127.66666666666666</ele><time>2026-03-25T10:51:39.36Z</time></trkpt><trkpt lat="45.5134953" lon="9.2992628"><ele>127.83333333333333</ele><time>2026-03-25T10:51:40.36Z</time></trkpt><trkpt lat="45.5134984" lon="9.2993743"><ele>128.0</ele><time>2026-03-25T10:51:41.36Z</time></trkpt><trkpt lat="45.5134937" lon="9.2994863"><ele>128.0</ele><time>2026-03-25T10:51:42.361Z</time></trkpt><trkpt lat="45.5134865" lon="9.2995967"><ele>127.99999999999999</ele><time>2026-03-25T10:51:43.361Z</time></trkpt><trkpt lat="45.5134827" lon="9.2997076"><ele>128.0</ele><time>2026-03-25T10:51:44.36Z</time></trkpt><trkpt lat="45.5134806" lon="9.2998111"><ele>128.0</ele><time>2026-03-25T10:51:45.361Z</time></trkpt><trkpt lat="45.5134826" lon="9.2999129"><ele>127.99999999999999</ele><time>2026-03-25T10:51:46.359Z</time></trkpt><trkpt lat="45.5134753" lon="9.300012"><ele>128.0</ele><time>2026-03-25T10:51:47.36Z</time></trkpt><trkpt lat="45.5134499" lon="9.3001026"><ele>128.0</ele><time>2026-03-25T10:51:48.36Z</time></trkpt><trkpt lat="45.5134112" lon="9.3001807"><ele>128.14285714285714</ele><time>2026-03-25T10:51:49.36Z</time></trkpt><trkpt lat="45.513364" lon="9.3002538"><ele>128.28571428571428</ele><time>2026-03-25T10:51:50.361Z</time></trkpt><trkpt lat="45.513328" lon="9.3003355"><ele>128.42857142857142</ele><time>2026-03-25T10:51:51.361Z</time></trkpt><trkpt lat="45.5133075" lon="9.3004293"><ele>128.57142857142856</ele><time>2026-03-25T10:51:52.36Z</time></trkpt><trkpt lat="45.5133136" lon="9.3005254"><ele>128.71428571428572</ele><time>2026-03-25T10:51:53.36Z</time></trkpt><trkpt lat="45.5133421" lon="9.3006193"><ele>128.85714285714283</ele><time>2026-03-25T10:51:54.361Z</time></trkpt><trkpt lat="45.5133817" lon="9.3007133"><ele>129.0</ele><time>2026-03-25T10:51:55.361Z</time></trkpt><trkpt lat="45.5134134" lon="9.3008095"><ele>129.0</ele><time>2026-03-25T10:51:56.36Z</time></trkpt><trkpt lat="45.5134404" lon="9.3009027"><ele>129.0</ele><time>2026-03-25T10:51:57.36Z</time></trkpt><trkpt lat="45.5134522" lon="9.3010062"><ele>129.0</ele><time>2026-03-25T10:51:58.36Z</time></trkpt><trkpt lat="45.5134573" lon="9.301116"><ele>129.0</ele><time>2026-03-25T10:51:59.36Z</time></trkpt><trkpt lat="45.5134558" lon="9.3012362"><ele>129.0</ele><time>2026-03-25T10:52:00.36Z</time></trkpt><trkpt lat="45.5134508" lon="9.3013601"><ele>129.0</ele><time>2026-03-25T10:52:01.36Z</time></trkpt><trkpt lat="45.513441" lon="9.3014917"><ele>128.8</ele><time>2026-03-25T10:52:02.359Z</time></trkpt><trkpt lat="45.5134382" lon="9.301622"><ele>128.60000000000002</ele><time>2026-03-25T10:52:03.361Z</time></trkpt><trkpt lat="45.5134331" lon="9.3017573"><ele>128.4</ele><time>2026-03-25T10:52:04.36Z</time></trkpt><trkpt lat="45.5134275" lon="9.3018928"><ele>128.20000000000002</ele><time>2026-03-25T10:52:05.361Z</time></trkpt><trkpt lat="45.5134187" lon="9.302026"><ele>128.0</ele><time>2026-03-25T10:52:06.361Z</time></trkpt><trkpt lat="45.5134046" lon="9.3021651"><ele>127.60000000000001</ele><time>2026-03-25T10:52:07.361Z</time></trkpt><trkpt lat="45.5133917" lon="9.3023027"><ele>127.20000000000002</ele><time>2026-03-25T10:52:08.362Z</time></trkpt><trkpt lat="45.5133818" lon="9.3024384"><ele>126.8</ele><time>2026-03-25T10:52:09.361Z</time></trkpt><trkpt lat="45.5133671" lon="9.3025792"><ele>126.4</ele><time>2026-03-25T10:52:10.359Z</time></trkpt><trkpt lat="45.5133597" lon="9.3027241"><ele>126.0</ele><time>2026-03-25T10:52:11.361Z</time></trkpt><trkpt lat="45.5133584" lon="9.3028614"><ele>126.0</ele><time>2026-03-25T10:52:12.361Z</time></trkpt><trkpt lat="45.5133528" lon="9.3029903"><ele>126.0</ele><time>2026-03-25T10:52:13.361Z</time></trkpt><trkpt lat="45.5133337" lon="9.3031212"><ele>126.0</ele><time>2026-03-25T10:52:14.359Z</time></trkpt><trkpt lat="45.5133225" lon="9.3032425"><ele>126.0</ele><time>2026-03-25T10:52:15.362Z</time></trkpt><trkpt lat="45.5133115" lon="9.3033624"><ele>126.0</ele><time>2026-03-25T10:52:16.361Z</time></trkpt><trkpt lat="45.5132907" lon="9.3034707"><ele>126.0</ele><time>2026-03-25T10:52:17.36Z</time></trkpt><trkpt lat="45.5132565" lon="9.3035665"><ele>126.14285714285714</ele><time>2026-03-25T10:52:18.36Z</time></trkpt><trkpt lat="45.513236" lon="9.303664"><ele>126.28571428571428</ele><time>2026-03-25T10:52:19.359Z</time></trkpt><trkpt lat="45.5132333" lon="9.3037628"><ele>126.42857142857143</ele><time>2026-03-25T10:52:20.361Z</time></trkpt><trkpt lat="45.5132513" lon="9.3038623"><ele>126.57142857142857</ele><time>2026-03-25T10:52:21.359Z</time></trkpt><trkpt lat="45.5132869" lon="9.3039586"><ele>126.71428571428571</ele><time>2026-03-25T10:52:22.36Z</time></trkpt><trkpt lat="45.5133225" lon="9.3040619"><ele>126.85714285714286</ele><time>2026-03-25T10:52:23.36Z</time></trkpt><trkpt lat="45.5133585" lon="9.3041637"><ele>127.0</ele><time>2026-03-25T10:52:24.36Z</time></trkpt><trkpt lat="45.5133537" lon="9.3042855"><ele>127.00000000000001</ele><time>2026-03-25T10:52:25.36Z</time></trkpt><trkpt lat="45.5133551" lon="9.3044069"><ele>127.0</ele><time>2026-03-25T10:52:26.36Z</time></trkpt><trkpt lat="45.513349" lon="9.3045328"><ele>127.0</ele><time>2026-03-25T10:52:27.361Z</time></trkpt><trkpt lat="45.5133475" lon="9.3046525"><ele>127.0</ele><time>2026-03-25T10:52:28.359Z</time></trkpt><trkpt lat="45.5133394" lon="9.3047815"><ele>127.00000000000001</ele><time>2026-03-25T10:52:29.362Z</time></trkpt><trkpt lat="45.5133378" lon="9.3049067"><ele>127.0</ele><time>2026-03-25T10:52:30.36Z</time></trkpt><trkpt lat="45.5133292" lon="9.3050381"><ele>127.0</ele><time>2026-03-25T10:52:31.36Z</time></trkpt><trkpt lat="45.5133269" lon="9.3051655"><ele>126.99999999999999</ele><time>2026-03-25T10:52:32.36Z</time></trkpt><trkpt lat="45.5133299" lon="9.3053062"><ele>126.99999999999999</ele><time>2026-03-25T10:52:33.36Z</time></trkpt><trkpt lat="45.5133324" lon="9.3054433"><ele>127.0</ele><time>2026-03-25T10:52:34.36Z</time></trkpt><trkpt lat="45.5133349" lon="9.3055807"><ele>127.0</ele><time>2026-03-25T10:52:35.36Z</time></trkpt><trkpt lat="45.5133505" lon="9.3057312"><ele>127.0</ele><time>2026-03-25T10:52:36.36Z</time></trkpt><trkpt lat="45.5133594" lon="9.3058805"><ele>126.99999999999999</ele><time>2026-03-25T10:52:37.361Z</time></trkpt><trkpt lat="45.5133692" lon="9.3060243"><ele>126.99999999999999</ele><time>2026-03-25T10:52:38.36Z</time></trkpt><trkpt lat="45.5133791" lon="9.3061769"><ele>127.0</ele><time>2026-03-25T10:52:39.36Z</time></trkpt><trkpt lat="45.5133819" lon="9.3063196"><ele>127.0</ele><time>2026-03-25T10:52:40.362Z</time></trkpt><trkpt lat="45.513391" lon="9.3064754"><ele>127.0</ele><time>2026-03-25T10:52:41.361Z</time></trkpt><trkpt lat="45.5133966" lon="9.3066224"><ele>126.99999999999999</ele><time>2026-03-25T10:52:42.359Z</time></trkpt><trkpt lat="45.5134109" lon="9.3067646"><ele>126.99999999999999</ele><time>2026-03-25T10:52:43.36Z</time></trkpt><trkpt lat="45.513425" lon="9.3069151"><ele>127.0</ele><time>2026-03-25T10:52:44.36Z</time></trkpt><trkpt lat="45.5134378" lon="9.3070644"><ele>127.0</ele><time>2026-03-25T10:52:45.361Z</time></trkpt><trkpt lat="45.5134509" lon="9.3072088"><ele>126.8</ele><time>2026-03-25T10:52:46.36Z</time></trkpt><trkpt lat="45.5134696" lon="9.3073536"><ele>126.6</ele><time>2026-03-25T10:52:47.361Z</time></trkpt><trkpt lat="45.5134893" lon="9.3074983"><ele>126.39999999999999</ele><time>2026-03-25T10:52:48.36Z</time></trkpt><trkpt lat="45.5135056" lon="9.3076449"><ele>126.19999999999999</ele><time>2026-03-25T10:52:49.361Z</time></trkpt><trkpt lat="45.5135168" lon="9.3077918"><ele>126.0</ele><time>2026-03-25T10:52:50.361Z</time></trkpt><trkpt lat="45.5135315" lon="9.3079384"><ele>125.8</ele><time>2026-03-25T10:52:51.361Z</time></trkpt><trkpt lat="45.5135454" lon="9.3080842"><ele>125.6</ele><time>2026-03-25T10:52:52.361Z</time></trkpt><trkpt lat="45.5135627" lon="9.3082333"><ele>125.4</ele><time>2026-03-25T10:52:53.36Z</time></trkpt><trkpt lat="45.5135788" lon="9.3083783"><ele>125.2</ele><time>2026-03-25T10:52:54.361Z</time></trkpt><trkpt lat="45.513594" lon="9.3085252"><ele>125.0</ele><time>2026-03-25T10:52:55.361Z</time></trkpt><trkpt lat="45.5136082" lon="9.3086706"><ele>125.0</ele><time>2026-03-25T10:52:56.361Z</time></trkpt><trkpt lat="45.5136191" lon="9.3088204"><ele>125.0</ele><time>2026-03-25T10:52:57.36Z</time></trkpt><trkpt lat="45.5136343" lon="9.3089683"><ele>125.0</ele><time>2026-03-25T10:52:58.361Z</time></trkpt><trkpt lat="45.5136497" lon="9.3091174"><ele>125.0</ele><time>2026-03-25T10:52:59.359Z</time></trkpt><trkpt lat="45.5136598" lon="9.3092691"><ele>125.0</ele><time>2026-03-25T10:53:00.361Z</time></trkpt><trkpt lat="45.513677" lon="9.3094243"><ele>124.8</ele><time>2026-03-25T10:53:01.36Z</time></trkpt><trkpt lat="45.5136988" lon="9.3095794"><ele>124.6</ele><time>2026-03-25T10:53:02.36Z</time></trkpt><trkpt lat="45.5137162" lon="9.3097316"><ele>124.4</ele><time>2026-03-25T10:53:03.359Z</time></trkpt><trkpt lat="45.5137358" lon="9.3098823"><ele>124.2</ele><time>2026-03-25T10:53:04.361Z</time></trkpt><trkpt lat="45.5137555" lon="9.3100337"><ele>124.0</ele><time>2026-03-25T10:53:05.362Z</time></trkpt><trkpt lat="45.5137679" lon="9.3101839"><ele>124.80000000000001</ele><time>2026-03-25T10:53:06.361Z</time></trkpt><trkpt lat="45.5137735" lon="9.3103312"><ele>125.60000000000001</ele><time>2026-03-25T10:53:07.36Z</time></trkpt><trkpt lat="45.5137752" lon="9.3104777"><ele>126.4</ele><time>2026-03-25T10:53:08.361Z</time></trkpt><trkpt lat="45.513775" lon="9.310623"><ele>127.2</ele><time>2026-03-25T10:53:09.362Z</time></trkpt><trkpt lat="45.5137755" lon="9.3107778"><ele>128.0</ele><time>2026-03-25T10:53:10.361Z</time></trkpt><trkpt lat="45.5137701" lon="9.3109291"><ele>128.0</ele><time>2026-03-25T10:53:11.359Z</time></trkpt><trkpt lat="45.5137619" lon="9.3110834"><ele>128.0</ele><time>2026-03-25T10:53:12.361Z</time></trkpt><trkpt lat="45.5137566" lon="9.3112396"><ele>128.0</ele><time>2026-03-25T10:53:13.36Z</time></trkpt><trkpt lat="45.5137466" lon="9.3114021"><ele>128.0</ele><time>2026-03-25T10:53:14.36Z</time></trkpt><trkpt lat="45.5137348" lon="9.3115597"><ele>128.0</ele><time>2026-03-25T10:53:15.361Z</time></trkpt><trkpt lat="45.5137206" lon="9.3117157"><ele>127.4</ele><time>2026-03-25T10:53:16.359Z</time></trkpt><trkpt lat="45.5137155" lon="9.3118685"><ele>126.80000000000001</ele><time>2026-03-25T10:53:17.36Z</time></trkpt><trkpt lat="45.5137079" lon="9.3120216"><ele>126.2</ele><time>2026-03-25T10:53:18.361Z</time></trkpt><trkpt lat="45.5136986" lon="9.3121757"><ele>125.6</ele><time>2026-03-25T10:53:19.361Z</time></trkpt><trkpt lat="45.5136895" lon="9.3123292"><ele>125.0</ele><time>2026-03-25T10:53:20.359Z</time></trkpt><trkpt lat="45.5136805" lon="9.3124817"><ele>125.0</ele><time>2026-03-25T10:53:21.361Z</time></trkpt><trkpt lat="45.5136796" lon="9.3126407"><ele>125.0</ele><time>2026-03-25T10:53:22.359Z</time></trkpt><trkpt lat="45.5136775" lon="9.3128004"><ele>125.0</ele><time>2026-03-25T10:53:23.36Z</time></trkpt><trkpt lat="45.513671" lon="9.3129586"><ele>125.0</ele><time>2026-03-25T10:53:24.359Z</time></trkpt><trkpt lat="45.5136569" lon="9.3131165"><ele>125.0</ele><time>2026-03-25T10:53:25.361Z</time></trkpt><trkpt lat="45.513644" lon="9.3132721"><ele>125.2</ele><time>2026-03-25T10:53:26.361Z</time></trkpt><trkpt lat="45.5136346" lon="9.3134283"><ele>125.4</ele><time>2026-03-25T10:53:27.361Z</time></trkpt><trkpt lat="45.5136272" lon="9.3135865"><ele>125.6</ele><time>2026-03-25T10:53:28.36Z</time></trkpt><trkpt lat="45.5136186" lon="9.3137474"><ele>125.8</ele><time>2026-03-25T10:53:29.361Z</time></trkpt><trkpt lat="45.5136153" lon="9.3139083"><ele>126.0</ele><time>2026-03-25T10:53:30.362Z</time></trkpt><trkpt lat="45.5136079" lon="9.3140653"><ele>126.0</ele><time>2026-03-25T10:53:31.36Z</time></trkpt><trkpt lat="45.5135973" lon="9.3142242"><ele>126.0</ele><time>2026-03-25T10:53:32.361Z</time></trkpt><trkpt lat="45.5135851" lon="9.3143806"><ele>126.0</ele><time>2026-03-25T10:53:33.361Z</time></trkpt><trkpt lat="45.5135732" lon="9.3145411"><ele>126.0</ele><time>2026-03-25T10:53:34.36Z</time></trkpt><trkpt lat="45.5135645" lon="9.3146997"><ele>126.0</ele><time>2026-03-25T10:53:35.36Z</time></trkpt><trkpt lat="45.5135576" lon="9.3148577"><ele>126.0</ele><time>2026-03-25T10:53:36.36Z</time></trkpt><trkpt lat="45.5135507" lon="9.3150114"><ele>126.0</ele><time>2026-03-25T10:53:37.361Z</time></trkpt><trkpt lat="45.5135517" lon="9.3151647"><ele>126.0</ele><time>2026-03-25T10:53:38.361Z</time></trkpt><trkpt lat="45.5135578" lon="9.3153206"><ele>126.0</ele><time>2026-03-25T10:53:39.359Z</time></trkpt><trkpt lat="45.5135759" lon="9.3154744"><ele>126.0</ele><time>2026-03-25T10:53:40.36Z</time></trkpt><trkpt lat="45.5135954" lon="9.3156274"><ele>126.0</ele><time>2026-03-25T10:53:41.362Z</time></trkpt><trkpt lat="45.5136132" lon="9.315779"><ele>126.0</ele><time>2026-03-25T10:53:42.361Z</time></trkpt><trkpt lat="45.5136307" lon="9.3159386"><ele>126.0</ele><time>2026-03-25T10:53:43.361Z</time></trkpt><trkpt lat="45.5136434" lon="9.3160947"><ele>126.0</ele><time>2026-03-25T10:53:44.361Z</time></trkpt><trkpt lat="45.5136609" lon="9.3162454"><ele>126.0</ele><time>2026-03-25T10:53:45.361Z</time></trkpt><trkpt lat="45.5136787" lon="9.3163995"><ele>126.19999999999999</ele><time>2026-03-25T10:53:46.361Z</time></trkpt><trkpt lat="45.5136961" lon="9.3165559"><ele>126.39999999999999</ele><time>2026-03-25T10:53:47.36Z</time></trkpt><trkpt lat="45.5137138" lon="9.316713"><ele>126.6</ele><time>2026-03-25T10:53:48.36Z</time></trkpt><trkpt lat="45.5137339" lon="9.3168651"><ele>126.8</ele><time>2026-03-25T10:53:49.36Z</time></trkpt><trkpt lat="45.5137522" lon="9.3170221"><ele>127.0</ele><time>2026-03-25T10:53:50.36Z</time></trkpt><trkpt lat="45.5137736" lon="9.3171801"><ele>127.19999999999999</ele><time>2026-03-25T10:53:51.361Z</time></trkpt><trkpt lat="45.5137953" lon="9.3173335"><ele>127.39999999999999</ele><time>2026-03-25T10:53:52.359Z</time></trkpt><trkpt lat="45.5138166" lon="9.3174886"><ele>127.60000000000001</ele><time>2026-03-25T10:53:53.361Z</time></trkpt><trkpt lat="45.5138386" lon="9.3176451"><ele>127.80000000000001</ele><time>2026-03-25T10:53:54.361Z</time></trkpt><trkpt lat="45.5138581" lon="9.3178013"><ele>128.0</ele><time>2026-03-25T10:53:55.36Z</time></trkpt><trkpt lat="45.5138756" lon="9.3179619"><ele>127.60000000000001</ele><time>2026-03-25T10:53:56.361Z</time></trkpt><trkpt lat="45.5138943" lon="9.3181181"><ele>127.20000000000002</ele><time>2026-03-25T10:53:57.359Z</time></trkpt><trkpt lat="45.5139192" lon="9.3182795"><ele>126.8</ele><time>2026-03-25T10:53:58.359Z</time></trkpt><trkpt lat="45.5139427" lon="9.3184365"><ele>126.4</ele><time>2026-03-25T10:53:59.361Z</time></trkpt><trkpt lat="45.5139654" lon="9.3185863"><ele>126.0</ele><time>2026-03-25T10:54:00.361Z</time></trkpt><trkpt lat="45.5139822" lon="9.3187402"><ele>126.0</ele><time>2026-03-25T10:54:01.361Z</time></trkpt><trkpt lat="45.5140024" lon="9.3188932"><ele>126.0</ele><time>2026-03-25T10:54:02.361Z</time></trkpt><trkpt lat="45.5140161" lon="9.3190582"><ele>126.0</ele><time>2026-03-25T10:54:03.361Z</time></trkpt><trkpt lat="45.5140138" lon="9.3192175"><ele>126.0</ele><time>2026-03-25T10:54:04.361Z</time></trkpt><trkpt lat="45.5140041" lon="9.3193747"><ele>126.0</ele><time>2026-03-25T10:54:05.36Z</time></trkpt><trkpt lat="45.5139918" lon="9.3195353"><ele>126.19999999999999</ele><time>2026-03-25T10:54:06.361Z</time></trkpt><trkpt lat="45.5139801" lon="9.3196907"><ele>126.39999999999999</ele><time>2026-03-25T10:54:07.36Z</time></trkpt><trkpt lat="45.5139713" lon="9.3198395"><ele>126.6</ele><time>2026-03-25T10:54:08.359Z</time></trkpt><trkpt lat="45.5139685" lon="9.3199803"><ele>126.8</ele><time>2026-03-25T10:54:09.36Z</time></trkpt><trkpt lat="45.5139637" lon="9.3201165"><ele>127.0</ele><time>2026-03-25T10:54:10.359Z</time></trkpt><trkpt lat="45.5139563" lon="9.3202544"><ele>127.0</ele><time>2026-03-25T10:54:11.362Z</time></trkpt><trkpt lat="45.5139333" lon="9.3203852"><ele>126.99999999999999</ele><time>2026-03-25T10:54:12.361Z</time></trkpt><trkpt lat="45.5138853" lon="9.3205033"><ele>126.99999999999999</ele><time>2026-03-25T10:54:13.36Z</time></trkpt><trkpt lat="45.5138279" lon="9.3206186"><ele>127.0</ele><time>2026-03-25T10:54:14.362Z</time></trkpt><trkpt lat="45.5137958" lon="9.3207435"><ele>127.0</ele><time>2026-03-25T10:54:15.361Z</time></trkpt><trkpt lat="45.513784" lon="9.3208747"><ele>127.39999999999999</ele><time>2026-03-25T10:54:16.36Z</time></trkpt><trkpt lat="45.513795" lon="9.3210085"><ele>127.79999999999998</ele><time>2026-03-25T10:54:17.361Z</time></trkpt><trkpt lat="45.5138364" lon="9.3211284"><ele>128.2</ele><time>2026-03-25T10:54:18.361Z</time></trkpt><trkpt lat="45.51391" lon="9.3212244"><ele>128.6</ele><time>2026-03-25T10:54:19.359Z</time></trkpt><trkpt lat="45.5139941" lon="9.3212921"><ele>129.0</ele><time>2026-03-25T10:54:20.361Z</time></trkpt><trkpt lat="45.5140772" lon="9.3213607"><ele>128.8</ele><time>2026-03-25T10:54:21.362Z</time></trkpt><trkpt lat="45.5141482" lon="9.3214494"><ele>128.60000000000002</ele><time>2026-03-25T10:54:22.361Z</time></trkpt><trkpt lat="45.5142006" lon="9.3215661"><ele>128.4</ele><time>2026-03-25T10:54:23.36Z</time></trkpt><trkpt lat="45.5142465" lon="9.3216891"><ele>128.20000000000002</ele><time>2026-03-25T10:54:24.359Z</time></trkpt><trkpt lat="45.5142762" lon="9.3218206"><ele>128.0</ele><time>2026-03-25T10:54:25.36Z</time></trkpt><trkpt lat="45.5143026" lon="9.3219514"><ele>128.0</ele><time>2026-03-25T10:54:26.361Z</time></trkpt><trkpt lat="45.5143312" lon="9.3220812"><ele>128.0</ele><time>2026-03-25T10:54:27.36Z</time></trkpt><trkpt lat="45.5143576" lon="9.322215"><ele>128.0</ele><time>2026-03-25T10:54:28.36Z</time></trkpt><trkpt lat="45.5143793" lon="9.3223549"><ele>128.0</ele><time>2026-03-25T10:54:29.361Z</time></trkpt><trkpt lat="45.5144033" lon="9.3224934"><ele>128.0</ele><time>2026-03-25T10:54:30.36Z</time></trkpt><trkpt lat="45.5144273" lon="9.3226384"><ele>128.0</ele><time>2026-03-25T10:54:31.36Z</time></trkpt><trkpt lat="45.5144418" lon="9.3227872"><ele>128.0</ele><time>2026-03-25T10:54:32.36Z</time></trkpt><trkpt lat="45.5144511" lon="9.3229398"><ele>128.0</ele><time>2026-03-25T10:54:33.361Z</time></trkpt><trkpt lat="45.5144615" lon="9.3230957"><ele>128.0</ele><time>2026-03-25T10:54:34.361Z</time></trkpt><trkpt lat="45.5144695" lon="9.3232527"><ele>128.0</ele><time>2026-03-25T10:54:35.36Z</time></trkpt><trkpt lat="45.5144777" lon="9.3234049"><ele>127.5</ele><time>2026-03-25T10:54:36.361Z</time></trkpt><trkpt lat="45.5144819" lon="9.3235602"><ele>127.0</ele><time>2026-03-25T10:54:37.361Z</time></trkpt><trkpt lat="45.5144884" lon="9.3237206"><ele>126.5</ele><time>2026-03-25T10:54:38.361Z</time></trkpt><trkpt lat="45.5144962" lon="9.3238857"><ele>126.0</ele><time>2026-03-25T10:54:39.359Z</time></trkpt><trkpt lat="45.514501" lon="9.3240503"><ele>126.0</ele><time>2026-03-25T10:54:40.36Z</time></trkpt><trkpt lat="45.5145126" lon="9.3242134"><ele>126.0</ele><time>2026-03-25T10:54:41.36Z</time></trkpt><trkpt lat="45.5145269" lon="9.3243833"><ele>126.0</ele><time>2026-03-25T10:54:42.362Z</time></trkpt><trkpt lat="45.5145391" lon="9.3245479"><ele>126.0</ele><time>2026-03-25T10:54:43.362Z</time></trkpt><trkpt lat="45.5145511" lon="9.3247139"><ele>126.5</ele><time>2026-03-25T10:54:44.362Z</time></trkpt><trkpt lat="45.5145574" lon="9.3248812"><ele>127.0</ele><time>2026-03-25T10:54:45.36Z</time></trkpt><trkpt lat="45.5145678" lon="9.3250472"><ele>127.5</ele><time>2026-03-25T10:54:46.36Z</time></trkpt><trkpt lat="45.5145862" lon="9.3252184"><ele>128.0</ele><time>2026-03-25T10:54:47.36Z</time></trkpt><trkpt lat="45.5146007" lon="9.3253805"><ele>128.4</ele><time>2026-03-25T10:54:48.359Z</time></trkpt><trkpt lat="45.5146119" lon="9.3255297"><ele>128.8</ele><time>2026-03-25T10:54:49.36Z</time></trkpt><trkpt lat="45.5146206" lon="9.3256813"><ele>129.2</ele><time>2026-03-25T10:54:50.362Z</time></trkpt><trkpt lat="45.5146281" lon="9.3258315"><ele>129.6</ele><time>2026-03-25T10:54:51.361Z</time></trkpt><trkpt lat="45.5146305" lon="9.3259799"><ele>130.0</ele><time>2026-03-25T10:54:52.36Z</time></trkpt><trkpt lat="45.5146338" lon="9.3261288"><ele>130.0</ele><time>2026-03-25T10:54:53.361Z</time></trkpt><trkpt lat="45.5146355" lon="9.3262743"><ele>130.0</ele><time>2026-03-25T10:54:54.359Z</time></trkpt><trkpt lat="45.5146356" lon="9.3264218"><ele>130.0</ele><time>2026-03-25T10:54:55.36Z</time></trkpt><trkpt lat="45.514638" lon="9.3265724"><ele>130.0</ele><time>2026-03-25T10:54:56.361Z</time></trkpt><trkpt lat="45.5146446" lon="9.3267198"><ele>130.0</ele><time>2026-03-25T10:54:57.36Z</time></trkpt><trkpt lat="45.5146514" lon="9.3268697"><ele>129.8</ele><time>2026-03-25T10:54:58.361Z</time></trkpt><trkpt lat="45.5146521" lon="9.3270128"><ele>129.6</ele><time>2026-03-25T10:54:59.361Z</time></trkpt><trkpt lat="45.5146499" lon="9.3271586"><ele>129.4</ele><time>2026-03-25T10:55:00.36Z</time></trkpt><trkpt lat="45.5146544" lon="9.3273101"><ele>129.2</ele><time>2026-03-25T10:55:01.361Z</time></trkpt><trkpt lat="45.5146624" lon="9.3274574"><ele>129.0</ele><time>2026-03-25T10:55:02.36Z</time></trkpt><trkpt lat="45.514673" lon="9.3276034"><ele>129.0</ele><time>2026-03-25T10:55:03.361Z</time></trkpt><trkpt lat="45.5146869" lon="9.3277514"><ele>129.0</ele><time>2026-03-25T10:55:04.361Z</time></trkpt><trkpt lat="45.5147054" lon="9.3278953"><ele>129.0</ele><time>2026-03-25T10:55:05.359Z</time></trkpt><trkpt lat="45.5147205" lon="9.3280379"><ele>129.0</ele><time>2026-03-25T10:55:06.362Z</time></trkpt><trkpt lat="45.514722" lon="9.3281712"><ele>129.0</ele><time>2026-03-25T10:55:07.361Z</time></trkpt><trkpt lat="45.5147154" lon="9.3282927"><ele>129.16666666666666</ele><time>2026-03-25T10:55:08.36Z</time></trkpt><trkpt lat="45.5147123" lon="9.3283971"><ele>129.33333333333334</ele><time>2026-03-25T10:55:09.361Z</time></trkpt><trkpt lat="45.5147151" lon="9.3285536"><ele>129.5</ele><time>2026-03-25T10:55:11.36Z</time></trkpt><trkpt lat="45.5147085" lon="9.3286436"><ele>129.66666666666669</ele><time>2026-03-25T10:55:13.36Z</time></trkpt><trkpt lat="45.514687" lon="9.328732"><ele>129.83333333333334</ele><time>2026-03-25T10:55:32.36Z</time></trkpt><trkpt lat="45.5146861" lon="9.3288554"><ele>130.0</ele><time>2026-03-25T10:55:34.36Z</time></trkpt><trkpt lat="45.5146858" lon="9.3290253"><ele>130.0</ele><time>2026-03-25T10:55:36.36Z</time></trkpt><trkpt lat="45.5146893" lon="9.329124"><ele>130.0</ele><time>2026-03-25T10:55:37.36Z</time></trkpt><trkpt lat="45.5146939" lon="9.3292296"><ele>130.0</ele><time>2026-03-25T10:55:38.359Z</time></trkpt><trkpt lat="45.5146959" lon="9.329332"><ele>130.0</ele><time>2026-03-25T10:55:39.362Z</time></trkpt><trkpt lat="45.5146945" lon="9.3294256"><ele>130.0</ele><time>2026-03-25T10:55:40.359Z</time></trkpt><trkpt lat="45.5146682" lon="9.3295636"><ele>130.0</ele><time>2026-03-25T10:55:42.36Z</time></trkpt><trkpt lat="45.5146553" lon="9.3297291"><ele>130.0</ele><time>2026-03-25T10:55:44.361Z</time></trkpt><trkpt lat="45.5146686" lon="9.3298176"><ele>130.0</ele><time>2026-03-25T10:55:45.361Z</time></trkpt><trkpt lat="45.5146991" lon="9.3299112"><ele>130.0</ele><time>2026-03-25T10:55:46.36Z</time></trkpt><trkpt lat="45.5147363" lon="9.330003"><ele>130.0</ele><time>2026-03-25T10:55:47.36Z</time></trkpt><trkpt lat="45.5147753" lon="9.3300998"><ele>130.0</ele><time>2026-03-25T10:55:48.362Z</time></trkpt><trkpt lat="45.5148055" lon="9.3302062"><ele>130.0</ele><time>2026-03-25T10:55:49.361Z</time></trkpt><trkpt lat="45.5148234" lon="9.3303222"><ele>130.0</ele><time>2026-03-25T10:55:50.361Z</time></trkpt><trkpt lat="45.5148289" lon="9.3304361"><ele>130.0</ele><time>2026-03-25T10:55:51.36Z</time></trkpt><trkpt lat="45.5148398" lon="9.3305422"><ele>130.0</ele><time>2026-03-25T10:55:52.36Z</time></trkpt><trkpt lat="45.5148454" lon="9.3306539"><ele>130.0</ele><time>2026-03-25T10:55:53.361Z</time></trkpt><trkpt lat="45.5148513" lon="9.330765"><ele>130.0</ele><time>2026-03-25T10:55:54.36Z</time></trkpt><trkpt lat="45.5148575" lon="9.3308759"><ele>130.0</ele><time>2026-03-25T10:55:55.361Z</time></trkpt><trkpt lat="45.5148681" lon="9.330993"><ele>130.0</ele><time>2026-03-25T10:55:56.361Z</time></trkpt><trkpt lat="45.5148823" lon="9.3311096"><ele>130.0</ele><time>2026-03-25T10:55:57.36Z</time></trkpt><trkpt lat="45.5148925" lon="9.3312272"><ele>130.0</ele><time>2026-03-25T10:55:58.362Z</time></trkpt><trkpt lat="45.5149041" lon="9.3313444"><ele>130.0</ele><time>2026-03-25T10:55:59.361Z</time></trkpt><trkpt lat="45.5149149" lon="9.3314722"><ele>130.0</ele><time>2026-03-25T10:56:00.36Z</time></trkpt><trkpt lat="45.5149227" lon="9.3315983"><ele>130.0</ele><time>2026-03-25T10:56:01.362Z</time></trkpt><trkpt lat="45.5149357" lon="9.3317286"><ele>129.8</ele><time>2026-03-25T10:56:02.361Z</time></trkpt><trkpt lat="45.5149515" lon="9.3318563"><ele>129.6</ele><time>2026-03-25T10:56:03.36Z</time></trkpt><trkpt lat="45.5149636" lon="9.3319866"><ele>129.4</ele><time>2026-03-25T10:56:04.36Z</time></trkpt><trkpt lat="45.5149703" lon="9.3321222"><ele>129.2</ele><time>2026-03-25T10:56:05.361Z</time></trkpt><trkpt lat="45.514974" lon="9.332259"><ele>129.0</ele><time>2026-03-25T10:56:06.359Z</time></trkpt><trkpt lat="45.5149848" lon="9.3323933"><ele>129.0</ele><time>2026-03-25T10:56:07.361Z</time></trkpt><trkpt lat="45.5149989" lon="9.3325304"><ele>129.0</ele><time>2026-03-25T10:56:08.361Z</time></trkpt><trkpt lat="45.5150089" lon="9.3326666"><ele>129.0</ele><time>2026-03-25T10:56:09.362Z</time></trkpt><trkpt lat="45.5150167" lon="9.3328118"><ele>129.0</ele><time>2026-03-25T10:56:10.36Z</time></trkpt><trkpt lat="45.5150346" lon="9.3329477"><ele>129.0</ele><time>2026-03-25T10:56:11.361Z</time></trkpt><trkpt lat="45.5150499" lon="9.3330845"><ele>128.8</ele><time>2026-03-25T10:56:12.362Z</time></trkpt><trkpt lat="45.5150592" lon="9.3332282"><ele>128.60000000000002</ele><time>2026-03-25T10:56:13.36Z</time></trkpt><trkpt lat="45.5150703" lon="9.333372"><ele>128.4</ele><time>2026-03-25T10:56:14.361Z</time></trkpt><trkpt lat="45.5150799" lon="9.3335153"><ele>128.20000000000002</ele><time>2026-03-25T10:56:15.359Z</time></trkpt><trkpt lat="45.5150895" lon="9.3336541"><ele>128.0</ele><time>2026-03-25T10:56:16.36Z</time></trkpt><trkpt lat="45.5150945" lon="9.333788"><ele>128.0</ele><time>2026-03-25T10:56:17.361Z</time></trkpt><trkpt lat="45.5151047" lon="9.3339301"><ele>128.0</ele><time>2026-03-25T10:56:18.361Z</time></trkpt><trkpt lat="45.5151169" lon="9.3340717"><ele>128.0</ele><time>2026-03-25T10:56:19.361Z</time></trkpt><trkpt lat="45.5151343" lon="9.3342118"><ele>128.0</ele><time>2026-03-25T10:56:20.362Z</time></trkpt><trkpt lat="45.5151506" lon="9.334354"><ele>128.0</ele><time>2026-03-25T10:56:21.36Z</time></trkpt><trkpt lat="45.5151652" lon="9.3344975"><ele>128.0</ele><time>2026-03-25T10:56:22.361Z</time></trkpt><trkpt lat="45.5151756" lon="9.3346387"><ele>128.0</ele><time>2026-03-25T10:56:23.362Z</time></trkpt><trkpt lat="45.5151821" lon="9.3347839"><ele>128.0</ele><time>2026-03-25T10:56:24.36Z</time></trkpt><trkpt lat="45.5151903" lon="9.3349258"><ele>128.0</ele><time>2026-03-25T10:56:25.361Z</time></trkpt><trkpt lat="45.5151992" lon="9.3350693"><ele>128.0</ele><time>2026-03-25T10:56:26.361Z</time></trkpt><trkpt lat="45.5152101" lon="9.3352087"><ele>128.0</ele><time>2026-03-25T10:56:27.36Z</time></trkpt><trkpt lat="45.5152218" lon="9.3353483"><ele>128.0</ele><time>2026-03-25T10:56:28.361Z</time></trkpt><trkpt lat="45.5152334" lon="9.3354914"><ele>128.0</ele><time>2026-03-25T10:56:29.361Z</time></trkpt><trkpt lat="45.5152459" lon="9.3356346"><ele>128.0</ele><time>2026-03-25T10:56:30.361Z</time></trkpt><trkpt lat="45.5152577" lon="9.3357783"><ele>128.0</ele><time>2026-03-25T10:56:31.361Z</time></trkpt><trkpt lat="45.5152704" lon="9.3359243"><ele>128.0</ele><time>2026-03-25T10:56:32.359Z</time></trkpt><trkpt lat="45.5152791" lon="9.3360723"><ele>128.0</ele><time>2026-03-25T10:56:33.361Z</time></trkpt><trkpt lat="45.5152897" lon="9.3362247"><ele>128.0</ele><time>2026-03-25T10:56:34.359Z</time></trkpt><trkpt lat="45.5153086" lon="9.3363747"><ele>128.0</ele><time>2026-03-25T10:56:35.36Z</time></trkpt><trkpt lat="45.5153229" lon="9.3365262"><ele>128.0</ele><time>2026-03-25T10:56:36.361Z</time></trkpt><trkpt lat="45.5153376" lon="9.3366775"><ele>128.20000000000002</ele><time>2026-03-25T10:56:37.361Z</time></trkpt><trkpt lat="45.5153494" lon="9.3368288"><ele>128.4</ele><time>2026-03-25T10:56:38.362Z</time></trkpt><trkpt lat="45.5153636" lon="9.336973"><ele>128.60000000000002</ele><time>2026-03-25T10:56:39.359Z</time></trkpt><trkpt lat="45.5153716" lon="9.3371133"><ele>128.8</ele><time>2026-03-25T10:56:40.36Z</time></trkpt><trkpt lat="45.5153729" lon="9.337247"><ele>129.0</ele><time>2026-03-25T10:56:41.36Z</time></trkpt><trkpt lat="45.515368" lon="9.3373724"><ele>129.0</ele><time>2026-03-25T10:56:42.36Z</time></trkpt><trkpt lat="45.5153547" lon="9.3374799"><ele>129.0</ele><time>2026-03-25T10:56:43.361Z</time></trkpt><trkpt lat="45.5153375" lon="9.3375762"><ele>129.0</ele><time>2026-03-25T10:56:44.361Z</time></trkpt><trkpt lat="45.5153174" lon="9.3376747"><ele>129.0</ele><time>2026-03-25T10:56:45.359Z</time></trkpt><trkpt lat="45.515306" lon="9.3377798"><ele>129.0</ele><time>2026-03-25T10:56:46.36Z</time></trkpt><trkpt lat="45.5152915" lon="9.3378917"><ele>129.0</ele><time>2026-03-25T10:56:47.361Z</time></trkpt><trkpt lat="45.5152946" lon="9.3380055"><ele>128.8</ele><time>2026-03-25T10:56:48.361Z</time></trkpt><trkpt lat="45.5153156" lon="9.3381219"><ele>128.60000000000002</ele><time>2026-03-25T10:56:49.362Z</time></trkpt><trkpt lat="45.515348" lon="9.338241"><ele>128.4</ele><time>2026-03-25T10:56:50.36Z</time></trkpt><trkpt lat="45.5153857" lon="9.3383659"><ele>128.20000000000002</ele><time>2026-03-25T10:56:51.36Z</time></trkpt><trkpt lat="45.5154246" lon="9.3384935"><ele>128.0</ele><time>2026-03-25T10:56:52.361Z</time></trkpt><trkpt lat="45.5154589" lon="9.3386267"><ele>128.0</ele><time>2026-03-25T10:56:53.36Z</time></trkpt><trkpt lat="45.5154856" lon="9.3387666"><ele>128.0</ele><time>2026-03-25T10:56:54.36Z</time></trkpt><trkpt lat="45.5155085" lon="9.3389118"><ele>128.0</ele><time>2026-03-25T10:56:55.361Z</time></trkpt><trkpt lat="45.5155194" lon="9.3390592"><ele>128.0</ele><time>2026-03-25T10:56:56.361Z</time></trkpt><trkpt lat="45.5155335" lon="9.3392134"><ele>128.0</ele><time>2026-03-25T10:56:57.361Z</time></trkpt><trkpt lat="45.5155404" lon="9.3393677"><ele>128.25</ele><time>2026-03-25T10:56:58.361Z</time></trkpt><trkpt lat="45.5155471" lon="9.3395254"><ele>128.5</ele><time>2026-03-25T10:56:59.359Z</time></trkpt><trkpt lat="45.5155587" lon="9.3396825"><ele>128.75</ele><time>2026-03-25T10:57:00.36Z</time></trkpt><trkpt lat="45.5155712" lon="9.3398427"><ele>129.0</ele><time>2026-03-25T10:57:01.359Z</time></trkpt><trkpt lat="45.5155809" lon="9.3400077"><ele>129.0</ele><time>2026-03-25T10:57:02.36Z</time></trkpt><trkpt lat="45.5155917" lon="9.3401724"><ele>129.0</ele><time>2026-03-25T10:57:03.361Z</time></trkpt><trkpt lat="45.5156013" lon="9.3403397"><ele>129.0</ele><time>2026-03-25T10:57:04.362Z</time></trkpt><trkpt lat="45.5156136" lon="9.34051"><ele>129.0</ele><time>2026-03-25T10:57:05.36Z</time></trkpt><trkpt lat="45.5156288" lon="9.3406776"><ele>128.75</ele><time>2026-03-25T10:57:06.359Z</time></trkpt><trkpt lat="45.5156444" lon="9.3408434"><ele>128.5</ele><time>2026-03-25T10:57:07.361Z</time></trkpt><trkpt lat="45.5156591" lon="9.3410068"><ele>128.25</ele><time>2026-03-25T10:57:08.359Z</time></trkpt><trkpt lat="45.5156748" lon="9.3411655"><ele>128.0</ele><time>2026-03-25T10:57:09.362Z</time></trkpt><trkpt lat="45.5156896" lon="9.3413226"><ele>128.25</ele><time>2026-03-25T10:57:10.361Z</time></trkpt><trkpt lat="45.5157019" lon="9.341482"><ele>128.5</ele><time>2026-03-25T10:57:11.36Z</time></trkpt><trkpt lat="45.5157133" lon="9.3416408"><ele>128.75</ele><time>2026-03-25T10:57:12.361Z</time></trkpt><trkpt lat="45.5157262" lon="9.3418015"><ele>129.0</ele><time>2026-03-25T10:57:13.361Z</time></trkpt><trkpt lat="45.5157392" lon="9.3419617"><ele>129.0</ele><time>2026-03-25T10:57:14.361Z</time></trkpt><trkpt lat="45.5157545" lon="9.3421245"><ele>129.0</ele><time>2026-03-25T10:57:15.361Z</time></trkpt><trkpt lat="45.5157676" lon="9.342285"><ele>129.0</ele><time>2026-03-25T10:57:16.361Z</time></trkpt><trkpt lat="45.5157807" lon="9.3424452"><ele>129.0</ele><time>2026-03-25T10:57:17.359Z</time></trkpt><trkpt lat="45.5157947" lon="9.3426049"><ele>129.0</ele><time>2026-03-25T10:57:18.36Z</time></trkpt><trkpt lat="45.5158059" lon="9.3427581"><ele>129.0</ele><time>2026-03-25T10:57:19.36Z</time></trkpt><trkpt lat="45.5158187" lon="9.3429115"><ele>129.0</ele><time>2026-03-25T10:57:20.361Z</time></trkpt><trkpt lat="45.5158272" lon="9.3430724"><ele>129.0</ele><time>2026-03-25T10:57:21.361Z</time></trkpt><trkpt lat="45.5158424" lon="9.3432301"><ele>129.0</ele><time>2026-03-25T10:57:22.361Z</time></trkpt><trkpt lat="45.5158544" lon="9.3433875"><ele>129.0</ele><time>2026-03-25T10:57:23.362Z</time></trkpt><trkpt lat="45.5158696" lon="9.3435484"><ele>129.0</ele><time>2026-03-25T10:57:24.361Z</time></trkpt><trkpt lat="45.5158883" lon="9.3437059"><ele>129.0</ele><time>2026-03-25T10:57:25.36Z</time></trkpt><trkpt lat="45.515921" lon="9.3438664"><ele>129.0</ele><time>2026-03-25T10:57:26.362Z</time></trkpt><trkpt lat="45.5159529" lon="9.3440173"><ele>128.75</ele><time>2026-03-25T10:57:27.36Z</time></trkpt><trkpt lat="45.5159874" lon="9.344173"><ele>128.5</ele><time>2026-03-25T10:57:28.361Z</time></trkpt><trkpt lat="45.5160157" lon="9.3443276"><ele>128.25</ele><time>2026-03-25T10:57:29.361Z</time></trkpt><trkpt lat="45.5160472" lon="9.3444911"><ele>128.0</ele><time>2026-03-25T10:57:30.361Z</time></trkpt><trkpt lat="45.5160772" lon="9.3446552"><ele>128.25</ele><time>2026-03-25T10:57:31.36Z</time></trkpt><trkpt lat="45.5160999" lon="9.3448186"><ele>128.5</ele><time>2026-03-25T10:57:32.36Z</time></trkpt><trkpt lat="45.5161194" lon="9.3449856"><ele>128.75</ele><time>2026-03-25T10:57:33.361Z</time></trkpt><trkpt lat="45.5161402" lon="9.34515"><ele>129.0</ele><time>2026-03-25T10:57:34.361Z</time></trkpt><trkpt lat="45.5161618" lon="9.3453102"><ele>129.0</ele><time>2026-03-25T10:57:35.359Z</time></trkpt><trkpt lat="45.5161873" lon="9.3454711"><ele>129.0</ele><time>2026-03-25T10:57:36.361Z</time></trkpt><trkpt lat="45.5162068" lon="9.3456308"><ele>129.0</ele><time>2026-03-25T10:57:37.36Z</time></trkpt><trkpt lat="45.5162294" lon="9.3457897"><ele>129.0</ele><time>2026-03-25T10:57:38.361Z</time></trkpt><trkpt lat="45.5162522" lon="9.3459494"><ele>129.2</ele><time>2026-03-25T10:57:39.362Z</time></trkpt><trkpt lat="45.5162805" lon="9.3461095"><ele>129.4</ele><time>2026-03-25T10:57:40.361Z</time></trkpt><trkpt lat="45.5163043" lon="9.3462662"><ele>129.6</ele><time>2026-03-25T10:57:41.36Z</time></trkpt><trkpt lat="45.5163301" lon="9.3464172"><ele>129.8</ele><time>2026-03-25T10:57:42.36Z</time></trkpt><trkpt lat="45.5163526" lon="9.3465688"><ele>130.0</ele><time>2026-03-25T10:57:43.361Z</time></trkpt><trkpt lat="45.5163736" lon="9.346718"><ele>130.0</ele><time>2026-03-25T10:57:44.36Z</time></trkpt><trkpt lat="45.5163993" lon="9.3468704"><ele>130.0</ele><time>2026-03-25T10:57:45.362Z</time></trkpt><trkpt lat="45.5164295" lon="9.3470281"><ele>130.0</ele><time>2026-03-25T10:57:46.361Z</time></trkpt><trkpt lat="45.5164512" lon="9.3471857"><ele>130.0</ele><time>2026-03-25T10:57:47.362Z</time></trkpt><trkpt lat="45.5164663" lon="9.3473436"><ele>130.0</ele><time>2026-03-25T10:57:48.361Z</time></trkpt><trkpt lat="45.5164841" lon="9.3474967"><ele>130.0</ele><time>2026-03-25T10:57:49.361Z</time></trkpt><trkpt lat="45.5165079" lon="9.347648"><ele>130.0</ele><time>2026-03-25T10:57:50.36Z</time></trkpt><trkpt lat="45.5165352" lon="9.3478046"><ele>130.0</ele><time>2026-03-25T10:57:51.361Z</time></trkpt><trkpt lat="45.516558" lon="9.3479593"><ele>130.0</ele><time>2026-03-25T10:57:52.362Z</time></trkpt><trkpt lat="45.5165781" lon="9.3481168"><ele>130.0</ele><time>2026-03-25T10:57:53.362Z</time></trkpt><trkpt lat="45.5166047" lon="9.3482698"><ele>130.0</ele><time>2026-03-25T10:57:54.36Z</time></trkpt><trkpt lat="45.516629" lon="9.3484163"><ele>130.0</ele><time>2026-03-25T10:57:55.361Z</time></trkpt><trkpt lat="45.5166513" lon="9.3485522"><ele>130.0</ele><time>2026-03-25T10:57:56.361Z</time></trkpt><trkpt lat="45.5166763" lon="9.3486897"><ele>130.0</ele><time>2026-03-25T10:57:57.362Z</time></trkpt><trkpt lat="45.5166895" lon="9.3488185"><ele>130.0</ele><time>2026-03-25T10:57:58.361Z</time></trkpt><trkpt lat="45.516695" lon="9.348952"><ele>130.0</ele><time>2026-03-25T10:57:59.361Z</time></trkpt><trkpt lat="45.5167022" lon="9.3490852"><ele>130.0</ele><time>2026-03-25T10:58:00.361Z</time></trkpt><trkpt lat="45.5167125" lon="9.3492233"><ele>130.0</ele><time>2026-03-25T10:58:01.36Z</time></trkpt><trkpt lat="45.5167387" lon="9.349364"><ele>130.0</ele><time>2026-03-25T10:58:02.36Z</time></trkpt><trkpt lat="45.516763" lon="9.3495032"><ele>130.0</ele><time>2026-03-25T10:58:03.362Z</time></trkpt><trkpt lat="45.5167934" lon="9.3496509"><ele>130.4</ele><time>2026-03-25T10:58:04.362Z</time></trkpt><trkpt lat="45.5168212" lon="9.3498011"><ele>130.8</ele><time>2026-03-25T10:58:05.36Z</time></trkpt><trkpt lat="45.5168528" lon="9.3499495"><ele>131.2</ele><time>2026-03-25T10:58:06.361Z</time></trkpt><trkpt lat="45.5168852" lon="9.3500961"><ele>131.6</ele><time>2026-03-25T10:58:07.36Z</time></trkpt><trkpt lat="45.5169102" lon="9.3502474"><ele>132.0</ele><time>2026-03-25T10:58:08.362Z</time></trkpt><trkpt lat="45.5169378" lon="9.3503996"><ele>131.79999999999998</ele><time>2026-03-25T10:58:09.361Z</time></trkpt><trkpt lat="45.5169636" lon="9.3505577"><ele>131.6</ele><time>2026-03-25T10:58:10.362Z</time></trkpt><trkpt lat="45.5169896" lon="9.3507104"><ele>131.39999999999998</ele><time>2026-03-25T10:58:11.36Z</time></trkpt><trkpt lat="45.5170165" lon="9.3508651"><ele>131.2</ele><time>2026-03-25T10:58:12.36Z</time></trkpt><trkpt lat="45.5170392" lon="9.3510139"><ele>131.0</ele><time>2026-03-25T10:58:13.359Z</time></trkpt><trkpt lat="45.5170603" lon="9.351172"><ele>130.8</ele><time>2026-03-25T10:58:14.362Z</time></trkpt><trkpt lat="45.5170856" lon="9.3513323"><ele>130.6</ele><time>2026-03-25T10:58:15.36Z</time></trkpt><trkpt lat="45.5171024" lon="9.3514891"><ele>130.4</ele><time>2026-03-25T10:58:16.361Z</time></trkpt><trkpt lat="45.5171304" lon="9.3516272"><ele>130.2</ele><time>2026-03-25T10:58:17.361Z</time></trkpt><trkpt lat="45.5171519" lon="9.3517559"><ele>130.0</ele><time>2026-03-25T10:58:18.36Z</time></trkpt><trkpt lat="45.517177" lon="9.3518708"><ele>130.0</ele><time>2026-03-25T10:58:19.361Z</time></trkpt><trkpt lat="45.5172031" lon="9.3519833"><ele>130.0</ele><time>2026-03-25T10:58:20.362Z</time></trkpt><trkpt lat="45.5172197" lon="9.3520966"><ele>130.0</ele><time>2026-03-25T10:58:21.361Z</time></trkpt><trkpt lat="45.5172386" lon="9.3521981"><ele>130.0</ele><time>2026-03-25T10:58:22.36Z</time></trkpt><trkpt lat="45.5172585" lon="9.3523036"><ele>130.0</ele><time>2026-03-25T10:58:23.361Z</time></trkpt><trkpt lat="45.5172782" lon="9.3524103"><ele>130.0</ele><time>2026-03-25T10:58:24.362Z</time></trkpt><trkpt lat="45.5172833" lon="9.3525327"><ele>130.0</ele><time>2026-03-25T10:58:25.361Z</time></trkpt><trkpt lat="45.5172988" lon="9.3526554"><ele>130.0</ele><time>2026-03-25T10:58:26.362Z</time></trkpt><trkpt lat="45.5173118" lon="9.3527832"><ele>130.0</ele><time>2026-03-25T10:58:27.362Z</time></trkpt><trkpt lat="45.5173288" lon="9.3529009"><ele>130.0</ele><time>2026-03-25T10:58:28.361Z</time></trkpt><trkpt lat="45.5173416" lon="9.3530193"><ele>130.0</ele><time>2026-03-25T10:58:29.361Z</time></trkpt><trkpt lat="45.5173546" lon="9.3531301"><ele>130.0</ele><time>2026-03-25T10:58:30.36Z</time></trkpt><trkpt lat="45.5173748" lon="9.353234"><ele>130.0</ele><time>2026-03-25T10:58:31.362Z</time></trkpt><trkpt lat="45.517392" lon="9.3533304"><ele>130.0</ele><time>2026-03-25T10:58:32.361Z</time></trkpt><trkpt lat="45.5174301" lon="9.3534713"><ele>130.0</ele><time>2026-03-25T10:58:34.361Z</time></trkpt><trkpt lat="45.5174443" lon="9.3536128"><ele>130.0</ele><time>2026-03-25T10:58:36.361Z</time></trkpt><trkpt lat="45.5174447" lon="9.3537586"><ele>130.0</ele><time>2026-03-25T10:58:38.361Z</time></trkpt><trkpt lat="45.5174727" lon="9.3539091"><ele>130.0</ele><time>2026-03-25T10:58:40.361Z</time></trkpt><trkpt lat="45.5175055" lon="9.3540811"><ele>130.0</ele><time>2026-03-25T10:58:42.36Z</time></trkpt><trkpt lat="45.5175355" lon="9.3541901"><ele>130.0</ele><time>2026-03-25T10:58:43.361Z</time></trkpt><trkpt lat="45.5175516" lon="9.3543042"><ele>130.0</ele><time>2026-03-25T10:58:44.36Z</time></trkpt><trkpt lat="45.5175584" lon="9.3544161"><ele>130.0</ele><time>2026-03-25T10:58:45.361Z</time></trkpt><trkpt lat="45.5175746" lon="9.3545398"><ele>130.0</ele><time>2026-03-25T10:58:46.361Z</time></trkpt><trkpt lat="45.5175929" lon="9.3546585"><ele>130.0</ele><time>2026-03-25T10:58:47.361Z</time></trkpt><trkpt lat="45.5176089" lon="9.3547816"><ele>130.0</ele><time>2026-03-25T10:58:48.361Z</time></trkpt><trkpt lat="45.5176308" lon="9.3549131"><ele>130.0</ele><time>2026-03-25T10:58:49.361Z</time></trkpt><trkpt lat="45.5176519" lon="9.3550366"><ele>130.0</ele><time>2026-03-25T10:58:50.361Z</time></trkpt><trkpt lat="45.5176729" lon="9.3551577"><ele>130.0</ele><time>2026-03-25T10:58:51.361Z</time></trkpt><trkpt lat="45.5176904" lon="9.3552811"><ele>129.83333333333334</ele><time>2026-03-25T10:58:52.36Z</time></trkpt><trkpt lat="45.5177114" lon="9.3553961"><ele>129.66666666666669</ele><time>2026-03-25T10:58:53.362Z</time></trkpt><trkpt lat="45.5177336" lon="9.3555172"><ele>129.5</ele><time>2026-03-25T10:58:54.361Z</time></trkpt><trkpt lat="45.5177547" lon="9.3556383"><ele>129.33333333333334</ele><time>2026-03-25T10:58:55.361Z</time></trkpt><trkpt lat="45.5177754" lon="9.3557566"><ele>129.16666666666666</ele><time>2026-03-25T10:58:56.362Z</time></trkpt><trkpt lat="45.517797" lon="9.3558821"><ele>129.0</ele><time>2026-03-25T10:58:57.361Z</time></trkpt><trkpt lat="45.5178173" lon="9.3560114"><ele>129.0</ele><time>2026-03-25T10:58:58.36Z</time></trkpt><trkpt lat="45.5178276" lon="9.3561484"><ele>129.0</ele><time>2026-03-25T10:58:59.36Z</time></trkpt><trkpt lat="45.5178517" lon="9.3562852"><ele>129.0</ele><time>2026-03-25T10:59:00.361Z</time></trkpt><trkpt lat="45.5178777" lon="9.3564315"><ele>129.0</ele><time>2026-03-25T10:59:01.36Z</time></trkpt><trkpt lat="45.5179009" lon="9.3565726"><ele>129.0</ele><time>2026-03-25T10:59:02.362Z</time></trkpt><trkpt lat="45.5179172" lon="9.3567169"><ele>129.0</ele><time>2026-03-25T10:59:03.361Z</time></trkpt><trkpt lat="45.5179384" lon="9.3568602"><ele>129.0</ele><time>2026-03-25T10:59:04.361Z</time></trkpt><trkpt lat="45.5179652" lon="9.3570018"><ele>129.0</ele><time>2026-03-25T10:59:05.361Z</time></trkpt><trkpt lat="45.5179874" lon="9.3571404"><ele>129.0</ele><time>2026-03-25T10:59:06.36Z</time></trkpt><trkpt lat="45.5180096" lon="9.3572803"><ele>129.0</ele><time>2026-03-25T10:59:07.361Z</time></trkpt><trkpt lat="45.5180333" lon="9.3574185"><ele>129.0</ele><time>2026-03-25T10:59:08.362Z</time></trkpt><trkpt lat="45.5180496" lon="9.3575544"><ele>129.0</ele><time>2026-03-25T10:59:09.36Z</time></trkpt><trkpt lat="45.518069" lon="9.3576878"><ele>129.0</ele><time>2026-03-25T10:59:10.362Z</time></trkpt><trkpt lat="45.518084" lon="9.3578245"><ele>129.0</ele><time>2026-03-25T10:59:11.36Z</time></trkpt><trkpt lat="45.5181018" lon="9.3579645"><ele>129.0</ele><time>2026-03-25T10:59:12.362Z</time></trkpt><trkpt lat="45.5181241" lon="9.358097"><ele>129.0</ele><time>2026-03-25T10:59:13.36Z</time></trkpt><trkpt lat="45.5181454" lon="9.35823"><ele>129.0</ele><time>2026-03-25T10:59:14.361Z</time></trkpt><trkpt lat="45.5181681" lon="9.3583669"><ele>129.0</ele><time>2026-03-25T10:59:15.361Z</time></trkpt><trkpt lat="45.5181837" lon="9.3585027"><ele>129.0</ele><time>2026-03-25T10:59:16.361Z</time></trkpt><trkpt lat="45.5182033" lon="9.3586354"><ele>129.0</ele><time>2026-03-25T10:59:17.361Z</time></trkpt><trkpt lat="45.518221" lon="9.3587657"><ele>129.0</ele><time>2026-03-25T10:59:18.361Z</time></trkpt><trkpt lat="45.5182379" lon="9.3589019"><ele>129.0</ele><time>2026-03-25T10:59:19.361Z</time></trkpt><trkpt lat="45.5182601" lon="9.3590403"><ele>129.0</ele><time>2026-03-25T10:59:20.361Z</time></trkpt><trkpt lat="45.5182815" lon="9.3591762"><ele>129.0</ele><time>2026-03-25T10:59:21.36Z</time></trkpt><trkpt lat="45.5182835" lon="9.3593162"><ele>129.0</ele><time>2026-03-25T10:59:22.359Z</time></trkpt><trkpt lat="45.5183032" lon="9.3594412"><ele>128.99999999999997</ele><time>2026-03-25T10:59:23.362Z</time></trkpt><trkpt lat="45.5183155" lon="9.3595636"><ele>129.0</ele><time>2026-03-25T10:59:24.36Z</time></trkpt><trkpt lat="45.5183274" lon="9.3596738"><ele>129.0</ele><time>2026-03-25T10:59:25.361Z</time></trkpt><trkpt lat="45.5183489" lon="9.3597748"><ele>129.0</ele><time>2026-03-25T10:59:26.359Z</time></trkpt><trkpt lat="45.5183616" lon="9.3598636"><ele>129.0</ele><time>2026-03-25T10:59:27.361Z</time></trkpt><trkpt lat="45.518397" lon="9.3599425"><ele>128.99999999999997</ele><time>2026-03-25T10:59:28.362Z</time></trkpt><trkpt lat="45.5184226" lon="9.3600417"><ele>129.0</ele><time>2026-03-25T10:59:31.362Z</time></trkpt><trkpt lat="45.5184498" lon="9.3601838"><ele>129.0</ele><time>2026-03-25T11:00:23.361Z</time></trkpt><trkpt lat="45.5184729" lon="9.3603132"><ele>129.0</ele><time>2026-03-25T11:00:25.361Z</time></trkpt><trkpt lat="45.5185064" lon="9.3604886"><ele>129.0</ele><time>2026-03-25T11:00:27.361Z</time></trkpt><trkpt lat="45.5185186" lon="9.3605902"><ele>129.0</ele><time>2026-03-25T11:00:28.362Z</time></trkpt><trkpt lat="45.5185295" lon="9.360699"><ele>129.0</ele><time>2026-03-25T11:00:29.361Z</time></trkpt><trkpt lat="45.5185457" lon="9.3608093"><ele>129.0</ele><time>2026-03-25T11:00:30.362Z</time></trkpt><trkpt lat="45.5185633" lon="9.3609245"><ele>129.16666666666666</ele><time>2026-03-25T11:00:31.361Z</time></trkpt><trkpt lat="45.5185778" lon="9.3610432"><ele>129.33333333333334</ele><time>2026-03-25T11:00:32.361Z</time></trkpt><trkpt lat="45.5185968" lon="9.3611645"><ele>129.5</ele><time>2026-03-25T11:00:33.36Z</time></trkpt><trkpt lat="45.5186172" lon="9.3612833"><ele>129.66666666666669</ele><time>2026-03-25T11:00:34.361Z</time></trkpt><trkpt lat="45.5186342" lon="9.3614048"><ele>129.83333333333334</ele><time>2026-03-25T11:00:35.361Z</time></trkpt><trkpt lat="45.5186552" lon="9.361524"><ele>130.0</ele><time>2026-03-25T11:00:36.362Z</time></trkpt><trkpt lat="45.5186806" lon="9.3616457"><ele>130.0</ele><time>2026-03-25T11:00:37.362Z</time></trkpt><trkpt lat="45.5187041" lon="9.3617662"><ele>130.0</ele><time>2026-03-25T11:00:38.362Z</time></trkpt><trkpt lat="45.5187273" lon="9.3618851"><ele>130.0</ele><time>2026-03-25T11:00:39.361Z</time></trkpt><trkpt lat="45.5187454" lon="9.3620031"><ele>130.0</ele><time>2026-03-25T11:00:40.362Z</time></trkpt><trkpt lat="45.5187672" lon="9.3621233"><ele>130.0</ele><time>2026-03-25T11:00:41.361Z</time></trkpt><trkpt lat="45.5187931" lon="9.3622492"><ele>130.0</ele><time>2026-03-25T11:00:42.361Z</time></trkpt><trkpt lat="45.5188141" lon="9.3623806"><ele>130.8</ele><time>2026-03-25T11:00:43.361Z</time></trkpt><trkpt lat="45.5188318" lon="9.3625143"><ele>131.6</ele><time>2026-03-25T11:00:44.36Z</time></trkpt><trkpt lat="45.5188436" lon="9.3626543"><ele>132.4</ele><time>2026-03-25T11:00:45.36Z</time></trkpt><trkpt lat="45.5188554" lon="9.3627963"><ele>133.2</ele><time>2026-03-25T11:00:46.36Z</time></trkpt><trkpt lat="45.5188663" lon="9.3629346"><ele>134.0</ele><time>2026-03-25T11:00:47.361Z</time></trkpt><trkpt lat="45.518882" lon="9.3630625"><ele>134.33333333333331</ele><time>2026-03-25T11:00:48.36Z</time></trkpt><trkpt lat="45.5189012" lon="9.3631867"><ele>134.66666666666666</ele><time>2026-03-25T11:00:49.362Z</time></trkpt><trkpt lat="45.5189237" lon="9.3633001"><ele>135.0</ele><time>2026-03-25T11:00:50.361Z</time></trkpt><trkpt lat="45.518958" lon="9.3634081"><ele>135.33333333333334</ele><time>2026-03-25T11:00:51.361Z</time></trkpt><trkpt lat="45.5189973" lon="9.3635215"><ele>135.66666666666669</ele><time>2026-03-25T11:00:52.361Z</time></trkpt><trkpt lat="45.5190318" lon="9.3636407"><ele>136.0</ele><time>2026-03-25T11:00:53.361Z</time></trkpt><trkpt lat="45.5190726" lon="9.3637612"><ele>135.6</ele><time>2026-03-25T11:00:54.361Z</time></trkpt><trkpt lat="45.5191176" lon="9.3638855"><ele>135.2</ele><time>2026-03-25T11:00:55.361Z</time></trkpt><trkpt lat="45.5191559" lon="9.3640161"><ele>134.8</ele><time>2026-03-25T11:00:56.362Z</time></trkpt><trkpt lat="45.5192048" lon="9.3641419"><ele>134.4</ele><time>2026-03-25T11:00:57.36Z</time></trkpt><trkpt lat="45.5192542" lon="9.3642681"><ele>134.0</ele><time>2026-03-25T11:00:58.36Z</time></trkpt><trkpt lat="45.5193081" lon="9.3643926"><ele>134.0</ele><time>2026-03-25T11:00:59.36Z</time></trkpt><trkpt lat="45.5193636" lon="9.3645182"><ele>134.0</ele><time>2026-03-25T11:01:00.361Z</time></trkpt><trkpt lat="45.5194191" lon="9.3646506"><ele>134.0</ele><time>2026-03-25T11:01:01.362Z</time></trkpt><trkpt lat="45.5194748" lon="9.364779"><ele>134.0</ele><time>2026-03-25T11:01:02.362Z</time></trkpt><trkpt lat="45.5195275" lon="9.3649121"><ele>134.0</ele><time>2026-03-25T11:01:03.361Z</time></trkpt><trkpt lat="45.5195805" lon="9.3650471"><ele>133.8</ele><time>2026-03-25T11:01:04.36Z</time></trkpt><trkpt lat="45.5196348" lon="9.3651823"><ele>133.60000000000002</ele><time>2026-03-25T11:01:05.362Z</time></trkpt><trkpt lat="45.5196908" lon="9.3653197"><ele>133.4</ele><time>2026-03-25T11:01:06.359Z</time></trkpt><trkpt lat="45.5197447" lon="9.3654556"><ele>133.20000000000002</ele><time>2026-03-25T11:01:07.361Z</time></trkpt><trkpt lat="45.5198008" lon="9.3655952"><ele>133.0</ele><time>2026-03-25T11:01:08.359Z</time></trkpt><trkpt lat="45.5198554" lon="9.3657372"><ele>132.75</ele><time>2026-03-25T11:01:09.361Z</time></trkpt><trkpt lat="45.5199075" lon="9.3658823"><ele>132.5</ele><time>2026-03-25T11:01:10.362Z</time></trkpt><trkpt lat="45.5199606" lon="9.3660277"><ele>132.25</ele><time>2026-03-25T11:01:11.36Z</time></trkpt><trkpt lat="45.5200102" lon="9.3661763"><ele>132.0</ele><time>2026-03-25T11:01:12.362Z</time></trkpt><trkpt lat="45.5200599" lon="9.3663247"><ele>132.25</ele><time>2026-03-25T11:01:13.362Z</time></trkpt><trkpt lat="45.5201119" lon="9.3664749"><ele>132.5</ele><time>2026-03-25T11:01:14.36Z</time></trkpt><trkpt lat="45.5201646" lon="9.3666212"><ele>132.75</ele><time>2026-03-25T11:01:15.361Z</time></trkpt><trkpt lat="45.5202165" lon="9.3667719"><ele>133.0</ele><time>2026-03-25T11:01:16.362Z</time></trkpt><trkpt lat="45.5202675" lon="9.3669247"><ele>133.0</ele><time>2026-03-25T11:01:17.361Z</time></trkpt><trkpt lat="45.5203191" lon="9.3670799"><ele>133.0</ele><time>2026-03-25T11:01:18.362Z</time></trkpt><trkpt lat="45.5203675" lon="9.3672272"><ele>133.0</ele><time>2026-03-25T11:01:19.361Z</time></trkpt><trkpt lat="45.5204178" lon="9.3673757"><ele>133.0</ele><time>2026-03-25T11:01:20.362Z</time></trkpt><trkpt lat="45.5204651" lon="9.3675319"><ele>133.0</ele><time>2026-03-25T11:01:21.362Z</time></trkpt><trkpt lat="45.5205148" lon="9.3676841"><ele>133.0</ele><time>2026-03-25T11:01:22.362Z</time></trkpt><trkpt lat="45.5205689" lon="9.3678425"><ele>133.0</ele><time>2026-03-25T11:01:23.36Z</time></trkpt><trkpt lat="45.5206258" lon="9.3679944"><ele>133.0</ele><time>2026-03-25T11:01:24.361Z</time></trkpt><trkpt lat="45.5206771" lon="9.3681456"><ele>133.0</ele><time>2026-03-25T11:01:25.361Z</time></trkpt><trkpt lat="45.520728" lon="9.3682954"><ele>133.0</ele><time>2026-03-25T11:01:26.36Z</time></trkpt><trkpt lat="45.5207799" lon="9.3684444"><ele>133.0</ele><time>2026-03-25T11:01:27.362Z</time></trkpt><trkpt lat="45.5208309" lon="9.3685869"><ele>133.0</ele><time>2026-03-25T11:01:28.362Z</time></trkpt><trkpt lat="45.5208829" lon="9.368732"><ele>132.8</ele><time>2026-03-25T11:01:29.362Z</time></trkpt><trkpt lat="45.5209302" lon="9.3688733"><ele>132.60000000000002</ele><time>2026-03-25T11:01:30.361Z</time></trkpt><trkpt lat="45.5209757" lon="9.3690178"><ele>132.39999999999998</ele><time>2026-03-25T11:01:31.36Z</time></trkpt><trkpt lat="45.5210237" lon="9.3691556"><ele>132.2</ele><time>2026-03-25T11:01:32.36Z</time></trkpt><trkpt lat="45.5210725" lon="9.3692868"><ele>132.0</ele><time>2026-03-25T11:01:33.362Z</time></trkpt><trkpt lat="45.5211178" lon="9.3694096"><ele>132.0</ele><time>2026-03-25T11:01:34.362Z</time></trkpt><trkpt lat="45.5211547" lon="9.3695337"><ele>132.0</ele><time>2026-03-25T11:01:35.36Z</time></trkpt><trkpt lat="45.5211872" lon="9.3696642"><ele>132.0</ele><time>2026-03-25T11:01:36.361Z</time></trkpt><trkpt lat="45.5212143" lon="9.3697991"><ele>132.0</ele><time>2026-03-25T11:01:37.361Z</time></trkpt><trkpt lat="45.5212457" lon="9.3699311"><ele>132.0</ele><time>2026-03-25T11:01:38.36Z</time></trkpt><trkpt lat="45.5212846" lon="9.3700628"><ele>132.2</ele><time>2026-03-25T11:01:39.36Z</time></trkpt><trkpt lat="45.5213215" lon="9.3701994"><ele>132.39999999999998</ele><time>2026-03-25T11:01:40.362Z</time></trkpt><trkpt lat="45.5213555" lon="9.3703379"><ele>132.60000000000002</ele><time>2026-03-25T11:01:41.361Z</time></trkpt><trkpt lat="45.5213942" lon="9.3704715"><ele>132.8</ele><time>2026-03-25T11:01:42.361Z</time></trkpt><trkpt lat="45.5214293" lon="9.3706069"><ele>133.0</ele><time>2026-03-25T11:01:43.361Z</time></trkpt><trkpt lat="45.5214634" lon="9.3707433"><ele>132.6</ele><time>2026-03-25T11:01:44.359Z</time></trkpt><trkpt lat="45.5214999" lon="9.3708831"><ele>132.20000000000002</ele><time>2026-03-25T11:01:45.361Z</time></trkpt><trkpt lat="45.5215359" lon="9.3710278"><ele>131.8</ele><time>2026-03-25T11:01:46.361Z</time></trkpt><trkpt lat="45.5215629" lon="9.3711707"><ele>131.4</ele><time>2026-03-25T11:01:47.361Z</time></trkpt><trkpt lat="45.5215811" lon="9.3713138"><ele>131.0</ele><time>2026-03-25T11:01:48.361Z</time></trkpt><trkpt lat="45.5216082" lon="9.3714638"><ele>131.2</ele><time>2026-03-25T11:01:49.361Z</time></trkpt><trkpt lat="45.5216351" lon="9.3716117"><ele>131.39999999999998</ele><time>2026-03-25T11:01:50.362Z</time></trkpt><trkpt lat="45.5216643" lon="9.3717583"><ele>131.6</ele><time>2026-03-25T11:01:51.362Z</time></trkpt><trkpt lat="45.5216905" lon="9.371904"><ele>131.79999999999998</ele><time>2026-03-25T11:01:52.361Z</time></trkpt><trkpt lat="45.5217194" lon="9.3720539"><ele>132.0</ele><time>2026-03-25T11:01:53.361Z</time></trkpt><trkpt lat="45.5217424" lon="9.3722065"><ele>132.0</ele><time>2026-03-25T11:01:54.362Z</time></trkpt><trkpt lat="45.5217664" lon="9.3723534"><ele>132.0</ele><time>2026-03-25T11:01:55.36Z</time></trkpt><trkpt lat="45.5217907" lon="9.3725066"><ele>132.0</ele><time>2026-03-25T11:01:56.361Z</time></trkpt><trkpt lat="45.5218095" lon="9.3726627"><ele>132.0</ele><time>2026-03-25T11:01:57.362Z</time></trkpt><trkpt lat="45.5218282" lon="9.3728158"><ele>132.0</ele><time>2026-03-25T11:01:58.362Z</time></trkpt><trkpt lat="45.5218511" lon="9.3729712"><ele>132.4</ele><time>2026-03-25T11:01:59.361Z</time></trkpt><trkpt lat="45.5218762" lon="9.3731292"><ele>132.79999999999998</ele><time>2026-03-25T11:02:00.361Z</time></trkpt><trkpt lat="45.5218946" lon="9.3732837"><ele>133.2</ele><time>2026-03-25T11:02:01.36Z</time></trkpt><trkpt lat="45.5219135" lon="9.3734355"><ele>133.6</ele><time>2026-03-25T11:02:02.362Z</time></trkpt><trkpt lat="45.5219333" lon="9.3735891"><ele>134.0</ele><time>2026-03-25T11:02:03.361Z</time></trkpt><trkpt lat="45.5219506" lon="9.3737421"><ele>133.6</ele><time>2026-03-25T11:02:04.36Z</time></trkpt><trkpt lat="45.5219679" lon="9.3738966"><ele>133.2</ele><time>2026-03-25T11:02:05.36Z</time></trkpt><trkpt lat="45.5219873" lon="9.3740508"><ele>132.79999999999998</ele><time>2026-03-25T11:02:06.361Z</time></trkpt><trkpt lat="45.5220076" lon="9.3742071"><ele>132.4</ele><time>2026-03-25T11:02:07.361Z</time></trkpt><trkpt lat="45.5220304" lon="9.37436"><ele>132.0</ele><time>2026-03-25T11:02:08.359Z</time></trkpt><trkpt lat="45.5220467" lon="9.3745137"><ele>132.0</ele><time>2026-03-25T11:02:09.361Z</time></trkpt><trkpt lat="45.5220574" lon="9.3746679"><ele>132.0</ele><time>2026-03-25T11:02:10.361Z</time></trkpt><trkpt lat="45.5220748" lon="9.3748209"><ele>132.0</ele><time>2026-03-25T11:02:11.36Z</time></trkpt><trkpt lat="45.5220935" lon="9.3749729"><ele>132.0</ele><time>2026-03-25T11:02:12.36Z</time></trkpt><trkpt lat="45.5221141" lon="9.3751288"><ele>132.0</ele><time>2026-03-25T11:02:13.362Z</time></trkpt><trkpt lat="45.5221311" lon="9.3752799"><ele>132.0</ele><time>2026-03-25T11:02:14.36Z</time></trkpt><trkpt lat="45.5221483" lon="9.3754338"><ele>132.0</ele><time>2026-03-25T11:02:15.362Z</time></trkpt><trkpt lat="45.5221606" lon="9.3755879"><ele>132.0</ele><time>2026-03-25T11:02:16.362Z</time></trkpt><trkpt lat="45.5221766" lon="9.3757381"><ele>132.0</ele><time>2026-03-25T11:02:17.361Z</time></trkpt><trkpt lat="45.522189" lon="9.3758908"><ele>132.0</ele><time>2026-03-25T11:02:18.362Z</time></trkpt><trkpt lat="45.5221956" lon="9.3760423"><ele>132.0</ele><time>2026-03-25T11:02:19.36Z</time></trkpt><trkpt lat="45.5222121" lon="9.3761952"><ele>132.0</ele><time>2026-03-25T11:02:20.36Z</time></trkpt><trkpt lat="45.5222283" lon="9.3763475"><ele>132.0</ele><time>2026-03-25T11:02:21.361Z</time></trkpt><trkpt lat="45.5222482" lon="9.3764955"><ele>132.0</ele><time>2026-03-25T11:02:22.361Z</time></trkpt><trkpt lat="45.5222664" lon="9.3766473"><ele>132.0</ele><time>2026-03-25T11:02:23.362Z</time></trkpt><trkpt lat="45.5222861" lon="9.3768035"><ele>132.0</ele><time>2026-03-25T11:02:24.36Z</time></trkpt><trkpt lat="45.5223039" lon="9.3769535"><ele>132.0</ele><time>2026-03-25T11:02:25.362Z</time></trkpt><trkpt lat="45.5223238" lon="9.3771028"><ele>132.0</ele><time>2026-03-25T11:02:26.362Z</time></trkpt><trkpt lat="45.5223439" lon="9.377254"><ele>132.0</ele><time>2026-03-25T11:02:27.36Z</time></trkpt><trkpt lat="45.5223647" lon="9.3774076"><ele>132.0</ele><time>2026-03-25T11:02:28.36Z</time></trkpt><trkpt lat="45.5223748" lon="9.3775596"><ele>131.79999999999998</ele><time>2026-03-25T11:02:29.36Z</time></trkpt><trkpt lat="45.5223907" lon="9.3777088"><ele>131.6</ele><time>2026-03-25T11:02:30.361Z</time></trkpt><trkpt lat="45.5224078" lon="9.3778591"><ele>131.39999999999998</ele><time>2026-03-25T11:02:31.362Z</time></trkpt><trkpt lat="45.522421" lon="9.3780112"><ele>131.2</ele><time>2026-03-25T11:02:32.361Z</time></trkpt><trkpt lat="45.5224399" lon="9.3781645"><ele>131.0</ele><time>2026-03-25T11:02:33.362Z</time></trkpt><trkpt lat="45.5224613" lon="9.378318"><ele>131.0</ele><time>2026-03-25T11:02:34.362Z</time></trkpt><trkpt lat="45.5224766" lon="9.3784677"><ele>131.0</ele><time>2026-03-25T11:02:35.361Z</time></trkpt><trkpt lat="45.522496" lon="9.3786185"><ele>131.0</ele><time>2026-03-25T11:02:36.362Z</time></trkpt><trkpt lat="45.5225115" lon="9.3787709"><ele>131.0</ele><time>2026-03-25T11:02:37.361Z</time></trkpt><trkpt lat="45.5225321" lon="9.3789284"><ele>131.0</ele><time>2026-03-25T11:02:38.36Z</time></trkpt><trkpt lat="45.5225514" lon="9.3790818"><ele>131.4</ele><time>2026-03-25T11:02:39.362Z</time></trkpt><trkpt lat="45.5225711" lon="9.3792344"><ele>131.8</ele><time>2026-03-25T11:02:40.36Z</time></trkpt><trkpt lat="45.5225891" lon="9.3793928"><ele>132.20000000000002</ele><time>2026-03-25T11:02:41.361Z</time></trkpt><trkpt lat="45.5226108" lon="9.3795423"><ele>132.6</ele><time>2026-03-25T11:02:42.361Z</time></trkpt><trkpt lat="45.5226311" lon="9.3796873"><ele>133.0</ele><time>2026-03-25T11:02:43.361Z</time></trkpt><trkpt lat="45.5226515" lon="9.379835"><ele>133.20000000000002</ele><time>2026-03-25T11:02:44.361Z</time></trkpt><trkpt lat="45.5226731" lon="9.3799807"><ele>133.4</ele><time>2026-03-25T11:02:45.361Z</time></trkpt><trkpt lat="45.5226877" lon="9.3801288"><ele>133.60000000000002</ele><time>2026-03-25T11:02:46.361Z</time></trkpt><trkpt lat="45.5227066" lon="9.3802828"><ele>133.8</ele><time>2026-03-25T11:02:47.361Z</time></trkpt><trkpt lat="45.5227318" lon="9.3804263"><ele>134.0</ele><time>2026-03-25T11:02:48.361Z</time></trkpt><trkpt lat="45.5227522" lon="9.3805762"><ele>134.2</ele><time>2026-03-25T11:02:49.362Z</time></trkpt><trkpt lat="45.5227675" lon="9.3807292"><ele>134.4</ele><time>2026-03-25T11:02:50.361Z</time></trkpt><trkpt lat="45.5227895" lon="9.3808849"><ele>134.6</ele><time>2026-03-25T11:02:51.36Z</time></trkpt><trkpt lat="45.5227983" lon="9.3810443"><ele>134.8</ele><time>2026-03-25T11:02:52.362Z</time></trkpt><trkpt lat="45.5228141" lon="9.3812056"><ele>135.0</ele><time>2026-03-25T11:02:53.361Z</time></trkpt><trkpt lat="45.5228368" lon="9.3813677"><ele>135.0</ele><time>2026-03-25T11:02:54.36Z</time></trkpt><trkpt lat="45.5228569" lon="9.3815311"><ele>135.0</ele><time>2026-03-25T11:02:55.361Z</time></trkpt><trkpt lat="45.5228795" lon="9.3816961"><ele>135.0</ele><time>2026-03-25T11:02:56.36Z</time></trkpt><trkpt lat="45.5229" lon="9.3818666"><ele>135.0</ele><time>2026-03-25T11:02:57.362Z</time></trkpt><trkpt lat="45.5229151" lon="9.3820279"><ele>134.75</ele><time>2026-03-25T11:02:58.362Z</time></trkpt><trkpt lat="45.5229269" lon="9.3821938"><ele>134.5</ele><time>2026-03-25T11:02:59.361Z</time></trkpt><trkpt lat="45.5229396" lon="9.3823603"><ele>134.25</ele><time>2026-03-25T11:03:00.361Z</time></trkpt><trkpt lat="45.5229573" lon="9.3825234"><ele>134.0</ele><time>2026-03-25T11:03:01.361Z</time></trkpt><trkpt lat="45.5229795" lon="9.3826884"><ele>134.0</ele><time>2026-03-25T11:03:02.362Z</time></trkpt><trkpt lat="45.523004" lon="9.3828572"><ele>134.0</ele><time>2026-03-25T11:03:03.361Z</time></trkpt><trkpt lat="45.5230298" lon="9.3830188"><ele>134.0</ele><time>2026-03-25T11:03:04.36Z</time></trkpt><trkpt lat="45.5230561" lon="9.3831832"><ele>134.0</ele><time>2026-03-25T11:03:05.361Z</time></trkpt><trkpt lat="45.5230877" lon="9.383345"><ele>134.0</ele><time>2026-03-25T11:03:06.36Z</time></trkpt><trkpt lat="45.5231216" lon="9.3835089"><ele>134.0</ele><time>2026-03-25T11:03:07.361Z</time></trkpt><trkpt lat="45.5231638" lon="9.3836684"><ele>134.0</ele><time>2026-03-25T11:03:08.361Z</time></trkpt><trkpt lat="45.5232081" lon="9.3838286"><ele>134.0</ele><time>2026-03-25T11:03:09.361Z</time></trkpt><trkpt lat="45.523252" lon="9.3839864"><ele>134.0</ele><time>2026-03-25T11:03:10.361Z</time></trkpt><trkpt lat="45.5232958" lon="9.3841474"><ele>134.0</ele><time>2026-03-25T11:03:11.36Z</time></trkpt><trkpt lat="45.5233452" lon="9.384311"><ele>134.0</ele><time>2026-03-25T11:03:12.361Z</time></trkpt><trkpt lat="45.5233929" lon="9.3844711"><ele>134.0</ele><time>2026-03-25T11:03:13.361Z</time></trkpt><trkpt lat="45.5234367" lon="9.3846287"><ele>133.75</ele><time>2026-03-25T11:03:14.361Z</time></trkpt><trkpt lat="45.5234905" lon="9.3847871"><ele>133.5</ele><time>2026-03-25T11:03:15.362Z</time></trkpt><trkpt lat="45.5235421" lon="9.3849465"><ele>133.25</ele><time>2026-03-25T11:03:16.362Z</time></trkpt><trkpt lat="45.5235894" lon="9.3851007"><ele>133.0</ele><time>2026-03-25T11:03:17.361Z</time></trkpt><trkpt lat="45.5236366" lon="9.3852538"><ele>133.0</ele><time>2026-03-25T11:03:18.361Z</time></trkpt><trkpt lat="45.5236849" lon="9.3854088"><ele>133.0</ele><time>2026-03-25T11:03:19.361Z</time></trkpt><trkpt lat="45.52373" lon="9.3855675"><ele>133.0</ele><time>2026-03-25T11:03:20.362Z</time></trkpt><trkpt lat="45.5237757" lon="9.3857239"><ele>133.0</ele><time>2026-03-25T11:03:21.361Z</time></trkpt><trkpt lat="45.5238212" lon="9.3858786"><ele>133.25</ele><time>2026-03-25T11:03:22.362Z</time></trkpt><trkpt lat="45.5238742" lon="9.3860383"><ele>133.5</ele><time>2026-03-25T11:03:23.362Z</time></trkpt><trkpt lat="45.5239266" lon="9.3861947"><ele>133.75</ele><time>2026-03-25T11:03:24.361Z</time></trkpt><trkpt lat="45.5239745" lon="9.3863529"><ele>134.0</ele><time>2026-03-25T11:03:25.362Z</time></trkpt><trkpt lat="45.5240203" lon="9.3865085"><ele>134.0</ele><time>2026-03-25T11:03:26.362Z</time></trkpt><trkpt lat="45.5240656" lon="9.3866685"><ele>134.0</ele><time>2026-03-25T11:03:27.362Z</time></trkpt><trkpt lat="45.524114" lon="9.3868272"><ele>134.0</ele><time>2026-03-25T11:03:28.362Z</time></trkpt><trkpt lat="45.5241656" lon="9.3869891"><ele>134.0</ele><time>2026-03-25T11:03:29.362Z</time></trkpt><trkpt lat="45.5242127" lon="9.3871501"><ele>133.75</ele><time>2026-03-25T11:03:30.36Z</time></trkpt><trkpt lat="45.524261" lon="9.3873121"><ele>133.5</ele><time>2026-03-25T11:03:31.361Z</time></trkpt><trkpt lat="45.5243095" lon="9.3874715"><ele>133.25</ele><time>2026-03-25T11:03:32.362Z</time></trkpt><trkpt lat="45.5243563" lon="9.3876265"><ele>133.0</ele><time>2026-03-25T11:03:33.362Z</time></trkpt><trkpt lat="45.5243988" lon="9.3877732"><ele>133.0</ele><time>2026-03-25T11:03:34.361Z</time></trkpt><trkpt lat="45.5244433" lon="9.3879149"><ele>133.0</ele><time>2026-03-25T11:03:35.362Z</time></trkpt><trkpt lat="45.5244859" lon="9.3880534"><ele>133.0</ele><time>2026-03-25T11:03:36.361Z</time></trkpt><trkpt lat="45.5245294" lon="9.3881974"><ele>133.0</ele><time>2026-03-25T11:03:37.361Z</time></trkpt><trkpt lat="45.5245648" lon="9.3883457"><ele>133.0</ele><time>2026-03-25T11:03:38.36Z</time></trkpt><trkpt lat="45.5246022" lon="9.3884948"><ele>133.5</ele><time>2026-03-25T11:03:39.36Z</time></trkpt><trkpt lat="45.5246355" lon="9.3886463"><ele>134.0</ele><time>2026-03-25T11:03:40.361Z</time></trkpt><trkpt lat="45.5246646" lon="9.3888034"><ele>134.5</ele><time>2026-03-25T11:03:41.362Z</time></trkpt><trkpt lat="45.5246903" lon="9.3889603"><ele>135.0</ele><time>2026-03-25T11:03:42.362Z</time></trkpt><trkpt lat="45.5247134" lon="9.3891185"><ele>135.0</ele><time>2026-03-25T11:03:43.361Z</time></trkpt><trkpt lat="45.524734" lon="9.3892768"><ele>135.0</ele><time>2026-03-25T11:03:44.362Z</time></trkpt><trkpt lat="45.5247528" lon="9.3894387"><ele>135.0</ele><time>2026-03-25T11:03:45.36Z</time></trkpt><trkpt lat="45.524762" lon="9.3896001"><ele>135.0</ele><time>2026-03-25T11:03:46.36Z</time></trkpt><trkpt lat="45.524765" lon="9.389763"><ele>134.5</ele><time>2026-03-25T11:03:47.361Z</time></trkpt><trkpt lat="45.5247701" lon="9.3899284"><ele>134.0</ele><time>2026-03-25T11:03:48.359Z</time></trkpt><trkpt lat="45.5247687" lon="9.3900927"><ele>133.5</ele><time>2026-03-25T11:03:49.361Z</time></trkpt><trkpt lat="45.5247611" lon="9.3902574"><ele>133.0</ele><time>2026-03-25T11:03:50.361Z</time></trkpt><trkpt lat="45.5247507" lon="9.3904192"><ele>133.0</ele><time>2026-03-25T11:03:51.361Z</time></trkpt><trkpt lat="45.5247385" lon="9.3905815"><ele>133.0</ele><time>2026-03-25T11:03:52.361Z</time></trkpt><trkpt lat="45.5247243" lon="9.3907434"><ele>133.0</ele><time>2026-03-25T11:03:53.361Z</time></trkpt><trkpt lat="45.5247052" lon="9.3909022"><ele>133.0</ele><time>2026-03-25T11:03:54.362Z</time></trkpt><trkpt lat="45.5246803" lon="9.3910624"><ele>133.0</ele><time>2026-03-25T11:03:55.361Z</time></trkpt><trkpt lat="45.5246533" lon="9.3912216"><ele>133.0</ele><time>2026-03-25T11:03:56.362Z</time></trkpt><trkpt lat="45.5246263" lon="9.3913792"><ele>133.0</ele><time>2026-03-25T11:03:57.361Z</time></trkpt><trkpt lat="45.524599" lon="9.3915393"><ele>133.0</ele><time>2026-03-25T11:03:58.361Z</time></trkpt><trkpt lat="45.5245696" lon="9.3917013"><ele>132.5</ele><time>2026-03-25T11:03:59.361Z</time></trkpt><trkpt lat="45.5245341" lon="9.3918594"><ele>132.0</ele><time>2026-03-25T11:04:00.36Z</time></trkpt><trkpt lat="45.5244938" lon="9.3920134"><ele>131.5</ele><time>2026-03-25T11:04:01.36Z</time></trkpt><trkpt lat="45.5244485" lon="9.3921655"><ele>131.0</ele><time>2026-03-25T11:04:02.362Z</time></trkpt><trkpt lat="45.5243999" lon="9.3923116"><ele>130.5</ele><time>2026-03-25T11:04:03.361Z</time></trkpt><trkpt lat="45.5243465" lon="9.3924563"><ele>130.0</ele><time>2026-03-25T11:04:04.362Z</time></trkpt><trkpt lat="45.5242846" lon="9.3925979"><ele>129.5</ele><time>2026-03-25T11:04:05.361Z</time></trkpt><trkpt lat="45.524223" lon="9.3927414"><ele>129.0</ele><time>2026-03-25T11:04:06.361Z</time></trkpt><trkpt lat="45.5241623" lon="9.392882"><ele>129.25</ele><time>2026-03-25T11:04:07.361Z</time></trkpt><trkpt lat="45.5240972" lon="9.3930158"><ele>129.5</ele><time>2026-03-25T11:04:08.362Z</time></trkpt><trkpt lat="45.5240321" lon="9.393147"><ele>129.75</ele><time>2026-03-25T11:04:09.361Z</time></trkpt><trkpt lat="45.5239621" lon="9.393279"><ele>130.0</ele><time>2026-03-25T11:04:10.362Z</time></trkpt><trkpt lat="45.5238903" lon="9.3934045"><ele>130.0</ele><time>2026-03-25T11:04:11.361Z</time></trkpt><trkpt lat="45.5238128" lon="9.3935244"><ele>130.0</ele><time>2026-03-25T11:04:12.361Z</time></trkpt><trkpt lat="45.5237334" lon="9.3936394"><ele>130.0</ele><time>2026-03-25T11:04:13.362Z</time></trkpt><trkpt lat="45.5236539" lon="9.3937525"><ele>130.0</ele><time>2026-03-25T11:04:14.362Z</time></trkpt><trkpt lat="45.5235726" lon="9.3938647"><ele>130.25</ele><time>2026-03-25T11:04:15.361Z</time></trkpt><trkpt lat="45.5234896" lon="9.3939792"><ele>130.5</ele><time>2026-03-25T11:04:16.361Z</time></trkpt><trkpt lat="45.5234119" lon="9.3940934"><ele>130.75</ele><time>2026-03-25T11:04:17.362Z</time></trkpt><trkpt lat="45.5233315" lon="9.3942049"><ele>131.0</ele><time>2026-03-25T11:04:18.362Z</time></trkpt><trkpt lat="45.5232504" lon="9.3943195"><ele>131.0</ele><time>2026-03-25T11:04:19.361Z</time></trkpt><trkpt lat="45.5231684" lon="9.3944352"><ele>131.0</ele><time>2026-03-25T11:04:20.361Z</time></trkpt><trkpt lat="45.5230855" lon="9.3945524"><ele>131.0</ele><time>2026-03-25T11:04:21.362Z</time></trkpt><trkpt lat="45.5229975" lon="9.3946664"><ele>131.0</ele><time>2026-03-25T11:04:22.361Z</time></trkpt><trkpt lat="45.5229151" lon="9.3947761"><ele>130.75</ele><time>2026-03-25T11:04:23.362Z</time></trkpt><trkpt lat="45.5228377" lon="9.3948924"><ele>130.5</ele><time>2026-03-25T11:04:24.36Z</time></trkpt><trkpt lat="45.5227583" lon="9.3950085"><ele>130.25</ele><time>2026-03-25T11:04:25.362Z</time></trkpt><trkpt lat="45.5226775" lon="9.3951215"><ele>130.0</ele><time>2026-03-25T11:04:26.361Z</time></trkpt><trkpt lat="45.5225952" lon="9.3952347"><ele>130.0</ele><time>2026-03-25T11:04:27.361Z</time></trkpt><trkpt lat="45.5225147" lon="9.3953459"><ele>130.0</ele><time>2026-03-25T11:04:28.361Z</time></trkpt><trkpt lat="45.5224379" lon="9.395456"><ele>130.0</ele><time>2026-03-25T11:04:29.362Z</time></trkpt><trkpt lat="45.5223569" lon="9.3955634"><ele>130.0</ele><time>2026-03-25T11:04:30.361Z</time></trkpt><trkpt lat="45.5222747" lon="9.3956763"><ele>130.0</ele><time>2026-03-25T11:04:31.36Z</time></trkpt><trkpt lat="45.522191" lon="9.39579"><ele>130.25</ele><time>2026-03-25T11:04:32.362Z</time></trkpt><trkpt lat="45.522113" lon="9.3959024"><ele>130.5</ele><time>2026-03-25T11:04:33.36Z</time></trkpt><trkpt lat="45.5220331" lon="9.3960155"><ele>130.75</ele><time>2026-03-25T11:04:34.362Z</time></trkpt><trkpt lat="45.5219507" lon="9.3961291"><ele>131.0</ele><time>2026-03-25T11:04:35.362Z</time></trkpt><trkpt lat="45.5218694" lon="9.3962419"><ele>131.0</ele><time>2026-03-25T11:04:36.361Z</time></trkpt><trkpt lat="45.5217883" lon="9.3963604"><ele>131.0</ele><time>2026-03-25T11:04:37.362Z</time></trkpt><trkpt lat="45.5217089" lon="9.3964773"><ele>131.0</ele><time>2026-03-25T11:04:38.362Z</time></trkpt><trkpt lat="45.5216283" lon="9.3965939"><ele>131.0</ele><time>2026-03-25T11:04:39.361Z</time></trkpt><trkpt lat="45.5215447" lon="9.3967121"><ele>131.0</ele><time>2026-03-25T11:04:40.362Z</time></trkpt><trkpt lat="45.5214621" lon="9.3968305"><ele>131.0</ele><time>2026-03-25T11:04:41.362Z</time></trkpt><trkpt lat="45.5213845" lon="9.396951"><ele>131.0</ele><time>2026-03-25T11:04:42.361Z</time></trkpt><trkpt lat="45.521313" lon="9.3970734"><ele>131.0</ele><time>2026-03-25T11:04:43.36Z</time></trkpt><trkpt lat="45.5212404" lon="9.3971993"><ele>130.5</ele><time>2026-03-25T11:04:44.362Z</time></trkpt><trkpt lat="45.5211741" lon="9.3973305"><ele>130.0</ele><time>2026-03-25T11:04:45.362Z</time></trkpt><trkpt lat="45.5211125" lon="9.3974653"><ele>129.5</ele><time>2026-03-25T11:04:46.361Z</time></trkpt><trkpt lat="45.5210517" lon="9.3976039"><ele>129.0</ele><time>2026-03-25T11:04:47.363Z</time></trkpt><trkpt lat="45.5209977" lon="9.3977466"><ele>129.0</ele><time>2026-03-25T11:04:48.361Z</time></trkpt><trkpt lat="45.5209506" lon="9.3978923"><ele>129.0</ele><time>2026-03-25T11:04:49.362Z</time></trkpt><trkpt lat="45.5209018" lon="9.3980395"><ele>129.0</ele><time>2026-03-25T11:04:50.361Z</time></trkpt><trkpt lat="45.5208551" lon="9.3981902"><ele>129.0</ele><time>2026-03-25T11:04:51.361Z</time></trkpt><trkpt lat="45.52081" lon="9.3983398"><ele>129.25</ele><time>2026-03-25T11:04:52.361Z</time></trkpt><trkpt lat="45.5207697" lon="9.3984936"><ele>129.5</ele><time>2026-03-25T11:04:53.361Z</time></trkpt><trkpt lat="45.5207331" lon="9.398652"><ele>129.75</ele><time>2026-03-25T11:04:54.361Z</time></trkpt><trkpt lat="45.5207009" lon="9.3988058"><ele>130.0</ele><time>2026-03-25T11:04:55.362Z</time></trkpt><trkpt lat="45.5206723" lon="9.3989581"><ele>130.0</ele><time>2026-03-25T11:04:56.361Z</time></trkpt><trkpt lat="45.5206483" lon="9.399114"><ele>130.0</ele><time>2026-03-25T11:04:57.36Z</time></trkpt><trkpt lat="45.5206293" lon="9.399271"><ele>130.0</ele><time>2026-03-25T11:04:58.36Z</time></trkpt><trkpt lat="45.5206125" lon="9.3994273"><ele>130.0</ele><time>2026-03-25T11:04:59.362Z</time></trkpt><trkpt lat="45.5205973" lon="9.3995836"><ele>130.0</ele><time>2026-03-25T11:05:00.362Z</time></trkpt><trkpt lat="45.5205776" lon="9.3997394"><ele>129.8</ele><time>2026-03-25T11:05:01.362Z</time></trkpt><trkpt lat="45.5205632" lon="9.3998949"><ele>129.6</ele><time>2026-03-25T11:05:02.362Z</time></trkpt><trkpt lat="45.5205589" lon="9.4000537"><ele>129.4</ele><time>2026-03-25T11:05:03.36Z</time></trkpt><trkpt lat="45.5205645" lon="9.4002115"><ele>129.2</ele><time>2026-03-25T11:05:04.361Z</time></trkpt><trkpt lat="45.5205782" lon="9.4003666"><ele>129.0</ele><time>2026-03-25T11:05:05.362Z</time></trkpt><trkpt lat="45.5205933" lon="9.4005246"><ele>129.0</ele><time>2026-03-25T11:05:06.361Z</time></trkpt><trkpt lat="45.52061" lon="9.4006839"><ele>129.0</ele><time>2026-03-25T11:05:07.362Z</time></trkpt><trkpt lat="45.5206289" lon="9.400838"><ele>129.0</ele><time>2026-03-25T11:05:08.362Z</time></trkpt><trkpt lat="45.5206518" lon="9.4009973"><ele>129.0</ele><time>2026-03-25T11:05:09.362Z</time></trkpt><trkpt lat="45.5206781" lon="9.4011568"><ele>129.0</ele><time>2026-03-25T11:05:10.36Z</time></trkpt><trkpt lat="45.5207054" lon="9.4013138"><ele>129.0</ele><time>2026-03-25T11:05:11.361Z</time></trkpt><trkpt lat="45.520732" lon="9.4014719"><ele>129.0</ele><time>2026-03-25T11:05:12.362Z</time></trkpt><trkpt lat="45.5207597" lon="9.4016294"><ele>129.0</ele><time>2026-03-25T11:05:13.362Z</time></trkpt><trkpt lat="45.5207911" lon="9.4017898"><ele>129.5</ele><time>2026-03-25T11:05:14.362Z</time></trkpt><trkpt lat="45.5208268" lon="9.4019505"><ele>130.0</ele><time>2026-03-25T11:05:15.36Z</time></trkpt><trkpt lat="45.5208652" lon="9.4021074"><ele>130.5</ele><time>2026-03-25T11:05:16.362Z</time></trkpt><trkpt lat="45.5209063" lon="9.4022639"><ele>131.0</ele><time>2026-03-25T11:05:17.362Z</time></trkpt><trkpt lat="45.5209562" lon="9.4024185"><ele>131.0</ele><time>2026-03-25T11:05:18.361Z</time></trkpt><trkpt lat="45.5210108" lon="9.4025717"><ele>131.0</ele><time>2026-03-25T11:05:19.361Z</time></trkpt><trkpt lat="45.521077" lon="9.4027205"><ele>131.0</ele><time>2026-03-25T11:05:20.362Z</time></trkpt><trkpt lat="45.5211459" lon="9.4028618"><ele>131.0</ele><time>2026-03-25T11:05:21.362Z</time></trkpt><trkpt lat="45.5212156" lon="9.4030075"><ele>131.0</ele><time>2026-03-25T11:05:22.36Z</time></trkpt><trkpt lat="45.5212917" lon="9.4031475"><ele>131.0</ele><time>2026-03-25T11:05:23.362Z</time></trkpt><trkpt lat="45.5213596" lon="9.4032866"><ele>131.0</ele><time>2026-03-25T11:05:24.361Z</time></trkpt><trkpt lat="45.521433" lon="9.4034244"><ele>131.0</ele><time>2026-03-25T11:05:25.36Z</time></trkpt><trkpt lat="45.5215076" lon="9.403561"><ele>131.0</ele><time>2026-03-25T11:05:26.361Z</time></trkpt><trkpt lat="45.521586" lon="9.4036984"><ele>131.0</ele><time>2026-03-25T11:05:27.361Z</time></trkpt><trkpt lat="45.5216629" lon="9.4038363"><ele>131.0</ele><time>2026-03-25T11:05:28.361Z</time></trkpt><trkpt lat="45.5217395" lon="9.4039701"><ele>131.0</ele><time>2026-03-25T11:05:29.362Z</time></trkpt><trkpt lat="45.5218137" lon="9.4041028"><ele>130.75</ele><time>2026-03-25T11:05:30.362Z</time></trkpt><trkpt lat="45.5218886" lon="9.4042375"><ele>130.5</ele><time>2026-03-25T11:05:31.363Z</time></trkpt><trkpt lat="45.521961" lon="9.4043711"><ele>130.25</ele><time>2026-03-25T11:05:32.362Z</time></trkpt><trkpt lat="45.522034" lon="9.4045024"><ele>130.0</ele><time>2026-03-25T11:05:33.36Z</time></trkpt><trkpt lat="45.5221092" lon="9.4046302"><ele>130.0</ele><time>2026-03-25T11:05:34.362Z</time></trkpt><trkpt lat="45.522184" lon="9.4047558"><ele>130.0</ele><time>2026-03-25T11:05:35.361Z</time></trkpt><trkpt lat="45.5222606" lon="9.4048845"><ele>130.0</ele><time>2026-03-25T11:05:36.361Z</time></trkpt><trkpt lat="45.5223335" lon="9.4050179"><ele>130.0</ele><time>2026-03-25T11:05:37.361Z</time></trkpt><trkpt lat="45.5224078" lon="9.4051468"><ele>130.0</ele><time>2026-03-25T11:05:38.361Z</time></trkpt><trkpt lat="45.522479" lon="9.4052791"><ele>130.0</ele><time>2026-03-25T11:05:39.361Z</time></trkpt><trkpt lat="45.522552" lon="9.4054127"><ele>130.0</ele><time>2026-03-25T11:05:40.361Z</time></trkpt><trkpt lat="45.5226235" lon="9.4055495"><ele>130.0</ele><time>2026-03-25T11:05:41.362Z</time></trkpt><trkpt lat="45.5226951" lon="9.4056849"><ele>130.5</ele><time>2026-03-25T11:05:42.361Z</time></trkpt><trkpt lat="45.5227691" lon="9.4058175"><ele>131.0</ele><time>2026-03-25T11:05:43.361Z</time></trkpt><trkpt lat="45.5228441" lon="9.4059527"><ele>131.5</ele><time>2026-03-25T11:05:44.361Z</time></trkpt><trkpt lat="45.5229214" lon="9.4060838"><ele>132.0</ele><time>2026-03-25T11:05:45.361Z</time></trkpt><trkpt lat="45.5229973" lon="9.4062159"><ele>132.5</ele><time>2026-03-25T11:05:46.362Z</time></trkpt><trkpt lat="45.5230743" lon="9.4063477"><ele>133.0</ele><time>2026-03-25T11:05:47.36Z</time></trkpt><trkpt lat="45.5231523" lon="9.4064795"><ele>133.5</ele><time>2026-03-25T11:05:48.362Z</time></trkpt><trkpt lat="45.5232161" lon="9.4066132"><ele>134.0</ele><time>2026-03-25T11:05:49.361Z</time></trkpt><trkpt lat="45.5232797" lon="9.4067478"><ele>134.0</ele><time>2026-03-25T11:05:50.362Z</time></trkpt><trkpt lat="45.523355" lon="9.4068853"><ele>134.0</ele><time>2026-03-25T11:05:51.362Z</time></trkpt><trkpt lat="45.5234293" lon="9.4070208"><ele>134.0</ele><time>2026-03-25T11:05:52.362Z</time></trkpt><trkpt lat="45.5235039" lon="9.4071557"><ele>134.0</ele><time>2026-03-25T11:05:53.362Z</time></trkpt><trkpt lat="45.5235799" lon="9.4072935"><ele>133.5</ele><time>2026-03-25T11:05:54.36Z</time></trkpt><trkpt lat="45.5236579" lon="9.4074288"><ele>133.0</ele><time>2026-03-25T11:05:55.361Z</time></trkpt><trkpt lat="45.5237346" lon="9.4075632"><ele>132.5</ele><time>2026-03-25T11:05:56.361Z</time></trkpt><trkpt lat="45.5238102" lon="9.4077006"><ele>132.0</ele><time>2026-03-25T11:05:57.362Z</time></trkpt><trkpt lat="45.5238874" lon="9.4078369"><ele>131.5</ele><time>2026-03-25T11:05:58.361Z</time></trkpt><trkpt lat="45.5239651" lon="9.407973"><ele>131.0</ele><time>2026-03-25T11:05:59.361Z</time></trkpt><trkpt lat="45.5240403" lon="9.408105"><ele>130.5</ele><time>2026-03-25T11:06:00.361Z</time></trkpt><trkpt lat="45.5241151" lon="9.4082408"><ele>130.0</ele><time>2026-03-25T11:06:01.361Z</time></trkpt><trkpt lat="45.5241877" lon="9.4083787"><ele>130.0</ele><time>2026-03-25T11:06:02.361Z</time></trkpt><trkpt lat="45.524259" lon="9.4085133"><ele>130.0</ele><time>2026-03-25T11:06:03.362Z</time></trkpt><trkpt lat="45.5243396" lon="9.4086481"><ele>130.0</ele><time>2026-03-25T11:06:04.361Z</time></trkpt><trkpt lat="45.5244144" lon="9.4087865"><ele>130.0</ele><time>2026-03-25T11:06:05.361Z</time></trkpt><trkpt lat="45.5244906" lon="9.4089237"><ele>130.25</ele><time>2026-03-25T11:06:06.361Z</time></trkpt><trkpt lat="45.5245587" lon="9.4090612"><ele>130.5</ele><time>2026-03-25T11:06:07.361Z</time></trkpt><trkpt lat="45.5246313" lon="9.409202"><ele>130.75</ele><time>2026-03-25T11:06:08.361Z</time></trkpt><trkpt lat="45.5247136" lon="9.4093439"><ele>131.0</ele><time>2026-03-25T11:06:09.362Z</time></trkpt><trkpt lat="45.5247876" lon="9.4094822"><ele>131.0</ele><time>2026-03-25T11:06:10.36Z</time></trkpt><trkpt lat="45.5248629" lon="9.4096192"><ele>131.0</ele><time>2026-03-25T11:06:11.361Z</time></trkpt><trkpt lat="45.5249367" lon="9.4097552"><ele>131.0</ele><time>2026-03-25T11:06:12.361Z</time></trkpt><trkpt lat="45.5250108" lon="9.4098915"><ele>131.0</ele><time>2026-03-25T11:06:13.363Z</time></trkpt><trkpt lat="45.5250882" lon="9.4100321"><ele>131.0</ele><time>2026-03-25T11:06:14.361Z</time></trkpt><trkpt lat="45.5251652" lon="9.4101713"><ele>131.0</ele><time>2026-03-25T11:06:15.361Z</time></trkpt><trkpt lat="45.5252405" lon="9.4103107"><ele>131.0</ele><time>2026-03-25T11:06:16.362Z</time></trkpt><trkpt lat="45.5253181" lon="9.4104474"><ele>131.0</ele><time>2026-03-25T11:06:17.36Z</time></trkpt><trkpt lat="45.5253958" lon="9.4105832"><ele>131.25</ele><time>2026-03-25T11:06:18.36Z</time></trkpt><trkpt lat="45.5254714" lon="9.4107191"><ele>131.5</ele><time>2026-03-25T11:06:19.362Z</time></trkpt><trkpt lat="45.5255476" lon="9.4108577"><ele>131.75</ele><time>2026-03-25T11:06:20.362Z</time></trkpt><trkpt lat="45.5256293" lon="9.4109982"><ele>132.0</ele><time>2026-03-25T11:06:21.362Z</time></trkpt><trkpt lat="45.5257104" lon="9.4111387"><ele>132.0</ele><time>2026-03-25T11:06:22.361Z</time></trkpt><trkpt lat="45.5257845" lon="9.4112759"><ele>132.0</ele><time>2026-03-25T11:06:23.36Z</time></trkpt><trkpt lat="45.5258566" lon="9.4114134"><ele>132.0</ele><time>2026-03-25T11:06:24.361Z</time></trkpt><trkpt lat="45.5259303" lon="9.4115492"><ele>132.0</ele><time>2026-03-25T11:06:25.362Z</time></trkpt><trkpt lat="45.526011" lon="9.4116868"><ele>132.0</ele><time>2026-03-25T11:06:26.362Z</time></trkpt><trkpt lat="45.5260918" lon="9.411824"><ele>132.0</ele><time>2026-03-25T11:06:27.361Z</time></trkpt><trkpt lat="45.5261654" lon="9.4119601"><ele>132.0</ele><time>2026-03-25T11:06:28.361Z</time></trkpt><trkpt lat="45.5262389" lon="9.412094"><ele>132.0</ele><time>2026-03-25T11:06:29.361Z</time></trkpt><trkpt lat="45.5263127" lon="9.4122244"><ele>131.5</ele><time>2026-03-25T11:06:30.36Z</time></trkpt><trkpt lat="45.5263865" lon="9.4123618"><ele>131.0</ele><time>2026-03-25T11:06:31.361Z</time></trkpt><trkpt lat="45.5264597" lon="9.4124973"><ele>130.5</ele><time>2026-03-25T11:06:32.363Z</time></trkpt><trkpt lat="45.5265324" lon="9.4126294"><ele>130.0</ele><time>2026-03-25T11:06:33.361Z</time></trkpt><trkpt lat="45.5266059" lon="9.4127634"><ele>130.0</ele><time>2026-03-25T11:06:34.362Z</time></trkpt><trkpt lat="45.5266792" lon="9.412896"><ele>130.0</ele><time>2026-03-25T11:06:35.362Z</time></trkpt><trkpt lat="45.5267538" lon="9.4130271"><ele>130.0</ele><time>2026-03-25T11:06:36.362Z</time></trkpt><trkpt lat="45.5268257" lon="9.4131603"><ele>130.0</ele><time>2026-03-25T11:06:37.361Z</time></trkpt><trkpt lat="45.5269008" lon="9.41329"><ele>130.0</ele><time>2026-03-25T11:06:38.362Z</time></trkpt><trkpt lat="45.5269754" lon="9.4134214"><ele>130.0</ele><time>2026-03-25T11:06:39.361Z</time></trkpt><trkpt lat="45.5270471" lon="9.4135534"><ele>130.0</ele><time>2026-03-25T11:06:40.361Z</time></trkpt><trkpt lat="45.527119" lon="9.4136863"><ele>130.0</ele><time>2026-03-25T11:06:41.361Z</time></trkpt><trkpt lat="45.5271928" lon="9.4138214"><ele>130.25</ele><time>2026-03-25T11:06:42.36Z</time></trkpt><trkpt lat="45.527268" lon="9.4139541"><ele>130.5</ele><time>2026-03-25T11:06:43.362Z</time></trkpt><trkpt lat="45.5273408" lon="9.4140888"><ele>130.75</ele><time>2026-03-25T11:06:44.362Z</time></trkpt><trkpt lat="45.5274172" lon="9.4142254"><ele>131.0</ele><time>2026-03-25T11:06:45.361Z</time></trkpt><trkpt lat="45.5274898" lon="9.4143638"><ele>131.0</ele><time>2026-03-25T11:06:46.362Z</time></trkpt><trkpt lat="45.5275667" lon="9.4145039"><ele>131.0</ele><time>2026-03-25T11:06:47.362Z</time></trkpt><trkpt lat="45.5276431" lon="9.4146351"><ele>131.0</ele><time>2026-03-25T11:06:48.361Z</time></trkpt><trkpt lat="45.5277163" lon="9.4147676"><ele>131.0</ele><time>2026-03-25T11:06:49.362Z</time></trkpt><trkpt lat="45.5277916" lon="9.4149038"><ele>131.0</ele><time>2026-03-25T11:06:50.362Z</time></trkpt><trkpt lat="45.5278662" lon="9.4150393"><ele>131.0</ele><time>2026-03-25T11:06:51.363Z</time></trkpt><trkpt lat="45.5279388" lon="9.4151745"><ele>131.0</ele><time>2026-03-25T11:06:52.363Z</time></trkpt><trkpt lat="45.5280129" lon="9.4153095"><ele>131.0</ele><time>2026-03-25T11:06:53.362Z</time></trkpt><trkpt lat="45.52809" lon="9.4154432"><ele>131.0</ele><time>2026-03-25T11:06:54.361Z</time></trkpt><trkpt lat="45.5281633" lon="9.4155764"><ele>131.0</ele><time>2026-03-25T11:06:55.361Z</time></trkpt><trkpt lat="45.5282376" lon="9.4157069"><ele>131.0</ele><time>2026-03-25T11:06:56.361Z</time></trkpt><trkpt lat="45.5283187" lon="9.4158368"><ele>131.0</ele><time>2026-03-25T11:06:57.36Z</time></trkpt><trkpt lat="45.5283946" lon="9.4159655"><ele>131.0</ele><time>2026-03-25T11:06:58.362Z</time></trkpt><trkpt lat="45.5284758" lon="9.4160893"><ele>131.0</ele><time>2026-03-25T11:06:59.361Z</time></trkpt><trkpt lat="45.5285529" lon="9.4162181"><ele>131.0</ele><time>2026-03-25T11:07:00.362Z</time></trkpt><trkpt lat="45.5286312" lon="9.4163483"><ele>131.0</ele><time>2026-03-25T11:07:01.361Z</time></trkpt><trkpt lat="45.52871" lon="9.4164808"><ele>131.75</ele><time>2026-03-25T11:07:02.362Z</time></trkpt><trkpt lat="45.5287892" lon="9.4166087"><ele>132.5</ele><time>2026-03-25T11:07:03.361Z</time></trkpt><trkpt lat="45.5288715" lon="9.4167396"><ele>133.25</ele><time>2026-03-25T11:07:04.361Z</time></trkpt><trkpt lat="45.5289478" lon="9.416867"><ele>134.0</ele><time>2026-03-25T11:07:05.362Z</time></trkpt><trkpt lat="45.5290295" lon="9.4169927"><ele>134.0</ele><time>2026-03-25T11:07:06.361Z</time></trkpt><trkpt lat="45.5291111" lon="9.4171187"><ele>134.0</ele><time>2026-03-25T11:07:07.362Z</time></trkpt><trkpt lat="45.5291924" lon="9.4172411"><ele>134.0</ele><time>2026-03-25T11:07:08.361Z</time></trkpt><trkpt lat="45.5292778" lon="9.4173626"><ele>134.0</ele><time>2026-03-25T11:07:09.361Z</time></trkpt><trkpt lat="45.5293597" lon="9.4174858"><ele>133.25</ele><time>2026-03-25T11:07:10.361Z</time></trkpt><trkpt lat="45.5294404" lon="9.4176039"><ele>132.5</ele><time>2026-03-25T11:07:11.362Z</time></trkpt><trkpt lat="45.5295226" lon="9.417723"><ele>131.75</ele><time>2026-03-25T11:07:12.363Z</time></trkpt><trkpt lat="45.529605" lon="9.4178414"><ele>131.0</ele><time>2026-03-25T11:07:13.362Z</time></trkpt><trkpt lat="45.5296885" lon="9.4179588"><ele>130.5</ele><time>2026-03-25T11:07:14.361Z</time></trkpt><trkpt lat="45.5297708" lon="9.4180751"><ele>130.0</ele><time>2026-03-25T11:07:15.362Z</time></trkpt><trkpt lat="45.5298558" lon="9.4181919"><ele>129.5</ele><time>2026-03-25T11:07:16.361Z</time></trkpt><trkpt lat="45.5299416" lon="9.4183107"><ele>129.0</ele><time>2026-03-25T11:07:17.361Z</time></trkpt><trkpt lat="45.5300275" lon="9.418431"><ele>129.0</ele><time>2026-03-25T11:07:18.362Z</time></trkpt><trkpt lat="45.5301112" lon="9.4185487"><ele>129.0</ele><time>2026-03-25T11:07:19.362Z</time></trkpt><trkpt lat="45.5301981" lon="9.4186673"><ele>129.0</ele><time>2026-03-25T11:07:20.361Z</time></trkpt><trkpt lat="45.5302849" lon="9.4187885"><ele>129.0</ele><time>2026-03-25T11:07:21.363Z</time></trkpt><trkpt lat="45.5303733" lon="9.4189085"><ele>129.0</ele><time>2026-03-25T11:07:22.362Z</time></trkpt><trkpt lat="45.5304593" lon="9.4190278"><ele>129.0</ele><time>2026-03-25T11:07:23.362Z</time></trkpt><trkpt lat="45.5305492" lon="9.4191478"><ele>129.0</ele><time>2026-03-25T11:07:24.361Z</time></trkpt><trkpt lat="45.5306405" lon="9.4192671"><ele>129.0</ele><time>2026-03-25T11:07:25.363Z</time></trkpt><trkpt lat="45.5307293" lon="9.4193912"><ele>129.0</ele><time>2026-03-25T11:07:26.36Z</time></trkpt><trkpt lat="45.5308155" lon="9.419511"><ele>129.0</ele><time>2026-03-25T11:07:27.361Z</time></trkpt><trkpt lat="45.5309025" lon="9.4196328"><ele>129.0</ele><time>2026-03-25T11:07:28.361Z</time></trkpt><trkpt lat="45.5309888" lon="9.4197544"><ele>129.0</ele><time>2026-03-25T11:07:29.361Z</time></trkpt><trkpt lat="45.5310745" lon="9.4198746"><ele>129.25</ele><time>2026-03-25T11:07:30.362Z</time></trkpt><trkpt lat="45.5311607" lon="9.4199988"><ele>129.5</ele><time>2026-03-25T11:07:31.362Z</time></trkpt><trkpt lat="45.5312474" lon="9.4201167"><ele>129.75</ele><time>2026-03-25T11:07:32.36Z</time></trkpt><trkpt lat="45.5313339" lon="9.4202353"><ele>130.0</ele><time>2026-03-25T11:07:33.362Z</time></trkpt><trkpt lat="45.5314228" lon="9.4203517"><ele>130.0</ele><time>2026-03-25T11:07:34.36Z</time></trkpt><trkpt lat="45.5315106" lon="9.4204686"><ele>130.0</ele><time>2026-03-25T11:07:35.361Z</time></trkpt><trkpt lat="45.5315913" lon="9.4205879"><ele>130.0</ele><time>2026-03-25T11:07:36.362Z</time></trkpt><trkpt lat="45.5316762" lon="9.4207051"><ele>130.0</ele><time>2026-03-25T11:07:37.361Z</time></trkpt><trkpt lat="45.531767" lon="9.420823"><ele>130.0</ele><time>2026-03-25T11:07:38.362Z</time></trkpt><trkpt lat="45.5318551" lon="9.4209404"><ele>130.0</ele><time>2026-03-25T11:07:39.363Z</time></trkpt><trkpt lat="45.5319394" lon="9.4210578"><ele>130.0</ele><time>2026-03-25T11:07:40.361Z</time></trkpt><trkpt lat="45.5320276" lon="9.4211785"><ele>130.0</ele><time>2026-03-25T11:07:41.363Z</time></trkpt><trkpt lat="45.5321131" lon="9.4212986"><ele>130.0</ele><time>2026-03-25T11:07:42.36Z</time></trkpt><trkpt lat="45.5322024" lon="9.4214206"><ele>130.0</ele><time>2026-03-25T11:07:43.362Z</time></trkpt><trkpt lat="45.5322868" lon="9.4215346"><ele>130.0</ele><time>2026-03-25T11:07:44.362Z</time></trkpt><trkpt lat="45.5323713" lon="9.4216502"><ele>130.0</ele><time>2026-03-25T11:07:45.361Z</time></trkpt><trkpt lat="45.5324619" lon="9.421761"><ele>130.0</ele><time>2026-03-25T11:07:46.361Z</time></trkpt><trkpt lat="45.5325459" lon="9.4218738"><ele>130.0</ele><time>2026-03-25T11:07:47.362Z</time></trkpt><trkpt lat="45.5326294" lon="9.4219889"><ele>130.0</ele><time>2026-03-25T11:07:48.36Z</time></trkpt><trkpt lat="45.5327098" lon="9.4221029"><ele>130.0</ele><time>2026-03-25T11:07:49.361Z</time></trkpt><trkpt lat="45.5327944" lon="9.4222169"><ele>130.0</ele><time>2026-03-25T11:07:50.362Z</time></trkpt><trkpt lat="45.5328799" lon="9.4223336"><ele>130.0</ele><time>2026-03-25T11:07:51.363Z</time></trkpt><trkpt lat="45.5329655" lon="9.422451"><ele>130.0</ele><time>2026-03-25T11:07:52.362Z</time></trkpt><trkpt lat="45.5330482" lon="9.4225675"><ele>130.0</ele><time>2026-03-25T11:07:53.361Z</time></trkpt><trkpt lat="45.5331344" lon="9.4226838"><ele>130.0</ele><time>2026-03-25T11:07:54.362Z</time></trkpt><trkpt lat="45.5332174" lon="9.4227956"><ele>130.0</ele><time>2026-03-25T11:07:55.36Z</time></trkpt><trkpt lat="45.5333036" lon="9.422909"><ele>130.0</ele><time>2026-03-25T11:07:56.362Z</time></trkpt><trkpt lat="45.5333847" lon="9.4230219"><ele>130.0</ele><time>2026-03-25T11:07:57.361Z</time></trkpt><trkpt lat="45.5334674" lon="9.4231351"><ele>130.0</ele><time>2026-03-25T11:07:58.361Z</time></trkpt><trkpt lat="45.5335529" lon="9.4232502"><ele>130.0</ele><time>2026-03-25T11:07:59.362Z</time></trkpt><trkpt lat="45.5336364" lon="9.4233667"><ele>130.0</ele><time>2026-03-25T11:08:00.361Z</time></trkpt><trkpt lat="45.5337232" lon="9.4234788"><ele>130.0</ele><time>2026-03-25T11:08:01.36Z</time></trkpt><trkpt lat="45.5338063" lon="9.4235908"><ele>130.0</ele><time>2026-03-25T11:08:02.361Z</time></trkpt><trkpt lat="45.53389" lon="9.4237015"><ele>130.0</ele><time>2026-03-25T11:08:03.361Z</time></trkpt><trkpt lat="45.5339737" lon="9.4238114"><ele>130.0</ele><time>2026-03-25T11:08:04.361Z</time></trkpt><trkpt lat="45.5340565" lon="9.423919"><ele>130.0</ele><time>2026-03-25T11:08:05.363Z</time></trkpt><trkpt lat="45.5341379" lon="9.4240272"><ele>130.0</ele><time>2026-03-25T11:08:06.361Z</time></trkpt><trkpt lat="45.5342236" lon="9.4241306"><ele>130.0</ele><time>2026-03-25T11:08:07.362Z</time></trkpt><trkpt lat="45.534308" lon="9.4242285"><ele>130.0</ele><time>2026-03-25T11:08:08.362Z</time></trkpt><trkpt lat="45.5343929" lon="9.4243238"><ele>130.0</ele><time>2026-03-25T11:08:09.363Z</time></trkpt><trkpt lat="45.5344782" lon="9.4244172"><ele>130.0</ele><time>2026-03-25T11:08:10.361Z</time></trkpt><trkpt lat="45.5345667" lon="9.4245111"><ele>130.0</ele><time>2026-03-25T11:08:11.362Z</time></trkpt><trkpt lat="45.5346527" lon="9.4245984"><ele>130.0</ele><time>2026-03-25T11:08:12.362Z</time></trkpt><trkpt lat="45.5347372" lon="9.424687"><ele>130.0</ele><time>2026-03-25T11:08:13.362Z</time></trkpt><trkpt lat="45.5348239" lon="9.4247738"><ele>130.0</ele><time>2026-03-25T11:08:14.361Z</time></trkpt><trkpt lat="45.5349141" lon="9.4248593"><ele>130.0</ele><time>2026-03-25T11:08:15.361Z</time></trkpt><trkpt lat="45.5350051" lon="9.4249474"><ele>130.4</ele><time>2026-03-25T11:08:16.361Z</time></trkpt><trkpt lat="45.5350966" lon="9.4250321"><ele>130.8</ele><time>2026-03-25T11:08:17.361Z</time></trkpt><trkpt lat="45.5351852" lon="9.4251149"><ele>131.2</ele><time>2026-03-25T11:08:18.361Z</time></trkpt><trkpt lat="45.5352774" lon="9.4251946"><ele>131.6</ele><time>2026-03-25T11:08:19.362Z</time></trkpt><trkpt lat="45.5353691" lon="9.425274"><ele>132.0</ele><time>2026-03-25T11:08:20.361Z</time></trkpt><trkpt lat="45.5354664" lon="9.4253502"><ele>132.0</ele><time>2026-03-25T11:08:21.361Z</time></trkpt><trkpt lat="45.5355607" lon="9.4254305"><ele>132.0</ele><time>2026-03-25T11:08:22.361Z</time></trkpt><trkpt lat="45.5356542" lon="9.4255106"><ele>132.0</ele><time>2026-03-25T11:08:23.36Z</time></trkpt><trkpt lat="45.5357492" lon="9.4255904"><ele>132.0</ele><time>2026-03-25T11:08:24.362Z</time></trkpt><trkpt lat="45.5358467" lon="9.4256705"><ele>132.0</ele><time>2026-03-25T11:08:25.362Z</time></trkpt><trkpt lat="45.5359431" lon="9.42575"><ele>132.0</ele><time>2026-03-25T11:08:26.361Z</time></trkpt><trkpt lat="45.5360409" lon="9.4258316"><ele>132.0</ele><time>2026-03-25T11:08:27.361Z</time></trkpt><trkpt lat="45.5361369" lon="9.425914"><ele>132.0</ele><time>2026-03-25T11:08:28.362Z</time></trkpt><trkpt lat="45.5362355" lon="9.4259952"><ele>132.0</ele><time>2026-03-25T11:08:29.361Z</time></trkpt><trkpt lat="45.5363324" lon="9.4260744"><ele>132.0</ele><time>2026-03-25T11:08:30.361Z</time></trkpt><trkpt lat="45.53643" lon="9.4261511"><ele>132.0</ele><time>2026-03-25T11:08:31.361Z</time></trkpt><trkpt lat="45.5365325" lon="9.4262318"><ele>132.0</ele><time>2026-03-25T11:08:32.36Z</time></trkpt><trkpt lat="45.5366301" lon="9.4263112"><ele>132.0</ele><time>2026-03-25T11:08:33.362Z</time></trkpt><trkpt lat="45.5367268" lon="9.4263949"><ele>131.75</ele><time>2026-03-25T11:08:34.36Z</time></trkpt><trkpt lat="45.5368281" lon="9.4264774"><ele>131.5</ele><time>2026-03-25T11:08:35.362Z</time></trkpt><trkpt lat="45.5369277" lon="9.4265619"><ele>131.25</ele><time>2026-03-25T11:08:36.362Z</time></trkpt><trkpt lat="45.5370291" lon="9.4266413"><ele>131.0</ele><time>2026-03-25T11:08:37.361Z</time></trkpt><trkpt lat="45.5371324" lon="9.4267234"><ele>131.5</ele><time>2026-03-25T11:08:38.36Z</time></trkpt><trkpt lat="45.5372307" lon="9.4268037"><ele>132.0</ele><time>2026-03-25T11:08:39.362Z</time></trkpt><trkpt lat="45.53733" lon="9.4268868"><ele>132.5</ele><time>2026-03-25T11:08:40.363Z</time></trkpt><trkpt lat="45.5374294" lon="9.4269762"><ele>133.0</ele><time>2026-03-25T11:08:41.362Z</time></trkpt><trkpt lat="45.5375286" lon="9.4270664"><ele>132.75</ele><time>2026-03-25T11:08:42.361Z</time></trkpt><trkpt lat="45.5376215" lon="9.4271624"><ele>132.5</ele><time>2026-03-25T11:08:43.362Z</time></trkpt><trkpt lat="45.5377111" lon="9.4272631"><ele>132.25</ele><time>2026-03-25T11:08:44.362Z</time></trkpt><trkpt lat="45.5378006" lon="9.427369"><ele>132.0</ele><time>2026-03-25T11:08:45.363Z</time></trkpt><trkpt lat="45.5378912" lon="9.4274775"><ele>132.0</ele><time>2026-03-25T11:08:46.362Z</time></trkpt><trkpt lat="45.5379789" lon="9.4275858"><ele>132.0</ele><time>2026-03-25T11:08:47.36Z</time></trkpt><trkpt lat="45.5380645" lon="9.4276917"><ele>132.0</ele><time>2026-03-25T11:08:48.361Z</time></trkpt><trkpt lat="45.5381508" lon="9.427798"><ele>132.0</ele><time>2026-03-25T11:08:49.361Z</time></trkpt><trkpt lat="45.5382342" lon="9.4279052"><ele>132.2</ele><time>2026-03-25T11:08:50.362Z</time></trkpt><trkpt lat="45.5383194" lon="9.4280136"><ele>132.39999999999998</ele><time>2026-03-25T11:08:51.36Z</time></trkpt><trkpt lat="45.538405" lon="9.4281237"><ele>132.60000000000002</ele><time>2026-03-25T11:08:52.362Z</time></trkpt><trkpt lat="45.5384878" lon="9.4282298"><ele>132.8</ele><time>2026-03-25T11:08:53.361Z</time></trkpt><trkpt lat="45.5385692" lon="9.4283291"><ele>133.0</ele><time>2026-03-25T11:08:54.361Z</time></trkpt><trkpt lat="45.53865" lon="9.428423"><ele>132.5</ele><time>2026-03-25T11:08:55.362Z</time></trkpt><trkpt lat="45.5387231" lon="9.4285189"><ele>132.0</ele><time>2026-03-25T11:08:56.362Z</time></trkpt><trkpt lat="45.5387942" lon="9.4286074"><ele>131.5</ele><time>2026-03-25T11:08:57.362Z</time></trkpt><trkpt lat="45.5388588" lon="9.4286901"><ele>131.0</ele><time>2026-03-25T11:08:58.361Z</time></trkpt><trkpt lat="45.5389184" lon="9.4287673"><ele>130.5</ele><time>2026-03-25T11:08:59.362Z</time></trkpt><trkpt lat="45.538974" lon="9.4288389"><ele>130.0</ele><time>2026-03-25T11:09:00.361Z</time></trkpt><trkpt lat="45.5390221" lon="9.4289047"><ele>130.0</ele><time>2026-03-25T11:09:01.36Z</time></trkpt><trkpt lat="45.5391038" lon="9.429031"><ele>130.0</ele><time>2026-03-25T11:09:03.361Z</time></trkpt><trkpt lat="45.5391733" lon="9.4291682"><ele>130.0</ele><time>2026-03-25T11:09:05.362Z</time></trkpt><trkpt lat="45.539201" lon="9.4292512"><ele>130.0</ele><time>2026-03-25T11:09:06.362Z</time></trkpt><trkpt lat="45.5392162" lon="9.4293448"><ele>130.0</ele><time>2026-03-25T11:09:07.361Z</time></trkpt><trkpt lat="45.5392347" lon="9.4294506"><ele>130.0</ele><time>2026-03-25T11:09:08.362Z</time></trkpt><trkpt lat="45.5392699" lon="9.4295543"><ele>130.2857142857143</ele><time>2026-03-25T11:09:09.363Z</time></trkpt><trkpt lat="45.5393144" lon="9.4296425"><ele>130.57142857142858</ele><time>2026-03-25T11:09:10.361Z</time></trkpt><trkpt lat="45.5393529" lon="9.429725"><ele>130.85714285714286</ele><time>2026-03-25T11:09:11.362Z</time></trkpt><trkpt lat="45.5393759" lon="9.4298153"><ele>131.14285714285717</ele><time>2026-03-25T11:09:12.361Z</time></trkpt><trkpt lat="45.539385" lon="9.4299187"><ele>131.42857142857144</ele><time>2026-03-25T11:09:13.361Z</time></trkpt><trkpt lat="45.5393956" lon="9.4300291"><ele>131.71428571428572</ele><time>2026-03-25T11:09:14.361Z</time></trkpt><trkpt lat="45.5394126" lon="9.4301422"><ele>132.0</ele><time>2026-03-25T11:09:15.363Z</time></trkpt><trkpt lat="45.5394364" lon="9.4302553"><ele>132.0</ele><time>2026-03-25T11:09:16.362Z</time></trkpt><trkpt lat="45.53947" lon="9.4303717"><ele>132.0</ele><time>2026-03-25T11:09:17.36Z</time></trkpt><trkpt lat="45.5395084" lon="9.4304876"><ele>132.0</ele><time>2026-03-25T11:09:18.362Z</time></trkpt><trkpt lat="45.5395533" lon="9.4306009"><ele>132.0</ele><time>2026-03-25T11:09:19.363Z</time></trkpt><trkpt lat="45.5395977" lon="9.4307212"><ele>132.0</ele><time>2026-03-25T11:09:20.36Z</time></trkpt><trkpt lat="45.5396466" lon="9.4308456"><ele>131.79999999999998</ele><time>2026-03-25T11:09:21.362Z</time></trkpt><trkpt lat="45.5396969" lon="9.4309786"><ele>131.6</ele><time>2026-03-25T11:09:22.362Z</time></trkpt><trkpt lat="45.5397474" lon="9.431113"><ele>131.39999999999998</ele><time>2026-03-25T11:09:23.362Z</time></trkpt><trkpt lat="45.5397992" lon="9.4312532"><ele>131.2</ele><time>2026-03-25T11:09:24.362Z</time></trkpt><trkpt lat="45.5398485" lon="9.4313962"><ele>131.0</ele><time>2026-03-25T11:09:25.362Z</time></trkpt><trkpt lat="45.5399011" lon="9.4315354"><ele>131.0</ele><time>2026-03-25T11:09:26.362Z</time></trkpt><trkpt lat="45.5399531" lon="9.4316781"><ele>131.0</ele><time>2026-03-25T11:09:27.362Z</time></trkpt><trkpt lat="45.5400055" lon="9.431823"><ele>131.0</ele><time>2026-03-25T11:09:28.361Z</time></trkpt><trkpt lat="45.5400599" lon="9.4319658"><ele>131.0</ele><time>2026-03-25T11:09:29.362Z</time></trkpt><trkpt lat="45.5401155" lon="9.4321095"><ele>131.0</ele><time>2026-03-25T11:09:30.363Z</time></trkpt><trkpt lat="45.5401712" lon="9.4322573"><ele>131.0</ele><time>2026-03-25T11:09:31.362Z</time></trkpt><trkpt lat="45.5402288" lon="9.4324043"><ele>131.0</ele><time>2026-03-25T11:09:32.362Z</time></trkpt><trkpt lat="45.5402843" lon="9.4325501"><ele>131.0</ele><time>2026-03-25T11:09:33.362Z</time></trkpt><trkpt lat="45.5403354" lon="9.4326923"><ele>131.25</ele><time>2026-03-25T11:09:34.363Z</time></trkpt><trkpt lat="45.5403879" lon="9.4328385"><ele>131.5</ele><time>2026-03-25T11:09:35.361Z</time></trkpt><trkpt lat="45.5404417" lon="9.4329841"><ele>131.75</ele><time>2026-03-25T11:09:36.362Z</time></trkpt><trkpt lat="45.5404972" lon="9.4331317"><ele>132.0</ele><time>2026-03-25T11:09:37.362Z</time></trkpt><trkpt lat="45.540549" lon="9.4332809"><ele>131.5</ele><time>2026-03-25T11:09:38.362Z</time></trkpt><trkpt lat="45.5406068" lon="9.4334315"><ele>131.0</ele><time>2026-03-25T11:09:39.361Z</time></trkpt><trkpt lat="45.5406609" lon="9.4335814"><ele>130.5</ele><time>2026-03-25T11:09:40.362Z</time></trkpt><trkpt lat="45.5407152" lon="9.4337324"><ele>130.0</ele><time>2026-03-25T11:09:41.363Z</time></trkpt><trkpt lat="45.540771" lon="9.4338801"><ele>130.0</ele><time>2026-03-25T11:09:42.361Z</time></trkpt><trkpt lat="45.5408274" lon="9.4340276"><ele>130.0</ele><time>2026-03-25T11:09:43.362Z</time></trkpt><trkpt lat="45.5408813" lon="9.4341746"><ele>130.0</ele><time>2026-03-25T11:09:44.362Z</time></trkpt><trkpt lat="45.540933" lon="9.434324"><ele>130.0</ele><time>2026-03-25T11:09:45.362Z</time></trkpt><trkpt lat="45.5409871" lon="9.4344751"><ele>130.0</ele><time>2026-03-25T11:09:46.362Z</time></trkpt><trkpt lat="45.5410409" lon="9.434625"><ele>130.0</ele><time>2026-03-25T11:09:47.362Z</time></trkpt><trkpt lat="45.5410933" lon="9.4347687"><ele>130.0</ele><time>2026-03-25T11:09:48.362Z</time></trkpt><trkpt lat="45.5411489" lon="9.4349141"><ele>130.0</ele><time>2026-03-25T11:09:49.362Z</time></trkpt><trkpt lat="45.5412022" lon="9.4350627"><ele>130.25</ele><time>2026-03-25T11:09:50.36Z</time></trkpt><trkpt lat="45.5412535" lon="9.4352108"><ele>130.5</ele><time>2026-03-25T11:09:51.36Z</time></trkpt><trkpt lat="45.5413045" lon="9.435362"><ele>130.75</ele><time>2026-03-25T11:09:52.362Z</time></trkpt><trkpt lat="45.5413579" lon="9.4355102"><ele>131.0</ele><time>2026-03-25T11:09:53.362Z</time></trkpt><trkpt lat="45.5414155" lon="9.435657"><ele>131.5</ele><time>2026-03-25T11:09:54.362Z</time></trkpt><trkpt lat="45.54147" lon="9.4358066"><ele>132.0</ele><time>2026-03-25T11:09:55.361Z</time></trkpt><trkpt lat="45.5415271" lon="9.4359559"><ele>132.5</ele><time>2026-03-25T11:09:56.361Z</time></trkpt><trkpt lat="45.5415822" lon="9.4361017"><ele>133.0</ele><time>2026-03-25T11:09:57.361Z</time></trkpt><trkpt lat="45.5416367" lon="9.436251"><ele>133.0</ele><time>2026-03-25T11:09:58.362Z</time></trkpt><trkpt lat="45.5416939" lon="9.4364003"><ele>133.0</ele><time>2026-03-25T11:09:59.362Z</time></trkpt><trkpt lat="45.5417483" lon="9.4365446"><ele>133.0</ele><time>2026-03-25T11:10:00.36Z</time></trkpt><trkpt lat="45.541799" lon="9.4366807"><ele>133.0</ele><time>2026-03-25T11:10:01.361Z</time></trkpt><trkpt lat="45.5418494" lon="9.4368125"><ele>133.0</ele><time>2026-03-25T11:10:02.361Z</time></trkpt><trkpt lat="45.5418968" lon="9.4369358"><ele>133.0</ele><time>2026-03-25T11:10:03.361Z</time></trkpt><trkpt lat="45.5419392" lon="9.4370533"><ele>133.0</ele><time>2026-03-25T11:10:04.362Z</time></trkpt><trkpt lat="45.5419852" lon="9.43717"><ele>133.0</ele><time>2026-03-25T11:10:05.362Z</time></trkpt><trkpt lat="45.5420285" lon="9.4372829"><ele>133.0</ele><time>2026-03-25T11:10:06.362Z</time></trkpt><trkpt lat="45.5420727" lon="9.4373957"><ele>133.0</ele><time>2026-03-25T11:10:07.362Z</time></trkpt><trkpt lat="45.542124" lon="9.4374965"><ele>133.0</ele><time>2026-03-25T11:10:08.361Z</time></trkpt><trkpt lat="45.5421744" lon="9.4375874"><ele>133.0</ele><time>2026-03-25T11:10:09.362Z</time></trkpt><trkpt lat="45.5422217" lon="9.43767"><ele>133.0</ele><time>2026-03-25T11:10:10.361Z</time></trkpt><trkpt lat="45.542267" lon="9.4377491"><ele>133.0</ele><time>2026-03-25T11:10:11.36Z</time></trkpt><trkpt lat="45.5423068" lon="9.4378283"><ele>133.0</ele><time>2026-03-25T11:10:12.362Z</time></trkpt><trkpt lat="45.5423394" lon="9.4379136"><ele>133.0</ele><time>2026-03-25T11:10:13.362Z</time></trkpt><trkpt lat="45.5423566" lon="9.4380154"><ele>133.0</ele><time>2026-03-25T11:10:14.361Z</time></trkpt><trkpt lat="45.5423746" lon="9.438124"><ele>133.0</ele><time>2026-03-25T11:10:15.362Z</time></trkpt><trkpt lat="45.5423974" lon="9.4382367"><ele>133.0</ele><time>2026-03-25T11:10:16.36Z</time></trkpt><trkpt lat="45.5424191" lon="9.43836"><ele>133.0</ele><time>2026-03-25T11:10:17.36Z</time></trkpt><trkpt lat="45.5424374" lon="9.4384907"><ele>133.0</ele><time>2026-03-25T11:10:18.361Z</time></trkpt><trkpt lat="45.5424602" lon="9.4386248"><ele>133.0</ele><time>2026-03-25T11:10:19.36Z</time></trkpt><trkpt lat="45.5424904" lon="9.4387574"><ele>133.0</ele><time>2026-03-25T11:10:20.362Z</time></trkpt><trkpt lat="45.542533" lon="9.4388929"><ele>133.0</ele><time>2026-03-25T11:10:21.362Z</time></trkpt><trkpt lat="45.5425791" lon="9.439024"><ele>133.0</ele><time>2026-03-25T11:10:22.361Z</time></trkpt><trkpt lat="45.5426277" lon="9.4391515"><ele>133.0</ele><time>2026-03-25T11:10:23.362Z</time></trkpt><trkpt lat="45.5426776" lon="9.4392768"><ele>133.0</ele><time>2026-03-25T11:10:24.362Z</time></trkpt><trkpt lat="45.5427306" lon="9.4394029"><ele>133.0</ele><time>2026-03-25T11:10:25.36Z</time></trkpt><trkpt lat="45.5427828" lon="9.4395268"><ele>133.0</ele><time>2026-03-25T11:10:26.363Z</time></trkpt><trkpt lat="45.5428321" lon="9.4396473"><ele>133.0</ele><time>2026-03-25T11:10:27.361Z</time></trkpt><trkpt lat="45.5428815" lon="9.4397719"><ele>133.0</ele><time>2026-03-25T11:10:28.361Z</time></trkpt><trkpt lat="45.5429296" lon="9.4398945"><ele>133.0</ele><time>2026-03-25T11:10:29.361Z</time></trkpt><trkpt lat="45.5429706" lon="9.4400105"><ele>133.0</ele><time>2026-03-25T11:10:30.36Z</time></trkpt><trkpt lat="45.5430156" lon="9.4401233"><ele>133.0</ele><time>2026-03-25T11:10:31.362Z</time></trkpt><trkpt lat="45.5430599" lon="9.4402299"><ele>133.0</ele><time>2026-03-25T11:10:32.361Z</time></trkpt><trkpt lat="45.543099" lon="9.4403329"><ele>133.0</ele><time>2026-03-25T11:10:33.362Z</time></trkpt><trkpt lat="45.5431306" lon="9.4404356"><ele>133.0</ele><time>2026-03-25T11:10:34.363Z</time></trkpt><trkpt lat="45.5431571" lon="9.4405379"><ele>133.0</ele><time>2026-03-25T11:10:35.362Z</time></trkpt><trkpt lat="45.5431767" lon="9.440642"><ele>133.0</ele><time>2026-03-25T11:10:36.362Z</time></trkpt><trkpt lat="45.5431956" lon="9.4407475"><ele>133.0</ele><time>2026-03-25T11:10:37.361Z</time></trkpt><trkpt lat="45.5432192" lon="9.4408543"><ele>133.0</ele><time>2026-03-25T11:10:38.36Z</time></trkpt><trkpt lat="45.5432502" lon="9.4409675"><ele>133.0</ele><time>2026-03-25T11:10:39.362Z</time></trkpt><trkpt lat="45.5432811" lon="9.4410868"><ele>133.0</ele><time>2026-03-25T11:10:40.362Z</time></trkpt><trkpt lat="45.5433119" lon="9.4412123"><ele>133.0</ele><time>2026-03-25T11:10:41.362Z</time></trkpt><trkpt lat="45.5433493" lon="9.4413405"><ele>133.0</ele><time>2026-03-25T11:10:42.362Z</time></trkpt><trkpt lat="45.5433933" lon="9.4414617"><ele>133.0</ele><time>2026-03-25T11:10:43.362Z</time></trkpt><trkpt lat="45.5434394" lon="9.4415821"><ele>133.0</ele><time>2026-03-25T11:10:44.361Z</time></trkpt><trkpt lat="45.5434848" lon="9.4416973"><ele>133.0</ele><time>2026-03-25T11:10:45.362Z</time></trkpt><trkpt lat="45.5435232" lon="9.4417988"><ele>133.0</ele><time>2026-03-25T11:10:46.362Z</time></trkpt><trkpt lat="45.5435646" lon="9.4418989"><ele>133.0</ele><time>2026-03-25T11:10:47.362Z</time></trkpt><trkpt lat="45.5436074" lon="9.4419994"><ele>133.0</ele><time>2026-03-25T11:10:48.362Z</time></trkpt><trkpt lat="45.5436461" lon="9.4420956"><ele>133.0</ele><time>2026-03-25T11:10:49.362Z</time></trkpt><trkpt lat="45.5436817" lon="9.4421874"><ele>133.0</ele><time>2026-03-25T11:10:50.361Z</time></trkpt><trkpt lat="45.5437182" lon="9.4422724"><ele>133.0</ele><time>2026-03-25T11:10:51.362Z</time></trkpt><trkpt lat="45.543776" lon="9.4424294"><ele>133.0</ele><time>2026-03-25T11:10:53.361Z</time></trkpt><trkpt lat="45.5438236" lon="9.4425717"><ele>133.16666666666669</ele><time>2026-03-25T11:10:55.361Z</time></trkpt><trkpt lat="45.5438745" lon="9.4427246"><ele>133.33333333333334</ele><time>2026-03-25T11:10:57.362Z</time></trkpt><trkpt lat="45.5439042" lon="9.442812"><ele>133.5</ele><time>2026-03-25T11:10:58.361Z</time></trkpt><trkpt lat="45.5439343" lon="9.4428963"><ele>133.66666666666666</ele><time>2026-03-25T11:10:59.363Z</time></trkpt><trkpt lat="45.5439886" lon="9.4430558"><ele>133.83333333333331</ele><time>2026-03-25T11:11:01.361Z</time></trkpt><trkpt lat="45.5440165" lon="9.4431377"><ele>134.0</ele><time>2026-03-25T11:11:02.362Z</time></trkpt><trkpt lat="45.5440473" lon="9.4432165"><ele>134.0</ele><time>2026-03-25T11:11:03.362Z</time></trkpt><trkpt lat="45.5441008" lon="9.4433634"><ele>134.0</ele><time>2026-03-25T11:11:05.363Z</time></trkpt><trkpt lat="45.5441297" lon="9.4434463"><ele>134.0</ele><time>2026-03-25T11:11:06.361Z</time></trkpt><trkpt lat="45.5441561" lon="9.4435387"><ele>134.0</ele><time>2026-03-25T11:11:07.361Z</time></trkpt><trkpt lat="45.5441832" lon="9.4436339"><ele>134.0</ele><time>2026-03-25T11:11:08.362Z</time></trkpt><trkpt lat="45.5442107" lon="9.4437275"><ele>134.0</ele><time>2026-03-25T11:11:09.362Z</time></trkpt><trkpt lat="45.5442372" lon="9.4438312"><ele>134.16666666666666</ele><time>2026-03-25T11:11:10.362Z</time></trkpt><trkpt lat="45.5442656" lon="9.4439439"><ele>134.33333333333331</ele><time>2026-03-25T11:11:11.362Z</time></trkpt><trkpt lat="45.5442945" lon="9.4440548"><ele>134.5</ele><time>2026-03-25T11:11:12.362Z</time></trkpt><trkpt lat="45.5443223" lon="9.4441636"><ele>134.66666666666666</ele><time>2026-03-25T11:11:13.362Z</time></trkpt><trkpt lat="45.5443564" lon="9.4442838"><ele>134.83333333333334</ele><time>2026-03-25T11:11:14.363Z</time></trkpt><trkpt lat="45.5443888" lon="9.4444027"><ele>135.0</ele><time>2026-03-25T11:11:15.361Z</time></trkpt><trkpt lat="45.5444195" lon="9.4445185"><ele>135.0</ele><time>2026-03-25T11:11:16.36Z</time></trkpt><trkpt lat="45.5444559" lon="9.4446363"><ele>135.0</ele><time>2026-03-25T11:11:17.362Z</time></trkpt><trkpt lat="45.5444965" lon="9.4447563"><ele>135.0</ele><time>2026-03-25T11:11:18.362Z</time></trkpt><trkpt lat="45.5445417" lon="9.4448728"><ele>135.0</ele><time>2026-03-25T11:11:19.362Z</time></trkpt><trkpt lat="45.5445857" lon="9.4449933"><ele>135.0</ele><time>2026-03-25T11:11:20.363Z</time></trkpt><trkpt lat="45.544628" lon="9.4451158"><ele>135.0</ele><time>2026-03-25T11:11:21.361Z</time></trkpt><trkpt lat="45.5446687" lon="9.4452393"><ele>135.0</ele><time>2026-03-25T11:11:22.362Z</time></trkpt><trkpt lat="45.5447108" lon="9.4453578"><ele>135.0</ele><time>2026-03-25T11:11:23.363Z</time></trkpt><trkpt lat="45.5447536" lon="9.445481"><ele>135.0</ele><time>2026-03-25T11:11:24.362Z</time></trkpt><trkpt lat="45.5447981" lon="9.445604"><ele>135.0</ele><time>2026-03-25T11:11:25.361Z</time></trkpt><trkpt lat="45.5448397" lon="9.4457231"><ele>135.0</ele><time>2026-03-25T11:11:26.362Z</time></trkpt><trkpt lat="45.5448837" lon="9.4458457"><ele>135.0</ele><time>2026-03-25T11:11:27.361Z</time></trkpt><trkpt lat="45.5449296" lon="9.445966"><ele>135.0</ele><time>2026-03-25T11:11:28.362Z</time></trkpt><trkpt lat="45.5449751" lon="9.4460812"><ele>135.0</ele><time>2026-03-25T11:11:29.361Z</time></trkpt><trkpt lat="45.545018" lon="9.4461998"><ele>135.0</ele><time>2026-03-25T11:11:30.361Z</time></trkpt><trkpt lat="45.5450638" lon="9.4463181"><ele>135.4</ele><time>2026-03-25T11:11:31.363Z</time></trkpt><trkpt lat="45.5451107" lon="9.4464307"><ele>135.8</ele><time>2026-03-25T11:11:32.362Z</time></trkpt><trkpt lat="45.5451553" lon="9.4465424"><ele>136.2</ele><time>2026-03-25T11:11:33.362Z</time></trkpt><trkpt lat="45.5451943" lon="9.4466625"><ele>136.6</ele><time>2026-03-25T11:11:34.362Z</time></trkpt><trkpt lat="45.5452304" lon="9.4467855"><ele>137.0</ele><time>2026-03-25T11:11:35.362Z</time></trkpt><trkpt lat="45.5452706" lon="9.4469135"><ele>137.0</ele><time>2026-03-25T11:11:36.362Z</time></trkpt><trkpt lat="45.5453145" lon="9.4470398"><ele>137.0</ele><time>2026-03-25T11:11:37.362Z</time></trkpt><trkpt lat="45.5453586" lon="9.4471643"><ele>137.0</ele><time>2026-03-25T11:11:38.363Z</time></trkpt><trkpt lat="45.545398" lon="9.4472954"><ele>137.0</ele><time>2026-03-25T11:11:39.362Z</time></trkpt><trkpt lat="45.5454403" lon="9.4474234"><ele>137.0</ele><time>2026-03-25T11:11:40.362Z</time></trkpt><trkpt lat="45.5454875" lon="9.4475525"><ele>137.0</ele><time>2026-03-25T11:11:41.36Z</time></trkpt><trkpt lat="45.5455334" lon="9.4476879"><ele>137.0</ele><time>2026-03-25T11:11:42.362Z</time></trkpt><trkpt lat="45.5455809" lon="9.4478145"><ele>137.0</ele><time>2026-03-25T11:11:43.361Z</time></trkpt><trkpt lat="45.5456283" lon="9.4479413"><ele>137.0</ele><time>2026-03-25T11:11:44.361Z</time></trkpt><trkpt lat="45.5456766" lon="9.4480707"><ele>137.0</ele><time>2026-03-25T11:11:45.361Z</time></trkpt><trkpt lat="45.5457246" lon="9.4482014"><ele>137.0</ele><time>2026-03-25T11:11:46.361Z</time></trkpt><trkpt lat="45.5457714" lon="9.4483314"><ele>137.0</ele><time>2026-03-25T11:11:47.362Z</time></trkpt><trkpt lat="45.5458222" lon="9.448463"><ele>137.0</ele><time>2026-03-25T11:11:48.362Z</time></trkpt><trkpt lat="45.5458723" lon="9.4486019"><ele>137.0</ele><time>2026-03-25T11:11:49.361Z</time></trkpt><trkpt lat="45.5459197" lon="9.4487316"><ele>137.0</ele><time>2026-03-25T11:11:50.363Z</time></trkpt><trkpt lat="45.5459671" lon="9.4488548"><ele>136.79999999999998</ele><time>2026-03-25T11:11:51.361Z</time></trkpt><trkpt lat="45.5460127" lon="9.4489765"><ele>136.6</ele><time>2026-03-25T11:11:52.361Z</time></trkpt><trkpt lat="45.546061" lon="9.4490953"><ele>136.39999999999998</ele><time>2026-03-25T11:11:53.361Z</time></trkpt><trkpt lat="45.5461108" lon="9.4492123"><ele>136.2</ele><time>2026-03-25T11:11:54.361Z</time></trkpt><trkpt lat="45.546158" lon="9.4493345"><ele>136.0</ele><time>2026-03-25T11:11:55.362Z</time></trkpt><trkpt lat="45.5462038" lon="9.4494589"><ele>135.8</ele><time>2026-03-25T11:11:56.361Z</time></trkpt><trkpt lat="45.5462487" lon="9.4495786"><ele>135.6</ele><time>2026-03-25T11:11:57.361Z</time></trkpt><trkpt lat="45.5462902" lon="9.4496947"><ele>135.4</ele><time>2026-03-25T11:11:58.362Z</time></trkpt><trkpt lat="45.5463301" lon="9.4498061"><ele>135.2</ele><time>2026-03-25T11:11:59.361Z</time></trkpt><trkpt lat="45.5463761" lon="9.4499168"><ele>135.0</ele><time>2026-03-25T11:12:00.362Z</time></trkpt><trkpt lat="45.546419" lon="9.4500328"><ele>134.8</ele><time>2026-03-25T11:12:01.362Z</time></trkpt><trkpt lat="45.5464641" lon="9.4501497"><ele>134.6</ele><time>2026-03-25T11:12:02.362Z</time></trkpt><trkpt lat="45.5465094" lon="9.4502675"><ele>134.4</ele><time>2026-03-25T11:12:03.363Z</time></trkpt><trkpt lat="45.5465561" lon="9.4503855"><ele>134.2</ele><time>2026-03-25T11:12:04.362Z</time></trkpt><trkpt lat="45.5466007" lon="9.4505058"><ele>134.0</ele><time>2026-03-25T11:12:05.362Z</time></trkpt><trkpt lat="45.546642" lon="9.4506243"><ele>133.83333333333331</ele><time>2026-03-25T11:12:06.362Z</time></trkpt><trkpt lat="45.5466823" lon="9.4507376"><ele>133.66666666666666</ele><time>2026-03-25T11:12:07.361Z</time></trkpt><trkpt lat="45.5467245" lon="9.4508422"><ele>133.5</ele><time>2026-03-25T11:12:08.362Z</time></trkpt><trkpt lat="45.5467612" lon="9.4509368"><ele>133.33333333333334</ele><time>2026-03-25T11:12:09.362Z</time></trkpt><trkpt lat="45.5467972" lon="9.4510228"><ele>133.16666666666669</ele><time>2026-03-25T11:12:10.362Z</time></trkpt><trkpt lat="45.5468277" lon="9.4511034"><ele>133.0</ele><time>2026-03-25T11:12:11.363Z</time></trkpt><trkpt lat="45.5468683" lon="9.45123"><ele>133.0</ele><time>2026-03-25T11:12:13.361Z</time></trkpt><trkpt lat="45.5468929" lon="9.4513291"><ele>133.0</ele><time>2026-03-25T11:12:16.362Z</time></trkpt><trkpt lat="45.5468946" lon="9.4514372"><ele>133.0</ele><time>2026-03-25T11:12:19.362Z</time></trkpt><trkpt lat="45.546895" lon="9.451532"><ele>133.0</ele><time>2026-03-25T11:12:21.362Z</time></trkpt><trkpt lat="45.5468901" lon="9.4516266"><ele>133.0</ele><time>2026-03-25T11:12:23.362Z</time></trkpt><trkpt lat="45.546852" lon="9.4517434"><ele>133.0</ele><time>2026-03-25T11:12:25.348Z</time></trkpt><trkpt lat="45.5468488" lon="9.4518351"><ele>133.0</ele><time>2026-03-25T11:12:26.361Z</time></trkpt><trkpt lat="45.546839" lon="9.4519302"><ele>133.0</ele><time>2026-03-25T11:12:27.361Z</time></trkpt><trkpt lat="45.546835" lon="9.4520326"><ele>133.0</ele><time>2026-03-25T11:12:28.362Z</time></trkpt><trkpt lat="45.5468388" lon="9.4521368"><ele>133.0</ele><time>2026-03-25T11:12:29.362Z</time></trkpt><trkpt lat="45.5468586" lon="9.4522385"><ele>133.0</ele><time>2026-03-25T11:12:30.361Z</time></trkpt><trkpt lat="45.5468839" lon="9.4523388"><ele>133.0</ele><time>2026-03-25T11:12:31.361Z</time></trkpt><trkpt lat="45.5469193" lon="9.4524282"><ele>133.0</ele><time>2026-03-25T11:12:32.362Z</time></trkpt><trkpt lat="45.5469658" lon="9.4525149"><ele>133.0</ele><time>2026-03-25T11:12:33.362Z</time></trkpt><trkpt lat="45.5470204" lon="9.4525947"><ele>133.0</ele><time>2026-03-25T11:12:34.361Z</time></trkpt><trkpt lat="45.5470777" lon="9.4526648"><ele>133.0</ele><time>2026-03-25T11:12:35.362Z</time></trkpt><trkpt lat="45.5471497" lon="9.4527166"><ele>133.0</ele><time>2026-03-25T11:12:36.361Z</time></trkpt><trkpt lat="45.547226" lon="9.4527532"><ele>133.0</ele><time>2026-03-25T11:12:37.362Z</time></trkpt><trkpt lat="45.5473033" lon="9.4527931"><ele>133.0</ele><time>2026-03-25T11:12:38.363Z</time></trkpt><trkpt lat="45.5473794" lon="9.4528423"><ele>133.0</ele><time>2026-03-25T11:12:39.362Z</time></trkpt><trkpt lat="45.5474385" lon="9.4529119"><ele>133.16666666666669</ele><time>2026-03-25T11:12:40.362Z</time></trkpt><trkpt lat="45.5474906" lon="9.4530027"><ele>133.33333333333334</ele><time>2026-03-25T11:12:41.363Z</time></trkpt><trkpt lat="45.5475417" lon="9.4531115"><ele>133.5</ele><time>2026-03-25T11:12:42.362Z</time></trkpt><trkpt lat="45.5475846" lon="9.4532227"><ele>133.66666666666666</ele><time>2026-03-25T11:12:43.361Z</time></trkpt><trkpt lat="45.5476239" lon="9.4533413"><ele>133.83333333333331</ele><time>2026-03-25T11:12:44.363Z</time></trkpt><trkpt lat="45.5476659" lon="9.4534599"><ele>134.0</ele><time>2026-03-25T11:12:45.362Z</time></trkpt><trkpt lat="45.547709" lon="9.453579"><ele>134.0</ele><time>2026-03-25T11:12:46.361Z</time></trkpt><trkpt lat="45.547754" lon="9.4537029"><ele>134.0</ele><time>2026-03-25T11:12:47.363Z</time></trkpt><trkpt lat="45.5477986" lon="9.4538241"><ele>134.0</ele><time>2026-03-25T11:12:48.362Z</time></trkpt><trkpt lat="45.5478445" lon="9.453948"><ele>134.0</ele><time>2026-03-25T11:12:49.361Z</time></trkpt><trkpt lat="45.5478873" lon="9.4540744"><ele>134.0</ele><time>2026-03-25T11:12:50.361Z</time></trkpt><trkpt lat="45.5479325" lon="9.4541964"><ele>134.2</ele><time>2026-03-25T11:12:51.363Z</time></trkpt><trkpt lat="45.5479797" lon="9.4543216"><ele>134.4</ele><time>2026-03-25T11:12:52.36Z</time></trkpt><trkpt lat="45.5480258" lon="9.4544506"><ele>134.6</ele><time>2026-03-25T11:12:53.362Z</time></trkpt><trkpt lat="45.5480706" lon="9.4545827"><ele>134.8</ele><time>2026-03-25T11:12:54.362Z</time></trkpt><trkpt lat="45.5481176" lon="9.4547144"><ele>135.0</ele><time>2026-03-25T11:12:55.362Z</time></trkpt><trkpt lat="45.5481664" lon="9.4548465"><ele>135.0</ele><time>2026-03-25T11:12:56.363Z</time></trkpt><trkpt lat="45.5482194" lon="9.4549786"><ele>135.0</ele><time>2026-03-25T11:12:57.361Z</time></trkpt><trkpt lat="45.5482698" lon="9.4551108"><ele>135.0</ele><time>2026-03-25T11:12:58.361Z</time></trkpt><trkpt lat="45.5483191" lon="9.4552428"><ele>135.0</ele><time>2026-03-25T11:12:59.363Z</time></trkpt><trkpt lat="45.5483696" lon="9.4553755"><ele>135.0</ele><time>2026-03-25T11:13:00.362Z</time></trkpt><trkpt lat="45.5484194" lon="9.4555074"><ele>135.2</ele><time>2026-03-25T11:13:01.361Z</time></trkpt><trkpt lat="45.5484689" lon="9.4556412"><ele>135.4</ele><time>2026-03-25T11:13:02.362Z</time></trkpt><trkpt lat="45.548517" lon="9.4557765"><ele>135.6</ele><time>2026-03-25T11:13:03.363Z</time></trkpt><trkpt lat="45.5485668" lon="9.4559176"><ele>135.8</ele><time>2026-03-25T11:13:04.362Z</time></trkpt><trkpt lat="45.5486183" lon="9.4560584"><ele>136.0</ele><time>2026-03-25T11:13:05.361Z</time></trkpt><trkpt lat="45.5486708" lon="9.4561998"><ele>136.2</ele><time>2026-03-25T11:13:06.362Z</time></trkpt><trkpt lat="45.5487223" lon="9.4563356"><ele>136.39999999999998</ele><time>2026-03-25T11:13:07.362Z</time></trkpt><trkpt lat="45.5487738" lon="9.4564727"><ele>136.6</ele><time>2026-03-25T11:13:08.362Z</time></trkpt><trkpt lat="45.5488245" lon="9.4566096"><ele>136.79999999999998</ele><time>2026-03-25T11:13:09.362Z</time></trkpt><trkpt lat="45.5488739" lon="9.4567478"><ele>137.0</ele><time>2026-03-25T11:13:10.361Z</time></trkpt><trkpt lat="45.5489244" lon="9.4568876"><ele>137.0</ele><time>2026-03-25T11:13:11.362Z</time></trkpt><trkpt lat="45.5489773" lon="9.4570234"><ele>137.0</ele><time>2026-03-25T11:13:12.362Z</time></trkpt><trkpt lat="45.5490293" lon="9.4571602"><ele>137.0</ele><time>2026-03-25T11:13:13.362Z</time></trkpt><trkpt lat="45.5490806" lon="9.4572958"><ele>137.0</ele><time>2026-03-25T11:13:14.362Z</time></trkpt><trkpt lat="45.5491298" lon="9.4574343"><ele>137.0</ele><time>2026-03-25T11:13:15.362Z</time></trkpt><trkpt lat="45.5491806" lon="9.457572"><ele>137.25</ele><time>2026-03-25T11:13:16.362Z</time></trkpt><trkpt lat="45.549232" lon="9.4577088"><ele>137.5</ele><time>2026-03-25T11:13:17.362Z</time></trkpt><trkpt lat="45.549287" lon="9.4578521"><ele>137.75</ele><time>2026-03-25T11:13:18.362Z</time></trkpt><trkpt lat="45.5493398" lon="9.4579933"><ele>138.0</ele><time>2026-03-25T11:13:19.362Z</time></trkpt><trkpt lat="45.5493938" lon="9.4581381"><ele>137.25</ele><time>2026-03-25T11:13:20.362Z</time></trkpt><trkpt lat="45.5494477" lon="9.4582816"><ele>136.5</ele><time>2026-03-25T11:13:21.363Z</time></trkpt><trkpt lat="45.5495032" lon="9.4584275"><ele>135.75</ele><time>2026-03-25T11:13:22.362Z</time></trkpt><trkpt lat="45.5495568" lon="9.4585698"><ele>135.0</ele><time>2026-03-25T11:13:23.362Z</time></trkpt><trkpt lat="45.5496095" lon="9.4587154"><ele>135.0</ele><time>2026-03-25T11:13:24.362Z</time></trkpt><trkpt lat="45.549665" lon="9.4588583"><ele>135.0</ele><time>2026-03-25T11:13:25.362Z</time></trkpt><trkpt lat="45.5497175" lon="9.4590023"><ele>135.0</ele><time>2026-03-25T11:13:26.361Z</time></trkpt><trkpt lat="45.5497711" lon="9.4591469"><ele>135.0</ele><time>2026-03-25T11:13:27.363Z</time></trkpt><trkpt lat="45.549828" lon="9.4592891"><ele>135.0</ele><time>2026-03-25T11:13:28.362Z</time></trkpt><trkpt lat="45.5498827" lon="9.4594313"><ele>135.0</ele><time>2026-03-25T11:13:29.362Z</time></trkpt><trkpt lat="45.549935" lon="9.4595746"><ele>135.0</ele><time>2026-03-25T11:13:30.362Z</time></trkpt><trkpt lat="45.5499897" lon="9.4597162"><ele>135.0</ele><time>2026-03-25T11:13:31.363Z</time></trkpt><trkpt lat="45.550043" lon="9.4598578"><ele>135.25</ele><time>2026-03-25T11:13:32.363Z</time></trkpt><trkpt lat="45.5500974" lon="9.4600033"><ele>135.5</ele><time>2026-03-25T11:13:33.362Z</time></trkpt><trkpt lat="45.5501526" lon="9.4601513"><ele>135.75</ele><time>2026-03-25T11:13:34.362Z</time></trkpt><trkpt lat="45.5502083" lon="9.4602959"><ele>136.0</ele><time>2026-03-25T11:13:35.361Z</time></trkpt><trkpt lat="45.5502623" lon="9.4604393"><ele>136.0</ele><time>2026-03-25T11:13:36.362Z</time></trkpt><trkpt lat="45.5503189" lon="9.4605874"><ele>136.0</ele><time>2026-03-25T11:13:37.362Z</time></trkpt><trkpt lat="45.5503742" lon="9.4607316"><ele>136.0</ele><time>2026-03-25T11:13:38.362Z</time></trkpt><trkpt lat="45.5504317" lon="9.4608776"><ele>136.0</ele><time>2026-03-25T11:13:39.362Z</time></trkpt><trkpt lat="45.5504882" lon="9.4610221"><ele>136.0</ele><time>2026-03-25T11:13:40.362Z</time></trkpt><trkpt lat="45.5505426" lon="9.461162"><ele>136.0</ele><time>2026-03-25T11:13:41.362Z</time></trkpt><trkpt lat="45.5505963" lon="9.461305"><ele>136.0</ele><time>2026-03-25T11:13:42.362Z</time></trkpt><trkpt lat="45.5506488" lon="9.4614502"><ele>136.0</ele><time>2026-03-25T11:13:43.362Z</time></trkpt><trkpt lat="45.5507023" lon="9.4615951"><ele>136.0</ele><time>2026-03-25T11:13:44.361Z</time></trkpt><trkpt lat="45.5507547" lon="9.4617408"><ele>136.0</ele><time>2026-03-25T11:13:45.363Z</time></trkpt><trkpt lat="45.5508095" lon="9.4618854"><ele>136.0</ele><time>2026-03-25T11:13:46.363Z</time></trkpt><trkpt lat="45.5508643" lon="9.4620293"><ele>136.0</ele><time>2026-03-25T11:13:47.361Z</time></trkpt><trkpt lat="45.5509172" lon="9.462175"><ele>136.5</ele><time>2026-03-25T11:13:48.363Z</time></trkpt><trkpt lat="45.5509718" lon="9.4623233"><ele>137.0</ele><time>2026-03-25T11:13:49.362Z</time></trkpt><trkpt lat="45.5510254" lon="9.4624677"><ele>137.5</ele><time>2026-03-25T11:13:50.362Z</time></trkpt><trkpt lat="45.5510791" lon="9.4626149"><ele>138.0</ele><time>2026-03-25T11:13:51.362Z</time></trkpt><trkpt lat="45.5511341" lon="9.462759"><ele>138.0</ele><time>2026-03-25T11:13:52.361Z</time></trkpt><trkpt lat="45.5511896" lon="9.462904"><ele>138.0</ele><time>2026-03-25T11:13:53.361Z</time></trkpt><trkpt lat="45.5512433" lon="9.4630478"><ele>138.0</ele><time>2026-03-25T11:13:54.361Z</time></trkpt><trkpt lat="45.5512972" lon="9.4631905"><ele>138.0</ele><time>2026-03-25T11:13:55.363Z</time></trkpt><trkpt lat="45.5513533" lon="9.4633329"><ele>138.0</ele><time>2026-03-25T11:13:56.363Z</time></trkpt><trkpt lat="45.5514054" lon="9.4634751"><ele>138.0</ele><time>2026-03-25T11:13:57.362Z</time></trkpt><trkpt lat="45.5514569" lon="9.4636176"><ele>138.0</ele><time>2026-03-25T11:13:58.36Z</time></trkpt><trkpt lat="45.5515109" lon="9.463761"><ele>138.0</ele><time>2026-03-25T11:13:59.362Z</time></trkpt><trkpt lat="45.5515658" lon="9.4639051"><ele>137.75</ele><time>2026-03-25T11:14:00.362Z</time></trkpt><trkpt lat="45.5516218" lon="9.4640532"><ele>137.5</ele><time>2026-03-25T11:14:01.362Z</time></trkpt><trkpt lat="45.5516758" lon="9.4641962"><ele>137.25</ele><time>2026-03-25T11:14:02.363Z</time></trkpt><trkpt lat="45.5517292" lon="9.4643371"><ele>137.0</ele><time>2026-03-25T11:14:03.361Z</time></trkpt><trkpt lat="45.5517853" lon="9.4644847"><ele>137.0</ele><time>2026-03-25T11:14:04.363Z</time></trkpt><trkpt lat="45.5518365" lon="9.464631"><ele>137.0</ele><time>2026-03-25T11:14:05.363Z</time></trkpt><trkpt lat="45.5518918" lon="9.4647763"><ele>137.0</ele><time>2026-03-25T11:14:06.361Z</time></trkpt><trkpt lat="45.5519464" lon="9.4649195"><ele>137.0</ele><time>2026-03-25T11:14:07.363Z</time></trkpt><trkpt lat="45.5519995" lon="9.4650621"><ele>137.25</ele><time>2026-03-25T11:14:08.362Z</time></trkpt><trkpt lat="45.5520522" lon="9.4652066"><ele>137.5</ele><time>2026-03-25T11:14:09.363Z</time></trkpt><trkpt lat="45.5521059" lon="9.4653463"><ele>137.75</ele><time>2026-03-25T11:14:10.362Z</time></trkpt><trkpt lat="45.5521587" lon="9.4654883"><ele>138.0</ele><time>2026-03-25T11:14:11.361Z</time></trkpt><trkpt lat="45.5522137" lon="9.4656329"><ele>138.25</ele><time>2026-03-25T11:14:12.361Z</time></trkpt><trkpt lat="45.5522629" lon="9.4657723"><ele>138.5</ele><time>2026-03-25T11:14:13.362Z</time></trkpt><trkpt lat="45.552311" lon="9.4659179"><ele>138.75</ele><time>2026-03-25T11:14:14.363Z</time></trkpt><trkpt lat="45.5523646" lon="9.4660646"><ele>139.0</ele><time>2026-03-25T11:14:15.362Z</time></trkpt><trkpt lat="45.5524196" lon="9.4662092"><ele>139.0</ele><time>2026-03-25T11:14:16.362Z</time></trkpt><trkpt lat="45.5524722" lon="9.4663561"><ele>139.0</ele><time>2026-03-25T11:14:17.361Z</time></trkpt><trkpt lat="45.5525276" lon="9.4665039"><ele>139.0</ele><time>2026-03-25T11:14:18.362Z</time></trkpt><trkpt lat="45.5525814" lon="9.4666487"><ele>139.0</ele><time>2026-03-25T11:14:19.362Z</time></trkpt><trkpt lat="45.5526381" lon="9.4668002"><ele>139.0</ele><time>2026-03-25T11:14:20.363Z</time></trkpt><trkpt lat="45.5526918" lon="9.4669484"><ele>139.0</ele><time>2026-03-25T11:14:21.361Z</time></trkpt><trkpt lat="45.5527453" lon="9.4670965"><ele>139.0</ele><time>2026-03-25T11:14:22.361Z</time></trkpt><trkpt lat="45.5528032" lon="9.4672441"><ele>139.0</ele><time>2026-03-25T11:14:23.362Z</time></trkpt><trkpt lat="45.5528592" lon="9.4673885"><ele>139.25</ele><time>2026-03-25T11:14:24.361Z</time></trkpt><trkpt lat="45.5529134" lon="9.4675327"><ele>139.5</ele><time>2026-03-25T11:14:25.361Z</time></trkpt><trkpt lat="45.5529685" lon="9.4676748"><ele>139.75</ele><time>2026-03-25T11:14:26.362Z</time></trkpt><trkpt lat="45.5530243" lon="9.4678157"><ele>140.0</ele><time>2026-03-25T11:14:27.363Z</time></trkpt><trkpt lat="45.5530819" lon="9.4679587"><ele>140.25</ele><time>2026-03-25T11:14:28.362Z</time></trkpt><trkpt lat="45.5531389" lon="9.468101"><ele>140.5</ele><time>2026-03-25T11:14:29.361Z</time></trkpt><trkpt lat="45.5531947" lon="9.4682454"><ele>140.75</ele><time>2026-03-25T11:14:30.363Z</time></trkpt><trkpt lat="45.5532491" lon="9.4683883"><ele>141.0</ele><time>2026-03-25T11:14:31.361Z</time></trkpt><trkpt lat="45.553303" lon="9.4685297"><ele>141.0</ele><time>2026-03-25T11:14:32.362Z</time></trkpt><trkpt lat="45.5533572" lon="9.4686721"><ele>141.0</ele><time>2026-03-25T11:14:33.361Z</time></trkpt><trkpt lat="45.5534143" lon="9.468812"><ele>141.0</ele><time>2026-03-25T11:14:34.362Z</time></trkpt><trkpt lat="45.5534704" lon="9.4689495"><ele>141.0</ele><time>2026-03-25T11:14:35.362Z</time></trkpt><trkpt lat="45.5535244" lon="9.4690937"><ele>140.5</ele><time>2026-03-25T11:14:36.363Z</time></trkpt><trkpt lat="45.5535806" lon="9.469236"><ele>140.0</ele><time>2026-03-25T11:14:37.362Z</time></trkpt><trkpt lat="45.5536342" lon="9.4693778"><ele>139.5</ele><time>2026-03-25T11:14:38.362Z</time></trkpt><trkpt lat="45.5536878" lon="9.4695199"><ele>139.0</ele><time>2026-03-25T11:14:39.361Z</time></trkpt><trkpt lat="45.5537405" lon="9.46966"><ele>139.0</ele><time>2026-03-25T11:14:40.362Z</time></trkpt><trkpt lat="45.5537932" lon="9.4698027"><ele>139.0</ele><time>2026-03-25T11:14:41.361Z</time></trkpt><trkpt lat="45.5538465" lon="9.469945"><ele>139.0</ele><time>2026-03-25T11:14:42.362Z</time></trkpt><trkpt lat="45.5539025" lon="9.4700859"><ele>139.0</ele><time>2026-03-25T11:14:43.362Z</time></trkpt><trkpt lat="45.5539569" lon="9.4702282"><ele>139.0</ele><time>2026-03-25T11:14:44.361Z</time></trkpt><trkpt lat="45.5540145" lon="9.4703634"><ele>139.0</ele><time>2026-03-25T11:14:45.362Z</time></trkpt><trkpt lat="45.5540696" lon="9.4705015"><ele>139.0</ele><time>2026-03-25T11:14:46.361Z</time></trkpt><trkpt lat="45.5541218" lon="9.4706396"><ele>139.0</ele><time>2026-03-25T11:14:47.363Z</time></trkpt><trkpt lat="45.5541753" lon="9.470778"><ele>139.0</ele><time>2026-03-25T11:14:48.362Z</time></trkpt><trkpt lat="45.5542306" lon="9.4709144"><ele>139.2</ele><time>2026-03-25T11:14:49.362Z</time></trkpt><trkpt lat="45.5542857" lon="9.4710515"><ele>139.4</ele><time>2026-03-25T11:14:50.362Z</time></trkpt><trkpt lat="45.5543393" lon="9.4711927"><ele>139.6</ele><time>2026-03-25T11:14:51.363Z</time></trkpt><trkpt lat="45.5543913" lon="9.4713289"><ele>139.8</ele><time>2026-03-25T11:14:52.362Z</time></trkpt><trkpt lat="45.5544465" lon="9.4714673"><ele>140.0</ele><time>2026-03-25T11:14:53.361Z</time></trkpt><trkpt lat="45.5544983" lon="9.4716099"><ele>140.75</ele><time>2026-03-25T11:14:54.361Z</time></trkpt><trkpt lat="45.5545541" lon="9.4717529"><ele>141.5</ele><time>2026-03-25T11:14:55.363Z</time></trkpt><trkpt lat="45.5546121" lon="9.4718919"><ele>142.25</ele><time>2026-03-25T11:14:56.362Z</time></trkpt><trkpt lat="45.5546653" lon="9.4720347"><ele>143.0</ele><time>2026-03-25T11:14:57.362Z</time></trkpt><trkpt lat="45.5547239" lon="9.4721775"><ele>143.0</ele><time>2026-03-25T11:14:58.362Z</time></trkpt><trkpt lat="45.5547789" lon="9.4723158"><ele>143.0</ele><time>2026-03-25T11:14:59.362Z</time></trkpt><trkpt lat="45.5548346" lon="9.4724578"><ele>143.0</ele><time>2026-03-25T11:15:00.361Z</time></trkpt><trkpt lat="45.5548907" lon="9.4726025"><ele>143.0</ele><time>2026-03-25T11:15:01.361Z</time></trkpt><trkpt lat="45.5549433" lon="9.4727494"><ele>143.0</ele><time>2026-03-25T11:15:02.363Z</time></trkpt><trkpt lat="45.5549971" lon="9.4728953"><ele>143.0</ele><time>2026-03-25T11:15:03.362Z</time></trkpt><trkpt lat="45.5550515" lon="9.4730406"><ele>143.0</ele><time>2026-03-25T11:15:04.361Z</time></trkpt><trkpt lat="45.5551053" lon="9.4731849"><ele>143.0</ele><time>2026-03-25T11:15:05.362Z</time></trkpt><trkpt lat="45.5551658" lon="9.4733258"><ele>142.75</ele><time>2026-03-25T11:15:06.363Z</time></trkpt><trkpt lat="45.5552235" lon="9.4734702"><ele>142.5</ele><time>2026-03-25T11:15:07.362Z</time></trkpt><trkpt lat="45.5552789" lon="9.4736123"><ele>142.25</ele><time>2026-03-25T11:15:08.362Z</time></trkpt><trkpt lat="45.5553354" lon="9.4737529"><ele>142.0</ele><time>2026-03-25T11:15:09.362Z</time></trkpt><trkpt lat="45.5553921" lon="9.4738922"><ele>142.5</ele><time>2026-03-25T11:15:10.363Z</time></trkpt><trkpt lat="45.5554441" lon="9.4740393"><ele>143.0</ele><time>2026-03-25T11:15:11.363Z</time></trkpt><trkpt lat="45.5554987" lon="9.4741787"><ele>143.5</ele><time>2026-03-25T11:15:12.362Z</time></trkpt><trkpt lat="45.5555569" lon="9.474319"><ele>144.0</ele><time>2026-03-25T11:15:13.362Z</time></trkpt><trkpt lat="45.5556112" lon="9.4744627"><ele>144.0</ele><time>2026-03-25T11:15:14.36Z</time></trkpt><trkpt lat="45.5556633" lon="9.4746019"><ele>144.0</ele><time>2026-03-25T11:15:15.361Z</time></trkpt><trkpt lat="45.5557119" lon="9.4747443"><ele>144.0</ele><time>2026-03-25T11:15:16.363Z</time></trkpt><trkpt lat="45.5557664" lon="9.4748854"><ele>144.0</ele><time>2026-03-25T11:15:17.362Z</time></trkpt><trkpt lat="45.5558212" lon="9.4750261"><ele>144.0</ele><time>2026-03-25T11:15:18.362Z</time></trkpt><trkpt lat="45.5558796" lon="9.4751695"><ele>144.25</ele><time>2026-03-25T11:15:19.362Z</time></trkpt><trkpt lat="45.5559334" lon="9.4753119"><ele>144.5</ele><time>2026-03-25T11:15:20.362Z</time></trkpt><trkpt lat="45.5559905" lon="9.4754547"><ele>144.75</ele><time>2026-03-25T11:15:21.362Z</time></trkpt><trkpt lat="45.5560439" lon="9.4755953"><ele>145.0</ele><time>2026-03-25T11:15:22.361Z</time></trkpt><trkpt lat="45.5561008" lon="9.4757341"><ele>145.0</ele><time>2026-03-25T11:15:23.361Z</time></trkpt><trkpt lat="45.5561562" lon="9.4758768"><ele>145.0</ele><time>2026-03-25T11:15:24.361Z</time></trkpt><trkpt lat="45.5562113" lon="9.4760194"><ele>145.0</ele><time>2026-03-25T11:15:25.362Z</time></trkpt><trkpt lat="45.5562662" lon="9.4761633"><ele>145.0</ele><time>2026-03-25T11:15:26.362Z</time></trkpt><trkpt lat="45.5563212" lon="9.476307"><ele>145.0</ele><time>2026-03-25T11:15:27.362Z</time></trkpt><trkpt lat="45.5563777" lon="9.4764498"><ele>145.0</ele><time>2026-03-25T11:15:28.363Z</time></trkpt><trkpt lat="45.5564331" lon="9.4765902"><ele>145.0</ele><time>2026-03-25T11:15:29.363Z</time></trkpt><trkpt lat="45.55649" lon="9.4767348"><ele>145.0</ele><time>2026-03-25T11:15:30.362Z</time></trkpt><trkpt lat="45.5565484" lon="9.4768769"><ele>145.0</ele><time>2026-03-25T11:15:31.362Z</time></trkpt><trkpt lat="45.5566034" lon="9.4770247"><ele>145.0</ele><time>2026-03-25T11:15:32.363Z</time></trkpt><trkpt lat="45.5566596" lon="9.4771669"><ele>145.0</ele><time>2026-03-25T11:15:33.363Z</time></trkpt><trkpt lat="45.5567159" lon="9.4773162"><ele>145.0</ele><time>2026-03-25T11:15:34.361Z</time></trkpt><trkpt lat="45.5567718" lon="9.4774607"><ele>145.0</ele><time>2026-03-25T11:15:35.363Z</time></trkpt><trkpt lat="45.5568271" lon="9.4776035"><ele>145.0</ele><time>2026-03-25T11:15:36.363Z</time></trkpt><trkpt lat="45.5568819" lon="9.4777515"><ele>145.0</ele><time>2026-03-25T11:15:37.363Z</time></trkpt><trkpt lat="45.5569405" lon="9.4778935"><ele>145.0</ele><time>2026-03-25T11:15:38.362Z</time></trkpt><trkpt lat="45.5569956" lon="9.4780391"><ele>145.0</ele><time>2026-03-25T11:15:39.363Z</time></trkpt><trkpt lat="45.5570496" lon="9.478184"><ele>145.0</ele><time>2026-03-25T11:15:40.362Z</time></trkpt><trkpt lat="45.5571038" lon="9.4783271"><ele>145.0</ele><time>2026-03-25T11:15:41.361Z</time></trkpt><trkpt lat="45.5571612" lon="9.4784714"><ele>145.0</ele><time>2026-03-25T11:15:42.361Z</time></trkpt><trkpt lat="45.5572177" lon="9.4786142"><ele>145.0</ele><time>2026-03-25T11:15:43.363Z</time></trkpt><trkpt lat="45.5572721" lon="9.4787567"><ele>145.0</ele><time>2026-03-25T11:15:44.362Z</time></trkpt><trkpt lat="45.5573292" lon="9.4788969"><ele>145.0</ele><time>2026-03-25T11:15:45.362Z</time></trkpt><trkpt lat="45.5573855" lon="9.479036"><ele>145.0</ele><time>2026-03-25T11:15:46.362Z</time></trkpt><trkpt lat="45.5574385" lon="9.4791778"><ele>145.0</ele><time>2026-03-25T11:15:47.361Z</time></trkpt><trkpt lat="45.5574902" lon="9.4793186"><ele>145.0</ele><time>2026-03-25T11:15:48.362Z</time></trkpt><trkpt lat="45.5575453" lon="9.4794584"><ele>145.0</ele><time>2026-03-25T11:15:49.363Z</time></trkpt><trkpt lat="45.557601" lon="9.4795957"><ele>145.0</ele><time>2026-03-25T11:15:50.363Z</time></trkpt><trkpt lat="45.5576559" lon="9.4797309"><ele>145.0</ele><time>2026-03-25T11:15:51.362Z</time></trkpt><trkpt lat="45.5577104" lon="9.4798685"><ele>145.0</ele><time>2026-03-25T11:15:52.363Z</time></trkpt><trkpt lat="45.5577651" lon="9.4800049"><ele>145.0</ele><time>2026-03-25T11:15:53.362Z</time></trkpt><trkpt lat="45.5578192" lon="9.4801459"><ele>145.0</ele><time>2026-03-25T11:15:54.363Z</time></trkpt><trkpt lat="45.5578731" lon="9.4802833"><ele>145.0</ele><time>2026-03-25T11:15:55.361Z</time></trkpt><trkpt lat="45.5579271" lon="9.4804263"><ele>145.0</ele><time>2026-03-25T11:15:56.361Z</time></trkpt><trkpt lat="45.5579814" lon="9.4805652"><ele>145.0</ele><time>2026-03-25T11:15:57.361Z</time></trkpt><trkpt lat="45.5580342" lon="9.4807057"><ele>145.0</ele><time>2026-03-25T11:15:58.363Z</time></trkpt><trkpt lat="45.5580885" lon="9.4808518"><ele>145.0</ele><time>2026-03-25T11:15:59.361Z</time></trkpt><trkpt lat="45.5581465" lon="9.4809899"><ele>145.0</ele><time>2026-03-25T11:16:00.362Z</time></trkpt><trkpt lat="45.5582034" lon="9.4811323"><ele>145.2</ele><time>2026-03-25T11:16:01.362Z</time></trkpt><trkpt lat="45.558258" lon="9.4812737"><ele>145.4</ele><time>2026-03-25T11:16:02.362Z</time></trkpt><trkpt lat="45.5583113" lon="9.4814122"><ele>145.6</ele><time>2026-03-25T11:16:03.362Z</time></trkpt><trkpt lat="45.5583645" lon="9.4815511"><ele>145.8</ele><time>2026-03-25T11:16:04.363Z</time></trkpt><trkpt lat="45.5584192" lon="9.4816903"><ele>146.0</ele><time>2026-03-25T11:16:05.363Z</time></trkpt><trkpt lat="45.558475" lon="9.4818298"><ele>146.0</ele><time>2026-03-25T11:16:06.363Z</time></trkpt><trkpt lat="45.5585293" lon="9.4819682"><ele>146.0</ele><time>2026-03-25T11:16:07.363Z</time></trkpt><trkpt lat="45.5585822" lon="9.4821046"><ele>146.0</ele><time>2026-03-25T11:16:08.363Z</time></trkpt><trkpt lat="45.558639" lon="9.4822435"><ele>146.0</ele><time>2026-03-25T11:16:09.362Z</time></trkpt><trkpt lat="45.5586923" lon="9.4823836"><ele>146.0</ele><time>2026-03-25T11:16:10.361Z</time></trkpt><trkpt lat="45.5587475" lon="9.4825214"><ele>146.2</ele><time>2026-03-25T11:16:11.361Z</time></trkpt><trkpt lat="45.5588013" lon="9.4826614"><ele>146.39999999999998</ele><time>2026-03-25T11:16:12.362Z</time></trkpt><trkpt lat="45.5588574" lon="9.482802"><ele>146.6</ele><time>2026-03-25T11:16:13.362Z</time></trkpt><trkpt lat="45.5589138" lon="9.4829377"><ele>146.79999999999998</ele><time>2026-03-25T11:16:14.362Z</time></trkpt><trkpt lat="45.558969" lon="9.4830752"><ele>147.0</ele><time>2026-03-25T11:16:15.362Z</time></trkpt><trkpt lat="45.5590236" lon="9.4832145"><ele>147.2</ele><time>2026-03-25T11:16:16.362Z</time></trkpt><trkpt lat="45.559077" lon="9.4833537"><ele>147.39999999999998</ele><time>2026-03-25T11:16:17.362Z</time></trkpt><trkpt lat="45.5591292" lon="9.4834917"><ele>147.60000000000002</ele><time>2026-03-25T11:16:18.362Z</time></trkpt><trkpt lat="45.559184" lon="9.4836296"><ele>147.8</ele><time>2026-03-25T11:16:19.362Z</time></trkpt><trkpt lat="45.5592367" lon="9.4837696"><ele>148.0</ele><time>2026-03-25T11:16:20.362Z</time></trkpt><trkpt lat="45.5592888" lon="9.4839138"><ele>148.25</ele><time>2026-03-25T11:16:21.362Z</time></trkpt><trkpt lat="45.5593492" lon="9.4840557"><ele>148.5</ele><time>2026-03-25T11:16:22.363Z</time></trkpt><trkpt lat="45.5594044" lon="9.4841949"><ele>148.75</ele><time>2026-03-25T11:16:23.363Z</time></trkpt><trkpt lat="45.5594573" lon="9.4843336"><ele>149.0</ele><time>2026-03-25T11:16:24.363Z</time></trkpt><trkpt lat="45.5595131" lon="9.4844707"><ele>148.6</ele><time>2026-03-25T11:16:25.363Z</time></trkpt><trkpt lat="45.5595667" lon="9.4846115"><ele>148.2</ele><time>2026-03-25T11:16:26.362Z</time></trkpt><trkpt lat="45.5596235" lon="9.48475"><ele>147.79999999999998</ele><time>2026-03-25T11:16:27.363Z</time></trkpt><trkpt lat="45.5596813" lon="9.4848868"><ele>147.4</ele><time>2026-03-25T11:16:28.363Z</time></trkpt><trkpt lat="45.559736" lon="9.485025"><ele>147.0</ele><time>2026-03-25T11:16:29.362Z</time></trkpt><trkpt lat="45.5597945" lon="9.4851635"><ele>147.0</ele><time>2026-03-25T11:16:30.363Z</time></trkpt><trkpt lat="45.5598511" lon="9.4853004"><ele>147.0</ele><time>2026-03-25T11:16:31.361Z</time></trkpt><trkpt lat="45.5599083" lon="9.4854409"><ele>147.0</ele><time>2026-03-25T11:16:32.362Z</time></trkpt><trkpt lat="45.5599624" lon="9.4855819"><ele>147.0</ele><time>2026-03-25T11:16:33.362Z</time></trkpt><trkpt lat="45.5600202" lon="9.4857165"><ele>147.0</ele><time>2026-03-25T11:16:34.363Z</time></trkpt><trkpt lat="45.5600762" lon="9.4858567"><ele>147.6</ele><time>2026-03-25T11:16:35.363Z</time></trkpt><trkpt lat="45.5601318" lon="9.4859941"><ele>148.2</ele><time>2026-03-25T11:16:36.361Z</time></trkpt><trkpt lat="45.560189" lon="9.4861325"><ele>148.8</ele><time>2026-03-25T11:16:37.363Z</time></trkpt><trkpt lat="45.5602439" lon="9.4862741"><ele>149.4</ele><time>2026-03-25T11:16:38.362Z</time></trkpt><trkpt lat="45.5602998" lon="9.486413"><ele>150.0</ele><time>2026-03-25T11:16:39.363Z</time></trkpt><trkpt lat="45.560353" lon="9.4865553"><ele>150.0</ele><time>2026-03-25T11:16:40.361Z</time></trkpt><trkpt lat="45.5604078" lon="9.486693"><ele>150.0</ele><time>2026-03-25T11:16:41.362Z</time></trkpt><trkpt lat="45.5604647" lon="9.4868354"><ele>150.0</ele><time>2026-03-25T11:16:42.362Z</time></trkpt><trkpt lat="45.56052" lon="9.4869773"><ele>150.0</ele><time>2026-03-25T11:16:43.362Z</time></trkpt><trkpt lat="45.5605782" lon="9.4871207"><ele>150.0</ele><time>2026-03-25T11:16:44.361Z</time></trkpt><trkpt lat="45.5606342" lon="9.4872609"><ele>150.0</ele><time>2026-03-25T11:16:45.362Z</time></trkpt><trkpt lat="45.5606888" lon="9.4874013"><ele>150.0</ele><time>2026-03-25T11:16:46.362Z</time></trkpt><trkpt lat="45.5607442" lon="9.4875422"><ele>150.0</ele><time>2026-03-25T11:16:47.363Z</time></trkpt><trkpt lat="45.5607939" lon="9.4876894"><ele>150.0</ele><time>2026-03-25T11:16:48.362Z</time></trkpt><trkpt lat="45.5608511" lon="9.4878305"><ele>150.0</ele><time>2026-03-25T11:16:49.362Z</time></trkpt><trkpt lat="45.5609062" lon="9.4879696"><ele>150.0</ele><time>2026-03-25T11:16:50.362Z</time></trkpt><trkpt lat="45.5609625" lon="9.4881166"><ele>150.0</ele><time>2026-03-25T11:16:51.362Z</time></trkpt><trkpt lat="45.5610173" lon="9.4882589"><ele>150.0</ele><time>2026-03-25T11:16:52.363Z</time></trkpt><trkpt lat="45.5610729" lon="9.4884003"><ele>150.0</ele><time>2026-03-25T11:16:53.362Z</time></trkpt><trkpt lat="45.5611273" lon="9.4885441"><ele>150.0</ele><time>2026-03-25T11:16:54.362Z</time></trkpt><trkpt lat="45.5611831" lon="9.4886892"><ele>150.0</ele><time>2026-03-25T11:16:55.363Z</time></trkpt><trkpt lat="45.5612403" lon="9.4888279"><ele>150.25</ele><time>2026-03-25T11:16:56.362Z</time></trkpt><trkpt lat="45.5612942" lon="9.4889683"><ele>150.5</ele><time>2026-03-25T11:16:57.362Z</time></trkpt><trkpt lat="45.5613506" lon="9.4891075"><ele>150.75</ele><time>2026-03-25T11:16:58.363Z</time></trkpt><trkpt lat="45.5614072" lon="9.4892483"><ele>151.0</ele><time>2026-03-25T11:16:59.362Z</time></trkpt><trkpt lat="45.5614601" lon="9.4893934"><ele>151.0</ele><time>2026-03-25T11:17:00.36Z</time></trkpt><trkpt lat="45.5615106" lon="9.4895413"><ele>151.0</ele><time>2026-03-25T11:17:01.362Z</time></trkpt><trkpt lat="45.5615639" lon="9.4896857"><ele>151.0</ele><time>2026-03-25T11:17:02.361Z</time></trkpt><trkpt lat="45.5616205" lon="9.4898281"><ele>151.0</ele><time>2026-03-25T11:17:03.361Z</time></trkpt><trkpt lat="45.5616733" lon="9.4899724"><ele>151.0</ele><time>2026-03-25T11:17:04.362Z</time></trkpt><trkpt lat="45.5617223" lon="9.4901136"><ele>151.0</ele><time>2026-03-25T11:17:05.363Z</time></trkpt><trkpt lat="45.5617727" lon="9.4902444"><ele>151.0</ele><time>2026-03-25T11:17:06.362Z</time></trkpt><trkpt lat="45.5618221" lon="9.490373"><ele>151.0</ele><time>2026-03-25T11:17:07.362Z</time></trkpt><trkpt lat="45.5618684" lon="9.4904978"><ele>151.0</ele><time>2026-03-25T11:17:08.363Z</time></trkpt><trkpt lat="45.5619127" lon="9.4906164"><ele>151.0</ele><time>2026-03-25T11:17:09.362Z</time></trkpt><trkpt lat="45.5619545" lon="9.4907316"><ele>151.0</ele><time>2026-03-25T11:17:10.362Z</time></trkpt><trkpt lat="45.5619974" lon="9.4908392"><ele>151.0</ele><time>2026-03-25T11:17:11.362Z</time></trkpt><trkpt lat="45.5620423" lon="9.4909511"><ele>151.0</ele><time>2026-03-25T11:17:12.362Z</time></trkpt><trkpt lat="45.562085" lon="9.4910622"><ele>151.0</ele><time>2026-03-25T11:17:13.363Z</time></trkpt><trkpt lat="45.5621297" lon="9.4911811"><ele>151.4</ele><time>2026-03-25T11:17:14.362Z</time></trkpt><trkpt lat="45.5621739" lon="9.4913032"><ele>151.8</ele><time>2026-03-25T11:17:15.362Z</time></trkpt><trkpt lat="45.5622182" lon="9.4914302"><ele>152.20000000000002</ele><time>2026-03-25T11:17:16.362Z</time></trkpt><trkpt lat="45.562267" lon="9.4915598"><ele>152.6</ele><time>2026-03-25T11:17:17.362Z</time></trkpt><trkpt lat="45.5623168" lon="9.491686"><ele>153.0</ele><time>2026-03-25T11:17:18.362Z</time></trkpt><trkpt lat="45.5623619" lon="9.4918178"><ele>153.0</ele><time>2026-03-25T11:17:19.361Z</time></trkpt><trkpt lat="45.5624073" lon="9.4919416"><ele>153.0</ele><time>2026-03-25T11:17:20.362Z</time></trkpt><trkpt lat="45.5624528" lon="9.4920632"><ele>153.0</ele><time>2026-03-25T11:17:21.363Z</time></trkpt><trkpt lat="45.5624971" lon="9.4921706"><ele>153.0</ele><time>2026-03-25T11:17:22.362Z</time></trkpt><trkpt lat="45.562536" lon="9.492268"><ele>153.0</ele><time>2026-03-25T11:17:23.363Z</time></trkpt><trkpt lat="45.5625751" lon="9.4923514"><ele>153.0</ele><time>2026-03-25T11:17:24.362Z</time></trkpt><trkpt lat="45.562611" lon="9.4924308"><ele>153.0</ele><time>2026-03-25T11:17:25.361Z</time></trkpt><trkpt lat="45.5626713" lon="9.4925756"><ele>153.0</ele><time>2026-03-25T11:17:27.362Z</time></trkpt><trkpt lat="45.5627293" lon="9.4927428"><ele>153.0</ele><time>2026-03-25T11:17:29.363Z</time></trkpt><trkpt lat="45.5627588" lon="9.4928342"><ele>153.0</ele><time>2026-03-25T11:17:30.361Z</time></trkpt><trkpt lat="45.5627959" lon="9.4929306"><ele>153.0</ele><time>2026-03-25T11:17:31.363Z</time></trkpt><trkpt lat="45.5628351" lon="9.4930327"><ele>152.8</ele><time>2026-03-25T11:17:32.362Z</time></trkpt><trkpt lat="45.5628792" lon="9.4931365"><ele>152.60000000000002</ele><time>2026-03-25T11:17:33.362Z</time></trkpt><trkpt lat="45.5629233" lon="9.4932421"><ele>152.39999999999998</ele><time>2026-03-25T11:17:34.362Z</time></trkpt><trkpt lat="45.5629706" lon="9.4933517"><ele>152.2</ele><time>2026-03-25T11:17:35.362Z</time></trkpt><trkpt lat="45.563019" lon="9.4934679"><ele>152.0</ele><time>2026-03-25T11:17:36.362Z</time></trkpt><trkpt lat="45.5630694" lon="9.4935859"><ele>152.0</ele><time>2026-03-25T11:17:37.361Z</time></trkpt><trkpt lat="45.5631192" lon="9.4937076"><ele>152.0</ele><time>2026-03-25T11:17:38.362Z</time></trkpt><trkpt lat="45.563172" lon="9.4938298"><ele>152.0</ele><time>2026-03-25T11:17:39.363Z</time></trkpt><trkpt lat="45.5632243" lon="9.4939556"><ele>152.0</ele><time>2026-03-25T11:17:40.362Z</time></trkpt><trkpt lat="45.5632735" lon="9.4940874"><ele>152.0</ele><time>2026-03-25T11:17:41.362Z</time></trkpt><trkpt lat="45.5633253" lon="9.4942177"><ele>152.2</ele><time>2026-03-25T11:17:42.361Z</time></trkpt><trkpt lat="45.5633778" lon="9.4943548"><ele>152.39999999999998</ele><time>2026-03-25T11:17:43.362Z</time></trkpt><trkpt lat="45.5634351" lon="9.4944839"><ele>152.60000000000002</ele><time>2026-03-25T11:17:44.363Z</time></trkpt><trkpt lat="45.5634903" lon="9.4946176"><ele>152.8</ele><time>2026-03-25T11:17:45.363Z</time></trkpt><trkpt lat="45.5635402" lon="9.4947573"><ele>153.0</ele><time>2026-03-25T11:17:46.361Z</time></trkpt><trkpt lat="45.5635939" lon="9.4948924"><ele>153.0</ele><time>2026-03-25T11:17:47.362Z</time></trkpt><trkpt lat="45.5636479" lon="9.4950335"><ele>153.0</ele><time>2026-03-25T11:17:48.362Z</time></trkpt><trkpt lat="45.5636995" lon="9.495173"><ele>153.0</ele><time>2026-03-25T11:17:49.362Z</time></trkpt><trkpt lat="45.5637512" lon="9.4953122"><ele>153.0</ele><time>2026-03-25T11:17:50.362Z</time></trkpt><trkpt lat="45.5638138" lon="9.4954463"><ele>153.0</ele><time>2026-03-25T11:17:51.363Z</time></trkpt><trkpt lat="45.5638662" lon="9.4955867"><ele>153.20000000000002</ele><time>2026-03-25T11:17:52.363Z</time></trkpt><trkpt lat="45.5639223" lon="9.4957253"><ele>153.4</ele><time>2026-03-25T11:17:53.362Z</time></trkpt><trkpt lat="45.5639788" lon="9.495863"><ele>153.60000000000002</ele><time>2026-03-25T11:17:54.362Z</time></trkpt><trkpt lat="45.5640352" lon="9.4959995"><ele>153.8</ele><time>2026-03-25T11:17:55.363Z</time></trkpt><trkpt lat="45.5640877" lon="9.4961381"><ele>154.0</ele><time>2026-03-25T11:17:56.362Z</time></trkpt><trkpt lat="45.5641416" lon="9.496276"><ele>154.5</ele><time>2026-03-25T11:17:57.362Z</time></trkpt><trkpt lat="45.5641995" lon="9.4964166"><ele>155.0</ele><time>2026-03-25T11:17:58.363Z</time></trkpt><trkpt lat="45.5642546" lon="9.4965603"><ele>155.5</ele><time>2026-03-25T11:17:59.362Z</time></trkpt><trkpt lat="45.5643102" lon="9.4966981"><ele>156.0</ele><time>2026-03-25T11:18:00.361Z</time></trkpt><trkpt lat="45.5643626" lon="9.4968389"><ele>156.0</ele><time>2026-03-25T11:18:01.363Z</time></trkpt><trkpt lat="45.5644163" lon="9.4969794"><ele>156.0</ele><time>2026-03-25T11:18:02.362Z</time></trkpt><trkpt lat="45.5644699" lon="9.4971166"><ele>156.0</ele><time>2026-03-25T11:18:03.361Z</time></trkpt><trkpt lat="45.564521" lon="9.4972527"><ele>156.0</ele><time>2026-03-25T11:18:04.363Z</time></trkpt><trkpt lat="45.564577" lon="9.4973963"><ele>156.0</ele><time>2026-03-25T11:18:05.362Z</time></trkpt><trkpt lat="45.564631" lon="9.4975339"><ele>155.6</ele><time>2026-03-25T11:18:06.362Z</time></trkpt><trkpt lat="45.5646853" lon="9.4976749"><ele>155.2</ele><time>2026-03-25T11:18:07.362Z</time></trkpt><trkpt lat="45.564734" lon="9.4978154"><ele>154.8</ele><time>2026-03-25T11:18:08.361Z</time></trkpt><trkpt lat="45.5647876" lon="9.4979532"><ele>154.4</ele><time>2026-03-25T11:18:09.362Z</time></trkpt><trkpt lat="45.5648405" lon="9.4980896"><ele>154.0</ele><time>2026-03-25T11:18:10.363Z</time></trkpt><trkpt lat="45.5648959" lon="9.4982328"><ele>154.0</ele><time>2026-03-25T11:18:11.361Z</time></trkpt><trkpt lat="45.5649524" lon="9.498368"><ele>154.0</ele><time>2026-03-25T11:18:12.363Z</time></trkpt><trkpt lat="45.5650066" lon="9.4985052"><ele>154.0</ele><time>2026-03-25T11:18:13.362Z</time></trkpt><trkpt lat="45.5650598" lon="9.4986409"><ele>154.0</ele><time>2026-03-25T11:18:14.362Z</time></trkpt><trkpt lat="45.5651094" lon="9.4987666"><ele>154.0</ele><time>2026-03-25T11:18:15.362Z</time></trkpt><trkpt lat="45.5651538" lon="9.4988798"><ele>154.16666666666669</ele><time>2026-03-25T11:18:16.363Z</time></trkpt><trkpt lat="45.5651975" lon="9.4989909"><ele>154.33333333333334</ele><time>2026-03-25T11:18:17.363Z</time></trkpt><trkpt lat="45.5652361" lon="9.4990897"><ele>154.5</ele><time>2026-03-25T11:18:18.362Z</time></trkpt><trkpt lat="45.5652727" lon="9.4991812"><ele>154.66666666666666</ele><time>2026-03-25T11:18:19.363Z</time></trkpt><trkpt lat="45.5653023" lon="9.4992642"><ele>154.83333333333331</ele><time>2026-03-25T11:18:20.361Z</time></trkpt><trkpt lat="45.5653318" lon="9.49938"><ele>155.0</ele><time>2026-03-25T11:18:22.362Z</time></trkpt><trkpt lat="45.5653621" lon="9.4994606"><ele>155.16666666666666</ele><time>2026-03-25T11:20:04.363Z</time></trkpt><trkpt lat="45.5653939" lon="9.4995391"><ele>155.33333333333331</ele><time>2026-03-25T11:20:06.362Z</time></trkpt><trkpt lat="45.5654363" lon="9.4996403"><ele>155.5</ele><time>2026-03-25T11:20:08.361Z</time></trkpt><trkpt lat="45.5654945" lon="9.4997614"><ele>155.66666666666666</ele><time>2026-03-25T11:20:10.362Z</time></trkpt><trkpt lat="45.5655514" lon="9.4999129"><ele>155.83333333333334</ele><time>2026-03-25T11:20:12.362Z</time></trkpt><trkpt lat="45.565585" lon="9.4999925"><ele>156.0</ele><time>2026-03-25T11:20:13.363Z</time></trkpt><trkpt lat="45.5656204" lon="9.5000811"><ele>156.0</ele><time>2026-03-25T11:20:14.362Z</time></trkpt><trkpt lat="45.5656581" lon="9.5001754"><ele>156.0</ele><time>2026-03-25T11:20:15.362Z</time></trkpt><trkpt lat="45.5656966" lon="9.5002763"><ele>156.0</ele><time>2026-03-25T11:20:16.363Z</time></trkpt><trkpt lat="45.5657352" lon="9.5003817"><ele>156.0</ele><time>2026-03-25T11:20:17.363Z</time></trkpt><trkpt lat="45.5657766" lon="9.5004903"><ele>156.0</ele><time>2026-03-25T11:20:18.362Z</time></trkpt><trkpt lat="45.5658187" lon="9.5005952"><ele>156.0</ele><time>2026-03-25T11:20:19.363Z</time></trkpt><trkpt lat="45.5658634" lon="9.5007105"><ele>156.0</ele><time>2026-03-25T11:20:20.363Z</time></trkpt><trkpt lat="45.565911" lon="9.500821"><ele>156.0</ele><time>2026-03-25T11:20:21.363Z</time></trkpt><trkpt lat="45.5659599" lon="9.5009429"><ele>156.0</ele><time>2026-03-25T11:20:22.361Z</time></trkpt><trkpt lat="45.5660103" lon="9.5010611"><ele>156.0</ele><time>2026-03-25T11:20:23.363Z</time></trkpt><trkpt lat="45.5660548" lon="9.5011835"><ele>156.0</ele><time>2026-03-25T11:20:24.362Z</time></trkpt><trkpt lat="45.5661033" lon="9.5013059"><ele>155.6</ele><time>2026-03-25T11:20:25.362Z</time></trkpt><trkpt lat="45.5661543" lon="9.5014265"><ele>155.2</ele><time>2026-03-25T11:20:26.364Z</time></trkpt><trkpt lat="45.5662034" lon="9.5015538"><ele>154.8</ele><time>2026-03-25T11:20:27.362Z</time></trkpt><trkpt lat="45.5662574" lon="9.5016817"><ele>154.4</ele><time>2026-03-25T11:20:28.362Z</time></trkpt><trkpt lat="45.566308" lon="9.5018095"><ele>154.0</ele><time>2026-03-25T11:20:29.363Z</time></trkpt><trkpt lat="45.5663595" lon="9.501934"><ele>154.2</ele><time>2026-03-25T11:20:30.361Z</time></trkpt><trkpt lat="45.5664114" lon="9.5020674"><ele>154.4</ele><time>2026-03-25T11:20:31.362Z</time></trkpt><trkpt lat="45.5664609" lon="9.5022004"><ele>154.6</ele><time>2026-03-25T11:20:32.362Z</time></trkpt><trkpt lat="45.5665124" lon="9.5023336"><ele>154.8</ele><time>2026-03-25T11:20:33.362Z</time></trkpt><trkpt lat="45.5665605" lon="9.5024638"><ele>155.0</ele><time>2026-03-25T11:20:34.361Z</time></trkpt><trkpt lat="45.5666114" lon="9.5025955"><ele>155.0</ele><time>2026-03-25T11:20:35.363Z</time></trkpt><trkpt lat="45.5666604" lon="9.5027326"><ele>155.0</ele><time>2026-03-25T11:20:36.362Z</time></trkpt><trkpt lat="45.5667145" lon="9.5028635"><ele>155.0</ele><time>2026-03-25T11:20:37.363Z</time></trkpt><trkpt lat="45.5667695" lon="9.5029981"><ele>155.0</ele><time>2026-03-25T11:20:38.363Z</time></trkpt><trkpt lat="45.5668204" lon="9.5031335"><ele>155.0</ele><time>2026-03-25T11:20:39.364Z</time></trkpt><trkpt lat="45.5668701" lon="9.5032688"><ele>155.2</ele><time>2026-03-25T11:20:40.361Z</time></trkpt><trkpt lat="45.5669218" lon="9.503405"><ele>155.4</ele><time>2026-03-25T11:20:41.363Z</time></trkpt><trkpt lat="45.5669742" lon="9.5035405"><ele>155.6</ele><time>2026-03-25T11:20:42.363Z</time></trkpt><trkpt lat="45.5670271" lon="9.5036767"><ele>155.8</ele><time>2026-03-25T11:20:43.364Z</time></trkpt><trkpt lat="45.5670805" lon="9.5038131"><ele>156.0</ele><time>2026-03-25T11:20:44.362Z</time></trkpt><trkpt lat="45.5671285" lon="9.5039523"><ele>155.8</ele><time>2026-03-25T11:20:45.363Z</time></trkpt><trkpt lat="45.5671812" lon="9.5040911"><ele>155.6</ele><time>2026-03-25T11:20:46.362Z</time></trkpt><trkpt lat="45.5672348" lon="9.5042323"><ele>155.4</ele><time>2026-03-25T11:20:47.362Z</time></trkpt><trkpt lat="45.5672877" lon="9.504373"><ele>155.2</ele><time>2026-03-25T11:20:48.364Z</time></trkpt><trkpt lat="45.5673412" lon="9.5045094"><ele>155.0</ele><time>2026-03-25T11:20:49.362Z</time></trkpt><trkpt lat="45.5673951" lon="9.5046454"><ele>155.0</ele><time>2026-03-25T11:20:50.363Z</time></trkpt><trkpt lat="45.5674454" lon="9.5047889"><ele>155.0</ele><time>2026-03-25T11:20:51.362Z</time></trkpt><trkpt lat="45.567499" lon="9.5049279"><ele>155.0</ele><time>2026-03-25T11:20:52.362Z</time></trkpt><trkpt lat="45.5675547" lon="9.505069"><ele>155.0</ele><time>2026-03-25T11:20:53.361Z</time></trkpt><trkpt lat="45.5676118" lon="9.5052063"><ele>155.0</ele><time>2026-03-25T11:20:54.362Z</time></trkpt><trkpt lat="45.5676651" lon="9.505347"><ele>155.0</ele><time>2026-03-25T11:20:55.363Z</time></trkpt><trkpt lat="45.5677177" lon="9.5054817"><ele>155.0</ele><time>2026-03-25T11:20:56.363Z</time></trkpt><trkpt lat="45.5677713" lon="9.5056218"><ele>155.0</ele><time>2026-03-25T11:20:57.363Z</time></trkpt><trkpt lat="45.5678247" lon="9.5057629"><ele>155.0</ele><time>2026-03-25T11:20:58.363Z</time></trkpt><trkpt lat="45.5678787" lon="9.5059088"><ele>155.0</ele><time>2026-03-25T11:20:59.361Z</time></trkpt><trkpt lat="45.5679311" lon="9.5060482"><ele>155.0</ele><time>2026-03-25T11:21:00.362Z</time></trkpt><trkpt lat="45.5679872" lon="9.5061868"><ele>155.0</ele><time>2026-03-25T11:21:01.362Z</time></trkpt><trkpt lat="45.5680422" lon="9.5063295"><ele>155.0</ele><time>2026-03-25T11:21:02.363Z</time></trkpt><trkpt lat="45.5680968" lon="9.5064707"><ele>155.0</ele><time>2026-03-25T11:21:03.362Z</time></trkpt><trkpt lat="45.5681478" lon="9.5066101"><ele>155.0</ele><time>2026-03-25T11:21:04.362Z</time></trkpt><trkpt lat="45.5682031" lon="9.5067505"><ele>155.4</ele><time>2026-03-25T11:21:05.362Z</time></trkpt><trkpt lat="45.5682581" lon="9.5068907"><ele>155.8</ele><time>2026-03-25T11:21:06.362Z</time></trkpt><trkpt lat="45.5683112" lon="9.5070302"><ele>156.2</ele><time>2026-03-25T11:21:07.362Z</time></trkpt><trkpt lat="45.5683619" lon="9.5071686"><ele>156.6</ele><time>2026-03-25T11:21:08.362Z</time></trkpt><trkpt lat="45.5684164" lon="9.5073104"><ele>157.0</ele><time>2026-03-25T11:21:09.363Z</time></trkpt><trkpt lat="45.5684699" lon="9.5074505"><ele>157.0</ele><time>2026-03-25T11:21:10.363Z</time></trkpt><trkpt lat="45.5685196" lon="9.5075911"><ele>157.0</ele><time>2026-03-25T11:21:11.363Z</time></trkpt><trkpt lat="45.5685758" lon="9.5077356"><ele>157.0</ele><time>2026-03-25T11:21:12.363Z</time></trkpt><trkpt lat="45.5686342" lon="9.5078722"><ele>157.0</ele><time>2026-03-25T11:21:13.363Z</time></trkpt><trkpt lat="45.568688" lon="9.5080109"><ele>157.0</ele><time>2026-03-25T11:21:14.363Z</time></trkpt><trkpt lat="45.5687457" lon="9.5081561"><ele>157.0</ele><time>2026-03-25T11:21:15.362Z</time></trkpt><trkpt lat="45.5687997" lon="9.5082975"><ele>157.0</ele><time>2026-03-25T11:21:16.363Z</time></trkpt><trkpt lat="45.5688562" lon="9.5084407"><ele>157.0</ele><time>2026-03-25T11:21:17.363Z</time></trkpt><trkpt lat="45.568911" lon="9.5085788"><ele>157.0</ele><time>2026-03-25T11:21:18.362Z</time></trkpt><trkpt lat="45.5689637" lon="9.5087175"><ele>157.0</ele><time>2026-03-25T11:21:19.362Z</time></trkpt><trkpt lat="45.5690187" lon="9.5088568"><ele>157.25</ele><time>2026-03-25T11:21:20.363Z</time></trkpt><trkpt lat="45.5690737" lon="9.5089969"><ele>157.5</ele><time>2026-03-25T11:21:21.363Z</time></trkpt><trkpt lat="45.5691295" lon="9.5091421"><ele>157.75</ele><time>2026-03-25T11:21:22.362Z</time></trkpt><trkpt lat="45.5691858" lon="9.5092873"><ele>158.0</ele><time>2026-03-25T11:21:23.363Z</time></trkpt><trkpt lat="45.5692401" lon="9.5094304"><ele>157.75</ele><time>2026-03-25T11:21:24.361Z</time></trkpt><trkpt lat="45.5692956" lon="9.509577"><ele>157.5</ele><time>2026-03-25T11:21:25.363Z</time></trkpt><trkpt lat="45.5693483" lon="9.5097177"><ele>157.25</ele><time>2026-03-25T11:21:26.363Z</time></trkpt><trkpt lat="45.5694021" lon="9.5098666"><ele>157.0</ele><time>2026-03-25T11:21:27.363Z</time></trkpt><trkpt lat="45.5694562" lon="9.5100157"><ele>157.0</ele><time>2026-03-25T11:21:28.362Z</time></trkpt><trkpt lat="45.5695118" lon="9.5101625"><ele>157.0</ele><time>2026-03-25T11:21:29.363Z</time></trkpt><trkpt lat="45.5695639" lon="9.510311"><ele>157.0</ele><time>2026-03-25T11:21:30.361Z</time></trkpt><trkpt lat="45.5696202" lon="9.5104525"><ele>157.0</ele><time>2026-03-25T11:21:31.364Z</time></trkpt><trkpt lat="45.5696775" lon="9.5105987"><ele>157.0</ele><time>2026-03-25T11:21:32.363Z</time></trkpt><trkpt lat="45.5697344" lon="9.5107444"><ele>157.0</ele><time>2026-03-25T11:21:33.362Z</time></trkpt><trkpt lat="45.569789" lon="9.51089"><ele>157.0</ele><time>2026-03-25T11:21:34.363Z</time></trkpt><trkpt lat="45.5698455" lon="9.5110353"><ele>157.0</ele><time>2026-03-25T11:21:35.363Z</time></trkpt><trkpt lat="45.5699033" lon="9.5111833"><ele>156.75</ele><time>2026-03-25T11:21:36.362Z</time></trkpt><trkpt lat="45.5699583" lon="9.5113287"><ele>156.5</ele><time>2026-03-25T11:21:37.363Z</time></trkpt><trkpt lat="45.5700153" lon="9.5114719"><ele>156.25</ele><time>2026-03-25T11:21:38.363Z</time></trkpt><trkpt lat="45.5700721" lon="9.5116186"><ele>156.0</ele><time>2026-03-25T11:21:39.362Z</time></trkpt><trkpt lat="45.5701302" lon="9.5117644"><ele>156.0</ele><time>2026-03-25T11:21:40.361Z</time></trkpt><trkpt lat="45.5701834" lon="9.5119074"><ele>156.0</ele><time>2026-03-25T11:21:41.363Z</time></trkpt><trkpt lat="45.5702408" lon="9.5120512"><ele>156.0</ele><time>2026-03-25T11:21:42.363Z</time></trkpt><trkpt lat="45.570294" lon="9.5121998"><ele>156.0</ele><time>2026-03-25T11:21:43.363Z</time></trkpt><trkpt lat="45.5703527" lon="9.5123486"><ele>156.5</ele><time>2026-03-25T11:21:44.362Z</time></trkpt><trkpt lat="45.5704118" lon="9.5124943"><ele>157.0</ele><time>2026-03-25T11:21:45.362Z</time></trkpt><trkpt lat="45.5704663" lon="9.5126412"><ele>157.5</ele><time>2026-03-25T11:21:46.363Z</time></trkpt><trkpt lat="45.5705228" lon="9.5127865"><ele>158.0</ele><time>2026-03-25T11:21:47.363Z</time></trkpt><trkpt lat="45.5705751" lon="9.5129279"><ele>158.25</ele><time>2026-03-25T11:21:48.363Z</time></trkpt><trkpt lat="45.5706277" lon="9.5130738"><ele>158.5</ele><time>2026-03-25T11:21:49.361Z</time></trkpt><trkpt lat="45.5706817" lon="9.5132202"><ele>158.75</ele><time>2026-03-25T11:21:50.362Z</time></trkpt><trkpt lat="45.5707382" lon="9.5133634"><ele>159.0</ele><time>2026-03-25T11:21:51.362Z</time></trkpt><trkpt lat="45.5707985" lon="9.5135074"><ele>159.0</ele><time>2026-03-25T11:21:52.363Z</time></trkpt><trkpt lat="45.5708526" lon="9.5136467"><ele>159.0</ele><time>2026-03-25T11:21:53.362Z</time></trkpt><trkpt lat="45.5709039" lon="9.5137887"><ele>159.0</ele><time>2026-03-25T11:21:54.362Z</time></trkpt><trkpt lat="45.5709592" lon="9.5139312"><ele>159.0</ele><time>2026-03-25T11:21:55.363Z</time></trkpt><trkpt lat="45.5710104" lon="9.5140769"><ele>159.2</ele><time>2026-03-25T11:21:56.362Z</time></trkpt><trkpt lat="45.5710653" lon="9.514215"><ele>159.4</ele><time>2026-03-25T11:21:57.362Z</time></trkpt><trkpt lat="45.5711192" lon="9.5143547"><ele>159.6</ele><time>2026-03-25T11:21:58.363Z</time></trkpt><trkpt lat="45.5711726" lon="9.514496"><ele>159.8</ele><time>2026-03-25T11:21:59.362Z</time></trkpt><trkpt lat="45.5712247" lon="9.5146388"><ele>160.0</ele><time>2026-03-25T11:22:00.363Z</time></trkpt><trkpt lat="45.5712777" lon="9.5147771"><ele>160.0</ele><time>2026-03-25T11:22:01.361Z</time></trkpt><trkpt lat="45.5713319" lon="9.5149202"><ele>160.0</ele><time>2026-03-25T11:22:02.363Z</time></trkpt><trkpt lat="45.5713861" lon="9.5150575"><ele>160.0</ele><time>2026-03-25T11:22:03.363Z</time></trkpt><trkpt lat="45.5714407" lon="9.5151988"><ele>160.0</ele><time>2026-03-25T11:22:04.362Z</time></trkpt><trkpt lat="45.5714906" lon="9.5153404"><ele>160.0</ele><time>2026-03-25T11:22:05.363Z</time></trkpt><trkpt lat="45.5715497" lon="9.5154837"><ele>159.5</ele><time>2026-03-25T11:22:06.362Z</time></trkpt><trkpt lat="45.5716059" lon="9.5156279"><ele>159.0</ele><time>2026-03-25T11:22:07.363Z</time></trkpt><trkpt lat="45.5716615" lon="9.5157722"><ele>158.5</ele><time>2026-03-25T11:22:08.363Z</time></trkpt><trkpt lat="45.571716" lon="9.5159137"><ele>158.0</ele><time>2026-03-25T11:22:09.363Z</time></trkpt><trkpt lat="45.5717663" lon="9.5160536"><ele>158.0</ele><time>2026-03-25T11:22:10.362Z</time></trkpt><trkpt lat="45.5718206" lon="9.5161879"><ele>158.0</ele><time>2026-03-25T11:22:11.362Z</time></trkpt><trkpt lat="45.571864" lon="9.516319"><ele>158.0</ele><time>2026-03-25T11:22:12.364Z</time></trkpt><trkpt lat="45.5719056" lon="9.5164429"><ele>158.0</ele><time>2026-03-25T11:22:13.363Z</time></trkpt><trkpt lat="45.5719311" lon="9.5165666"><ele>158.0</ele><time>2026-03-25T11:22:14.362Z</time></trkpt><trkpt lat="45.5719462" lon="9.5166849"><ele>158.16666666666666</ele><time>2026-03-25T11:22:15.362Z</time></trkpt><trkpt lat="45.571962" lon="9.5167961"><ele>158.33333333333331</ele><time>2026-03-25T11:22:16.362Z</time></trkpt><trkpt lat="45.5720014" lon="9.5168925"><ele>158.5</ele><time>2026-03-25T11:22:17.363Z</time></trkpt><trkpt lat="45.572054" lon="9.5169792"><ele>158.66666666666666</ele><time>2026-03-25T11:22:18.363Z</time></trkpt><trkpt lat="45.5721152" lon="9.5170687"><ele>158.83333333333334</ele><time>2026-03-25T11:22:19.363Z</time></trkpt><trkpt lat="45.5721758" lon="9.5171621"><ele>159.0</ele><time>2026-03-25T11:22:20.364Z</time></trkpt><trkpt lat="45.5722306" lon="9.5172657"><ele>159.4</ele><time>2026-03-25T11:22:21.363Z</time></trkpt><trkpt lat="45.572276" lon="9.5173858"><ele>159.8</ele><time>2026-03-25T11:22:22.363Z</time></trkpt><trkpt lat="45.5723251" lon="9.5175091"><ele>160.20000000000002</ele><time>2026-03-25T11:22:23.362Z</time></trkpt><trkpt lat="45.5723753" lon="9.5176324"><ele>160.60000000000002</ele><time>2026-03-25T11:22:24.362Z</time></trkpt><trkpt lat="45.5724245" lon="9.5177577"><ele>161.0</ele><time>2026-03-25T11:22:25.363Z</time></trkpt><trkpt lat="45.5724753" lon="9.5178815"><ele>160.8</ele><time>2026-03-25T11:22:26.362Z</time></trkpt><trkpt lat="45.5725239" lon="9.5180102"><ele>160.60000000000002</ele><time>2026-03-25T11:22:27.364Z</time></trkpt><trkpt lat="45.5725724" lon="9.5181436"><ele>160.4</ele><time>2026-03-25T11:22:28.363Z</time></trkpt><trkpt lat="45.5726173" lon="9.5182809"><ele>160.2</ele><time>2026-03-25T11:22:29.362Z</time></trkpt><trkpt lat="45.5726649" lon="9.518417"><ele>160.0</ele><time>2026-03-25T11:22:30.361Z</time></trkpt><trkpt lat="45.5727179" lon="9.5185524"><ele>160.0</ele><time>2026-03-25T11:22:31.361Z</time></trkpt><trkpt lat="45.5727694" lon="9.5186865"><ele>160.0</ele><time>2026-03-25T11:22:32.364Z</time></trkpt><trkpt lat="45.5728198" lon="9.5188086"><ele>160.0</ele><time>2026-03-25T11:22:33.363Z</time></trkpt><trkpt lat="45.5728601" lon="9.518933"><ele>160.0</ele><time>2026-03-25T11:22:34.361Z</time></trkpt><trkpt lat="45.5729049" lon="9.5190485"><ele>160.0</ele><time>2026-03-25T11:22:35.363Z</time></trkpt><trkpt lat="45.5729461" lon="9.5191637"><ele>160.16666666666669</ele><time>2026-03-25T11:22:36.364Z</time></trkpt><trkpt lat="45.5729793" lon="9.5192694"><ele>160.33333333333334</ele><time>2026-03-25T11:22:37.363Z</time></trkpt><trkpt lat="45.5730063" lon="9.5193681"><ele>160.5</ele><time>2026-03-25T11:22:38.362Z</time></trkpt><trkpt lat="45.5730424" lon="9.5195122"><ele>160.66666666666666</ele><time>2026-03-25T11:22:40.364Z</time></trkpt><trkpt lat="45.5730683" lon="9.5196243"><ele>160.83333333333331</ele><time>2026-03-25T11:22:43.363Z</time></trkpt><trkpt lat="45.5730797" lon="9.5197422"><ele>161.0</ele><time>2026-03-25T11:22:46.362Z</time></trkpt><trkpt lat="45.5730559" lon="9.5198387"><ele>161.0</ele><time>2026-03-25T11:22:49.361Z</time></trkpt><trkpt lat="45.5730148" lon="9.5199632"><ele>161.0</ele><time>2026-03-25T11:22:53.363Z</time></trkpt><trkpt lat="45.5729541" lon="9.520087"><ele>161.0</ele><time>2026-03-25T11:22:55.363Z</time></trkpt><trkpt lat="45.5729255" lon="9.5201688"><ele>161.0</ele><time>2026-03-25T11:22:56.363Z</time></trkpt><trkpt lat="45.5729048" lon="9.520254"><ele>161.0</ele><time>2026-03-25T11:22:57.363Z</time></trkpt><trkpt lat="45.5729019" lon="9.5203514"><ele>161.0</ele><time>2026-03-25T11:22:58.362Z</time></trkpt><trkpt lat="45.5729171" lon="9.5204582"><ele>161.0</ele><time>2026-03-25T11:22:59.363Z</time></trkpt><trkpt lat="45.5729482" lon="9.5205511"><ele>161.0</ele><time>2026-03-25T11:23:00.362Z</time></trkpt><trkpt lat="45.5729986" lon="9.5206307"><ele>161.0</ele><time>2026-03-25T11:23:01.362Z</time></trkpt><trkpt lat="45.5730599" lon="9.5206859"><ele>161.0</ele><time>2026-03-25T11:23:02.362Z</time></trkpt><trkpt lat="45.5731303" lon="9.5207112"><ele>161.0</ele><time>2026-03-25T11:23:03.362Z</time></trkpt><trkpt lat="45.5732057" lon="9.5207251"><ele>161.0</ele><time>2026-03-25T11:23:04.362Z</time></trkpt><trkpt lat="45.5732831" lon="9.5207242"><ele>161.0</ele><time>2026-03-25T11:23:05.361Z</time></trkpt><trkpt lat="45.5733513" lon="9.520727"><ele>161.0</ele><time>2026-03-25T11:23:06.361Z</time></trkpt><trkpt lat="45.5734676" lon="9.5207486"><ele>161.0</ele><time>2026-03-25T11:23:08.363Z</time></trkpt><trkpt lat="45.5735499" lon="9.5208798"><ele>161.0</ele><time>2026-03-25T11:23:10.363Z</time></trkpt><trkpt lat="45.5735874" lon="9.5209609"><ele>161.0</ele><time>2026-03-25T11:23:11.363Z</time></trkpt><trkpt lat="45.5736275" lon="9.52105"><ele>161.0</ele><time>2026-03-25T11:23:12.362Z</time></trkpt><trkpt lat="45.5736661" lon="9.5211437"><ele>161.5</ele><time>2026-03-25T11:23:13.362Z</time></trkpt><trkpt lat="45.5737072" lon="9.5212414"><ele>162.0</ele><time>2026-03-25T11:23:14.363Z</time></trkpt><trkpt lat="45.573749" lon="9.5213408"><ele>162.5</ele><time>2026-03-25T11:23:15.362Z</time></trkpt><trkpt lat="45.5737919" lon="9.5214477"><ele>163.0</ele><time>2026-03-25T11:23:16.363Z</time></trkpt><trkpt lat="45.5738361" lon="9.5215602"><ele>163.5</ele><time>2026-03-25T11:23:17.361Z</time></trkpt><trkpt lat="45.5738803" lon="9.5216789"><ele>164.0</ele><time>2026-03-25T11:23:18.362Z</time></trkpt><trkpt lat="45.573929" lon="9.5218031"><ele>164.0</ele><time>2026-03-25T11:23:19.363Z</time></trkpt><trkpt lat="45.5739725" lon="9.5219266"><ele>164.0</ele><time>2026-03-25T11:23:20.363Z</time></trkpt><trkpt lat="45.5740195" lon="9.5220502"><ele>164.0</ele><time>2026-03-25T11:23:21.361Z</time></trkpt><trkpt lat="45.5740671" lon="9.5221821"><ele>164.0</ele><time>2026-03-25T11:23:22.361Z</time></trkpt><trkpt lat="45.5741107" lon="9.5223146"><ele>164.0</ele><time>2026-03-25T11:23:23.361Z</time></trkpt><trkpt lat="45.5741578" lon="9.52245"><ele>164.0</ele><time>2026-03-25T11:23:24.362Z</time></trkpt><trkpt lat="45.5742101" lon="9.5225823"><ele>164.0</ele><time>2026-03-25T11:23:25.363Z</time></trkpt><trkpt lat="45.5742639" lon="9.5227197"><ele>164.0</ele><time>2026-03-25T11:23:26.362Z</time></trkpt><trkpt lat="45.5743194" lon="9.5228516"><ele>164.0</ele><time>2026-03-25T11:23:27.364Z</time></trkpt><trkpt lat="45.5743745" lon="9.5229859"><ele>164.0</ele><time>2026-03-25T11:23:28.363Z</time></trkpt><trkpt lat="45.5744252" lon="9.5231204"><ele>164.0</ele><time>2026-03-25T11:23:29.363Z</time></trkpt><trkpt lat="45.5744762" lon="9.523254"><ele>164.0</ele><time>2026-03-25T11:23:30.361Z</time></trkpt><trkpt lat="45.5745223" lon="9.5233886"><ele>164.0</ele><time>2026-03-25T11:23:31.364Z</time></trkpt><trkpt lat="45.5745724" lon="9.5235204"><ele>164.0</ele><time>2026-03-25T11:23:32.361Z</time></trkpt><trkpt lat="45.5746252" lon="9.5236552"><ele>164.0</ele><time>2026-03-25T11:23:33.362Z</time></trkpt><trkpt lat="45.574678" lon="9.5237925"><ele>163.79999999999998</ele><time>2026-03-25T11:23:34.362Z</time></trkpt><trkpt lat="45.5747289" lon="9.5239362"><ele>163.6</ele><time>2026-03-25T11:23:35.362Z</time></trkpt><trkpt lat="45.5747793" lon="9.5240674"><ele>163.4</ele><time>2026-03-25T11:23:36.363Z</time></trkpt><trkpt lat="45.5748327" lon="9.5241956"><ele>163.2</ele><time>2026-03-25T11:23:37.362Z</time></trkpt><trkpt lat="45.5748856" lon="9.5243199"><ele>163.0</ele><time>2026-03-25T11:23:38.363Z</time></trkpt><trkpt lat="45.5749342" lon="9.5244405"><ele>163.0</ele><time>2026-03-25T11:23:39.364Z</time></trkpt><trkpt lat="45.5749808" lon="9.5245592"><ele>163.0</ele><time>2026-03-25T11:23:40.364Z</time></trkpt><trkpt lat="45.5750248" lon="9.5246743"><ele>163.0</ele><time>2026-03-25T11:23:41.362Z</time></trkpt><trkpt lat="45.5750695" lon="9.5247804"><ele>163.0</ele><time>2026-03-25T11:23:42.363Z</time></trkpt><trkpt lat="45.5751027" lon="9.5248733"><ele>163.0</ele><time>2026-03-25T11:23:43.363Z</time></trkpt><trkpt lat="45.5751357" lon="9.5249575"><ele>163.0</ele><time>2026-03-25T11:23:44.362Z</time></trkpt><trkpt lat="45.5751566" lon="9.5250489"><ele>162.8</ele><time>2026-03-25T11:23:45.363Z</time></trkpt><trkpt lat="45.5751493" lon="9.5252185"><ele>162.60000000000002</ele><time>2026-03-25T11:23:47.362Z</time></trkpt><trkpt lat="45.5752039" lon="9.5253682"><ele>162.39999999999998</ele><time>2026-03-25T11:23:49.364Z</time></trkpt><trkpt lat="45.5752616" lon="9.5254281"><ele>162.2</ele><time>2026-03-25T11:23:50.363Z</time></trkpt><trkpt lat="45.5753217" lon="9.5255049"><ele>162.0</ele><time>2026-03-25T11:23:51.362Z</time></trkpt><trkpt lat="45.5753708" lon="9.5255995"><ele>161.66666666666666</ele><time>2026-03-25T11:23:52.362Z</time></trkpt><trkpt lat="45.5754117" lon="9.5257035"><ele>161.33333333333334</ele><time>2026-03-25T11:23:53.361Z</time></trkpt><trkpt lat="45.5754516" lon="9.5258059"><ele>161.0</ele><time>2026-03-25T11:23:54.362Z</time></trkpt><trkpt lat="45.5754909" lon="9.525914"><ele>160.66666666666669</ele><time>2026-03-25T11:23:55.363Z</time></trkpt><trkpt lat="45.5755312" lon="9.5260248"><ele>160.33333333333334</ele><time>2026-03-25T11:23:56.364Z</time></trkpt><trkpt lat="45.5755726" lon="9.52613"><ele>160.0</ele><time>2026-03-25T11:23:57.363Z</time></trkpt><trkpt lat="45.5756151" lon="9.5262371"><ele>160.0</ele><time>2026-03-25T11:23:58.361Z</time></trkpt><trkpt lat="45.5756549" lon="9.5263442"><ele>160.0</ele><time>2026-03-25T11:23:59.363Z</time></trkpt><trkpt lat="45.5756951" lon="9.5264492"><ele>160.0</ele><time>2026-03-25T11:24:00.362Z</time></trkpt><trkpt lat="45.5757351" lon="9.5265417"><ele>160.0</ele><time>2026-03-25T11:24:01.363Z</time></trkpt><trkpt lat="45.5757703" lon="9.5266364"><ele>160.0</ele><time>2026-03-25T11:24:02.362Z</time></trkpt><trkpt lat="45.5758078" lon="9.5267428"><ele>160.0</ele><time>2026-03-25T11:24:03.363Z</time></trkpt><trkpt lat="45.5758446" lon="9.526845"><ele>160.0</ele><time>2026-03-25T11:24:04.362Z</time></trkpt><trkpt lat="45.5758871" lon="9.5269409"><ele>160.0</ele><time>2026-03-25T11:24:05.364Z</time></trkpt><trkpt lat="45.5759215" lon="9.5270357"><ele>160.0</ele><time>2026-03-25T11:24:06.361Z</time></trkpt><trkpt lat="45.5759581" lon="9.5271378"><ele>160.0</ele><time>2026-03-25T11:24:07.361Z</time></trkpt><trkpt lat="45.5759968" lon="9.5272359"><ele>160.0</ele><time>2026-03-25T11:24:08.363Z</time></trkpt><trkpt lat="45.5760327" lon="9.5273352"><ele>160.0</ele><time>2026-03-25T11:24:09.362Z</time></trkpt><trkpt lat="45.576072" lon="9.5274428"><ele>160.0</ele><time>2026-03-25T11:24:10.362Z</time></trkpt><trkpt lat="45.5761114" lon="9.5275451"><ele>160.0</ele><time>2026-03-25T11:24:11.362Z</time></trkpt><trkpt lat="45.5761506" lon="9.5276503"><ele>160.0</ele><time>2026-03-25T11:24:12.362Z</time></trkpt><trkpt lat="45.5761924" lon="9.527757"><ele>160.0</ele><time>2026-03-25T11:24:13.363Z</time></trkpt><trkpt lat="45.576233" lon="9.5278692"><ele>160.0</ele><time>2026-03-25T11:24:14.362Z</time></trkpt><trkpt lat="45.5762743" lon="9.5279773"><ele>160.0</ele><time>2026-03-25T11:24:15.363Z</time></trkpt><trkpt lat="45.5763202" lon="9.5280816"><ele>160.2</ele><time>2026-03-25T11:24:16.364Z</time></trkpt><trkpt lat="45.5763621" lon="9.5281923"><ele>160.4</ele><time>2026-03-25T11:24:17.362Z</time></trkpt><trkpt lat="45.5764053" lon="9.5282967"><ele>160.60000000000002</ele><time>2026-03-25T11:24:18.363Z</time></trkpt><trkpt lat="45.5764408" lon="9.5283967"><ele>160.8</ele><time>2026-03-25T11:24:19.361Z</time></trkpt><trkpt lat="45.5764946" lon="9.5285367"><ele>161.0</ele><time>2026-03-25T11:24:21.363Z</time></trkpt><trkpt lat="45.5765568" lon="9.5286821"><ele>161.16666666666666</ele><time>2026-03-25T11:24:23.361Z</time></trkpt><trkpt lat="45.5765927" lon="9.5287651"><ele>161.33333333333331</ele><time>2026-03-25T11:24:24.362Z</time></trkpt><trkpt lat="45.5766344" lon="9.5288481"><ele>161.5</ele><time>2026-03-25T11:24:25.363Z</time></trkpt><trkpt lat="45.5766764" lon="9.5289314"><ele>161.66666666666666</ele><time>2026-03-25T11:24:26.362Z</time></trkpt><trkpt lat="45.5767099" lon="9.5290113"><ele>161.83333333333334</ele><time>2026-03-25T11:24:27.363Z</time></trkpt><trkpt lat="45.5767427" lon="9.5290945"><ele>162.0</ele><time>2026-03-25T11:24:28.362Z</time></trkpt><trkpt lat="45.5767654" lon="9.5292698"><ele>162.0</ele><time>2026-03-25T11:24:30.362Z</time></trkpt><trkpt lat="45.5767555" lon="9.5293595"><ele>162.0</ele><time>2026-03-25T11:24:31.364Z</time></trkpt><trkpt lat="45.5767406" lon="9.529453"><ele>162.0</ele><time>2026-03-25T11:24:32.363Z</time></trkpt><trkpt lat="45.5767261" lon="9.5295516"><ele>162.0</ele><time>2026-03-25T11:24:33.363Z</time></trkpt><trkpt lat="45.5767233" lon="9.5296468"><ele>162.0</ele><time>2026-03-25T11:24:34.363Z</time></trkpt><trkpt lat="45.5767757" lon="9.5298185"><ele>162.0</ele><time>2026-03-25T11:24:36.361Z</time></trkpt><trkpt lat="45.5768254" lon="9.5298892"><ele>162.16666666666666</ele><time>2026-03-25T11:24:37.361Z</time></trkpt><trkpt lat="45.5768807" lon="9.5299534"><ele>162.33333333333334</ele><time>2026-03-25T11:24:38.364Z</time></trkpt><trkpt lat="45.5769442" lon="9.5300184"><ele>162.5</ele><time>2026-03-25T11:24:39.361Z</time></trkpt><trkpt lat="45.5770047" lon="9.5300853"><ele>162.66666666666669</ele><time>2026-03-25T11:24:40.363Z</time></trkpt><trkpt lat="45.5770656" lon="9.5301486"><ele>162.83333333333334</ele><time>2026-03-25T11:24:41.363Z</time></trkpt><trkpt lat="45.5771251" lon="9.5302176"><ele>163.0</ele><time>2026-03-25T11:24:42.362Z</time></trkpt><trkpt lat="45.5771865" lon="9.5302869"><ele>163.16666666666669</ele><time>2026-03-25T11:24:43.363Z</time></trkpt><trkpt lat="45.5772522" lon="9.5303493"><ele>163.33333333333334</ele><time>2026-03-25T11:24:44.362Z</time></trkpt><trkpt lat="45.5773182" lon="9.5304141"><ele>163.5</ele><time>2026-03-25T11:24:45.363Z</time></trkpt><trkpt lat="45.5773836" lon="9.5304848"><ele>163.66666666666666</ele><time>2026-03-25T11:24:46.362Z</time></trkpt><trkpt lat="45.5774492" lon="9.5305559"><ele>163.83333333333331</ele><time>2026-03-25T11:24:47.362Z</time></trkpt><trkpt lat="45.5775182" lon="9.5306274"><ele>164.0</ele><time>2026-03-25T11:24:48.363Z</time></trkpt><trkpt lat="45.5775855" lon="9.5306941"><ele>163.66666666666666</ele><time>2026-03-25T11:24:49.362Z</time></trkpt><trkpt lat="45.5776468" lon="9.5307614"><ele>163.33333333333331</ele><time>2026-03-25T11:24:50.362Z</time></trkpt><trkpt lat="45.5777124" lon="9.5308277"><ele>163.0</ele><time>2026-03-25T11:24:51.362Z</time></trkpt><trkpt lat="45.5777772" lon="9.5308983"><ele>162.66666666666666</ele><time>2026-03-25T11:24:52.363Z</time></trkpt><trkpt lat="45.5778427" lon="9.530969"><ele>162.33333333333334</ele><time>2026-03-25T11:24:53.363Z</time></trkpt><trkpt lat="45.5779096" lon="9.5310363"><ele>162.0</ele><time>2026-03-25T11:24:54.363Z</time></trkpt><trkpt lat="45.5779776" lon="9.5311031"><ele>162.0</ele><time>2026-03-25T11:24:55.362Z</time></trkpt><trkpt lat="45.5780449" lon="9.5311742"><ele>162.0</ele><time>2026-03-25T11:24:56.363Z</time></trkpt><trkpt lat="45.5781141" lon="9.5312432"><ele>162.0</ele><time>2026-03-25T11:24:57.362Z</time></trkpt><trkpt lat="45.5781803" lon="9.5313109"><ele>162.0</ele><time>2026-03-25T11:24:58.363Z</time></trkpt><trkpt lat="45.5782442" lon="9.5313749"><ele>162.0</ele><time>2026-03-25T11:24:59.363Z</time></trkpt><trkpt lat="45.5783094" lon="9.5314437"><ele>162.0</ele><time>2026-03-25T11:25:00.363Z</time></trkpt><trkpt lat="45.5783739" lon="9.5315119"><ele>162.0</ele><time>2026-03-25T11:25:01.362Z</time></trkpt><trkpt lat="45.5784387" lon="9.5315815"><ele>162.0</ele><time>2026-03-25T11:25:02.363Z</time></trkpt><trkpt lat="45.5785051" lon="9.531655"><ele>162.0</ele><time>2026-03-25T11:25:03.362Z</time></trkpt><trkpt lat="45.5785686" lon="9.531729"><ele>162.0</ele><time>2026-03-25T11:25:04.363Z</time></trkpt><trkpt lat="45.5786286" lon="9.5317976"><ele>162.0</ele><time>2026-03-25T11:25:05.362Z</time></trkpt><trkpt lat="45.5786836" lon="9.5318649"><ele>162.0</ele><time>2026-03-25T11:25:06.362Z</time></trkpt><trkpt lat="45.5787378" lon="9.5319266"><ele>162.0</ele><time>2026-03-25T11:25:07.362Z</time></trkpt><trkpt lat="45.5787734" lon="9.5320037"><ele>162.0</ele><time>2026-03-25T11:25:08.363Z</time></trkpt><trkpt lat="45.5788022" lon="9.5320953"><ele>162.0</ele><time>2026-03-25T11:25:09.363Z</time></trkpt><trkpt lat="45.5788176" lon="9.5322045"><ele>162.0</ele><time>2026-03-25T11:25:10.363Z</time></trkpt><trkpt lat="45.5788254" lon="9.5323154"><ele>162.0</ele><time>2026-03-25T11:25:11.362Z</time></trkpt><trkpt lat="45.5788271" lon="9.5324254"><ele>162.0</ele><time>2026-03-25T11:25:12.363Z</time></trkpt><trkpt lat="45.5788288" lon="9.5325341"><ele>162.0</ele><time>2026-03-25T11:25:13.363Z</time></trkpt><trkpt lat="45.5788344" lon="9.5326402"><ele>162.0</ele><time>2026-03-25T11:25:14.362Z</time></trkpt><trkpt lat="45.5788417" lon="9.5327441"><ele>162.0</ele><time>2026-03-25T11:25:15.362Z</time></trkpt><trkpt lat="45.5788492" lon="9.5328405"><ele>162.0</ele><time>2026-03-25T11:25:16.362Z</time></trkpt><trkpt lat="45.5788535" lon="9.5329362"><ele>162.0</ele><time>2026-03-25T11:25:17.362Z</time></trkpt><trkpt lat="45.5788572" lon="9.5330294"><ele>162.0</ele><time>2026-03-25T11:25:18.364Z</time></trkpt><trkpt lat="45.57885" lon="9.5331267"><ele>162.0</ele><time>2026-03-25T11:25:19.363Z</time></trkpt><trkpt lat="45.5788417" lon="9.5332224"><ele>162.0</ele><time>2026-03-25T11:25:20.364Z</time></trkpt><trkpt lat="45.5788246" lon="9.5333107"><ele>161.4</ele><time>2026-03-25T11:25:21.361Z</time></trkpt><trkpt lat="45.5787752" lon="9.5334722"><ele>160.79999999999998</ele><time>2026-03-25T11:25:23.363Z</time></trkpt><trkpt lat="45.5787865" lon="9.5336195"><ele>160.2</ele><time>2026-03-25T11:25:25.362Z</time></trkpt><trkpt lat="45.5788923" lon="9.5337059"><ele>159.6</ele><time>2026-03-25T11:25:27.362Z</time></trkpt><trkpt lat="45.5789659" lon="9.5337296"><ele>159.0</ele><time>2026-03-25T11:25:28.362Z</time></trkpt><trkpt lat="45.5790464" lon="9.5337549"><ele>159.0</ele><time>2026-03-25T11:25:29.362Z</time></trkpt><trkpt lat="45.5791276" lon="9.5337818"><ele>159.0</ele><time>2026-03-25T11:25:30.363Z</time></trkpt><trkpt lat="45.5792126" lon="9.5338049"><ele>159.0</ele><time>2026-03-25T11:25:31.363Z</time></trkpt><trkpt lat="45.5792951" lon="9.5338277"><ele>159.0</ele><time>2026-03-25T11:25:32.362Z</time></trkpt><trkpt lat="45.5793766" lon="9.5338515"><ele>159.0</ele><time>2026-03-25T11:25:33.364Z</time></trkpt><trkpt lat="45.5794562" lon="9.5338747"><ele>159.0</ele><time>2026-03-25T11:25:34.362Z</time></trkpt><trkpt lat="45.5795342" lon="9.5338975"><ele>159.0</ele><time>2026-03-25T11:25:35.362Z</time></trkpt><trkpt lat="45.5796" lon="9.533928"><ele>159.0</ele><time>2026-03-25T11:25:36.363Z</time></trkpt><trkpt lat="45.5796528" lon="9.5339926"><ele>159.0</ele><time>2026-03-25T11:25:37.363Z</time></trkpt><trkpt lat="45.5796871" lon="9.5340835"><ele>159.0</ele><time>2026-03-25T11:25:38.362Z</time></trkpt><trkpt lat="45.5796949" lon="9.5341862"><ele>159.0</ele><time>2026-03-25T11:25:39.362Z</time></trkpt><trkpt lat="45.579695" lon="9.5342811"><ele>159.0</ele><time>2026-03-25T11:25:40.362Z</time></trkpt><trkpt lat="45.579655" lon="9.5343552"><ele>159.0</ele><time>2026-03-25T11:25:41.362Z</time></trkpt><trkpt lat="45.5795963" lon="9.5344002"><ele>157.83333333333334</ele><time>2026-03-25T11:25:42.363Z</time></trkpt><trkpt lat="45.5794723" lon="9.5344307"><ele>156.66666666666666</ele><time>2026-03-25T11:25:44.363Z</time></trkpt><trkpt lat="45.5794019" lon="9.5344373"><ele>155.5</ele><time>2026-03-25T11:25:45.362Z</time></trkpt><trkpt lat="45.5793245" lon="9.5344457"><ele>154.33333333333331</ele><time>2026-03-25T11:25:46.362Z</time></trkpt><trkpt lat="45.5792403" lon="9.5344502"><ele>153.16666666666666</ele><time>2026-03-25T11:25:47.363Z</time></trkpt><trkpt lat="45.5791554" lon="9.5344542"><ele>152.0</ele><time>2026-03-25T11:25:48.363Z</time></trkpt><trkpt lat="45.5790671" lon="9.5344614"><ele>152.0</ele><time>2026-03-25T11:25:49.363Z</time></trkpt><trkpt lat="45.578981" lon="9.5344652"><ele>152.0</ele><time>2026-03-25T11:25:50.362Z</time></trkpt><trkpt lat="45.5788906" lon="9.5344764"><ele>152.0</ele><time>2026-03-25T11:25:51.362Z</time></trkpt><trkpt lat="45.5788018" lon="9.534488"><ele>152.0</ele><time>2026-03-25T11:25:52.362Z</time></trkpt><trkpt lat="45.5787119" lon="9.5344877"><ele>152.0</ele><time>2026-03-25T11:25:53.363Z</time></trkpt><trkpt lat="45.5786215" lon="9.5345006"><ele>152.0</ele><time>2026-03-25T11:25:54.363Z</time></trkpt><trkpt lat="45.5785346" lon="9.5345063"><ele>151.83333333333331</ele><time>2026-03-25T11:25:55.362Z</time></trkpt><trkpt lat="45.5784443" lon="9.5344975"><ele>151.66666666666666</ele><time>2026-03-25T11:25:56.361Z</time></trkpt><trkpt lat="45.5783539" lon="9.5344684"><ele>151.5</ele><time>2026-03-25T11:25:57.362Z</time></trkpt><trkpt lat="45.5782651" lon="9.5344557"><ele>151.33333333333334</ele><time>2026-03-25T11:25:58.362Z</time></trkpt><trkpt lat="45.5781773" lon="9.5344723"><ele>151.16666666666669</ele><time>2026-03-25T11:25:59.363Z</time></trkpt><trkpt lat="45.5780973" lon="9.5345106"><ele>151.0</ele><time>2026-03-25T11:26:00.364Z</time></trkpt><trkpt lat="45.5780216" lon="9.53455"><ele>150.16666666666669</ele><time>2026-03-25T11:26:01.363Z</time></trkpt><trkpt lat="45.5779378" lon="9.5345758"><ele>149.33333333333334</ele><time>2026-03-25T11:26:02.362Z</time></trkpt><trkpt lat="45.5778519" lon="9.5345708"><ele>148.5</ele><time>2026-03-25T11:26:03.363Z</time></trkpt><trkpt lat="45.5777654" lon="9.5345612"><ele>147.66666666666666</ele><time>2026-03-25T11:26:04.363Z</time></trkpt><trkpt lat="45.5776883" lon="9.5345352"><ele>146.83333333333331</ele><time>2026-03-25T11:26:05.363Z</time></trkpt><trkpt lat="45.5776078" lon="9.5345156"><ele>146.0</ele><time>2026-03-25T11:26:06.362Z</time></trkpt><trkpt lat="45.5775428" lon="9.5344825"><ele>146.0</ele><time>2026-03-25T11:26:07.363Z</time></trkpt><trkpt lat="45.5774784" lon="9.534451"><ele>146.0</ele><time>2026-03-25T11:26:08.363Z</time></trkpt><trkpt lat="45.5774198" lon="9.5344119"><ele>146.0</ele><time>2026-03-25T11:26:09.363Z</time></trkpt><trkpt lat="45.57731" lon="9.5343861"><ele>146.0</ele><time>2026-03-25T11:26:11.363Z</time></trkpt><trkpt lat="45.5772109" lon="9.5344622"><ele>146.0</ele><time>2026-03-25T11:26:13.363Z</time></trkpt><trkpt lat="45.5771822" lon="9.5345427"><ele>146.0</ele><time>2026-03-25T11:26:14.362Z</time></trkpt><trkpt lat="45.5771642" lon="9.5346395"><ele>143.66666666666666</ele><time>2026-03-25T11:26:15.362Z</time></trkpt><trkpt lat="45.577153" lon="9.5347471"><ele>141.33333333333331</ele><time>2026-03-25T11:26:16.363Z</time></trkpt><trkpt lat="45.5771457" lon="9.5348555"><ele>139.0</ele><time>2026-03-25T11:26:17.362Z</time></trkpt><trkpt lat="45.5771382" lon="9.5349747"><ele>136.66666666666666</ele><time>2026-03-25T11:26:18.363Z</time></trkpt><trkpt lat="45.5771317" lon="9.5351012"><ele>134.33333333333334</ele><time>2026-03-25T11:26:19.363Z</time></trkpt><trkpt lat="45.577124" lon="9.5352289"><ele>132.0</ele><time>2026-03-25T11:26:20.361Z</time></trkpt><trkpt lat="45.5771161" lon="9.5353626"><ele>132.6</ele><time>2026-03-25T11:26:21.364Z</time></trkpt><trkpt lat="45.5771037" lon="9.5354909"><ele>133.2</ele><time>2026-03-25T11:26:22.363Z</time></trkpt><trkpt lat="45.5770909" lon="9.5356219"><ele>133.8</ele><time>2026-03-25T11:26:23.363Z</time></trkpt><trkpt lat="45.5770785" lon="9.53575"><ele>134.4</ele><time>2026-03-25T11:26:24.363Z</time></trkpt><trkpt lat="45.5770676" lon="9.5358826"><ele>135.0</ele><time>2026-03-25T11:26:25.363Z</time></trkpt><trkpt lat="45.5770578" lon="9.536011"><ele>135.0</ele><time>2026-03-25T11:26:26.361Z</time></trkpt><trkpt lat="45.5770487" lon="9.5361393"><ele>135.0</ele><time>2026-03-25T11:26:27.362Z</time></trkpt><trkpt lat="45.5770348" lon="9.5362662"><ele>135.0</ele><time>2026-03-25T11:26:28.363Z</time></trkpt><trkpt lat="45.5770227" lon="9.5363922"><ele>135.0</ele><time>2026-03-25T11:26:29.363Z</time></trkpt><trkpt lat="45.5770095" lon="9.5365151"><ele>135.0</ele><time>2026-03-25T11:26:30.362Z</time></trkpt><trkpt lat="45.5769989" lon="9.5366364"><ele>135.0</ele><time>2026-03-25T11:26:31.362Z</time></trkpt><trkpt lat="45.5769835" lon="9.5367512"><ele>135.66666666666666</ele><time>2026-03-25T11:26:32.363Z</time></trkpt><trkpt lat="45.5769701" lon="9.5368766"><ele>136.33333333333334</ele><time>2026-03-25T11:26:33.361Z</time></trkpt><trkpt lat="45.57696" lon="9.5369949"><ele>137.0</ele><time>2026-03-25T11:26:34.363Z</time></trkpt><trkpt lat="45.5769402" lon="9.5371168"><ele>137.66666666666669</ele><time>2026-03-25T11:26:35.364Z</time></trkpt><trkpt lat="45.5769313" lon="9.5372408"><ele>138.33333333333334</ele><time>2026-03-25T11:26:36.363Z</time></trkpt><trkpt lat="45.5769253" lon="9.5373668"><ele>139.0</ele><time>2026-03-25T11:26:37.363Z</time></trkpt><trkpt lat="45.576923" lon="9.5374897"><ele>139.0</ele><time>2026-03-25T11:26:38.362Z</time></trkpt><trkpt lat="45.5769241" lon="9.5376088"><ele>139.0</ele><time>2026-03-25T11:26:39.363Z</time></trkpt><trkpt lat="45.5769237" lon="9.5377292"><ele>139.0</ele><time>2026-03-25T11:26:40.362Z</time></trkpt><trkpt lat="45.5769242" lon="9.5378546"><ele>139.0</ele><time>2026-03-25T11:26:41.361Z</time></trkpt><trkpt lat="45.5769249" lon="9.5379792"><ele>139.0</ele><time>2026-03-25T11:26:42.363Z</time></trkpt><trkpt lat="45.5769217" lon="9.5381086"><ele>139.0</ele><time>2026-03-25T11:26:43.362Z</time></trkpt><trkpt lat="45.5769218" lon="9.5382227"><ele>139.0</ele><time>2026-03-25T11:26:44.362Z</time></trkpt><trkpt lat="45.5769139" lon="9.5383276"><ele>139.0</ele><time>2026-03-25T11:26:45.362Z</time></trkpt><trkpt lat="45.5769186" lon="9.5384176"><ele>139.0</ele><time>2026-03-25T11:26:46.362Z</time></trkpt><trkpt lat="45.5769055" lon="9.5385581"><ele>139.0</ele><time>2026-03-25T11:26:48.362Z</time></trkpt><trkpt lat="45.5768647" lon="9.5386839"><ele>139.0</ele><time>2026-03-25T11:26:50.363Z</time></trkpt><trkpt lat="45.576874" lon="9.5388494"><ele>139.0</ele><time>2026-03-25T11:26:52.362Z</time></trkpt><trkpt lat="45.5768897" lon="9.5389419"><ele>139.0</ele><time>2026-03-25T11:26:53.363Z</time></trkpt><trkpt lat="45.5769046" lon="9.5390402"><ele>139.0</ele><time>2026-03-25T11:26:54.362Z</time></trkpt><trkpt lat="45.5769181" lon="9.5391477"><ele>139.0</ele><time>2026-03-25T11:26:55.363Z</time></trkpt><trkpt lat="45.5769337" lon="9.539256"><ele>139.0</ele><time>2026-03-25T11:26:56.363Z</time></trkpt><trkpt lat="45.5769492" lon="9.5393683"><ele>139.0</ele><time>2026-03-25T11:26:57.363Z</time></trkpt><trkpt lat="45.5769666" lon="9.5394861"><ele>139.0</ele><time>2026-03-25T11:26:58.364Z</time></trkpt><trkpt lat="45.5769805" lon="9.5396009"><ele>139.16666666666669</ele><time>2026-03-25T11:26:59.363Z</time></trkpt><trkpt lat="45.5769972" lon="9.5397233"><ele>139.33333333333334</ele><time>2026-03-25T11:27:00.363Z</time></trkpt><trkpt lat="45.5770123" lon="9.5398404"><ele>139.5</ele><time>2026-03-25T11:27:01.364Z</time></trkpt><trkpt lat="45.5770277" lon="9.5399665"><ele>139.66666666666666</ele><time>2026-03-25T11:27:02.362Z</time></trkpt><trkpt lat="45.5770407" lon="9.5400952"><ele>139.83333333333331</ele><time>2026-03-25T11:27:03.363Z</time></trkpt><trkpt lat="45.5770581" lon="9.5402261"><ele>140.0</ele><time>2026-03-25T11:27:04.363Z</time></trkpt><trkpt lat="45.5770739" lon="9.5403465"><ele>139.8</ele><time>2026-03-25T11:27:05.363Z</time></trkpt><trkpt lat="45.5770911" lon="9.5404707"><ele>139.6</ele><time>2026-03-25T11:27:06.364Z</time></trkpt><trkpt lat="45.5771083" lon="9.540601"><ele>139.4</ele><time>2026-03-25T11:27:07.364Z</time></trkpt><trkpt lat="45.5771255" lon="9.5407371"><ele>139.2</ele><time>2026-03-25T11:27:08.363Z</time></trkpt><trkpt lat="45.5771443" lon="9.540872"><ele>139.0</ele><time>2026-03-25T11:27:09.363Z</time></trkpt><trkpt lat="45.5771617" lon="9.5410108"><ele>139.0</ele><time>2026-03-25T11:27:10.362Z</time></trkpt><trkpt lat="45.577181" lon="9.5411458"><ele>139.0</ele><time>2026-03-25T11:27:11.363Z</time></trkpt><trkpt lat="45.5771989" lon="9.5412827"><ele>139.0</ele><time>2026-03-25T11:27:12.363Z</time></trkpt><trkpt lat="45.5772134" lon="9.5414191"><ele>139.0</ele><time>2026-03-25T11:27:13.364Z</time></trkpt><trkpt lat="45.5772298" lon="9.5415526"><ele>139.0</ele><time>2026-03-25T11:27:14.364Z</time></trkpt><trkpt lat="45.5772487" lon="9.5416873"><ele>139.0</ele><time>2026-03-25T11:27:15.361Z</time></trkpt><trkpt lat="45.5772683" lon="9.5418157"><ele>139.0</ele><time>2026-03-25T11:27:16.361Z</time></trkpt><trkpt lat="45.5772841" lon="9.5419578"><ele>139.0</ele><time>2026-03-25T11:27:17.364Z</time></trkpt><trkpt lat="45.5772988" lon="9.5421005"><ele>139.0</ele><time>2026-03-25T11:27:18.361Z</time></trkpt><trkpt lat="45.5773231" lon="9.5422427"><ele>139.0</ele><time>2026-03-25T11:27:19.363Z</time></trkpt><trkpt lat="45.5773421" lon="9.5423848"><ele>139.2</ele><time>2026-03-25T11:27:20.362Z</time></trkpt><trkpt lat="45.5773588" lon="9.5425262"><ele>139.4</ele><time>2026-03-25T11:27:21.363Z</time></trkpt><trkpt lat="45.5773792" lon="9.5426648"><ele>139.6</ele><time>2026-03-25T11:27:22.363Z</time></trkpt><trkpt lat="45.5774005" lon="9.5428082"><ele>139.8</ele><time>2026-03-25T11:27:23.363Z</time></trkpt><trkpt lat="45.5774219" lon="9.542956"><ele>140.0</ele><time>2026-03-25T11:27:24.362Z</time></trkpt><trkpt lat="45.5774436" lon="9.5430987"><ele>140.0</ele><time>2026-03-25T11:27:25.363Z</time></trkpt><trkpt lat="45.5774589" lon="9.5432466"><ele>140.0</ele><time>2026-03-25T11:27:26.362Z</time></trkpt><trkpt lat="45.5774745" lon="9.5433945"><ele>140.0</ele><time>2026-03-25T11:27:27.361Z</time></trkpt><trkpt lat="45.5774927" lon="9.5435387"><ele>140.0</ele><time>2026-03-25T11:27:28.362Z</time></trkpt><trkpt lat="45.5775126" lon="9.5436804"><ele>140.0</ele><time>2026-03-25T11:27:29.364Z</time></trkpt><trkpt lat="45.5775326" lon="9.5438244"><ele>140.0</ele><time>2026-03-25T11:27:30.361Z</time></trkpt><trkpt lat="45.5775557" lon="9.5439683"><ele>140.0</ele><time>2026-03-25T11:27:31.364Z</time></trkpt><trkpt lat="45.5775766" lon="9.544108"><ele>140.0</ele><time>2026-03-25T11:27:32.362Z</time></trkpt><trkpt lat="45.5775967" lon="9.5442518"><ele>140.0</ele><time>2026-03-25T11:27:33.361Z</time></trkpt><trkpt lat="45.5776162" lon="9.5443937"><ele>140.0</ele><time>2026-03-25T11:27:34.363Z</time></trkpt><trkpt lat="45.577633" lon="9.5445386"><ele>140.0</ele><time>2026-03-25T11:27:35.364Z</time></trkpt><trkpt lat="45.5776543" lon="9.544686"><ele>140.0</ele><time>2026-03-25T11:27:36.363Z</time></trkpt><trkpt lat="45.5776749" lon="9.54483"><ele>140.0</ele><time>2026-03-25T11:27:37.363Z</time></trkpt><trkpt lat="45.5776981" lon="9.544974"><ele>140.0</ele><time>2026-03-25T11:27:38.363Z</time></trkpt><trkpt lat="45.5777199" lon="9.5451192"><ele>140.0</ele><time>2026-03-25T11:27:39.363Z</time></trkpt><trkpt lat="45.577738" lon="9.5452649"><ele>140.0</ele><time>2026-03-25T11:27:40.364Z</time></trkpt><trkpt lat="45.5777556" lon="9.5454139"><ele>140.0</ele><time>2026-03-25T11:27:41.363Z</time></trkpt><trkpt lat="45.5777726" lon="9.545561"><ele>140.0</ele><time>2026-03-25T11:27:42.364Z</time></trkpt><trkpt lat="45.5777896" lon="9.5457083"><ele>140.0</ele><time>2026-03-25T11:27:43.362Z</time></trkpt><trkpt lat="45.5778083" lon="9.5458527"><ele>140.0</ele><time>2026-03-25T11:27:44.363Z</time></trkpt><trkpt lat="45.5778265" lon="9.5459959"><ele>140.0</ele><time>2026-03-25T11:27:45.363Z</time></trkpt><trkpt lat="45.5778446" lon="9.5461417"><ele>140.0</ele><time>2026-03-25T11:27:46.363Z</time></trkpt><trkpt lat="45.5778662" lon="9.5462874"><ele>140.0</ele><time>2026-03-25T11:27:47.363Z</time></trkpt><trkpt lat="45.5778836" lon="9.5464366"><ele>140.0</ele><time>2026-03-25T11:27:48.362Z</time></trkpt><trkpt lat="45.5779025" lon="9.5465837"><ele>140.0</ele><time>2026-03-25T11:27:49.362Z</time></trkpt><trkpt lat="45.5779223" lon="9.5467313"><ele>140.4</ele><time>2026-03-25T11:27:50.364Z</time></trkpt><trkpt lat="45.5779412" lon="9.5468811"><ele>140.8</ele><time>2026-03-25T11:27:51.361Z</time></trkpt><trkpt lat="45.5779601" lon="9.5470312"><ele>141.2</ele><time>2026-03-25T11:27:52.363Z</time></trkpt><trkpt lat="45.5779806" lon="9.5471804"><ele>141.6</ele><time>2026-03-25T11:27:53.362Z</time></trkpt><trkpt lat="45.5780004" lon="9.54733"><ele>142.0</ele><time>2026-03-25T11:27:54.363Z</time></trkpt><trkpt lat="45.578021" lon="9.5474783"><ele>142.0</ele><time>2026-03-25T11:27:55.362Z</time></trkpt><trkpt lat="45.5780388" lon="9.547632"><ele>142.0</ele><time>2026-03-25T11:27:56.363Z</time></trkpt><trkpt lat="45.5780578" lon="9.5477863"><ele>142.0</ele><time>2026-03-25T11:27:57.362Z</time></trkpt><trkpt lat="45.5780779" lon="9.5479412"><ele>142.0</ele><time>2026-03-25T11:27:58.361Z</time></trkpt><trkpt lat="45.578103" lon="9.5480957"><ele>142.0</ele><time>2026-03-25T11:27:59.362Z</time></trkpt><trkpt lat="45.5781265" lon="9.5482507"><ele>142.2</ele><time>2026-03-25T11:28:00.363Z</time></trkpt><trkpt lat="45.5781485" lon="9.5484065"><ele>142.39999999999998</ele><time>2026-03-25T11:28:01.364Z</time></trkpt><trkpt lat="45.5781697" lon="9.5485656"><ele>142.60000000000002</ele><time>2026-03-25T11:28:02.362Z</time></trkpt><trkpt lat="45.5781904" lon="9.5487237"><ele>142.8</ele><time>2026-03-25T11:28:03.363Z</time></trkpt><trkpt lat="45.5782107" lon="9.5488809"><ele>143.0</ele><time>2026-03-25T11:28:04.363Z</time></trkpt><trkpt lat="45.5782291" lon="9.5490393"><ele>143.0</ele><time>2026-03-25T11:28:05.363Z</time></trkpt><trkpt lat="45.578249" lon="9.5491999"><ele>143.0</ele><time>2026-03-25T11:28:06.364Z</time></trkpt><trkpt lat="45.5782708" lon="9.5493596"><ele>143.0</ele><time>2026-03-25T11:28:07.363Z</time></trkpt><trkpt lat="45.5782944" lon="9.5495149"><ele>143.0</ele><time>2026-03-25T11:28:08.362Z</time></trkpt><trkpt lat="45.5783162" lon="9.5496724"><ele>143.0</ele><time>2026-03-25T11:28:09.362Z</time></trkpt><trkpt lat="45.5783353" lon="9.5498284"><ele>143.0</ele><time>2026-03-25T11:28:10.363Z</time></trkpt><trkpt lat="45.5783564" lon="9.5499854"><ele>143.0</ele><time>2026-03-25T11:28:11.361Z</time></trkpt><trkpt lat="45.5783767" lon="9.5501431"><ele>143.0</ele><time>2026-03-25T11:28:12.364Z</time></trkpt><trkpt lat="45.5783978" lon="9.5502976"><ele>143.0</ele><time>2026-03-25T11:28:13.361Z</time></trkpt><trkpt lat="45.5784192" lon="9.5504567"><ele>143.0</ele><time>2026-03-25T11:28:14.362Z</time></trkpt><trkpt lat="45.5784372" lon="9.5506138"><ele>143.0</ele><time>2026-03-25T11:28:15.363Z</time></trkpt><trkpt lat="45.5784566" lon="9.5507722"><ele>143.0</ele><time>2026-03-25T11:28:16.363Z</time></trkpt><trkpt lat="45.5784806" lon="9.5509307"><ele>143.0</ele><time>2026-03-25T11:28:17.364Z</time></trkpt><trkpt lat="45.5785032" lon="9.5510898"><ele>143.0</ele><time>2026-03-25T11:28:18.362Z</time></trkpt><trkpt lat="45.5785223" lon="9.5512462"><ele>143.0</ele><time>2026-03-25T11:28:19.363Z</time></trkpt><trkpt lat="45.5785364" lon="9.5514036"><ele>143.0</ele><time>2026-03-25T11:28:20.363Z</time></trkpt><trkpt lat="45.5785564" lon="9.5515613"><ele>143.0</ele><time>2026-03-25T11:28:21.362Z</time></trkpt><trkpt lat="45.5785736" lon="9.5517187"><ele>143.0</ele><time>2026-03-25T11:28:22.363Z</time></trkpt><trkpt lat="45.578596" lon="9.5518766"><ele>143.0</ele><time>2026-03-25T11:28:23.362Z</time></trkpt><trkpt lat="45.578615" lon="9.5520334"><ele>143.0</ele><time>2026-03-25T11:28:24.363Z</time></trkpt><trkpt lat="45.5786344" lon="9.5521912"><ele>143.0</ele><time>2026-03-25T11:28:25.363Z</time></trkpt><trkpt lat="45.5786533" lon="9.5523483"><ele>143.0</ele><time>2026-03-25T11:28:26.363Z</time></trkpt><trkpt lat="45.5786759" lon="9.5525027"><ele>143.0</ele><time>2026-03-25T11:28:27.363Z</time></trkpt><trkpt lat="45.5786953" lon="9.5526561"><ele>142.8</ele><time>2026-03-25T11:28:28.364Z</time></trkpt><trkpt lat="45.5787156" lon="9.5528092"><ele>142.60000000000002</ele><time>2026-03-25T11:28:29.363Z</time></trkpt><trkpt lat="45.5787372" lon="9.5529648"><ele>142.39999999999998</ele><time>2026-03-25T11:28:30.364Z</time></trkpt><trkpt lat="45.5787606" lon="9.5531181"><ele>142.2</ele><time>2026-03-25T11:28:31.363Z</time></trkpt><trkpt lat="45.5787833" lon="9.5532765"><ele>142.0</ele><time>2026-03-25T11:28:32.363Z</time></trkpt><trkpt lat="45.5787966" lon="9.5534348"><ele>142.0</ele><time>2026-03-25T11:28:33.361Z</time></trkpt><trkpt lat="45.578806" lon="9.5535947"><ele>142.0</ele><time>2026-03-25T11:28:34.363Z</time></trkpt><trkpt lat="45.5788336" lon="9.5537494"><ele>142.0</ele><time>2026-03-25T11:28:35.363Z</time></trkpt><trkpt lat="45.5788657" lon="9.5538994"><ele>142.0</ele><time>2026-03-25T11:28:36.362Z</time></trkpt><trkpt lat="45.5788984" lon="9.5540495"><ele>142.0</ele><time>2026-03-25T11:28:37.363Z</time></trkpt><trkpt lat="45.5789303" lon="9.5542026"><ele>142.2</ele><time>2026-03-25T11:28:38.364Z</time></trkpt><trkpt lat="45.5789632" lon="9.5543514"><ele>142.39999999999998</ele><time>2026-03-25T11:28:39.363Z</time></trkpt><trkpt lat="45.5789951" lon="9.5545041"><ele>142.60000000000002</ele><time>2026-03-25T11:28:40.363Z</time></trkpt><trkpt lat="45.5790252" lon="9.5546539"><ele>142.8</ele><time>2026-03-25T11:28:41.363Z</time></trkpt><trkpt lat="45.5790555" lon="9.5548048"><ele>143.0</ele><time>2026-03-25T11:28:42.363Z</time></trkpt><trkpt lat="45.5790834" lon="9.554958"><ele>143.6</ele><time>2026-03-25T11:28:43.362Z</time></trkpt><trkpt lat="45.5791109" lon="9.5551106"><ele>144.20000000000002</ele><time>2026-03-25T11:28:44.363Z</time></trkpt><trkpt lat="45.5791376" lon="9.555259"><ele>144.8</ele><time>2026-03-25T11:28:45.362Z</time></trkpt><trkpt lat="45.5791675" lon="9.5554094"><ele>145.4</ele><time>2026-03-25T11:28:46.364Z</time></trkpt><trkpt lat="45.5792016" lon="9.5555523"><ele>146.0</ele><time>2026-03-25T11:28:47.363Z</time></trkpt><trkpt lat="45.579246" lon="9.5556925"><ele>146.0</ele><time>2026-03-25T11:28:48.362Z</time></trkpt><trkpt lat="45.5792991" lon="9.5558279"><ele>146.0</ele><time>2026-03-25T11:28:49.361Z</time></trkpt><trkpt lat="45.579359" lon="9.5559571"><ele>146.0</ele><time>2026-03-25T11:28:50.363Z</time></trkpt><trkpt lat="45.579426" lon="9.5560806"><ele>146.0</ele><time>2026-03-25T11:28:51.364Z</time></trkpt><trkpt lat="45.5794979" lon="9.5562028"><ele>146.0</ele><time>2026-03-25T11:28:52.364Z</time></trkpt><trkpt lat="45.5795846" lon="9.5562975"><ele>145.6</ele><time>2026-03-25T11:28:53.363Z</time></trkpt><trkpt lat="45.5796733" lon="9.5563855"><ele>145.2</ele><time>2026-03-25T11:28:54.363Z</time></trkpt><trkpt lat="45.5797659" lon="9.5564706"><ele>144.8</ele><time>2026-03-25T11:28:55.363Z</time></trkpt><trkpt lat="45.579862" lon="9.5565433"><ele>144.4</ele><time>2026-03-25T11:28:56.363Z</time></trkpt><trkpt lat="45.5799603" lon="9.5566015"><ele>144.0</ele><time>2026-03-25T11:28:57.363Z</time></trkpt><trkpt lat="45.5800669" lon="9.5566465"><ele>144.0</ele><time>2026-03-25T11:28:58.362Z</time></trkpt><trkpt lat="45.5801752" lon="9.5566936"><ele>144.0</ele><time>2026-03-25T11:28:59.362Z</time></trkpt><trkpt lat="45.5802789" lon="9.5567403"><ele>144.0</ele><time>2026-03-25T11:29:00.363Z</time></trkpt><trkpt lat="45.5803813" lon="9.5567891"><ele>144.0</ele><time>2026-03-25T11:29:01.363Z</time></trkpt><trkpt lat="45.5804848" lon="9.5568457"><ele>144.0</ele><time>2026-03-25T11:29:02.363Z</time></trkpt><trkpt lat="45.5805829" lon="9.556921"><ele>144.0</ele><time>2026-03-25T11:29:03.363Z</time></trkpt><trkpt lat="45.5806765" lon="9.5570072"><ele>144.0</ele><time>2026-03-25T11:29:04.363Z</time></trkpt><trkpt lat="45.5807673" lon="9.557098"><ele>144.0</ele><time>2026-03-25T11:29:05.364Z</time></trkpt><trkpt lat="45.5808538" lon="9.5571941"><ele>144.0</ele><time>2026-03-25T11:29:06.362Z</time></trkpt><trkpt lat="45.5809354" lon="9.5572933"><ele>144.0</ele><time>2026-03-25T11:29:07.362Z</time></trkpt><trkpt lat="45.5810172" lon="9.5573926"><ele>144.0</ele><time>2026-03-25T11:29:08.362Z</time></trkpt><trkpt lat="45.5810976" lon="9.5574936"><ele>144.0</ele><time>2026-03-25T11:29:09.363Z</time></trkpt><trkpt lat="45.5811796" lon="9.5575931"><ele>144.0</ele><time>2026-03-25T11:29:10.363Z</time></trkpt><trkpt lat="45.5812618" lon="9.5576997"><ele>144.0</ele><time>2026-03-25T11:29:11.363Z</time></trkpt><trkpt lat="45.581342" lon="9.5578072"><ele>144.0</ele><time>2026-03-25T11:29:12.364Z</time></trkpt><trkpt lat="45.5814243" lon="9.5579092"><ele>144.0</ele><time>2026-03-25T11:29:13.362Z</time></trkpt><trkpt lat="45.5815053" lon="9.5580114"><ele>144.0</ele><time>2026-03-25T11:29:14.362Z</time></trkpt><trkpt lat="45.5815853" lon="9.5581189"><ele>144.0</ele><time>2026-03-25T11:29:15.361Z</time></trkpt><trkpt lat="45.5816658" lon="9.5582223"><ele>144.0</ele><time>2026-03-25T11:29:16.363Z</time></trkpt><trkpt lat="45.5817474" lon="9.558325"><ele>144.0</ele><time>2026-03-25T11:29:17.363Z</time></trkpt><trkpt lat="45.581829" lon="9.5584246"><ele>144.0</ele><time>2026-03-25T11:29:18.363Z</time></trkpt><trkpt lat="45.5819107" lon="9.5585262"><ele>144.0</ele><time>2026-03-25T11:29:19.362Z</time></trkpt><trkpt lat="45.5819899" lon="9.558632"><ele>144.0</ele><time>2026-03-25T11:29:20.364Z</time></trkpt><trkpt lat="45.5820704" lon="9.5587341"><ele>144.0</ele><time>2026-03-25T11:29:21.363Z</time></trkpt><trkpt lat="45.5821511" lon="9.5588353"><ele>144.0</ele><time>2026-03-25T11:29:22.363Z</time></trkpt><trkpt lat="45.582229" lon="9.5589386"><ele>144.2</ele><time>2026-03-25T11:29:23.362Z</time></trkpt><trkpt lat="45.5823084" lon="9.5590406"><ele>144.4</ele><time>2026-03-25T11:29:24.363Z</time></trkpt><trkpt lat="45.5823877" lon="9.5591439"><ele>144.6</ele><time>2026-03-25T11:29:25.363Z</time></trkpt><trkpt lat="45.5824641" lon="9.5592455"><ele>144.8</ele><time>2026-03-25T11:29:26.363Z</time></trkpt><trkpt lat="45.5825395" lon="9.5593448"><ele>145.0</ele><time>2026-03-25T11:29:27.362Z</time></trkpt><trkpt lat="45.5826181" lon="9.5594415"><ele>145.4</ele><time>2026-03-25T11:29:28.364Z</time></trkpt><trkpt lat="45.5826955" lon="9.5595391"><ele>145.8</ele><time>2026-03-25T11:29:29.363Z</time></trkpt><trkpt lat="45.5827742" lon="9.5596448"><ele>146.2</ele><time>2026-03-25T11:29:30.364Z</time></trkpt><trkpt lat="45.5828502" lon="9.5597453"><ele>146.6</ele><time>2026-03-25T11:29:31.363Z</time></trkpt><trkpt lat="45.582925" lon="9.5598485"><ele>147.0</ele><time>2026-03-25T11:29:32.363Z</time></trkpt><trkpt lat="45.5829999" lon="9.5599541"><ele>147.4</ele><time>2026-03-25T11:29:33.362Z</time></trkpt><trkpt lat="45.5830783" lon="9.5600575"><ele>147.79999999999998</ele><time>2026-03-25T11:29:34.363Z</time></trkpt><trkpt lat="45.5831576" lon="9.560164"><ele>148.2</ele><time>2026-03-25T11:29:35.363Z</time></trkpt><trkpt lat="45.5832447" lon="9.5602648"><ele>148.6</ele><time>2026-03-25T11:29:36.364Z</time></trkpt><trkpt lat="45.5833236" lon="9.5603673"><ele>149.0</ele><time>2026-03-25T11:29:37.363Z</time></trkpt><trkpt lat="45.5834062" lon="9.5604663"><ele>149.0</ele><time>2026-03-25T11:29:38.362Z</time></trkpt><trkpt lat="45.5834869" lon="9.5605696"><ele>149.0</ele><time>2026-03-25T11:29:39.362Z</time></trkpt><trkpt lat="45.583567" lon="9.5606788"><ele>149.0</ele><time>2026-03-25T11:29:40.363Z</time></trkpt><trkpt lat="45.5836445" lon="9.5607862"><ele>149.0</ele><time>2026-03-25T11:29:41.363Z</time></trkpt><trkpt lat="45.5837251" lon="9.5608954"><ele>149.0</ele><time>2026-03-25T11:29:42.363Z</time></trkpt><trkpt lat="45.5838048" lon="9.5610014"><ele>149.0</ele><time>2026-03-25T11:29:43.363Z</time></trkpt><trkpt lat="45.5838841" lon="9.5611054"><ele>149.0</ele><time>2026-03-25T11:29:44.361Z</time></trkpt><trkpt lat="45.5839638" lon="9.5612122"><ele>149.0</ele><time>2026-03-25T11:29:45.362Z</time></trkpt><trkpt lat="45.5840443" lon="9.5613109"><ele>149.0</ele><time>2026-03-25T11:29:46.363Z</time></trkpt><trkpt lat="45.5841303" lon="9.5614169"><ele>149.0</ele><time>2026-03-25T11:29:47.362Z</time></trkpt><trkpt lat="45.584212" lon="9.56152"><ele>149.0</ele><time>2026-03-25T11:29:48.363Z</time></trkpt><trkpt lat="45.5842895" lon="9.561623"><ele>149.0</ele><time>2026-03-25T11:29:49.364Z</time></trkpt><trkpt lat="45.5843725" lon="9.561718"><ele>149.0</ele><time>2026-03-25T11:29:50.363Z</time></trkpt><trkpt lat="45.5844494" lon="9.5618226"><ele>149.0</ele><time>2026-03-25T11:29:51.362Z</time></trkpt><trkpt lat="45.5845292" lon="9.5619278"><ele>149.0</ele><time>2026-03-25T11:29:52.362Z</time></trkpt><trkpt lat="45.5846119" lon="9.5620296"><ele>149.0</ele><time>2026-03-25T11:29:53.363Z</time></trkpt><trkpt lat="45.5846933" lon="9.5621358"><ele>149.0</ele><time>2026-03-25T11:29:54.363Z</time></trkpt><trkpt lat="45.58477" lon="9.5622403"><ele>149.0</ele><time>2026-03-25T11:29:55.363Z</time></trkpt><trkpt lat="45.5848506" lon="9.5623468"><ele>149.0</ele><time>2026-03-25T11:29:56.363Z</time></trkpt><trkpt lat="45.5849336" lon="9.562448"><ele>149.0</ele><time>2026-03-25T11:29:57.364Z</time></trkpt><trkpt lat="45.5850118" lon="9.5625506"><ele>149.0</ele><time>2026-03-25T11:29:58.363Z</time></trkpt><trkpt lat="45.5850946" lon="9.5626568"><ele>149.0</ele><time>2026-03-25T11:29:59.364Z</time></trkpt><trkpt lat="45.5851773" lon="9.5627639"><ele>149.0</ele><time>2026-03-25T11:30:00.363Z</time></trkpt><trkpt lat="45.5852579" lon="9.5628704"><ele>149.0</ele><time>2026-03-25T11:30:01.363Z</time></trkpt><trkpt lat="45.585337" lon="9.5629816"><ele>149.0</ele><time>2026-03-25T11:30:02.361Z</time></trkpt><trkpt lat="45.5854161" lon="9.5630859"><ele>149.0</ele><time>2026-03-25T11:30:03.363Z</time></trkpt><trkpt lat="45.5854989" lon="9.5631914"><ele>149.0</ele><time>2026-03-25T11:30:04.364Z</time></trkpt><trkpt lat="45.5855764" lon="9.5633"><ele>149.0</ele><time>2026-03-25T11:30:05.362Z</time></trkpt><trkpt lat="45.5856532" lon="9.5634053"><ele>149.0</ele><time>2026-03-25T11:30:06.364Z</time></trkpt><trkpt lat="45.5857311" lon="9.5635097"><ele>149.0</ele><time>2026-03-25T11:30:07.364Z</time></trkpt><trkpt lat="45.5858141" lon="9.5636146"><ele>149.0</ele><time>2026-03-25T11:30:08.364Z</time></trkpt><trkpt lat="45.5858985" lon="9.5637184"><ele>149.0</ele><time>2026-03-25T11:30:09.363Z</time></trkpt><trkpt lat="45.5859798" lon="9.563821"><ele>149.0</ele><time>2026-03-25T11:30:10.362Z</time></trkpt><trkpt lat="45.5860551" lon="9.563929"><ele>149.0</ele><time>2026-03-25T11:30:11.363Z</time></trkpt><trkpt lat="45.5861347" lon="9.5640388"><ele>149.0</ele><time>2026-03-25T11:30:12.363Z</time></trkpt><trkpt lat="45.5862156" lon="9.5641392"><ele>148.8</ele><time>2026-03-25T11:30:13.364Z</time></trkpt><trkpt lat="45.5862927" lon="9.5642384"><ele>148.60000000000002</ele><time>2026-03-25T11:30:14.363Z</time></trkpt><trkpt lat="45.5863731" lon="9.5643338"><ele>148.4</ele><time>2026-03-25T11:30:15.362Z</time></trkpt><trkpt lat="45.5864494" lon="9.5644362"><ele>148.20000000000002</ele><time>2026-03-25T11:30:16.363Z</time></trkpt><trkpt lat="45.586526" lon="9.5645413"><ele>148.0</ele><time>2026-03-25T11:30:17.364Z</time></trkpt><trkpt lat="45.5866029" lon="9.5646422"><ele>148.4</ele><time>2026-03-25T11:30:18.363Z</time></trkpt><trkpt lat="45.5866778" lon="9.5647458"><ele>148.8</ele><time>2026-03-25T11:30:19.362Z</time></trkpt><trkpt lat="45.5867565" lon="9.5648494"><ele>149.2</ele><time>2026-03-25T11:30:20.362Z</time></trkpt><trkpt lat="45.5868356" lon="9.5649502"><ele>149.6</ele><time>2026-03-25T11:30:21.363Z</time></trkpt><trkpt lat="45.5869174" lon="9.5650575"><ele>150.0</ele><time>2026-03-25T11:30:22.364Z</time></trkpt><trkpt lat="45.587001" lon="9.5651589"><ele>150.0</ele><time>2026-03-25T11:30:23.363Z</time></trkpt><trkpt lat="45.5870826" lon="9.565263"><ele>150.0</ele><time>2026-03-25T11:30:24.364Z</time></trkpt><trkpt lat="45.587161" lon="9.565366"><ele>150.0</ele><time>2026-03-25T11:30:25.364Z</time></trkpt><trkpt lat="45.5872384" lon="9.5654736"><ele>150.0</ele><time>2026-03-25T11:30:26.364Z</time></trkpt><trkpt lat="45.5873222" lon="9.5655751"><ele>150.0</ele><time>2026-03-25T11:30:27.363Z</time></trkpt><trkpt lat="45.5874019" lon="9.5656823"><ele>150.4</ele><time>2026-03-25T11:30:28.363Z</time></trkpt><trkpt lat="45.5874789" lon="9.5657805"><ele>150.8</ele><time>2026-03-25T11:30:29.364Z</time></trkpt><trkpt lat="45.5875573" lon="9.5658865"><ele>151.2</ele><time>2026-03-25T11:30:30.364Z</time></trkpt><trkpt lat="45.5876335" lon="9.5659862"><ele>151.6</ele><time>2026-03-25T11:30:31.362Z</time></trkpt><trkpt lat="45.5877091" lon="9.5660896"><ele>152.0</ele><time>2026-03-25T11:30:32.363Z</time></trkpt><trkpt lat="45.5877822" lon="9.5661951"><ele>152.2</ele><time>2026-03-25T11:30:33.363Z</time></trkpt><trkpt lat="45.5878634" lon="9.5662986"><ele>152.39999999999998</ele><time>2026-03-25T11:30:34.361Z</time></trkpt><trkpt lat="45.5879458" lon="9.5664002"><ele>152.60000000000002</ele><time>2026-03-25T11:30:35.364Z</time></trkpt><trkpt lat="45.5880235" lon="9.5665017"><ele>152.8</ele><time>2026-03-25T11:30:36.362Z</time></trkpt><trkpt lat="45.5880996" lon="9.5666043"><ele>153.0</ele><time>2026-03-25T11:30:37.362Z</time></trkpt><trkpt lat="45.5881843" lon="9.5666985"><ele>153.0</ele><time>2026-03-25T11:30:38.363Z</time></trkpt><trkpt lat="45.5882606" lon="9.5667958"><ele>153.0</ele><time>2026-03-25T11:30:39.364Z</time></trkpt><trkpt lat="45.5883417" lon="9.566901"><ele>153.0</ele><time>2026-03-25T11:30:40.363Z</time></trkpt><trkpt lat="45.5884179" lon="9.5670007"><ele>153.0</ele><time>2026-03-25T11:30:41.362Z</time></trkpt><trkpt lat="45.5884998" lon="9.567108"><ele>153.0</ele><time>2026-03-25T11:30:42.362Z</time></trkpt><trkpt lat="45.5885762" lon="9.5672127"><ele>153.20000000000002</ele><time>2026-03-25T11:30:43.364Z</time></trkpt><trkpt lat="45.5886557" lon="9.5673152"><ele>153.4</ele><time>2026-03-25T11:30:44.362Z</time></trkpt><trkpt lat="45.5887359" lon="9.5674153"><ele>153.60000000000002</ele><time>2026-03-25T11:30:45.362Z</time></trkpt><trkpt lat="45.5888132" lon="9.5675193"><ele>153.8</ele><time>2026-03-25T11:30:46.363Z</time></trkpt><trkpt lat="45.5888892" lon="9.5676223"><ele>154.0</ele><time>2026-03-25T11:30:47.362Z</time></trkpt><trkpt lat="45.5889673" lon="9.5677311"><ele>154.0</ele><time>2026-03-25T11:30:48.363Z</time></trkpt><trkpt lat="45.5890459" lon="9.5678373"><ele>154.0</ele><time>2026-03-25T11:30:49.363Z</time></trkpt><trkpt lat="45.5891292" lon="9.5679373"><ele>154.0</ele><time>2026-03-25T11:30:50.362Z</time></trkpt><trkpt lat="45.5892085" lon="9.5680407"><ele>154.0</ele><time>2026-03-25T11:30:51.364Z</time></trkpt><trkpt lat="45.5892912" lon="9.5681373"><ele>154.0</ele><time>2026-03-25T11:30:52.362Z</time></trkpt><trkpt lat="45.589371" lon="9.5682461"><ele>154.2</ele><time>2026-03-25T11:30:53.364Z</time></trkpt><trkpt lat="45.5894516" lon="9.5683552"><ele>154.4</ele><time>2026-03-25T11:30:54.363Z</time></trkpt><trkpt lat="45.589539" lon="9.5684574"><ele>154.6</ele><time>2026-03-25T11:30:55.362Z</time></trkpt><trkpt lat="45.5896206" lon="9.5685598"><ele>154.8</ele><time>2026-03-25T11:30:56.363Z</time></trkpt><trkpt lat="45.5897043" lon="9.5686669"><ele>155.0</ele><time>2026-03-25T11:30:57.363Z</time></trkpt><trkpt lat="45.5897921" lon="9.5687686"><ele>155.2</ele><time>2026-03-25T11:30:58.363Z</time></trkpt><trkpt lat="45.5898759" lon="9.5688692"><ele>155.4</ele><time>2026-03-25T11:30:59.364Z</time></trkpt><trkpt lat="45.5899585" lon="9.5689755"><ele>155.6</ele><time>2026-03-25T11:31:00.363Z</time></trkpt><trkpt lat="45.5900369" lon="9.5690733"><ele>155.8</ele><time>2026-03-25T11:31:01.363Z</time></trkpt><trkpt lat="45.5901146" lon="9.5691702"><ele>156.0</ele><time>2026-03-25T11:31:02.363Z</time></trkpt><trkpt lat="45.5901926" lon="9.5692786"><ele>156.0</ele><time>2026-03-25T11:31:03.363Z</time></trkpt><trkpt lat="45.5902712" lon="9.5693858"><ele>156.0</ele><time>2026-03-25T11:31:04.362Z</time></trkpt><trkpt lat="45.5903461" lon="9.5694941"><ele>156.0</ele><time>2026-03-25T11:31:05.364Z</time></trkpt><trkpt lat="45.5904224" lon="9.5695952"><ele>156.0</ele><time>2026-03-25T11:31:06.364Z</time></trkpt><trkpt lat="45.5904969" lon="9.5696939"><ele>156.0</ele><time>2026-03-25T11:31:07.363Z</time></trkpt><trkpt lat="45.5905688" lon="9.5697968"><ele>156.2</ele><time>2026-03-25T11:31:08.363Z</time></trkpt><trkpt lat="45.5906474" lon="9.5699017"><ele>156.39999999999998</ele><time>2026-03-25T11:31:09.363Z</time></trkpt><trkpt lat="45.5907228" lon="9.5700036"><ele>156.6</ele><time>2026-03-25T11:31:10.363Z</time></trkpt><trkpt lat="45.5907931" lon="9.5701013"><ele>156.79999999999998</ele><time>2026-03-25T11:31:11.363Z</time></trkpt><trkpt lat="45.5908708" lon="9.5701985"><ele>157.0</ele><time>2026-03-25T11:31:12.362Z</time></trkpt><trkpt lat="45.590949" lon="9.5702963"><ele>157.2</ele><time>2026-03-25T11:31:13.363Z</time></trkpt><trkpt lat="45.5910213" lon="9.5703961"><ele>157.39999999999998</ele><time>2026-03-25T11:31:14.364Z</time></trkpt><trkpt lat="45.5910955" lon="9.5704916"><ele>157.60000000000002</ele><time>2026-03-25T11:31:15.364Z</time></trkpt><trkpt lat="45.5911687" lon="9.5705882"><ele>157.8</ele><time>2026-03-25T11:31:16.363Z</time></trkpt><trkpt lat="45.5912432" lon="9.5706841"><ele>158.0</ele><time>2026-03-25T11:31:17.363Z</time></trkpt><trkpt lat="45.5913179" lon="9.5707792"><ele>158.0</ele><time>2026-03-25T11:31:18.363Z</time></trkpt><trkpt lat="45.5913885" lon="9.5708803"><ele>158.0</ele><time>2026-03-25T11:31:19.364Z</time></trkpt><trkpt lat="45.5914556" lon="9.5709791"><ele>158.0</ele><time>2026-03-25T11:31:20.362Z</time></trkpt><trkpt lat="45.5915271" lon="9.5710761"><ele>158.0</ele><time>2026-03-25T11:31:21.363Z</time></trkpt><trkpt lat="45.5915968" lon="9.5711697"><ele>158.0</ele><time>2026-03-25T11:31:22.363Z</time></trkpt><trkpt lat="45.59167" lon="9.5712619"><ele>158.5</ele><time>2026-03-25T11:31:23.363Z</time></trkpt><trkpt lat="45.5917404" lon="9.5713525"><ele>159.0</ele><time>2026-03-25T11:31:24.363Z</time></trkpt><trkpt lat="45.5918086" lon="9.5714405"><ele>159.5</ele><time>2026-03-25T11:31:25.364Z</time></trkpt><trkpt lat="45.5918771" lon="9.5715239"><ele>160.0</ele><time>2026-03-25T11:31:26.364Z</time></trkpt><trkpt lat="45.5919361" lon="9.5716006"><ele>160.5</ele><time>2026-03-25T11:31:27.363Z</time></trkpt><trkpt lat="45.591996" lon="9.5716696"><ele>161.0</ele><time>2026-03-25T11:31:28.363Z</time></trkpt><trkpt lat="45.5920468" lon="9.5717349"><ele>161.0</ele><time>2026-03-25T11:31:29.363Z</time></trkpt><trkpt lat="45.5921056" lon="9.5718073"><ele>161.0</ele><time>2026-03-25T11:31:30.362Z</time></trkpt><trkpt lat="45.5921595" lon="9.5718778"><ele>161.0</ele><time>2026-03-25T11:31:31.364Z</time></trkpt><trkpt lat="45.592218" lon="9.5719471"><ele>161.0</ele><time>2026-03-25T11:31:32.362Z</time></trkpt><trkpt lat="45.5922684" lon="9.5720184"><ele>161.0</ele><time>2026-03-25T11:31:33.363Z</time></trkpt><trkpt lat="45.5923202" lon="9.5720948"><ele>161.0</ele><time>2026-03-25T11:31:34.362Z</time></trkpt><trkpt lat="45.5923785" lon="9.5721691"><ele>161.33333333333331</ele><time>2026-03-25T11:31:35.363Z</time></trkpt><trkpt lat="45.5924309" lon="9.5722465"><ele>161.66666666666666</ele><time>2026-03-25T11:31:36.364Z</time></trkpt><trkpt lat="45.5924901" lon="9.5723201"><ele>162.0</ele><time>2026-03-25T11:31:37.363Z</time></trkpt><trkpt lat="45.5925476" lon="9.5723951"><ele>162.33333333333334</ele><time>2026-03-25T11:31:38.364Z</time></trkpt><trkpt lat="45.5926085" lon="9.5724712"><ele>162.66666666666669</ele><time>2026-03-25T11:31:39.363Z</time></trkpt><trkpt lat="45.5926681" lon="9.5725471"><ele>163.0</ele><time>2026-03-25T11:31:40.364Z</time></trkpt><trkpt lat="45.592726" lon="9.5726244"><ele>163.0</ele><time>2026-03-25T11:31:41.363Z</time></trkpt><trkpt lat="45.5927956" lon="9.5726991"><ele>163.0</ele><time>2026-03-25T11:31:42.363Z</time></trkpt><trkpt lat="45.5928534" lon="9.5727827"><ele>163.0</ele><time>2026-03-25T11:31:43.363Z</time></trkpt><trkpt lat="45.5929134" lon="9.5728642"><ele>163.0</ele><time>2026-03-25T11:31:44.363Z</time></trkpt><trkpt lat="45.5929751" lon="9.572944"><ele>163.0</ele><time>2026-03-25T11:31:45.364Z</time></trkpt><trkpt lat="45.5930336" lon="9.5730244"><ele>163.0</ele><time>2026-03-25T11:31:46.363Z</time></trkpt><trkpt lat="45.5930892" lon="9.5731099"><ele>163.0</ele><time>2026-03-25T11:31:47.363Z</time></trkpt><trkpt lat="45.5931411" lon="9.5732058"><ele>163.0</ele><time>2026-03-25T11:31:48.363Z</time></trkpt><trkpt lat="45.5931992" lon="9.5732992"><ele>163.0</ele><time>2026-03-25T11:31:49.363Z</time></trkpt><trkpt lat="45.5932528" lon="9.5733807"><ele>163.0</ele><time>2026-03-25T11:31:50.363Z</time></trkpt><trkpt lat="45.5933025" lon="9.5734634"><ele>163.0</ele><time>2026-03-25T11:31:51.364Z</time></trkpt><trkpt lat="45.5933349" lon="9.5735601"><ele>163.0</ele><time>2026-03-25T11:31:52.364Z</time></trkpt><trkpt lat="45.5933593" lon="9.5736573"><ele>163.16666666666669</ele><time>2026-03-25T11:31:53.364Z</time></trkpt><trkpt lat="45.5933868" lon="9.5737652"><ele>163.33333333333334</ele><time>2026-03-25T11:31:54.364Z</time></trkpt><trkpt lat="45.5934244" lon="9.5738636"><ele>163.5</ele><time>2026-03-25T11:31:55.363Z</time></trkpt><trkpt lat="45.5934718" lon="9.5739519"><ele>163.66666666666666</ele><time>2026-03-25T11:31:56.363Z</time></trkpt><trkpt lat="45.5935289" lon="9.5740237"><ele>163.83333333333331</ele><time>2026-03-25T11:31:57.362Z</time></trkpt><trkpt lat="45.5936001" lon="9.5740494"><ele>164.0</ele><time>2026-03-25T11:31:58.363Z</time></trkpt><trkpt lat="45.593672" lon="9.5740373"><ele>163.99999999999997</ele><time>2026-03-25T11:31:59.364Z</time></trkpt><trkpt lat="45.5937348" lon="9.5739935"><ele>164.0</ele><time>2026-03-25T11:32:00.363Z</time></trkpt><trkpt lat="45.5937784" lon="9.5739236"><ele>164.0</ele><time>2026-03-25T11:32:01.364Z</time></trkpt><trkpt lat="45.5938058" lon="9.5738397"><ele>164.0</ele><time>2026-03-25T11:32:02.363Z</time></trkpt><trkpt lat="45.5938313" lon="9.5737411"><ele>164.0</ele><time>2026-03-25T11:32:03.363Z</time></trkpt><trkpt lat="45.59385" lon="9.5736396"><ele>163.99999999999997</ele><time>2026-03-25T11:32:04.364Z</time></trkpt><trkpt lat="45.593877" lon="9.5735321"><ele>164.0</ele><time>2026-03-25T11:32:05.363Z</time></trkpt><trkpt lat="45.5939183" lon="9.573431"><ele>164.0</ele><time>2026-03-25T11:32:06.362Z</time></trkpt><trkpt lat="45.5939658" lon="9.5733442"><ele>164.0</ele><time>2026-03-25T11:32:07.363Z</time></trkpt><trkpt lat="45.5940244" lon="9.5732482"><ele>164.0</ele><time>2026-03-25T11:32:08.364Z</time></trkpt><trkpt lat="45.5940868" lon="9.5731593"><ele>164.0</ele><time>2026-03-25T11:32:09.363Z</time></trkpt><trkpt lat="45.5941549" lon="9.5730687"><ele>164.0</ele><time>2026-03-25T11:32:10.363Z</time></trkpt><trkpt lat="45.5942263" lon="9.5729807"><ele>164.0</ele><time>2026-03-25T11:32:11.363Z</time></trkpt><trkpt lat="45.5942976" lon="9.5728918"><ele>163.39999999999998</ele><time>2026-03-25T11:32:12.362Z</time></trkpt><trkpt lat="45.594377" lon="9.5728057"><ele>162.8</ele><time>2026-03-25T11:32:13.364Z</time></trkpt><trkpt lat="45.5944419" lon="9.5727238"><ele>162.2</ele><time>2026-03-25T11:32:14.363Z</time></trkpt><trkpt lat="45.594525" lon="9.5726456"><ele>161.60000000000002</ele><time>2026-03-25T11:32:15.363Z</time></trkpt><trkpt lat="45.5946149" lon="9.5725743"><ele>161.0</ele><time>2026-03-25T11:32:16.363Z</time></trkpt><trkpt lat="45.5947107" lon="9.572504"><ele>161.0</ele><time>2026-03-25T11:32:17.364Z</time></trkpt><trkpt lat="45.5948074" lon="9.5724387"><ele>161.0</ele><time>2026-03-25T11:32:18.363Z</time></trkpt><trkpt lat="45.594906" lon="9.5723729"><ele>161.0</ele><time>2026-03-25T11:32:19.364Z</time></trkpt><trkpt lat="45.5950031" lon="9.5723062"><ele>161.0</ele><time>2026-03-25T11:32:20.364Z</time></trkpt><trkpt lat="45.5951057" lon="9.5722459"><ele>161.0</ele><time>2026-03-25T11:32:21.363Z</time></trkpt><trkpt lat="45.5952056" lon="9.5721895"><ele>161.0</ele><time>2026-03-25T11:32:22.362Z</time></trkpt><trkpt lat="45.5953085" lon="9.5721424"><ele>161.0</ele><time>2026-03-25T11:32:23.364Z</time></trkpt><trkpt lat="45.5954153" lon="9.572098"><ele>161.0</ele><time>2026-03-25T11:32:24.363Z</time></trkpt><trkpt lat="45.595521" lon="9.5720497"><ele>161.0</ele><time>2026-03-25T11:32:25.362Z</time></trkpt><trkpt lat="45.5956242" lon="9.5720049"><ele>161.0</ele><time>2026-03-25T11:32:26.363Z</time></trkpt><trkpt lat="45.5957282" lon="9.5719712"><ele>161.0</ele><time>2026-03-25T11:32:27.363Z</time></trkpt><trkpt lat="45.5958341" lon="9.5719414"><ele>161.0</ele><time>2026-03-25T11:32:28.362Z</time></trkpt><trkpt lat="45.5959399" lon="9.5719107"><ele>161.0</ele><time>2026-03-25T11:32:29.362Z</time></trkpt><trkpt lat="45.5960445" lon="9.5718909"><ele>161.0</ele><time>2026-03-25T11:32:30.363Z</time></trkpt><trkpt lat="45.5961558" lon="9.5718708"><ele>161.0</ele><time>2026-03-25T11:32:31.364Z</time></trkpt><trkpt lat="45.5962658" lon="9.5718552"><ele>161.0</ele><time>2026-03-25T11:32:32.363Z</time></trkpt><trkpt lat="45.5963722" lon="9.5718435"><ele>161.0</ele><time>2026-03-25T11:32:33.363Z</time></trkpt><trkpt lat="45.5964827" lon="9.5718449"><ele>161.0</ele><time>2026-03-25T11:32:34.364Z</time></trkpt><trkpt lat="45.5965882" lon="9.571855"><ele>161.0</ele><time>2026-03-25T11:32:35.363Z</time></trkpt><trkpt lat="45.5966889" lon="9.5718707"><ele>161.0</ele><time>2026-03-25T11:32:36.364Z</time></trkpt><trkpt lat="45.5967945" lon="9.5718957"><ele>161.0</ele><time>2026-03-25T11:32:37.362Z</time></trkpt><trkpt lat="45.5968969" lon="9.5719326"><ele>161.0</ele><time>2026-03-25T11:32:38.364Z</time></trkpt><trkpt lat="45.5969991" lon="9.5719762"><ele>161.0</ele><time>2026-03-25T11:32:39.363Z</time></trkpt><trkpt lat="45.5970953" lon="9.5720302"><ele>161.0</ele><time>2026-03-25T11:32:40.364Z</time></trkpt><trkpt lat="45.5971946" lon="9.5720789"><ele>161.0</ele><time>2026-03-25T11:32:41.363Z</time></trkpt><trkpt lat="45.5972987" lon="9.5721248"><ele>161.20000000000002</ele><time>2026-03-25T11:32:42.363Z</time></trkpt><trkpt lat="45.5973968" lon="9.5721635"><ele>161.4</ele><time>2026-03-25T11:32:43.363Z</time></trkpt><trkpt lat="45.5974991" lon="9.5722011"><ele>161.6</ele><time>2026-03-25T11:32:44.363Z</time></trkpt><trkpt lat="45.597601" lon="9.5722286"><ele>161.8</ele><time>2026-03-25T11:32:45.362Z</time></trkpt><trkpt lat="45.5977057" lon="9.5722518"><ele>162.0</ele><time>2026-03-25T11:32:46.364Z</time></trkpt><trkpt lat="45.5978103" lon="9.5722701"><ele>162.39999999999998</ele><time>2026-03-25T11:32:47.363Z</time></trkpt><trkpt lat="45.5979152" lon="9.5722888"><ele>162.79999999999998</ele><time>2026-03-25T11:32:48.364Z</time></trkpt><trkpt lat="45.5980215" lon="9.5723101"><ele>163.2</ele><time>2026-03-25T11:32:49.362Z</time></trkpt><trkpt lat="45.5981272" lon="9.5723289"><ele>163.6</ele><time>2026-03-25T11:32:50.362Z</time></trkpt><trkpt lat="45.5982306" lon="9.5723441"><ele>164.0</ele><time>2026-03-25T11:32:51.364Z</time></trkpt><trkpt lat="45.598337" lon="9.5723618"><ele>164.0</ele><time>2026-03-25T11:32:52.364Z</time></trkpt><trkpt lat="45.5984417" lon="9.5723779"><ele>164.0</ele><time>2026-03-25T11:32:53.364Z</time></trkpt><trkpt lat="45.5985469" lon="9.5723928"><ele>164.0</ele><time>2026-03-25T11:32:54.363Z</time></trkpt><trkpt lat="45.5986517" lon="9.572404"><ele>164.0</ele><time>2026-03-25T11:32:55.364Z</time></trkpt><trkpt lat="45.5987572" lon="9.5723982"><ele>164.0</ele><time>2026-03-25T11:32:56.364Z</time></trkpt><trkpt lat="45.5988638" lon="9.5723807"><ele>163.79999999999998</ele><time>2026-03-25T11:32:57.364Z</time></trkpt><trkpt lat="45.5989714" lon="9.5723556"><ele>163.6</ele><time>2026-03-25T11:32:58.364Z</time></trkpt><trkpt lat="45.5990773" lon="9.5723183"><ele>163.4</ele><time>2026-03-25T11:32:59.362Z</time></trkpt><trkpt lat="45.5991809" lon="9.5722792"><ele>163.2</ele><time>2026-03-25T11:33:00.363Z</time></trkpt><trkpt lat="45.5992864" lon="9.5722401"><ele>163.0</ele><time>2026-03-25T11:33:01.364Z</time></trkpt><trkpt lat="45.5993924" lon="9.5722021"><ele>163.0</ele><time>2026-03-25T11:33:02.364Z</time></trkpt><trkpt lat="45.5994996" lon="9.57216"><ele>163.0</ele><time>2026-03-25T11:33:03.364Z</time></trkpt><trkpt lat="45.5996027" lon="9.57212"><ele>163.0</ele><time>2026-03-25T11:33:04.364Z</time></trkpt><trkpt lat="45.5997045" lon="9.5720759"><ele>163.0</ele><time>2026-03-25T11:33:05.363Z</time></trkpt><trkpt lat="45.599803" lon="9.5720251"><ele>163.0</ele><time>2026-03-25T11:33:06.363Z</time></trkpt><trkpt lat="45.5998982" lon="9.5719549"><ele>163.0</ele><time>2026-03-25T11:33:07.362Z</time></trkpt><trkpt lat="45.5999911" lon="9.5718758"><ele>163.0</ele><time>2026-03-25T11:33:08.362Z</time></trkpt><trkpt lat="45.6000793" lon="9.5717932"><ele>163.0</ele><time>2026-03-25T11:33:09.363Z</time></trkpt><trkpt lat="45.6001677" lon="9.5717028"><ele>163.0</ele><time>2026-03-25T11:33:10.363Z</time></trkpt><trkpt lat="45.6002549" lon="9.5716153"><ele>163.0</ele><time>2026-03-25T11:33:11.363Z</time></trkpt><trkpt lat="45.6003458" lon="9.5715299"><ele>162.8</ele><time>2026-03-25T11:33:12.363Z</time></trkpt><trkpt lat="45.6004367" lon="9.5714469"><ele>162.60000000000002</ele><time>2026-03-25T11:33:13.364Z</time></trkpt><trkpt lat="45.6005245" lon="9.57136"><ele>162.39999999999998</ele><time>2026-03-25T11:33:14.364Z</time></trkpt><trkpt lat="45.6006151" lon="9.5712776"><ele>162.2</ele><time>2026-03-25T11:33:15.364Z</time></trkpt><trkpt lat="45.600708" lon="9.5711931"><ele>162.0</ele><time>2026-03-25T11:33:16.363Z</time></trkpt><trkpt lat="45.6008044" lon="9.5711241"><ele>162.39999999999998</ele><time>2026-03-25T11:33:17.363Z</time></trkpt><trkpt lat="45.6009065" lon="9.5710657"><ele>162.79999999999998</ele><time>2026-03-25T11:33:18.364Z</time></trkpt><trkpt lat="45.6010098" lon="9.5710126"><ele>163.2</ele><time>2026-03-25T11:33:19.363Z</time></trkpt><trkpt lat="45.601113" lon="9.5709632"><ele>163.6</ele><time>2026-03-25T11:33:20.363Z</time></trkpt><trkpt lat="45.6012168" lon="9.5709194"><ele>164.0</ele><time>2026-03-25T11:33:21.363Z</time></trkpt><trkpt lat="45.6013209" lon="9.5708788"><ele>164.2</ele><time>2026-03-25T11:33:22.364Z</time></trkpt><trkpt lat="45.6014241" lon="9.5708337"><ele>164.39999999999998</ele><time>2026-03-25T11:33:23.362Z</time></trkpt><trkpt lat="45.6015276" lon="9.5707883"><ele>164.6</ele><time>2026-03-25T11:33:24.364Z</time></trkpt><trkpt lat="45.6016338" lon="9.5707448"><ele>164.8</ele><time>2026-03-25T11:33:25.362Z</time></trkpt><trkpt lat="45.601743" lon="9.5707111"><ele>165.0</ele><time>2026-03-25T11:33:26.364Z</time></trkpt><trkpt lat="45.60185" lon="9.5706788"><ele>165.0</ele><time>2026-03-25T11:33:27.363Z</time></trkpt><trkpt lat="45.601962" lon="9.5706593"><ele>165.0</ele><time>2026-03-25T11:33:28.364Z</time></trkpt><trkpt lat="45.6020727" lon="9.5706458"><ele>165.0</ele><time>2026-03-25T11:33:29.364Z</time></trkpt><trkpt lat="45.6021821" lon="9.5706398"><ele>165.0</ele><time>2026-03-25T11:33:30.364Z</time></trkpt><trkpt lat="45.6022875" lon="9.5706344"><ele>165.0</ele><time>2026-03-25T11:33:31.363Z</time></trkpt><trkpt lat="45.6023981" lon="9.5706277"><ele>165.2</ele><time>2026-03-25T11:33:32.363Z</time></trkpt><trkpt lat="45.602509" lon="9.5706285"><ele>165.4</ele><time>2026-03-25T11:33:33.364Z</time></trkpt><trkpt lat="45.6026219" lon="9.5706305"><ele>165.60000000000002</ele><time>2026-03-25T11:33:34.364Z</time></trkpt><trkpt lat="45.6027308" lon="9.5706229"><ele>165.8</ele><time>2026-03-25T11:33:35.363Z</time></trkpt><trkpt lat="45.6028415" lon="9.5706154"><ele>166.0</ele><time>2026-03-25T11:33:36.364Z</time></trkpt><trkpt lat="45.6029504" lon="9.5706085"><ele>166.20000000000002</ele><time>2026-03-25T11:33:37.364Z</time></trkpt><trkpt lat="45.6030629" lon="9.5706078"><ele>166.4</ele><time>2026-03-25T11:33:38.363Z</time></trkpt><trkpt lat="45.6031719" lon="9.5706095"><ele>166.6</ele><time>2026-03-25T11:33:39.364Z</time></trkpt><trkpt lat="45.6032795" lon="9.5706149"><ele>166.8</ele><time>2026-03-25T11:33:40.363Z</time></trkpt><trkpt lat="45.6033898" lon="9.5706191"><ele>167.0</ele><time>2026-03-25T11:33:41.363Z</time></trkpt><trkpt lat="45.6034952" lon="9.5706363"><ele>167.0</ele><time>2026-03-25T11:33:42.363Z</time></trkpt><trkpt lat="45.6036007" lon="9.5706513"><ele>167.0</ele><time>2026-03-25T11:33:43.363Z</time></trkpt><trkpt lat="45.6037086" lon="9.570666"><ele>167.0</ele><time>2026-03-25T11:33:44.364Z</time></trkpt><trkpt lat="45.6038145" lon="9.5706828"><ele>167.0</ele><time>2026-03-25T11:33:45.364Z</time></trkpt><trkpt lat="45.6039205" lon="9.5707032"><ele>167.0</ele><time>2026-03-25T11:33:46.363Z</time></trkpt><trkpt lat="45.6040264" lon="9.5707217"><ele>166.8</ele><time>2026-03-25T11:33:47.364Z</time></trkpt><trkpt lat="45.6041341" lon="9.5707412"><ele>166.6</ele><time>2026-03-25T11:33:48.364Z</time></trkpt><trkpt lat="45.6042408" lon="9.5707603"><ele>166.4</ele><time>2026-03-25T11:33:49.363Z</time></trkpt><trkpt lat="45.6043464" lon="9.570781"><ele>166.20000000000002</ele><time>2026-03-25T11:33:50.363Z</time></trkpt><trkpt lat="45.6044512" lon="9.5708058"><ele>166.0</ele><time>2026-03-25T11:33:51.363Z</time></trkpt><trkpt lat="45.604559" lon="9.5708259"><ele>166.4</ele><time>2026-03-25T11:33:52.364Z</time></trkpt><trkpt lat="45.6046707" lon="9.5708468"><ele>166.8</ele><time>2026-03-25T11:33:53.364Z</time></trkpt><trkpt lat="45.6047763" lon="9.5708701"><ele>167.20000000000002</ele><time>2026-03-25T11:33:54.363Z</time></trkpt><trkpt lat="45.6048883" lon="9.5708877"><ele>167.60000000000002</ele><time>2026-03-25T11:33:55.364Z</time></trkpt><trkpt lat="45.6049962" lon="9.5709082"><ele>168.0</ele><time>2026-03-25T11:33:56.364Z</time></trkpt><trkpt lat="45.605103" lon="9.5709249"><ele>168.0</ele><time>2026-03-25T11:33:57.364Z</time></trkpt><trkpt lat="45.605205" lon="9.5709452"><ele>168.0</ele><time>2026-03-25T11:33:58.364Z</time></trkpt><trkpt lat="45.6053044" lon="9.5709622"><ele>168.0</ele><time>2026-03-25T11:33:59.363Z</time></trkpt><trkpt lat="45.6053966" lon="9.5709684"><ele>168.0</ele><time>2026-03-25T11:34:00.363Z</time></trkpt><trkpt lat="45.6054884" lon="9.5709697"><ele>168.0</ele><time>2026-03-25T11:34:01.363Z</time></trkpt><trkpt lat="45.6055714" lon="9.5709702"><ele>167.83333333333334</ele><time>2026-03-25T11:34:02.362Z</time></trkpt><trkpt lat="45.6056492" lon="9.5709812"><ele>167.66666666666666</ele><time>2026-03-25T11:34:03.364Z</time></trkpt><trkpt lat="45.6057193" lon="9.5710142"><ele>167.5</ele><time>2026-03-25T11:34:04.363Z</time></trkpt><trkpt lat="45.6057859" lon="9.571063"><ele>167.33333333333331</ele><time>2026-03-25T11:34:05.364Z</time></trkpt><trkpt lat="45.6058429" lon="9.5711271"><ele>167.16666666666666</ele><time>2026-03-25T11:34:06.362Z</time></trkpt><trkpt lat="45.6058936" lon="9.5712131"><ele>167.0</ele><time>2026-03-25T11:34:07.363Z</time></trkpt><trkpt lat="45.6059232" lon="9.5713175"><ele>167.33333333333331</ele><time>2026-03-25T11:34:08.364Z</time></trkpt><trkpt lat="45.605935" lon="9.5714305"><ele>167.66666666666666</ele><time>2026-03-25T11:34:09.363Z</time></trkpt><trkpt lat="45.6059416" lon="9.571551"><ele>168.0</ele><time>2026-03-25T11:34:10.363Z</time></trkpt><trkpt lat="45.605946" lon="9.5716749"><ele>168.33333333333334</ele><time>2026-03-25T11:34:11.364Z</time></trkpt><trkpt lat="45.6059564" lon="9.5717986"><ele>168.66666666666669</ele><time>2026-03-25T11:34:12.364Z</time></trkpt><trkpt lat="45.6059691" lon="9.5719204"><ele>169.0</ele><time>2026-03-25T11:34:13.363Z</time></trkpt><trkpt lat="45.6059883" lon="9.5720489"><ele>169.0</ele><time>2026-03-25T11:34:14.364Z</time></trkpt><trkpt lat="45.6060054" lon="9.5721802"><ele>169.0</ele><time>2026-03-25T11:34:15.364Z</time></trkpt><trkpt lat="45.606028" lon="9.5723085"><ele>169.0</ele><time>2026-03-25T11:34:16.363Z</time></trkpt><trkpt lat="45.6060453" lon="9.5724448"><ele>169.0</ele><time>2026-03-25T11:34:17.363Z</time></trkpt><trkpt lat="45.6060649" lon="9.5725833"><ele>169.0</ele><time>2026-03-25T11:34:18.363Z</time></trkpt><trkpt lat="45.6060862" lon="9.5727218"><ele>169.0</ele><time>2026-03-25T11:34:19.363Z</time></trkpt><trkpt lat="45.6061117" lon="9.5728596"><ele>169.0</ele><time>2026-03-25T11:34:20.363Z</time></trkpt><trkpt lat="45.606128" lon="9.5730003"><ele>169.0</ele><time>2026-03-25T11:34:21.363Z</time></trkpt><trkpt lat="45.6061475" lon="9.5731336"><ele>169.0</ele><time>2026-03-25T11:34:22.363Z</time></trkpt><trkpt lat="45.6061707" lon="9.5732751"><ele>169.0</ele><time>2026-03-25T11:34:23.363Z</time></trkpt><trkpt lat="45.6061905" lon="9.5734137"><ele>169.0</ele><time>2026-03-25T11:34:24.365Z</time></trkpt><trkpt lat="45.6062121" lon="9.5735567"><ele>169.0</ele><time>2026-03-25T11:34:25.364Z</time></trkpt><trkpt lat="45.606231" lon="9.5736909"><ele>169.0</ele><time>2026-03-25T11:34:26.362Z</time></trkpt><trkpt lat="45.6062542" lon="9.5738265"><ele>169.0</ele><time>2026-03-25T11:34:27.363Z</time></trkpt><trkpt lat="45.606273" lon="9.5739666"><ele>169.0</ele><time>2026-03-25T11:34:28.365Z</time></trkpt><trkpt lat="45.6062933" lon="9.574109"><ele>169.39999999999998</ele><time>2026-03-25T11:34:29.362Z</time></trkpt><trkpt lat="45.6063145" lon="9.5742501"><ele>169.8</ele><time>2026-03-25T11:34:30.363Z</time></trkpt><trkpt lat="45.6063382" lon="9.5743868"><ele>170.2</ele><time>2026-03-25T11:34:31.363Z</time></trkpt><trkpt lat="45.6063552" lon="9.5745326"><ele>170.60000000000002</ele><time>2026-03-25T11:34:32.363Z</time></trkpt><trkpt lat="45.60637" lon="9.5746788"><ele>171.0</ele><time>2026-03-25T11:34:33.362Z</time></trkpt><trkpt lat="45.6063841" lon="9.5748223"><ele>171.4</ele><time>2026-03-25T11:34:34.363Z</time></trkpt><trkpt lat="45.6064073" lon="9.5749688"><ele>171.8</ele><time>2026-03-25T11:34:35.363Z</time></trkpt><trkpt lat="45.6064249" lon="9.5751156"><ele>172.20000000000002</ele><time>2026-03-25T11:34:36.362Z</time></trkpt><trkpt lat="45.6064482" lon="9.5752551"><ele>172.60000000000002</ele><time>2026-03-25T11:34:37.363Z</time></trkpt><trkpt lat="45.6064696" lon="9.5753982"><ele>173.0</ele><time>2026-03-25T11:34:38.363Z</time></trkpt><trkpt lat="45.60649" lon="9.5755332"><ele>173.16666666666666</ele><time>2026-03-25T11:34:39.363Z</time></trkpt><trkpt lat="45.6065157" lon="9.5756632"><ele>173.33333333333331</ele><time>2026-03-25T11:34:40.362Z</time></trkpt><trkpt lat="45.6065435" lon="9.5757865"><ele>173.5</ele><time>2026-03-25T11:34:41.362Z</time></trkpt><trkpt lat="45.6065699" lon="9.5759032"><ele>173.66666666666666</ele><time>2026-03-25T11:34:42.363Z</time></trkpt><trkpt lat="45.6065979" lon="9.5760096"><ele>173.83333333333334</ele><time>2026-03-25T11:34:43.363Z</time></trkpt><trkpt lat="45.6066318" lon="9.5761112"><ele>174.0</ele><time>2026-03-25T11:34:44.364Z</time></trkpt><trkpt lat="45.6066562" lon="9.5762066"><ele>174.0</ele><time>2026-03-25T11:34:45.365Z</time></trkpt><trkpt lat="45.6066696" lon="9.5763101"><ele>174.0</ele><time>2026-03-25T11:34:46.363Z</time></trkpt><trkpt lat="45.6066915" lon="9.5764173"><ele>174.0</ele><time>2026-03-25T11:34:47.362Z</time></trkpt><trkpt lat="45.6067308" lon="9.5765005"><ele>174.0</ele><time>2026-03-25T11:34:48.362Z</time></trkpt><trkpt lat="45.6067847" lon="9.5765473"><ele>174.0</ele><time>2026-03-25T11:34:49.364Z</time></trkpt><trkpt lat="45.606848" lon="9.5765603"><ele>174.0</ele><time>2026-03-25T11:34:50.362Z</time></trkpt><trkpt lat="45.6069599" lon="9.5764678"><ele>173.83333333333334</ele><time>2026-03-25T11:34:52.363Z</time></trkpt><trkpt lat="45.6070057" lon="9.5763853"><ele>173.66666666666666</ele><time>2026-03-25T11:34:53.364Z</time></trkpt><trkpt lat="45.6070483" lon="9.576306"><ele>173.5</ele><time>2026-03-25T11:34:54.362Z</time></trkpt><trkpt lat="45.6071017" lon="9.5762351"><ele>173.33333333333331</ele><time>2026-03-25T11:34:55.363Z</time></trkpt><trkpt lat="45.6071664" lon="9.576177"><ele>173.16666666666666</ele><time>2026-03-25T11:34:56.364Z</time></trkpt><trkpt lat="45.6072425" lon="9.5761388"><ele>173.0</ele><time>2026-03-25T11:34:57.364Z</time></trkpt><trkpt lat="45.6073174" lon="9.5761006"><ele>172.83333333333331</ele><time>2026-03-25T11:34:58.363Z</time></trkpt><trkpt lat="45.6073908" lon="9.576068"><ele>172.66666666666666</ele><time>2026-03-25T11:34:59.362Z</time></trkpt><trkpt lat="45.6074655" lon="9.5760351"><ele>172.5</ele><time>2026-03-25T11:35:00.364Z</time></trkpt><trkpt lat="45.607543" lon="9.576006"><ele>172.33333333333334</ele><time>2026-03-25T11:35:01.362Z</time></trkpt><trkpt lat="45.607622" lon="9.5759789"><ele>172.16666666666669</ele><time>2026-03-25T11:35:02.365Z</time></trkpt><trkpt lat="45.607704" lon="9.5759671"><ele>172.0</ele><time>2026-03-25T11:35:03.364Z</time></trkpt><trkpt lat="45.6077865" lon="9.5759548"><ele>172.5</ele><time>2026-03-25T11:35:04.364Z</time></trkpt><trkpt lat="45.6078665" lon="9.5759509"><ele>173.0</ele><time>2026-03-25T11:35:05.363Z</time></trkpt><trkpt lat="45.6079443" lon="9.5759432"><ele>173.5</ele><time>2026-03-25T11:35:06.362Z</time></trkpt><trkpt lat="45.6080114" lon="9.5759356"><ele>174.0</ele><time>2026-03-25T11:35:07.363Z</time></trkpt><trkpt lat="45.60811" lon="9.575932"><ele>174.5</ele><time>2026-03-25T11:35:09.363Z</time></trkpt><trkpt lat="45.6081971" lon="9.5759351"><ele>175.0</ele><time>2026-03-25T11:35:11.363Z</time></trkpt><trkpt lat="45.6082576" lon="9.5759912"><ele>175.0</ele><time>2026-03-25T11:35:13.364Z</time></trkpt><trkpt lat="45.6083037" lon="9.5760814"><ele>175.0</ele><time>2026-03-25T11:35:15.362Z</time></trkpt><trkpt lat="45.6083255" lon="9.5762132"><ele>175.0</ele><time>2026-03-25T11:35:17.364Z</time></trkpt><trkpt lat="45.6083154" lon="9.5763806"><ele>175.0</ele><time>2026-03-25T11:35:19.363Z</time></trkpt><trkpt lat="45.6082971" lon="9.5764695"><ele>175.0</ele><time>2026-03-25T11:35:20.364Z</time></trkpt><trkpt lat="45.6082844" lon="9.5765723"><ele>175.0</ele><time>2026-03-25T11:35:21.363Z</time></trkpt><trkpt lat="45.6082645" lon="9.5766746"><ele>175.0</ele><time>2026-03-25T11:35:22.363Z</time></trkpt><trkpt lat="45.6082441" lon="9.5767844"><ele>175.0</ele><time>2026-03-25T11:35:23.364Z</time></trkpt><trkpt lat="45.6082251" lon="9.5768992"><ele>175.0</ele><time>2026-03-25T11:35:24.363Z</time></trkpt><trkpt lat="45.6082044" lon="9.57702"><ele>175.0</ele><time>2026-03-25T11:35:25.363Z</time></trkpt><trkpt lat="45.6081826" lon="9.5771406"><ele>175.0</ele><time>2026-03-25T11:35:26.362Z</time></trkpt><trkpt lat="45.6081623" lon="9.5772616"><ele>175.0</ele><time>2026-03-25T11:35:27.363Z</time></trkpt><trkpt lat="45.6081431" lon="9.5773929"><ele>175.2</ele><time>2026-03-25T11:35:28.364Z</time></trkpt><trkpt lat="45.6081234" lon="9.5775241"><ele>175.4</ele><time>2026-03-25T11:35:29.362Z</time></trkpt><trkpt lat="45.608103" lon="9.5776585"><ele>175.60000000000002</ele><time>2026-03-25T11:35:30.364Z</time></trkpt><trkpt lat="45.6080834" lon="9.577799"><ele>175.8</ele><time>2026-03-25T11:35:31.364Z</time></trkpt><trkpt lat="45.6080589" lon="9.5779427"><ele>176.0</ele><time>2026-03-25T11:35:32.364Z</time></trkpt><trkpt lat="45.6080353" lon="9.5780801"><ele>175.4</ele><time>2026-03-25T11:35:33.363Z</time></trkpt><trkpt lat="45.6080092" lon="9.5782218"><ele>174.8</ele><time>2026-03-25T11:35:34.364Z</time></trkpt><trkpt lat="45.6079847" lon="9.5783674"><ele>174.20000000000002</ele><time>2026-03-25T11:35:35.362Z</time></trkpt><trkpt lat="45.6079627" lon="9.5785124"><ele>173.60000000000002</ele><time>2026-03-25T11:35:36.363Z</time></trkpt><trkpt lat="45.6079346" lon="9.5786559"><ele>173.0</ele><time>2026-03-25T11:35:37.363Z</time></trkpt><trkpt lat="45.6079102" lon="9.5788037"><ele>173.0</ele><time>2026-03-25T11:35:38.364Z</time></trkpt><trkpt lat="45.6078852" lon="9.5789291"><ele>173.0</ele><time>2026-03-25T11:35:39.364Z</time></trkpt><trkpt lat="45.6078567" lon="9.5790608"><ele>173.0</ele><time>2026-03-25T11:35:40.363Z</time></trkpt><trkpt lat="45.6078285" lon="9.5791804"><ele>173.0</ele><time>2026-03-25T11:35:41.363Z</time></trkpt><trkpt lat="45.607806" lon="9.5792991"><ele>173.0</ele><time>2026-03-25T11:35:42.364Z</time></trkpt><trkpt lat="45.6077844" lon="9.5794112"><ele>173.0</ele><time>2026-03-25T11:35:43.364Z</time></trkpt><trkpt lat="45.6077671" lon="9.5795167"><ele>173.16666666666666</ele><time>2026-03-25T11:35:44.363Z</time></trkpt><trkpt lat="45.607748" lon="9.5796235"><ele>173.33333333333331</ele><time>2026-03-25T11:35:45.364Z</time></trkpt><trkpt lat="45.6077312" lon="9.5797168"><ele>173.5</ele><time>2026-03-25T11:35:46.363Z</time></trkpt><trkpt lat="45.607709" lon="9.5798662"><ele>173.66666666666666</ele><time>2026-03-25T11:35:48.362Z</time></trkpt><trkpt lat="45.6076978" lon="9.579968"><ele>173.83333333333334</ele><time>2026-03-25T11:35:50.363Z</time></trkpt><trkpt lat="45.607668" lon="9.5800703"><ele>174.0</ele><time>2026-03-25T11:44:23.367Z</time></trkpt><trkpt lat="45.6076444" lon="9.5802371"><ele>174.0</ele><time>2026-03-25T11:44:25.368Z</time></trkpt><trkpt lat="45.6076315" lon="9.5803265"><ele>174.0</ele><time>2026-03-25T11:44:26.368Z</time></trkpt><trkpt lat="45.6076169" lon="9.5804211"><ele>174.0</ele><time>2026-03-25T11:44:27.367Z</time></trkpt><trkpt lat="45.6076015" lon="9.5805189"><ele>174.0</ele><time>2026-03-25T11:44:28.368Z</time></trkpt><trkpt lat="45.6075844" lon="9.580621"><ele>174.0</ele><time>2026-03-25T11:44:29.368Z</time></trkpt><trkpt lat="45.6075686" lon="9.5807262"><ele>174.0</ele><time>2026-03-25T11:44:30.368Z</time></trkpt><trkpt lat="45.6075522" lon="9.5808326"><ele>174.0</ele><time>2026-03-25T11:44:31.368Z</time></trkpt><trkpt lat="45.6075358" lon="9.5809386"><ele>174.0</ele><time>2026-03-25T11:44:32.368Z</time></trkpt><trkpt lat="45.6075195" lon="9.5810443"><ele>174.0</ele><time>2026-03-25T11:44:33.368Z</time></trkpt><trkpt lat="45.6075039" lon="9.5811502"><ele>174.0</ele><time>2026-03-25T11:44:34.368Z</time></trkpt><trkpt lat="45.6074873" lon="9.5812541"><ele>174.0</ele><time>2026-03-25T11:44:35.368Z</time></trkpt><trkpt lat="45.6074709" lon="9.5813593"><ele>174.0</ele><time>2026-03-25T11:44:36.367Z</time></trkpt><trkpt lat="45.6074539" lon="9.581464"><ele>174.0</ele><time>2026-03-25T11:44:37.367Z</time></trkpt><trkpt lat="45.6074358" lon="9.5815681"><ele>174.0</ele><time>2026-03-25T11:44:38.368Z</time></trkpt><trkpt lat="45.6074193" lon="9.5816723"><ele>174.0</ele><time>2026-03-25T11:44:39.367Z</time></trkpt><trkpt lat="45.6074012" lon="9.5817766"><ele>174.0</ele><time>2026-03-25T11:44:40.368Z</time></trkpt><trkpt lat="45.6073834" lon="9.5818789"><ele>174.0</ele><time>2026-03-25T11:44:41.368Z</time></trkpt><trkpt lat="45.6073652" lon="9.5819821"><ele>174.0</ele><time>2026-03-25T11:44:42.368Z</time></trkpt><trkpt lat="45.6073472" lon="9.5820829"><ele>174.0</ele><time>2026-03-25T11:44:43.368Z</time></trkpt><trkpt lat="45.6073285" lon="9.5821879"><ele>174.0</ele><time>2026-03-25T11:44:44.368Z</time></trkpt><trkpt lat="45.6073108" lon="9.5822949"><ele>174.14285714285714</ele><time>2026-03-25T11:44:45.368Z</time></trkpt><trkpt lat="45.6072955" lon="9.5824024"><ele>174.28571428571428</ele><time>2026-03-25T11:44:46.368Z</time></trkpt><trkpt lat="45.6072791" lon="9.5825091"><ele>174.42857142857144</ele><time>2026-03-25T11:44:47.367Z</time></trkpt><trkpt lat="45.6072618" lon="9.5826121"><ele>174.57142857142856</ele><time>2026-03-25T11:44:48.368Z</time></trkpt><trkpt lat="45.6072471" lon="9.5827118"><ele>174.71428571428572</ele><time>2026-03-25T11:44:49.367Z</time></trkpt><trkpt lat="45.6072305" lon="9.5828069"><ele>174.85714285714286</ele><time>2026-03-25T11:44:50.367Z</time></trkpt><trkpt lat="45.607214" lon="9.5828989"><ele>175.0</ele><time>2026-03-25T11:44:51.368Z</time></trkpt><trkpt lat="45.6071973" lon="9.5829867"><ele>174.6</ele><time>2026-03-25T11:44:52.367Z</time></trkpt><trkpt lat="45.607162" lon="9.583147"><ele>174.2</ele><time>2026-03-25T11:44:54.367Z</time></trkpt><trkpt lat="45.6071256" lon="9.5832922"><ele>173.8</ele><time>2026-03-25T11:44:56.368Z</time></trkpt><trkpt lat="45.6070692" lon="9.5834226"><ele>173.4</ele><time>2026-03-25T11:44:58.368Z</time></trkpt><trkpt lat="45.6069907" lon="9.5835323"><ele>173.0</ele><time>2026-03-25T11:45:00.368Z</time></trkpt><trkpt lat="45.6068822" lon="9.5836012"><ele>172.57142857142856</ele><time>2026-03-25T11:45:02.368Z</time></trkpt><trkpt lat="45.6068197" lon="9.5836336"><ele>172.14285714285717</ele><time>2026-03-25T11:45:03.368Z</time></trkpt><trkpt lat="45.6067588" lon="9.5836785"><ele>171.71428571428572</ele><time>2026-03-25T11:45:04.368Z</time></trkpt><trkpt lat="45.6067016" lon="9.5837345"><ele>171.28571428571428</ele><time>2026-03-25T11:45:05.368Z</time></trkpt><trkpt lat="45.6066515" lon="9.5838096"><ele>170.85714285714283</ele><time>2026-03-25T11:45:06.368Z</time></trkpt><trkpt lat="45.6066146" lon="9.5838989"><ele>170.42857142857144</ele><time>2026-03-25T11:45:07.367Z</time></trkpt><trkpt lat="45.6065925" lon="9.5839986"><ele>170.0</ele><time>2026-03-25T11:45:08.368Z</time></trkpt><trkpt lat="45.6065849" lon="9.5841074"><ele>170.0</ele><time>2026-03-25T11:45:09.368Z</time></trkpt><trkpt lat="45.6065968" lon="9.5842172"><ele>170.0</ele><time>2026-03-25T11:45:10.367Z</time></trkpt><trkpt lat="45.6066292" lon="9.5843161"><ele>170.0</ele><time>2026-03-25T11:45:11.367Z</time></trkpt><trkpt lat="45.606675" lon="9.5844044"><ele>170.0</ele><time>2026-03-25T11:45:12.368Z</time></trkpt><trkpt lat="45.6067332" lon="9.5844734"><ele>170.0</ele><time>2026-03-25T11:45:13.368Z</time></trkpt><trkpt lat="45.6068017" lon="9.584521"><ele>170.0</ele><time>2026-03-25T11:45:14.367Z</time></trkpt><trkpt lat="45.6068746" lon="9.5845459"><ele>170.42857142857144</ele><time>2026-03-25T11:45:15.367Z</time></trkpt><trkpt lat="45.6069503" lon="9.5845471"><ele>170.85714285714283</ele><time>2026-03-25T11:45:16.368Z</time></trkpt><trkpt lat="45.6070224" lon="9.5845182"><ele>171.28571428571428</ele><time>2026-03-25T11:45:17.367Z</time></trkpt><trkpt lat="45.6070848" lon="9.5844669"><ele>171.71428571428572</ele><time>2026-03-25T11:45:18.368Z</time></trkpt><trkpt lat="45.6071404" lon="9.5843974"><ele>172.14285714285717</ele><time>2026-03-25T11:45:19.368Z</time></trkpt><trkpt lat="45.6071838" lon="9.5843117"><ele>172.57142857142856</ele><time>2026-03-25T11:45:20.368Z</time></trkpt><trkpt lat="45.6072098" lon="9.5842095"><ele>173.0</ele><time>2026-03-25T11:45:21.368Z</time></trkpt><trkpt lat="45.6072173" lon="9.5841033"><ele>173.0</ele><time>2026-03-25T11:45:22.368Z</time></trkpt><trkpt lat="45.6072151" lon="9.5839921"><ele>173.0</ele><time>2026-03-25T11:45:23.368Z</time></trkpt><trkpt lat="45.6072054" lon="9.5838849"><ele>173.0</ele><time>2026-03-25T11:45:24.368Z</time></trkpt><trkpt lat="45.6071922" lon="9.5837802"><ele>173.0</ele><time>2026-03-25T11:45:25.367Z</time></trkpt><trkpt lat="45.6071843" lon="9.583673"><ele>173.0</ele><time>2026-03-25T11:45:26.368Z</time></trkpt><trkpt lat="45.6071926" lon="9.5835694"><ele>173.0</ele><time>2026-03-25T11:45:27.367Z</time></trkpt><trkpt lat="45.6072119" lon="9.5834654"><ele>173.0</ele><time>2026-03-25T11:45:28.367Z</time></trkpt><trkpt lat="45.6072338" lon="9.5833651"><ele>173.0</ele><time>2026-03-25T11:45:29.368Z</time></trkpt><trkpt lat="45.6072524" lon="9.5832629"><ele>173.0</ele><time>2026-03-25T11:45:30.367Z</time></trkpt><trkpt lat="45.6072673" lon="9.5831566"><ele>173.0</ele><time>2026-03-25T11:45:31.368Z</time></trkpt><trkpt lat="45.6072876" lon="9.5830526"><ele>173.0</ele><time>2026-03-25T11:45:32.368Z</time></trkpt><trkpt lat="45.6073051" lon="9.5829507"><ele>173.0</ele><time>2026-03-25T11:45:33.368Z</time></trkpt><trkpt lat="45.6073238" lon="9.5828478"><ele>173.0</ele><time>2026-03-25T11:45:34.368Z</time></trkpt><trkpt lat="45.6073433" lon="9.5827477"><ele>173.28571428571428</ele><time>2026-03-25T11:45:35.367Z</time></trkpt><trkpt lat="45.6073643" lon="9.5826473"><ele>173.57142857142858</ele><time>2026-03-25T11:45:36.367Z</time></trkpt><trkpt lat="45.6073824" lon="9.5825416"><ele>173.85714285714286</ele><time>2026-03-25T11:45:37.367Z</time></trkpt><trkpt lat="45.6074008" lon="9.5824329"><ele>174.14285714285714</ele><time>2026-03-25T11:45:38.368Z</time></trkpt><trkpt lat="45.6074213" lon="9.582337"><ele>174.42857142857144</ele><time>2026-03-25T11:45:39.368Z</time></trkpt><trkpt lat="45.6074426" lon="9.58224"><ele>174.71428571428572</ele><time>2026-03-25T11:45:40.367Z</time></trkpt><trkpt lat="45.6074564" lon="9.5821366"><ele>175.0</ele><time>2026-03-25T11:45:41.367Z</time></trkpt><trkpt lat="45.6074721" lon="9.5820294"><ele>174.83333333333334</ele><time>2026-03-25T11:45:42.368Z</time></trkpt><trkpt lat="45.607488" lon="9.5819216"><ele>174.66666666666669</ele><time>2026-03-25T11:45:43.368Z</time></trkpt><trkpt lat="45.6075007" lon="9.5818157"><ele>174.5</ele><time>2026-03-25T11:45:44.368Z</time></trkpt><trkpt lat="45.6075174" lon="9.5817111"><ele>174.33333333333334</ele><time>2026-03-25T11:45:45.367Z</time></trkpt><trkpt lat="45.6075364" lon="9.5816072"><ele>174.16666666666666</ele><time>2026-03-25T11:45:46.368Z</time></trkpt><trkpt lat="45.6075557" lon="9.581502"><ele>174.0</ele><time>2026-03-25T11:45:47.368Z</time></trkpt><trkpt lat="45.6075726" lon="9.5813961"><ele>174.0</ele><time>2026-03-25T11:45:48.367Z</time></trkpt><trkpt lat="45.6075889" lon="9.5812786"><ele>174.0</ele><time>2026-03-25T11:45:49.367Z</time></trkpt><trkpt lat="45.6076081" lon="9.5811616"><ele>174.0</ele><time>2026-03-25T11:45:50.367Z</time></trkpt><trkpt lat="45.607623" lon="9.5810363"><ele>174.0</ele><time>2026-03-25T11:45:51.367Z</time></trkpt><trkpt lat="45.6076408" lon="9.5809095"><ele>174.0</ele><time>2026-03-25T11:45:52.368Z</time></trkpt><trkpt lat="45.6076636" lon="9.5807804"><ele>174.0</ele><time>2026-03-25T11:45:53.368Z</time></trkpt><trkpt lat="45.6076861" lon="9.5806473"><ele>174.0</ele><time>2026-03-25T11:45:54.368Z</time></trkpt><trkpt lat="45.6077063" lon="9.5805051"><ele>174.0</ele><time>2026-03-25T11:45:55.367Z</time></trkpt><trkpt lat="45.6077273" lon="9.580363"><ele>174.0</ele><time>2026-03-25T11:45:56.367Z</time></trkpt><trkpt lat="45.6077491" lon="9.5802222"><ele>174.0</ele><time>2026-03-25T11:45:57.367Z</time></trkpt><trkpt lat="45.6077705" lon="9.5800804"><ele>174.0</ele><time>2026-03-25T11:45:58.368Z</time></trkpt><trkpt lat="45.6077949" lon="9.5799388"><ele>174.0</ele><time>2026-03-25T11:45:59.367Z</time></trkpt><trkpt lat="45.607817" lon="9.5797931"><ele>174.0</ele><time>2026-03-25T11:46:00.368Z</time></trkpt><trkpt lat="45.6078407" lon="9.5796495"><ele>174.0</ele><time>2026-03-25T11:46:01.368Z</time></trkpt><trkpt lat="45.6078608" lon="9.5795031"><ele>174.0</ele><time>2026-03-25T11:46:02.368Z</time></trkpt><trkpt lat="45.6078812" lon="9.5793576"><ele>174.0</ele><time>2026-03-25T11:46:03.368Z</time></trkpt><trkpt lat="45.6079051" lon="9.5792164"><ele>173.79999999999998</ele><time>2026-03-25T11:46:04.368Z</time></trkpt><trkpt lat="45.6079302" lon="9.5790738"><ele>173.6</ele><time>2026-03-25T11:46:05.367Z</time></trkpt><trkpt lat="45.6079501" lon="9.578929"><ele>173.4</ele><time>2026-03-25T11:46:06.368Z</time></trkpt><trkpt lat="45.6079694" lon="9.578782"><ele>173.2</ele><time>2026-03-25T11:46:07.367Z</time></trkpt><trkpt lat="45.6079915" lon="9.5786355"><ele>173.0</ele><time>2026-03-25T11:46:08.368Z</time></trkpt><trkpt lat="45.6080176" lon="9.5784867"><ele>173.0</ele><time>2026-03-25T11:46:09.368Z</time></trkpt><trkpt lat="45.6080424" lon="9.5783339"><ele>173.0</ele><time>2026-03-25T11:46:10.368Z</time></trkpt><trkpt lat="45.6080655" lon="9.5781754"><ele>173.0</ele><time>2026-03-25T11:46:11.368Z</time></trkpt><trkpt lat="45.6080921" lon="9.5780137"><ele>173.0</ele><time>2026-03-25T11:46:12.367Z</time></trkpt><trkpt lat="45.608121" lon="9.5778534"><ele>173.75</ele><time>2026-03-25T11:46:13.367Z</time></trkpt><trkpt lat="45.6081483" lon="9.5776866"><ele>174.5</ele><time>2026-03-25T11:46:14.368Z</time></trkpt><trkpt lat="45.6081743" lon="9.5775224"><ele>175.25</ele><time>2026-03-25T11:46:15.367Z</time></trkpt><trkpt lat="45.6082006" lon="9.5773558"><ele>176.0</ele><time>2026-03-25T11:46:16.367Z</time></trkpt><trkpt lat="45.6082274" lon="9.5771934"><ele>176.0</ele><time>2026-03-25T11:46:17.368Z</time></trkpt><trkpt lat="45.6082523" lon="9.5770392"><ele>176.0</ele><time>2026-03-25T11:46:18.368Z</time></trkpt><trkpt lat="45.608279" lon="9.5768919"><ele>176.0</ele><time>2026-03-25T11:46:19.368Z</time></trkpt><trkpt lat="45.6083019" lon="9.5767504"><ele>176.0</ele><time>2026-03-25T11:46:20.368Z</time></trkpt><trkpt lat="45.6083226" lon="9.5766201"><ele>176.0</ele><time>2026-03-25T11:46:21.367Z</time></trkpt><trkpt lat="45.6083384" lon="9.5764947"><ele>175.83333333333331</ele><time>2026-03-25T11:46:22.368Z</time></trkpt><trkpt lat="45.6083577" lon="9.5763818"><ele>175.66666666666666</ele><time>2026-03-25T11:46:23.368Z</time></trkpt><trkpt lat="45.6083779" lon="9.5762783"><ele>175.5</ele><time>2026-03-25T11:46:24.368Z</time></trkpt><trkpt lat="45.6084088" lon="9.576186"><ele>175.33333333333334</ele><time>2026-03-25T11:46:25.368Z</time></trkpt><trkpt lat="45.6084548" lon="9.5761074"><ele>175.16666666666669</ele><time>2026-03-25T11:46:26.368Z</time></trkpt><trkpt lat="45.6085133" lon="9.576033"><ele>175.0</ele><time>2026-03-25T11:46:27.368Z</time></trkpt><trkpt lat="45.6085604" lon="9.5759357"><ele>175.0</ele><time>2026-03-25T11:46:28.367Z</time></trkpt><trkpt lat="45.6085805" lon="9.5758194"><ele>175.0</ele><time>2026-03-25T11:46:29.368Z</time></trkpt><trkpt lat="45.6085713" lon="9.575709"><ele>175.0</ele><time>2026-03-25T11:46:30.368Z</time></trkpt><trkpt lat="45.6085407" lon="9.5756056"><ele>175.0</ele><time>2026-03-25T11:46:31.368Z</time></trkpt><trkpt lat="45.6085112" lon="9.575501"><ele>175.0</ele><time>2026-03-25T11:46:32.368Z</time></trkpt><trkpt lat="45.6085086" lon="9.5753855"><ele>175.0</ele><time>2026-03-25T11:46:33.368Z</time></trkpt><trkpt lat="45.6085255" lon="9.5752692"><ele>174.6</ele><time>2026-03-25T11:46:34.368Z</time></trkpt><trkpt lat="45.6085494" lon="9.5751508"><ele>174.2</ele><time>2026-03-25T11:46:35.368Z</time></trkpt><trkpt lat="45.6085721" lon="9.5750277"><ele>173.8</ele><time>2026-03-25T11:46:36.368Z</time></trkpt><trkpt lat="45.6085929" lon="9.574899"><ele>173.4</ele><time>2026-03-25T11:46:37.368Z</time></trkpt><trkpt lat="45.608619" lon="9.5747691"><ele>173.0</ele><time>2026-03-25T11:46:38.367Z</time></trkpt><trkpt lat="45.6086432" lon="9.5746339"><ele>172.8</ele><time>2026-03-25T11:46:39.368Z</time></trkpt><trkpt lat="45.6086671" lon="9.5744949"><ele>172.60000000000002</ele><time>2026-03-25T11:46:40.368Z</time></trkpt><trkpt lat="45.6086906" lon="9.5743569"><ele>172.39999999999998</ele><time>2026-03-25T11:46:41.367Z</time></trkpt><trkpt lat="45.6087168" lon="9.5742189"><ele>172.2</ele><time>2026-03-25T11:46:42.368Z</time></trkpt><trkpt lat="45.6087442" lon="9.5740807"><ele>172.0</ele><time>2026-03-25T11:46:43.367Z</time></trkpt><trkpt lat="45.6087693" lon="9.5739398"><ele>172.0</ele><time>2026-03-25T11:46:44.368Z</time></trkpt><trkpt lat="45.6087914" lon="9.5737987"><ele>172.0</ele><time>2026-03-25T11:46:45.368Z</time></trkpt><trkpt lat="45.6088123" lon="9.5736544"><ele>172.0</ele><time>2026-03-25T11:46:46.367Z</time></trkpt><trkpt lat="45.6088379" lon="9.5735109"><ele>172.0</ele><time>2026-03-25T11:46:47.367Z</time></trkpt><trkpt lat="45.6088605" lon="9.573366"><ele>172.0</ele><time>2026-03-25T11:46:48.368Z</time></trkpt><trkpt lat="45.6088865" lon="9.5732225"><ele>171.8</ele><time>2026-03-25T11:46:49.368Z</time></trkpt><trkpt lat="45.6089132" lon="9.5730803"><ele>171.6</ele><time>2026-03-25T11:46:50.368Z</time></trkpt><trkpt lat="45.6089375" lon="9.5729408"><ele>171.4</ele><time>2026-03-25T11:46:51.368Z</time></trkpt><trkpt lat="45.608963" lon="9.5727995"><ele>171.20000000000002</ele><time>2026-03-25T11:46:52.368Z</time></trkpt><trkpt lat="45.6089884" lon="9.5726534"><ele>171.0</ele><time>2026-03-25T11:46:53.368Z</time></trkpt><trkpt lat="45.6090095" lon="9.5725102"><ele>171.0</ele><time>2026-03-25T11:46:54.368Z</time></trkpt><trkpt lat="45.6090306" lon="9.5723719"><ele>171.0</ele><time>2026-03-25T11:46:55.367Z</time></trkpt><trkpt lat="45.609056" lon="9.5722263"><ele>171.0</ele><time>2026-03-25T11:46:56.368Z</time></trkpt><trkpt lat="45.609082" lon="9.5720851"><ele>171.0</ele><time>2026-03-25T11:46:57.368Z</time></trkpt><trkpt lat="45.6091069" lon="9.5719453"><ele>171.0</ele><time>2026-03-25T11:46:58.368Z</time></trkpt><trkpt lat="45.6091315" lon="9.5718039"><ele>170.8</ele><time>2026-03-25T11:46:59.367Z</time></trkpt><trkpt lat="45.6091552" lon="9.5716583"><ele>170.60000000000002</ele><time>2026-03-25T11:47:00.368Z</time></trkpt><trkpt lat="45.6091795" lon="9.5715173"><ele>170.4</ele><time>2026-03-25T11:47:01.368Z</time></trkpt><trkpt lat="45.6092043" lon="9.5713723"><ele>170.2</ele><time>2026-03-25T11:47:02.368Z</time></trkpt><trkpt lat="45.6092283" lon="9.5712255"><ele>170.0</ele><time>2026-03-25T11:47:03.368Z</time></trkpt><trkpt lat="45.6092507" lon="9.5710788"><ele>170.0</ele><time>2026-03-25T11:47:04.367Z</time></trkpt><trkpt lat="45.6092763" lon="9.570935"><ele>170.0</ele><time>2026-03-25T11:47:05.367Z</time></trkpt><trkpt lat="45.6093003" lon="9.5707909"><ele>170.0</ele><time>2026-03-25T11:47:06.368Z</time></trkpt><trkpt lat="45.609325" lon="9.570645"><ele>170.0</ele><time>2026-03-25T11:47:07.368Z</time></trkpt><trkpt lat="45.6093537" lon="9.5704997"><ele>170.0</ele><time>2026-03-25T11:47:08.368Z</time></trkpt><trkpt lat="45.6093819" lon="9.5703589"><ele>169.8</ele><time>2026-03-25T11:47:09.368Z</time></trkpt><trkpt lat="45.6094099" lon="9.57022"><ele>169.6</ele><time>2026-03-25T11:47:10.367Z</time></trkpt><trkpt lat="45.6094328" lon="9.5700752"><ele>169.39999999999998</ele><time>2026-03-25T11:47:11.367Z</time></trkpt><trkpt lat="45.6094541" lon="9.5699316"><ele>169.2</ele><time>2026-03-25T11:47:12.368Z</time></trkpt><trkpt lat="45.609477" lon="9.5697875"><ele>169.0</ele><time>2026-03-25T11:47:13.367Z</time></trkpt><trkpt lat="45.6094988" lon="9.5696465"><ele>169.2</ele><time>2026-03-25T11:47:14.368Z</time></trkpt><trkpt lat="45.6095234" lon="9.5695023"><ele>169.39999999999998</ele><time>2026-03-25T11:47:15.368Z</time></trkpt><trkpt lat="45.6095492" lon="9.5693573"><ele>169.6</ele><time>2026-03-25T11:47:16.368Z</time></trkpt><trkpt lat="45.6095786" lon="9.5692126"><ele>169.8</ele><time>2026-03-25T11:47:17.368Z</time></trkpt><trkpt lat="45.6096046" lon="9.5690685"><ele>170.0</ele><time>2026-03-25T11:47:18.367Z</time></trkpt><trkpt lat="45.609632" lon="9.5689209"><ele>170.0</ele><time>2026-03-25T11:47:19.367Z</time></trkpt><trkpt lat="45.6096572" lon="9.5687774"><ele>170.0</ele><time>2026-03-25T11:47:20.368Z</time></trkpt><trkpt lat="45.6096794" lon="9.5686286"><ele>170.0</ele><time>2026-03-25T11:47:21.368Z</time></trkpt><trkpt lat="45.609704" lon="9.5684799"><ele>170.0</ele><time>2026-03-25T11:47:22.367Z</time></trkpt><trkpt lat="45.6097245" lon="9.5683317"><ele>170.0</ele><time>2026-03-25T11:47:23.368Z</time></trkpt><trkpt lat="45.6097403" lon="9.56818"><ele>169.4</ele><time>2026-03-25T11:47:24.367Z</time></trkpt><trkpt lat="45.6097562" lon="9.5680274"><ele>168.8</ele><time>2026-03-25T11:47:25.368Z</time></trkpt><trkpt lat="45.6097724" lon="9.5678751"><ele>168.2</ele><time>2026-03-25T11:47:26.368Z</time></trkpt><trkpt lat="45.6097896" lon="9.5677239"><ele>167.6</ele><time>2026-03-25T11:47:27.368Z</time></trkpt><trkpt lat="45.6098024" lon="9.5675718"><ele>167.0</ele><time>2026-03-25T11:47:28.368Z</time></trkpt><trkpt lat="45.6098132" lon="9.5674199"><ele>166.39999999999998</ele><time>2026-03-25T11:47:29.367Z</time></trkpt><trkpt lat="45.6098253" lon="9.5672678"><ele>165.79999999999998</ele><time>2026-03-25T11:47:30.367Z</time></trkpt><trkpt lat="45.6098316" lon="9.5671121"><ele>165.2</ele><time>2026-03-25T11:47:31.368Z</time></trkpt><trkpt lat="45.6098354" lon="9.5669541"><ele>164.6</ele><time>2026-03-25T11:47:32.368Z</time></trkpt><trkpt lat="45.609842" lon="9.566806"><ele>164.0</ele><time>2026-03-25T11:47:33.367Z</time></trkpt><trkpt lat="45.6098465" lon="9.5666552"><ele>164.0</ele><time>2026-03-25T11:47:34.368Z</time></trkpt><trkpt lat="45.6098482" lon="9.5665086"><ele>164.0</ele><time>2026-03-25T11:47:35.368Z</time></trkpt><trkpt lat="45.6098444" lon="9.5663565"><ele>164.0</ele><time>2026-03-25T11:47:36.368Z</time></trkpt><trkpt lat="45.6098408" lon="9.566203"><ele>164.0</ele><time>2026-03-25T11:47:37.368Z</time></trkpt><trkpt lat="45.6098391" lon="9.5660531"><ele>164.0</ele><time>2026-03-25T11:47:38.368Z</time></trkpt><trkpt lat="45.6098325" lon="9.5659014"><ele>164.6</ele><time>2026-03-25T11:47:39.367Z</time></trkpt><trkpt lat="45.6098258" lon="9.5657489"><ele>165.2</ele><time>2026-03-25T11:47:40.368Z</time></trkpt><trkpt lat="45.6098166" lon="9.5655943"><ele>165.79999999999998</ele><time>2026-03-25T11:47:41.368Z</time></trkpt><trkpt lat="45.6098088" lon="9.5654433"><ele>166.39999999999998</ele><time>2026-03-25T11:47:42.368Z</time></trkpt><trkpt lat="45.6098002" lon="9.5652922"><ele>167.0</ele><time>2026-03-25T11:47:43.367Z</time></trkpt><trkpt lat="45.6097875" lon="9.5651383"><ele>167.6</ele><time>2026-03-25T11:47:44.368Z</time></trkpt><trkpt lat="45.6097775" lon="9.5649839"><ele>168.2</ele><time>2026-03-25T11:47:45.367Z</time></trkpt><trkpt lat="45.6097688" lon="9.5648318"><ele>168.8</ele><time>2026-03-25T11:47:46.367Z</time></trkpt><trkpt lat="45.609762" lon="9.5646827"><ele>169.4</ele><time>2026-03-25T11:47:47.368Z</time></trkpt><trkpt lat="45.6097526" lon="9.5645328"><ele>170.0</ele><time>2026-03-25T11:47:48.368Z</time></trkpt><trkpt lat="45.6097429" lon="9.5643809"><ele>170.0</ele><time>2026-03-25T11:47:49.367Z</time></trkpt><trkpt lat="45.6097367" lon="9.564231"><ele>170.0</ele><time>2026-03-25T11:47:50.368Z</time></trkpt><trkpt lat="45.6097286" lon="9.5640835"><ele>170.0</ele><time>2026-03-25T11:47:51.368Z</time></trkpt><trkpt lat="45.6097235" lon="9.5639377"><ele>170.0</ele><time>2026-03-25T11:47:52.368Z</time></trkpt><trkpt lat="45.609717" lon="9.5637914"><ele>170.0</ele><time>2026-03-25T11:47:53.367Z</time></trkpt><trkpt lat="45.6097005" lon="9.5636387"><ele>170.0</ele><time>2026-03-25T11:47:54.368Z</time></trkpt><trkpt lat="45.6096909" lon="9.563488"><ele>170.0</ele><time>2026-03-25T11:47:55.367Z</time></trkpt><trkpt lat="45.6096819" lon="9.5633366"><ele>170.0</ele><time>2026-03-25T11:47:56.368Z</time></trkpt><trkpt lat="45.6096727" lon="9.5631866"><ele>170.0</ele><time>2026-03-25T11:47:57.368Z</time></trkpt><trkpt lat="45.6096681" lon="9.5630359"><ele>170.0</ele><time>2026-03-25T11:47:58.368Z</time></trkpt><trkpt lat="45.6096601" lon="9.5628813"><ele>168.4</ele><time>2026-03-25T11:47:59.368Z</time></trkpt><trkpt lat="45.6096486" lon="9.5627244"><ele>166.8</ele><time>2026-03-25T11:48:00.367Z</time></trkpt><trkpt lat="45.6096372" lon="9.5625702"><ele>165.2</ele><time>2026-03-25T11:48:01.368Z</time></trkpt><trkpt lat="45.609627" lon="9.5624175"><ele>163.6</ele><time>2026-03-25T11:48:02.368Z</time></trkpt><trkpt lat="45.6096156" lon="9.5622624"><ele>162.0</ele><time>2026-03-25T11:48:03.368Z</time></trkpt><trkpt lat="45.6096021" lon="9.5621042"><ele>160.79999999999998</ele><time>2026-03-25T11:48:04.368Z</time></trkpt><trkpt lat="45.6095917" lon="9.5619488"><ele>159.6</ele><time>2026-03-25T11:48:05.368Z</time></trkpt><trkpt lat="45.6095833" lon="9.5617905"><ele>158.39999999999998</ele><time>2026-03-25T11:48:06.368Z</time></trkpt><trkpt lat="45.6095745" lon="9.5616306"><ele>157.2</ele><time>2026-03-25T11:48:07.367Z</time></trkpt><trkpt lat="45.6095673" lon="9.5614758"><ele>156.0</ele><time>2026-03-25T11:48:08.368Z</time></trkpt><trkpt lat="45.6095581" lon="9.5613243"><ele>157.6</ele><time>2026-03-25T11:48:09.368Z</time></trkpt><trkpt lat="45.609551" lon="9.5611717"><ele>159.2</ele><time>2026-03-25T11:48:10.368Z</time></trkpt><trkpt lat="45.6095404" lon="9.5610103"><ele>160.79999999999998</ele><time>2026-03-25T11:48:11.368Z</time></trkpt><trkpt lat="45.6095311" lon="9.5608568"><ele>162.39999999999998</ele><time>2026-03-25T11:48:12.368Z</time></trkpt><trkpt lat="45.6095224" lon="9.5607034"><ele>164.0</ele><time>2026-03-25T11:48:13.368Z</time></trkpt><trkpt lat="45.6095164" lon="9.5605518"><ele>164.0</ele><time>2026-03-25T11:48:14.368Z</time></trkpt><trkpt lat="45.6095101" lon="9.5604009"><ele>164.0</ele><time>2026-03-25T11:48:15.367Z</time></trkpt><trkpt lat="45.6095052" lon="9.5602542"><ele>164.0</ele><time>2026-03-25T11:48:16.367Z</time></trkpt><trkpt lat="45.6094985" lon="9.5601097"><ele>164.0</ele><time>2026-03-25T11:48:17.368Z</time></trkpt><trkpt lat="45.6094946" lon="9.5599675"><ele>164.0</ele><time>2026-03-25T11:48:18.368Z</time></trkpt><trkpt lat="45.6094876" lon="9.5598214"><ele>165.0</ele><time>2026-03-25T11:48:19.368Z</time></trkpt><trkpt lat="45.609483" lon="9.5596776"><ele>166.0</ele><time>2026-03-25T11:48:20.368Z</time></trkpt><trkpt lat="45.609478" lon="9.5595347"><ele>167.0</ele><time>2026-03-25T11:48:21.368Z</time></trkpt><trkpt lat="45.609467" lon="9.559389"><ele>168.0</ele><time>2026-03-25T11:48:22.368Z</time></trkpt><trkpt lat="45.6094565" lon="9.5592437"><ele>169.0</ele><time>2026-03-25T11:48:23.367Z</time></trkpt><trkpt lat="45.6094483" lon="9.5590973"><ele>169.2</ele><time>2026-03-25T11:48:24.368Z</time></trkpt><trkpt lat="45.6094389" lon="9.5589536"><ele>169.39999999999998</ele><time>2026-03-25T11:48:25.367Z</time></trkpt><trkpt lat="45.6094239" lon="9.5588074"><ele>169.6</ele><time>2026-03-25T11:48:26.368Z</time></trkpt><trkpt lat="45.6094111" lon="9.5586661"><ele>169.8</ele><time>2026-03-25T11:48:27.368Z</time></trkpt><trkpt lat="45.609396" lon="9.5585266"><ele>170.0</ele><time>2026-03-25T11:48:28.368Z</time></trkpt><trkpt lat="45.6093851" lon="9.5583912"><ele>170.0</ele><time>2026-03-25T11:48:29.367Z</time></trkpt><trkpt lat="45.609376" lon="9.5582694"><ele>170.0</ele><time>2026-03-25T11:48:30.368Z</time></trkpt><trkpt lat="45.6093664" lon="9.5581568"><ele>170.0</ele><time>2026-03-25T11:48:31.368Z</time></trkpt><trkpt lat="45.6093581" lon="9.5580543"><ele>170.0</ele><time>2026-03-25T11:48:32.367Z</time></trkpt><trkpt lat="45.6093463" lon="9.5579532"><ele>170.0</ele><time>2026-03-25T11:48:33.368Z</time></trkpt><trkpt lat="45.6093357" lon="9.5578613"><ele>170.0</ele><time>2026-03-25T11:48:34.368Z</time></trkpt><trkpt lat="45.6093171" lon="9.557701"><ele>170.8</ele><time>2026-03-25T11:48:36.368Z</time></trkpt><trkpt lat="45.6092993" lon="9.5575382"><ele>171.6</ele><time>2026-03-25T11:48:38.368Z</time></trkpt><trkpt lat="45.6092842" lon="9.5574078"><ele>172.39999999999998</ele><time>2026-03-25T11:48:40.368Z</time></trkpt><trkpt lat="45.6092738" lon="9.5572722"><ele>173.2</ele><time>2026-03-25T11:48:42.368Z</time></trkpt><trkpt lat="45.6092625" lon="9.5571511"><ele>174.0</ele><time>2026-03-25T11:48:44.367Z</time></trkpt><trkpt lat="45.6092685" lon="9.5570425"><ele>173.79999999999998</ele><time>2026-03-25T11:48:46.367Z</time></trkpt><trkpt lat="45.6092978" lon="9.5569154"><ele>173.6</ele><time>2026-03-25T11:48:48.368Z</time></trkpt><trkpt lat="45.6093455" lon="9.5567644"><ele>173.4</ele><time>2026-03-25T11:48:50.368Z</time></trkpt><trkpt lat="45.6093444" lon="9.5565857"><ele>173.2</ele><time>2026-03-25T11:48:52.367Z</time></trkpt><trkpt lat="45.6093129" lon="9.556499"><ele>173.0</ele><time>2026-03-25T11:48:53.368Z</time></trkpt><trkpt lat="45.6092627" lon="9.5564246"><ele>173.0</ele><time>2026-03-25T11:48:54.368Z</time></trkpt><trkpt lat="45.609204" lon="9.5563552"><ele>173.0</ele><time>2026-03-25T11:48:55.368Z</time></trkpt><trkpt lat="45.6091493" lon="9.556275"><ele>173.0</ele><time>2026-03-25T11:48:56.367Z</time></trkpt><trkpt lat="45.6091096" lon="9.5561777"><ele>173.0</ele><time>2026-03-25T11:48:57.368Z</time></trkpt><trkpt lat="45.6090813" lon="9.5560703"><ele>173.0</ele><time>2026-03-25T11:48:58.368Z</time></trkpt><trkpt lat="45.6090539" lon="9.5559577"><ele>173.0</ele><time>2026-03-25T11:48:59.367Z</time></trkpt><trkpt lat="45.60903" lon="9.5558416"><ele>173.16666666666666</ele><time>2026-03-25T11:49:00.367Z</time></trkpt><trkpt lat="45.6090035" lon="9.5557226"><ele>173.33333333333331</ele><time>2026-03-25T11:49:01.368Z</time></trkpt><trkpt lat="45.608978" lon="9.5556015"><ele>173.5</ele><time>2026-03-25T11:49:02.368Z</time></trkpt><trkpt lat="45.6089534" lon="9.5554804"><ele>173.66666666666666</ele><time>2026-03-25T11:49:03.368Z</time></trkpt><trkpt lat="45.6089282" lon="9.5553646"><ele>173.83333333333334</ele><time>2026-03-25T11:49:04.368Z</time></trkpt><trkpt lat="45.6089027" lon="9.5552472"><ele>174.0</ele><time>2026-03-25T11:49:05.368Z</time></trkpt><trkpt lat="45.608877" lon="9.5551276"><ele>174.0</ele><time>2026-03-25T11:49:06.368Z</time></trkpt><trkpt lat="45.60885" lon="9.5550071"><ele>174.0</ele><time>2026-03-25T11:49:07.368Z</time></trkpt><trkpt lat="45.6088231" lon="9.5548874"><ele>174.0</ele><time>2026-03-25T11:49:08.368Z</time></trkpt><trkpt lat="45.6087958" lon="9.5547717"><ele>174.0</ele><time>2026-03-25T11:49:09.368Z</time></trkpt><trkpt lat="45.6087696" lon="9.5546643"><ele>174.0</ele><time>2026-03-25T11:49:10.367Z</time></trkpt><trkpt lat="45.6087446" lon="9.5545609"><ele>174.0</ele><time>2026-03-25T11:49:11.367Z</time></trkpt><trkpt lat="45.6087241" lon="9.554472"><ele>174.0</ele><time>2026-03-25T11:49:12.368Z</time></trkpt><trkpt lat="45.6086909" lon="9.5543324"><ele>174.0</ele><time>2026-03-25T11:49:14.367Z</time></trkpt><trkpt lat="45.6086577" lon="9.5542023"><ele>174.0</ele><time>2026-03-25T11:49:16.368Z</time></trkpt><trkpt lat="45.6086194" lon="9.554041"><ele>174.0</ele><time>2026-03-25T11:49:18.368Z</time></trkpt><trkpt lat="45.6085979" lon="9.5539414"><ele>174.0</ele><time>2026-03-25T11:49:19.368Z</time></trkpt><trkpt lat="45.6085751" lon="9.5538365"><ele>173.66666666666666</ele><time>2026-03-25T11:49:20.368Z</time></trkpt><trkpt lat="45.608552" lon="9.5537266"><ele>173.33333333333334</ele><time>2026-03-25T11:49:21.368Z</time></trkpt><trkpt lat="45.608523" lon="9.5536192"><ele>173.0</ele><time>2026-03-25T11:49:22.368Z</time></trkpt><trkpt lat="45.6084949" lon="9.5535077"><ele>172.66666666666669</ele><time>2026-03-25T11:49:23.368Z</time></trkpt><trkpt lat="45.6084715" lon="9.5533923"><ele>172.33333333333334</ele><time>2026-03-25T11:49:24.368Z</time></trkpt><trkpt lat="45.6084466" lon="9.5532733"><ele>172.0</ele><time>2026-03-25T11:49:25.367Z</time></trkpt><trkpt lat="45.6084186" lon="9.5531562"><ele>172.0</ele><time>2026-03-25T11:49:26.368Z</time></trkpt><trkpt lat="45.608392" lon="9.5530378"><ele>172.0</ele><time>2026-03-25T11:49:27.367Z</time></trkpt><trkpt lat="45.6083706" lon="9.5529205"><ele>172.0</ele><time>2026-03-25T11:49:28.368Z</time></trkpt><trkpt lat="45.6083499" lon="9.5528053"><ele>172.0</ele><time>2026-03-25T11:49:29.367Z</time></trkpt><trkpt lat="45.6083252" lon="9.5526861"><ele>172.0</ele><time>2026-03-25T11:49:30.367Z</time></trkpt><trkpt lat="45.6083023" lon="9.5525686"><ele>172.0</ele><time>2026-03-25T11:49:31.368Z</time></trkpt><trkpt lat="45.6082778" lon="9.5524477"><ele>172.39999999999998</ele><time>2026-03-25T11:49:32.368Z</time></trkpt><trkpt lat="45.6082539" lon="9.5523414"><ele>172.79999999999998</ele><time>2026-03-25T11:49:33.368Z</time></trkpt><trkpt lat="45.6082237" lon="9.5521881"><ele>173.2</ele><time>2026-03-25T11:49:35.367Z</time></trkpt><trkpt lat="45.6081937" lon="9.5520667"><ele>173.6</ele><time>2026-03-25T11:49:37.368Z</time></trkpt><trkpt lat="45.608214" lon="9.5519255"><ele>174.0</ele><time>2026-03-25T11:49:39.367Z</time></trkpt><trkpt lat="45.608236" lon="9.5517471"><ele>174.42857142857142</ele><time>2026-03-25T11:49:41.368Z</time></trkpt><trkpt lat="45.6082202" lon="9.5516574"><ele>174.85714285714286</ele><time>2026-03-25T11:49:42.368Z</time></trkpt><trkpt lat="45.60818" lon="9.5515828"><ele>175.28571428571428</ele><time>2026-03-25T11:49:43.367Z</time></trkpt><trkpt lat="45.6081257" lon="9.5515283"><ele>175.71428571428572</ele><time>2026-03-25T11:49:44.368Z</time></trkpt><trkpt lat="45.6080631" lon="9.5514816"><ele>176.14285714285714</ele><time>2026-03-25T11:49:45.368Z</time></trkpt><trkpt lat="45.608004" lon="9.5514314"><ele>176.57142857142858</ele><time>2026-03-25T11:49:46.368Z</time></trkpt><trkpt lat="45.6079697" lon="9.5513489"><ele>177.0</ele><time>2026-03-25T11:49:47.367Z</time></trkpt><trkpt lat="45.6079436" lon="9.5512486"><ele>177.0</ele><time>2026-03-25T11:49:48.368Z</time></trkpt><trkpt lat="45.6079182" lon="9.5511439"><ele>177.0</ele><time>2026-03-25T11:49:49.368Z</time></trkpt><trkpt lat="45.6078911" lon="9.5510348"><ele>177.0</ele><time>2026-03-25T11:49:50.368Z</time></trkpt><trkpt lat="45.607861" lon="9.5509179"><ele>177.0</ele><time>2026-03-25T11:49:51.368Z</time></trkpt><trkpt lat="45.6078266" lon="9.5508023"><ele>177.0</ele><time>2026-03-25T11:49:52.367Z</time></trkpt><trkpt lat="45.6077942" lon="9.5506817"><ele>177.0</ele><time>2026-03-25T11:49:53.367Z</time></trkpt><trkpt lat="45.6077628" lon="9.5505566"><ele>177.2</ele><time>2026-03-25T11:49:54.368Z</time></trkpt><trkpt lat="45.607735" lon="9.5504293"><ele>177.39999999999998</ele><time>2026-03-25T11:49:55.368Z</time></trkpt><trkpt lat="45.6077089" lon="9.5503103"><ele>177.60000000000002</ele><time>2026-03-25T11:49:56.368Z</time></trkpt><trkpt lat="45.6076733" lon="9.5501791"><ele>177.8</ele><time>2026-03-25T11:49:57.367Z</time></trkpt><trkpt lat="45.6076528" lon="9.5500508"><ele>178.0</ele><time>2026-03-25T11:49:58.368Z</time></trkpt><trkpt lat="45.6076316" lon="9.5499146"><ele>178.0</ele><time>2026-03-25T11:49:59.368Z</time></trkpt><trkpt lat="45.6076126" lon="9.5497841"><ele>178.0</ele><time>2026-03-25T11:50:00.368Z</time></trkpt><trkpt lat="45.6075975" lon="9.5496558"><ele>178.0</ele><time>2026-03-25T11:50:01.368Z</time></trkpt><trkpt lat="45.6075896" lon="9.5495269"><ele>178.0</ele><time>2026-03-25T11:50:02.368Z</time></trkpt><trkpt lat="45.6075884" lon="9.5493911"><ele>178.0</ele><time>2026-03-25T11:50:03.368Z</time></trkpt><trkpt lat="45.6075896" lon="9.5492555"><ele>178.0</ele><time>2026-03-25T11:50:04.368Z</time></trkpt><trkpt lat="45.6075958" lon="9.5491249"><ele>178.0</ele><time>2026-03-25T11:50:05.367Z</time></trkpt><trkpt lat="45.607602" lon="9.5489934"><ele>178.0</ele><time>2026-03-25T11:50:06.367Z</time></trkpt><trkpt lat="45.6076137" lon="9.5488634"><ele>178.0</ele><time>2026-03-25T11:50:07.368Z</time></trkpt><trkpt lat="45.6076238" lon="9.5487261"><ele>178.0</ele><time>2026-03-25T11:50:08.368Z</time></trkpt><trkpt lat="45.6076386" lon="9.5485947"><ele>178.0</ele><time>2026-03-25T11:50:09.368Z</time></trkpt><trkpt lat="45.6076569" lon="9.5484588"><ele>178.0</ele><time>2026-03-25T11:50:10.368Z</time></trkpt><trkpt lat="45.607669" lon="9.5483233"><ele>178.0</ele><time>2026-03-25T11:50:11.368Z</time></trkpt><trkpt lat="45.6076767" lon="9.5481849"><ele>178.0</ele><time>2026-03-25T11:50:12.368Z</time></trkpt><trkpt lat="45.6076914" lon="9.5480562"><ele>178.0</ele><time>2026-03-25T11:50:13.367Z</time></trkpt><trkpt lat="45.6077037" lon="9.5479136"><ele>177.8</ele><time>2026-03-25T11:50:14.368Z</time></trkpt><trkpt lat="45.6077127" lon="9.5477759"><ele>177.60000000000002</ele><time>2026-03-25T11:50:15.368Z</time></trkpt><trkpt lat="45.6077247" lon="9.5476377"><ele>177.39999999999998</ele><time>2026-03-25T11:50:16.368Z</time></trkpt><trkpt lat="45.607737" lon="9.5474961"><ele>177.2</ele><time>2026-03-25T11:50:17.368Z</time></trkpt><trkpt lat="45.6077466" lon="9.5473528"><ele>177.0</ele><time>2026-03-25T11:50:18.368Z</time></trkpt><trkpt lat="45.6077574" lon="9.5472084"><ele>177.0</ele><time>2026-03-25T11:50:19.368Z</time></trkpt><trkpt lat="45.6077703" lon="9.5470618"><ele>177.0</ele><time>2026-03-25T11:50:20.367Z</time></trkpt><trkpt lat="45.6077794" lon="9.546918"><ele>177.0</ele><time>2026-03-25T11:50:21.368Z</time></trkpt><trkpt lat="45.6077893" lon="9.5467749"><ele>177.0</ele><time>2026-03-25T11:50:22.367Z</time></trkpt><trkpt lat="45.6077967" lon="9.5466337"><ele>177.0</ele><time>2026-03-25T11:50:23.368Z</time></trkpt><trkpt lat="45.6078084" lon="9.5464902"><ele>177.2</ele><time>2026-03-25T11:50:24.368Z</time></trkpt><trkpt lat="45.607822" lon="9.5463406"><ele>177.39999999999998</ele><time>2026-03-25T11:50:25.367Z</time></trkpt><trkpt lat="45.6078287" lon="9.5461973"><ele>177.60000000000002</ele><time>2026-03-25T11:50:26.368Z</time></trkpt><trkpt lat="45.6078394" lon="9.5460574"><ele>177.8</ele><time>2026-03-25T11:50:27.368Z</time></trkpt><trkpt lat="45.6078512" lon="9.545918"><ele>178.0</ele><time>2026-03-25T11:50:28.368Z</time></trkpt><trkpt lat="45.60786" lon="9.5457737"><ele>178.60000000000002</ele><time>2026-03-25T11:50:29.368Z</time></trkpt><trkpt lat="45.6078673" lon="9.5456192"><ele>179.20000000000002</ele><time>2026-03-25T11:50:30.368Z</time></trkpt><trkpt lat="45.6078772" lon="9.5454703"><ele>179.8</ele><time>2026-03-25T11:50:31.368Z</time></trkpt><trkpt lat="45.6078923" lon="9.5453272"><ele>180.4</ele><time>2026-03-25T11:50:32.368Z</time></trkpt><trkpt lat="45.6079069" lon="9.545189"><ele>181.0</ele><time>2026-03-25T11:50:33.367Z</time></trkpt><trkpt lat="45.6079207" lon="9.5450536"><ele>181.0</ele><time>2026-03-25T11:50:34.368Z</time></trkpt><trkpt lat="45.6079365" lon="9.5449227"><ele>181.0</ele><time>2026-03-25T11:50:35.367Z</time></trkpt><trkpt lat="45.6079589" lon="9.5448056"><ele>181.0</ele><time>2026-03-25T11:50:36.368Z</time></trkpt><trkpt lat="45.6079867" lon="9.5446932"><ele>181.0</ele><time>2026-03-25T11:50:37.368Z</time></trkpt><trkpt lat="45.6080121" lon="9.5445846"><ele>181.0</ele><time>2026-03-25T11:50:38.368Z</time></trkpt><trkpt lat="45.608038" lon="9.5444771"><ele>181.0</ele><time>2026-03-25T11:50:39.368Z</time></trkpt><trkpt lat="45.6080656" lon="9.5443687"><ele>180.66666666666669</ele><time>2026-03-25T11:50:40.368Z</time></trkpt><trkpt lat="45.6080921" lon="9.544259"><ele>180.33333333333334</ele><time>2026-03-25T11:50:41.368Z</time></trkpt><trkpt lat="45.6081192" lon="9.5441491"><ele>180.0</ele><time>2026-03-25T11:50:42.368Z</time></trkpt><trkpt lat="45.6081415" lon="9.5440397"><ele>179.66666666666666</ele><time>2026-03-25T11:50:43.368Z</time></trkpt><trkpt lat="45.6081654" lon="9.5439323"><ele>179.33333333333331</ele><time>2026-03-25T11:50:44.368Z</time></trkpt><trkpt lat="45.6081897" lon="9.5438292"><ele>179.0</ele><time>2026-03-25T11:50:45.367Z</time></trkpt><trkpt lat="45.6082149" lon="9.5437308"><ele>178.83333333333331</ele><time>2026-03-25T11:50:46.368Z</time></trkpt><trkpt lat="45.6082405" lon="9.5436364"><ele>178.66666666666666</ele><time>2026-03-25T11:50:47.368Z</time></trkpt><trkpt lat="45.608263" lon="9.5435456"><ele>178.5</ele><time>2026-03-25T11:50:48.368Z</time></trkpt><trkpt lat="45.6082809" lon="9.5434567"><ele>178.33333333333334</ele><time>2026-03-25T11:50:49.367Z</time></trkpt><trkpt lat="45.6083059" lon="9.5432778"><ele>178.16666666666669</ele><time>2026-03-25T11:50:51.367Z</time></trkpt><trkpt lat="45.6083181" lon="9.5431771"><ele>178.0</ele><time>2026-03-25T11:50:52.367Z</time></trkpt><trkpt lat="45.608322" lon="9.5430753"><ele>178.0</ele><time>2026-03-25T11:50:53.368Z</time></trkpt><trkpt lat="45.6083174" lon="9.5429774"><ele>178.0</ele><time>2026-03-25T11:50:54.367Z</time></trkpt><trkpt lat="45.6083083" lon="9.5428033"><ele>178.0</ele><time>2026-03-25T11:50:56.368Z</time></trkpt><trkpt lat="45.6082884" lon="9.542626"><ele>178.0</ele><time>2026-03-25T11:50:58.367Z</time></trkpt><trkpt lat="45.6082709" lon="9.5425332"><ele>178.0</ele><time>2026-03-25T11:50:59.368Z</time></trkpt><trkpt lat="45.6082587" lon="9.5424355"><ele>177.85714285714283</ele><time>2026-03-25T11:51:00.368Z</time></trkpt><trkpt lat="45.6082551" lon="9.5423344"><ele>177.71428571428572</ele><time>2026-03-25T11:51:01.368Z</time></trkpt><trkpt lat="45.6082664" lon="9.5422334"><ele>177.57142857142856</ele><time>2026-03-25T11:51:02.368Z</time></trkpt><trkpt lat="45.6082991" lon="9.5421404"><ele>177.42857142857142</ele><time>2026-03-25T11:51:03.368Z</time></trkpt><trkpt lat="45.6083425" lon="9.5420493"><ele>177.28571428571428</ele><time>2026-03-25T11:51:04.367Z</time></trkpt><trkpt lat="45.6083836" lon="9.5419557"><ele>177.14285714285714</ele><time>2026-03-25T11:51:05.367Z</time></trkpt><trkpt lat="45.6084146" lon="9.5418513"><ele>177.0</ele><time>2026-03-25T11:51:06.367Z</time></trkpt><trkpt lat="45.6084244" lon="9.541735"><ele>177.33333333333334</ele><time>2026-03-25T11:51:07.368Z</time></trkpt><trkpt lat="45.6084147" lon="9.5416124"><ele>177.66666666666666</ele><time>2026-03-25T11:51:08.368Z</time></trkpt><trkpt lat="45.6083855" lon="9.541498"><ele>178.0</ele><time>2026-03-25T11:51:09.368Z</time></trkpt><trkpt lat="45.6083486" lon="9.5413871"><ele>178.33333333333331</ele><time>2026-03-25T11:51:10.367Z</time></trkpt><trkpt lat="45.6083029" lon="9.5412784"><ele>178.66666666666666</ele><time>2026-03-25T11:51:11.368Z</time></trkpt><trkpt lat="45.6082498" lon="9.5411661"><ele>179.0</ele><time>2026-03-25T11:51:12.367Z</time></trkpt><trkpt lat="45.6081974" lon="9.5410526"><ele>179.0</ele><time>2026-03-25T11:51:13.368Z</time></trkpt><trkpt lat="45.6081477" lon="9.5409419"><ele>179.0</ele><time>2026-03-25T11:51:14.368Z</time></trkpt><trkpt lat="45.6080977" lon="9.5408295"><ele>179.0</ele><time>2026-03-25T11:51:15.368Z</time></trkpt><trkpt lat="45.6080533" lon="9.5407208"><ele>179.0</ele><time>2026-03-25T11:51:16.367Z</time></trkpt><trkpt lat="45.6080141" lon="9.5406053"><ele>179.0</ele><time>2026-03-25T11:51:17.368Z</time></trkpt><trkpt lat="45.6079815" lon="9.5404889"><ele>179.16666666666666</ele><time>2026-03-25T11:51:18.368Z</time></trkpt><trkpt lat="45.6079596" lon="9.5403681"><ele>179.33333333333331</ele><time>2026-03-25T11:51:19.368Z</time></trkpt><trkpt lat="45.6079458" lon="9.5402428"><ele>179.5</ele><time>2026-03-25T11:51:20.368Z</time></trkpt><trkpt lat="45.607942" lon="9.5401168"><ele>179.66666666666666</ele><time>2026-03-25T11:51:21.367Z</time></trkpt><trkpt lat="45.6079422" lon="9.5399935"><ele>179.83333333333334</ele><time>2026-03-25T11:51:22.368Z</time></trkpt><trkpt lat="45.6079563" lon="9.539876"><ele>180.0</ele><time>2026-03-25T11:51:23.368Z</time></trkpt><trkpt lat="45.6079787" lon="9.5397587"><ele>180.0</ele><time>2026-03-25T11:51:24.368Z</time></trkpt><trkpt lat="45.608008" lon="9.539646"><ele>180.0</ele><time>2026-03-25T11:51:25.368Z</time></trkpt><trkpt lat="45.6080457" lon="9.5395372"><ele>180.0</ele><time>2026-03-25T11:51:26.367Z</time></trkpt><trkpt lat="45.6080973" lon="9.5394345"><ele>180.0</ele><time>2026-03-25T11:51:27.367Z</time></trkpt><trkpt lat="45.6081509" lon="9.5393366"><ele>180.0</ele><time>2026-03-25T11:51:28.368Z</time></trkpt><trkpt lat="45.6082126" lon="9.5392421"><ele>180.0</ele><time>2026-03-25T11:51:29.367Z</time></trkpt><trkpt lat="45.6082778" lon="9.5391543"><ele>180.4</ele><time>2026-03-25T11:51:30.368Z</time></trkpt><trkpt lat="45.6083446" lon="9.5390725"><ele>180.8</ele><time>2026-03-25T11:51:31.368Z</time></trkpt><trkpt lat="45.6084175" lon="9.5389852"><ele>181.2</ele><time>2026-03-25T11:51:32.368Z</time></trkpt><trkpt lat="45.6084916" lon="9.5388981"><ele>181.6</ele><time>2026-03-25T11:51:33.367Z</time></trkpt><trkpt lat="45.6085685" lon="9.5388105"><ele>182.0</ele><time>2026-03-25T11:51:34.368Z</time></trkpt><trkpt lat="45.6086359" lon="9.5387348"><ele>182.42857142857142</ele><time>2026-03-25T11:51:35.368Z</time></trkpt><trkpt lat="45.6086955" lon="9.5386672"><ele>182.85714285714286</ele><time>2026-03-25T11:51:36.367Z</time></trkpt><trkpt lat="45.6087593" lon="9.5386195"><ele>183.28571428571428</ele><time>2026-03-25T11:51:37.368Z</time></trkpt><trkpt lat="45.6088289" lon="9.5386073"><ele>183.71428571428572</ele><time>2026-03-25T11:51:38.367Z</time></trkpt><trkpt lat="45.6089009" lon="9.5386206"><ele>184.14285714285714</ele><time>2026-03-25T11:51:39.367Z</time></trkpt><trkpt lat="45.608973" lon="9.5386365"><ele>184.57142857142856</ele><time>2026-03-25T11:51:40.368Z</time></trkpt><trkpt lat="45.6090457" lon="9.5386175"><ele>185.0</ele><time>2026-03-25T11:51:41.368Z</time></trkpt><trkpt lat="45.6091157" lon="9.5385675"><ele>185.0</ele><time>2026-03-25T11:51:42.368Z</time></trkpt><trkpt lat="45.6091816" lon="9.5385058"><ele>185.0</ele><time>2026-03-25T11:51:43.367Z</time></trkpt><trkpt lat="45.6092521" lon="9.5384424"><ele>185.0</ele><time>2026-03-25T11:51:44.368Z</time></trkpt><trkpt lat="45.6093287" lon="9.5384029"><ele>185.0</ele><time>2026-03-25T11:51:45.368Z</time></trkpt><trkpt lat="45.6094073" lon="9.5383921"><ele>185.0</ele><time>2026-03-25T11:51:46.368Z</time></trkpt><trkpt lat="45.6094864" lon="9.538434"><ele>185.0</ele><time>2026-03-25T11:51:47.367Z</time></trkpt><trkpt lat="45.609567" lon="9.538496"><ele>184.8</ele><time>2026-03-25T11:51:48.368Z</time></trkpt><trkpt lat="45.6096515" lon="9.5385495"><ele>184.6</ele><time>2026-03-25T11:51:49.368Z</time></trkpt><trkpt lat="45.609744" lon="9.5386069"><ele>184.39999999999998</ele><time>2026-03-25T11:51:50.368Z</time></trkpt><trkpt lat="45.6098351" lon="9.5386632"><ele>184.2</ele><time>2026-03-25T11:51:51.368Z</time></trkpt><trkpt lat="45.6099196" lon="9.5387223"><ele>184.0</ele><time>2026-03-25T11:51:52.368Z</time></trkpt><trkpt lat="45.6100031" lon="9.5387755"><ele>183.6</ele><time>2026-03-25T11:51:53.368Z</time></trkpt><trkpt lat="45.61008" lon="9.538831"><ele>183.2</ele><time>2026-03-25T11:51:54.368Z</time></trkpt><trkpt lat="45.6101533" lon="9.5388962"><ele>182.79999999999998</ele><time>2026-03-25T11:51:55.368Z</time></trkpt><trkpt lat="45.6102263" lon="9.538975"><ele>182.39999999999998</ele><time>2026-03-25T11:51:56.368Z</time></trkpt><trkpt lat="45.6102957" lon="9.5390668"><ele>182.0</ele><time>2026-03-25T11:51:57.367Z</time></trkpt><trkpt lat="45.6103508" lon="9.5391816"><ele>182.0</ele><time>2026-03-25T11:51:58.368Z</time></trkpt><trkpt lat="45.6104088" lon="9.5393007"><ele>182.0</ele><time>2026-03-25T11:51:59.368Z</time></trkpt><trkpt lat="45.6104775" lon="9.5394048"><ele>182.0</ele><time>2026-03-25T11:52:00.368Z</time></trkpt><trkpt lat="45.610554" lon="9.5394897"><ele>182.0</ele><time>2026-03-25T11:52:01.368Z</time></trkpt><trkpt lat="45.6106294" lon="9.5395569"><ele>182.0</ele><time>2026-03-25T11:52:02.368Z</time></trkpt><trkpt lat="45.610704" lon="9.539616"><ele>182.14285714285714</ele><time>2026-03-25T11:52:03.367Z</time></trkpt><trkpt lat="45.6107726" lon="9.5396621"><ele>182.28571428571428</ele><time>2026-03-25T11:52:04.368Z</time></trkpt><trkpt lat="45.6108494" lon="9.5396895"><ele>182.42857142857144</ele><time>2026-03-25T11:52:05.368Z</time></trkpt><trkpt lat="45.6109277" lon="9.5397014"><ele>182.57142857142856</ele><time>2026-03-25T11:52:06.368Z</time></trkpt><trkpt lat="45.611005" lon="9.5397011"><ele>182.71428571428572</ele><time>2026-03-25T11:52:07.368Z</time></trkpt><trkpt lat="45.611074" lon="9.5396832"><ele>182.85714285714286</ele><time>2026-03-25T11:52:08.368Z</time></trkpt><trkpt lat="45.6111324" lon="9.539637"><ele>183.0</ele><time>2026-03-25T11:52:09.368Z</time></trkpt><trkpt lat="45.6111997" lon="9.5394851"><ele>183.33333333333334</ele><time>2026-03-25T11:52:11.368Z</time></trkpt><trkpt lat="45.6112126" lon="9.5393932"><ele>183.66666666666666</ele><time>2026-03-25T11:52:12.368Z</time></trkpt><trkpt lat="45.6112201" lon="9.539292"><ele>184.0</ele><time>2026-03-25T11:52:13.368Z</time></trkpt><trkpt lat="45.6112222" lon="9.539182"><ele>184.33333333333331</ele><time>2026-03-25T11:52:14.368Z</time></trkpt><trkpt lat="45.6112309" lon="9.5390674"><ele>184.66666666666666</ele><time>2026-03-25T11:52:15.368Z</time></trkpt><trkpt lat="45.6112529" lon="9.5389522"><ele>185.0</ele><time>2026-03-25T11:52:16.368Z</time></trkpt><trkpt lat="45.6112894" lon="9.5388382"><ele>185.0</ele><time>2026-03-25T11:52:17.368Z</time></trkpt><trkpt lat="45.6113382" lon="9.5387332"><ele>185.0</ele><time>2026-03-25T11:52:18.368Z</time></trkpt><trkpt lat="45.6113981" lon="9.5386421"><ele>185.0</ele><time>2026-03-25T11:52:19.368Z</time></trkpt><trkpt lat="45.6114679" lon="9.5385651"><ele>185.0</ele><time>2026-03-25T11:52:20.367Z</time></trkpt><trkpt lat="45.6115443" lon="9.538503"><ele>185.0</ele><time>2026-03-25T11:52:21.368Z</time></trkpt><trkpt lat="45.6116237" lon="9.5384456"><ele>185.0</ele><time>2026-03-25T11:52:22.368Z</time></trkpt><trkpt lat="45.6117029" lon="9.5383835"><ele>185.0</ele><time>2026-03-25T11:52:23.368Z</time></trkpt><trkpt lat="45.6117811" lon="9.5383199"><ele>185.0</ele><time>2026-03-25T11:52:24.368Z</time></trkpt><trkpt lat="45.6118622" lon="9.5382553"><ele>185.0</ele><time>2026-03-25T11:52:25.368Z</time></trkpt><trkpt lat="45.6119431" lon="9.5381949"><ele>185.0</ele><time>2026-03-25T11:52:26.367Z</time></trkpt><trkpt lat="45.6120285" lon="9.5381345"><ele>185.0</ele><time>2026-03-25T11:52:27.368Z</time></trkpt><trkpt lat="45.6121136" lon="9.5380782"><ele>185.0</ele><time>2026-03-25T11:52:28.368Z</time></trkpt><trkpt lat="45.6121953" lon="9.538013"><ele>185.0</ele><time>2026-03-25T11:52:29.368Z</time></trkpt><trkpt lat="45.6122784" lon="9.5379507"><ele>185.0</ele><time>2026-03-25T11:52:30.368Z</time></trkpt><trkpt lat="45.6123642" lon="9.5378887"><ele>185.0</ele><time>2026-03-25T11:52:31.368Z</time></trkpt><trkpt lat="45.6124502" lon="9.5378256"><ele>185.0</ele><time>2026-03-25T11:52:32.368Z</time></trkpt><trkpt lat="45.6125334" lon="9.5377586"><ele>185.0</ele><time>2026-03-25T11:52:33.368Z</time></trkpt><trkpt lat="45.6126183" lon="9.5376992"><ele>185.0</ele><time>2026-03-25T11:52:34.368Z</time></trkpt><trkpt lat="45.6127044" lon="9.5376339"><ele>185.0</ele><time>2026-03-25T11:52:35.367Z</time></trkpt><trkpt lat="45.6127876" lon="9.5375682"><ele>185.0</ele><time>2026-03-25T11:52:36.368Z</time></trkpt><trkpt lat="45.6128743" lon="9.5375083"><ele>185.0</ele><time>2026-03-25T11:52:37.367Z</time></trkpt><trkpt lat="45.6129586" lon="9.5374497"><ele>185.2</ele><time>2026-03-25T11:52:38.368Z</time></trkpt><trkpt lat="45.6130424" lon="9.5373842"><ele>185.4</ele><time>2026-03-25T11:52:39.367Z</time></trkpt><trkpt lat="45.6131297" lon="9.5373159"><ele>185.60000000000002</ele><time>2026-03-25T11:52:40.368Z</time></trkpt><trkpt lat="45.6132164" lon="9.5372496"><ele>185.8</ele><time>2026-03-25T11:52:41.368Z</time></trkpt><trkpt lat="45.6133033" lon="9.537182"><ele>186.0</ele><time>2026-03-25T11:52:42.368Z</time></trkpt><trkpt lat="45.6133895" lon="9.5371144"><ele>185.8</ele><time>2026-03-25T11:52:43.368Z</time></trkpt><trkpt lat="45.6134769" lon="9.5370484"><ele>185.60000000000002</ele><time>2026-03-25T11:52:44.368Z</time></trkpt><trkpt lat="45.6135625" lon="9.5369849"><ele>185.4</ele><time>2026-03-25T11:52:45.368Z</time></trkpt><trkpt lat="45.6136492" lon="9.5369205"><ele>185.2</ele><time>2026-03-25T11:52:46.368Z</time></trkpt><trkpt lat="45.6137372" lon="9.5368504"><ele>185.0</ele><time>2026-03-25T11:52:47.368Z</time></trkpt><trkpt lat="45.6138197" lon="9.5367786"><ele>185.0</ele><time>2026-03-25T11:52:48.368Z</time></trkpt><trkpt lat="45.6139081" lon="9.5367118"><ele>185.0</ele><time>2026-03-25T11:52:49.367Z</time></trkpt><trkpt lat="45.6139973" lon="9.5366473"><ele>185.0</ele><time>2026-03-25T11:52:50.367Z</time></trkpt><trkpt lat="45.6140862" lon="9.5365802"><ele>185.0</ele><time>2026-03-25T11:52:51.368Z</time></trkpt><trkpt lat="45.6141777" lon="9.5365052"><ele>185.0</ele><time>2026-03-25T11:52:52.368Z</time></trkpt><trkpt lat="45.6142686" lon="9.5364343"><ele>185.0</ele><time>2026-03-25T11:52:53.368Z</time></trkpt><trkpt lat="45.6143591" lon="9.5363676"><ele>185.0</ele><time>2026-03-25T11:52:54.368Z</time></trkpt><trkpt lat="45.6144488" lon="9.5362963"><ele>185.0</ele><time>2026-03-25T11:52:55.368Z</time></trkpt><trkpt lat="45.6145381" lon="9.5362256"><ele>185.0</ele><time>2026-03-25T11:52:56.367Z</time></trkpt><trkpt lat="45.6146262" lon="9.5361534"><ele>185.0</ele><time>2026-03-25T11:52:57.368Z</time></trkpt><trkpt lat="45.6147145" lon="9.5360862"><ele>186.0</ele><time>2026-03-25T11:52:58.368Z</time></trkpt><trkpt lat="45.6147966" lon="9.5360175"><ele>187.0</ele><time>2026-03-25T11:52:59.368Z</time></trkpt><trkpt lat="45.614875" lon="9.5359557"><ele>188.0</ele><time>2026-03-25T11:53:00.368Z</time></trkpt><trkpt lat="45.6149523" lon="9.5359016"><ele>189.0</ele><time>2026-03-25T11:53:01.368Z</time></trkpt><trkpt lat="45.615019" lon="9.5358508"><ele>190.0</ele><time>2026-03-25T11:53:02.368Z</time></trkpt><trkpt lat="45.6150814" lon="9.5358079"><ele>191.0</ele><time>2026-03-25T11:53:03.368Z</time></trkpt><trkpt lat="45.6152036" lon="9.5358023"><ele>191.0</ele><time>2026-03-25T11:53:05.368Z</time></trkpt><trkpt lat="45.6152682" lon="9.5358303"><ele>191.0</ele><time>2026-03-25T11:53:06.368Z</time></trkpt><trkpt lat="45.6153397" lon="9.5358539"><ele>191.0</ele><time>2026-03-25T11:53:07.368Z</time></trkpt><trkpt lat="45.6154161" lon="9.5358566"><ele>191.0</ele><time>2026-03-25T11:53:08.368Z</time></trkpt><trkpt lat="45.6154963" lon="9.5358262"><ele>191.0</ele><time>2026-03-25T11:53:09.368Z</time></trkpt><trkpt lat="45.6155697" lon="9.5357615"><ele>191.0</ele><time>2026-03-25T11:53:10.368Z</time></trkpt><trkpt lat="45.6156319" lon="9.5356738"><ele>190.33333333333331</ele><time>2026-03-25T11:53:11.368Z</time></trkpt><trkpt lat="45.6156778" lon="9.5355696"><ele>189.66666666666666</ele><time>2026-03-25T11:53:12.368Z</time></trkpt><trkpt lat="45.6157133" lon="9.5354553"><ele>189.0</ele><time>2026-03-25T11:53:13.368Z</time></trkpt><trkpt lat="45.615753" lon="9.5353402"><ele>188.33333333333334</ele><time>2026-03-25T11:53:14.368Z</time></trkpt><trkpt lat="45.6158175" lon="9.5352525"><ele>187.66666666666669</ele><time>2026-03-25T11:53:15.368Z</time></trkpt><trkpt lat="45.6158918" lon="9.53518"><ele>187.0</ele><time>2026-03-25T11:53:16.368Z</time></trkpt><trkpt lat="45.6159736" lon="9.5351166"><ele>186.6</ele><time>2026-03-25T11:53:17.368Z</time></trkpt><trkpt lat="45.6160536" lon="9.5350574"><ele>186.2</ele><time>2026-03-25T11:53:18.367Z</time></trkpt><trkpt lat="45.6161331" lon="9.5349995"><ele>185.8</ele><time>2026-03-25T11:53:19.367Z</time></trkpt><trkpt lat="45.6162145" lon="9.534936"><ele>185.4</ele><time>2026-03-25T11:53:20.367Z</time></trkpt><trkpt lat="45.6162977" lon="9.5348744"><ele>185.0</ele><time>2026-03-25T11:53:21.368Z</time></trkpt><trkpt lat="45.6163796" lon="9.534813"><ele>185.0</ele><time>2026-03-25T11:53:22.368Z</time></trkpt><trkpt lat="45.6164652" lon="9.5347519"><ele>185.0</ele><time>2026-03-25T11:53:23.368Z</time></trkpt><trkpt lat="45.6165531" lon="9.5346879"><ele>185.0</ele><time>2026-03-25T11:53:24.368Z</time></trkpt><trkpt lat="45.616635" lon="9.5346199"><ele>185.0</ele><time>2026-03-25T11:53:25.368Z</time></trkpt><trkpt lat="45.6167171" lon="9.5345543"><ele>185.0</ele><time>2026-03-25T11:53:26.367Z</time></trkpt><trkpt lat="45.6168053" lon="9.5344909"><ele>185.4</ele><time>2026-03-25T11:53:27.368Z</time></trkpt><trkpt lat="45.6168916" lon="9.534426"><ele>185.8</ele><time>2026-03-25T11:53:28.367Z</time></trkpt><trkpt lat="45.6169806" lon="9.534357"><ele>186.2</ele><time>2026-03-25T11:53:29.368Z</time></trkpt><trkpt lat="45.6170668" lon="9.5342904"><ele>186.6</ele><time>2026-03-25T11:53:30.368Z</time></trkpt><trkpt lat="45.617154" lon="9.5342247"><ele>187.0</ele><time>2026-03-25T11:53:31.367Z</time></trkpt><trkpt lat="45.617243" lon="9.5341536"><ele>187.39999999999998</ele><time>2026-03-25T11:53:32.367Z</time></trkpt><trkpt lat="45.6173344" lon="9.5340864"><ele>187.79999999999998</ele><time>2026-03-25T11:53:33.368Z</time></trkpt><trkpt lat="45.6174257" lon="9.5340114"><ele>188.2</ele><time>2026-03-25T11:53:34.367Z</time></trkpt><trkpt lat="45.6175181" lon="9.5339396"><ele>188.6</ele><time>2026-03-25T11:53:35.368Z</time></trkpt><trkpt lat="45.6176104" lon="9.5338711"><ele>189.0</ele><time>2026-03-25T11:53:36.368Z</time></trkpt><trkpt lat="45.6177038" lon="9.5337989"><ele>189.0</ele><time>2026-03-25T11:53:37.368Z</time></trkpt><trkpt lat="45.6177993" lon="9.5337283"><ele>189.0</ele><time>2026-03-25T11:53:38.368Z</time></trkpt><trkpt lat="45.6178909" lon="9.5336565"><ele>189.0</ele><time>2026-03-25T11:53:39.368Z</time></trkpt><trkpt lat="45.6179779" lon="9.5335871"><ele>189.0</ele><time>2026-03-25T11:53:40.368Z</time></trkpt><trkpt lat="45.6180705" lon="9.5335185"><ele>189.0</ele><time>2026-03-25T11:53:41.367Z</time></trkpt><trkpt lat="45.6181612" lon="9.5334513"><ele>190.39999999999998</ele><time>2026-03-25T11:53:42.367Z</time></trkpt><trkpt lat="45.618252" lon="9.5333824"><ele>191.8</ele><time>2026-03-25T11:53:43.368Z</time></trkpt><trkpt lat="45.6183402" lon="9.5333134"><ele>193.2</ele><time>2026-03-25T11:53:44.368Z</time></trkpt><trkpt lat="45.6184358" lon="9.5332451"><ele>194.60000000000002</ele><time>2026-03-25T11:53:45.368Z</time></trkpt><trkpt lat="45.6185283" lon="9.5331752"><ele>196.0</ele><time>2026-03-25T11:53:46.368Z</time></trkpt><trkpt lat="45.6186189" lon="9.5331057"><ele>196.20000000000002</ele><time>2026-03-25T11:53:47.367Z</time></trkpt><trkpt lat="45.6187134" lon="9.5330303"><ele>196.4</ele><time>2026-03-25T11:53:48.368Z</time></trkpt><trkpt lat="45.6188038" lon="9.532957"><ele>196.6</ele><time>2026-03-25T11:53:49.368Z</time></trkpt><trkpt lat="45.6188912" lon="9.5328762"><ele>196.8</ele><time>2026-03-25T11:53:50.367Z</time></trkpt><trkpt lat="45.6189746" lon="9.5327982"><ele>197.0</ele><time>2026-03-25T11:53:51.367Z</time></trkpt><trkpt lat="45.6190519" lon="9.532721"><ele>197.00000000000003</ele><time>2026-03-25T11:53:52.368Z</time></trkpt><trkpt lat="45.6191217" lon="9.5326509"><ele>197.0</ele><time>2026-03-25T11:53:53.368Z</time></trkpt><trkpt lat="45.6191882" lon="9.5325951"><ele>197.0</ele><time>2026-03-25T11:53:54.368Z</time></trkpt><trkpt lat="45.619262" lon="9.5325728"><ele>197.0</ele><time>2026-03-25T11:53:55.367Z</time></trkpt><trkpt lat="45.6193362" lon="9.5325753"><ele>197.00000000000003</ele><time>2026-03-25T11:53:56.367Z</time></trkpt><trkpt lat="45.6194112" lon="9.5325627"><ele>197.0</ele><time>2026-03-25T11:53:57.367Z</time></trkpt><trkpt lat="45.6194835" lon="9.5325151"><ele>196.83333333333334</ele><time>2026-03-25T11:53:58.368Z</time></trkpt><trkpt lat="45.6195457" lon="9.5324352"><ele>196.66666666666669</ele><time>2026-03-25T11:53:59.368Z</time></trkpt><trkpt lat="45.6195876" lon="9.5323342"><ele>196.5</ele><time>2026-03-25T11:54:00.368Z</time></trkpt><trkpt lat="45.6196145" lon="9.5322234"><ele>196.33333333333331</ele><time>2026-03-25T11:54:01.367Z</time></trkpt><trkpt lat="45.6196451" lon="9.5321092"><ele>196.16666666666666</ele><time>2026-03-25T11:54:02.368Z</time></trkpt><trkpt lat="45.6196989" lon="9.5320065"><ele>196.0</ele><time>2026-03-25T11:54:03.368Z</time></trkpt><trkpt lat="45.6197633" lon="9.5319093"><ele>196.60000000000002</ele><time>2026-03-25T11:54:04.368Z</time></trkpt><trkpt lat="45.6198285" lon="9.5318173"><ele>197.2</ele><time>2026-03-25T11:54:05.368Z</time></trkpt><trkpt lat="45.6198948" lon="9.5317187"><ele>197.8</ele><time>2026-03-25T11:54:06.368Z</time></trkpt><trkpt lat="45.619966" lon="9.5316249"><ele>198.39999999999998</ele><time>2026-03-25T11:54:07.368Z</time></trkpt><trkpt lat="45.6200326" lon="9.531524"><ele>199.0</ele><time>2026-03-25T11:54:08.368Z</time></trkpt><trkpt lat="45.6201026" lon="9.5314241"><ele>199.0</ele><time>2026-03-25T11:54:09.367Z</time></trkpt><trkpt lat="45.6201699" lon="9.5313205"><ele>199.0</ele><time>2026-03-25T11:54:10.367Z</time></trkpt><trkpt lat="45.6202347" lon="9.5312156"><ele>199.0</ele><time>2026-03-25T11:54:11.368Z</time></trkpt><trkpt lat="45.6202961" lon="9.5311098"><ele>199.0</ele><time>2026-03-25T11:54:12.367Z</time></trkpt><trkpt lat="45.6203569" lon="9.5309998"><ele>199.0</ele><time>2026-03-25T11:54:13.368Z</time></trkpt><trkpt lat="45.6204234" lon="9.5308836"><ele>199.2</ele><time>2026-03-25T11:54:14.368Z</time></trkpt><trkpt lat="45.6204871" lon="9.5307669"><ele>199.39999999999998</ele><time>2026-03-25T11:54:15.368Z</time></trkpt><trkpt lat="45.6205536" lon="9.5306506"><ele>199.6</ele><time>2026-03-25T11:54:16.368Z</time></trkpt><trkpt lat="45.6206219" lon="9.5305345"><ele>199.8</ele><time>2026-03-25T11:54:17.368Z</time></trkpt><trkpt lat="45.6206887" lon="9.5304187"><ele>200.0</ele><time>2026-03-25T11:54:18.368Z</time></trkpt><trkpt lat="45.6207542" lon="9.530296"><ele>200.2</ele><time>2026-03-25T11:54:19.368Z</time></trkpt><trkpt lat="45.6208262" lon="9.5301764"><ele>200.4</ele><time>2026-03-25T11:54:20.368Z</time></trkpt><trkpt lat="45.6208961" lon="9.5300564"><ele>200.60000000000002</ele><time>2026-03-25T11:54:21.367Z</time></trkpt><trkpt lat="45.6209674" lon="9.5299342"><ele>200.8</ele><time>2026-03-25T11:54:22.368Z</time></trkpt><trkpt lat="45.6210328" lon="9.5298082"><ele>201.0</ele><time>2026-03-25T11:54:23.368Z</time></trkpt><trkpt lat="45.6211012" lon="9.5296781"><ele>201.5</ele><time>2026-03-25T11:54:24.368Z</time></trkpt><trkpt lat="45.6211725" lon="9.529552"><ele>202.0</ele><time>2026-03-25T11:54:25.368Z</time></trkpt><trkpt lat="45.6212459" lon="9.529429"><ele>202.5</ele><time>2026-03-25T11:54:26.368Z</time></trkpt><trkpt lat="45.6213168" lon="9.5293034"><ele>203.0</ele><time>2026-03-25T11:54:27.367Z</time></trkpt><trkpt lat="45.6213878" lon="9.5291773"><ele>203.0</ele><time>2026-03-25T11:54:28.368Z</time></trkpt><trkpt lat="45.6214592" lon="9.5290518"><ele>203.0</ele><time>2026-03-25T11:54:29.368Z</time></trkpt><trkpt lat="45.6215269" lon="9.5289251"><ele>203.0</ele><time>2026-03-25T11:54:30.368Z</time></trkpt><trkpt lat="45.6215966" lon="9.5287956"><ele>203.0</ele><time>2026-03-25T11:54:31.368Z</time></trkpt><trkpt lat="45.6216648" lon="9.5286687"><ele>203.0</ele><time>2026-03-25T11:54:32.368Z</time></trkpt><trkpt lat="45.6217342" lon="9.5285413"><ele>203.0</ele><time>2026-03-25T11:54:33.368Z</time></trkpt><trkpt lat="45.6218094" lon="9.5284153"><ele>203.0</ele><time>2026-03-25T11:54:34.367Z</time></trkpt><trkpt lat="45.6218808" lon="9.5282883"><ele>203.0</ele><time>2026-03-25T11:54:35.367Z</time></trkpt><trkpt lat="45.6219501" lon="9.5281674"><ele>203.2</ele><time>2026-03-25T11:54:36.368Z</time></trkpt><trkpt lat="45.6220177" lon="9.5280513"><ele>203.4</ele><time>2026-03-25T11:54:37.367Z</time></trkpt><trkpt lat="45.6220804" lon="9.5279397"><ele>203.6</ele><time>2026-03-25T11:54:38.367Z</time></trkpt><trkpt lat="45.6221398" lon="9.5278335"><ele>203.79999999999998</ele><time>2026-03-25T11:54:39.368Z</time></trkpt><trkpt lat="45.6221962" lon="9.5277343"><ele>204.0</ele><time>2026-03-25T11:54:40.368Z</time></trkpt><trkpt lat="45.6222529" lon="9.5276478"><ele>204.0</ele><time>2026-03-25T11:54:41.368Z</time></trkpt><trkpt lat="45.6223203" lon="9.5275718"><ele>204.0</ele><time>2026-03-25T11:54:42.368Z</time></trkpt><trkpt lat="45.6223958" lon="9.527514"><ele>204.0</ele><time>2026-03-25T11:54:43.368Z</time></trkpt><trkpt lat="45.6224762" lon="9.5274576"><ele>204.0</ele><time>2026-03-25T11:54:44.368Z</time></trkpt><trkpt lat="45.6225426" lon="9.5273836"><ele>204.0</ele><time>2026-03-25T11:54:45.367Z</time></trkpt><trkpt lat="45.6225917" lon="9.5272939"><ele>204.0</ele><time>2026-03-25T11:54:46.367Z</time></trkpt><trkpt lat="45.6226182" lon="9.527194"><ele>204.0</ele><time>2026-03-25T11:54:47.368Z</time></trkpt><trkpt lat="45.6226444" lon="9.5270952"><ele>204.0</ele><time>2026-03-25T11:54:48.368Z</time></trkpt><trkpt lat="45.622666" lon="9.5269899"><ele>204.0</ele><time>2026-03-25T11:54:49.368Z</time></trkpt><trkpt lat="45.6226952" lon="9.5268795"><ele>204.0</ele><time>2026-03-25T11:54:50.368Z</time></trkpt><trkpt lat="45.6227396" lon="9.5267707"><ele>204.0</ele><time>2026-03-25T11:54:51.368Z</time></trkpt><trkpt lat="45.6227936" lon="9.5266662"><ele>204.0</ele><time>2026-03-25T11:54:52.368Z</time></trkpt><trkpt lat="45.6228517" lon="9.5265645"><ele>204.39999999999998</ele><time>2026-03-25T11:54:53.368Z</time></trkpt><trkpt lat="45.6229125" lon="9.5264625"><ele>204.8</ele><time>2026-03-25T11:54:54.367Z</time></trkpt><trkpt lat="45.6229748" lon="9.526356"><ele>205.2</ele><time>2026-03-25T11:54:55.368Z</time></trkpt><trkpt lat="45.6230383" lon="9.5262497"><ele>205.60000000000002</ele><time>2026-03-25T11:54:56.368Z</time></trkpt><trkpt lat="45.6231026" lon="9.5261384"><ele>206.0</ele><time>2026-03-25T11:54:57.367Z</time></trkpt><trkpt lat="45.6231656" lon="9.5260182"><ele>206.0</ele><time>2026-03-25T11:54:58.367Z</time></trkpt><trkpt lat="45.6232327" lon="9.5259"><ele>206.0</ele><time>2026-03-25T11:54:59.368Z</time></trkpt><trkpt lat="45.6232972" lon="9.5257818"><ele>206.0</ele><time>2026-03-25T11:55:00.367Z</time></trkpt><trkpt lat="45.6233634" lon="9.5256626"><ele>206.0</ele><time>2026-03-25T11:55:01.368Z</time></trkpt><trkpt lat="45.6234307" lon="9.5255462"><ele>206.0</ele><time>2026-03-25T11:55:02.368Z</time></trkpt><trkpt lat="45.623498" lon="9.5254276"><ele>206.0</ele><time>2026-03-25T11:55:03.368Z</time></trkpt><trkpt lat="45.6235676" lon="9.5253002"><ele>206.0</ele><time>2026-03-25T11:55:04.367Z</time></trkpt><trkpt lat="45.6236383" lon="9.5251775"><ele>206.0</ele><time>2026-03-25T11:55:05.367Z</time></trkpt><trkpt lat="45.6237077" lon="9.5250556"><ele>206.0</ele><time>2026-03-25T11:55:06.368Z</time></trkpt><trkpt lat="45.6237811" lon="9.5249326"><ele>206.0</ele><time>2026-03-25T11:55:07.368Z</time></trkpt><trkpt lat="45.6238509" lon="9.5248045"><ele>206.0</ele><time>2026-03-25T11:55:08.367Z</time></trkpt><trkpt lat="45.6239227" lon="9.5246778"><ele>206.0</ele><time>2026-03-25T11:55:09.368Z</time></trkpt><trkpt lat="45.6239897" lon="9.5245491"><ele>206.0</ele><time>2026-03-25T11:55:10.368Z</time></trkpt><trkpt lat="45.6240512" lon="9.5244157"><ele>206.0</ele><time>2026-03-25T11:55:11.368Z</time></trkpt><trkpt lat="45.6241216" lon="9.5242832"><ele>206.25</ele><time>2026-03-25T11:55:12.368Z</time></trkpt><trkpt lat="45.6241983" lon="9.5241595"><ele>206.5</ele><time>2026-03-25T11:55:13.368Z</time></trkpt><trkpt lat="45.6242701" lon="9.5240338"><ele>206.75</ele><time>2026-03-25T11:55:14.368Z</time></trkpt><trkpt lat="45.6243438" lon="9.5239058"><ele>207.0</ele><time>2026-03-25T11:55:15.368Z</time></trkpt><trkpt lat="45.6244153" lon="9.5237771"><ele>207.0</ele><time>2026-03-25T11:55:16.368Z</time></trkpt><trkpt lat="45.6244896" lon="9.5236467"><ele>207.0</ele><time>2026-03-25T11:55:17.368Z</time></trkpt><trkpt lat="45.6245685" lon="9.5235239"><ele>207.0</ele><time>2026-03-25T11:55:18.367Z</time></trkpt><trkpt lat="45.6246452" lon="9.5234"><ele>207.0</ele><time>2026-03-25T11:55:19.368Z</time></trkpt><trkpt lat="45.6247174" lon="9.5232742"><ele>207.0</ele><time>2026-03-25T11:55:20.368Z</time></trkpt><trkpt lat="45.6247909" lon="9.5231486"><ele>207.0</ele><time>2026-03-25T11:55:21.368Z</time></trkpt><trkpt lat="45.6248652" lon="9.5230191"><ele>207.0</ele><time>2026-03-25T11:55:22.368Z</time></trkpt><trkpt lat="45.6249377" lon="9.5228871"><ele>207.0</ele><time>2026-03-25T11:55:23.368Z</time></trkpt><trkpt lat="45.6250075" lon="9.5227508"><ele>207.25</ele><time>2026-03-25T11:55:24.367Z</time></trkpt><trkpt lat="45.6250762" lon="9.5226141"><ele>207.5</ele><time>2026-03-25T11:55:25.367Z</time></trkpt><trkpt lat="45.6251454" lon="9.5224789"><ele>207.75</ele><time>2026-03-25T11:55:26.368Z</time></trkpt><trkpt lat="45.6252191" lon="9.5223521"><ele>208.0</ele><time>2026-03-25T11:55:27.368Z</time></trkpt><trkpt lat="45.6252961" lon="9.5222248"><ele>208.0</ele><time>2026-03-25T11:55:28.367Z</time></trkpt><trkpt lat="45.6253718" lon="9.5220964"><ele>208.0</ele><time>2026-03-25T11:55:29.368Z</time></trkpt><trkpt lat="45.6254544" lon="9.5219668"><ele>208.0</ele><time>2026-03-25T11:55:30.368Z</time></trkpt><trkpt lat="45.6255352" lon="9.5218339"><ele>208.0</ele><time>2026-03-25T11:55:31.368Z</time></trkpt><trkpt lat="45.6256102" lon="9.5217065"><ele>208.25</ele><time>2026-03-25T11:55:32.368Z</time></trkpt><trkpt lat="45.6256859" lon="9.5215787"><ele>208.5</ele><time>2026-03-25T11:55:33.368Z</time></trkpt><trkpt lat="45.6257616" lon="9.521453"><ele>208.75</ele><time>2026-03-25T11:55:34.368Z</time></trkpt><trkpt lat="45.625842" lon="9.5213235"><ele>209.0</ele><time>2026-03-25T11:55:35.367Z</time></trkpt><trkpt lat="45.6259099" lon="9.5211867"><ele>209.0</ele><time>2026-03-25T11:55:36.368Z</time></trkpt><trkpt lat="45.6259806" lon="9.52106"><ele>209.0</ele><time>2026-03-25T11:55:37.367Z</time></trkpt><trkpt lat="45.6260526" lon="9.5209299"><ele>209.0</ele><time>2026-03-25T11:55:38.368Z</time></trkpt><trkpt lat="45.6261265" lon="9.5207969"><ele>209.0</ele><time>2026-03-25T11:55:39.368Z</time></trkpt><trkpt lat="45.6262034" lon="9.5206715"><ele>208.75</ele><time>2026-03-25T11:55:40.368Z</time></trkpt><trkpt lat="45.6262805" lon="9.5205446"><ele>208.5</ele><time>2026-03-25T11:55:41.368Z</time></trkpt><trkpt lat="45.6263533" lon="9.52041"><ele>208.25</ele><time>2026-03-25T11:55:42.367Z</time></trkpt><trkpt lat="45.6264246" lon="9.5202734"><ele>208.0</ele><time>2026-03-25T11:55:43.368Z</time></trkpt><trkpt lat="45.6264947" lon="9.5201432"><ele>208.5</ele><time>2026-03-25T11:55:44.368Z</time></trkpt><trkpt lat="45.6265616" lon="9.5200104"><ele>209.0</ele><time>2026-03-25T11:55:45.368Z</time></trkpt><trkpt lat="45.6266371" lon="9.5198835"><ele>209.5</ele><time>2026-03-25T11:55:46.368Z</time></trkpt><trkpt lat="45.6267111" lon="9.5197566"><ele>210.0</ele><time>2026-03-25T11:55:47.368Z</time></trkpt><trkpt lat="45.6267815" lon="9.5196283"><ele>210.5</ele><time>2026-03-25T11:55:48.368Z</time></trkpt><trkpt lat="45.6268456" lon="9.5194898"><ele>211.0</ele><time>2026-03-25T11:55:49.368Z</time></trkpt><trkpt lat="45.6269221" lon="9.5193577"><ele>211.5</ele><time>2026-03-25T11:55:50.368Z</time></trkpt><trkpt lat="45.6269943" lon="9.5192276"><ele>212.0</ele><time>2026-03-25T11:55:51.368Z</time></trkpt><trkpt lat="45.6270705" lon="9.519096"><ele>212.0</ele><time>2026-03-25T11:55:52.367Z</time></trkpt><trkpt lat="45.6271439" lon="9.5189664"><ele>212.0</ele><time>2026-03-25T11:55:53.368Z</time></trkpt><trkpt lat="45.627219" lon="9.5188366"><ele>212.0</ele><time>2026-03-25T11:55:54.368Z</time></trkpt><trkpt lat="45.6272926" lon="9.518702"><ele>212.0</ele><time>2026-03-25T11:55:55.368Z</time></trkpt><trkpt lat="45.6273658" lon="9.5185676"><ele>212.25</ele><time>2026-03-25T11:55:56.367Z</time></trkpt><trkpt lat="45.6274471" lon="9.5184359"><ele>212.5</ele><time>2026-03-25T11:55:57.368Z</time></trkpt><trkpt lat="45.6275313" lon="9.518317"><ele>212.75</ele><time>2026-03-25T11:55:58.368Z</time></trkpt><trkpt lat="45.6276169" lon="9.5181843"><ele>213.0</ele><time>2026-03-25T11:55:59.367Z</time></trkpt><trkpt lat="45.6276988" lon="9.5180591"><ele>213.0</ele><time>2026-03-25T11:56:00.368Z</time></trkpt><trkpt lat="45.6277895" lon="9.5179427"><ele>213.0</ele><time>2026-03-25T11:56:01.368Z</time></trkpt><trkpt lat="45.6278773" lon="9.5178308"><ele>213.0</ele><time>2026-03-25T11:56:02.368Z</time></trkpt><trkpt lat="45.6279684" lon="9.5177191"><ele>213.0</ele><time>2026-03-25T11:56:03.367Z</time></trkpt><trkpt lat="45.6280626" lon="9.5176114"><ele>212.75</ele><time>2026-03-25T11:56:04.368Z</time></trkpt><trkpt lat="45.6281572" lon="9.5175049"><ele>212.5</ele><time>2026-03-25T11:56:05.367Z</time></trkpt><trkpt lat="45.6282492" lon="9.5173978"><ele>212.25</ele><time>2026-03-25T11:56:06.368Z</time></trkpt><trkpt lat="45.6283425" lon="9.5172936"><ele>212.0</ele><time>2026-03-25T11:56:07.368Z</time></trkpt><trkpt lat="45.6284399" lon="9.5171854"><ele>212.0</ele><time>2026-03-25T11:56:08.368Z</time></trkpt><trkpt lat="45.6285367" lon="9.5170832"><ele>212.0</ele><time>2026-03-25T11:56:09.368Z</time></trkpt><trkpt lat="45.6286342" lon="9.5169834"><ele>212.0</ele><time>2026-03-25T11:56:10.368Z</time></trkpt><trkpt lat="45.6287291" lon="9.5168862"><ele>212.0</ele><time>2026-03-25T11:56:11.368Z</time></trkpt><trkpt lat="45.6288317" lon="9.5167929"><ele>212.5</ele><time>2026-03-25T11:56:12.368Z</time></trkpt><trkpt lat="45.6289318" lon="9.5167049"><ele>213.0</ele><time>2026-03-25T11:56:13.367Z</time></trkpt><trkpt lat="45.629037" lon="9.5166228"><ele>213.5</ele><time>2026-03-25T11:56:14.368Z</time></trkpt><trkpt lat="45.6291414" lon="9.5165438"><ele>214.0</ele><time>2026-03-25T11:56:15.367Z</time></trkpt><trkpt lat="45.629252" lon="9.5164658"><ele>214.0</ele><time>2026-03-25T11:56:16.368Z</time></trkpt><trkpt lat="45.6293594" lon="9.5163982"><ele>214.0</ele><time>2026-03-25T11:56:17.367Z</time></trkpt><trkpt lat="45.6294683" lon="9.5163334"><ele>214.0</ele><time>2026-03-25T11:56:18.368Z</time></trkpt><trkpt lat="45.6295777" lon="9.5162709"><ele>214.0</ele><time>2026-03-25T11:56:19.367Z</time></trkpt><trkpt lat="45.6296893" lon="9.5162099"><ele>214.0</ele><time>2026-03-25T11:56:20.368Z</time></trkpt><trkpt lat="45.6298012" lon="9.5161559"><ele>214.0</ele><time>2026-03-25T11:56:21.368Z</time></trkpt><trkpt lat="45.6299126" lon="9.5161102"><ele>214.0</ele><time>2026-03-25T11:56:22.367Z</time></trkpt><trkpt lat="45.6300289" lon="9.5160638"><ele>214.0</ele><time>2026-03-25T11:56:23.367Z</time></trkpt><trkpt lat="45.6301411" lon="9.5160204"><ele>214.0</ele><time>2026-03-25T11:56:24.368Z</time></trkpt><trkpt lat="45.6302536" lon="9.5159737"><ele>214.0</ele><time>2026-03-25T11:56:25.368Z</time></trkpt><trkpt lat="45.630363" lon="9.5159297"><ele>214.0</ele><time>2026-03-25T11:56:26.368Z</time></trkpt><trkpt lat="45.6304717" lon="9.515881"><ele>214.0</ele><time>2026-03-25T11:56:27.367Z</time></trkpt><trkpt lat="45.6305795" lon="9.5158367"><ele>214.5</ele><time>2026-03-25T11:56:28.368Z</time></trkpt><trkpt lat="45.630687" lon="9.5157892"><ele>215.0</ele><time>2026-03-25T11:56:29.368Z</time></trkpt><trkpt lat="45.630799" lon="9.5157494"><ele>215.5</ele><time>2026-03-25T11:56:30.368Z</time></trkpt><trkpt lat="45.6309118" lon="9.5157057"><ele>216.0</ele><time>2026-03-25T11:56:31.368Z</time></trkpt><trkpt lat="45.631026" lon="9.5156564"><ele>216.0</ele><time>2026-03-25T11:56:32.367Z</time></trkpt><trkpt lat="45.631138" lon="9.51561"><ele>216.0</ele><time>2026-03-25T11:56:33.368Z</time></trkpt><trkpt lat="45.6312509" lon="9.5155595"><ele>216.0</ele><time>2026-03-25T11:56:34.368Z</time></trkpt><trkpt lat="45.6313565" lon="9.5155135"><ele>216.0</ele><time>2026-03-25T11:56:35.367Z</time></trkpt><trkpt lat="45.6314718" lon="9.5154729"><ele>216.0</ele><time>2026-03-25T11:56:36.367Z</time></trkpt><trkpt lat="45.631585" lon="9.5154213"><ele>216.0</ele><time>2026-03-25T11:56:37.367Z</time></trkpt><trkpt lat="45.6316973" lon="9.515375"><ele>216.0</ele><time>2026-03-25T11:56:38.368Z</time></trkpt><trkpt lat="45.631813" lon="9.515336"><ele>216.0</ele><time>2026-03-25T11:56:39.367Z</time></trkpt><trkpt lat="45.6319288" lon="9.5152931"><ele>216.0</ele><time>2026-03-25T11:56:40.368Z</time></trkpt><trkpt lat="45.6320421" lon="9.5152505"><ele>216.0</ele><time>2026-03-25T11:56:41.368Z</time></trkpt><trkpt lat="45.6321566" lon="9.5152033"><ele>216.0</ele><time>2026-03-25T11:56:42.368Z</time></trkpt><trkpt lat="45.632273" lon="9.5151572"><ele>216.0</ele><time>2026-03-25T11:56:43.368Z</time></trkpt><trkpt lat="45.6323916" lon="9.5151121"><ele>216.0</ele><time>2026-03-25T11:56:44.368Z</time></trkpt><trkpt lat="45.6325018" lon="9.5150689"><ele>216.0</ele><time>2026-03-25T11:56:45.368Z</time></trkpt><trkpt lat="45.6326175" lon="9.5150242"><ele>216.0</ele><time>2026-03-25T11:56:46.368Z</time></trkpt><trkpt lat="45.6327338" lon="9.5149794"><ele>216.0</ele><time>2026-03-25T11:56:47.367Z</time></trkpt><trkpt lat="45.6328469" lon="9.5149379"><ele>216.5</ele><time>2026-03-25T11:56:48.368Z</time></trkpt><trkpt lat="45.632959" lon="9.514898"><ele>217.0</ele><time>2026-03-25T11:56:49.368Z</time></trkpt><trkpt lat="45.6330753" lon="9.5148524"><ele>217.5</ele><time>2026-03-25T11:56:50.367Z</time></trkpt><trkpt lat="45.6331887" lon="9.5148046"><ele>218.0</ele><time>2026-03-25T11:56:51.367Z</time></trkpt><trkpt lat="45.6333045" lon="9.5147507"><ele>218.0</ele><time>2026-03-25T11:56:52.368Z</time></trkpt><trkpt lat="45.6334199" lon="9.5147064"><ele>218.0</ele><time>2026-03-25T11:56:53.368Z</time></trkpt><trkpt lat="45.633538" lon="9.5146621"><ele>218.0</ele><time>2026-03-25T11:56:54.368Z</time></trkpt><trkpt lat="45.6336532" lon="9.5146132"><ele>218.0</ele><time>2026-03-25T11:56:55.367Z</time></trkpt><trkpt lat="45.633773" lon="9.5145609"><ele>217.75</ele><time>2026-03-25T11:56:56.368Z</time></trkpt><trkpt lat="45.6338883" lon="9.5145162"><ele>217.5</ele><time>2026-03-25T11:56:57.368Z</time></trkpt><trkpt lat="45.634004" lon="9.514468"><ele>217.25</ele><time>2026-03-25T11:56:58.367Z</time></trkpt><trkpt lat="45.6341216" lon="9.5144203"><ele>217.0</ele><time>2026-03-25T11:56:59.368Z</time></trkpt><trkpt lat="45.6342404" lon="9.5143745"><ele>217.0</ele><time>2026-03-25T11:57:00.368Z</time></trkpt><trkpt lat="45.6343593" lon="9.5143272"><ele>217.0</ele><time>2026-03-25T11:57:01.368Z</time></trkpt><trkpt lat="45.634479" lon="9.5142787"><ele>217.0</ele><time>2026-03-25T11:57:02.368Z</time></trkpt><trkpt lat="45.6345989" lon="9.5142197"><ele>217.0</ele><time>2026-03-25T11:57:03.368Z</time></trkpt><trkpt lat="45.6347195" lon="9.514172"><ele>217.25</ele><time>2026-03-25T11:57:04.368Z</time></trkpt><trkpt lat="45.6348388" lon="9.5141271"><ele>217.5</ele><time>2026-03-25T11:57:05.368Z</time></trkpt><trkpt lat="45.634958" lon="9.5140706"><ele>217.75</ele><time>2026-03-25T11:57:06.368Z</time></trkpt><trkpt lat="45.635081" lon="9.5140168"><ele>218.0</ele><time>2026-03-25T11:57:07.368Z</time></trkpt><trkpt lat="45.6352025" lon="9.5139665"><ele>218.25</ele><time>2026-03-25T11:57:08.367Z</time></trkpt><trkpt lat="45.6353238" lon="9.513918"><ele>218.5</ele><time>2026-03-25T11:57:09.368Z</time></trkpt><trkpt lat="45.6354476" lon="9.5138653"><ele>218.75</ele><time>2026-03-25T11:57:10.368Z</time></trkpt><trkpt lat="45.6355712" lon="9.5138161"><ele>219.0</ele><time>2026-03-25T11:57:11.368Z</time></trkpt><trkpt lat="45.6356964" lon="9.5137609"><ele>218.5</ele><time>2026-03-25T11:57:12.368Z</time></trkpt><trkpt lat="45.6358203" lon="9.5137137"><ele>218.0</ele><time>2026-03-25T11:57:13.367Z</time></trkpt><trkpt lat="45.6359402" lon="9.5136646"><ele>217.5</ele><time>2026-03-25T11:57:14.368Z</time></trkpt><trkpt lat="45.6360621" lon="9.5136103"><ele>217.0</ele><time>2026-03-25T11:57:15.368Z</time></trkpt><trkpt lat="45.6361836" lon="9.5135739"><ele>216.5</ele><time>2026-03-25T11:57:16.368Z</time></trkpt><trkpt lat="45.6363016" lon="9.5135273"><ele>216.0</ele><time>2026-03-25T11:57:17.367Z</time></trkpt><trkpt lat="45.6364141" lon="9.513478"><ele>215.5</ele><time>2026-03-25T11:57:18.368Z</time></trkpt><trkpt lat="45.6365304" lon="9.513432"><ele>215.0</ele><time>2026-03-25T11:57:19.368Z</time></trkpt><trkpt lat="45.6366462" lon="9.5133852"><ele>215.0</ele><time>2026-03-25T11:57:20.368Z</time></trkpt><trkpt lat="45.6367619" lon="9.513335"><ele>215.0</ele><time>2026-03-25T11:57:21.368Z</time></trkpt><trkpt lat="45.6368765" lon="9.513288"><ele>215.0</ele><time>2026-03-25T11:57:22.368Z</time></trkpt><trkpt lat="45.6369974" lon="9.5132397"><ele>215.0</ele><time>2026-03-25T11:57:23.368Z</time></trkpt><trkpt lat="45.6371179" lon="9.513194"><ele>215.25</ele><time>2026-03-25T11:57:24.367Z</time></trkpt><trkpt lat="45.6372334" lon="9.5131449"><ele>215.5</ele><time>2026-03-25T11:57:25.368Z</time></trkpt><trkpt lat="45.6373508" lon="9.5130905"><ele>215.75</ele><time>2026-03-25T11:57:26.368Z</time></trkpt><trkpt lat="45.6374704" lon="9.5130483"><ele>216.0</ele><time>2026-03-25T11:57:27.367Z</time></trkpt><trkpt lat="45.6375891" lon="9.5130033"><ele>216.0</ele><time>2026-03-25T11:57:28.368Z</time></trkpt><trkpt lat="45.6377094" lon="9.5129533"><ele>216.0</ele><time>2026-03-25T11:57:29.368Z</time></trkpt><trkpt lat="45.6378266" lon="9.5129035"><ele>216.0</ele><time>2026-03-25T11:57:30.367Z</time></trkpt><trkpt lat="45.6379432" lon="9.512856"><ele>216.0</ele><time>2026-03-25T11:57:31.368Z</time></trkpt><trkpt lat="45.6380526" lon="9.5128029"><ele>216.0</ele><time>2026-03-25T11:57:32.368Z</time></trkpt><trkpt lat="45.6381617" lon="9.5127492"><ele>216.0</ele><time>2026-03-25T11:57:33.368Z</time></trkpt><trkpt lat="45.638278" lon="9.512697"><ele>216.0</ele><time>2026-03-25T11:57:34.367Z</time></trkpt><trkpt lat="45.6383904" lon="9.5126464"><ele>216.0</ele><time>2026-03-25T11:57:35.368Z</time></trkpt><trkpt lat="45.6385095" lon="9.5125982"><ele>216.0</ele><time>2026-03-25T11:57:36.368Z</time></trkpt><trkpt lat="45.6386233" lon="9.5125454"><ele>216.0</ele><time>2026-03-25T11:57:37.367Z</time></trkpt><trkpt lat="45.6387408" lon="9.5124973"><ele>216.0</ele><time>2026-03-25T11:57:38.368Z</time></trkpt><trkpt lat="45.6388632" lon="9.5124489"><ele>216.0</ele><time>2026-03-25T11:57:39.367Z</time></trkpt><trkpt lat="45.6389788" lon="9.5124033"><ele>216.5</ele><time>2026-03-25T11:57:40.367Z</time></trkpt><trkpt lat="45.6390992" lon="9.512353"><ele>217.0</ele><time>2026-03-25T11:57:41.368Z</time></trkpt><trkpt lat="45.6392274" lon="9.512303"><ele>217.5</ele><time>2026-03-25T11:57:42.367Z</time></trkpt><trkpt lat="45.639346" lon="9.5122577"><ele>218.0</ele><time>2026-03-25T11:57:43.368Z</time></trkpt><trkpt lat="45.639463" lon="9.5122024"><ele>218.0</ele><time>2026-03-25T11:57:44.368Z</time></trkpt><trkpt lat="45.6395804" lon="9.5121488"><ele>218.0</ele><time>2026-03-25T11:57:45.368Z</time></trkpt><trkpt lat="45.6396997" lon="9.5121023"><ele>218.0</ele><time>2026-03-25T11:57:46.368Z</time></trkpt><trkpt lat="45.6398187" lon="9.5120606"><ele>218.0</ele><time>2026-03-25T11:57:47.368Z</time></trkpt><trkpt lat="45.6399388" lon="9.5120069"><ele>217.75</ele><time>2026-03-25T11:57:48.368Z</time></trkpt><trkpt lat="45.6400686" lon="9.5119625"><ele>217.5</ele><time>2026-03-25T11:57:49.367Z</time></trkpt><trkpt lat="45.6401884" lon="9.5119132"><ele>217.25</ele><time>2026-03-25T11:57:50.368Z</time></trkpt><trkpt lat="45.6403063" lon="9.5118675"><ele>217.0</ele><time>2026-03-25T11:57:51.368Z</time></trkpt><trkpt lat="45.6404271" lon="9.5118159"><ele>217.75</ele><time>2026-03-25T11:57:52.368Z</time></trkpt><trkpt lat="45.6405497" lon="9.5117651"><ele>218.5</ele><time>2026-03-25T11:57:53.367Z</time></trkpt><trkpt lat="45.6406702" lon="9.5117064"><ele>219.25</ele><time>2026-03-25T11:57:54.368Z</time></trkpt><trkpt lat="45.6407849" lon="9.5116563"><ele>220.0</ele><time>2026-03-25T11:57:55.368Z</time></trkpt><trkpt lat="45.6408993" lon="9.5115986"><ele>220.0</ele><time>2026-03-25T11:57:56.368Z</time></trkpt><trkpt lat="45.6410115" lon="9.5115535"><ele>220.0</ele><time>2026-03-25T11:57:57.368Z</time></trkpt><trkpt lat="45.6411237" lon="9.5115045"><ele>220.0</ele><time>2026-03-25T11:57:58.367Z</time></trkpt><trkpt lat="45.6412294" lon="9.5114605"><ele>220.0</ele><time>2026-03-25T11:57:59.368Z</time></trkpt><trkpt lat="45.6413237" lon="9.511422"><ele>220.0</ele><time>2026-03-25T11:58:00.368Z</time></trkpt><trkpt lat="45.6414192" lon="9.5113929"><ele>219.83333333333331</ele><time>2026-03-25T11:58:01.368Z</time></trkpt><trkpt lat="45.6415053" lon="9.5113832"><ele>219.66666666666666</ele><time>2026-03-25T11:58:02.368Z</time></trkpt><trkpt lat="45.6415926" lon="9.5113918"><ele>219.5</ele><time>2026-03-25T11:58:03.368Z</time></trkpt><trkpt lat="45.6416748" lon="9.5114074"><ele>219.33333333333331</ele><time>2026-03-25T11:58:04.368Z</time></trkpt><trkpt lat="45.6417534" lon="9.5114091"><ele>219.16666666666666</ele><time>2026-03-25T11:58:05.368Z</time></trkpt><trkpt lat="45.6418443" lon="9.5113677"><ele>219.0</ele><time>2026-03-25T11:58:06.367Z</time></trkpt><trkpt lat="45.6419985" lon="9.5112235"><ele>219.0</ele><time>2026-03-25T11:58:08.367Z</time></trkpt><trkpt lat="45.642084" lon="9.5111503"><ele>218.99999999999997</ele><time>2026-03-25T11:58:09.367Z</time></trkpt><trkpt lat="45.6421756" lon="9.5110909"><ele>218.99999999999997</ele><time>2026-03-25T11:58:10.368Z</time></trkpt><trkpt lat="45.6422709" lon="9.5110392"><ele>219.0</ele><time>2026-03-25T11:58:11.368Z</time></trkpt><trkpt lat="45.6423704" lon="9.510997"><ele>219.0</ele><time>2026-03-25T11:58:12.367Z</time></trkpt><trkpt lat="45.64248" lon="9.5109576"><ele>219.0</ele><time>2026-03-25T11:58:13.367Z</time></trkpt><trkpt lat="45.642584" lon="9.510916"><ele>218.99999999999997</ele><time>2026-03-25T11:58:14.367Z</time></trkpt><trkpt lat="45.6426865" lon="9.5108759"><ele>218.99999999999997</ele><time>2026-03-25T11:58:15.368Z</time></trkpt><trkpt lat="45.6427916" lon="9.5108295"><ele>219.0</ele><time>2026-03-25T11:58:16.368Z</time></trkpt><trkpt lat="45.6429018" lon="9.5107933"><ele>219.0</ele><time>2026-03-25T11:58:17.367Z</time></trkpt><trkpt lat="45.6430183" lon="9.5107527"><ele>218.5</ele><time>2026-03-25T11:58:18.367Z</time></trkpt><trkpt lat="45.6431242" lon="9.5107039"><ele>218.0</ele><time>2026-03-25T11:58:19.368Z</time></trkpt><trkpt lat="45.6432316" lon="9.5106565"><ele>217.5</ele><time>2026-03-25T11:58:20.367Z</time></trkpt><trkpt lat="45.6433434" lon="9.5106072"><ele>217.0</ele><time>2026-03-25T11:58:21.368Z</time></trkpt><trkpt lat="45.6434575" lon="9.5105648"><ele>217.0</ele><time>2026-03-25T11:58:22.368Z</time></trkpt><trkpt lat="45.6435709" lon="9.510517"><ele>217.0</ele><time>2026-03-25T11:58:23.368Z</time></trkpt><trkpt lat="45.6436853" lon="9.5104753"><ele>217.0</ele><time>2026-03-25T11:58:24.367Z</time></trkpt><trkpt lat="45.6437991" lon="9.5104262"><ele>217.0</ele><time>2026-03-25T11:58:25.368Z</time></trkpt><trkpt lat="45.6439134" lon="9.5103765"><ele>217.75</ele><time>2026-03-25T11:58:26.368Z</time></trkpt><trkpt lat="45.6440271" lon="9.5103266"><ele>218.5</ele><time>2026-03-25T11:58:27.368Z</time></trkpt><trkpt lat="45.6441403" lon="9.5102724"><ele>219.25</ele><time>2026-03-25T11:58:28.368Z</time></trkpt><trkpt lat="45.6442631" lon="9.5102209"><ele>220.0</ele><time>2026-03-25T11:58:29.368Z</time></trkpt><trkpt lat="45.6443843" lon="9.5101697"><ele>220.25</ele><time>2026-03-25T11:58:30.368Z</time></trkpt><trkpt lat="45.6445006" lon="9.5101094"><ele>220.5</ele><time>2026-03-25T11:58:31.367Z</time></trkpt><trkpt lat="45.6446203" lon="9.5100591"><ele>220.75</ele><time>2026-03-25T11:58:32.368Z</time></trkpt><trkpt lat="45.6447399" lon="9.5100081"><ele>221.0</ele><time>2026-03-25T11:58:33.367Z</time></trkpt><trkpt lat="45.64486" lon="9.5099597"><ele>221.0</ele><time>2026-03-25T11:58:34.368Z</time></trkpt><trkpt lat="45.644979" lon="9.5099128"><ele>221.0</ele><time>2026-03-25T11:58:35.368Z</time></trkpt><trkpt lat="45.6451021" lon="9.5098613"><ele>221.0</ele><time>2026-03-25T11:58:36.368Z</time></trkpt><trkpt lat="45.6452262" lon="9.509817"><ele>221.0</ele><time>2026-03-25T11:58:37.367Z</time></trkpt><trkpt lat="45.6453463" lon="9.5097643"><ele>221.0</ele><time>2026-03-25T11:58:38.367Z</time></trkpt><trkpt lat="45.6454603" lon="9.509713"><ele>221.0</ele><time>2026-03-25T11:58:39.368Z</time></trkpt><trkpt lat="45.6455742" lon="9.5096661"><ele>221.0</ele><time>2026-03-25T11:58:40.367Z</time></trkpt><trkpt lat="45.6456866" lon="9.5096199"><ele>221.0</ele><time>2026-03-25T11:58:41.368Z</time></trkpt><trkpt lat="45.6457997" lon="9.5095735"><ele>220.8</ele><time>2026-03-25T11:58:42.368Z</time></trkpt><trkpt lat="45.6459095" lon="9.5095239"><ele>220.60000000000002</ele><time>2026-03-25T11:58:43.368Z</time></trkpt><trkpt lat="45.6460183" lon="9.5094831"><ele>220.4</ele><time>2026-03-25T11:58:44.367Z</time></trkpt><trkpt lat="45.6461234" lon="9.5094363"><ele>220.2</ele><time>2026-03-25T11:58:45.368Z</time></trkpt><trkpt lat="45.646216" lon="9.5093949"><ele>220.0</ele><time>2026-03-25T11:58:46.368Z</time></trkpt><trkpt lat="45.6463082" lon="9.5093613"><ele>219.99999999999997</ele><time>2026-03-25T11:58:47.368Z</time></trkpt><trkpt lat="45.6464005" lon="9.5093237"><ele>220.0</ele><time>2026-03-25T11:58:48.368Z</time></trkpt><trkpt lat="45.6464828" lon="9.509294"><ele>220.0</ele><time>2026-03-25T11:58:49.368Z</time></trkpt><trkpt lat="45.6465631" lon="9.5092719"><ele>220.0</ele><time>2026-03-25T11:58:50.367Z</time></trkpt><trkpt lat="45.6466492" lon="9.5092668"><ele>219.99999999999997</ele><time>2026-03-25T11:58:51.368Z</time></trkpt><trkpt lat="45.6467305" lon="9.509276"><ele>220.0</ele><time>2026-03-25T11:58:52.368Z</time></trkpt><trkpt lat="45.6468119" lon="9.5092848"><ele>219.99999999999997</ele><time>2026-03-25T11:58:53.368Z</time></trkpt><trkpt lat="45.6468954" lon="9.5092763"><ele>220.0</ele><time>2026-03-25T11:58:54.367Z</time></trkpt><trkpt lat="45.6469763" lon="9.5092355"><ele>220.0</ele><time>2026-03-25T11:58:55.368Z</time></trkpt><trkpt lat="45.6470477" lon="9.5091513"><ele>220.0</ele><time>2026-03-25T11:58:56.367Z</time></trkpt><trkpt lat="45.6471164" lon="9.5090683"><ele>219.99999999999997</ele><time>2026-03-25T11:58:57.368Z</time></trkpt><trkpt lat="45.6471975" lon="9.5090064"><ele>220.0</ele><time>2026-03-25T11:58:58.368Z</time></trkpt><trkpt lat="45.6472876" lon="9.5089585"><ele>220.6</ele><time>2026-03-25T11:58:59.367Z</time></trkpt><trkpt lat="45.6473827" lon="9.508921"><ele>221.2</ele><time>2026-03-25T11:59:00.368Z</time></trkpt><trkpt lat="45.6474804" lon="9.5088811"><ele>221.8</ele><time>2026-03-25T11:59:01.368Z</time></trkpt><trkpt lat="45.6475747" lon="9.5088436"><ele>222.4</ele><time>2026-03-25T11:59:02.368Z</time></trkpt><trkpt lat="45.6476732" lon="9.5088016"><ele>223.0</ele><time>2026-03-25T11:59:03.368Z</time></trkpt><trkpt lat="45.6477719" lon="9.5087596"><ele>223.4</ele><time>2026-03-25T11:59:04.368Z</time></trkpt><trkpt lat="45.6478747" lon="9.5087202"><ele>223.8</ele><time>2026-03-25T11:59:05.368Z</time></trkpt><trkpt lat="45.6479741" lon="9.5086712"><ele>224.2</ele><time>2026-03-25T11:59:06.367Z</time></trkpt><trkpt lat="45.6480845" lon="9.5086312"><ele>224.6</ele><time>2026-03-25T11:59:07.368Z</time></trkpt><trkpt lat="45.6481873" lon="9.5085929"><ele>225.0</ele><time>2026-03-25T11:59:08.368Z</time></trkpt><trkpt lat="45.6482963" lon="9.5085446"><ele>225.0</ele><time>2026-03-25T11:59:09.368Z</time></trkpt><trkpt lat="45.6484034" lon="9.5084959"><ele>225.0</ele><time>2026-03-25T11:59:10.368Z</time></trkpt><trkpt lat="45.6485094" lon="9.5084536"><ele>225.0</ele><time>2026-03-25T11:59:11.368Z</time></trkpt><trkpt lat="45.6486133" lon="9.5084072"><ele>225.0</ele><time>2026-03-25T11:59:12.368Z</time></trkpt><trkpt lat="45.6487153" lon="9.5083666"><ele>225.0</ele><time>2026-03-25T11:59:13.368Z</time></trkpt><trkpt lat="45.6488249" lon="9.5083194"><ele>225.2</ele><time>2026-03-25T11:59:14.367Z</time></trkpt><trkpt lat="45.6489384" lon="9.5082803"><ele>225.4</ele><time>2026-03-25T11:59:15.368Z</time></trkpt><trkpt lat="45.6490447" lon="9.5082414"><ele>225.60000000000002</ele><time>2026-03-25T11:59:16.367Z</time></trkpt><trkpt lat="45.6491529" lon="9.5081994"><ele>225.8</ele><time>2026-03-25T11:59:17.368Z</time></trkpt><trkpt lat="45.6492579" lon="9.5081507"><ele>226.0</ele><time>2026-03-25T11:59:18.368Z</time></trkpt><trkpt lat="45.6493656" lon="9.5081062"><ele>225.8</ele><time>2026-03-25T11:59:19.368Z</time></trkpt><trkpt lat="45.6494734" lon="9.508069"><ele>225.60000000000002</ele><time>2026-03-25T11:59:20.367Z</time></trkpt><trkpt lat="45.6495755" lon="9.5080204"><ele>225.4</ele><time>2026-03-25T11:59:21.368Z</time></trkpt><trkpt lat="45.6496857" lon="9.5079733"><ele>225.2</ele><time>2026-03-25T11:59:22.367Z</time></trkpt><trkpt lat="45.6497912" lon="9.50792"><ele>225.0</ele><time>2026-03-25T11:59:23.368Z</time></trkpt><trkpt lat="45.649894" lon="9.5078776"><ele>225.25</ele><time>2026-03-25T11:59:24.368Z</time></trkpt><trkpt lat="45.6500028" lon="9.5078375"><ele>225.5</ele><time>2026-03-25T11:59:25.368Z</time></trkpt><trkpt lat="45.6501102" lon="9.5077882"><ele>225.75</ele><time>2026-03-25T11:59:26.368Z</time></trkpt><trkpt lat="45.6502287" lon="9.5077398"><ele>226.0</ele><time>2026-03-25T11:59:27.368Z</time></trkpt><trkpt lat="45.6503418" lon="9.5076984"><ele>226.0</ele><time>2026-03-25T11:59:28.367Z</time></trkpt><trkpt lat="45.650456" lon="9.5076527"><ele>226.0</ele><time>2026-03-25T11:59:29.368Z</time></trkpt><trkpt lat="45.6505682" lon="9.5076011"><ele>226.0</ele><time>2026-03-25T11:59:30.368Z</time></trkpt><trkpt lat="45.6506777" lon="9.5075535"><ele>226.0</ele><time>2026-03-25T11:59:31.368Z</time></trkpt><trkpt lat="45.6507889" lon="9.5075042"><ele>226.0</ele><time>2026-03-25T11:59:32.368Z</time></trkpt><trkpt lat="45.6509026" lon="9.5074584"><ele>226.0</ele><time>2026-03-25T11:59:33.368Z</time></trkpt><trkpt lat="45.6510133" lon="9.5074174"><ele>226.0</ele><time>2026-03-25T11:59:34.367Z</time></trkpt><trkpt lat="45.6511314" lon="9.5073764"><ele>226.0</ele><time>2026-03-25T11:59:35.367Z</time></trkpt><trkpt lat="45.6512429" lon="9.5073378"><ele>225.8</ele><time>2026-03-25T11:59:36.367Z</time></trkpt><trkpt lat="45.6513524" lon="9.5072986"><ele>225.60000000000002</ele><time>2026-03-25T11:59:37.368Z</time></trkpt><trkpt lat="45.6514535" lon="9.5072559"><ele>225.4</ele><time>2026-03-25T11:59:38.368Z</time></trkpt><trkpt lat="45.6515536" lon="9.5072132"><ele>225.2</ele><time>2026-03-25T11:59:39.367Z</time></trkpt><trkpt lat="45.6516604" lon="9.5071666"><ele>225.0</ele><time>2026-03-25T11:59:40.368Z</time></trkpt><trkpt lat="45.6517631" lon="9.5071219"><ele>225.0</ele><time>2026-03-25T11:59:41.368Z</time></trkpt><trkpt lat="45.6518649" lon="9.5070784"><ele>225.0</ele><time>2026-03-25T11:59:42.367Z</time></trkpt><trkpt lat="45.6519657" lon="9.5070329"><ele>225.0</ele><time>2026-03-25T11:59:43.367Z</time></trkpt><trkpt lat="45.6520675" lon="9.5069869"><ele>225.0</ele><time>2026-03-25T11:59:44.368Z</time></trkpt><trkpt lat="45.6521662" lon="9.5069396"><ele>225.0</ele><time>2026-03-25T11:59:45.367Z</time></trkpt><trkpt lat="45.6522694" lon="9.5069022"><ele>225.2</ele><time>2026-03-25T11:59:46.368Z</time></trkpt><trkpt lat="45.652372" lon="9.5068645"><ele>225.4</ele><time>2026-03-25T11:59:47.368Z</time></trkpt><trkpt lat="45.6524735" lon="9.5068166"><ele>225.60000000000002</ele><time>2026-03-25T11:59:48.368Z</time></trkpt><trkpt lat="45.6525772" lon="9.5067719"><ele>225.8</ele><time>2026-03-25T11:59:49.367Z</time></trkpt><trkpt lat="45.6526794" lon="9.5067269"><ele>226.0</ele><time>2026-03-25T11:59:50.367Z</time></trkpt><trkpt lat="45.6527791" lon="9.5066837"><ele>226.60000000000002</ele><time>2026-03-25T11:59:51.368Z</time></trkpt><trkpt lat="45.6528853" lon="9.5066403"><ele>227.20000000000002</ele><time>2026-03-25T11:59:52.368Z</time></trkpt><trkpt lat="45.6529813" lon="9.5065906"><ele>227.79999999999998</ele><time>2026-03-25T11:59:53.368Z</time></trkpt><trkpt lat="45.6530817" lon="9.5065496"><ele>228.39999999999998</ele><time>2026-03-25T11:59:54.368Z</time></trkpt><trkpt lat="45.6531843" lon="9.5065055"><ele>229.0</ele><time>2026-03-25T11:59:55.368Z</time></trkpt><trkpt lat="45.6532826" lon="9.5064594"><ele>229.0</ele><time>2026-03-25T11:59:56.368Z</time></trkpt><trkpt lat="45.6533928" lon="9.5064168"><ele>228.99999999999997</ele><time>2026-03-25T11:59:57.368Z</time></trkpt><trkpt lat="45.6534967" lon="9.5063693"><ele>228.99999999999997</ele><time>2026-03-25T11:59:58.368Z</time></trkpt><trkpt lat="45.6536053" lon="9.5063266"><ele>229.0</ele><time>2026-03-25T11:59:59.368Z</time></trkpt><trkpt lat="45.6537122" lon="9.5062855"><ele>229.0</ele><time>2026-03-25T12:00:00.368Z</time></trkpt><trkpt lat="45.6538201" lon="9.5062446"><ele>229.0</ele><time>2026-03-25T12:00:01.368Z</time></trkpt><trkpt lat="45.6539256" lon="9.506204"><ele>228.99999999999997</ele><time>2026-03-25T12:00:02.367Z</time></trkpt><trkpt lat="45.6540296" lon="9.5061621"><ele>228.99999999999997</ele><time>2026-03-25T12:00:03.368Z</time></trkpt><trkpt lat="45.6541298" lon="9.5061192"><ele>229.0</ele><time>2026-03-25T12:00:04.368Z</time></trkpt><trkpt lat="45.6542292" lon="9.5060746"><ele>229.0</ele><time>2026-03-25T12:00:05.368Z</time></trkpt><trkpt lat="45.6543346" lon="9.5060308"><ele>229.0</ele><time>2026-03-25T12:00:06.368Z</time></trkpt><trkpt lat="45.6544342" lon="9.5059931"><ele>228.99999999999997</ele><time>2026-03-25T12:00:07.368Z</time></trkpt><trkpt lat="45.6545401" lon="9.5059504"><ele>228.99999999999997</ele><time>2026-03-25T12:00:08.368Z</time></trkpt><trkpt lat="45.6546339" lon="9.5059047"><ele>229.0</ele><time>2026-03-25T12:00:09.368Z</time></trkpt><trkpt lat="45.6547303" lon="9.505864"><ele>229.0</ele><time>2026-03-25T12:00:10.367Z</time></trkpt><trkpt lat="45.6548221" lon="9.5058193"><ele>229.2</ele><time>2026-03-25T12:00:11.368Z</time></trkpt><trkpt lat="45.6549185" lon="9.5057824"><ele>229.39999999999998</ele><time>2026-03-25T12:00:12.367Z</time></trkpt><trkpt lat="45.6550115" lon="9.5057375"><ele>229.6</ele><time>2026-03-25T12:00:13.368Z</time></trkpt><trkpt lat="45.655106" lon="9.5056982"><ele>229.8</ele><time>2026-03-25T12:00:14.367Z</time></trkpt><trkpt lat="45.6552038" lon="9.5056648"><ele>230.0</ele><time>2026-03-25T12:00:15.368Z</time></trkpt><trkpt lat="45.6553045" lon="9.5056241"><ele>230.0</ele><time>2026-03-25T12:00:16.368Z</time></trkpt><trkpt lat="45.655405" lon="9.5055833"><ele>230.0</ele><time>2026-03-25T12:00:17.368Z</time></trkpt><trkpt lat="45.6554966" lon="9.5055442"><ele>230.0</ele><time>2026-03-25T12:00:18.368Z</time></trkpt><trkpt lat="45.6555881" lon="9.5055119"><ele>230.0</ele><time>2026-03-25T12:00:19.368Z</time></trkpt><trkpt lat="45.655679" lon="9.5054815"><ele>230.0</ele><time>2026-03-25T12:00:20.367Z</time></trkpt><trkpt lat="45.6557608" lon="9.5054518"><ele>230.00000000000003</ele><time>2026-03-25T12:00:21.368Z</time></trkpt><trkpt lat="45.6558308" lon="9.5054206"><ele>230.0</ele><time>2026-03-25T12:00:22.368Z</time></trkpt><trkpt lat="45.6559412" lon="9.5053848"><ele>230.0</ele><time>2026-03-25T12:00:24.367Z</time></trkpt><trkpt lat="45.6560212" lon="9.5053465"><ele>230.0</ele><time>2026-03-25T12:00:26.368Z</time></trkpt><trkpt lat="45.6560896" lon="9.505309"><ele>230.00000000000003</ele><time>2026-03-25T12:00:28.367Z</time></trkpt><trkpt lat="45.6561675" lon="9.5052659"><ele>230.0</ele><time>2026-03-25T12:00:31.368Z</time></trkpt><trkpt lat="45.6562506" lon="9.505222"><ele>230.2</ele><time>2026-03-25T12:00:33.368Z</time></trkpt><trkpt lat="45.6563317" lon="9.5051597"><ele>230.4</ele><time>2026-03-25T12:00:35.367Z</time></trkpt><trkpt lat="45.6564356" lon="9.5050982"><ele>230.60000000000002</ele><time>2026-03-25T12:00:37.367Z</time></trkpt><trkpt lat="45.6565311" lon="9.505121"><ele>230.8</ele><time>2026-03-25T12:00:39.368Z</time></trkpt><trkpt lat="45.6566432" lon="9.505165"><ele>231.0</ele><time>2026-03-25T12:00:41.368Z</time></trkpt><trkpt lat="45.6567138" lon="9.5051749"><ele>231.0</ele><time>2026-03-25T12:00:42.368Z</time></trkpt><trkpt lat="45.6567869" lon="9.5051589"><ele>231.0</ele><time>2026-03-25T12:00:43.368Z</time></trkpt><trkpt lat="45.6568558" lon="9.5051072"><ele>231.0</ele><time>2026-03-25T12:00:44.368Z</time></trkpt><trkpt lat="45.6569101" lon="9.5050321"><ele>231.0</ele><time>2026-03-25T12:00:45.367Z</time></trkpt><trkpt lat="45.6569678" lon="9.5049631"><ele>231.0</ele><time>2026-03-25T12:00:46.368Z</time></trkpt><trkpt lat="45.6570406" lon="9.50492"><ele>231.0</ele><time>2026-03-25T12:00:47.368Z</time></trkpt><trkpt lat="45.6571125" lon="9.5048859"><ele>231.16666666666666</ele><time>2026-03-25T12:00:48.368Z</time></trkpt><trkpt lat="45.657192" lon="9.504848"><ele>231.33333333333331</ele><time>2026-03-25T12:00:49.368Z</time></trkpt><trkpt lat="45.6572659" lon="9.504806"><ele>231.5</ele><time>2026-03-25T12:00:50.368Z</time></trkpt><trkpt lat="45.6573474" lon="9.5047762"><ele>231.66666666666666</ele><time>2026-03-25T12:00:51.367Z</time></trkpt><trkpt lat="45.6574251" lon="9.504743"><ele>231.83333333333331</ele><time>2026-03-25T12:00:52.367Z</time></trkpt><trkpt lat="45.6575076" lon="9.5047119"><ele>232.0</ele><time>2026-03-25T12:00:53.368Z</time></trkpt><trkpt lat="45.6575945" lon="9.5046722"><ele>232.0</ele><time>2026-03-25T12:00:54.368Z</time></trkpt><trkpt lat="45.6576811" lon="9.504638"><ele>232.0</ele><time>2026-03-25T12:00:55.368Z</time></trkpt><trkpt lat="45.657774" lon="9.5046089"><ele>232.0</ele><time>2026-03-25T12:00:56.368Z</time></trkpt><trkpt lat="45.6578608" lon="9.5045767"><ele>232.0</ele><time>2026-03-25T12:00:57.368Z</time></trkpt><trkpt lat="45.6579514" lon="9.5045413"><ele>232.0</ele><time>2026-03-25T12:00:58.368Z</time></trkpt><trkpt lat="45.6580387" lon="9.5045013"><ele>232.0</ele><time>2026-03-25T12:00:59.368Z</time></trkpt><trkpt lat="45.6581239" lon="9.5044653"><ele>232.0</ele><time>2026-03-25T12:01:00.368Z</time></trkpt><trkpt lat="45.6582069" lon="9.5044247"><ele>232.0</ele><time>2026-03-25T12:01:01.368Z</time></trkpt><trkpt lat="45.6582952" lon="9.5043902"><ele>232.0</ele><time>2026-03-25T12:01:02.368Z</time></trkpt><trkpt lat="45.6583841" lon="9.5043558"><ele>232.0</ele><time>2026-03-25T12:01:03.367Z</time></trkpt><trkpt lat="45.6584744" lon="9.5043221"><ele>232.0</ele><time>2026-03-25T12:01:04.368Z</time></trkpt><trkpt lat="45.658559" lon="9.5042865"><ele>232.0</ele><time>2026-03-25T12:01:05.368Z</time></trkpt><trkpt lat="45.658648" lon="9.504246"><ele>232.0</ele><time>2026-03-25T12:01:06.368Z</time></trkpt><trkpt lat="45.6587331" lon="9.5042059"><ele>232.0</ele><time>2026-03-25T12:01:07.368Z</time></trkpt><trkpt lat="45.6588251" lon="9.5041687"><ele>232.0</ele><time>2026-03-25T12:01:08.368Z</time></trkpt><trkpt lat="45.6589186" lon="9.5041357"><ele>232.2</ele><time>2026-03-25T12:01:09.368Z</time></trkpt><trkpt lat="45.6590074" lon="9.5041019"><ele>232.39999999999998</ele><time>2026-03-25T12:01:10.368Z</time></trkpt><trkpt lat="45.6590927" lon="9.5040657"><ele>232.60000000000002</ele><time>2026-03-25T12:01:11.368Z</time></trkpt><trkpt lat="45.6591817" lon="9.5040265"><ele>232.8</ele><time>2026-03-25T12:01:12.368Z</time></trkpt><trkpt lat="45.6592722" lon="9.5039886"><ele>233.0</ele><time>2026-03-25T12:01:13.367Z</time></trkpt><trkpt lat="45.6593597" lon="9.5039412"><ele>233.00000000000003</ele><time>2026-03-25T12:01:14.368Z</time></trkpt><trkpt lat="45.6594368" lon="9.5038812"><ele>233.0</ele><time>2026-03-25T12:01:15.368Z</time></trkpt><trkpt lat="45.659508" lon="9.5038276"><ele>233.0</ele><time>2026-03-25T12:01:16.368Z</time></trkpt><trkpt lat="45.6595794" lon="9.5037826"><ele>233.0</ele><time>2026-03-25T12:01:17.368Z</time></trkpt><trkpt lat="45.6596527" lon="9.5037523"><ele>233.00000000000003</ele><time>2026-03-25T12:01:18.368Z</time></trkpt><trkpt lat="45.6597228" lon="9.5037266"><ele>233.0</ele><time>2026-03-25T12:01:19.368Z</time></trkpt><trkpt lat="45.6598007" lon="9.5036882"><ele>233.4</ele><time>2026-03-25T12:01:20.368Z</time></trkpt><trkpt lat="45.659886" lon="9.5036566"><ele>233.8</ele><time>2026-03-25T12:01:21.368Z</time></trkpt><trkpt lat="45.6599715" lon="9.503638"><ele>234.2</ele><time>2026-03-25T12:01:22.368Z</time></trkpt><trkpt lat="45.6600626" lon="9.5036231"><ele>234.6</ele><time>2026-03-25T12:01:23.367Z</time></trkpt><trkpt lat="45.6601531" lon="9.5036015"><ele>235.0</ele><time>2026-03-25T12:01:24.368Z</time></trkpt><trkpt lat="45.6602451" lon="9.503563"><ele>234.8</ele><time>2026-03-25T12:01:25.368Z</time></trkpt><trkpt lat="45.6603404" lon="9.5035316"><ele>234.6</ele><time>2026-03-25T12:01:26.368Z</time></trkpt><trkpt lat="45.6604304" lon="9.5035029"><ele>234.39999999999998</ele><time>2026-03-25T12:01:27.367Z</time></trkpt><trkpt lat="45.6605172" lon="9.5034606"><ele>234.2</ele><time>2026-03-25T12:01:28.368Z</time></trkpt><trkpt lat="45.6606061" lon="9.5034242"><ele>234.0</ele><time>2026-03-25T12:01:29.368Z</time></trkpt><trkpt lat="45.6607021" lon="9.5033915"><ele>234.0</ele><time>2026-03-25T12:01:30.368Z</time></trkpt><trkpt lat="45.6607923" lon="9.5033606"><ele>233.99999999999997</ele><time>2026-03-25T12:01:31.367Z</time></trkpt><trkpt lat="45.6608806" lon="9.5033216"><ele>233.99999999999997</ele><time>2026-03-25T12:01:32.368Z</time></trkpt><trkpt lat="45.6609692" lon="9.5032795"><ele>234.0</ele><time>2026-03-25T12:01:33.368Z</time></trkpt><trkpt lat="45.6610567" lon="9.5032476"><ele>234.0</ele><time>2026-03-25T12:01:34.367Z</time></trkpt><trkpt lat="45.6611446" lon="9.5032138"><ele>234.0</ele><time>2026-03-25T12:01:35.368Z</time></trkpt><trkpt lat="45.6612377" lon="9.5031819"><ele>233.99999999999997</ele><time>2026-03-25T12:01:36.368Z</time></trkpt><trkpt lat="45.6613221" lon="9.5031395"><ele>233.99999999999997</ele><time>2026-03-25T12:01:37.368Z</time></trkpt><trkpt lat="45.661405" lon="9.5031086"><ele>234.0</ele><time>2026-03-25T12:01:38.367Z</time></trkpt><trkpt lat="45.6614884" lon="9.503065"><ele>234.0</ele><time>2026-03-25T12:01:39.368Z</time></trkpt><trkpt lat="45.6615835" lon="9.5030277"><ele>234.0</ele><time>2026-03-25T12:01:40.368Z</time></trkpt><trkpt lat="45.6616674" lon="9.5029931"><ele>233.99999999999997</ele><time>2026-03-25T12:01:41.368Z</time></trkpt><trkpt lat="45.6617544" lon="9.5029627"><ele>233.99999999999997</ele><time>2026-03-25T12:01:42.367Z</time></trkpt><trkpt lat="45.6618463" lon="9.5029269"><ele>234.0</ele><time>2026-03-25T12:01:43.368Z</time></trkpt><trkpt lat="45.6619409" lon="9.5028863"><ele>234.0</ele><time>2026-03-25T12:01:44.368Z</time></trkpt><trkpt lat="45.6620312" lon="9.5028459"><ele>233.79999999999998</ele><time>2026-03-25T12:01:45.368Z</time></trkpt><trkpt lat="45.6621231" lon="9.5028088"><ele>233.59999999999997</ele><time>2026-03-25T12:01:46.368Z</time></trkpt><trkpt lat="45.6622118" lon="9.502775"><ele>233.4</ele><time>2026-03-25T12:01:47.368Z</time></trkpt><trkpt lat="45.6622984" lon="9.5027369"><ele>233.2</ele><time>2026-03-25T12:01:48.368Z</time></trkpt><trkpt lat="45.6623883" lon="9.5026984"><ele>233.0</ele><time>2026-03-25T12:01:49.367Z</time></trkpt><trkpt lat="45.662479" lon="9.5026615"><ele>233.0</ele><time>2026-03-25T12:01:50.368Z</time></trkpt><trkpt lat="45.6625664" lon="9.5026248"><ele>233.0</ele><time>2026-03-25T12:01:51.368Z</time></trkpt><trkpt lat="45.6626601" lon="9.5025926"><ele>233.0</ele><time>2026-03-25T12:01:52.368Z</time></trkpt><trkpt lat="45.662755" lon="9.502555"><ele>233.0</ele><time>2026-03-25T12:01:53.368Z</time></trkpt><trkpt lat="45.6628466" lon="9.5025174"><ele>233.0</ele><time>2026-03-25T12:01:54.368Z</time></trkpt><trkpt lat="45.6629371" lon="9.5024769"><ele>232.60000000000002</ele><time>2026-03-25T12:01:55.368Z</time></trkpt><trkpt lat="45.6630307" lon="9.5024386"><ele>232.20000000000002</ele><time>2026-03-25T12:01:56.368Z</time></trkpt><trkpt lat="45.6631309" lon="9.5024029"><ele>231.8</ele><time>2026-03-25T12:01:57.368Z</time></trkpt><trkpt lat="45.6632287" lon="9.5023669"><ele>231.4</ele><time>2026-03-25T12:01:58.368Z</time></trkpt><trkpt lat="45.6633225" lon="9.5023254"><ele>231.0</ele><time>2026-03-25T12:01:59.368Z</time></trkpt><trkpt lat="45.6634152" lon="9.5022857"><ele>231.0</ele><time>2026-03-25T12:02:00.368Z</time></trkpt><trkpt lat="45.6635074" lon="9.5022489"><ele>231.00000000000003</ele><time>2026-03-25T12:02:01.368Z</time></trkpt><trkpt lat="45.6636013" lon="9.5022077"><ele>231.00000000000003</ele><time>2026-03-25T12:02:02.368Z</time></trkpt><trkpt lat="45.6636976" lon="9.5021617"><ele>231.0</ele><time>2026-03-25T12:02:03.368Z</time></trkpt><trkpt lat="45.6637948" lon="9.5021182"><ele>231.0</ele><time>2026-03-25T12:02:04.368Z</time></trkpt><trkpt lat="45.663894" lon="9.5020771"><ele>231.8</ele><time>2026-03-25T12:02:05.368Z</time></trkpt><trkpt lat="45.6639922" lon="9.5020413"><ele>232.60000000000002</ele><time>2026-03-25T12:02:06.368Z</time></trkpt><trkpt lat="45.664093" lon="9.5020006"><ele>233.4</ele><time>2026-03-25T12:02:07.368Z</time></trkpt><trkpt lat="45.6641948" lon="9.5019571"><ele>234.2</ele><time>2026-03-25T12:02:08.368Z</time></trkpt><trkpt lat="45.6642989" lon="9.5019117"><ele>235.0</ele><time>2026-03-25T12:02:09.368Z</time></trkpt><trkpt lat="45.6644016" lon="9.5018682"><ele>235.2</ele><time>2026-03-25T12:02:10.368Z</time></trkpt><trkpt lat="45.6645063" lon="9.5018235"><ele>235.4</ele><time>2026-03-25T12:02:11.368Z</time></trkpt><trkpt lat="45.664612" lon="9.5017829"><ele>235.60000000000002</ele><time>2026-03-25T12:02:12.367Z</time></trkpt><trkpt lat="45.6647122" lon="9.5017414"><ele>235.8</ele><time>2026-03-25T12:02:13.368Z</time></trkpt><trkpt lat="45.6648111" lon="9.5017007"><ele>236.0</ele><time>2026-03-25T12:02:14.368Z</time></trkpt><trkpt lat="45.6649079" lon="9.5016599"><ele>236.0</ele><time>2026-03-25T12:02:15.367Z</time></trkpt><trkpt lat="45.6650076" lon="9.5016186"><ele>236.00000000000003</ele><time>2026-03-25T12:02:16.367Z</time></trkpt><trkpt lat="45.6651033" lon="9.5015738"><ele>236.00000000000003</ele><time>2026-03-25T12:02:17.368Z</time></trkpt><trkpt lat="45.6652006" lon="9.5015327"><ele>236.0</ele><time>2026-03-25T12:02:18.368Z</time></trkpt><trkpt lat="45.6652995" lon="9.5014902"><ele>236.0</ele><time>2026-03-25T12:02:19.368Z</time></trkpt><trkpt lat="45.6653982" lon="9.5014472"><ele>236.20000000000002</ele><time>2026-03-25T12:02:20.368Z</time></trkpt><trkpt lat="45.6654958" lon="9.5014116"><ele>236.40000000000003</ele><time>2026-03-25T12:02:21.368Z</time></trkpt><trkpt lat="45.6655959" lon="9.5013753"><ele>236.6</ele><time>2026-03-25T12:02:22.368Z</time></trkpt><trkpt lat="45.6656952" lon="9.5013361"><ele>236.8</ele><time>2026-03-25T12:02:23.368Z</time></trkpt><trkpt lat="45.6657924" lon="9.5012943"><ele>237.0</ele><time>2026-03-25T12:02:24.368Z</time></trkpt><trkpt lat="45.6658881" lon="9.5012497"><ele>237.0</ele><time>2026-03-25T12:02:25.368Z</time></trkpt><trkpt lat="45.6659896" lon="9.5012055"><ele>237.0</ele><time>2026-03-25T12:02:26.368Z</time></trkpt><trkpt lat="45.6660871" lon="9.5011541"><ele>237.0</ele><time>2026-03-25T12:02:27.367Z</time></trkpt><trkpt lat="45.666183" lon="9.5011"><ele>237.0</ele><time>2026-03-25T12:02:28.368Z</time></trkpt><trkpt lat="45.6662757" lon="9.5010478"><ele>237.0</ele><time>2026-03-25T12:02:29.368Z</time></trkpt><trkpt lat="45.666371" lon="9.5009898"><ele>236.8</ele><time>2026-03-25T12:02:30.368Z</time></trkpt><trkpt lat="45.666464" lon="9.5009244"><ele>236.6</ele><time>2026-03-25T12:02:31.367Z</time></trkpt><trkpt lat="45.6665531" lon="9.500855"><ele>236.40000000000003</ele><time>2026-03-25T12:02:32.367Z</time></trkpt><trkpt lat="45.6666474" lon="9.5007864"><ele>236.20000000000002</ele><time>2026-03-25T12:02:33.368Z</time></trkpt><trkpt lat="45.6667418" lon="9.5007191"><ele>236.0</ele><time>2026-03-25T12:02:34.368Z</time></trkpt><trkpt lat="45.6668331" lon="9.5006486"><ele>236.0</ele><time>2026-03-25T12:02:35.368Z</time></trkpt><trkpt lat="45.6669229" lon="9.5005753"><ele>236.00000000000003</ele><time>2026-03-25T12:02:36.368Z</time></trkpt><trkpt lat="45.6670114" lon="9.5005042"><ele>236.00000000000003</ele><time>2026-03-25T12:02:37.368Z</time></trkpt><trkpt lat="45.667099" lon="9.500427"><ele>236.0</ele><time>2026-03-25T12:02:38.368Z</time></trkpt><trkpt lat="45.6671897" lon="9.5003601"><ele>236.0</ele><time>2026-03-25T12:02:39.368Z</time></trkpt><trkpt lat="45.6672738" lon="9.5002907"><ele>236.4</ele><time>2026-03-25T12:02:40.368Z</time></trkpt><trkpt lat="45.6673602" lon="9.5002231"><ele>236.8</ele><time>2026-03-25T12:02:41.367Z</time></trkpt><trkpt lat="45.6674454" lon="9.5001532"><ele>237.20000000000002</ele><time>2026-03-25T12:02:42.368Z</time></trkpt><trkpt lat="45.6675305" lon="9.500082"><ele>237.60000000000002</ele><time>2026-03-25T12:02:43.368Z</time></trkpt><trkpt lat="45.667614" lon="9.5000077"><ele>238.0</ele><time>2026-03-25T12:02:44.368Z</time></trkpt><trkpt lat="45.6677037" lon="9.4999312"><ele>237.8</ele><time>2026-03-25T12:02:45.368Z</time></trkpt><trkpt lat="45.6677926" lon="9.4998591"><ele>237.60000000000002</ele><time>2026-03-25T12:02:46.367Z</time></trkpt><trkpt lat="45.66788" lon="9.499782"><ele>237.39999999999998</ele><time>2026-03-25T12:02:47.367Z</time></trkpt><trkpt lat="45.6679731" lon="9.4997054"><ele>237.2</ele><time>2026-03-25T12:02:48.368Z</time></trkpt><trkpt lat="45.6680641" lon="9.4996302"><ele>237.0</ele><time>2026-03-25T12:02:49.367Z</time></trkpt><trkpt lat="45.6681559" lon="9.499555"><ele>237.6</ele><time>2026-03-25T12:02:50.368Z</time></trkpt><trkpt lat="45.6682465" lon="9.4994767"><ele>238.2</ele><time>2026-03-25T12:02:51.368Z</time></trkpt><trkpt lat="45.668334" lon="9.4994011"><ele>238.8</ele><time>2026-03-25T12:02:52.368Z</time></trkpt><trkpt lat="45.6684324" lon="9.4993273"><ele>239.4</ele><time>2026-03-25T12:02:53.367Z</time></trkpt><trkpt lat="45.6685249" lon="9.4992511"><ele>240.0</ele><time>2026-03-25T12:02:54.367Z</time></trkpt><trkpt lat="45.6686158" lon="9.4991751"><ele>240.2</ele><time>2026-03-25T12:02:55.367Z</time></trkpt><trkpt lat="45.6687087" lon="9.4991012"><ele>240.4</ele><time>2026-03-25T12:02:56.367Z</time></trkpt><trkpt lat="45.6687991" lon="9.4990282"><ele>240.60000000000002</ele><time>2026-03-25T12:02:57.368Z</time></trkpt><trkpt lat="45.6688896" lon="9.4989534"><ele>240.8</ele><time>2026-03-25T12:02:58.368Z</time></trkpt><trkpt lat="45.6689864" lon="9.4988776"><ele>241.0</ele><time>2026-03-25T12:02:59.368Z</time></trkpt><trkpt lat="45.6690849" lon="9.4988071"><ele>241.0</ele><time>2026-03-25T12:03:00.368Z</time></trkpt><trkpt lat="45.6691812" lon="9.4987371"><ele>241.00000000000003</ele><time>2026-03-25T12:03:01.368Z</time></trkpt><trkpt lat="45.6692746" lon="9.4986684"><ele>241.00000000000003</ele><time>2026-03-25T12:03:02.368Z</time></trkpt><trkpt lat="45.6693667" lon="9.498593"><ele>241.0</ele><time>2026-03-25T12:03:03.367Z</time></trkpt><trkpt lat="45.6694601" lon="9.4985113"><ele>241.0</ele><time>2026-03-25T12:03:04.367Z</time></trkpt><trkpt lat="45.6695534" lon="9.4984324"><ele>241.20000000000002</ele><time>2026-03-25T12:03:05.367Z</time></trkpt><trkpt lat="45.6696448" lon="9.4983589"><ele>241.40000000000003</ele><time>2026-03-25T12:03:06.368Z</time></trkpt><trkpt lat="45.6697356" lon="9.4982835"><ele>241.6</ele><time>2026-03-25T12:03:07.368Z</time></trkpt><trkpt lat="45.6698299" lon="9.4982137"><ele>241.8</ele><time>2026-03-25T12:03:08.367Z</time></trkpt><trkpt lat="45.6699241" lon="9.49814"><ele>242.0</ele><time>2026-03-25T12:03:09.368Z</time></trkpt><trkpt lat="45.670019" lon="9.4980681"><ele>242.0</ele><time>2026-03-25T12:03:10.368Z</time></trkpt><trkpt lat="45.6701147" lon="9.4979928"><ele>242.0</ele><time>2026-03-25T12:03:11.368Z</time></trkpt><trkpt lat="45.6702134" lon="9.497918"><ele>242.0</ele><time>2026-03-25T12:03:12.367Z</time></trkpt><trkpt lat="45.6703059" lon="9.4978409"><ele>242.0</ele><time>2026-03-25T12:03:13.367Z</time></trkpt><trkpt lat="45.670395" lon="9.4977687"><ele>242.0</ele><time>2026-03-25T12:03:14.368Z</time></trkpt><trkpt lat="45.6704866" lon="9.4976931"><ele>242.2</ele><time>2026-03-25T12:03:15.368Z</time></trkpt><trkpt lat="45.6705787" lon="9.4976181"><ele>242.39999999999998</ele><time>2026-03-25T12:03:16.367Z</time></trkpt><trkpt lat="45.6706659" lon="9.4975443"><ele>242.60000000000002</ele><time>2026-03-25T12:03:17.367Z</time></trkpt><trkpt lat="45.6707552" lon="9.4974716"><ele>242.8</ele><time>2026-03-25T12:03:18.367Z</time></trkpt><trkpt lat="45.6708422" lon="9.4973987"><ele>243.0</ele><time>2026-03-25T12:03:19.368Z</time></trkpt><trkpt lat="45.6709335" lon="9.497328"><ele>243.0</ele><time>2026-03-25T12:03:20.367Z</time></trkpt><trkpt lat="45.6710236" lon="9.497257"><ele>243.0</ele><time>2026-03-25T12:03:21.368Z</time></trkpt><trkpt lat="45.6711145" lon="9.49719"><ele>243.0</ele><time>2026-03-25T12:03:22.368Z</time></trkpt><trkpt lat="45.671202" lon="9.4971244"><ele>243.0</ele><time>2026-03-25T12:03:23.368Z</time></trkpt><trkpt lat="45.6712899" lon="9.4970602"><ele>243.0</ele><time>2026-03-25T12:03:24.368Z</time></trkpt><trkpt lat="45.6713803" lon="9.496993"><ele>243.2</ele><time>2026-03-25T12:03:25.368Z</time></trkpt><trkpt lat="45.6714735" lon="9.4969201"><ele>243.4</ele><time>2026-03-25T12:03:26.368Z</time></trkpt><trkpt lat="45.671568" lon="9.4968465"><ele>243.59999999999997</ele><time>2026-03-25T12:03:27.368Z</time></trkpt><trkpt lat="45.671663" lon="9.4967764"><ele>243.79999999999998</ele><time>2026-03-25T12:03:28.367Z</time></trkpt><trkpt lat="45.6717599" lon="9.4967065"><ele>244.0</ele><time>2026-03-25T12:03:29.368Z</time></trkpt><trkpt lat="45.6718567" lon="9.4966311"><ele>244.2</ele><time>2026-03-25T12:03:30.368Z</time></trkpt><trkpt lat="45.671954" lon="9.4965553"><ele>244.39999999999998</ele><time>2026-03-25T12:03:31.367Z</time></trkpt><trkpt lat="45.672056" lon="9.4964774"><ele>244.6</ele><time>2026-03-25T12:03:32.368Z</time></trkpt><trkpt lat="45.6721566" lon="9.4964035"><ele>244.8</ele><time>2026-03-25T12:03:33.368Z</time></trkpt><trkpt lat="45.6722491" lon="9.4963267"><ele>245.0</ele><time>2026-03-25T12:03:34.368Z</time></trkpt><trkpt lat="45.6723413" lon="9.4962519"><ele>245.0</ele><time>2026-03-25T12:03:35.368Z</time></trkpt><trkpt lat="45.6724304" lon="9.4961755"><ele>245.0</ele><time>2026-03-25T12:03:36.368Z</time></trkpt><trkpt lat="45.672523" lon="9.4960967"><ele>245.0</ele><time>2026-03-25T12:03:37.368Z</time></trkpt><trkpt lat="45.6726164" lon="9.4960193"><ele>245.0</ele><time>2026-03-25T12:03:38.368Z</time></trkpt><trkpt lat="45.6727054" lon="9.4959427"><ele>245.0</ele><time>2026-03-25T12:03:39.367Z</time></trkpt><trkpt lat="45.6727942" lon="9.495865"><ele>245.0</ele><time>2026-03-25T12:03:40.368Z</time></trkpt><trkpt lat="45.672882" lon="9.4957897"><ele>245.0</ele><time>2026-03-25T12:03:41.368Z</time></trkpt><trkpt lat="45.6729742" lon="9.4957195"><ele>245.0</ele><time>2026-03-25T12:03:42.367Z</time></trkpt><trkpt lat="45.6730695" lon="9.4956514"><ele>245.0</ele><time>2026-03-25T12:03:43.368Z</time></trkpt><trkpt lat="45.673169" lon="9.4955965"><ele>245.0</ele><time>2026-03-25T12:03:44.367Z</time></trkpt><trkpt lat="45.6732632" lon="9.4955423"><ele>245.00000000000003</ele><time>2026-03-25T12:03:45.368Z</time></trkpt><trkpt lat="45.6733519" lon="9.4954952"><ele>245.0</ele><time>2026-03-25T12:03:46.367Z</time></trkpt><trkpt lat="45.6734351" lon="9.4954559"><ele>245.0</ele><time>2026-03-25T12:03:47.367Z</time></trkpt><trkpt lat="45.67351" lon="9.4954312"><ele>245.0</ele><time>2026-03-25T12:03:48.368Z</time></trkpt><trkpt lat="45.6735757" lon="9.4954165"><ele>245.00000000000003</ele><time>2026-03-25T12:03:49.368Z</time></trkpt><trkpt lat="45.6736825" lon="9.4954248"><ele>245.0</ele><time>2026-03-25T12:03:51.368Z</time></trkpt><trkpt lat="45.6738058" lon="9.4954439"><ele>245.6</ele><time>2026-03-25T12:03:53.368Z</time></trkpt><trkpt lat="45.6738765" lon="9.4954361"><ele>246.2</ele><time>2026-03-25T12:03:54.368Z</time></trkpt><trkpt lat="45.6739349" lon="9.4953981"><ele>246.8</ele><time>2026-03-25T12:03:55.368Z</time></trkpt><trkpt lat="45.6740041" lon="9.495255"><ele>247.4</ele><time>2026-03-25T12:03:57.368Z</time></trkpt><trkpt lat="45.6740343" lon="9.4951023"><ele>248.0</ele><time>2026-03-25T12:03:59.368Z</time></trkpt><trkpt lat="45.6740853" lon="9.4949514"><ele>248.00000000000003</ele><time>2026-03-25T12:04:01.368Z</time></trkpt><trkpt lat="45.6741236" lon="9.494869"><ele>248.0</ele><time>2026-03-25T12:04:02.368Z</time></trkpt><trkpt lat="45.6741733" lon="9.4948009"><ele>248.0</ele><time>2026-03-25T12:04:03.368Z</time></trkpt><trkpt lat="45.6742382" lon="9.4947417"><ele>248.0</ele><time>2026-03-25T12:04:04.368Z</time></trkpt><trkpt lat="45.6743058" lon="9.4946826"><ele>248.00000000000003</ele><time>2026-03-25T12:04:05.368Z</time></trkpt><trkpt lat="45.6743724" lon="9.4946171"><ele>248.0</ele><time>2026-03-25T12:04:06.368Z</time></trkpt><trkpt lat="45.6744426" lon="9.4945528"><ele>248.16666666666669</ele><time>2026-03-25T12:04:07.368Z</time></trkpt><trkpt lat="45.6745143" lon="9.4944894"><ele>248.33333333333334</ele><time>2026-03-25T12:04:08.367Z</time></trkpt><trkpt lat="45.6745843" lon="9.4944266"><ele>248.5</ele><time>2026-03-25T12:04:09.368Z</time></trkpt><trkpt lat="45.6746581" lon="9.4943678"><ele>248.66666666666669</ele><time>2026-03-25T12:04:10.367Z</time></trkpt><trkpt lat="45.6747345" lon="9.4943094"><ele>248.83333333333334</ele><time>2026-03-25T12:04:11.368Z</time></trkpt><trkpt lat="45.6748088" lon="9.4942491"><ele>249.0</ele><time>2026-03-25T12:04:12.368Z</time></trkpt><trkpt lat="45.6748783" lon="9.4941897"><ele>249.0</ele><time>2026-03-25T12:04:13.368Z</time></trkpt><trkpt lat="45.6749501" lon="9.4941324"><ele>249.0</ele><time>2026-03-25T12:04:14.368Z</time></trkpt><trkpt lat="45.675028" lon="9.4940652"><ele>249.0</ele><time>2026-03-25T12:04:15.367Z</time></trkpt><trkpt lat="45.6751042" lon="9.4939964"><ele>249.0</ele><time>2026-03-25T12:04:16.368Z</time></trkpt><trkpt lat="45.6751809" lon="9.4939314"><ele>249.0</ele><time>2026-03-25T12:04:17.367Z</time></trkpt><trkpt lat="45.6752591" lon="9.4938732"><ele>249.0</ele><time>2026-03-25T12:04:18.368Z</time></trkpt><trkpt lat="45.6753388" lon="9.4938098"><ele>249.0</ele><time>2026-03-25T12:04:19.368Z</time></trkpt><trkpt lat="45.675414" lon="9.4937455"><ele>249.0</ele><time>2026-03-25T12:04:20.368Z</time></trkpt><trkpt lat="45.6754907" lon="9.4936809"><ele>249.0</ele><time>2026-03-25T12:04:21.368Z</time></trkpt><trkpt lat="45.6755666" lon="9.4936179"><ele>249.0</ele><time>2026-03-25T12:04:22.368Z</time></trkpt><trkpt lat="45.6756436" lon="9.4935521"><ele>249.0</ele><time>2026-03-25T12:04:23.368Z</time></trkpt><trkpt lat="45.6757232" lon="9.4934886"><ele>249.0</ele><time>2026-03-25T12:04:24.368Z</time></trkpt><trkpt lat="45.6758056" lon="9.4934252"><ele>249.0</ele><time>2026-03-25T12:04:25.368Z</time></trkpt><trkpt lat="45.6758878" lon="9.493359"><ele>248.99999999999997</ele><time>2026-03-25T12:04:26.368Z</time></trkpt><trkpt lat="45.6759682" lon="9.4932915"><ele>248.99999999999997</ele><time>2026-03-25T12:04:27.367Z</time></trkpt><trkpt lat="45.6760514" lon="9.4932257"><ele>249.0</ele><time>2026-03-25T12:04:28.368Z</time></trkpt><trkpt lat="45.676129" lon="9.4931619"><ele>249.0</ele><time>2026-03-25T12:04:29.368Z</time></trkpt><trkpt lat="45.6762012" lon="9.4931038"><ele>249.33333333333334</ele><time>2026-03-25T12:04:30.368Z</time></trkpt><trkpt lat="45.6762664" lon="9.4930474"><ele>249.66666666666669</ele><time>2026-03-25T12:04:31.367Z</time></trkpt><trkpt lat="45.6763275" lon="9.4930018"><ele>250.0</ele><time>2026-03-25T12:04:32.368Z</time></trkpt><trkpt lat="45.6764271" lon="9.4929231"><ele>250.33333333333334</ele><time>2026-03-25T12:04:34.368Z</time></trkpt><trkpt lat="45.6764989" lon="9.4928863"><ele>250.66666666666669</ele><time>2026-03-25T12:04:36.368Z</time></trkpt><trkpt lat="45.6765733" lon="9.492853"><ele>251.0</ele><time>2026-03-25T12:05:52.368Z</time></trkpt><trkpt lat="45.6766431" lon="9.4927781"><ele>251.20000000000002</ele><time>2026-03-25T12:05:55.368Z</time></trkpt><trkpt lat="45.6767124" lon="9.4927055"><ele>251.40000000000003</ele><time>2026-03-25T12:05:57.367Z</time></trkpt><trkpt lat="45.6768084" lon="9.4926305"><ele>251.6</ele><time>2026-03-25T12:05:59.368Z</time></trkpt><trkpt lat="45.6769244" lon="9.492544"><ele>251.8</ele><time>2026-03-25T12:06:01.368Z</time></trkpt><trkpt lat="45.6769867" lon="9.4924907"><ele>252.0</ele><time>2026-03-25T12:06:02.368Z</time></trkpt><trkpt lat="45.6770493" lon="9.4924375"><ele>252.0</ele><time>2026-03-25T12:06:03.368Z</time></trkpt><trkpt lat="45.6771223" lon="9.4923833"><ele>252.0</ele><time>2026-03-25T12:06:04.368Z</time></trkpt><trkpt lat="45.677191" lon="9.492331"><ele>252.0</ele><time>2026-03-25T12:06:05.368Z</time></trkpt><trkpt lat="45.6772588" lon="9.4922717"><ele>252.0</ele><time>2026-03-25T12:06:06.367Z</time></trkpt><trkpt lat="45.6773312" lon="9.4922143"><ele>252.0</ele><time>2026-03-25T12:06:07.367Z</time></trkpt><trkpt lat="45.6774006" lon="9.4921682"><ele>252.0</ele><time>2026-03-25T12:06:08.367Z</time></trkpt><trkpt lat="45.6774779" lon="9.4921204"><ele>252.0</ele><time>2026-03-25T12:06:09.368Z</time></trkpt><trkpt lat="45.6775425" lon="9.4920567"><ele>252.0</ele><time>2026-03-25T12:06:10.368Z</time></trkpt><trkpt lat="45.6776154" lon="9.4919994"><ele>252.0</ele><time>2026-03-25T12:06:11.368Z</time></trkpt><trkpt lat="45.6776869" lon="9.4919435"><ele>252.0</ele><time>2026-03-25T12:06:12.367Z</time></trkpt><trkpt lat="45.6777567" lon="9.491888"><ele>252.0</ele><time>2026-03-25T12:06:13.368Z</time></trkpt><trkpt lat="45.677832" lon="9.4918287"><ele>252.0</ele><time>2026-03-25T12:06:14.368Z</time></trkpt><trkpt lat="45.6778985" lon="9.4917696"><ele>252.0</ele><time>2026-03-25T12:06:15.368Z</time></trkpt><trkpt lat="45.6779722" lon="9.4917112"><ele>252.0</ele><time>2026-03-25T12:06:16.367Z</time></trkpt><trkpt lat="45.6780437" lon="9.4916498"><ele>252.0</ele><time>2026-03-25T12:06:17.368Z</time></trkpt><trkpt lat="45.6781126" lon="9.491588"><ele>252.0</ele><time>2026-03-25T12:06:18.368Z</time></trkpt><trkpt lat="45.6781867" lon="9.491525"><ele>252.0</ele><time>2026-03-25T12:06:19.367Z</time></trkpt><trkpt lat="45.6782611" lon="9.4914598"><ele>252.0</ele><time>2026-03-25T12:06:20.368Z</time></trkpt><trkpt lat="45.6783309" lon="9.4913883"><ele>252.0</ele><time>2026-03-25T12:06:21.368Z</time></trkpt><trkpt lat="45.6783998" lon="9.4913147"><ele>252.0</ele><time>2026-03-25T12:06:22.367Z</time></trkpt><trkpt lat="45.6784778" lon="9.4912437"><ele>252.0</ele><time>2026-03-25T12:06:23.368Z</time></trkpt><trkpt lat="45.6785507" lon="9.4911751"><ele>252.0</ele><time>2026-03-25T12:06:24.368Z</time></trkpt><trkpt lat="45.6786246" lon="9.491101"><ele>252.0</ele><time>2026-03-25T12:06:25.368Z</time></trkpt><trkpt lat="45.6786989" lon="9.4910237"><ele>252.0</ele><time>2026-03-25T12:06:26.368Z</time></trkpt><trkpt lat="45.6787728" lon="9.490946"><ele>252.2</ele><time>2026-03-25T12:06:27.367Z</time></trkpt><trkpt lat="45.6788451" lon="9.4908695"><ele>252.39999999999998</ele><time>2026-03-25T12:06:28.368Z</time></trkpt><trkpt lat="45.6789196" lon="9.4907932"><ele>252.60000000000002</ele><time>2026-03-25T12:06:29.368Z</time></trkpt><trkpt lat="45.6789951" lon="9.4907148"><ele>252.8</ele><time>2026-03-25T12:06:30.368Z</time></trkpt><trkpt lat="45.6790665" lon="9.490639"><ele>253.0</ele><time>2026-03-25T12:06:31.368Z</time></trkpt><trkpt lat="45.6791456" lon="9.4905663"><ele>253.0</ele><time>2026-03-25T12:06:32.368Z</time></trkpt><trkpt lat="45.6792274" lon="9.490486"><ele>253.0</ele><time>2026-03-25T12:06:33.368Z</time></trkpt><trkpt lat="45.6793098" lon="9.4904046"><ele>253.0</ele><time>2026-03-25T12:06:34.368Z</time></trkpt><trkpt lat="45.679389" lon="9.4903234"><ele>253.0</ele><time>2026-03-25T12:06:35.368Z</time></trkpt><trkpt lat="45.6794656" lon="9.4902455"><ele>253.0</ele><time>2026-03-25T12:06:36.368Z</time></trkpt><trkpt lat="45.6795471" lon="9.4901577"><ele>253.2</ele><time>2026-03-25T12:06:37.368Z</time></trkpt><trkpt lat="45.6796282" lon="9.4900776"><ele>253.4</ele><time>2026-03-25T12:06:38.368Z</time></trkpt><trkpt lat="45.6797076" lon="9.4899875"><ele>253.59999999999997</ele><time>2026-03-25T12:06:39.368Z</time></trkpt><trkpt lat="45.6797863" lon="9.4899053"><ele>253.79999999999998</ele><time>2026-03-25T12:06:40.368Z</time></trkpt><trkpt lat="45.6798671" lon="9.4898208"><ele>254.0</ele><time>2026-03-25T12:06:41.368Z</time></trkpt><trkpt lat="45.6799472" lon="9.4897407"><ele>254.0</ele><time>2026-03-25T12:06:42.368Z</time></trkpt><trkpt lat="45.6800323" lon="9.4896582"><ele>253.99999999999997</ele><time>2026-03-25T12:06:43.368Z</time></trkpt><trkpt lat="45.6801118" lon="9.48957"><ele>253.99999999999997</ele><time>2026-03-25T12:06:44.368Z</time></trkpt><trkpt lat="45.6801964" lon="9.4894843"><ele>254.0</ele><time>2026-03-25T12:06:45.367Z</time></trkpt><trkpt lat="45.680273" lon="9.4894005"><ele>254.0</ele><time>2026-03-25T12:06:46.368Z</time></trkpt><trkpt lat="45.6803581" lon="9.4893159"><ele>254.6</ele><time>2026-03-25T12:06:47.368Z</time></trkpt><trkpt lat="45.680442" lon="9.4892249"><ele>255.2</ele><time>2026-03-25T12:06:48.368Z</time></trkpt><trkpt lat="45.6805285" lon="9.4891403"><ele>255.79999999999998</ele><time>2026-03-25T12:06:49.367Z</time></trkpt><trkpt lat="45.6806154" lon="9.4890533"><ele>256.4</ele><time>2026-03-25T12:06:50.367Z</time></trkpt><trkpt lat="45.6806983" lon="9.4889662"><ele>257.0</ele><time>2026-03-25T12:06:51.368Z</time></trkpt><trkpt lat="45.6807793" lon="9.4888786"><ele>257.0</ele><time>2026-03-25T12:06:52.367Z</time></trkpt><trkpt lat="45.6808621" lon="9.4887945"><ele>257.0</ele><time>2026-03-25T12:06:53.368Z</time></trkpt><trkpt lat="45.6809492" lon="9.4887099"><ele>257.0</ele><time>2026-03-25T12:06:54.368Z</time></trkpt><trkpt lat="45.6810324" lon="9.4886188"><ele>257.0</ele><time>2026-03-25T12:06:55.368Z</time></trkpt><trkpt lat="45.6811171" lon="9.4885331"><ele>257.0</ele><time>2026-03-25T12:06:56.368Z</time></trkpt><trkpt lat="45.6812064" lon="9.488444"><ele>257.6</ele><time>2026-03-25T12:06:57.368Z</time></trkpt><trkpt lat="45.6812945" lon="9.488359"><ele>258.2</ele><time>2026-03-25T12:06:58.368Z</time></trkpt><trkpt lat="45.6813859" lon="9.4882699"><ele>258.8</ele><time>2026-03-25T12:06:59.368Z</time></trkpt><trkpt lat="45.6814686" lon="9.4881817"><ele>259.4</ele><time>2026-03-25T12:07:00.367Z</time></trkpt><trkpt lat="45.6815568" lon="9.4880891"><ele>260.0</ele><time>2026-03-25T12:07:01.367Z</time></trkpt><trkpt lat="45.6816462" lon="9.4879986"><ele>259.8</ele><time>2026-03-25T12:07:02.368Z</time></trkpt><trkpt lat="45.6817295" lon="9.4879054"><ele>259.6</ele><time>2026-03-25T12:07:03.368Z</time></trkpt><trkpt lat="45.681813" lon="9.4878089"><ele>259.4</ele><time>2026-03-25T12:07:04.368Z</time></trkpt><trkpt lat="45.6819008" lon="9.4877217"><ele>259.2</ele><time>2026-03-25T12:07:05.368Z</time></trkpt><trkpt lat="45.6819849" lon="9.4876276"><ele>259.0</ele><time>2026-03-25T12:07:06.368Z</time></trkpt><trkpt lat="45.6820707" lon="9.4875351"><ele>259.0</ele><time>2026-03-25T12:07:07.367Z</time></trkpt><trkpt lat="45.6821604" lon="9.4874464"><ele>259.0</ele><time>2026-03-25T12:07:08.368Z</time></trkpt><trkpt lat="45.6822482" lon="9.4873574"><ele>259.0</ele><time>2026-03-25T12:07:09.367Z</time></trkpt><trkpt lat="45.682339" lon="9.4872682"><ele>259.0</ele><time>2026-03-25T12:07:10.368Z</time></trkpt><trkpt lat="45.682422" lon="9.4871776"><ele>259.0</ele><time>2026-03-25T12:07:11.367Z</time></trkpt><trkpt lat="45.6825074" lon="9.4870925"><ele>258.8</ele><time>2026-03-25T12:07:12.368Z</time></trkpt><trkpt lat="45.6825976" lon="9.4870025"><ele>258.59999999999997</ele><time>2026-03-25T12:07:13.368Z</time></trkpt><trkpt lat="45.6826812" lon="9.4869154"><ele>258.4</ele><time>2026-03-25T12:07:14.368Z</time></trkpt><trkpt lat="45.6827632" lon="9.4868307"><ele>258.2</ele><time>2026-03-25T12:07:15.367Z</time></trkpt><trkpt lat="45.6828434" lon="9.4867478"><ele>258.0</ele><time>2026-03-25T12:07:16.368Z</time></trkpt><trkpt lat="45.6829256" lon="9.486661"><ele>258.0</ele><time>2026-03-25T12:07:17.368Z</time></trkpt><trkpt lat="45.683009" lon="9.4865882"><ele>258.0</ele><time>2026-03-25T12:07:18.368Z</time></trkpt><trkpt lat="45.6830949" lon="9.4865206"><ele>258.0</ele><time>2026-03-25T12:07:19.367Z</time></trkpt><trkpt lat="45.6831886" lon="9.4864845"><ele>258.0</ele><time>2026-03-25T12:07:20.368Z</time></trkpt><trkpt lat="45.6832817" lon="9.4864667"><ele>258.0</ele><time>2026-03-25T12:07:21.368Z</time></trkpt><trkpt lat="45.6833657" lon="9.4864324"><ele>258.0</ele><time>2026-03-25T12:07:22.368Z</time></trkpt><trkpt lat="45.6834394" lon="9.4863723"><ele>258.0</ele><time>2026-03-25T12:07:23.368Z</time></trkpt><trkpt lat="45.6834894" lon="9.4862741"><ele>258.0</ele><time>2026-03-25T12:07:24.368Z</time></trkpt><trkpt lat="45.6835318" lon="9.4861625"><ele>258.0</ele><time>2026-03-25T12:07:25.368Z</time></trkpt><trkpt lat="45.6835705" lon="9.4860495"><ele>258.0</ele><time>2026-03-25T12:07:26.368Z</time></trkpt><trkpt lat="45.6836278" lon="9.4859535"><ele>258.0</ele><time>2026-03-25T12:07:27.368Z</time></trkpt><trkpt lat="45.6836888" lon="9.4858633"><ele>258.2</ele><time>2026-03-25T12:07:28.367Z</time></trkpt><trkpt lat="45.6837592" lon="9.485786"><ele>258.4</ele><time>2026-03-25T12:07:29.367Z</time></trkpt><trkpt lat="45.6838328" lon="9.485706"><ele>258.59999999999997</ele><time>2026-03-25T12:07:30.368Z</time></trkpt><trkpt lat="45.6839066" lon="9.4856282"><ele>258.8</ele><time>2026-03-25T12:07:31.368Z</time></trkpt><trkpt lat="45.6839836" lon="9.4855525"><ele>259.0</ele><time>2026-03-25T12:07:32.367Z</time></trkpt><trkpt lat="45.6840609" lon="9.4854749"><ele>259.2</ele><time>2026-03-25T12:07:33.368Z</time></trkpt><trkpt lat="45.6841387" lon="9.4853988"><ele>259.4</ele><time>2026-03-25T12:07:34.368Z</time></trkpt><trkpt lat="45.684214" lon="9.4853142"><ele>259.6</ele><time>2026-03-25T12:07:35.367Z</time></trkpt><trkpt lat="45.6842914" lon="9.4852315"><ele>259.8</ele><time>2026-03-25T12:07:36.368Z</time></trkpt><trkpt lat="45.6843717" lon="9.4851502"><ele>260.0</ele><time>2026-03-25T12:07:37.367Z</time></trkpt><trkpt lat="45.6844527" lon="9.4850637"><ele>260.0</ele><time>2026-03-25T12:07:38.367Z</time></trkpt><trkpt lat="45.6845356" lon="9.4849754"><ele>260.0</ele><time>2026-03-25T12:07:39.368Z</time></trkpt><trkpt lat="45.6846198" lon="9.4848893"><ele>260.0</ele><time>2026-03-25T12:07:40.368Z</time></trkpt><trkpt lat="45.6847066" lon="9.4847946"><ele>260.0</ele><time>2026-03-25T12:07:41.368Z</time></trkpt><trkpt lat="45.6847983" lon="9.4847046"><ele>260.0</ele><time>2026-03-25T12:07:42.367Z</time></trkpt><trkpt lat="45.6848901" lon="9.4846084"><ele>260.25</ele><time>2026-03-25T12:07:43.368Z</time></trkpt><trkpt lat="45.6849872" lon="9.4845162"><ele>260.5</ele><time>2026-03-25T12:07:44.367Z</time></trkpt><trkpt lat="45.6850803" lon="9.4844176"><ele>260.75</ele><time>2026-03-25T12:07:45.367Z</time></trkpt><trkpt lat="45.685175" lon="9.4843249"><ele>261.0</ele><time>2026-03-25T12:07:46.368Z</time></trkpt><trkpt lat="45.6852676" lon="9.4842298"><ele>261.0</ele><time>2026-03-25T12:07:47.368Z</time></trkpt><trkpt lat="45.6853579" lon="9.4841349"><ele>261.0</ele><time>2026-03-25T12:07:48.368Z</time></trkpt><trkpt lat="45.6854461" lon="9.484043"><ele>261.0</ele><time>2026-03-25T12:07:49.368Z</time></trkpt><trkpt lat="45.6855364" lon="9.4839525"><ele>261.0</ele><time>2026-03-25T12:07:50.368Z</time></trkpt><trkpt lat="45.6856305" lon="9.4838578"><ele>261.0</ele><time>2026-03-25T12:07:51.368Z</time></trkpt><trkpt lat="45.6857208" lon="9.4837664"><ele>261.0</ele><time>2026-03-25T12:07:52.367Z</time></trkpt><trkpt lat="45.6858119" lon="9.4836742"><ele>261.0</ele><time>2026-03-25T12:07:53.368Z</time></trkpt><trkpt lat="45.6859007" lon="9.4835766"><ele>261.0</ele><time>2026-03-25T12:07:54.368Z</time></trkpt><trkpt lat="45.6859914" lon="9.4834798"><ele>261.0</ele><time>2026-03-25T12:07:55.368Z</time></trkpt><trkpt lat="45.6860808" lon="9.4833916"><ele>261.0</ele><time>2026-03-25T12:07:56.368Z</time></trkpt><trkpt lat="45.6861699" lon="9.4833088"><ele>261.8</ele><time>2026-03-25T12:07:57.368Z</time></trkpt><trkpt lat="45.6862505" lon="9.4832216"><ele>262.6</ele><time>2026-03-25T12:07:58.367Z</time></trkpt><trkpt lat="45.6863277" lon="9.4831397"><ele>263.4</ele><time>2026-03-25T12:07:59.368Z</time></trkpt><trkpt lat="45.6864094" lon="9.48306"><ele>264.2</ele><time>2026-03-25T12:08:00.368Z</time></trkpt><trkpt lat="45.6864809" lon="9.4829875"><ele>265.0</ele><time>2026-03-25T12:08:01.368Z</time></trkpt><trkpt lat="45.6865496" lon="9.4829186"><ele>265.16666666666663</ele><time>2026-03-25T12:08:02.367Z</time></trkpt><trkpt lat="45.6866151" lon="9.4828528"><ele>265.3333333333333</ele><time>2026-03-25T12:08:03.368Z</time></trkpt><trkpt lat="45.6866765" lon="9.4827857"><ele>265.5</ele><time>2026-03-25T12:08:04.368Z</time></trkpt><trkpt lat="45.6867326" lon="9.4827261"><ele>265.6666666666667</ele><time>2026-03-25T12:08:05.368Z</time></trkpt><trkpt lat="45.6868185" lon="9.4826378"><ele>265.83333333333337</ele><time>2026-03-25T12:08:07.367Z</time></trkpt><trkpt lat="45.6868897" lon="9.4825724"><ele>266.0</ele><time>2026-03-25T12:08:09.367Z</time></trkpt><trkpt lat="45.6869499" lon="9.4825146"><ele>266.2</ele><time>2026-03-25T12:08:12.367Z</time></trkpt><trkpt lat="45.6870124" lon="9.4824349"><ele>266.40000000000003</ele><time>2026-03-25T12:08:46.367Z</time></trkpt><trkpt lat="45.687107" lon="9.4823543"><ele>266.6</ele><time>2026-03-25T12:08:48.368Z</time></trkpt><trkpt lat="45.6872049" lon="9.482247"><ele>266.8</ele><time>2026-03-25T12:08:50.368Z</time></trkpt><trkpt lat="45.6872609" lon="9.482186"><ele>267.0</ele><time>2026-03-25T12:08:51.368Z</time></trkpt><trkpt lat="45.6873228" lon="9.4821235"><ele>267.0</ele><time>2026-03-25T12:08:52.367Z</time></trkpt><trkpt lat="45.6873881" lon="9.4820596"><ele>267.0</ele><time>2026-03-25T12:08:53.368Z</time></trkpt><trkpt lat="45.6874552" lon="9.4819877"><ele>267.0</ele><time>2026-03-25T12:08:54.368Z</time></trkpt><trkpt lat="45.6875286" lon="9.4819233"><ele>267.0</ele><time>2026-03-25T12:08:55.367Z</time></trkpt><trkpt lat="45.6875991" lon="9.4818477"><ele>267.0</ele><time>2026-03-25T12:08:56.368Z</time></trkpt><trkpt lat="45.6876727" lon="9.4817727"><ele>267.0</ele><time>2026-03-25T12:08:57.367Z</time></trkpt><trkpt lat="45.6877476" lon="9.4816925"><ele>267.0</ele><time>2026-03-25T12:08:58.368Z</time></trkpt><trkpt lat="45.6878171" lon="9.4816158"><ele>267.0</ele><time>2026-03-25T12:08:59.368Z</time></trkpt><trkpt lat="45.6878842" lon="9.4815295"><ele>267.0</ele><time>2026-03-25T12:09:00.368Z</time></trkpt><trkpt lat="45.6879657" lon="9.4814485"><ele>267.0</ele><time>2026-03-25T12:09:01.368Z</time></trkpt><trkpt lat="45.6880354" lon="9.4813603"><ele>267.0</ele><time>2026-03-25T12:09:02.368Z</time></trkpt><trkpt lat="45.6881092" lon="9.4812821"><ele>266.8</ele><time>2026-03-25T12:09:03.368Z</time></trkpt><trkpt lat="45.688185" lon="9.4811981"><ele>266.6</ele><time>2026-03-25T12:09:04.368Z</time></trkpt><trkpt lat="45.6882618" lon="9.4811226"><ele>266.40000000000003</ele><time>2026-03-25T12:09:05.368Z</time></trkpt><trkpt lat="45.6883341" lon="9.481044"><ele>266.2</ele><time>2026-03-25T12:09:06.367Z</time></trkpt><trkpt lat="45.6884071" lon="9.4809633"><ele>266.0</ele><time>2026-03-25T12:09:07.368Z</time></trkpt><trkpt lat="45.6884875" lon="9.4808866"><ele>266.0</ele><time>2026-03-25T12:09:08.367Z</time></trkpt><trkpt lat="45.6885647" lon="9.4808086"><ele>266.0</ele><time>2026-03-25T12:09:09.368Z</time></trkpt><trkpt lat="45.6886422" lon="9.4807283"><ele>266.0</ele><time>2026-03-25T12:09:10.368Z</time></trkpt><trkpt lat="45.6887171" lon="9.4806524"><ele>266.0</ele><time>2026-03-25T12:09:11.367Z</time></trkpt><trkpt lat="45.6887906" lon="9.480573"><ele>266.0</ele><time>2026-03-25T12:09:12.368Z</time></trkpt><trkpt lat="45.6888694" lon="9.4804981"><ele>266.6</ele><time>2026-03-25T12:09:13.368Z</time></trkpt><trkpt lat="45.6889429" lon="9.48042"><ele>267.20000000000005</ele><time>2026-03-25T12:09:14.367Z</time></trkpt><trkpt lat="45.6890195" lon="9.4803337"><ele>267.79999999999995</ele><time>2026-03-25T12:09:15.368Z</time></trkpt><trkpt lat="45.6890967" lon="9.4802552"><ele>268.4</ele><time>2026-03-25T12:09:16.368Z</time></trkpt><trkpt lat="45.6891723" lon="9.4801765"><ele>269.0</ele><time>2026-03-25T12:09:17.368Z</time></trkpt><trkpt lat="45.6892508" lon="9.4800949"><ele>269.0</ele><time>2026-03-25T12:09:18.368Z</time></trkpt><trkpt lat="45.6893265" lon="9.4800095"><ele>269.0</ele><time>2026-03-25T12:09:19.368Z</time></trkpt><trkpt lat="45.6894067" lon="9.4799343"><ele>269.0</ele><time>2026-03-25T12:09:20.368Z</time></trkpt><trkpt lat="45.6894832" lon="9.479857"><ele>269.0</ele><time>2026-03-25T12:09:21.367Z</time></trkpt><trkpt lat="45.6895608" lon="9.4797839"><ele>269.0</ele><time>2026-03-25T12:09:22.368Z</time></trkpt><trkpt lat="45.6896434" lon="9.4797038"><ele>269.4</ele><time>2026-03-25T12:09:23.367Z</time></trkpt><trkpt lat="45.6897237" lon="9.4796249"><ele>269.79999999999995</ele><time>2026-03-25T12:09:24.368Z</time></trkpt><trkpt lat="45.6898086" lon="9.4795409"><ele>270.20000000000005</ele><time>2026-03-25T12:09:25.367Z</time></trkpt><trkpt lat="45.6898898" lon="9.479454"><ele>270.6</ele><time>2026-03-25T12:09:26.367Z</time></trkpt><trkpt lat="45.689973" lon="9.4793677"><ele>271.0</ele><time>2026-03-25T12:09:27.368Z</time></trkpt><trkpt lat="45.6900567" lon="9.4792862"><ele>271.0</ele><time>2026-03-25T12:09:28.367Z</time></trkpt><trkpt lat="45.6901391" lon="9.4791992"><ele>271.0</ele><time>2026-03-25T12:09:29.367Z</time></trkpt><trkpt lat="45.6902211" lon="9.4791137"><ele>271.0</ele><time>2026-03-25T12:09:30.368Z</time></trkpt><trkpt lat="45.6903081" lon="9.4790267"><ele>271.0</ele><time>2026-03-25T12:09:31.368Z</time></trkpt><trkpt lat="45.6903915" lon="9.4789329"><ele>271.0</ele><time>2026-03-25T12:09:32.368Z</time></trkpt><trkpt lat="45.6904805" lon="9.4788442"><ele>271.40000000000003</ele><time>2026-03-25T12:09:33.368Z</time></trkpt><trkpt lat="45.6905656" lon="9.4787558"><ele>271.8</ele><time>2026-03-25T12:09:34.368Z</time></trkpt><trkpt lat="45.6906514" lon="9.4786688"><ele>272.20000000000005</ele><time>2026-03-25T12:09:35.368Z</time></trkpt><trkpt lat="45.6907388" lon="9.4785848"><ele>272.6</ele><time>2026-03-25T12:09:36.368Z</time></trkpt><trkpt lat="45.6908243" lon="9.4784944"><ele>273.0</ele><time>2026-03-25T12:09:37.368Z</time></trkpt><trkpt lat="45.6909064" lon="9.4784076"><ele>273.0</ele><time>2026-03-25T12:09:38.368Z</time></trkpt><trkpt lat="45.6909832" lon="9.4783267"><ele>273.0</ele><time>2026-03-25T12:09:39.368Z</time></trkpt><trkpt lat="45.6910562" lon="9.4782539"><ele>273.0</ele><time>2026-03-25T12:09:40.368Z</time></trkpt><trkpt lat="45.6911272" lon="9.4781918"><ele>273.0</ele><time>2026-03-25T12:09:41.367Z</time></trkpt><trkpt lat="45.6911894" lon="9.4781615"><ele>273.0</ele><time>2026-03-25T12:09:42.368Z</time></trkpt><trkpt lat="45.6912587" lon="9.4781391"><ele>273.0</ele><time>2026-03-25T12:09:45.368Z</time></trkpt><trkpt lat="45.6913267" lon="9.4781303"><ele>273.2857142857143</ele><time>2026-03-25T12:09:47.367Z</time></trkpt><trkpt lat="45.6914296" lon="9.478128"><ele>273.57142857142856</ele><time>2026-03-25T12:09:49.368Z</time></trkpt><trkpt lat="45.69149" lon="9.4780994"><ele>273.8571428571429</ele><time>2026-03-25T12:09:50.367Z</time></trkpt><trkpt lat="45.6915464" lon="9.4780587"><ele>274.1428571428571</ele><time>2026-03-25T12:09:51.368Z</time></trkpt><trkpt lat="45.691612" lon="9.4780229"><ele>274.42857142857144</ele><time>2026-03-25T12:09:52.367Z</time></trkpt><trkpt lat="45.6916819" lon="9.4780127"><ele>274.7142857142857</ele><time>2026-03-25T12:09:53.367Z</time></trkpt><trkpt lat="45.6917518" lon="9.4780164"><ele>275.0</ele><time>2026-03-25T12:09:54.368Z</time></trkpt><trkpt lat="45.6918238" lon="9.4780322"><ele>275.0</ele><time>2026-03-25T12:09:55.368Z</time></trkpt><trkpt lat="45.6918967" lon="9.4780808"><ele>275.0</ele><time>2026-03-25T12:09:56.368Z</time></trkpt><trkpt lat="45.6919696" lon="9.4781522"><ele>275.0</ele><time>2026-03-25T12:09:57.368Z</time></trkpt><trkpt lat="45.6920412" lon="9.4782204"><ele>275.0</ele><time>2026-03-25T12:09:58.367Z</time></trkpt><trkpt lat="45.6921072" lon="9.4782876"><ele>275.0</ele><time>2026-03-25T12:09:59.368Z</time></trkpt><trkpt lat="45.6921802" lon="9.4783587"><ele>275.0</ele><time>2026-03-25T12:10:00.368Z</time></trkpt><trkpt lat="45.692252" lon="9.4784339"><ele>274.8</ele><time>2026-03-25T12:10:01.368Z</time></trkpt><trkpt lat="45.6923235" lon="9.478505"><ele>274.6</ele><time>2026-03-25T12:10:02.368Z</time></trkpt><trkpt lat="45.6924021" lon="9.478582"><ele>274.4</ele><time>2026-03-25T12:10:03.367Z</time></trkpt><trkpt lat="45.6924872" lon="9.4786561"><ele>274.2</ele><time>2026-03-25T12:10:04.368Z</time></trkpt><trkpt lat="45.6925712" lon="9.4787352"><ele>274.0</ele><time>2026-03-25T12:10:05.368Z</time></trkpt><trkpt lat="45.6926503" lon="9.4788126"><ele>274.4</ele><time>2026-03-25T12:10:06.368Z</time></trkpt><trkpt lat="45.6927377" lon="9.4788892"><ele>274.79999999999995</ele><time>2026-03-25T12:10:07.368Z</time></trkpt><trkpt lat="45.6928178" lon="9.4789701"><ele>275.20000000000005</ele><time>2026-03-25T12:10:08.367Z</time></trkpt><trkpt lat="45.6929047" lon="9.4790499"><ele>275.6</ele><time>2026-03-25T12:10:09.368Z</time></trkpt><trkpt lat="45.6929928" lon="9.4791319"><ele>276.0</ele><time>2026-03-25T12:10:10.368Z</time></trkpt><trkpt lat="45.6930849" lon="9.4792158"><ele>276.0</ele><time>2026-03-25T12:10:11.368Z</time></trkpt><trkpt lat="45.6931739" lon="9.4793045"><ele>276.0</ele><time>2026-03-25T12:10:12.368Z</time></trkpt><trkpt lat="45.6932634" lon="9.4793962"><ele>276.0</ele><time>2026-03-25T12:10:13.368Z</time></trkpt><trkpt lat="45.6933529" lon="9.4794858"><ele>276.0</ele><time>2026-03-25T12:10:14.367Z</time></trkpt><trkpt lat="45.6934422" lon="9.4795702"><ele>276.0</ele><time>2026-03-25T12:10:15.368Z</time></trkpt><trkpt lat="45.6935294" lon="9.479663"><ele>276.2</ele><time>2026-03-25T12:10:16.367Z</time></trkpt><trkpt lat="45.6936147" lon="9.4797456"><ele>276.40000000000003</ele><time>2026-03-25T12:10:17.368Z</time></trkpt><trkpt lat="45.6936992" lon="9.4798294"><ele>276.6</ele><time>2026-03-25T12:10:18.368Z</time></trkpt><trkpt lat="45.6937806" lon="9.4799089"><ele>276.8</ele><time>2026-03-25T12:10:19.368Z</time></trkpt><trkpt lat="45.6938574" lon="9.4799909"><ele>277.0</ele><time>2026-03-25T12:10:20.368Z</time></trkpt><trkpt lat="45.6939253" lon="9.4800833"><ele>277.0</ele><time>2026-03-25T12:10:21.367Z</time></trkpt><trkpt lat="45.6939941" lon="9.4801829"><ele>277.0</ele><time>2026-03-25T12:10:22.368Z</time></trkpt><trkpt lat="45.6940266" lon="9.480289"><ele>277.0</ele><time>2026-03-25T12:10:23.367Z</time></trkpt><trkpt lat="45.6940553" lon="9.4804016"><ele>277.0</ele><time>2026-03-25T12:10:24.368Z</time></trkpt><trkpt lat="45.6940721" lon="9.4805217"><ele>277.0</ele><time>2026-03-25T12:10:25.367Z</time></trkpt><trkpt lat="45.6941008" lon="9.4806492"><ele>277.0</ele><time>2026-03-25T12:10:26.367Z</time></trkpt><trkpt lat="45.6941413" lon="9.4807768"><ele>277.0</ele><time>2026-03-25T12:10:27.368Z</time></trkpt><trkpt lat="45.6941782" lon="9.4808943"><ele>277.0</ele><time>2026-03-25T12:10:28.368Z</time></trkpt><trkpt lat="45.6942279" lon="9.4810043"><ele>277.0</ele><time>2026-03-25T12:10:29.368Z</time></trkpt><trkpt lat="45.6942883" lon="9.4810991"><ele>277.0</ele><time>2026-03-25T12:10:30.368Z</time></trkpt><trkpt lat="45.6943635" lon="9.4811709"><ele>277.0</ele><time>2026-03-25T12:10:31.367Z</time></trkpt><trkpt lat="45.6944409" lon="9.4812082"><ele>277.0</ele><time>2026-03-25T12:10:32.368Z</time></trkpt><trkpt lat="45.6945205" lon="9.4812107"><ele>277.2857142857143</ele><time>2026-03-25T12:10:33.368Z</time></trkpt><trkpt lat="45.6945958" lon="9.48119"><ele>277.57142857142856</ele><time>2026-03-25T12:10:34.368Z</time></trkpt><trkpt lat="45.6946539" lon="9.4811449"><ele>277.85714285714283</ele><time>2026-03-25T12:10:35.367Z</time></trkpt><trkpt lat="45.6947032" lon="9.4810828"><ele>278.1428571428571</ele><time>2026-03-25T12:10:36.368Z</time></trkpt><trkpt lat="45.6947477" lon="9.4810006"><ele>278.42857142857144</ele><time>2026-03-25T12:10:37.367Z</time></trkpt><trkpt lat="45.6947734" lon="9.4808989"><ele>278.71428571428567</ele><time>2026-03-25T12:10:38.368Z</time></trkpt><trkpt lat="45.6947884" lon="9.4807906"><ele>279.0</ele><time>2026-03-25T12:10:39.367Z</time></trkpt><trkpt lat="45.6947828" lon="9.4806728"><ele>279.0</ele><time>2026-03-25T12:10:40.368Z</time></trkpt><trkpt lat="45.6947775" lon="9.4805609"><ele>279.0</ele><time>2026-03-25T12:10:41.368Z</time></trkpt><trkpt lat="45.6947681" lon="9.480435"><ele>279.0</ele><time>2026-03-25T12:10:42.368Z</time></trkpt><trkpt lat="45.6947656" lon="9.4803145"><ele>279.0</ele><time>2026-03-25T12:10:43.368Z</time></trkpt><trkpt lat="45.6947692" lon="9.4801912"><ele>279.0</ele><time>2026-03-25T12:10:44.368Z</time></trkpt><trkpt lat="45.6947783" lon="9.4800674"><ele>279.0</ele><time>2026-03-25T12:10:45.368Z</time></trkpt><trkpt lat="45.6947985" lon="9.479949"><ele>279.0</ele><time>2026-03-25T12:10:46.367Z</time></trkpt><trkpt lat="45.6948148" lon="9.4798214"><ele>279.0</ele><time>2026-03-25T12:10:47.368Z</time></trkpt><trkpt lat="45.6948359" lon="9.4796997"><ele>279.0</ele><time>2026-03-25T12:10:48.368Z</time></trkpt><trkpt lat="45.694856" lon="9.4795732"><ele>279.0</ele><time>2026-03-25T12:10:49.367Z</time></trkpt><trkpt lat="45.6948695" lon="9.4794413"><ele>279.0</ele><time>2026-03-25T12:10:50.368Z</time></trkpt><trkpt lat="45.6948902" lon="9.4793081"><ele>279.0</ele><time>2026-03-25T12:10:51.368Z</time></trkpt><trkpt lat="45.6949076" lon="9.4791721"><ele>279.0</ele><time>2026-03-25T12:10:52.367Z</time></trkpt><trkpt lat="45.6949238" lon="9.4790352"><ele>279.0</ele><time>2026-03-25T12:10:53.368Z</time></trkpt><trkpt lat="45.6949434" lon="9.4788996"><ele>279.0</ele><time>2026-03-25T12:10:54.368Z</time></trkpt><trkpt lat="45.6949647" lon="9.4787685"><ele>279.0</ele><time>2026-03-25T12:10:55.367Z</time></trkpt><trkpt lat="45.6949867" lon="9.4786356"><ele>279.8</ele><time>2026-03-25T12:10:56.368Z</time></trkpt><trkpt lat="45.6950013" lon="9.4785007"><ele>280.59999999999997</ele><time>2026-03-25T12:10:57.367Z</time></trkpt><trkpt lat="45.6950177" lon="9.4783609"><ele>281.4</ele><time>2026-03-25T12:10:58.368Z</time></trkpt><trkpt lat="45.6950354" lon="9.4782267"><ele>282.2</ele><time>2026-03-25T12:10:59.367Z</time></trkpt><trkpt lat="45.6950562" lon="9.4780927"><ele>283.0</ele><time>2026-03-25T12:11:00.368Z</time></trkpt><trkpt lat="45.6950809" lon="9.4779586"><ele>283.2</ele><time>2026-03-25T12:11:01.368Z</time></trkpt><trkpt lat="45.6951098" lon="9.4778242"><ele>283.4</ele><time>2026-03-25T12:11:02.367Z</time></trkpt><trkpt lat="45.6951455" lon="9.4776921"><ele>283.59999999999997</ele><time>2026-03-25T12:11:03.368Z</time></trkpt><trkpt lat="45.6951905" lon="9.4775632"><ele>283.8</ele><time>2026-03-25T12:11:04.368Z</time></trkpt><trkpt lat="45.6952408" lon="9.4774437"><ele>284.0</ele><time>2026-03-25T12:11:05.367Z</time></trkpt><trkpt lat="45.6952987" lon="9.4773344"><ele>284.2</ele><time>2026-03-25T12:11:06.368Z</time></trkpt><trkpt lat="45.6953616" lon="9.47723"><ele>284.4</ele><time>2026-03-25T12:11:07.368Z</time></trkpt><trkpt lat="45.6954348" lon="9.4771349"><ele>284.6</ele><time>2026-03-25T12:11:08.368Z</time></trkpt><trkpt lat="45.6955131" lon="9.4770506"><ele>284.8</ele><time>2026-03-25T12:11:09.368Z</time></trkpt><trkpt lat="45.6955996" lon="9.4769767"><ele>285.0</ele><time>2026-03-25T12:11:10.368Z</time></trkpt><trkpt lat="45.695689" lon="9.4769105"><ele>286.0</ele><time>2026-03-25T12:11:11.368Z</time></trkpt><trkpt lat="45.6957778" lon="9.4768538"><ele>287.0</ele><time>2026-03-25T12:11:12.368Z</time></trkpt><trkpt lat="45.6958679" lon="9.4768097"><ele>288.0</ele><time>2026-03-25T12:11:13.367Z</time></trkpt><trkpt lat="45.6959606" lon="9.4767761"><ele>289.0</ele><time>2026-03-25T12:11:14.367Z</time></trkpt><trkpt lat="45.6960546" lon="9.4767555"><ele>290.0</ele><time>2026-03-25T12:11:15.368Z</time></trkpt><trkpt lat="45.6961508" lon="9.4767397"><ele>290.8</ele><time>2026-03-25T12:11:16.368Z</time></trkpt><trkpt lat="45.6962482" lon="9.4767343"><ele>291.6</ele><time>2026-03-25T12:11:17.368Z</time></trkpt><trkpt lat="45.6963416" lon="9.4767393"><ele>292.4</ele><time>2026-03-25T12:11:18.367Z</time></trkpt><trkpt lat="45.6964377" lon="9.476747"><ele>293.2</ele><time>2026-03-25T12:11:19.367Z</time></trkpt><trkpt lat="45.6965332" lon="9.4767632"><ele>294.0</ele><time>2026-03-25T12:11:20.367Z</time></trkpt><trkpt lat="45.696632" lon="9.4767837"><ele>294.0</ele><time>2026-03-25T12:11:21.368Z</time></trkpt><trkpt lat="45.6967313" lon="9.4767994"><ele>294.0</ele><time>2026-03-25T12:11:22.368Z</time></trkpt><trkpt lat="45.6968272" lon="9.4768125"><ele>294.0</ele><time>2026-03-25T12:11:23.368Z</time></trkpt><trkpt lat="45.6969219" lon="9.4768262"><ele>294.0</ele><time>2026-03-25T12:11:24.367Z</time></trkpt><trkpt lat="45.6970181" lon="9.4768425"><ele>294.0</ele><time>2026-03-25T12:11:25.368Z</time></trkpt><trkpt lat="45.6971148" lon="9.4768503"><ele>294.8</ele><time>2026-03-25T12:11:26.368Z</time></trkpt><trkpt lat="45.6972091" lon="9.4768617"><ele>295.59999999999997</ele><time>2026-03-25T12:11:27.368Z</time></trkpt><trkpt lat="45.6973072" lon="9.4768777"><ele>296.4</ele><time>2026-03-25T12:11:28.367Z</time></trkpt><trkpt lat="45.6974071" lon="9.4768958"><ele>297.2</ele><time>2026-03-25T12:11:29.368Z</time></trkpt><trkpt lat="45.697504" lon="9.4769064"><ele>298.0</ele><time>2026-03-25T12:11:30.368Z</time></trkpt><trkpt lat="45.6976001" lon="9.4769213"><ele>298.0</ele><time>2026-03-25T12:11:31.368Z</time></trkpt><trkpt lat="45.6976971" lon="9.476933"><ele>298.0</ele><time>2026-03-25T12:11:32.368Z</time></trkpt><trkpt lat="45.6977958" lon="9.4769435"><ele>298.0</ele><time>2026-03-25T12:11:33.368Z</time></trkpt><trkpt lat="45.6978996" lon="9.4769578"><ele>298.0</ele><time>2026-03-25T12:11:34.368Z</time></trkpt><trkpt lat="45.6980012" lon="9.4769714"><ele>298.0</ele><time>2026-03-25T12:11:35.368Z</time></trkpt><trkpt lat="45.6981019" lon="9.4769853"><ele>298.4</ele><time>2026-03-25T12:11:36.367Z</time></trkpt><trkpt lat="45.6982008" lon="9.476989"><ele>298.8</ele><time>2026-03-25T12:11:37.367Z</time></trkpt><trkpt lat="45.6983007" lon="9.4769841"><ele>299.2</ele><time>2026-03-25T12:11:38.368Z</time></trkpt><trkpt lat="45.6984022" lon="9.4769721"><ele>299.6</ele><time>2026-03-25T12:11:39.368Z</time></trkpt><trkpt lat="45.6985052" lon="9.476957"><ele>300.0</ele><time>2026-03-25T12:11:40.368Z</time></trkpt><trkpt lat="45.6986133" lon="9.4769395"><ele>300.0</ele><time>2026-03-25T12:11:41.368Z</time></trkpt><trkpt lat="45.6987207" lon="9.4769117"><ele>300.0</ele><time>2026-03-25T12:11:42.368Z</time></trkpt><trkpt lat="45.6988273" lon="9.4768814"><ele>300.0</ele><time>2026-03-25T12:11:43.367Z</time></trkpt><trkpt lat="45.6989286" lon="9.4768443"><ele>300.0</ele><time>2026-03-25T12:11:44.368Z</time></trkpt><trkpt lat="45.6990333" lon="9.4768"><ele>300.0</ele><time>2026-03-25T12:11:45.368Z</time></trkpt><trkpt lat="45.6991282" lon="9.4767497"><ele>300.0</ele><time>2026-03-25T12:11:46.367Z</time></trkpt><trkpt lat="45.6992324" lon="9.4766941"><ele>300.0</ele><time>2026-03-25T12:11:47.368Z</time></trkpt><trkpt lat="45.6993322" lon="9.4766347"><ele>300.0</ele><time>2026-03-25T12:11:48.368Z</time></trkpt><trkpt lat="45.6994309" lon="9.4765686"><ele>300.0</ele><time>2026-03-25T12:11:49.368Z</time></trkpt><trkpt lat="45.6995286" lon="9.476501"><ele>300.0</ele><time>2026-03-25T12:11:50.368Z</time></trkpt><trkpt lat="45.6996273" lon="9.4764282"><ele>300.6</ele><time>2026-03-25T12:11:51.367Z</time></trkpt><trkpt lat="45.6997219" lon="9.4763492"><ele>301.2</ele><time>2026-03-25T12:11:52.368Z</time></trkpt><trkpt lat="45.6998124" lon="9.4762764"><ele>301.8</ele><time>2026-03-25T12:11:53.367Z</time></trkpt><trkpt lat="45.6999014" lon="9.4761938"><ele>302.4</ele><time>2026-03-25T12:11:54.368Z</time></trkpt><trkpt lat="45.6999898" lon="9.4761092"><ele>303.0</ele><time>2026-03-25T12:11:55.368Z</time></trkpt><trkpt lat="45.7000854" lon="9.476028"><ele>303.0</ele><time>2026-03-25T12:11:56.368Z</time></trkpt><trkpt lat="45.7001761" lon="9.4759478"><ele>303.0</ele><time>2026-03-25T12:11:57.367Z</time></trkpt><trkpt lat="45.7002655" lon="9.4758672"><ele>303.0</ele><time>2026-03-25T12:11:58.368Z</time></trkpt><trkpt lat="45.7003601" lon="9.4757805"><ele>303.0</ele><time>2026-03-25T12:11:59.367Z</time></trkpt><trkpt lat="45.7004541" lon="9.4756937"><ele>303.0</ele><time>2026-03-25T12:12:00.368Z</time></trkpt><trkpt lat="45.7005496" lon="9.4756072"><ele>302.4</ele><time>2026-03-25T12:12:01.368Z</time></trkpt><trkpt lat="45.7006464" lon="9.4755178"><ele>301.8</ele><time>2026-03-25T12:12:02.368Z</time></trkpt><trkpt lat="45.7007364" lon="9.4754226"><ele>301.2</ele><time>2026-03-25T12:12:03.368Z</time></trkpt><trkpt lat="45.7008203" lon="9.4753207"><ele>300.6</ele><time>2026-03-25T12:12:04.368Z</time></trkpt><trkpt lat="45.7009055" lon="9.4752178"><ele>300.0</ele><time>2026-03-25T12:12:05.368Z</time></trkpt><trkpt lat="45.7009866" lon="9.4751061"><ele>300.5</ele><time>2026-03-25T12:12:06.368Z</time></trkpt><trkpt lat="45.7010685" lon="9.4749939"><ele>301.0</ele><time>2026-03-25T12:12:07.368Z</time></trkpt><trkpt lat="45.7011399" lon="9.4748714"><ele>301.5</ele><time>2026-03-25T12:12:08.368Z</time></trkpt><trkpt lat="45.7012104" lon="9.4747411"><ele>302.0</ele><time>2026-03-25T12:12:09.368Z</time></trkpt><trkpt lat="45.701284" lon="9.4746107"><ele>303.0</ele><time>2026-03-25T12:12:10.368Z</time></trkpt><trkpt lat="45.7013583" lon="9.4744748"><ele>304.0</ele><time>2026-03-25T12:12:11.367Z</time></trkpt><trkpt lat="45.7014298" lon="9.4743382"><ele>305.0</ele><time>2026-03-25T12:12:12.368Z</time></trkpt><trkpt lat="45.7015018" lon="9.474202"><ele>306.0</ele><time>2026-03-25T12:12:13.368Z</time></trkpt><trkpt lat="45.7015757" lon="9.4740608"><ele>306.0</ele><time>2026-03-25T12:12:14.368Z</time></trkpt><trkpt lat="45.7016553" lon="9.473919"><ele>306.0</ele><time>2026-03-25T12:12:15.368Z</time></trkpt><trkpt lat="45.7017333" lon="9.4737777"><ele>306.0</ele><time>2026-03-25T12:12:16.368Z</time></trkpt><trkpt lat="45.7018121" lon="9.4736392"><ele>306.0</ele><time>2026-03-25T12:12:17.367Z</time></trkpt><trkpt lat="45.7018878" lon="9.4734992"><ele>307.0</ele><time>2026-03-25T12:12:18.368Z</time></trkpt><trkpt lat="45.7019613" lon="9.4733591"><ele>308.0</ele><time>2026-03-25T12:12:19.368Z</time></trkpt><trkpt lat="45.7020351" lon="9.4732184"><ele>309.0</ele><time>2026-03-25T12:12:20.368Z</time></trkpt><trkpt lat="45.7026917" lon="9.4719076"><ele>314.0</ele><time>2026-03-25T12:12:31.381Z</time></trkpt><trkpt lat="45.7018751" lon="9.4733625"><ele>252.0</ele><time>2026-03-25T12:12:37.03Z</time></trkpt><trkpt lat="45.7077623" lon="9.4637253"><ele>232.0</ele><time>2026-03-25T12:13:06.189Z</time></trkpt><trkpt lat="45.7109597" lon="9.4587359"><ele>255.0</ele><time>2026-03-25T12:13:27.756Z</time></trkpt><trkpt lat="45.7077269" lon="9.4636912"><ele>254.25</ele><time>2026-03-25T12:13:33.368Z</time></trkpt><trkpt lat="45.7077967" lon="9.463576"><ele>253.5</ele><time>2026-03-25T12:13:34.368Z</time></trkpt><trkpt lat="45.7078814" lon="9.4634523"><ele>252.75</ele><time>2026-03-25T12:13:35.367Z</time></trkpt><trkpt lat="45.7079694" lon="9.4633266"><ele>252.0</ele><time>2026-03-25T12:13:36.368Z</time></trkpt><trkpt lat="45.7080617" lon="9.4631985"><ele>252.0</ele><time>2026-03-25T12:13:37.368Z</time></trkpt><trkpt lat="45.70815" lon="9.463067"><ele>252.0</ele><time>2026-03-25T12:13:38.367Z</time></trkpt><trkpt lat="45.7082395" lon="9.4629409"><ele>252.0</ele><time>2026-03-25T12:13:39.367Z</time></trkpt><trkpt lat="45.7083306" lon="9.4628107"><ele>252.0</ele><time>2026-03-25T12:13:40.368Z</time></trkpt><trkpt lat="45.7084161" lon="9.4626766"><ele>252.0</ele><time>2026-03-25T12:13:41.368Z</time></trkpt><trkpt lat="45.7085045" lon="9.4625465"><ele>252.0</ele><time>2026-03-25T12:13:42.368Z</time></trkpt><trkpt lat="45.7085943" lon="9.462415"><ele>252.0</ele><time>2026-03-25T12:13:43.368Z</time></trkpt><trkpt lat="45.7086841" lon="9.4622821"><ele>252.0</ele><time>2026-03-25T12:13:44.368Z</time></trkpt><trkpt lat="45.7087757" lon="9.46215"><ele>249.75</ele><time>2026-03-25T12:13:45.368Z</time></trkpt><trkpt lat="45.7088634" lon="9.4620164"><ele>247.5</ele><time>2026-03-25T12:13:46.368Z</time></trkpt><trkpt lat="45.7089547" lon="9.4618833"><ele>245.25</ele><time>2026-03-25T12:13:47.368Z</time></trkpt><trkpt lat="45.709046" lon="9.461748"><ele>243.0</ele><time>2026-03-25T12:13:48.368Z</time></trkpt><trkpt lat="45.7091368" lon="9.4616133"><ele>243.0</ele><time>2026-03-25T12:13:49.368Z</time></trkpt><trkpt lat="45.7092289" lon="9.4614787"><ele>243.0</ele><time>2026-03-25T12:13:50.368Z</time></trkpt><trkpt lat="45.7093206" lon="9.4613439"><ele>243.0</ele><time>2026-03-25T12:13:51.368Z</time></trkpt><trkpt lat="45.7094104" lon="9.461212"><ele>243.0</ele><time>2026-03-25T12:13:52.367Z</time></trkpt><trkpt lat="45.7094992" lon="9.461083"><ele>242.0</ele><time>2026-03-25T12:13:53.368Z</time></trkpt><trkpt lat="45.7095892" lon="9.4609569"><ele>241.0</ele><time>2026-03-25T12:13:54.368Z</time></trkpt><trkpt lat="45.7096743" lon="9.4608279"><ele>240.0</ele><time>2026-03-25T12:13:55.368Z</time></trkpt><trkpt lat="45.7097581" lon="9.4606981"><ele>239.0</ele><time>2026-03-25T12:13:56.368Z</time></trkpt><trkpt lat="45.7098422" lon="9.4605697"><ele>237.5</ele><time>2026-03-25T12:13:57.368Z</time></trkpt><trkpt lat="45.7099286" lon="9.4604446"><ele>236.0</ele><time>2026-03-25T12:13:58.368Z</time></trkpt><trkpt lat="45.7100154" lon="9.4603244"><ele>234.5</ele><time>2026-03-25T12:13:59.368Z</time></trkpt><trkpt lat="45.7101007" lon="9.4602051"><ele>233.0</ele><time>2026-03-25T12:14:00.368Z</time></trkpt><trkpt lat="45.7101873" lon="9.4600902"><ele>233.75</ele><time>2026-03-25T12:14:01.368Z</time></trkpt><trkpt lat="45.7102728" lon="9.4599766"><ele>234.5</ele><time>2026-03-25T12:14:02.368Z</time></trkpt><trkpt lat="45.7103598" lon="9.4598676"><ele>235.25</ele><time>2026-03-25T12:14:03.368Z</time></trkpt><trkpt lat="45.7104485" lon="9.4597644"><ele>236.0</ele><time>2026-03-25T12:14:04.368Z</time></trkpt><trkpt lat="45.7105397" lon="9.4596627"><ele>235.25</ele><time>2026-03-25T12:14:05.367Z</time></trkpt><trkpt lat="45.7106284" lon="9.4595634"><ele>234.5</ele><time>2026-03-25T12:14:06.367Z</time></trkpt><trkpt lat="45.7107179" lon="9.4594687"><ele>233.75</ele><time>2026-03-25T12:14:07.368Z</time></trkpt><trkpt lat="45.7108121" lon="9.4593785"><ele>233.0</ele><time>2026-03-25T12:14:08.368Z</time></trkpt><trkpt lat="45.7109063" lon="9.4592898"><ele>233.0</ele><time>2026-03-25T12:14:09.368Z</time></trkpt><trkpt lat="45.7110018" lon="9.459205"><ele>233.0</ele><time>2026-03-25T12:14:10.368Z</time></trkpt><trkpt lat="45.7110978" lon="9.4591224"><ele>233.0</ele><time>2026-03-25T12:14:11.368Z</time></trkpt><trkpt lat="45.711194" lon="9.4590401"><ele>233.0</ele><time>2026-03-25T12:14:12.368Z</time></trkpt><trkpt lat="45.7112896" lon="9.4589596"><ele>233.0</ele><time>2026-03-25T12:14:13.367Z</time></trkpt><trkpt lat="45.711386" lon="9.4588817"><ele>233.2</ele><time>2026-03-25T12:14:14.368Z</time></trkpt><trkpt lat="45.7114826" lon="9.4588022"><ele>233.4</ele><time>2026-03-25T12:14:15.368Z</time></trkpt><trkpt lat="45.7115771" lon="9.4587214"><ele>233.59999999999997</ele><time>2026-03-25T12:14:16.367Z</time></trkpt><trkpt lat="45.7116719" lon="9.4586428"><ele>233.79999999999998</ele><time>2026-03-25T12:14:17.368Z</time></trkpt><trkpt lat="45.7117678" lon="9.4585645"><ele>234.0</ele><time>2026-03-25T12:14:18.368Z</time></trkpt><trkpt lat="45.7118616" lon="9.4584855"><ele>234.0</ele><time>2026-03-25T12:14:19.368Z</time></trkpt><trkpt lat="45.7119554" lon="9.4584063"><ele>233.99999999999997</ele><time>2026-03-25T12:14:20.368Z</time></trkpt><trkpt lat="45.7120488" lon="9.4583304"><ele>233.99999999999997</ele><time>2026-03-25T12:14:21.368Z</time></trkpt><trkpt lat="45.7121438" lon="9.4582547"><ele>234.0</ele><time>2026-03-25T12:14:22.368Z</time></trkpt><trkpt lat="45.7122394" lon="9.4581752"><ele>234.0</ele><time>2026-03-25T12:14:23.368Z</time></trkpt><trkpt lat="45.7123271" lon="9.4580984"><ele>234.0</ele><time>2026-03-25T12:14:24.367Z</time></trkpt><trkpt lat="45.7124143" lon="9.4580259"><ele>233.99999999999997</ele><time>2026-03-25T12:14:25.368Z</time></trkpt><trkpt lat="45.7124975" lon="9.4579581"><ele>233.99999999999997</ele><time>2026-03-25T12:14:26.367Z</time></trkpt><trkpt lat="45.712584" lon="9.4578993"><ele>234.0</ele><time>2026-03-25T12:14:27.368Z</time></trkpt><trkpt lat="45.7126802" lon="9.4578624"><ele>234.0</ele><time>2026-03-25T12:14:28.368Z</time></trkpt><trkpt lat="45.7127754" lon="9.4578484"><ele>233.39999999999998</ele><time>2026-03-25T12:14:29.367Z</time></trkpt><trkpt lat="45.7128696" lon="9.4578413"><ele>232.79999999999998</ele><time>2026-03-25T12:14:30.368Z</time></trkpt><trkpt lat="45.7129576" lon="9.4578212"><ele>232.20000000000002</ele><time>2026-03-25T12:14:31.367Z</time></trkpt><trkpt lat="45.7130494" lon="9.4577718"><ele>231.60000000000002</ele><time>2026-03-25T12:14:32.367Z</time></trkpt><trkpt lat="45.7131234" lon="9.4577047"><ele>231.0</ele><time>2026-03-25T12:14:33.368Z</time></trkpt><trkpt lat="45.7131733" lon="9.4575892"><ele>231.0</ele><time>2026-03-25T12:14:34.368Z</time></trkpt><trkpt lat="45.7132151" lon="9.4574783"><ele>231.00000000000003</ele><time>2026-03-25T12:14:35.367Z</time></trkpt><trkpt lat="45.7132404" lon="9.4573531"><ele>231.00000000000003</ele><time>2026-03-25T12:14:36.368Z</time></trkpt><trkpt lat="45.7132712" lon="9.4572291"><ele>231.0</ele><time>2026-03-25T12:14:37.368Z</time></trkpt><trkpt lat="45.7133229" lon="9.4571105"><ele>231.0</ele><time>2026-03-25T12:14:38.367Z</time></trkpt><trkpt lat="45.7133904" lon="9.4570103"><ele>231.0</ele><time>2026-03-25T12:14:39.368Z</time></trkpt><trkpt lat="45.7134671" lon="9.4569202"><ele>231.00000000000003</ele><time>2026-03-25T12:14:40.367Z</time></trkpt><trkpt lat="45.713554" lon="9.4568389"><ele>231.00000000000003</ele><time>2026-03-25T12:14:41.368Z</time></trkpt><trkpt lat="45.7136415" lon="9.4567687"><ele>231.0</ele><time>2026-03-25T12:14:42.368Z</time></trkpt><trkpt lat="45.7137319" lon="9.4567019"><ele>231.0</ele><time>2026-03-25T12:14:43.368Z</time></trkpt><trkpt lat="45.7138266" lon="9.4566474"><ele>231.0</ele><time>2026-03-25T12:14:44.368Z</time></trkpt><trkpt lat="45.7139238" lon="9.4566028"><ele>231.00000000000003</ele><time>2026-03-25T12:14:45.368Z</time></trkpt><trkpt lat="45.7140254" lon="9.4565709"><ele>231.00000000000003</ele><time>2026-03-25T12:14:46.368Z</time></trkpt><trkpt lat="45.7141253" lon="9.4565373"><ele>231.0</ele><time>2026-03-25T12:14:47.367Z</time></trkpt><trkpt lat="45.7142257" lon="9.456522"><ele>231.0</ele><time>2026-03-25T12:14:48.368Z</time></trkpt><trkpt lat="45.7143245" lon="9.4565196"><ele>231.0</ele><time>2026-03-25T12:14:49.367Z</time></trkpt><trkpt lat="45.714422" lon="9.4565149"><ele>231.00000000000003</ele><time>2026-03-25T12:14:50.367Z</time></trkpt><trkpt lat="45.7145269" lon="9.4565096"><ele>231.00000000000003</ele><time>2026-03-25T12:14:51.368Z</time></trkpt><trkpt lat="45.7146313" lon="9.4565032"><ele>231.0</ele><time>2026-03-25T12:14:52.368Z</time></trkpt><trkpt lat="45.7147352" lon="9.4565033"><ele>231.0</ele><time>2026-03-25T12:14:53.367Z</time></trkpt><trkpt lat="45.7148398" lon="9.4564988"><ele>231.0</ele><time>2026-03-25T12:14:54.368Z</time></trkpt><trkpt lat="45.7149407" lon="9.4564962"><ele>231.00000000000003</ele><time>2026-03-25T12:14:55.368Z</time></trkpt><trkpt lat="45.71504" lon="9.4564914"><ele>231.00000000000003</ele><time>2026-03-25T12:14:56.368Z</time></trkpt><trkpt lat="45.7151442" lon="9.4564976"><ele>231.0</ele><time>2026-03-25T12:14:57.368Z</time></trkpt><trkpt lat="45.715256" lon="9.456498"><ele>231.0</ele><time>2026-03-25T12:14:58.367Z</time></trkpt><trkpt lat="45.7153591" lon="9.456497"><ele>231.4</ele><time>2026-03-25T12:14:59.368Z</time></trkpt><trkpt lat="45.7154596" lon="9.4564919"><ele>231.8</ele><time>2026-03-25T12:15:00.367Z</time></trkpt><trkpt lat="45.7155661" lon="9.4564855"><ele>232.20000000000002</ele><time>2026-03-25T12:15:01.367Z</time></trkpt><trkpt lat="45.7156796" lon="9.4564833"><ele>232.60000000000002</ele><time>2026-03-25T12:15:02.368Z</time></trkpt><trkpt lat="45.7157814" lon="9.4564826"><ele>233.0</ele><time>2026-03-25T12:15:03.368Z</time></trkpt><trkpt lat="45.7158848" lon="9.456472"><ele>233.0</ele><time>2026-03-25T12:15:04.368Z</time></trkpt><trkpt lat="45.7159887" lon="9.4564639"><ele>233.0</ele><time>2026-03-25T12:15:05.368Z</time></trkpt><trkpt lat="45.7160971" lon="9.4564708"><ele>233.0</ele><time>2026-03-25T12:15:06.368Z</time></trkpt><trkpt lat="45.7161999" lon="9.4564668"><ele>233.0</ele><time>2026-03-25T12:15:07.368Z</time></trkpt><trkpt lat="45.7163058" lon="9.4564673"><ele>233.0</ele><time>2026-03-25T12:15:08.368Z</time></trkpt><trkpt lat="45.716412" lon="9.4564629"><ele>233.2</ele><time>2026-03-25T12:15:09.368Z</time></trkpt><trkpt lat="45.7165189" lon="9.4564543"><ele>233.4</ele><time>2026-03-25T12:15:10.367Z</time></trkpt><trkpt lat="45.7166214" lon="9.4564513"><ele>233.59999999999997</ele><time>2026-03-25T12:15:11.368Z</time></trkpt><trkpt lat="45.7167274" lon="9.456448"><ele>233.79999999999998</ele><time>2026-03-25T12:15:12.368Z</time></trkpt><trkpt lat="45.7168294" lon="9.456438"><ele>234.0</ele><time>2026-03-25T12:15:13.368Z</time></trkpt><trkpt lat="45.7169322" lon="9.4564295"><ele>234.0</ele><time>2026-03-25T12:15:14.368Z</time></trkpt><trkpt lat="45.7170349" lon="9.4564218"><ele>233.99999999999997</ele><time>2026-03-25T12:15:15.368Z</time></trkpt><trkpt lat="45.7171368" lon="9.4564169"><ele>233.99999999999997</ele><time>2026-03-25T12:15:16.368Z</time></trkpt><trkpt lat="45.7172392" lon="9.4564058"><ele>234.0</ele><time>2026-03-25T12:15:17.367Z</time></trkpt><trkpt lat="45.717344" lon="9.4564061"><ele>234.0</ele><time>2026-03-25T12:15:18.367Z</time></trkpt><trkpt lat="45.7174456" lon="9.4564045"><ele>234.0</ele><time>2026-03-25T12:15:19.368Z</time></trkpt><trkpt lat="45.7175471" lon="9.4563991"><ele>233.99999999999997</ele><time>2026-03-25T12:15:20.368Z</time></trkpt><trkpt lat="45.7176512" lon="9.4563954"><ele>233.99999999999997</ele><time>2026-03-25T12:15:21.367Z</time></trkpt><trkpt lat="45.7177538" lon="9.4563919"><ele>234.0</ele><time>2026-03-25T12:15:22.368Z</time></trkpt><trkpt lat="45.7178564" lon="9.4563866"><ele>234.0</ele><time>2026-03-25T12:15:23.368Z</time></trkpt><trkpt lat="45.7179622" lon="9.4563794"><ele>233.79999999999998</ele><time>2026-03-25T12:15:24.368Z</time></trkpt><trkpt lat="45.7180646" lon="9.4563722"><ele>233.59999999999997</ele><time>2026-03-25T12:15:25.368Z</time></trkpt><trkpt lat="45.7181682" lon="9.4563685"><ele>233.4</ele><time>2026-03-25T12:15:26.368Z</time></trkpt><trkpt lat="45.7182744" lon="9.4563658"><ele>233.2</ele><time>2026-03-25T12:15:27.367Z</time></trkpt><trkpt lat="45.7183788" lon="9.4563632"><ele>233.0</ele><time>2026-03-25T12:15:28.368Z</time></trkpt><trkpt lat="45.7184799" lon="9.4563625"><ele>233.60000000000002</ele><time>2026-03-25T12:15:29.367Z</time></trkpt><trkpt lat="45.7185789" lon="9.4563541"><ele>234.20000000000002</ele><time>2026-03-25T12:15:30.368Z</time></trkpt><trkpt lat="45.7186757" lon="9.4563418"><ele>234.8</ele><time>2026-03-25T12:15:31.367Z</time></trkpt><trkpt lat="45.7187844" lon="9.4563432"><ele>235.4</ele><time>2026-03-25T12:15:32.368Z</time></trkpt><trkpt lat="45.7188858" lon="9.4563446"><ele>236.0</ele><time>2026-03-25T12:15:33.368Z</time></trkpt><trkpt lat="45.7189858" lon="9.4563468"><ele>236.0</ele><time>2026-03-25T12:15:34.368Z</time></trkpt><trkpt lat="45.7190872" lon="9.4563443"><ele>236.00000000000003</ele><time>2026-03-25T12:15:35.367Z</time></trkpt><trkpt lat="45.7191868" lon="9.4563346"><ele>236.00000000000003</ele><time>2026-03-25T12:15:36.367Z</time></trkpt><trkpt lat="45.7192887" lon="9.45633"><ele>236.0</ele><time>2026-03-25T12:15:37.368Z</time></trkpt><trkpt lat="45.7193887" lon="9.4563188"><ele>236.0</ele><time>2026-03-25T12:15:38.368Z</time></trkpt><trkpt lat="45.7194887" lon="9.4563174"><ele>236.0</ele><time>2026-03-25T12:15:39.368Z</time></trkpt><trkpt lat="45.7195869" lon="9.4563193"><ele>236.00000000000003</ele><time>2026-03-25T12:15:40.368Z</time></trkpt><trkpt lat="45.7196828" lon="9.4563111"><ele>236.00000000000003</ele><time>2026-03-25T12:15:41.368Z</time></trkpt><trkpt lat="45.7197822" lon="9.4563135"><ele>236.0</ele><time>2026-03-25T12:15:42.367Z</time></trkpt><trkpt lat="45.7198785" lon="9.4563078"><ele>236.0</ele><time>2026-03-25T12:15:43.368Z</time></trkpt><trkpt lat="45.7199769" lon="9.4563116"><ele>236.0</ele><time>2026-03-25T12:15:44.368Z</time></trkpt><trkpt lat="45.7200751" lon="9.4563094"><ele>236.00000000000003</ele><time>2026-03-25T12:15:45.368Z</time></trkpt><trkpt lat="45.7201686" lon="9.4563123"><ele>236.00000000000003</ele><time>2026-03-25T12:15:46.368Z</time></trkpt><trkpt lat="45.7202578" lon="9.4563065"><ele>236.0</ele><time>2026-03-25T12:15:47.367Z</time></trkpt><trkpt lat="45.7203441" lon="9.4562948"><ele>236.0</ele><time>2026-03-25T12:15:48.368Z</time></trkpt><trkpt lat="45.7204313" lon="9.4562948"><ele>236.33333333333334</ele><time>2026-03-25T12:15:49.367Z</time></trkpt><trkpt lat="45.7205141" lon="9.4562901"><ele>236.66666666666669</ele><time>2026-03-25T12:15:50.368Z</time></trkpt><trkpt lat="45.7206014" lon="9.456294"><ele>237.0</ele><time>2026-03-25T12:15:51.368Z</time></trkpt><trkpt lat="45.7206889" lon="9.4562868"><ele>237.33333333333331</ele><time>2026-03-25T12:15:52.368Z</time></trkpt><trkpt lat="45.7207723" lon="9.4562882"><ele>237.66666666666666</ele><time>2026-03-25T12:15:53.368Z</time></trkpt><trkpt lat="45.7208663" lon="9.4562925"><ele>238.0</ele><time>2026-03-25T12:15:54.368Z</time></trkpt><trkpt lat="45.7209542" lon="9.4562871"><ele>237.2</ele><time>2026-03-25T12:15:55.368Z</time></trkpt><trkpt lat="45.7210442" lon="9.4562833"><ele>236.4</ele><time>2026-03-25T12:15:56.367Z</time></trkpt><trkpt lat="45.721136" lon="9.4562835"><ele>235.59999999999997</ele><time>2026-03-25T12:15:57.368Z</time></trkpt><trkpt lat="45.7212312" lon="9.456277"><ele>234.79999999999998</ele><time>2026-03-25T12:15:58.368Z</time></trkpt><trkpt lat="45.7213211" lon="9.4562716"><ele>234.0</ele><time>2026-03-25T12:15:59.368Z</time></trkpt><trkpt lat="45.7214138" lon="9.4562703"><ele>234.0</ele><time>2026-03-25T12:16:00.367Z</time></trkpt><trkpt lat="45.7215046" lon="9.4562664"><ele>233.99999999999997</ele><time>2026-03-25T12:16:01.368Z</time></trkpt><trkpt lat="45.7215976" lon="9.4562547"><ele>233.99999999999997</ele><time>2026-03-25T12:16:02.368Z</time></trkpt><trkpt lat="45.721689" lon="9.4562543"><ele>234.0</ele><time>2026-03-25T12:16:03.368Z</time></trkpt><trkpt lat="45.7217821" lon="9.4562592"><ele>234.0</ele><time>2026-03-25T12:16:04.368Z</time></trkpt><trkpt lat="45.7218727" lon="9.4562566"><ele>234.0</ele><time>2026-03-25T12:16:05.368Z</time></trkpt><trkpt lat="45.7219644" lon="9.4562542"><ele>233.99999999999997</ele><time>2026-03-25T12:16:06.368Z</time></trkpt><trkpt lat="45.7220567" lon="9.4562411"><ele>233.99999999999997</ele><time>2026-03-25T12:16:07.368Z</time></trkpt><trkpt lat="45.7221451" lon="9.4562389"><ele>234.0</ele><time>2026-03-25T12:16:08.367Z</time></trkpt><trkpt lat="45.7222391" lon="9.4562363"><ele>234.0</ele><time>2026-03-25T12:16:09.368Z</time></trkpt><trkpt lat="45.7223312" lon="9.45623"><ele>234.0</ele><time>2026-03-25T12:16:10.368Z</time></trkpt><trkpt lat="45.7224214" lon="9.45622"><ele>233.99999999999997</ele><time>2026-03-25T12:16:11.368Z</time></trkpt><trkpt lat="45.7225117" lon="9.4562185"><ele>233.99999999999997</ele><time>2026-03-25T12:16:12.367Z</time></trkpt><trkpt lat="45.7226041" lon="9.4562162"><ele>234.0</ele><time>2026-03-25T12:16:13.368Z</time></trkpt><trkpt lat="45.7226997" lon="9.4562177"><ele>234.0</ele><time>2026-03-25T12:16:14.368Z</time></trkpt><trkpt lat="45.7227941" lon="9.4562093"><ele>235.0</ele><time>2026-03-25T12:16:15.368Z</time></trkpt><trkpt lat="45.7228917" lon="9.4562029"><ele>235.99999999999997</ele><time>2026-03-25T12:16:16.367Z</time></trkpt><trkpt lat="45.7229896" lon="9.4562049"><ele>236.99999999999997</ele><time>2026-03-25T12:16:17.368Z</time></trkpt><trkpt lat="45.7230876" lon="9.4561946"><ele>238.0</ele><time>2026-03-25T12:16:18.368Z</time></trkpt><trkpt lat="45.7231894" lon="9.4561862"><ele>239.0</ele><time>2026-03-25T12:16:19.367Z</time></trkpt><trkpt lat="45.7232896" lon="9.4561819"><ele>239.0</ele><time>2026-03-25T12:16:20.367Z</time></trkpt><trkpt lat="45.7233929" lon="9.4561754"><ele>238.99999999999997</ele><time>2026-03-25T12:16:21.368Z</time></trkpt><trkpt lat="45.7234967" lon="9.4561754"><ele>238.99999999999997</ele><time>2026-03-25T12:16:22.367Z</time></trkpt><trkpt lat="45.7235968" lon="9.4561679"><ele>239.0</ele><time>2026-03-25T12:16:23.367Z</time></trkpt><trkpt lat="45.7236972" lon="9.4561573"><ele>239.0</ele><time>2026-03-25T12:16:24.367Z</time></trkpt><trkpt lat="45.7237958" lon="9.4561432"><ele>239.0</ele><time>2026-03-25T12:16:25.368Z</time></trkpt><trkpt lat="45.7238976" lon="9.4561318"><ele>238.99999999999997</ele><time>2026-03-25T12:16:26.367Z</time></trkpt><trkpt lat="45.7239987" lon="9.4561201"><ele>238.99999999999997</ele><time>2026-03-25T12:16:27.368Z</time></trkpt><trkpt lat="45.7241044" lon="9.4561103"><ele>239.0</ele><time>2026-03-25T12:16:28.367Z</time></trkpt><trkpt lat="45.724213" lon="9.4561069"><ele>239.0</ele><time>2026-03-25T12:16:29.368Z</time></trkpt><trkpt lat="45.724322" lon="9.4561017"><ele>238.79999999999998</ele><time>2026-03-25T12:16:30.368Z</time></trkpt><trkpt lat="45.7244298" lon="9.4560936"><ele>238.59999999999997</ele><time>2026-03-25T12:16:31.368Z</time></trkpt><trkpt lat="45.7245395" lon="9.4560827"><ele>238.4</ele><time>2026-03-25T12:16:32.368Z</time></trkpt><trkpt lat="45.7246459" lon="9.4560603"><ele>238.2</ele><time>2026-03-25T12:16:33.368Z</time></trkpt><trkpt lat="45.7247581" lon="9.4560283"><ele>238.0</ele><time>2026-03-25T12:16:34.368Z</time></trkpt><trkpt lat="45.7248659" lon="9.4559898"><ele>238.0</ele><time>2026-03-25T12:16:35.368Z</time></trkpt><trkpt lat="45.7249692" lon="9.4559427"><ele>238.0</ele><time>2026-03-25T12:16:36.368Z</time></trkpt><trkpt lat="45.7250677" lon="9.4558826"><ele>238.0</ele><time>2026-03-25T12:16:37.367Z</time></trkpt><trkpt lat="45.7251609" lon="9.4558045"><ele>238.0</ele><time>2026-03-25T12:16:38.368Z</time></trkpt><trkpt lat="45.7252465" lon="9.455712"><ele>238.0</ele><time>2026-03-25T12:16:39.368Z</time></trkpt><trkpt lat="45.7253198" lon="9.4555975"><ele>239.4</ele><time>2026-03-25T12:16:40.368Z</time></trkpt><trkpt lat="45.7253808" lon="9.4554736"><ele>240.8</ele><time>2026-03-25T12:16:41.368Z</time></trkpt><trkpt lat="45.7254441" lon="9.4553432"><ele>242.2</ele><time>2026-03-25T12:16:42.368Z</time></trkpt><trkpt lat="45.7254965" lon="9.4552114"><ele>243.6</ele><time>2026-03-25T12:16:43.368Z</time></trkpt><trkpt lat="45.725558" lon="9.4550878"><ele>245.0</ele><time>2026-03-25T12:16:44.368Z</time></trkpt><trkpt lat="45.7256291" lon="9.4549949"><ele>242.6</ele><time>2026-03-25T12:16:45.368Z</time></trkpt><trkpt lat="45.7257123" lon="9.4549257"><ele>240.2</ele><time>2026-03-25T12:16:46.367Z</time></trkpt><trkpt lat="45.7257999" lon="9.4548802"><ele>237.8</ele><time>2026-03-25T12:16:47.368Z</time></trkpt><trkpt lat="45.7258995" lon="9.4548562"><ele>235.4</ele><time>2026-03-25T12:16:48.368Z</time></trkpt><trkpt lat="45.7260025" lon="9.4548516"><ele>233.0</ele><time>2026-03-25T12:16:49.368Z</time></trkpt><trkpt lat="45.7261119" lon="9.4548501"><ele>233.0</ele><time>2026-03-25T12:16:50.368Z</time></trkpt><trkpt lat="45.7262246" lon="9.4548456"><ele>233.0</ele><time>2026-03-25T12:16:51.368Z</time></trkpt><trkpt lat="45.7263427" lon="9.4548318"><ele>233.0</ele><time>2026-03-25T12:16:52.368Z</time></trkpt><trkpt lat="45.7264591" lon="9.4548015"><ele>233.0</ele><time>2026-03-25T12:16:53.368Z</time></trkpt><trkpt lat="45.7265754" lon="9.4547549"><ele>233.0</ele><time>2026-03-25T12:16:54.367Z</time></trkpt><trkpt lat="45.726679" lon="9.4546837"><ele>233.0</ele><time>2026-03-25T12:16:55.368Z</time></trkpt><trkpt lat="45.7267703" lon="9.4545762"><ele>233.0</ele><time>2026-03-25T12:16:56.368Z</time></trkpt><trkpt lat="45.7268448" lon="9.4544411"><ele>233.0</ele><time>2026-03-25T12:16:57.368Z</time></trkpt><trkpt lat="45.7269159" lon="9.454288"><ele>230.60000000000002</ele><time>2026-03-25T12:16:58.368Z</time></trkpt><trkpt lat="45.7269879" lon="9.4541432"><ele>228.20000000000002</ele><time>2026-03-25T12:16:59.368Z</time></trkpt><trkpt lat="45.727054" lon="9.4540075"><ele>225.8</ele><time>2026-03-25T12:17:00.368Z</time></trkpt><trkpt lat="45.7270939" lon="9.4538803"><ele>223.4</ele><time>2026-03-25T12:17:01.368Z</time></trkpt><trkpt lat="45.7271206" lon="9.453747"><ele>221.0</ele><time>2026-03-25T12:17:02.367Z</time></trkpt><trkpt lat="45.7271359" lon="9.4536122"><ele>219.4</ele><time>2026-03-25T12:17:03.368Z</time></trkpt><trkpt lat="45.7271584" lon="9.453487"><ele>217.8</ele><time>2026-03-25T12:17:04.368Z</time></trkpt><trkpt lat="45.7271987" lon="9.4533654"><ele>216.20000000000002</ele><time>2026-03-25T12:17:05.368Z</time></trkpt><trkpt lat="45.7272481" lon="9.4532507"><ele>214.60000000000002</ele><time>2026-03-25T12:17:06.368Z</time></trkpt><trkpt lat="45.7273247" lon="9.4531791"><ele>213.0</ele><time>2026-03-25T12:17:07.368Z</time></trkpt><trkpt lat="45.7274119" lon="9.4531443"><ele>213.0</ele><time>2026-03-25T12:17:08.367Z</time></trkpt><trkpt lat="45.7275069" lon="9.4531439"><ele>213.0</ele><time>2026-03-25T12:17:09.367Z</time></trkpt><trkpt lat="45.7275992" lon="9.4531588"><ele>213.0</ele><time>2026-03-25T12:17:10.367Z</time></trkpt><trkpt lat="45.7276994" lon="9.4531843"><ele>213.0</ele><time>2026-03-25T12:17:11.367Z</time></trkpt><trkpt lat="45.7278028" lon="9.4532073"><ele>213.0</ele><time>2026-03-25T12:17:12.368Z</time></trkpt><trkpt lat="45.7279105" lon="9.4532107"><ele>211.0</ele><time>2026-03-25T12:17:13.367Z</time></trkpt><trkpt lat="45.7280184" lon="9.453203"><ele>209.0</ele><time>2026-03-25T12:17:14.368Z</time></trkpt><trkpt lat="45.7281253" lon="9.4531916"><ele>207.0</ele><time>2026-03-25T12:17:15.368Z</time></trkpt><trkpt lat="45.7282367" lon="9.4531717"><ele>205.0</ele><time>2026-03-25T12:17:16.367Z</time></trkpt><trkpt lat="45.7283511" lon="9.4531564"><ele>203.0</ele><time>2026-03-25T12:17:17.368Z</time></trkpt><trkpt lat="45.7284636" lon="9.4531316"><ele>202.25</ele><time>2026-03-25T12:17:18.368Z</time></trkpt><trkpt lat="45.7285779" lon="9.4531076"><ele>201.5</ele><time>2026-03-25T12:17:19.368Z</time></trkpt><trkpt lat="45.7286934" lon="9.4530943"><ele>200.75</ele><time>2026-03-25T12:17:20.368Z</time></trkpt><trkpt lat="45.7288122" lon="9.4530808"><ele>200.0</ele><time>2026-03-25T12:17:21.368Z</time></trkpt><trkpt lat="45.7289242" lon="9.4530723"><ele>200.0</ele><time>2026-03-25T12:17:22.368Z</time></trkpt><trkpt lat="45.7290392" lon="9.4530572"><ele>200.0</ele><time>2026-03-25T12:17:23.368Z</time></trkpt><trkpt lat="45.7291536" lon="9.4530317"><ele>200.0</ele><time>2026-03-25T12:17:24.368Z</time></trkpt><trkpt lat="45.7292642" lon="9.4530114"><ele>200.0</ele><time>2026-03-25T12:17:25.367Z</time></trkpt><trkpt lat="45.7293757" lon="9.4529895"><ele>199.5</ele><time>2026-03-25T12:17:26.368Z</time></trkpt><trkpt lat="45.7294886" lon="9.4529576"><ele>199.0</ele><time>2026-03-25T12:17:27.368Z</time></trkpt><trkpt lat="45.7296015" lon="9.4529253"><ele>198.5</ele><time>2026-03-25T12:17:28.368Z</time></trkpt><trkpt lat="45.7297101" lon="9.4528812"><ele>198.0</ele><time>2026-03-25T12:17:29.367Z</time></trkpt><trkpt lat="45.7298168" lon="9.4528357"><ele>198.0</ele><time>2026-03-25T12:17:30.367Z</time></trkpt><trkpt lat="45.7299221" lon="9.4527882"><ele>198.0</ele><time>2026-03-25T12:17:31.368Z</time></trkpt><trkpt lat="45.730025" lon="9.452734"><ele>198.0</ele><time>2026-03-25T12:17:32.368Z</time></trkpt><trkpt lat="45.7301276" lon="9.452685"><ele>198.0</ele><time>2026-03-25T12:17:33.367Z</time></trkpt><trkpt lat="45.7302305" lon="9.4526392"><ele>198.0</ele><time>2026-03-25T12:17:34.368Z</time></trkpt><trkpt lat="45.7303325" lon="9.4525938"><ele>197.8</ele><time>2026-03-25T12:17:35.367Z</time></trkpt><trkpt lat="45.7304342" lon="9.4525576"><ele>197.60000000000002</ele><time>2026-03-25T12:17:36.368Z</time></trkpt><trkpt lat="45.7305378" lon="9.4525435"><ele>197.39999999999998</ele><time>2026-03-25T12:17:37.367Z</time></trkpt><trkpt lat="45.7306431" lon="9.4525473"><ele>197.2</ele><time>2026-03-25T12:17:38.368Z</time></trkpt><trkpt lat="45.7307485" lon="9.4525583"><ele>197.0</ele><time>2026-03-25T12:17:39.367Z</time></trkpt><trkpt lat="45.7308584" lon="9.45258"><ele>197.0</ele><time>2026-03-25T12:17:40.368Z</time></trkpt><trkpt lat="45.7309695" lon="9.4526003"><ele>197.0</ele><time>2026-03-25T12:17:41.368Z</time></trkpt><trkpt lat="45.7310644" lon="9.4526269"><ele>197.0</ele><time>2026-03-25T12:17:42.368Z</time></trkpt><trkpt lat="45.7311527" lon="9.4526464"><ele>197.0</ele><time>2026-03-25T12:17:43.368Z</time></trkpt><trkpt lat="45.7312358" lon="9.45268"><ele>197.0</ele><time>2026-03-25T12:17:44.368Z</time></trkpt><trkpt lat="45.7313072" lon="9.4527369"><ele>197.00000000000003</ele><time>2026-03-25T12:17:45.368Z</time></trkpt><trkpt lat="45.7313717" lon="9.4527971"><ele>197.0</ele><time>2026-03-25T12:17:46.368Z</time></trkpt><trkpt lat="45.7314397" lon="9.4528439"><ele>197.0</ele><time>2026-03-25T12:17:47.368Z</time></trkpt><trkpt lat="45.7315166" lon="9.4528525"><ele>197.0</ele><time>2026-03-25T12:17:48.368Z</time></trkpt><trkpt lat="45.7315906" lon="9.4528191"><ele>197.00000000000003</ele><time>2026-03-25T12:17:49.368Z</time></trkpt><trkpt lat="45.7316617" lon="9.4527552"><ele>197.0</ele><time>2026-03-25T12:17:50.368Z</time></trkpt><trkpt lat="45.7317249" lon="9.4526731"><ele>197.0</ele><time>2026-03-25T12:17:51.368Z</time></trkpt><trkpt lat="45.7317944" lon="9.4526001"><ele>197.0</ele><time>2026-03-25T12:17:52.368Z</time></trkpt><trkpt lat="45.7318794" lon="9.4525463"><ele>197.0</ele><time>2026-03-25T12:17:53.367Z</time></trkpt><trkpt lat="45.7319691" lon="9.4524953"><ele>197.0</ele><time>2026-03-25T12:17:54.368Z</time></trkpt><trkpt lat="45.7320598" lon="9.4524465"><ele>197.0</ele><time>2026-03-25T12:17:55.367Z</time></trkpt><trkpt lat="45.732154" lon="9.4523909"><ele>197.0</ele><time>2026-03-25T12:17:56.368Z</time></trkpt><trkpt lat="45.7322486" lon="9.4523335"><ele>197.0</ele><time>2026-03-25T12:17:57.367Z</time></trkpt><trkpt lat="45.7323401" lon="9.4522606"><ele>197.0</ele><time>2026-03-25T12:17:58.367Z</time></trkpt><trkpt lat="45.732429" lon="9.4521818"><ele>197.0</ele><time>2026-03-25T12:17:59.368Z</time></trkpt><trkpt lat="45.7325139" lon="9.4520963"><ele>197.0</ele><time>2026-03-25T12:18:00.367Z</time></trkpt><trkpt lat="45.7325999" lon="9.4520013"><ele>197.0</ele><time>2026-03-25T12:18:01.368Z</time></trkpt><trkpt lat="45.7326841" lon="9.4519062"><ele>197.0</ele><time>2026-03-25T12:18:02.368Z</time></trkpt><trkpt lat="45.7327612" lon="9.4518042"><ele>197.0</ele><time>2026-03-25T12:18:03.367Z</time></trkpt><trkpt lat="45.7328485" lon="9.4517162"><ele>197.0</ele><time>2026-03-25T12:18:04.368Z</time></trkpt><trkpt lat="45.7329426" lon="9.4516412"><ele>197.0</ele><time>2026-03-25T12:18:05.368Z</time></trkpt><trkpt lat="45.7330407" lon="9.451581"><ele>197.39999999999998</ele><time>2026-03-25T12:18:06.368Z</time></trkpt><trkpt lat="45.7331426" lon="9.4515341"><ele>197.79999999999998</ele><time>2026-03-25T12:18:07.367Z</time></trkpt><trkpt lat="45.7332478" lon="9.4515033"><ele>198.2</ele><time>2026-03-25T12:18:08.368Z</time></trkpt><trkpt lat="45.7333527" lon="9.4514781"><ele>198.6</ele><time>2026-03-25T12:18:09.368Z</time></trkpt><trkpt lat="45.733459" lon="9.4514589"><ele>199.0</ele><time>2026-03-25T12:18:10.368Z</time></trkpt><trkpt lat="45.7335664" lon="9.4514433"><ele>199.39999999999998</ele><time>2026-03-25T12:18:11.368Z</time></trkpt><trkpt lat="45.7336743" lon="9.4514408"><ele>199.8</ele><time>2026-03-25T12:18:12.367Z</time></trkpt><trkpt lat="45.7337846" lon="9.4514455"><ele>200.2</ele><time>2026-03-25T12:18:13.368Z</time></trkpt><trkpt lat="45.7338936" lon="9.4514537"><ele>200.60000000000002</ele><time>2026-03-25T12:18:14.367Z</time></trkpt><trkpt lat="45.7340022" lon="9.4514684"><ele>201.0</ele><time>2026-03-25T12:18:15.368Z</time></trkpt><trkpt lat="45.7341119" lon="9.4514882"><ele>201.0</ele><time>2026-03-25T12:18:16.367Z</time></trkpt><trkpt lat="45.7342217" lon="9.4515049"><ele>201.0</ele><time>2026-03-25T12:18:17.368Z</time></trkpt><trkpt lat="45.73433" lon="9.451524"><ele>201.0</ele><time>2026-03-25T12:18:18.368Z</time></trkpt><trkpt lat="45.7344347" lon="9.4515385"><ele>201.0</ele><time>2026-03-25T12:18:19.368Z</time></trkpt><trkpt lat="45.7345384" lon="9.4515535"><ele>201.0</ele><time>2026-03-25T12:18:20.367Z</time></trkpt><trkpt lat="45.7346424" lon="9.4515624"><ele>200.4</ele><time>2026-03-25T12:18:21.368Z</time></trkpt><trkpt lat="45.7347503" lon="9.4515716"><ele>199.8</ele><time>2026-03-25T12:18:22.368Z</time></trkpt><trkpt lat="45.7348538" lon="9.4515856"><ele>199.20000000000002</ele><time>2026-03-25T12:18:23.368Z</time></trkpt><trkpt lat="45.73496" lon="9.4515975"><ele>198.60000000000002</ele><time>2026-03-25T12:18:24.368Z</time></trkpt><trkpt lat="45.7350679" lon="9.4516074"><ele>198.0</ele><time>2026-03-25T12:18:25.368Z</time></trkpt><trkpt lat="45.7351778" lon="9.4516085"><ele>198.2</ele><time>2026-03-25T12:18:26.368Z</time></trkpt><trkpt lat="45.735288" lon="9.4515979"><ele>198.4</ele><time>2026-03-25T12:18:27.368Z</time></trkpt><trkpt lat="45.7353954" lon="9.4515813"><ele>198.6</ele><time>2026-03-25T12:18:28.368Z</time></trkpt><trkpt lat="45.7355017" lon="9.4515579"><ele>198.79999999999998</ele><time>2026-03-25T12:18:29.368Z</time></trkpt><trkpt lat="45.735611" lon="9.4515247"><ele>199.0</ele><time>2026-03-25T12:18:30.368Z</time></trkpt><trkpt lat="45.735716" lon="9.4514837"><ele>199.0</ele><time>2026-03-25T12:18:31.368Z</time></trkpt><trkpt lat="45.7358183" lon="9.4514297"><ele>199.0</ele><time>2026-03-25T12:18:32.368Z</time></trkpt><trkpt lat="45.7359177" lon="9.4513707"><ele>199.0</ele><time>2026-03-25T12:18:33.367Z</time></trkpt><trkpt lat="45.7360166" lon="9.4513069"><ele>199.0</ele><time>2026-03-25T12:18:34.367Z</time></trkpt><trkpt lat="45.7361196" lon="9.4512461"><ele>199.0</ele><time>2026-03-25T12:18:35.368Z</time></trkpt><trkpt lat="45.7362185" lon="9.4511795"><ele>198.6</ele><time>2026-03-25T12:18:36.368Z</time></trkpt><trkpt lat="45.7363186" lon="9.451128"><ele>198.2</ele><time>2026-03-25T12:18:37.367Z</time></trkpt><trkpt lat="45.7364202" lon="9.4510824"><ele>197.79999999999998</ele><time>2026-03-25T12:18:38.368Z</time></trkpt><trkpt lat="45.7365307" lon="9.4510474"><ele>197.39999999999998</ele><time>2026-03-25T12:18:39.368Z</time></trkpt><trkpt lat="45.7366392" lon="9.4510168"><ele>197.0</ele><time>2026-03-25T12:18:40.368Z</time></trkpt><trkpt lat="45.7367499" lon="9.4509962"><ele>197.0</ele><time>2026-03-25T12:18:41.368Z</time></trkpt><trkpt lat="45.7368601" lon="9.4509709"><ele>197.0</ele><time>2026-03-25T12:18:42.368Z</time></trkpt><trkpt lat="45.7369708" lon="9.450939"><ele>197.0</ele><time>2026-03-25T12:18:43.368Z</time></trkpt><trkpt lat="45.7370803" lon="9.4509134"><ele>197.0</ele><time>2026-03-25T12:18:44.367Z</time></trkpt><trkpt lat="45.7371864" lon="9.4508875"><ele>197.0</ele><time>2026-03-25T12:18:45.368Z</time></trkpt><trkpt lat="45.7372941" lon="9.45086"><ele>197.2</ele><time>2026-03-25T12:18:46.368Z</time></trkpt><trkpt lat="45.7374005" lon="9.4508352"><ele>197.39999999999998</ele><time>2026-03-25T12:18:47.368Z</time></trkpt><trkpt lat="45.7375065" lon="9.4508073"><ele>197.60000000000002</ele><time>2026-03-25T12:18:48.368Z</time></trkpt><trkpt lat="45.7376115" lon="9.4507804"><ele>197.8</ele><time>2026-03-25T12:18:49.368Z</time></trkpt><trkpt lat="45.737716" lon="9.4507538"><ele>198.0</ele><time>2026-03-25T12:18:50.367Z</time></trkpt><trkpt lat="45.737821" lon="9.4507316"><ele>198.4</ele><time>2026-03-25T12:18:51.368Z</time></trkpt><trkpt lat="45.7379291" lon="9.4507196"><ele>198.8</ele><time>2026-03-25T12:18:52.368Z</time></trkpt><trkpt lat="45.7380363" lon="9.4507131"><ele>199.2</ele><time>2026-03-25T12:18:53.368Z</time></trkpt><trkpt lat="45.7381429" lon="9.4507082"><ele>199.6</ele><time>2026-03-25T12:18:54.368Z</time></trkpt><trkpt lat="45.7382455" lon="9.4507068"><ele>200.0</ele><time>2026-03-25T12:18:55.367Z</time></trkpt><trkpt lat="45.7383491" lon="9.4507026"><ele>200.0</ele><time>2026-03-25T12:18:56.368Z</time></trkpt><trkpt lat="45.7384524" lon="9.4506888"><ele>200.0</ele><time>2026-03-25T12:18:57.368Z</time></trkpt><trkpt lat="45.7385557" lon="9.4506703"><ele>200.0</ele><time>2026-03-25T12:18:58.367Z</time></trkpt><trkpt lat="45.7386617" lon="9.4506609"><ele>200.0</ele><time>2026-03-25T12:18:59.368Z</time></trkpt><trkpt lat="45.7387527" lon="9.4506452"><ele>200.0</ele><time>2026-03-25T12:19:00.367Z</time></trkpt><trkpt lat="45.7388343" lon="9.4506315"><ele>199.85714285714286</ele><time>2026-03-25T12:19:01.368Z</time></trkpt><trkpt lat="45.738921" lon="9.4506315"><ele>199.71428571428572</ele><time>2026-03-25T12:19:02.368Z</time></trkpt><trkpt lat="45.7390044" lon="9.4506332"><ele>199.57142857142856</ele><time>2026-03-25T12:19:03.368Z</time></trkpt><trkpt lat="45.7390671" lon="9.4506481"><ele>199.42857142857144</ele><time>2026-03-25T12:19:04.367Z</time></trkpt><trkpt lat="45.7391278" lon="9.4506801"><ele>199.28571428571428</ele><time>2026-03-25T12:19:05.368Z</time></trkpt><trkpt lat="45.7391877" lon="9.4507224"><ele>199.14285714285714</ele><time>2026-03-25T12:19:06.367Z</time></trkpt><trkpt lat="45.739254" lon="9.4507658"><ele>199.0</ele><time>2026-03-25T12:19:07.368Z</time></trkpt><trkpt lat="45.7393169" lon="9.4507811"><ele>198.99999999999997</ele><time>2026-03-25T12:19:08.368Z</time></trkpt><trkpt lat="45.7393805" lon="9.4507618"><ele>199.0</ele><time>2026-03-25T12:19:09.367Z</time></trkpt><trkpt lat="45.7394323" lon="9.45071"><ele>199.0</ele><time>2026-03-25T12:19:10.368Z</time></trkpt><trkpt lat="45.739454" lon="9.4506168"><ele>199.0</ele><time>2026-03-25T12:19:11.368Z</time></trkpt><trkpt lat="45.7394621" lon="9.4505129"><ele>199.0</ele><time>2026-03-25T12:19:12.368Z</time></trkpt><trkpt lat="45.739443" lon="9.4504075"><ele>198.99999999999997</ele><time>2026-03-25T12:19:13.368Z</time></trkpt><trkpt lat="45.7394045" lon="9.4503179"><ele>199.0</ele><time>2026-03-25T12:19:14.368Z</time></trkpt><trkpt lat="45.7393641" lon="9.4502163"><ele>199.16666666666666</ele><time>2026-03-25T12:19:15.368Z</time></trkpt><trkpt lat="45.7393407" lon="9.4501111"><ele>199.33333333333331</ele><time>2026-03-25T12:19:16.367Z</time></trkpt><trkpt lat="45.739325" lon="9.4500033"><ele>199.5</ele><time>2026-03-25T12:19:17.367Z</time></trkpt><trkpt lat="45.7393059" lon="9.4498959"><ele>199.66666666666669</ele><time>2026-03-25T12:19:18.368Z</time></trkpt><trkpt lat="45.7392991" lon="9.4497919"><ele>199.83333333333334</ele><time>2026-03-25T12:19:19.368Z</time></trkpt><trkpt lat="45.7392965" lon="9.4496774"><ele>200.0</ele><time>2026-03-25T12:19:20.368Z</time></trkpt><trkpt lat="45.7392958" lon="9.4495657"><ele>199.33333333333334</ele><time>2026-03-25T12:19:21.368Z</time></trkpt><trkpt lat="45.7393063" lon="9.4494555"><ele>198.66666666666669</ele><time>2026-03-25T12:19:22.368Z</time></trkpt><trkpt lat="45.7393163" lon="9.449341"><ele>198.0</ele><time>2026-03-25T12:19:23.368Z</time></trkpt><trkpt lat="45.7393242" lon="9.4492282"><ele>197.33333333333331</ele><time>2026-03-25T12:19:24.368Z</time></trkpt><trkpt lat="45.7393317" lon="9.44911"><ele>196.66666666666666</ele><time>2026-03-25T12:19:25.367Z</time></trkpt><trkpt lat="45.7393387" lon="9.4489896"><ele>196.0</ele><time>2026-03-25T12:19:26.368Z</time></trkpt><trkpt lat="45.7393464" lon="9.4488646"><ele>195.60000000000002</ele><time>2026-03-25T12:19:27.368Z</time></trkpt><trkpt lat="45.7393508" lon="9.4487353"><ele>195.2</ele><time>2026-03-25T12:19:28.368Z</time></trkpt><trkpt lat="45.7393547" lon="9.4486134"><ele>194.8</ele><time>2026-03-25T12:19:29.368Z</time></trkpt><trkpt lat="45.7393623" lon="9.4484839"><ele>194.39999999999998</ele><time>2026-03-25T12:19:30.368Z</time></trkpt><trkpt lat="45.7393744" lon="9.4483498"><ele>194.0</ele><time>2026-03-25T12:19:31.368Z</time></trkpt><trkpt lat="45.7393851" lon="9.4482141"><ele>194.83333333333334</ele><time>2026-03-25T12:19:32.368Z</time></trkpt><trkpt lat="45.7393964" lon="9.4480817"><ele>195.66666666666669</ele><time>2026-03-25T12:19:33.368Z</time></trkpt><trkpt lat="45.7394051" lon="9.4479506"><ele>196.5</ele><time>2026-03-25T12:19:34.368Z</time></trkpt><trkpt lat="45.7394175" lon="9.4478208"><ele>197.33333333333331</ele><time>2026-03-25T12:19:35.368Z</time></trkpt><trkpt lat="45.7394286" lon="9.4476999"><ele>198.16666666666666</ele><time>2026-03-25T12:19:36.368Z</time></trkpt><trkpt lat="45.7394352" lon="9.4475864"><ele>199.0</ele><time>2026-03-25T12:19:37.367Z</time></trkpt><trkpt lat="45.7394355" lon="9.4474844"><ele>199.7142857142857</ele><time>2026-03-25T12:19:38.368Z</time></trkpt><trkpt lat="45.7394398" lon="9.4473889"><ele>200.42857142857142</ele><time>2026-03-25T12:19:39.368Z</time></trkpt><trkpt lat="45.7394572" lon="9.4472953"><ele>201.14285714285714</ele><time>2026-03-25T12:19:40.368Z</time></trkpt><trkpt lat="45.7394788" lon="9.4472034"><ele>201.85714285714283</ele><time>2026-03-25T12:19:41.368Z</time></trkpt><trkpt lat="45.7395055" lon="9.447108"><ele>202.57142857142858</ele><time>2026-03-25T12:19:42.368Z</time></trkpt><trkpt lat="45.739538" lon="9.4470082"><ele>203.28571428571428</ele><time>2026-03-25T12:19:43.368Z</time></trkpt><trkpt lat="45.7395763" lon="9.4469119"><ele>204.0</ele><time>2026-03-25T12:19:44.368Z</time></trkpt><trkpt lat="45.7396255" lon="9.4468166"><ele>204.66666666666666</ele><time>2026-03-25T12:19:45.368Z</time></trkpt><trkpt lat="45.739681" lon="9.4467301"><ele>205.33333333333331</ele><time>2026-03-25T12:19:46.368Z</time></trkpt><trkpt lat="45.7397397" lon="9.4466533"><ele>206.0</ele><time>2026-03-25T12:19:47.368Z</time></trkpt><trkpt lat="45.7398061" lon="9.4465837"><ele>206.66666666666666</ele><time>2026-03-25T12:19:48.367Z</time></trkpt><trkpt lat="45.7398867" lon="9.4465247"><ele>207.33333333333331</ele><time>2026-03-25T12:19:49.368Z</time></trkpt><trkpt lat="45.7399656" lon="9.4464675"><ele>208.0</ele><time>2026-03-25T12:19:50.367Z</time></trkpt><trkpt lat="45.7400391" lon="9.4464107"><ele>208.0</ele><time>2026-03-25T12:19:51.368Z</time></trkpt><trkpt lat="45.7401256" lon="9.4463609"><ele>208.0</ele><time>2026-03-25T12:19:52.368Z</time></trkpt><trkpt lat="45.7402072" lon="9.4463183"><ele>208.0</ele><time>2026-03-25T12:19:53.368Z</time></trkpt><trkpt lat="45.7402937" lon="9.4462728"><ele>208.0</ele><time>2026-03-25T12:19:54.368Z</time></trkpt><trkpt lat="45.7403783" lon="9.4462263"><ele>208.0</ele><time>2026-03-25T12:19:55.368Z</time></trkpt><trkpt lat="45.7404611" lon="9.4461752"><ele>208.8</ele><time>2026-03-25T12:19:56.368Z</time></trkpt><trkpt lat="45.7405529" lon="9.4461326"><ele>209.60000000000002</ele><time>2026-03-25T12:19:57.367Z</time></trkpt><trkpt lat="45.7406466" lon="9.4460871"><ele>210.39999999999998</ele><time>2026-03-25T12:19:58.367Z</time></trkpt><trkpt lat="45.7407334" lon="9.4460372"><ele>211.2</ele><time>2026-03-25T12:19:59.367Z</time></trkpt><trkpt lat="45.7408244" lon="9.4459863"><ele>212.0</ele><time>2026-03-25T12:20:00.368Z</time></trkpt><trkpt lat="45.7409206" lon="9.4459402"><ele>212.0</ele><time>2026-03-25T12:20:01.368Z</time></trkpt><trkpt lat="45.7410155" lon="9.4459086"><ele>212.0</ele><time>2026-03-25T12:20:02.368Z</time></trkpt><trkpt lat="45.7411132" lon="9.4458821"><ele>212.0</ele><time>2026-03-25T12:20:03.368Z</time></trkpt><trkpt lat="45.7412114" lon="9.4458634"><ele>212.0</ele><time>2026-03-25T12:20:04.368Z</time></trkpt><trkpt lat="45.7413147" lon="9.4458477"><ele>212.0</ele><time>2026-03-25T12:20:05.368Z</time></trkpt><trkpt lat="45.741412" lon="9.4458253"><ele>211.6</ele><time>2026-03-25T12:20:06.367Z</time></trkpt><trkpt lat="45.7415107" lon="9.4458079"><ele>211.2</ele><time>2026-03-25T12:20:07.368Z</time></trkpt><trkpt lat="45.7416127" lon="9.4458004"><ele>210.8</ele><time>2026-03-25T12:20:08.368Z</time></trkpt><trkpt lat="45.7417106" lon="9.4457812"><ele>210.4</ele><time>2026-03-25T12:20:09.368Z</time></trkpt><trkpt lat="45.741808" lon="9.4457708"><ele>210.0</ele><time>2026-03-25T12:20:10.368Z</time></trkpt><trkpt lat="45.7419042" lon="9.4457576"><ele>210.0</ele><time>2026-03-25T12:20:11.367Z</time></trkpt><trkpt lat="45.7419955" lon="9.4457594"><ele>210.0</ele><time>2026-03-25T12:20:12.368Z</time></trkpt><trkpt lat="45.7420885" lon="9.4457454"><ele>210.0</ele><time>2026-03-25T12:20:13.368Z</time></trkpt><trkpt lat="45.7421832" lon="9.4457106"><ele>210.0</ele><time>2026-03-25T12:20:14.368Z</time></trkpt><trkpt lat="45.7422786" lon="9.4456784"><ele>210.0</ele><time>2026-03-25T12:20:15.367Z</time></trkpt><trkpt lat="45.742373" lon="9.4456459"><ele>210.0</ele><time>2026-03-25T12:20:16.368Z</time></trkpt><trkpt lat="45.7424705" lon="9.4455958"><ele>210.0</ele><time>2026-03-25T12:20:17.368Z</time></trkpt><trkpt lat="45.7425655" lon="9.4455416"><ele>210.0</ele><time>2026-03-25T12:20:18.367Z</time></trkpt><trkpt lat="45.7426538" lon="9.4454598"><ele>210.0</ele><time>2026-03-25T12:20:19.368Z</time></trkpt><trkpt lat="45.7427292" lon="9.4453663"><ele>210.0</ele><time>2026-03-25T12:20:20.368Z</time></trkpt><trkpt lat="45.7427941" lon="9.4452627"><ele>210.4</ele><time>2026-03-25T12:20:21.368Z</time></trkpt><trkpt lat="45.7428613" lon="9.445154"><ele>210.8</ele><time>2026-03-25T12:20:22.367Z</time></trkpt><trkpt lat="45.7429311" lon="9.4450445"><ele>211.2</ele><time>2026-03-25T12:20:23.368Z</time></trkpt><trkpt lat="45.7429996" lon="9.4449392"><ele>211.6</ele><time>2026-03-25T12:20:24.368Z</time></trkpt><trkpt lat="45.7430534" lon="9.4448263"><ele>212.0</ele><time>2026-03-25T12:20:25.367Z</time></trkpt><trkpt lat="45.7431095" lon="9.4447173"><ele>213.0</ele><time>2026-03-25T12:20:26.368Z</time></trkpt><trkpt lat="45.7431657" lon="9.44461"><ele>214.0</ele><time>2026-03-25T12:20:27.368Z</time></trkpt><trkpt lat="45.7432218" lon="9.4445062"><ele>215.0</ele><time>2026-03-25T12:20:28.367Z</time></trkpt><trkpt lat="45.7432837" lon="9.4444009"><ele>216.0</ele><time>2026-03-25T12:20:29.368Z</time></trkpt><trkpt lat="45.7433421" lon="9.4442993"><ele>217.0</ele><time>2026-03-25T12:20:30.367Z</time></trkpt><trkpt lat="45.7433999" lon="9.4441972"><ele>216.99999999999997</ele><time>2026-03-25T12:20:31.368Z</time></trkpt><trkpt lat="45.7434514" lon="9.4440922"><ele>217.0</ele><time>2026-03-25T12:20:32.368Z</time></trkpt><trkpt lat="45.7435067" lon="9.4439941"><ele>217.0</ele><time>2026-03-25T12:20:33.368Z</time></trkpt><trkpt lat="45.7435663" lon="9.4439077"><ele>217.0</ele><time>2026-03-25T12:20:34.367Z</time></trkpt><trkpt lat="45.7436374" lon="9.4438249"><ele>216.99999999999997</ele><time>2026-03-25T12:20:35.368Z</time></trkpt><trkpt lat="45.7437045" lon="9.4437473"><ele>217.0</ele><time>2026-03-25T12:20:36.367Z</time></trkpt><trkpt lat="45.7437701" lon="9.4436737"><ele>217.49999999999997</ele><time>2026-03-25T12:20:37.368Z</time></trkpt><trkpt lat="45.7438332" lon="9.4435943"><ele>218.0</ele><time>2026-03-25T12:20:38.368Z</time></trkpt><trkpt lat="45.7438899" lon="9.4435133"><ele>218.5</ele><time>2026-03-25T12:20:39.368Z</time></trkpt><trkpt lat="45.7439523" lon="9.4434301"><ele>219.0</ele><time>2026-03-25T12:20:40.368Z</time></trkpt><trkpt lat="45.7440107" lon="9.4433533"><ele>219.49999999999997</ele><time>2026-03-25T12:20:41.368Z</time></trkpt><trkpt lat="45.7440733" lon="9.4432621"><ele>220.0</ele><time>2026-03-25T12:20:42.368Z</time></trkpt><trkpt lat="45.7441272" lon="9.443176"><ele>219.99999999999997</ele><time>2026-03-25T12:20:43.368Z</time></trkpt><trkpt lat="45.744184" lon="9.4431051"><ele>220.0</ele><time>2026-03-25T12:20:44.368Z</time></trkpt><trkpt lat="45.7442642" lon="9.443051"><ele>220.0</ele><time>2026-03-25T12:20:45.368Z</time></trkpt><trkpt lat="45.7443388" lon="9.4430033"><ele>220.0</ele><time>2026-03-25T12:20:46.367Z</time></trkpt><trkpt lat="45.744421" lon="9.442994"><ele>219.99999999999997</ele><time>2026-03-25T12:20:47.368Z</time></trkpt><trkpt lat="45.7445012" lon="9.4429963"><ele>220.0</ele><time>2026-03-25T12:20:48.368Z</time></trkpt><trkpt lat="45.7445813" lon="9.4430127"><ele>220.66666666666666</ele><time>2026-03-25T12:20:49.368Z</time></trkpt><trkpt lat="45.7446597" lon="9.4430262"><ele>221.33333333333331</ele><time>2026-03-25T12:20:50.368Z</time></trkpt><trkpt lat="45.7447387" lon="9.4430334"><ele>222.0</ele><time>2026-03-25T12:20:51.368Z</time></trkpt><trkpt lat="45.7448133" lon="9.4430381"><ele>222.66666666666669</ele><time>2026-03-25T12:20:52.367Z</time></trkpt><trkpt lat="45.7448835" lon="9.4430286"><ele>223.33333333333334</ele><time>2026-03-25T12:20:53.368Z</time></trkpt><trkpt lat="45.7449572" lon="9.4430056"><ele>224.0</ele><time>2026-03-25T12:20:54.368Z</time></trkpt><trkpt lat="45.7450323" lon="9.4429837"><ele>224.85714285714286</ele><time>2026-03-25T12:20:55.367Z</time></trkpt><trkpt lat="45.7450964" lon="9.4429566"><ele>225.71428571428572</ele><time>2026-03-25T12:20:56.368Z</time></trkpt><trkpt lat="45.7451634" lon="9.4429236"><ele>226.57142857142856</ele><time>2026-03-25T12:20:57.368Z</time></trkpt><trkpt lat="45.7452275" lon="9.4428988"><ele>227.42857142857142</ele><time>2026-03-25T12:20:58.368Z</time></trkpt><trkpt lat="45.7452918" lon="9.4428766"><ele>228.28571428571428</ele><time>2026-03-25T12:20:59.368Z</time></trkpt><trkpt lat="45.7453533" lon="9.4428491"><ele>229.1428571428571</ele><time>2026-03-25T12:21:00.368Z</time></trkpt><trkpt lat="45.7454205" lon="9.442817"><ele>229.99999999999997</ele><time>2026-03-25T12:21:01.367Z</time></trkpt><trkpt lat="45.7454899" lon="9.4427925"><ele>230.16666666666669</ele><time>2026-03-25T12:21:02.368Z</time></trkpt><trkpt lat="45.7455594" lon="9.442768"><ele>230.33333333333334</ele><time>2026-03-25T12:21:03.367Z</time></trkpt><trkpt lat="45.7456698" lon="9.442737"><ele>230.5</ele><time>2026-03-25T12:21:05.368Z</time></trkpt><trkpt lat="45.7457366" lon="9.4427151"><ele>230.66666666666669</ele><time>2026-03-25T12:21:07.368Z</time></trkpt><trkpt lat="45.7457908" lon="9.4426294"><ele>230.83333333333334</ele><time>2026-03-25T12:22:29.368Z</time></trkpt><trkpt lat="45.7458738" lon="9.4425681"><ele>231.0</ele><time>2026-03-25T12:22:31.367Z</time></trkpt><trkpt lat="45.7459659" lon="9.4424781"><ele>231.0</ele><time>2026-03-25T12:22:33.368Z</time></trkpt><trkpt lat="45.746024" lon="9.4424241"><ele>231.0</ele><time>2026-03-25T12:22:34.368Z</time></trkpt><trkpt lat="45.7460836" lon="9.442366"><ele>231.0</ele><time>2026-03-25T12:22:35.368Z</time></trkpt><trkpt lat="45.7461417" lon="9.4423113"><ele>231.0</ele><time>2026-03-25T12:22:36.368Z</time></trkpt><trkpt lat="45.7462006" lon="9.4422479"><ele>231.0</ele><time>2026-03-25T12:22:37.368Z</time></trkpt><trkpt lat="45.7462607" lon="9.4421797"><ele>231.0</ele><time>2026-03-25T12:22:38.368Z</time></trkpt><trkpt lat="45.7463197" lon="9.4421111"><ele>231.0</ele><time>2026-03-25T12:22:39.368Z</time></trkpt><trkpt lat="45.7463845" lon="9.4420403"><ele>231.16666666666666</ele><time>2026-03-25T12:22:40.367Z</time></trkpt><trkpt lat="45.7464548" lon="9.4419772"><ele>231.33333333333331</ele><time>2026-03-25T12:22:41.368Z</time></trkpt><trkpt lat="45.7465169" lon="9.4419129"><ele>231.5</ele><time>2026-03-25T12:22:42.367Z</time></trkpt><trkpt lat="45.7465779" lon="9.4418514"><ele>231.66666666666666</ele><time>2026-03-25T12:22:43.367Z</time></trkpt><trkpt lat="45.7466333" lon="9.4417842"><ele>231.83333333333331</ele><time>2026-03-25T12:22:44.367Z</time></trkpt><trkpt lat="45.7467003" lon="9.4417237"><ele>232.0</ele><time>2026-03-25T12:22:45.367Z</time></trkpt><trkpt lat="45.7467643" lon="9.4416547"><ele>231.99999999999997</ele><time>2026-03-25T12:22:46.368Z</time></trkpt><trkpt lat="45.7468216" lon="9.4415844"><ele>232.0</ele><time>2026-03-25T12:22:47.367Z</time></trkpt><trkpt lat="45.746885" lon="9.4415144"><ele>232.0</ele><time>2026-03-25T12:22:48.367Z</time></trkpt><trkpt lat="45.7469594" lon="9.4414437"><ele>232.0</ele><time>2026-03-25T12:22:49.368Z</time></trkpt><trkpt lat="45.7470368" lon="9.4413662"><ele>231.99999999999997</ele><time>2026-03-25T12:22:50.368Z</time></trkpt><trkpt lat="45.7471124" lon="9.4412908"><ele>232.0</ele><time>2026-03-25T12:22:51.368Z</time></trkpt><trkpt lat="45.7471955" lon="9.441221"><ele>230.39999999999998</ele><time>2026-03-25T12:22:52.367Z</time></trkpt><trkpt lat="45.7472823" lon="9.4411567"><ele>228.79999999999998</ele><time>2026-03-25T12:22:53.368Z</time></trkpt><trkpt lat="45.7473696" lon="9.4410866"><ele>227.2</ele><time>2026-03-25T12:22:54.368Z</time></trkpt><trkpt lat="45.747459" lon="9.4410191"><ele>225.6</ele><time>2026-03-25T12:22:55.368Z</time></trkpt><trkpt lat="45.7475529" lon="9.4409628"><ele>224.0</ele><time>2026-03-25T12:22:56.368Z</time></trkpt><trkpt lat="45.7476485" lon="9.440914"><ele>224.0</ele><time>2026-03-25T12:22:57.368Z</time></trkpt><trkpt lat="45.747745" lon="9.4408579"><ele>223.99999999999997</ele><time>2026-03-25T12:22:58.368Z</time></trkpt><trkpt lat="45.7478328" lon="9.4408062"><ele>223.99999999999997</ele><time>2026-03-25T12:22:59.368Z</time></trkpt><trkpt lat="45.7479314" lon="9.4407604"><ele>224.0</ele><time>2026-03-25T12:23:00.368Z</time></trkpt><trkpt lat="45.7480295" lon="9.440723"><ele>224.0</ele><time>2026-03-25T12:23:01.368Z</time></trkpt><trkpt lat="45.7481206" lon="9.4406831"><ele>224.0</ele><time>2026-03-25T12:23:02.368Z</time></trkpt><trkpt lat="45.7482109" lon="9.4406414"><ele>223.99999999999997</ele><time>2026-03-25T12:23:03.368Z</time></trkpt><trkpt lat="45.748299" lon="9.4405921"><ele>223.99999999999997</ele><time>2026-03-25T12:23:04.368Z</time></trkpt><trkpt lat="45.748389" lon="9.4405555"><ele>224.0</ele><time>2026-03-25T12:23:05.368Z</time></trkpt><trkpt lat="45.7484841" lon="9.4405342"><ele>224.0</ele><time>2026-03-25T12:23:06.367Z</time></trkpt><trkpt lat="45.7485804" lon="9.4405209"><ele>223.6</ele><time>2026-03-25T12:23:07.368Z</time></trkpt><trkpt lat="45.7486799" lon="9.440503"><ele>223.2</ele><time>2026-03-25T12:23:08.368Z</time></trkpt><trkpt lat="45.7487748" lon="9.4404851"><ele>222.79999999999998</ele><time>2026-03-25T12:23:09.367Z</time></trkpt><trkpt lat="45.7488736" lon="9.4404646"><ele>222.39999999999998</ele><time>2026-03-25T12:23:10.368Z</time></trkpt><trkpt lat="45.7489753" lon="9.4404369"><ele>222.0</ele><time>2026-03-25T12:23:11.368Z</time></trkpt><trkpt lat="45.749076" lon="9.440401"><ele>219.6</ele><time>2026-03-25T12:23:12.368Z</time></trkpt><trkpt lat="45.7491771" lon="9.4403574"><ele>217.2</ele><time>2026-03-25T12:23:13.368Z</time></trkpt><trkpt lat="45.7492791" lon="9.4403106"><ele>214.8</ele><time>2026-03-25T12:23:14.368Z</time></trkpt><trkpt lat="45.7493822" lon="9.4402578"><ele>212.4</ele><time>2026-03-25T12:23:15.367Z</time></trkpt><trkpt lat="45.7494879" lon="9.4402072"><ele>210.0</ele><time>2026-03-25T12:23:16.368Z</time></trkpt><trkpt lat="45.749595" lon="9.4401621"><ele>210.0</ele><time>2026-03-25T12:23:17.367Z</time></trkpt><trkpt lat="45.7497055" lon="9.4401213"><ele>210.0</ele><time>2026-03-25T12:23:18.368Z</time></trkpt><trkpt lat="45.7498146" lon="9.440073"><ele>210.0</ele><time>2026-03-25T12:23:19.368Z</time></trkpt><trkpt lat="45.7499212" lon="9.4400235"><ele>210.0</ele><time>2026-03-25T12:23:20.368Z</time></trkpt><trkpt lat="45.7500298" lon="9.4399778"><ele>210.0</ele><time>2026-03-25T12:23:21.368Z</time></trkpt><trkpt lat="45.7501393" lon="9.4399367"><ele>210.0</ele><time>2026-03-25T12:23:22.368Z</time></trkpt><trkpt lat="45.7502474" lon="9.4398942"><ele>210.0</ele><time>2026-03-25T12:23:23.368Z</time></trkpt><trkpt lat="45.7503534" lon="9.4398523"><ele>210.0</ele><time>2026-03-25T12:23:24.368Z</time></trkpt><trkpt lat="45.7504584" lon="9.4398111"><ele>210.0</ele><time>2026-03-25T12:23:25.367Z</time></trkpt><trkpt lat="45.7505623" lon="9.4397714"><ele>209.8</ele><time>2026-03-25T12:23:26.368Z</time></trkpt><trkpt lat="45.7506666" lon="9.4397341"><ele>209.6</ele><time>2026-03-25T12:23:27.367Z</time></trkpt><trkpt lat="45.7507674" lon="9.4396916"><ele>209.39999999999998</ele><time>2026-03-25T12:23:28.367Z</time></trkpt><trkpt lat="45.7508675" lon="9.4396526"><ele>209.2</ele><time>2026-03-25T12:23:29.368Z</time></trkpt><trkpt lat="45.7509663" lon="9.4396094"><ele>209.0</ele><time>2026-03-25T12:23:30.368Z</time></trkpt><trkpt lat="45.7510617" lon="9.439565"><ele>207.6</ele><time>2026-03-25T12:23:31.368Z</time></trkpt><trkpt lat="45.7511586" lon="9.4395242"><ele>206.2</ele><time>2026-03-25T12:23:32.368Z</time></trkpt><trkpt lat="45.751255" lon="9.439484"><ele>204.79999999999998</ele><time>2026-03-25T12:23:33.368Z</time></trkpt><trkpt lat="45.7513489" lon="9.4394451"><ele>203.39999999999998</ele><time>2026-03-25T12:23:34.368Z</time></trkpt><trkpt lat="45.7514414" lon="9.4394064"><ele>202.0</ele><time>2026-03-25T12:23:35.367Z</time></trkpt><trkpt lat="45.7515345" lon="9.4393626"><ele>202.0</ele><time>2026-03-25T12:23:36.367Z</time></trkpt><trkpt lat="45.7516303" lon="9.4393254"><ele>202.0</ele><time>2026-03-25T12:23:37.368Z</time></trkpt><trkpt lat="45.7517226" lon="9.4392865"><ele>202.0</ele><time>2026-03-25T12:23:38.368Z</time></trkpt><trkpt lat="45.7518152" lon="9.4392454"><ele>202.0</ele><time>2026-03-25T12:23:39.368Z</time></trkpt><trkpt lat="45.7519083" lon="9.4392"><ele>202.0</ele><time>2026-03-25T12:23:40.368Z</time></trkpt><trkpt lat="45.7520054" lon="9.4391518"><ele>201.8</ele><time>2026-03-25T12:23:41.368Z</time></trkpt><trkpt lat="45.7520943" lon="9.4390879"><ele>201.6</ele><time>2026-03-25T12:23:42.368Z</time></trkpt><trkpt lat="45.7521778" lon="9.4390034"><ele>201.4</ele><time>2026-03-25T12:23:43.368Z</time></trkpt><trkpt lat="45.7522501" lon="9.438904"><ele>201.20000000000002</ele><time>2026-03-25T12:23:44.368Z</time></trkpt><trkpt lat="45.7523036" lon="9.4387806"><ele>201.0</ele><time>2026-03-25T12:23:45.368Z</time></trkpt><trkpt lat="45.7523449" lon="9.4386526"><ele>201.0</ele><time>2026-03-25T12:23:46.368Z</time></trkpt><trkpt lat="45.7523751" lon="9.4385131"><ele>201.0</ele><time>2026-03-25T12:23:47.368Z</time></trkpt><trkpt lat="45.7523964" lon="9.43837"><ele>201.0</ele><time>2026-03-25T12:23:48.368Z</time></trkpt><trkpt lat="45.7524105" lon="9.4382264"><ele>201.0</ele><time>2026-03-25T12:23:49.367Z</time></trkpt><trkpt lat="45.7524257" lon="9.4380814"><ele>201.0</ele><time>2026-03-25T12:23:50.368Z</time></trkpt><trkpt lat="45.7524389" lon="9.4379424"><ele>200.60000000000002</ele><time>2026-03-25T12:23:51.368Z</time></trkpt><trkpt lat="45.7524545" lon="9.4378039"><ele>200.2</ele><time>2026-03-25T12:23:52.367Z</time></trkpt><trkpt lat="45.7524727" lon="9.4376648"><ele>199.8</ele><time>2026-03-25T12:23:53.368Z</time></trkpt><trkpt lat="45.7524891" lon="9.4375243"><ele>199.39999999999998</ele><time>2026-03-25T12:23:54.367Z</time></trkpt><trkpt lat="45.7525112" lon="9.4373836"><ele>199.0</ele><time>2026-03-25T12:23:55.368Z</time></trkpt><trkpt lat="45.7525318" lon="9.4372435"><ele>199.0</ele><time>2026-03-25T12:23:56.368Z</time></trkpt><trkpt lat="45.7525544" lon="9.4371046"><ele>199.0</ele><time>2026-03-25T12:23:57.367Z</time></trkpt><trkpt lat="45.7525737" lon="9.436963"><ele>199.0</ele><time>2026-03-25T12:23:58.368Z</time></trkpt><trkpt lat="45.7525916" lon="9.4368244"><ele>199.0</ele><time>2026-03-25T12:23:59.368Z</time></trkpt><trkpt lat="45.7526081" lon="9.4366801"><ele>199.0</ele><time>2026-03-25T12:24:00.367Z</time></trkpt><trkpt lat="45.7526266" lon="9.4365398"><ele>199.0</ele><time>2026-03-25T12:24:01.367Z</time></trkpt><trkpt lat="45.7526434" lon="9.4364028"><ele>199.0</ele><time>2026-03-25T12:24:02.368Z</time></trkpt><trkpt lat="45.752651" lon="9.436259"><ele>199.0</ele><time>2026-03-25T12:24:03.367Z</time></trkpt><trkpt lat="45.752653" lon="9.436112"><ele>199.0</ele><time>2026-03-25T12:24:04.368Z</time></trkpt><trkpt lat="45.7526499" lon="9.4359695"><ele>199.0</ele><time>2026-03-25T12:24:05.368Z</time></trkpt><trkpt lat="45.7526405" lon="9.4358223"><ele>199.2</ele><time>2026-03-25T12:24:06.368Z</time></trkpt><trkpt lat="45.7526319" lon="9.4356733"><ele>199.39999999999998</ele><time>2026-03-25T12:24:07.368Z</time></trkpt><trkpt lat="45.7526225" lon="9.4355261"><ele>199.6</ele><time>2026-03-25T12:24:08.368Z</time></trkpt><trkpt lat="45.7526175" lon="9.435378"><ele>199.8</ele><time>2026-03-25T12:24:09.367Z</time></trkpt><trkpt lat="45.7526158" lon="9.4352299"><ele>200.0</ele><time>2026-03-25T12:24:10.368Z</time></trkpt><trkpt lat="45.7526174" lon="9.4350866"><ele>199.8</ele><time>2026-03-25T12:24:11.368Z</time></trkpt><trkpt lat="45.7526252" lon="9.4349428"><ele>199.6</ele><time>2026-03-25T12:24:12.367Z</time></trkpt><trkpt lat="45.7526369" lon="9.4348056"><ele>199.39999999999998</ele><time>2026-03-25T12:24:13.367Z</time></trkpt><trkpt lat="45.7526588" lon="9.4346705"><ele>199.2</ele><time>2026-03-25T12:24:14.368Z</time></trkpt><trkpt lat="45.7526835" lon="9.4345327"><ele>199.0</ele><time>2026-03-25T12:24:15.367Z</time></trkpt><trkpt lat="45.7527088" lon="9.434397"><ele>199.0</ele><time>2026-03-25T12:24:16.367Z</time></trkpt><trkpt lat="45.7527314" lon="9.4342638"><ele>199.0</ele><time>2026-03-25T12:24:17.367Z</time></trkpt><trkpt lat="45.7527602" lon="9.4341355"><ele>199.0</ele><time>2026-03-25T12:24:18.368Z</time></trkpt><trkpt lat="45.7528038" lon="9.4340146"><ele>199.0</ele><time>2026-03-25T12:24:19.368Z</time></trkpt><trkpt lat="45.7528548" lon="9.4339001"><ele>199.0</ele><time>2026-03-25T12:24:20.368Z</time></trkpt><trkpt lat="45.7529005" lon="9.433779"><ele>199.79999999999998</ele><time>2026-03-25T12:24:21.367Z</time></trkpt><trkpt lat="45.7529338" lon="9.433649"><ele>200.6</ele><time>2026-03-25T12:24:22.368Z</time></trkpt><trkpt lat="45.7529632" lon="9.4335201"><ele>201.4</ele><time>2026-03-25T12:24:23.367Z</time></trkpt><trkpt lat="45.7530001" lon="9.4334025"><ele>202.2</ele><time>2026-03-25T12:24:24.368Z</time></trkpt><trkpt lat="45.7530475" lon="9.4332871"><ele>203.0</ele><time>2026-03-25T12:24:25.367Z</time></trkpt><trkpt lat="45.7530906" lon="9.4331674"><ele>203.0</ele><time>2026-03-25T12:24:26.367Z</time></trkpt><trkpt lat="45.7531317" lon="9.4330435"><ele>203.0</ele><time>2026-03-25T12:24:27.368Z</time></trkpt><trkpt lat="45.7531731" lon="9.432916"><ele>203.0</ele><time>2026-03-25T12:24:28.368Z</time></trkpt><trkpt lat="45.7532118" lon="9.432789"><ele>203.0</ele><time>2026-03-25T12:24:29.368Z</time></trkpt><trkpt lat="45.7532465" lon="9.4326599"><ele>203.0</ele><time>2026-03-25T12:24:30.368Z</time></trkpt><trkpt lat="45.7532795" lon="9.4325318"><ele>203.0</ele><time>2026-03-25T12:24:31.367Z</time></trkpt><trkpt lat="45.7533144" lon="9.4324006"><ele>203.0</ele><time>2026-03-25T12:24:32.368Z</time></trkpt><trkpt lat="45.7533434" lon="9.4322669"><ele>203.0</ele><time>2026-03-25T12:24:33.368Z</time></trkpt><trkpt lat="45.7533719" lon="9.4321349"><ele>203.0</ele><time>2026-03-25T12:24:34.368Z</time></trkpt><trkpt lat="45.7533937" lon="9.4319981"><ele>203.0</ele><time>2026-03-25T12:24:35.368Z</time></trkpt><trkpt lat="45.7534096" lon="9.431863"><ele>203.2</ele><time>2026-03-25T12:24:36.368Z</time></trkpt><trkpt lat="45.7534259" lon="9.4317268"><ele>203.4</ele><time>2026-03-25T12:24:37.368Z</time></trkpt><trkpt lat="45.7534425" lon="9.4315944"><ele>203.6</ele><time>2026-03-25T12:24:38.368Z</time></trkpt><trkpt lat="45.7534646" lon="9.431469"><ele>203.79999999999998</ele><time>2026-03-25T12:24:39.368Z</time></trkpt><trkpt lat="45.7534823" lon="9.431338"><ele>204.0</ele><time>2026-03-25T12:24:40.368Z</time></trkpt><trkpt lat="45.7535001" lon="9.4312066"><ele>204.39999999999998</ele><time>2026-03-25T12:24:41.367Z</time></trkpt><trkpt lat="45.7535176" lon="9.4310777"><ele>204.8</ele><time>2026-03-25T12:24:42.368Z</time></trkpt><trkpt lat="45.7535292" lon="9.4309449"><ele>205.2</ele><time>2026-03-25T12:24:43.368Z</time></trkpt><trkpt lat="45.7535431" lon="9.4308111"><ele>205.60000000000002</ele><time>2026-03-25T12:24:44.368Z</time></trkpt><trkpt lat="45.7535565" lon="9.4306773"><ele>206.0</ele><time>2026-03-25T12:24:45.368Z</time></trkpt><trkpt lat="45.7535722" lon="9.4305452"><ele>206.33333333333334</ele><time>2026-03-25T12:24:46.368Z</time></trkpt><trkpt lat="45.7535876" lon="9.430415"><ele>206.66666666666669</ele><time>2026-03-25T12:24:47.368Z</time></trkpt><trkpt lat="45.7536136" lon="9.430294"><ele>207.0</ele><time>2026-03-25T12:24:48.367Z</time></trkpt><trkpt lat="45.7536441" lon="9.4301754"><ele>207.33333333333331</ele><time>2026-03-25T12:24:49.368Z</time></trkpt><trkpt lat="45.7536775" lon="9.4300588"><ele>207.66666666666666</ele><time>2026-03-25T12:24:50.367Z</time></trkpt><trkpt lat="45.7537163" lon="9.4299419"><ele>208.0</ele><time>2026-03-25T12:24:51.368Z</time></trkpt><trkpt lat="45.7537563" lon="9.429829"><ele>207.99999999999997</ele><time>2026-03-25T12:24:52.368Z</time></trkpt><trkpt lat="45.7537948" lon="9.42972"><ele>208.0</ele><time>2026-03-25T12:24:53.368Z</time></trkpt><trkpt lat="45.7538372" lon="9.4296098"><ele>208.0</ele><time>2026-03-25T12:24:54.368Z</time></trkpt><trkpt lat="45.7538797" lon="9.4295032"><ele>208.0</ele><time>2026-03-25T12:24:55.368Z</time></trkpt><trkpt lat="45.7539232" lon="9.4293907"><ele>207.99999999999997</ele><time>2026-03-25T12:24:56.368Z</time></trkpt><trkpt lat="45.7539731" lon="9.4292825"><ele>208.0</ele><time>2026-03-25T12:24:57.367Z</time></trkpt><trkpt lat="45.7540285" lon="9.4291786"><ele>208.2</ele><time>2026-03-25T12:24:58.367Z</time></trkpt><trkpt lat="45.7540778" lon="9.4290748"><ele>208.4</ele><time>2026-03-25T12:24:59.368Z</time></trkpt><trkpt lat="45.7541337" lon="9.4289671"><ele>208.6</ele><time>2026-03-25T12:25:00.367Z</time></trkpt><trkpt lat="45.7541817" lon="9.4288578"><ele>208.79999999999998</ele><time>2026-03-25T12:25:01.368Z</time></trkpt><trkpt lat="45.7542236" lon="9.4287464"><ele>209.0</ele><time>2026-03-25T12:25:02.368Z</time></trkpt><trkpt lat="45.7542733" lon="9.4286323"><ele>209.00000000000003</ele><time>2026-03-25T12:25:03.367Z</time></trkpt><trkpt lat="45.754327" lon="9.4285233"><ele>209.0</ele><time>2026-03-25T12:25:04.368Z</time></trkpt><trkpt lat="45.7543719" lon="9.428413"><ele>209.0</ele><time>2026-03-25T12:25:05.368Z</time></trkpt><trkpt lat="45.7544145" lon="9.4282991"><ele>209.0</ele><time>2026-03-25T12:25:06.368Z</time></trkpt><trkpt lat="45.7544576" lon="9.4281881"><ele>209.00000000000003</ele><time>2026-03-25T12:25:07.368Z</time></trkpt><trkpt lat="45.7544978" lon="9.4280762"><ele>209.0</ele><time>2026-03-25T12:25:08.368Z</time></trkpt><trkpt lat="45.7545433" lon="9.4279671"><ele>210.33333333333334</ele><time>2026-03-25T12:25:09.367Z</time></trkpt><trkpt lat="45.754585" lon="9.4278565"><ele>211.66666666666669</ele><time>2026-03-25T12:25:10.368Z</time></trkpt><trkpt lat="45.7546237" lon="9.4277448"><ele>213.0</ele><time>2026-03-25T12:25:11.368Z</time></trkpt><trkpt lat="45.7546656" lon="9.4276317"><ele>214.33333333333331</ele><time>2026-03-25T12:25:12.367Z</time></trkpt><trkpt lat="45.7547071" lon="9.4275244"><ele>215.66666666666666</ele><time>2026-03-25T12:25:13.368Z</time></trkpt><trkpt lat="45.7547522" lon="9.4274166"><ele>217.0</ele><time>2026-03-25T12:25:14.367Z</time></trkpt><trkpt lat="45.7547991" lon="9.4273124"><ele>216.99999999999997</ele><time>2026-03-25T12:25:15.368Z</time></trkpt><trkpt lat="45.7548482" lon="9.4272089"><ele>217.0</ele><time>2026-03-25T12:25:16.367Z</time></trkpt><trkpt lat="45.7548917" lon="9.4271044"><ele>217.0</ele><time>2026-03-25T12:25:17.368Z</time></trkpt><trkpt lat="45.7549282" lon="9.4270243"><ele>217.0</ele><time>2026-03-25T12:25:18.368Z</time></trkpt><trkpt lat="45.7549791" lon="9.4269236"><ele>216.99999999999997</ele><time>2026-03-25T12:25:20.367Z</time></trkpt><trkpt lat="45.7550422" lon="9.4269009"><ele>217.0</ele><time>2026-03-25T12:25:23.368Z</time></trkpt><trkpt lat="45.7551094" lon="9.4268344"><ele>217.2</ele><time>2026-03-25T12:25:26.368Z</time></trkpt><trkpt lat="45.755156" lon="9.4267574"><ele>217.39999999999998</ele><time>2026-03-25T12:25:28.368Z</time></trkpt><trkpt lat="45.7552555" lon="9.4267056"><ele>217.60000000000002</ele><time>2026-03-25T12:25:30.368Z</time></trkpt><trkpt lat="45.755346" lon="9.4267095"><ele>217.8</ele><time>2026-03-25T12:25:32.368Z</time></trkpt><trkpt lat="45.7554546" lon="9.4267157"><ele>218.0</ele><time>2026-03-25T12:25:34.368Z</time></trkpt><trkpt lat="45.7555768" lon="9.4267299"><ele>218.00000000000003</ele><time>2026-03-25T12:25:36.368Z</time></trkpt><trkpt lat="45.7556434" lon="9.4267356"><ele>218.0</ele><time>2026-03-25T12:25:37.367Z</time></trkpt><trkpt lat="45.7557083" lon="9.426756"><ele>218.0</ele><time>2026-03-25T12:25:38.368Z</time></trkpt><trkpt lat="45.7558102" lon="9.4268207"><ele>218.0</ele><time>2026-03-25T12:25:40.368Z</time></trkpt><trkpt lat="45.7558943" lon="9.4268747"><ele>218.00000000000003</ele><time>2026-03-25T12:25:42.368Z</time></trkpt><trkpt lat="45.7559805" lon="9.426858"><ele>218.0</ele><time>2026-03-25T12:25:44.368Z</time></trkpt><trkpt lat="45.7560925" lon="9.4268073"><ele>218.00000000000003</ele><time>2026-03-25T12:25:46.368Z</time></trkpt><trkpt lat="45.7561655" lon="9.4267955"><ele>218.0</ele><time>2026-03-25T12:25:47.367Z</time></trkpt><trkpt lat="45.756246" lon="9.4267857"><ele>218.0</ele><time>2026-03-25T12:25:48.368Z</time></trkpt><trkpt lat="45.7563185" lon="9.4267729"><ele>218.0</ele><time>2026-03-25T12:25:49.368Z</time></trkpt><trkpt lat="45.7563971" lon="9.4267669"><ele>218.00000000000003</ele><time>2026-03-25T12:25:50.367Z</time></trkpt><trkpt lat="45.7564799" lon="9.4267628"><ele>218.0</ele><time>2026-03-25T12:25:51.368Z</time></trkpt><trkpt lat="45.7565532" lon="9.4267695"><ele>218.00000000000003</ele><time>2026-03-25T12:25:52.368Z</time></trkpt><trkpt lat="45.7566355" lon="9.4267745"><ele>218.0</ele><time>2026-03-25T12:25:53.368Z</time></trkpt><trkpt lat="45.7567213" lon="9.4267815"><ele>218.0</ele><time>2026-03-25T12:25:54.367Z</time></trkpt><trkpt lat="45.7568012" lon="9.4267815"><ele>218.0</ele><time>2026-03-25T12:25:55.368Z</time></trkpt><trkpt lat="45.7568846" lon="9.4267794"><ele>218.00000000000003</ele><time>2026-03-25T12:25:56.367Z</time></trkpt><trkpt lat="45.7569687" lon="9.4267832"><ele>218.0</ele><time>2026-03-25T12:25:57.368Z</time></trkpt><trkpt lat="45.7570578" lon="9.4267933"><ele>216.8</ele><time>2026-03-25T12:25:58.368Z</time></trkpt><trkpt lat="45.757153" lon="9.4267987"><ele>215.60000000000002</ele><time>2026-03-25T12:25:59.367Z</time></trkpt><trkpt lat="45.7572463" lon="9.4268052"><ele>214.39999999999998</ele><time>2026-03-25T12:26:00.368Z</time></trkpt><trkpt lat="45.7573352" lon="9.4268147"><ele>213.2</ele><time>2026-03-25T12:26:01.368Z</time></trkpt><trkpt lat="45.7574286" lon="9.4268184"><ele>212.0</ele><time>2026-03-25T12:26:02.367Z</time></trkpt><trkpt lat="45.7575216" lon="9.4268192"><ele>212.0</ele><time>2026-03-25T12:26:03.368Z</time></trkpt><trkpt lat="45.7576156" lon="9.4268242"><ele>212.0</ele><time>2026-03-25T12:26:04.367Z</time></trkpt><trkpt lat="45.757709" lon="9.4268328"><ele>212.0</ele><time>2026-03-25T12:26:05.368Z</time></trkpt><trkpt lat="45.7578069" lon="9.4268328"><ele>212.0</ele><time>2026-03-25T12:26:06.368Z</time></trkpt><trkpt lat="45.7578989" lon="9.426838"><ele>212.0</ele><time>2026-03-25T12:26:07.367Z</time></trkpt><trkpt lat="45.7579948" lon="9.4268471"><ele>212.0</ele><time>2026-03-25T12:26:08.367Z</time></trkpt><trkpt lat="45.7580926" lon="9.4268478"><ele>212.0</ele><time>2026-03-25T12:26:09.368Z</time></trkpt><trkpt lat="45.7581882" lon="9.42685"><ele>212.0</ele><time>2026-03-25T12:26:10.368Z</time></trkpt><trkpt lat="45.7582809" lon="9.4268548"><ele>212.0</ele><time>2026-03-25T12:26:11.368Z</time></trkpt><trkpt lat="45.7583774" lon="9.4268622"><ele>212.0</ele><time>2026-03-25T12:26:12.368Z</time></trkpt><trkpt lat="45.7584752" lon="9.4268665"><ele>214.0</ele><time>2026-03-25T12:26:13.368Z</time></trkpt><trkpt lat="45.7585709" lon="9.4268638"><ele>216.0</ele><time>2026-03-25T12:26:14.368Z</time></trkpt><trkpt lat="45.7586641" lon="9.4268627"><ele>218.0</ele><time>2026-03-25T12:26:15.368Z</time></trkpt><trkpt lat="45.7587573" lon="9.4268589"><ele>220.0</ele><time>2026-03-25T12:26:16.368Z</time></trkpt><trkpt lat="45.7588524" lon="9.4268523"><ele>222.0</ele><time>2026-03-25T12:26:17.368Z</time></trkpt><trkpt lat="45.7589518" lon="9.4268482"><ele>222.0</ele><time>2026-03-25T12:26:18.368Z</time></trkpt><trkpt lat="45.7590502" lon="9.4268476"><ele>222.0</ele><time>2026-03-25T12:26:19.368Z</time></trkpt><trkpt lat="45.7591465" lon="9.426843"><ele>222.0</ele><time>2026-03-25T12:26:20.368Z</time></trkpt><trkpt lat="45.7592444" lon="9.426838"><ele>222.0</ele><time>2026-03-25T12:26:21.367Z</time></trkpt><trkpt lat="45.759346" lon="9.4268369"><ele>222.0</ele><time>2026-03-25T12:26:22.368Z</time></trkpt><trkpt lat="45.759448" lon="9.4268339"><ele>220.39999999999998</ele><time>2026-03-25T12:26:23.368Z</time></trkpt><trkpt lat="45.759546" lon="9.4268277"><ele>218.79999999999998</ele><time>2026-03-25T12:26:24.368Z</time></trkpt><trkpt lat="45.7596392" lon="9.4268178"><ele>217.2</ele><time>2026-03-25T12:26:25.368Z</time></trkpt><trkpt lat="45.7597359" lon="9.4268119"><ele>215.6</ele><time>2026-03-25T12:26:26.368Z</time></trkpt><trkpt lat="45.75983" lon="9.4268104"><ele>214.0</ele><time>2026-03-25T12:26:27.367Z</time></trkpt><trkpt lat="45.7599229" lon="9.4268014"><ele>214.0</ele><time>2026-03-25T12:26:28.367Z</time></trkpt><trkpt lat="45.7600169" lon="9.4267858"><ele>213.99999999999997</ele><time>2026-03-25T12:26:29.368Z</time></trkpt><trkpt lat="45.7601086" lon="9.426776"><ele>213.99999999999997</ele><time>2026-03-25T12:26:30.367Z</time></trkpt><trkpt lat="45.7602047" lon="9.4267648"><ele>214.0</ele><time>2026-03-25T12:26:31.367Z</time></trkpt><trkpt lat="45.7603001" lon="9.4267503"><ele>214.0</ele><time>2026-03-25T12:26:32.368Z</time></trkpt><trkpt lat="45.7603944" lon="9.4267398"><ele>213.2</ele><time>2026-03-25T12:26:33.367Z</time></trkpt><trkpt lat="45.76049" lon="9.4267329"><ele>212.39999999999998</ele><time>2026-03-25T12:26:34.368Z</time></trkpt><trkpt lat="45.7605899" lon="9.4267285"><ele>211.6</ele><time>2026-03-25T12:26:35.367Z</time></trkpt><trkpt lat="45.7606926" lon="9.4267185"><ele>210.8</ele><time>2026-03-25T12:26:36.368Z</time></trkpt><trkpt lat="45.7607922" lon="9.426707"><ele>210.0</ele><time>2026-03-25T12:26:37.368Z</time></trkpt><trkpt lat="45.7608974" lon="9.4267012"><ele>210.0</ele><time>2026-03-25T12:26:38.368Z</time></trkpt><trkpt lat="45.7609972" lon="9.4266945"><ele>210.0</ele><time>2026-03-25T12:26:39.368Z</time></trkpt><trkpt lat="45.7610998" lon="9.4266869"><ele>210.0</ele><time>2026-03-25T12:26:40.368Z</time></trkpt><trkpt lat="45.7612012" lon="9.4266765"><ele>210.0</ele><time>2026-03-25T12:26:41.367Z</time></trkpt><trkpt lat="45.7613005" lon="9.4266698"><ele>210.0</ele><time>2026-03-25T12:26:42.367Z</time></trkpt><trkpt lat="45.7614072" lon="9.4266707"><ele>210.2</ele><time>2026-03-25T12:26:43.368Z</time></trkpt><trkpt lat="45.7615162" lon="9.4266636"><ele>210.4</ele><time>2026-03-25T12:26:44.368Z</time></trkpt><trkpt lat="45.7616233" lon="9.426656"><ele>210.60000000000002</ele><time>2026-03-25T12:26:45.368Z</time></trkpt><trkpt lat="45.7617338" lon="9.4266544"><ele>210.8</ele><time>2026-03-25T12:26:46.368Z</time></trkpt><trkpt lat="45.7618467" lon="9.4266536"><ele>211.0</ele><time>2026-03-25T12:26:47.368Z</time></trkpt><trkpt lat="45.7619528" lon="9.4266435"><ele>211.8</ele><time>2026-03-25T12:26:48.367Z</time></trkpt><trkpt lat="45.7620589" lon="9.42663"><ele>212.60000000000002</ele><time>2026-03-25T12:26:49.368Z</time></trkpt><trkpt lat="45.7621679" lon="9.4266151"><ele>213.4</ele><time>2026-03-25T12:26:50.368Z</time></trkpt><trkpt lat="45.7622801" lon="9.4266093"><ele>214.2</ele><time>2026-03-25T12:26:51.368Z</time></trkpt><trkpt lat="45.762391" lon="9.4265954"><ele>215.0</ele><time>2026-03-25T12:26:52.368Z</time></trkpt><trkpt lat="45.7625016" lon="9.4265829"><ele>215.0</ele><time>2026-03-25T12:26:53.367Z</time></trkpt><trkpt lat="45.7626134" lon="9.4265639"><ele>215.0</ele><time>2026-03-25T12:26:54.368Z</time></trkpt><trkpt lat="45.7627235" lon="9.4265446"><ele>215.0</ele><time>2026-03-25T12:26:55.368Z</time></trkpt><trkpt lat="45.762834" lon="9.426524"><ele>215.0</ele><time>2026-03-25T12:26:56.368Z</time></trkpt><trkpt lat="45.7629452" lon="9.4264959"><ele>215.0</ele><time>2026-03-25T12:26:57.368Z</time></trkpt><trkpt lat="45.7630547" lon="9.4264695"><ele>212.5</ele><time>2026-03-25T12:26:58.367Z</time></trkpt><trkpt lat="45.7631681" lon="9.4264414"><ele>210.0</ele><time>2026-03-25T12:26:59.368Z</time></trkpt><trkpt lat="45.7632777" lon="9.4264031"><ele>207.5</ele><time>2026-03-25T12:27:00.368Z</time></trkpt><trkpt lat="45.7633875" lon="9.4263578"><ele>205.0</ele><time>2026-03-25T12:27:01.368Z</time></trkpt><trkpt lat="45.7634988" lon="9.4263116"><ele>207.0</ele><time>2026-03-25T12:27:02.368Z</time></trkpt><trkpt lat="45.7636107" lon="9.4262646"><ele>209.0</ele><time>2026-03-25T12:27:03.368Z</time></trkpt><trkpt lat="45.7637271" lon="9.4262154"><ele>211.0</ele><time>2026-03-25T12:27:04.368Z</time></trkpt><trkpt lat="45.7638432" lon="9.4261665"><ele>213.0</ele><time>2026-03-25T12:27:05.367Z</time></trkpt><trkpt lat="45.7639545" lon="9.4261248"><ele>213.0</ele><time>2026-03-25T12:27:06.368Z</time></trkpt><trkpt lat="45.7640696" lon="9.4260823"><ele>213.0</ele><time>2026-03-25T12:27:07.368Z</time></trkpt><trkpt lat="45.7641793" lon="9.4260389"><ele>213.0</ele><time>2026-03-25T12:27:08.367Z</time></trkpt><trkpt lat="45.7642901" lon="9.4259907"><ele>213.0</ele><time>2026-03-25T12:27:09.368Z</time></trkpt><trkpt lat="45.7644012" lon="9.425944"><ele>210.5</ele><time>2026-03-25T12:27:10.367Z</time></trkpt><trkpt lat="45.764514" lon="9.4258928"><ele>208.0</ele><time>2026-03-25T12:27:11.367Z</time></trkpt><trkpt lat="45.7646283" lon="9.4258489"><ele>205.5</ele><time>2026-03-25T12:27:12.368Z</time></trkpt><trkpt lat="45.764742" lon="9.4258058"><ele>203.0</ele><time>2026-03-25T12:27:13.368Z</time></trkpt><trkpt lat="45.7648575" lon="9.4257628"><ele>203.0</ele><time>2026-03-25T12:27:14.368Z</time></trkpt><trkpt lat="45.7649704" lon="9.4257177"><ele>203.0</ele><time>2026-03-25T12:27:15.368Z</time></trkpt><trkpt lat="45.7650862" lon="9.4256722"><ele>203.0</ele><time>2026-03-25T12:27:16.368Z</time></trkpt><trkpt lat="45.7651994" lon="9.425625"><ele>203.0</ele><time>2026-03-25T12:27:17.368Z</time></trkpt><trkpt lat="45.7653165" lon="9.425577"><ele>201.75</ele><time>2026-03-25T12:27:18.368Z</time></trkpt><trkpt lat="45.765433" lon="9.4255383"><ele>200.5</ele><time>2026-03-25T12:27:19.367Z</time></trkpt><trkpt lat="45.7655454" lon="9.4254943"><ele>199.25</ele><time>2026-03-25T12:27:20.367Z</time></trkpt><trkpt lat="45.7656567" lon="9.425447"><ele>198.0</ele><time>2026-03-25T12:27:21.367Z</time></trkpt><trkpt lat="45.7657634" lon="9.4253982"><ele>199.60000000000002</ele><time>2026-03-25T12:27:22.368Z</time></trkpt><trkpt lat="45.7658705" lon="9.425353"><ele>201.20000000000002</ele><time>2026-03-25T12:27:23.368Z</time></trkpt><trkpt lat="45.7659811" lon="9.4253076"><ele>202.8</ele><time>2026-03-25T12:27:24.368Z</time></trkpt><trkpt lat="45.766087" lon="9.4252631"><ele>204.4</ele><time>2026-03-25T12:27:25.367Z</time></trkpt><trkpt lat="45.7661942" lon="9.4252192"><ele>206.0</ele><time>2026-03-25T12:27:26.367Z</time></trkpt><trkpt lat="45.7662975" lon="9.4251714"><ele>206.0</ele><time>2026-03-25T12:27:27.367Z</time></trkpt><trkpt lat="45.7664043" lon="9.4251364"><ele>206.0</ele><time>2026-03-25T12:27:28.368Z</time></trkpt><trkpt lat="45.7665091" lon="9.4250939"><ele>206.0</ele><time>2026-03-25T12:27:29.368Z</time></trkpt><trkpt lat="45.7666118" lon="9.4250501"><ele>206.0</ele><time>2026-03-25T12:27:30.367Z</time></trkpt><trkpt lat="45.7667134" lon="9.4250104"><ele>206.0</ele><time>2026-03-25T12:27:31.368Z</time></trkpt><trkpt lat="45.766813" lon="9.424967"><ele>205.4</ele><time>2026-03-25T12:27:32.368Z</time></trkpt><trkpt lat="45.766917" lon="9.4249286"><ele>204.8</ele><time>2026-03-25T12:27:33.368Z</time></trkpt><trkpt lat="45.767015" lon="9.4248952"><ele>204.20000000000002</ele><time>2026-03-25T12:27:34.368Z</time></trkpt><trkpt lat="45.7671154" lon="9.4248655"><ele>203.60000000000002</ele><time>2026-03-25T12:27:35.368Z</time></trkpt><trkpt lat="45.7672134" lon="9.4248445"><ele>203.0</ele><time>2026-03-25T12:27:36.368Z</time></trkpt><trkpt lat="45.7673088" lon="9.4248241"><ele>203.0</ele><time>2026-03-25T12:27:37.367Z</time></trkpt><trkpt lat="45.767406" lon="9.424813"><ele>203.0</ele><time>2026-03-25T12:27:38.368Z</time></trkpt><trkpt lat="45.7675035" lon="9.4248058"><ele>203.0</ele><time>2026-03-25T12:27:39.368Z</time></trkpt><trkpt lat="45.767605" lon="9.424797"><ele>203.0</ele><time>2026-03-25T12:27:40.368Z</time></trkpt><trkpt lat="45.7677058" lon="9.4247956"><ele>203.0</ele><time>2026-03-25T12:27:41.368Z</time></trkpt><trkpt lat="45.7678073" lon="9.4247982"><ele>202.60000000000002</ele><time>2026-03-25T12:27:42.367Z</time></trkpt><trkpt lat="45.7679103" lon="9.4248029"><ele>202.20000000000002</ele><time>2026-03-25T12:27:43.368Z</time></trkpt><trkpt lat="45.7680149" lon="9.4248087"><ele>201.8</ele><time>2026-03-25T12:27:44.368Z</time></trkpt><trkpt lat="45.7681163" lon="9.4248164"><ele>201.4</ele><time>2026-03-25T12:27:45.368Z</time></trkpt><trkpt lat="45.7682198" lon="9.4248219"><ele>201.0</ele><time>2026-03-25T12:27:46.367Z</time></trkpt><trkpt lat="45.7683203" lon="9.42483"><ele>201.0</ele><time>2026-03-25T12:27:47.368Z</time></trkpt><trkpt lat="45.768419" lon="9.4248355"><ele>201.0</ele><time>2026-03-25T12:27:48.368Z</time></trkpt><trkpt lat="45.7685207" lon="9.4248395"><ele>201.0</ele><time>2026-03-25T12:27:49.368Z</time></trkpt><trkpt lat="45.7686192" lon="9.4248436"><ele>201.0</ele><time>2026-03-25T12:27:50.368Z</time></trkpt><trkpt lat="45.7687197" lon="9.4248568"><ele>201.0</ele><time>2026-03-25T12:27:51.368Z</time></trkpt><trkpt lat="45.7688215" lon="9.4248665"><ele>201.20000000000002</ele><time>2026-03-25T12:27:52.368Z</time></trkpt><trkpt lat="45.7689228" lon="9.4248733"><ele>201.4</ele><time>2026-03-25T12:27:53.368Z</time></trkpt><trkpt lat="45.7690278" lon="9.4248791"><ele>201.6</ele><time>2026-03-25T12:27:54.367Z</time></trkpt><trkpt lat="45.7691304" lon="9.4248855"><ele>201.8</ele><time>2026-03-25T12:27:55.368Z</time></trkpt><trkpt lat="45.7692321" lon="9.4248934"><ele>202.0</ele><time>2026-03-25T12:27:56.368Z</time></trkpt><trkpt lat="45.7693371" lon="9.4248996"><ele>202.2</ele><time>2026-03-25T12:27:57.368Z</time></trkpt><trkpt lat="45.7694383" lon="9.424909"><ele>202.39999999999998</ele><time>2026-03-25T12:27:58.368Z</time></trkpt><trkpt lat="45.76954" lon="9.4249182"><ele>202.60000000000002</ele><time>2026-03-25T12:27:59.368Z</time></trkpt><trkpt lat="45.7696394" lon="9.4249268"><ele>202.8</ele><time>2026-03-25T12:28:00.367Z</time></trkpt><trkpt lat="45.7697421" lon="9.4249366"><ele>203.0</ele><time>2026-03-25T12:28:01.368Z</time></trkpt><trkpt lat="45.7698437" lon="9.4249465"><ele>203.0</ele><time>2026-03-25T12:28:02.368Z</time></trkpt><trkpt lat="45.7699439" lon="9.4249546"><ele>203.0</ele><time>2026-03-25T12:28:03.368Z</time></trkpt><trkpt lat="45.7700456" lon="9.424962"><ele>203.0</ele><time>2026-03-25T12:28:04.368Z</time></trkpt><trkpt lat="45.770148" lon="9.424972"><ele>203.0</ele><time>2026-03-25T12:28:05.367Z</time></trkpt><trkpt lat="45.7702518" lon="9.4249823"><ele>203.0</ele><time>2026-03-25T12:28:06.367Z</time></trkpt><trkpt lat="45.7703561" lon="9.4249913"><ele>202.4</ele><time>2026-03-25T12:28:07.368Z</time></trkpt><trkpt lat="45.7704595" lon="9.4249961"><ele>201.8</ele><time>2026-03-25T12:28:08.368Z</time></trkpt><trkpt lat="45.770565" lon="9.4250048"><ele>201.2</ele><time>2026-03-25T12:28:09.368Z</time></trkpt><trkpt lat="45.7706683" lon="9.4250157"><ele>200.6</ele><time>2026-03-25T12:28:10.367Z</time></trkpt><trkpt lat="45.770772" lon="9.4250253"><ele>200.0</ele><time>2026-03-25T12:28:11.368Z</time></trkpt><trkpt lat="45.770876" lon="9.4250302"><ele>200.0</ele><time>2026-03-25T12:28:12.368Z</time></trkpt><trkpt lat="45.7709824" lon="9.4250368"><ele>200.0</ele><time>2026-03-25T12:28:13.368Z</time></trkpt><trkpt lat="45.7710902" lon="9.4250467"><ele>200.0</ele><time>2026-03-25T12:28:14.368Z</time></trkpt><trkpt lat="45.7711996" lon="9.42506"><ele>200.0</ele><time>2026-03-25T12:28:15.368Z</time></trkpt><trkpt lat="45.7713075" lon="9.4250736"><ele>200.0</ele><time>2026-03-25T12:28:16.367Z</time></trkpt><trkpt lat="45.7714154" lon="9.4250813"><ele>200.4</ele><time>2026-03-25T12:28:17.368Z</time></trkpt><trkpt lat="45.7715216" lon="9.4250893"><ele>200.8</ele><time>2026-03-25T12:28:18.368Z</time></trkpt><trkpt lat="45.7716259" lon="9.4250942"><ele>201.2</ele><time>2026-03-25T12:28:19.367Z</time></trkpt><trkpt lat="45.7717325" lon="9.425097"><ele>201.6</ele><time>2026-03-25T12:28:20.368Z</time></trkpt><trkpt lat="45.7718386" lon="9.4251023"><ele>202.0</ele><time>2026-03-25T12:28:21.368Z</time></trkpt><trkpt lat="45.7719394" lon="9.4251147"><ele>202.6</ele><time>2026-03-25T12:28:22.368Z</time></trkpt><trkpt lat="45.7720393" lon="9.4251251"><ele>203.2</ele><time>2026-03-25T12:28:23.368Z</time></trkpt><trkpt lat="45.7721388" lon="9.4251322"><ele>203.8</ele><time>2026-03-25T12:28:24.368Z</time></trkpt><trkpt lat="45.7722366" lon="9.4251361"><ele>204.4</ele><time>2026-03-25T12:28:25.368Z</time></trkpt><trkpt lat="45.7723384" lon="9.4251432"><ele>205.0</ele><time>2026-03-25T12:28:26.368Z</time></trkpt><trkpt lat="45.772438" lon="9.425151"><ele>205.0</ele><time>2026-03-25T12:28:27.367Z</time></trkpt><trkpt lat="45.772538" lon="9.4251602"><ele>205.0</ele><time>2026-03-25T12:28:28.368Z</time></trkpt><trkpt lat="45.7726383" lon="9.425169"><ele>205.0</ele><time>2026-03-25T12:28:29.368Z</time></trkpt><trkpt lat="45.7727349" lon="9.425178"><ele>205.0</ele><time>2026-03-25T12:28:30.368Z</time></trkpt><trkpt lat="45.7728323" lon="9.425187"><ele>205.0</ele><time>2026-03-25T12:28:31.368Z</time></trkpt><trkpt lat="45.772931" lon="9.4251952"><ele>205.0</ele><time>2026-03-25T12:28:32.368Z</time></trkpt><trkpt lat="45.7730308" lon="9.4252032"><ele>205.0</ele><time>2026-03-25T12:28:33.368Z</time></trkpt><trkpt lat="45.7731308" lon="9.4252082"><ele>205.0</ele><time>2026-03-25T12:28:34.367Z</time></trkpt><trkpt lat="45.7732296" lon="9.4252131"><ele>205.0</ele><time>2026-03-25T12:28:35.367Z</time></trkpt><trkpt lat="45.773331" lon="9.4252209"><ele>205.0</ele><time>2026-03-25T12:28:36.368Z</time></trkpt><trkpt lat="45.7734323" lon="9.4252312"><ele>205.6</ele><time>2026-03-25T12:28:37.368Z</time></trkpt><trkpt lat="45.7735325" lon="9.4252369"><ele>206.2</ele><time>2026-03-25T12:28:38.367Z</time></trkpt><trkpt lat="45.7736333" lon="9.425244"><ele>206.8</ele><time>2026-03-25T12:28:39.368Z</time></trkpt><trkpt lat="45.7737303" lon="9.4252527"><ele>207.4</ele><time>2026-03-25T12:28:40.368Z</time></trkpt><trkpt lat="45.773829" lon="9.4252636"><ele>208.0</ele><time>2026-03-25T12:28:41.368Z</time></trkpt><trkpt lat="45.773929" lon="9.4252747"><ele>208.0</ele><time>2026-03-25T12:28:42.368Z</time></trkpt><trkpt lat="45.7740287" lon="9.4252871"><ele>208.0</ele><time>2026-03-25T12:28:43.368Z</time></trkpt><trkpt lat="45.7741266" lon="9.4252954"><ele>208.0</ele><time>2026-03-25T12:28:44.368Z</time></trkpt><trkpt lat="45.7742224" lon="9.4253021"><ele>208.0</ele><time>2026-03-25T12:28:45.368Z</time></trkpt><trkpt lat="45.7743189" lon="9.425307"><ele>208.0</ele><time>2026-03-25T12:28:46.368Z</time></trkpt><trkpt lat="45.7744173" lon="9.4253137"><ele>208.2</ele><time>2026-03-25T12:28:47.367Z</time></trkpt><trkpt lat="45.7745119" lon="9.4253197"><ele>208.4</ele><time>2026-03-25T12:28:48.368Z</time></trkpt><trkpt lat="45.7746036" lon="9.4253234"><ele>208.6</ele><time>2026-03-25T12:28:49.368Z</time></trkpt><trkpt lat="45.7746899" lon="9.4253241"><ele>208.79999999999998</ele><time>2026-03-25T12:28:50.367Z</time></trkpt><trkpt lat="45.7747808" lon="9.4253271"><ele>209.0</ele><time>2026-03-25T12:28:51.367Z</time></trkpt><trkpt lat="45.7748711" lon="9.4253333"><ele>209.0</ele><time>2026-03-25T12:28:52.368Z</time></trkpt><trkpt lat="45.7749665" lon="9.4253445"><ele>209.0</ele><time>2026-03-25T12:28:53.367Z</time></trkpt><trkpt lat="45.7750585" lon="9.4253582"><ele>209.0</ele><time>2026-03-25T12:28:54.368Z</time></trkpt><trkpt lat="45.7751462" lon="9.4253707"><ele>209.0</ele><time>2026-03-25T12:28:55.368Z</time></trkpt><trkpt lat="45.7752321" lon="9.4253867"><ele>209.0</ele><time>2026-03-25T12:28:56.368Z</time></trkpt><trkpt lat="45.7753187" lon="9.4254107"><ele>209.33333333333334</ele><time>2026-03-25T12:28:57.368Z</time></trkpt><trkpt lat="45.7754039" lon="9.4254387"><ele>209.66666666666669</ele><time>2026-03-25T12:28:58.368Z</time></trkpt><trkpt lat="45.7754826" lon="9.4254689"><ele>210.0</ele><time>2026-03-25T12:28:59.368Z</time></trkpt><trkpt lat="45.7755576" lon="9.4255013"><ele>210.33333333333331</ele><time>2026-03-25T12:29:00.368Z</time></trkpt><trkpt lat="45.7756325" lon="9.4255391"><ele>210.66666666666666</ele><time>2026-03-25T12:29:01.367Z</time></trkpt><trkpt lat="45.7756912" lon="9.4255963"><ele>211.0</ele><time>2026-03-25T12:29:02.368Z</time></trkpt><trkpt lat="45.7757436" lon="9.4256584"><ele>210.99999999999997</ele><time>2026-03-25T12:29:03.368Z</time></trkpt><trkpt lat="45.7758003" lon="9.4257192"><ele>211.0</ele><time>2026-03-25T12:29:04.368Z</time></trkpt><trkpt lat="45.7758689" lon="9.4257615"><ele>211.0</ele><time>2026-03-25T12:29:05.367Z</time></trkpt><trkpt lat="45.7759441" lon="9.4257765"><ele>211.0</ele><time>2026-03-25T12:29:06.368Z</time></trkpt><trkpt lat="45.776022" lon="9.4257763"><ele>210.99999999999997</ele><time>2026-03-25T12:29:07.368Z</time></trkpt><trkpt lat="45.7760969" lon="9.4257757"><ele>211.0</ele><time>2026-03-25T12:29:08.368Z</time></trkpt><trkpt lat="45.7761741" lon="9.4257779"><ele>210.99999999999997</ele><time>2026-03-25T12:29:09.368Z</time></trkpt><trkpt lat="45.7762519" lon="9.4257929"><ele>211.0</ele><time>2026-03-25T12:29:10.368Z</time></trkpt><trkpt lat="45.7763323" lon="9.4258163"><ele>211.0</ele><time>2026-03-25T12:29:11.368Z</time></trkpt><trkpt lat="45.7764214" lon="9.4258414"><ele>211.0</ele><time>2026-03-25T12:29:12.368Z</time></trkpt><trkpt lat="45.7765084" lon="9.4258578"><ele>210.99999999999997</ele><time>2026-03-25T12:29:13.368Z</time></trkpt><trkpt lat="45.776601" lon="9.4258709"><ele>211.0</ele><time>2026-03-25T12:29:14.367Z</time></trkpt><trkpt lat="45.7766912" lon="9.4258778"><ele>211.0</ele><time>2026-03-25T12:29:15.367Z</time></trkpt><trkpt lat="45.7767823" lon="9.4258784"><ele>211.0</ele><time>2026-03-25T12:29:16.368Z</time></trkpt><trkpt lat="45.7768751" lon="9.4258749"><ele>211.0</ele><time>2026-03-25T12:29:17.368Z</time></trkpt><trkpt lat="45.7769692" lon="9.4258682"><ele>211.0</ele><time>2026-03-25T12:29:18.368Z</time></trkpt><trkpt lat="45.7770608" lon="9.4258538"><ele>211.0</ele><time>2026-03-25T12:29:19.367Z</time></trkpt><trkpt lat="45.7771564" lon="9.425836"><ele>211.4</ele><time>2026-03-25T12:29:20.367Z</time></trkpt><trkpt lat="45.7772489" lon="9.4258119"><ele>211.8</ele><time>2026-03-25T12:29:21.368Z</time></trkpt><trkpt lat="45.7773427" lon="9.4257889"><ele>212.20000000000002</ele><time>2026-03-25T12:29:22.368Z</time></trkpt><trkpt lat="45.7774304" lon="9.4257544"><ele>212.60000000000002</ele><time>2026-03-25T12:29:23.368Z</time></trkpt><trkpt lat="45.7775215" lon="9.4257178"><ele>213.0</ele><time>2026-03-25T12:29:24.368Z</time></trkpt><trkpt lat="45.7776077" lon="9.4256742"><ele>213.60000000000002</ele><time>2026-03-25T12:29:25.367Z</time></trkpt><trkpt lat="45.7776926" lon="9.425633"><ele>214.20000000000002</ele><time>2026-03-25T12:29:26.368Z</time></trkpt><trkpt lat="45.7777756" lon="9.4255911"><ele>214.8</ele><time>2026-03-25T12:29:27.367Z</time></trkpt><trkpt lat="45.7778614" lon="9.4255495"><ele>215.4</ele><time>2026-03-25T12:29:28.367Z</time></trkpt><trkpt lat="45.7779516" lon="9.4255071"><ele>216.0</ele><time>2026-03-25T12:29:29.368Z</time></trkpt><trkpt lat="45.7780389" lon="9.4254648"><ele>218.60000000000002</ele><time>2026-03-25T12:29:30.368Z</time></trkpt><trkpt lat="45.7781278" lon="9.4254215"><ele>221.20000000000002</ele><time>2026-03-25T12:29:31.368Z</time></trkpt><trkpt lat="45.7782177" lon="9.4253755"><ele>223.79999999999998</ele><time>2026-03-25T12:29:32.367Z</time></trkpt><trkpt lat="45.7783101" lon="9.4253337"><ele>226.39999999999998</ele><time>2026-03-25T12:29:33.368Z</time></trkpt><trkpt lat="45.7784062" lon="9.4252896"><ele>229.0</ele><time>2026-03-25T12:29:34.368Z</time></trkpt><trkpt lat="45.7784971" lon="9.4252477"><ele>227.39999999999998</ele><time>2026-03-25T12:29:35.368Z</time></trkpt><trkpt lat="45.7785885" lon="9.4252038"><ele>225.79999999999998</ele><time>2026-03-25T12:29:36.368Z</time></trkpt><trkpt lat="45.7786736" lon="9.4251642"><ele>224.20000000000002</ele><time>2026-03-25T12:29:37.368Z</time></trkpt><trkpt lat="45.7787645" lon="9.4251277"><ele>222.60000000000002</ele><time>2026-03-25T12:29:38.368Z</time></trkpt><trkpt lat="45.7788587" lon="9.4250896"><ele>221.0</ele><time>2026-03-25T12:29:39.368Z</time></trkpt><trkpt lat="45.7789492" lon="9.425054"><ele>221.0</ele><time>2026-03-25T12:29:40.368Z</time></trkpt><trkpt lat="45.7790403" lon="9.4250259"><ele>221.00000000000003</ele><time>2026-03-25T12:29:41.368Z</time></trkpt><trkpt lat="45.779129" lon="9.4249977"><ele>221.00000000000003</ele><time>2026-03-25T12:29:42.367Z</time></trkpt><trkpt lat="45.779215" lon="9.4249611"><ele>221.0</ele><time>2026-03-25T12:29:43.368Z</time></trkpt><trkpt lat="45.779303" lon="9.4249374"><ele>221.0</ele><time>2026-03-25T12:29:44.368Z</time></trkpt><trkpt lat="45.779392" lon="9.4249122"><ele>220.66666666666669</ele><time>2026-03-25T12:29:45.368Z</time></trkpt><trkpt lat="45.7794767" lon="9.4248875"><ele>220.33333333333334</ele><time>2026-03-25T12:29:46.367Z</time></trkpt><trkpt lat="45.7795609" lon="9.4248604"><ele>220.0</ele><time>2026-03-25T12:29:47.367Z</time></trkpt><trkpt lat="45.7796446" lon="9.4248382"><ele>219.66666666666669</ele><time>2026-03-25T12:29:48.368Z</time></trkpt><trkpt lat="45.7797317" lon="9.4248163"><ele>219.33333333333334</ele><time>2026-03-25T12:29:49.368Z</time></trkpt><trkpt lat="45.7798164" lon="9.4247903"><ele>219.0</ele><time>2026-03-25T12:29:50.367Z</time></trkpt><trkpt lat="45.7799028" lon="9.4247691"><ele>219.0</ele><time>2026-03-25T12:29:51.368Z</time></trkpt><trkpt lat="45.7799898" lon="9.4247475"><ele>219.0</ele><time>2026-03-25T12:29:52.368Z</time></trkpt><trkpt lat="45.7800761" lon="9.4247221"><ele>219.0</ele><time>2026-03-25T12:29:53.368Z</time></trkpt><trkpt lat="45.7801618" lon="9.4247017"><ele>219.0</ele><time>2026-03-25T12:29:54.368Z</time></trkpt><trkpt lat="45.7802481" lon="9.4246802"><ele>219.0</ele><time>2026-03-25T12:29:55.368Z</time></trkpt><trkpt lat="45.7803373" lon="9.4246526"><ele>219.0</ele><time>2026-03-25T12:29:56.368Z</time></trkpt><trkpt lat="45.7804276" lon="9.4246298"><ele>219.33333333333334</ele><time>2026-03-25T12:29:57.368Z</time></trkpt><trkpt lat="45.780513" lon="9.4246059"><ele>219.66666666666669</ele><time>2026-03-25T12:29:58.367Z</time></trkpt><trkpt lat="45.7805983" lon="9.424583"><ele>220.0</ele><time>2026-03-25T12:29:59.368Z</time></trkpt><trkpt lat="45.780682" lon="9.4245591"><ele>220.33333333333334</ele><time>2026-03-25T12:30:00.368Z</time></trkpt><trkpt lat="45.7807689" lon="9.4245376"><ele>220.66666666666669</ele><time>2026-03-25T12:30:01.367Z</time></trkpt><trkpt lat="45.7808519" lon="9.4245152"><ele>221.0</ele><time>2026-03-25T12:30:02.367Z</time></trkpt><trkpt lat="45.7809383" lon="9.424494"><ele>220.83333333333334</ele><time>2026-03-25T12:30:03.368Z</time></trkpt><trkpt lat="45.7810232" lon="9.4244734"><ele>220.66666666666669</ele><time>2026-03-25T12:30:04.368Z</time></trkpt><trkpt lat="45.7811033" lon="9.4244549"><ele>220.5</ele><time>2026-03-25T12:30:05.368Z</time></trkpt><trkpt lat="45.7811799" lon="9.4244394"><ele>220.33333333333331</ele><time>2026-03-25T12:30:06.368Z</time></trkpt><trkpt lat="45.7812515" lon="9.4244187"><ele>220.16666666666666</ele><time>2026-03-25T12:30:07.368Z</time></trkpt><trkpt lat="45.7813181" lon="9.4243927"><ele>220.0</ele><time>2026-03-25T12:30:08.368Z</time></trkpt><trkpt lat="45.7813876" lon="9.4243765"><ele>219.99999999999997</ele><time>2026-03-25T12:30:09.368Z</time></trkpt><trkpt lat="45.7814539" lon="9.4243571"><ele>220.0</ele><time>2026-03-25T12:30:10.368Z</time></trkpt><trkpt lat="45.7815172" lon="9.4243334"><ele>220.0</ele><time>2026-03-25T12:30:11.368Z</time></trkpt><trkpt lat="45.7815805" lon="9.4243149"><ele>220.0</ele><time>2026-03-25T12:30:12.368Z</time></trkpt><trkpt lat="45.7817009" lon="9.4243013"><ele>219.99999999999997</ele><time>2026-03-25T12:30:14.368Z</time></trkpt><trkpt lat="45.7818054" lon="9.4242918"><ele>220.0</ele><time>2026-03-25T12:30:16.367Z</time></trkpt><trkpt lat="45.7818919" lon="9.4243147"><ele>220.2</ele><time>2026-03-25T12:30:18.368Z</time></trkpt><trkpt lat="45.7819498" lon="9.4243954"><ele>220.4</ele><time>2026-03-25T12:30:20.368Z</time></trkpt><trkpt lat="45.7819939" lon="9.4245079"><ele>220.60000000000002</ele><time>2026-03-25T12:30:22.367Z</time></trkpt><trkpt lat="45.7820093" lon="9.4246434"><ele>220.8</ele><time>2026-03-25T12:30:24.368Z</time></trkpt><trkpt lat="45.7820177" lon="9.424795"><ele>221.0</ele><time>2026-03-25T12:30:26.367Z</time></trkpt><trkpt lat="45.7820366" lon="9.4249509"><ele>221.0</ele><time>2026-03-25T12:30:28.367Z</time></trkpt><trkpt lat="45.7820483" lon="9.4250417"><ele>221.00000000000003</ele><time>2026-03-25T12:30:29.368Z</time></trkpt><trkpt lat="45.7820745" lon="9.4252142"><ele>221.00000000000003</ele><time>2026-03-25T12:30:31.367Z</time></trkpt><trkpt lat="45.7821027" lon="9.4253956"><ele>221.0</ele><time>2026-03-25T12:30:33.367Z</time></trkpt><trkpt lat="45.7821275" lon="9.4255329"><ele>221.0</ele><time>2026-03-25T12:30:35.368Z</time></trkpt><trkpt lat="45.782136" lon="9.4256372"><ele>220.4</ele><time>2026-03-25T12:30:38.368Z</time></trkpt><trkpt lat="45.7821628" lon="9.4257723"><ele>219.8</ele><time>2026-03-25T12:30:41.368Z</time></trkpt><trkpt lat="45.7822144" lon="9.4258918"><ele>219.20000000000002</ele><time>2026-03-25T12:30:43.368Z</time></trkpt><trkpt lat="45.7822974" lon="9.4260031"><ele>218.60000000000002</ele><time>2026-03-25T12:30:45.368Z</time></trkpt><trkpt lat="45.7823838" lon="9.4260654"><ele>218.0</ele><time>2026-03-25T12:30:47.367Z</time></trkpt><trkpt lat="45.7824618" lon="9.426099"><ele>218.0</ele><time>2026-03-25T12:30:49.368Z</time></trkpt><trkpt lat="45.7825262" lon="9.4261288"><ele>218.0</ele><time>2026-03-25T12:30:51.367Z</time></trkpt><trkpt lat="45.7826196" lon="9.4261613"><ele>218.0</ele><time>2026-03-25T12:30:53.368Z</time></trkpt><trkpt lat="45.7827318" lon="9.4262049"><ele>218.0</ele><time>2026-03-25T12:30:55.367Z</time></trkpt><trkpt lat="45.7827955" lon="9.4262344"><ele>218.0</ele><time>2026-03-25T12:30:56.367Z</time></trkpt><trkpt lat="45.7829119" lon="9.4262743"><ele>217.60000000000002</ele><time>2026-03-25T12:30:58.368Z</time></trkpt><trkpt lat="45.7830111" lon="9.4263161"><ele>217.20000000000002</ele><time>2026-03-25T12:31:00.368Z</time></trkpt><trkpt lat="45.7830852" lon="9.4263408"><ele>216.8</ele><time>2026-03-25T12:31:02.368Z</time></trkpt><trkpt lat="45.7831532" lon="9.4263761"><ele>216.4</ele><time>2026-03-25T12:31:04.367Z</time></trkpt><trkpt lat="45.7832444" lon="9.4263553"><ele>216.0</ele><time>2026-03-25T12:31:06.368Z</time></trkpt><trkpt lat="45.7833477" lon="9.4262582"><ele>216.0</ele><time>2026-03-25T12:31:08.368Z</time></trkpt><trkpt lat="45.7833873" lon="9.4261839"><ele>216.0</ele><time>2026-03-25T12:31:09.368Z</time></trkpt><trkpt lat="45.7834341" lon="9.4261148"><ele>216.0</ele><time>2026-03-25T12:31:10.368Z</time></trkpt><trkpt lat="45.7834798" lon="9.4260512"><ele>216.0</ele><time>2026-03-25T12:31:11.368Z</time></trkpt><trkpt lat="45.7835406" lon="9.4259932"><ele>216.0</ele><time>2026-03-25T12:31:12.368Z</time></trkpt><trkpt lat="45.7836461" lon="9.425886"><ele>216.0</ele><time>2026-03-25T12:31:14.368Z</time></trkpt><trkpt lat="45.7837455" lon="9.4257914"><ele>216.0</ele><time>2026-03-25T12:31:16.367Z</time></trkpt><trkpt lat="45.7838309" lon="9.4257215"><ele>216.0</ele><time>2026-03-25T12:31:18.368Z</time></trkpt><trkpt lat="45.7839054" lon="9.4256838"><ele>216.0</ele><time>2026-03-25T12:31:20.368Z</time></trkpt><trkpt lat="45.7839714" lon="9.4257164"><ele>216.0</ele><time>2026-03-25T12:33:51.368Z</time></trkpt><trkpt lat="45.7839129" lon="9.4257546"><ele>216.0</ele><time>2026-03-25T12:34:23.329Z</time></trkpt><trkpt lat="45.7839058" lon="9.4258476"><ele>216.0</ele><time>2026-03-25T12:34:33.28Z</time></trkpt><trkpt lat="45.7839021" lon="9.4257521"><ele>216.0</ele><time>2026-03-25T12:35:42.368Z</time></trkpt><trkpt lat="45.7838436" lon="9.4257933"><ele>216.0</ele><time>2026-03-25T12:36:20.368Z</time></trkpt><trkpt lat="45.783905" lon="9.4257658"><ele>216.0</ele><time>2026-03-25T12:39:57.349Z</time></trkpt><trkpt lat="45.7839581" lon="9.4258229"><ele>216.0</ele><time>2026-03-25T12:40:06.301Z</time></trkpt><trkpt lat="45.7840036" lon="9.4257601"><ele>216.0</ele><time>2026-03-25T12:40:17.321Z</time></trkpt><trkpt lat="45.783952" lon="9.4257063"><ele>216.0</ele><time>2026-03-25T12:40:43.367Z</time></trkpt><trkpt lat="45.7839065" lon="9.4257787"><ele>216.0</ele><time>2026-03-25T13:11:50.293Z</time></trkpt><trkpt lat="45.7839426" lon="9.4256943"><ele>216.0</ele><time>2026-03-25T13:12:50.368Z</time></trkpt><trkpt lat="45.7839193" lon="9.4257839"><ele>216.0</ele><time>2026-03-25T13:24:06.368Z</time></trkpt><trkpt lat="45.7839569" lon="9.4256964"><ele>216.0</ele><time>2026-03-25T13:24:16.29Z</time></trkpt><trkpt lat="45.7839566" lon="9.425788"><ele>216.0</ele><time>2026-03-25T13:37:15.368Z</time></trkpt><trkpt lat="45.7839621" lon="9.4256958"><ele>216.0</ele><time>2026-03-25T13:43:48.272Z</time></trkpt><trkpt lat="45.7838755" lon="9.4257638"><ele>216.0</ele><time>2026-03-25T13:43:59.293Z</time></trkpt><trkpt lat="45.7838786" lon="9.4258657"><ele>216.0</ele><time>2026-03-25T13:44:04.759Z</time></trkpt><trkpt lat="45.7838248" lon="9.4259145"><ele>216.0</ele><time>2026-03-25T13:44:13.298Z</time></trkpt><trkpt lat="45.7838762" lon="9.425812"><ele>216.0</ele><time>2026-03-25T13:44:38.368Z</time></trkpt><trkpt lat="45.7838003" lon="9.4258224"><ele>216.0</ele><time>2026-03-25T13:46:04.299Z</time></trkpt><trkpt lat="45.7837356" lon="9.425837"><ele>216.0</ele><time>2026-03-25T13:46:10.268Z</time></trkpt><trkpt lat="45.7838031" lon="9.4257762"><ele>216.0</ele><time>2026-03-25T13:46:41.367Z</time></trkpt><trkpt lat="45.7838655" lon="9.4258012"><ele>216.0</ele><time>2026-03-25T13:47:27.368Z</time></trkpt><trkpt lat="45.7839713" lon="9.425704"><ele>216.0</ele><time>2026-03-25T13:50:22.368Z</time></trkpt><trkpt lat="45.783916" lon="9.4256588"><ele>216.0</ele><time>2026-03-25T13:53:07.367Z</time></trkpt><trkpt lat="45.7838131" lon="9.4257248"><ele>216.00000000000003</ele><time>2026-03-25T13:53:09.367Z</time></trkpt><trkpt lat="45.7837503" lon="9.4257856"><ele>216.00000000000003</ele><time>2026-03-25T13:53:10.368Z</time></trkpt><trkpt lat="45.7836969" lon="9.4258363"><ele>216.0</ele><time>2026-03-25T13:53:11.367Z</time></trkpt><trkpt lat="45.7835976" lon="9.4259392"><ele>216.0</ele><time>2026-03-25T13:53:13.368Z</time></trkpt><trkpt lat="45.7834953" lon="9.4260471"><ele>216.0</ele><time>2026-03-25T13:53:15.368Z</time></trkpt><trkpt lat="45.7834409" lon="9.4260999"><ele>216.00000000000003</ele><time>2026-03-25T13:53:16.368Z</time></trkpt><trkpt lat="45.7833869" lon="9.4261516"><ele>216.00000000000003</ele><time>2026-03-25T13:53:17.367Z</time></trkpt><trkpt lat="45.783289" lon="9.4262535"><ele>216.0</ele><time>2026-03-25T13:53:19.367Z</time></trkpt><trkpt lat="45.7831804" lon="9.4263149"><ele>216.0</ele><time>2026-03-25T13:53:21.368Z</time></trkpt><trkpt lat="45.7830584" lon="9.426307"><ele>216.0</ele><time>2026-03-25T13:53:23.367Z</time></trkpt><trkpt lat="45.7829958" lon="9.4262814"><ele>216.0</ele><time>2026-03-25T13:53:24.367Z</time></trkpt><trkpt lat="45.7829326" lon="9.4262574"><ele>216.0</ele><time>2026-03-25T13:53:25.368Z</time></trkpt><trkpt lat="45.7828691" lon="9.4262359"><ele>216.0</ele><time>2026-03-25T13:53:26.368Z</time></trkpt><trkpt lat="45.7828015" lon="9.4262108"><ele>216.0</ele><time>2026-03-25T13:53:27.367Z</time></trkpt><trkpt lat="45.7827331" lon="9.4261799"><ele>216.0</ele><time>2026-03-25T13:53:28.367Z</time></trkpt><trkpt lat="45.7826636" lon="9.4261498"><ele>216.0</ele><time>2026-03-25T13:53:29.367Z</time></trkpt><trkpt lat="45.7825966" lon="9.4261208"><ele>216.4</ele><time>2026-03-25T13:53:30.367Z</time></trkpt><trkpt lat="45.7825343" lon="9.4260896"><ele>216.8</ele><time>2026-03-25T13:53:31.368Z</time></trkpt><trkpt lat="45.7824198" lon="9.4260455"><ele>217.20000000000002</ele><time>2026-03-25T13:53:33.368Z</time></trkpt><trkpt lat="45.7823192" lon="9.4260053"><ele>217.60000000000002</ele><time>2026-03-25T13:53:35.368Z</time></trkpt><trkpt lat="45.7822392" lon="9.4258841"><ele>218.0</ele><time>2026-03-25T13:53:37.368Z</time></trkpt><trkpt lat="45.7821792" lon="9.4257229"><ele>218.00000000000003</ele><time>2026-03-25T13:53:39.368Z</time></trkpt><trkpt lat="45.7821629" lon="9.4256306"><ele>218.0</ele><time>2026-03-25T13:53:40.368Z</time></trkpt><trkpt lat="45.7821463" lon="9.4255431"><ele>218.0</ele><time>2026-03-25T13:53:41.368Z</time></trkpt><trkpt lat="45.7821154" lon="9.4253677"><ele>218.0</ele><time>2026-03-25T13:53:43.367Z</time></trkpt><trkpt lat="45.7821024" lon="9.4252718"><ele>218.00000000000003</ele><time>2026-03-25T13:53:44.368Z</time></trkpt><trkpt lat="45.7820835" lon="9.4251739"><ele>218.0</ele><time>2026-03-25T13:53:45.368Z</time></trkpt><trkpt lat="45.7820666" lon="9.4250738"><ele>218.50000000000003</ele><time>2026-03-25T13:53:46.368Z</time></trkpt><trkpt lat="45.7820543" lon="9.4249756"><ele>219.0</ele><time>2026-03-25T13:53:47.367Z</time></trkpt><trkpt lat="45.7820482" lon="9.4248842"><ele>219.5</ele><time>2026-03-25T13:53:48.368Z</time></trkpt><trkpt lat="45.7820375" lon="9.4247379"><ele>220.0</ele><time>2026-03-25T13:53:50.368Z</time></trkpt><trkpt lat="45.7820314" lon="9.4246232"><ele>220.50000000000003</ele><time>2026-03-25T13:54:03.368Z</time></trkpt><trkpt lat="45.7820201" lon="9.4245209"><ele>221.0</ele><time>2026-03-25T13:54:05.368Z</time></trkpt><trkpt lat="45.7820042" lon="9.4243862"><ele>220.8</ele><time>2026-03-25T13:54:07.367Z</time></trkpt><trkpt lat="45.7820033" lon="9.4242326"><ele>220.60000000000002</ele><time>2026-03-25T13:54:09.368Z</time></trkpt><trkpt lat="45.7819612" lon="9.4241071"><ele>220.4</ele><time>2026-03-25T13:54:11.368Z</time></trkpt><trkpt lat="45.7818597" lon="9.424095"><ele>220.2</ele><time>2026-03-25T13:54:13.368Z</time></trkpt><trkpt lat="45.7817448" lon="9.4241524"><ele>220.0</ele><time>2026-03-25T13:54:15.368Z</time></trkpt><trkpt lat="45.781679" lon="9.4241868"><ele>219.99999999999997</ele><time>2026-03-25T13:54:16.368Z</time></trkpt><trkpt lat="45.7816052" lon="9.4242166"><ele>220.0</ele><time>2026-03-25T13:54:17.367Z</time></trkpt><trkpt lat="45.7815325" lon="9.4242395"><ele>220.0</ele><time>2026-03-25T13:54:18.367Z</time></trkpt><trkpt lat="45.7814607" lon="9.4242638"><ele>220.0</ele><time>2026-03-25T13:54:19.368Z</time></trkpt><trkpt lat="45.7813895" lon="9.4242865"><ele>220.0</ele><time>2026-03-25T13:54:20.368Z</time></trkpt><trkpt lat="45.781317" lon="9.4243126"><ele>219.99999999999997</ele><time>2026-03-25T13:54:21.368Z</time></trkpt><trkpt lat="45.781244" lon="9.4243256"><ele>220.0</ele><time>2026-03-25T13:54:22.367Z</time></trkpt><trkpt lat="45.7811662" lon="9.4243458"><ele>219.99999999999997</ele><time>2026-03-25T13:54:23.368Z</time></trkpt><trkpt lat="45.7810916" lon="9.4243689"><ele>220.0</ele><time>2026-03-25T13:54:24.367Z</time></trkpt><trkpt lat="45.7810103" lon="9.4243919"><ele>220.0</ele><time>2026-03-25T13:54:25.368Z</time></trkpt><trkpt lat="45.7809293" lon="9.4244159"><ele>220.0</ele><time>2026-03-25T13:54:26.368Z</time></trkpt><trkpt lat="45.7808465" lon="9.4244403"><ele>219.99999999999997</ele><time>2026-03-25T13:54:27.368Z</time></trkpt><trkpt lat="45.7807667" lon="9.4244628"><ele>220.0</ele><time>2026-03-25T13:54:28.368Z</time></trkpt><trkpt lat="45.7806807" lon="9.4244833"><ele>220.2</ele><time>2026-03-25T13:54:29.367Z</time></trkpt><trkpt lat="45.7805947" lon="9.4245094"><ele>220.4</ele><time>2026-03-25T13:54:30.367Z</time></trkpt><trkpt lat="45.7805015" lon="9.4245319"><ele>220.60000000000002</ele><time>2026-03-25T13:54:31.367Z</time></trkpt><trkpt lat="45.7804114" lon="9.4245593"><ele>220.8</ele><time>2026-03-25T13:54:32.368Z</time></trkpt><trkpt lat="45.7803194" lon="9.4245874"><ele>221.0</ele><time>2026-03-25T13:54:33.368Z</time></trkpt><trkpt lat="45.7802249" lon="9.4246139"><ele>220.60000000000002</ele><time>2026-03-25T13:54:34.368Z</time></trkpt><trkpt lat="45.7801324" lon="9.4246369"><ele>220.20000000000002</ele><time>2026-03-25T13:54:35.368Z</time></trkpt><trkpt lat="45.78004" lon="9.4246565"><ele>219.79999999999998</ele><time>2026-03-25T13:54:36.368Z</time></trkpt><trkpt lat="45.7799475" lon="9.4246788"><ele>219.39999999999998</ele><time>2026-03-25T13:54:37.368Z</time></trkpt><trkpt lat="45.7798529" lon="9.4247062"><ele>219.0</ele><time>2026-03-25T13:54:38.367Z</time></trkpt><trkpt lat="45.7797603" lon="9.4247267"><ele>219.0</ele><time>2026-03-25T13:54:39.368Z</time></trkpt><trkpt lat="45.779666" lon="9.4247492"><ele>218.99999999999997</ele><time>2026-03-25T13:54:40.367Z</time></trkpt><trkpt lat="45.7795663" lon="9.4247761"><ele>218.99999999999997</ele><time>2026-03-25T13:54:41.368Z</time></trkpt><trkpt lat="45.7794702" lon="9.4248018"><ele>219.0</ele><time>2026-03-25T13:54:42.368Z</time></trkpt><trkpt lat="45.7793722" lon="9.4248303"><ele>219.0</ele><time>2026-03-25T13:54:43.367Z</time></trkpt><trkpt lat="45.7792773" lon="9.4248608"><ele>219.39999999999998</ele><time>2026-03-25T13:54:44.368Z</time></trkpt><trkpt lat="45.7791875" lon="9.4248987"><ele>219.79999999999998</ele><time>2026-03-25T13:54:45.368Z</time></trkpt><trkpt lat="45.7790943" lon="9.4249339"><ele>220.20000000000002</ele><time>2026-03-25T13:54:46.367Z</time></trkpt><trkpt lat="45.7790029" lon="9.4249672"><ele>220.60000000000002</ele><time>2026-03-25T13:54:47.367Z</time></trkpt><trkpt lat="45.7789067" lon="9.4250083"><ele>221.0</ele><time>2026-03-25T13:54:48.367Z</time></trkpt><trkpt lat="45.7788086" lon="9.4250413"><ele>221.0</ele><time>2026-03-25T13:54:49.367Z</time></trkpt><trkpt lat="45.7787113" lon="9.4250837"><ele>221.00000000000003</ele><time>2026-03-25T13:54:50.367Z</time></trkpt><trkpt lat="45.778623" lon="9.425128"><ele>221.00000000000003</ele><time>2026-03-25T13:54:51.368Z</time></trkpt><trkpt lat="45.778512" lon="9.4251695"><ele>221.0</ele><time>2026-03-25T13:54:52.368Z</time></trkpt><trkpt lat="45.778421" lon="9.4252108"><ele>221.0</ele><time>2026-03-25T13:54:53.368Z</time></trkpt><trkpt lat="45.7783261" lon="9.4252602"><ele>220.0</ele><time>2026-03-25T13:54:54.368Z</time></trkpt><trkpt lat="45.7782317" lon="9.4253043"><ele>219.00000000000003</ele><time>2026-03-25T13:54:55.368Z</time></trkpt><trkpt lat="45.7781379" lon="9.4253472"><ele>218.00000000000003</ele><time>2026-03-25T13:54:56.368Z</time></trkpt><trkpt lat="45.778043" lon="9.4253928"><ele>217.0</ele><time>2026-03-25T13:54:57.367Z</time></trkpt><trkpt lat="45.7779435" lon="9.4254424"><ele>216.0</ele><time>2026-03-25T13:54:58.367Z</time></trkpt><trkpt lat="45.7778493" lon="9.4254847"><ele>216.0</ele><time>2026-03-25T13:54:59.368Z</time></trkpt><trkpt lat="45.7777601" lon="9.4255275"><ele>216.0</ele><time>2026-03-25T13:55:00.368Z</time></trkpt><trkpt lat="45.7776737" lon="9.4255661"><ele>216.0</ele><time>2026-03-25T13:55:01.368Z</time></trkpt><trkpt lat="45.7775917" lon="9.4256106"><ele>216.0</ele><time>2026-03-25T13:55:02.368Z</time></trkpt><trkpt lat="45.7775035" lon="9.4256436"><ele>216.0</ele><time>2026-03-25T13:55:03.367Z</time></trkpt><trkpt lat="45.7774268" lon="9.4256753"><ele>216.0</ele><time>2026-03-25T13:55:04.368Z</time></trkpt><trkpt lat="45.7773557" lon="9.4256987"><ele>215.5</ele><time>2026-03-25T13:55:05.368Z</time></trkpt><trkpt lat="45.777286" lon="9.4257214"><ele>215.0</ele><time>2026-03-25T13:55:06.367Z</time></trkpt><trkpt lat="45.7772178" lon="9.4257463"><ele>214.5</ele><time>2026-03-25T13:55:07.368Z</time></trkpt><trkpt lat="45.7771542" lon="9.4257647"><ele>214.0</ele><time>2026-03-25T13:55:08.368Z</time></trkpt><trkpt lat="45.7770353" lon="9.4257829"><ele>213.5</ele><time>2026-03-25T13:55:10.368Z</time></trkpt><trkpt lat="45.7769264" lon="9.425794"><ele>213.0</ele><time>2026-03-25T13:55:12.368Z</time></trkpt><trkpt lat="45.7768417" lon="9.4257919"><ele>212.66666666666666</ele><time>2026-03-25T13:55:14.367Z</time></trkpt><trkpt lat="45.7767642" lon="9.4257916"><ele>212.33333333333331</ele><time>2026-03-25T13:55:16.368Z</time></trkpt><trkpt lat="45.7766891" lon="9.4257884"><ele>212.0</ele><time>2026-03-25T13:55:18.368Z</time></trkpt><trkpt lat="45.7765984" lon="9.4257876"><ele>211.66666666666666</ele><time>2026-03-25T13:55:20.368Z</time></trkpt><trkpt lat="45.7765048" lon="9.4257719"><ele>211.33333333333331</ele><time>2026-03-25T13:55:22.367Z</time></trkpt><trkpt lat="45.7763971" lon="9.4257633"><ele>211.0</ele><time>2026-03-25T13:55:24.368Z</time></trkpt><trkpt lat="45.7762849" lon="9.4257327"><ele>211.0</ele><time>2026-03-25T13:55:26.367Z</time></trkpt><trkpt lat="45.7761714" lon="9.4256789"><ele>211.0</ele><time>2026-03-25T13:55:28.367Z</time></trkpt><trkpt lat="45.7760702" lon="9.4255847"><ele>211.0</ele><time>2026-03-25T13:55:30.367Z</time></trkpt><trkpt lat="45.7759709" lon="9.4254789"><ele>211.0</ele><time>2026-03-25T13:55:32.368Z</time></trkpt><trkpt lat="45.7759047" lon="9.42545"><ele>211.0</ele><time>2026-03-25T13:55:33.367Z</time></trkpt><trkpt lat="45.7758357" lon="9.4254469"><ele>211.0</ele><time>2026-03-25T13:55:34.368Z</time></trkpt><trkpt lat="45.7757661" lon="9.4254465"><ele>211.0</ele><time>2026-03-25T13:55:35.368Z</time></trkpt><trkpt lat="45.7757021" lon="9.4254404"><ele>211.0</ele><time>2026-03-25T13:55:36.367Z</time></trkpt><trkpt lat="45.7756249" lon="9.4254445"><ele>211.0</ele><time>2026-03-25T13:55:37.367Z</time></trkpt><trkpt lat="45.7755511" lon="9.4254258"><ele>211.0</ele><time>2026-03-25T13:55:38.368Z</time></trkpt><trkpt lat="45.7754767" lon="9.4254031"><ele>211.0</ele><time>2026-03-25T13:55:39.368Z</time></trkpt><trkpt lat="45.7754039" lon="9.4253803"><ele>211.0</ele><time>2026-03-25T13:55:40.368Z</time></trkpt><trkpt lat="45.7753292" lon="9.4253546"><ele>210.99999999999997</ele><time>2026-03-25T13:55:41.368Z</time></trkpt><trkpt lat="45.7752524" lon="9.4253359"><ele>211.0</ele><time>2026-03-25T13:55:42.368Z</time></trkpt><trkpt lat="45.7751813" lon="9.4253231"><ele>211.0</ele><time>2026-03-25T13:55:43.368Z</time></trkpt><trkpt lat="45.775108" lon="9.4253116"><ele>211.0</ele><time>2026-03-25T13:55:44.368Z</time></trkpt><trkpt lat="45.7750309" lon="9.4252964"><ele>210.99999999999997</ele><time>2026-03-25T13:55:45.367Z</time></trkpt><trkpt lat="45.7749547" lon="9.4252892"><ele>211.0</ele><time>2026-03-25T13:55:46.368Z</time></trkpt><trkpt lat="45.7748753" lon="9.425286"><ele>210.66666666666666</ele><time>2026-03-25T13:55:47.368Z</time></trkpt><trkpt lat="45.7748033" lon="9.4252722"><ele>210.33333333333331</ele><time>2026-03-25T13:55:48.367Z</time></trkpt><trkpt lat="45.774724" lon="9.4252658"><ele>210.0</ele><time>2026-03-25T13:55:49.367Z</time></trkpt><trkpt lat="45.7746437" lon="9.4252658"><ele>209.66666666666669</ele><time>2026-03-25T13:55:50.368Z</time></trkpt><trkpt lat="45.7745657" lon="9.4252631"><ele>209.33333333333334</ele><time>2026-03-25T13:55:51.368Z</time></trkpt><trkpt lat="45.7744839" lon="9.4252568"><ele>209.0</ele><time>2026-03-25T13:55:52.368Z</time></trkpt><trkpt lat="45.7744065" lon="9.4252495"><ele>208.83333333333334</ele><time>2026-03-25T13:55:53.368Z</time></trkpt><trkpt lat="45.7743309" lon="9.4252446"><ele>208.66666666666669</ele><time>2026-03-25T13:55:54.368Z</time></trkpt><trkpt lat="45.7742519" lon="9.4252383"><ele>208.5</ele><time>2026-03-25T13:55:55.367Z</time></trkpt><trkpt lat="45.7741728" lon="9.4252274"><ele>208.33333333333331</ele><time>2026-03-25T13:55:56.368Z</time></trkpt><trkpt lat="45.7740968" lon="9.4252193"><ele>208.16666666666666</ele><time>2026-03-25T13:55:57.367Z</time></trkpt><trkpt lat="45.7740152" lon="9.4252183"><ele>208.0</ele><time>2026-03-25T13:55:58.368Z</time></trkpt><trkpt lat="45.7739372" lon="9.4252085"><ele>207.99999999999997</ele><time>2026-03-25T13:55:59.367Z</time></trkpt><trkpt lat="45.7738571" lon="9.4252049"><ele>208.0</ele><time>2026-03-25T13:56:00.367Z</time></trkpt><trkpt lat="45.7737748" lon="9.4251984"><ele>208.0</ele><time>2026-03-25T13:56:01.368Z</time></trkpt><trkpt lat="45.7736967" lon="9.4251914"><ele>208.0</ele><time>2026-03-25T13:56:02.367Z</time></trkpt><trkpt lat="45.7736157" lon="9.4251814"><ele>207.99999999999997</ele><time>2026-03-25T13:56:03.368Z</time></trkpt><trkpt lat="45.7735383" lon="9.425176"><ele>208.0</ele><time>2026-03-25T13:56:04.368Z</time></trkpt><trkpt lat="45.7733959" lon="9.4251652"><ele>207.49999999999997</ele><time>2026-03-25T13:56:06.368Z</time></trkpt><trkpt lat="45.7733176" lon="9.4251628"><ele>207.0</ele><time>2026-03-25T13:56:07.368Z</time></trkpt><trkpt lat="45.7732459" lon="9.4251566"><ele>206.5</ele><time>2026-03-25T13:56:08.368Z</time></trkpt><trkpt lat="45.7731653" lon="9.4251533"><ele>206.0</ele><time>2026-03-25T13:56:09.368Z</time></trkpt><trkpt lat="45.773087" lon="9.4251429"><ele>205.49999999999997</ele><time>2026-03-25T13:56:10.367Z</time></trkpt><trkpt lat="45.7730064" lon="9.4251354"><ele>205.0</ele><time>2026-03-25T13:56:11.368Z</time></trkpt><trkpt lat="45.7729321" lon="9.4251209"><ele>204.99999999999997</ele><time>2026-03-25T13:56:12.367Z</time></trkpt><trkpt lat="45.7728578" lon="9.4251049"><ele>205.0</ele><time>2026-03-25T13:56:13.368Z</time></trkpt><trkpt lat="45.772778" lon="9.4250989"><ele>205.0</ele><time>2026-03-25T13:56:14.367Z</time></trkpt><trkpt lat="45.7726961" lon="9.4250898"><ele>205.0</ele><time>2026-03-25T13:56:15.367Z</time></trkpt><trkpt lat="45.7726192" lon="9.4250757"><ele>204.99999999999997</ele><time>2026-03-25T13:56:16.367Z</time></trkpt><trkpt lat="45.7725395" lon="9.42507"><ele>205.0</ele><time>2026-03-25T13:56:17.368Z</time></trkpt><trkpt lat="45.7724604" lon="9.4250613"><ele>204.99999999999997</ele><time>2026-03-25T13:56:18.368Z</time></trkpt><trkpt lat="45.7723781" lon="9.4250568"><ele>205.0</ele><time>2026-03-25T13:56:19.368Z</time></trkpt><trkpt lat="45.7723012" lon="9.4250467"><ele>205.0</ele><time>2026-03-25T13:56:20.368Z</time></trkpt><trkpt lat="45.7722209" lon="9.4250378"><ele>205.0</ele><time>2026-03-25T13:56:21.368Z</time></trkpt><trkpt lat="45.7721396" lon="9.425034"><ele>204.99999999999997</ele><time>2026-03-25T13:56:22.368Z</time></trkpt><trkpt lat="45.7720645" lon="9.4250323"><ele>205.0</ele><time>2026-03-25T13:56:23.367Z</time></trkpt><trkpt lat="45.7719854" lon="9.4250315"><ele>204.99999999999997</ele><time>2026-03-25T13:56:24.367Z</time></trkpt><trkpt lat="45.7719094" lon="9.4250244"><ele>205.0</ele><time>2026-03-25T13:56:25.368Z</time></trkpt><trkpt lat="45.7718293" lon="9.4250191"><ele>205.0</ele><time>2026-03-25T13:56:26.368Z</time></trkpt><trkpt lat="45.7717555" lon="9.4250114"><ele>205.0</ele><time>2026-03-25T13:56:27.368Z</time></trkpt><trkpt lat="45.7716814" lon="9.42501"><ele>204.99999999999997</ele><time>2026-03-25T13:56:28.368Z</time></trkpt><trkpt lat="45.7716027" lon="9.4250077"><ele>205.0</ele><time>2026-03-25T13:56:29.368Z</time></trkpt><trkpt lat="45.7715233" lon="9.4250028"><ele>204.49999999999997</ele><time>2026-03-25T13:56:30.368Z</time></trkpt><trkpt lat="45.7714443" lon="9.4249984"><ele>204.0</ele><time>2026-03-25T13:56:31.368Z</time></trkpt><trkpt lat="45.7713694" lon="9.4249919"><ele>203.5</ele><time>2026-03-25T13:56:32.368Z</time></trkpt><trkpt lat="45.7712935" lon="9.4249854"><ele>203.0</ele><time>2026-03-25T13:56:33.368Z</time></trkpt><trkpt lat="45.7712171" lon="9.4249766"><ele>202.49999999999997</ele><time>2026-03-25T13:56:34.368Z</time></trkpt><trkpt lat="45.7711407" lon="9.4249752"><ele>202.0</ele><time>2026-03-25T13:56:35.368Z</time></trkpt><trkpt lat="45.7710618" lon="9.4249743"><ele>201.66666666666666</ele><time>2026-03-25T13:56:36.367Z</time></trkpt><trkpt lat="45.7709853" lon="9.4249644"><ele>201.33333333333331</ele><time>2026-03-25T13:56:37.368Z</time></trkpt><trkpt lat="45.7709075" lon="9.4249653"><ele>201.0</ele><time>2026-03-25T13:56:38.368Z</time></trkpt><trkpt lat="45.7708291" lon="9.4249639"><ele>200.66666666666669</ele><time>2026-03-25T13:56:39.368Z</time></trkpt><trkpt lat="45.7707502" lon="9.4249588"><ele>200.33333333333334</ele><time>2026-03-25T13:56:40.368Z</time></trkpt><trkpt lat="45.7706714" lon="9.42495"><ele>200.0</ele><time>2026-03-25T13:56:41.367Z</time></trkpt><trkpt lat="45.7705917" lon="9.4249474"><ele>200.00000000000003</ele><time>2026-03-25T13:56:42.367Z</time></trkpt><trkpt lat="45.770515" lon="9.4249405"><ele>200.0</ele><time>2026-03-25T13:56:43.367Z</time></trkpt><trkpt lat="45.7704359" lon="9.4249384"><ele>200.0</ele><time>2026-03-25T13:56:44.368Z</time></trkpt><trkpt lat="45.7703601" lon="9.424934"><ele>200.0</ele><time>2026-03-25T13:56:45.368Z</time></trkpt><trkpt lat="45.7702844" lon="9.4249262"><ele>200.00000000000003</ele><time>2026-03-25T13:56:46.368Z</time></trkpt><trkpt lat="45.7702054" lon="9.4249238"><ele>200.0</ele><time>2026-03-25T13:56:47.367Z</time></trkpt><trkpt lat="45.7701275" lon="9.4249188"><ele>200.50000000000003</ele><time>2026-03-25T13:56:48.368Z</time></trkpt><trkpt lat="45.7700517" lon="9.4249109"><ele>201.0</ele><time>2026-03-25T13:56:49.368Z</time></trkpt><trkpt lat="45.7699736" lon="9.4249012"><ele>201.5</ele><time>2026-03-25T13:56:50.368Z</time></trkpt><trkpt lat="45.7698978" lon="9.4248902"><ele>202.0</ele><time>2026-03-25T13:56:51.368Z</time></trkpt><trkpt lat="45.7698211" lon="9.4248874"><ele>202.50000000000003</ele><time>2026-03-25T13:56:52.368Z</time></trkpt><trkpt lat="45.7697471" lon="9.4248818"><ele>203.0</ele><time>2026-03-25T13:56:53.367Z</time></trkpt><trkpt lat="45.7696683" lon="9.4248808"><ele>203.00000000000003</ele><time>2026-03-25T13:56:54.368Z</time></trkpt><trkpt lat="45.7695921" lon="9.424871"><ele>203.0</ele><time>2026-03-25T13:56:55.367Z</time></trkpt><trkpt lat="45.7695143" lon="9.4248634"><ele>203.0</ele><time>2026-03-25T13:56:56.367Z</time></trkpt><trkpt lat="45.7694373" lon="9.4248576"><ele>203.0</ele><time>2026-03-25T13:56:57.368Z</time></trkpt><trkpt lat="45.7693579" lon="9.4248526"><ele>203.00000000000003</ele><time>2026-03-25T13:56:58.367Z</time></trkpt><trkpt lat="45.7692781" lon="9.4248478"><ele>203.0</ele><time>2026-03-25T13:56:59.368Z</time></trkpt><trkpt lat="45.7692012" lon="9.4248428"><ele>202.83333333333334</ele><time>2026-03-25T13:57:00.368Z</time></trkpt><trkpt lat="45.7691202" lon="9.4248415"><ele>202.66666666666669</ele><time>2026-03-25T13:57:01.367Z</time></trkpt><trkpt lat="45.7690409" lon="9.4248342"><ele>202.5</ele><time>2026-03-25T13:57:02.368Z</time></trkpt><trkpt lat="45.7689629" lon="9.4248274"><ele>202.33333333333331</ele><time>2026-03-25T13:57:03.368Z</time></trkpt><trkpt lat="45.7688871" lon="9.4248188"><ele>202.16666666666666</ele><time>2026-03-25T13:57:04.368Z</time></trkpt><trkpt lat="45.7688063" lon="9.4248139"><ele>202.0</ele><time>2026-03-25T13:57:05.368Z</time></trkpt><trkpt lat="45.7687286" lon="9.4248066"><ele>202.0</ele><time>2026-03-25T13:57:06.368Z</time></trkpt><trkpt lat="45.7686565" lon="9.4247882"><ele>202.0</ele><time>2026-03-25T13:57:07.368Z</time></trkpt><trkpt lat="45.7685852" lon="9.4247783"><ele>202.0</ele><time>2026-03-25T13:57:08.368Z</time></trkpt><trkpt lat="45.7685117" lon="9.4247747"><ele>202.0</ele><time>2026-03-25T13:57:09.368Z</time></trkpt><trkpt lat="45.7684329" lon="9.4247646"><ele>202.0</ele><time>2026-03-25T13:57:10.368Z</time></trkpt><trkpt lat="45.7683599" lon="9.4247573"><ele>202.0</ele><time>2026-03-25T13:57:11.368Z</time></trkpt><trkpt lat="45.7682843" lon="9.4247551"><ele>202.0</ele><time>2026-03-25T13:57:12.368Z</time></trkpt><trkpt lat="45.7682023" lon="9.4247471"><ele>201.83333333333331</ele><time>2026-03-25T13:57:13.368Z</time></trkpt><trkpt lat="45.7681191" lon="9.4247439"><ele>201.66666666666666</ele><time>2026-03-25T13:57:14.368Z</time></trkpt><trkpt lat="45.7680376" lon="9.4247401"><ele>201.5</ele><time>2026-03-25T13:57:15.367Z</time></trkpt><trkpt lat="45.7679548" lon="9.4247292"><ele>201.33333333333331</ele><time>2026-03-25T13:57:16.368Z</time></trkpt><trkpt lat="45.7678682" lon="9.4247258"><ele>201.16666666666666</ele><time>2026-03-25T13:57:17.368Z</time></trkpt><trkpt lat="45.7677876" lon="9.4247178"><ele>201.0</ele><time>2026-03-25T13:57:18.368Z</time></trkpt><trkpt lat="45.7677031" lon="9.4247193"><ele>201.33333333333334</ele><time>2026-03-25T13:57:19.367Z</time></trkpt><trkpt lat="45.7676172" lon="9.4247225"><ele>201.66666666666669</ele><time>2026-03-25T13:57:20.367Z</time></trkpt><trkpt lat="45.7675345" lon="9.4247255"><ele>202.0</ele><time>2026-03-25T13:57:21.368Z</time></trkpt><trkpt lat="45.7674527" lon="9.4247316"><ele>202.33333333333334</ele><time>2026-03-25T13:57:22.368Z</time></trkpt><trkpt lat="45.7673653" lon="9.4247416"><ele>202.66666666666669</ele><time>2026-03-25T13:57:23.368Z</time></trkpt><trkpt lat="45.7672835" lon="9.4247543"><ele>203.0</ele><time>2026-03-25T13:57:24.367Z</time></trkpt><trkpt lat="45.7672006" lon="9.4247683"><ele>203.00000000000003</ele><time>2026-03-25T13:57:25.367Z</time></trkpt><trkpt lat="45.7671151" lon="9.4247872"><ele>203.0</ele><time>2026-03-25T13:57:26.368Z</time></trkpt><trkpt lat="45.7670308" lon="9.4248133"><ele>203.0</ele><time>2026-03-25T13:57:27.368Z</time></trkpt><trkpt lat="45.7669477" lon="9.4248414"><ele>203.0</ele><time>2026-03-25T13:57:28.368Z</time></trkpt><trkpt lat="45.7668667" lon="9.4248702"><ele>203.00000000000003</ele><time>2026-03-25T13:57:29.368Z</time></trkpt><trkpt lat="45.7667836" lon="9.4249026"><ele>203.0</ele><time>2026-03-25T13:57:30.368Z</time></trkpt><trkpt lat="45.766704" lon="9.4249321"><ele>203.50000000000003</ele><time>2026-03-25T13:57:31.368Z</time></trkpt><trkpt lat="45.7666172" lon="9.4249637"><ele>204.0</ele><time>2026-03-25T13:57:32.368Z</time></trkpt><trkpt lat="45.7665369" lon="9.4249959"><ele>204.5</ele><time>2026-03-25T13:57:33.368Z</time></trkpt><trkpt lat="45.7664548" lon="9.4250326"><ele>205.0</ele><time>2026-03-25T13:57:34.368Z</time></trkpt><trkpt lat="45.7663715" lon="9.4250639"><ele>205.50000000000003</ele><time>2026-03-25T13:57:35.368Z</time></trkpt><trkpt lat="45.7662893" lon="9.4250986"><ele>206.0</ele><time>2026-03-25T13:57:36.368Z</time></trkpt><trkpt lat="45.766207" lon="9.4251348"><ele>206.00000000000003</ele><time>2026-03-25T13:57:37.368Z</time></trkpt><trkpt lat="45.7661243" lon="9.4251673"><ele>206.0</ele><time>2026-03-25T13:57:38.368Z</time></trkpt><trkpt lat="45.7660396" lon="9.4252044"><ele>206.0</ele><time>2026-03-25T13:57:39.368Z</time></trkpt><trkpt lat="45.7659552" lon="9.4252371"><ele>206.0</ele><time>2026-03-25T13:57:40.367Z</time></trkpt><trkpt lat="45.7658723" lon="9.4252724"><ele>206.00000000000003</ele><time>2026-03-25T13:57:41.368Z</time></trkpt><trkpt lat="45.7657875" lon="9.4253094"><ele>206.0</ele><time>2026-03-25T13:57:42.367Z</time></trkpt><trkpt lat="45.7657084" lon="9.4253369"><ele>207.33333333333334</ele><time>2026-03-25T13:57:43.368Z</time></trkpt><trkpt lat="45.7656265" lon="9.425369"><ele>208.66666666666669</ele><time>2026-03-25T13:57:44.368Z</time></trkpt><trkpt lat="45.7655436" lon="9.425403"><ele>210.0</ele><time>2026-03-25T13:57:45.368Z</time></trkpt><trkpt lat="45.76546" lon="9.4254337"><ele>211.33333333333331</ele><time>2026-03-25T13:57:46.368Z</time></trkpt><trkpt lat="45.7653778" lon="9.4254648"><ele>212.66666666666666</ele><time>2026-03-25T13:57:47.368Z</time></trkpt><trkpt lat="45.7652921" lon="9.4255025"><ele>214.0</ele><time>2026-03-25T13:57:48.368Z</time></trkpt><trkpt lat="45.7652093" lon="9.4255372"><ele>212.16666666666666</ele><time>2026-03-25T13:57:49.367Z</time></trkpt><trkpt lat="45.7651231" lon="9.4255754"><ele>210.33333333333331</ele><time>2026-03-25T13:57:50.368Z</time></trkpt><trkpt lat="45.7650358" lon="9.4256154"><ele>208.5</ele><time>2026-03-25T13:57:51.368Z</time></trkpt><trkpt lat="45.7649522" lon="9.4256476"><ele>206.66666666666669</ele><time>2026-03-25T13:57:52.368Z</time></trkpt><trkpt lat="45.7648667" lon="9.425679"><ele>204.83333333333334</ele><time>2026-03-25T13:57:53.368Z</time></trkpt><trkpt lat="45.7647809" lon="9.4257138"><ele>203.0</ele><time>2026-03-25T13:57:54.368Z</time></trkpt><trkpt lat="45.7646946" lon="9.4257512"><ele>203.0</ele><time>2026-03-25T13:57:55.368Z</time></trkpt><trkpt lat="45.7646056" lon="9.4257904"><ele>203.0</ele><time>2026-03-25T13:57:56.368Z</time></trkpt><trkpt lat="45.7645211" lon="9.4258208"><ele>203.0</ele><time>2026-03-25T13:57:57.367Z</time></trkpt><trkpt lat="45.7644303" lon="9.4258579"><ele>203.0</ele><time>2026-03-25T13:57:58.367Z</time></trkpt><trkpt lat="45.764341" lon="9.4258934"><ele>203.0</ele><time>2026-03-25T13:57:59.368Z</time></trkpt><trkpt lat="45.7642561" lon="9.4259269"><ele>204.66666666666669</ele><time>2026-03-25T13:58:00.368Z</time></trkpt><trkpt lat="45.7641689" lon="9.4259585"><ele>206.33333333333334</ele><time>2026-03-25T13:58:01.368Z</time></trkpt><trkpt lat="45.764084" lon="9.4259951"><ele>208.0</ele><time>2026-03-25T13:58:02.367Z</time></trkpt><trkpt lat="45.7639966" lon="9.4260287"><ele>209.66666666666669</ele><time>2026-03-25T13:58:03.368Z</time></trkpt><trkpt lat="45.7639113" lon="9.4260538"><ele>211.33333333333334</ele><time>2026-03-25T13:58:04.368Z</time></trkpt><trkpt lat="45.7638223" lon="9.426087"><ele>213.0</ele><time>2026-03-25T13:58:05.367Z</time></trkpt><trkpt lat="45.7637351" lon="9.4261271"><ele>213.0</ele><time>2026-03-25T13:58:06.368Z</time></trkpt><trkpt lat="45.763649" lon="9.4261528"><ele>213.0</ele><time>2026-03-25T13:58:07.368Z</time></trkpt><trkpt lat="45.7635641" lon="9.4261857"><ele>213.0</ele><time>2026-03-25T13:58:08.368Z</time></trkpt><trkpt lat="45.7634782" lon="9.4262246"><ele>213.0</ele><time>2026-03-25T13:58:09.368Z</time></trkpt><trkpt lat="45.7633866" lon="9.4262636"><ele>213.0</ele><time>2026-03-25T13:58:10.368Z</time></trkpt><trkpt lat="45.7632984" lon="9.4262995"><ele>211.4</ele><time>2026-03-25T13:58:11.368Z</time></trkpt><trkpt lat="45.7632089" lon="9.426334"><ele>209.8</ele><time>2026-03-25T13:58:12.368Z</time></trkpt><trkpt lat="45.7631204" lon="9.4263618"><ele>208.2</ele><time>2026-03-25T13:58:13.368Z</time></trkpt><trkpt lat="45.7630289" lon="9.4263904"><ele>206.6</ele><time>2026-03-25T13:58:14.368Z</time></trkpt><trkpt lat="45.7629399" lon="9.4264131"><ele>205.0</ele><time>2026-03-25T13:58:15.368Z</time></trkpt><trkpt lat="45.7628492" lon="9.4264412"><ele>205.0</ele><time>2026-03-25T13:58:16.368Z</time></trkpt><trkpt lat="45.7627584" lon="9.4264597"><ele>205.0</ele><time>2026-03-25T13:58:17.367Z</time></trkpt><trkpt lat="45.7626683" lon="9.4264759"><ele>205.0</ele><time>2026-03-25T13:58:18.367Z</time></trkpt><trkpt lat="45.7625765" lon="9.4264916"><ele>205.0</ele><time>2026-03-25T13:58:19.367Z</time></trkpt><trkpt lat="45.7624757" lon="9.4264961"><ele>205.0</ele><time>2026-03-25T13:58:20.368Z</time></trkpt><trkpt lat="45.7623822" lon="9.4265034"><ele>207.0</ele><time>2026-03-25T13:58:21.368Z</time></trkpt><trkpt lat="45.7622892" lon="9.4265085"><ele>209.0</ele><time>2026-03-25T13:58:22.367Z</time></trkpt><trkpt lat="45.7621988" lon="9.4265146"><ele>211.0</ele><time>2026-03-25T13:58:23.368Z</time></trkpt><trkpt lat="45.7621085" lon="9.4265246"><ele>213.0</ele><time>2026-03-25T13:58:24.368Z</time></trkpt><trkpt lat="45.7620191" lon="9.4265327"><ele>215.0</ele><time>2026-03-25T13:58:25.367Z</time></trkpt><trkpt lat="45.7619268" lon="9.4265436"><ele>214.2</ele><time>2026-03-25T13:58:26.367Z</time></trkpt><trkpt lat="45.7618359" lon="9.4265502"><ele>213.4</ele><time>2026-03-25T13:58:27.368Z</time></trkpt><trkpt lat="45.7617447" lon="9.4265584"><ele>212.60000000000002</ele><time>2026-03-25T13:58:28.367Z</time></trkpt><trkpt lat="45.7616526" lon="9.4265655"><ele>211.8</ele><time>2026-03-25T13:58:29.368Z</time></trkpt><trkpt lat="45.7615627" lon="9.4265724"><ele>211.0</ele><time>2026-03-25T13:58:30.368Z</time></trkpt><trkpt lat="45.7614712" lon="9.4265798"><ele>210.99999999999997</ele><time>2026-03-25T13:58:31.368Z</time></trkpt><trkpt lat="45.7613825" lon="9.4265822"><ele>211.0</ele><time>2026-03-25T13:58:32.367Z</time></trkpt><trkpt lat="45.7612924" lon="9.4265916"><ele>211.0</ele><time>2026-03-25T13:58:33.367Z</time></trkpt><trkpt lat="45.7612078" lon="9.4265973"><ele>211.0</ele><time>2026-03-25T13:58:34.367Z</time></trkpt><trkpt lat="45.7611192" lon="9.4266065"><ele>210.99999999999997</ele><time>2026-03-25T13:58:35.367Z</time></trkpt><trkpt lat="45.7610331" lon="9.4266114"><ele>211.0</ele><time>2026-03-25T13:58:36.367Z</time></trkpt><trkpt lat="45.7609429" lon="9.4266196"><ele>210.8</ele><time>2026-03-25T13:58:37.368Z</time></trkpt><trkpt lat="45.7608543" lon="9.4266203"><ele>210.60000000000002</ele><time>2026-03-25T13:58:38.368Z</time></trkpt><trkpt lat="45.7607651" lon="9.4266274"><ele>210.4</ele><time>2026-03-25T13:58:39.368Z</time></trkpt><trkpt lat="45.7606749" lon="9.4266384"><ele>210.2</ele><time>2026-03-25T13:58:40.368Z</time></trkpt><trkpt lat="45.7605854" lon="9.426646"><ele>210.0</ele><time>2026-03-25T13:58:41.368Z</time></trkpt><trkpt lat="45.7604925" lon="9.4266513"><ele>210.0</ele><time>2026-03-25T13:58:42.368Z</time></trkpt><trkpt lat="45.7604008" lon="9.4266621"><ele>210.0</ele><time>2026-03-25T13:58:43.368Z</time></trkpt><trkpt lat="45.7603084" lon="9.4266724"><ele>210.0</ele><time>2026-03-25T13:58:44.368Z</time></trkpt><trkpt lat="45.7602177" lon="9.4266793"><ele>210.0</ele><time>2026-03-25T13:58:45.367Z</time></trkpt><trkpt lat="45.7601255" lon="9.4266899"><ele>210.0</ele><time>2026-03-25T13:58:46.368Z</time></trkpt><trkpt lat="45.760036" lon="9.4266986"><ele>210.8</ele><time>2026-03-25T13:58:47.368Z</time></trkpt><trkpt lat="45.7599447" lon="9.4267112"><ele>211.6</ele><time>2026-03-25T13:58:48.368Z</time></trkpt><trkpt lat="45.7598569" lon="9.4267156"><ele>212.39999999999998</ele><time>2026-03-25T13:58:49.368Z</time></trkpt><trkpt lat="45.759765" lon="9.4267242"><ele>213.2</ele><time>2026-03-25T13:58:50.368Z</time></trkpt><trkpt lat="45.7596755" lon="9.4267291"><ele>214.0</ele><time>2026-03-25T13:58:51.368Z</time></trkpt><trkpt lat="45.7595844" lon="9.426734"><ele>214.0</ele><time>2026-03-25T13:58:52.368Z</time></trkpt><trkpt lat="45.7594937" lon="9.4267381"><ele>213.99999999999997</ele><time>2026-03-25T13:58:53.368Z</time></trkpt><trkpt lat="45.7594036" lon="9.4267438"><ele>213.99999999999997</ele><time>2026-03-25T13:58:54.368Z</time></trkpt><trkpt lat="45.759313" lon="9.4267504"><ele>214.0</ele><time>2026-03-25T13:58:55.368Z</time></trkpt><trkpt lat="45.7592207" lon="9.4267552"><ele>214.0</ele><time>2026-03-25T13:58:56.368Z</time></trkpt><trkpt lat="45.7591277" lon="9.4267632"><ele>215.6</ele><time>2026-03-25T13:58:57.368Z</time></trkpt><trkpt lat="45.7590375" lon="9.4267662"><ele>217.2</ele><time>2026-03-25T13:58:58.368Z</time></trkpt><trkpt lat="45.7589459" lon="9.4267687"><ele>218.79999999999998</ele><time>2026-03-25T13:58:59.368Z</time></trkpt><trkpt lat="45.7588518" lon="9.426772"><ele>220.39999999999998</ele><time>2026-03-25T13:59:00.368Z</time></trkpt><trkpt lat="45.7587599" lon="9.4267724"><ele>222.0</ele><time>2026-03-25T13:59:01.367Z</time></trkpt><trkpt lat="45.7586718" lon="9.426773"><ele>222.0</ele><time>2026-03-25T13:59:02.367Z</time></trkpt><trkpt lat="45.7585824" lon="9.426774"><ele>222.0</ele><time>2026-03-25T13:59:03.368Z</time></trkpt><trkpt lat="45.7584931" lon="9.4267773"><ele>222.0</ele><time>2026-03-25T13:59:04.368Z</time></trkpt><trkpt lat="45.7584041" lon="9.4267772"><ele>222.0</ele><time>2026-03-25T13:59:05.368Z</time></trkpt><trkpt lat="45.7583164" lon="9.4267736"><ele>222.0</ele><time>2026-03-25T13:59:06.368Z</time></trkpt><trkpt lat="45.7582299" lon="9.4267681"><ele>222.0</ele><time>2026-03-25T13:59:07.368Z</time></trkpt><trkpt lat="45.7581438" lon="9.4267637"><ele>220.33333333333334</ele><time>2026-03-25T13:59:08.367Z</time></trkpt><trkpt lat="45.758057" lon="9.4267628"><ele>218.66666666666669</ele><time>2026-03-25T13:59:09.368Z</time></trkpt><trkpt lat="45.7579685" lon="9.4267547"><ele>217.0</ele><time>2026-03-25T13:59:10.368Z</time></trkpt><trkpt lat="45.7578811" lon="9.4267487"><ele>215.33333333333334</ele><time>2026-03-25T13:59:11.368Z</time></trkpt><trkpt lat="45.7577958" lon="9.4267435"><ele>213.66666666666669</ele><time>2026-03-25T13:59:12.368Z</time></trkpt><trkpt lat="45.7577117" lon="9.426735"><ele>212.0</ele><time>2026-03-25T13:59:13.368Z</time></trkpt><trkpt lat="45.7576241" lon="9.4267298"><ele>212.00000000000003</ele><time>2026-03-25T13:59:14.367Z</time></trkpt><trkpt lat="45.7575385" lon="9.4267273"><ele>212.0</ele><time>2026-03-25T13:59:15.368Z</time></trkpt><trkpt lat="45.7574524" lon="9.4267233"><ele>212.0</ele><time>2026-03-25T13:59:16.368Z</time></trkpt><trkpt lat="45.7573659" lon="9.4267194"><ele>212.0</ele><time>2026-03-25T13:59:17.368Z</time></trkpt><trkpt lat="45.757278" lon="9.4267178"><ele>212.00000000000003</ele><time>2026-03-25T13:59:18.368Z</time></trkpt><trkpt lat="45.75719" lon="9.4267179"><ele>212.0</ele><time>2026-03-25T13:59:19.367Z</time></trkpt><trkpt lat="45.7571021" lon="9.4267162"><ele>212.00000000000003</ele><time>2026-03-25T13:59:20.368Z</time></trkpt><trkpt lat="45.7570145" lon="9.4267145"><ele>212.0</ele><time>2026-03-25T13:59:21.368Z</time></trkpt><trkpt lat="45.7569298" lon="9.4267103"><ele>212.0</ele><time>2026-03-25T13:59:22.367Z</time></trkpt><trkpt lat="45.7568469" lon="9.4267051"><ele>212.0</ele><time>2026-03-25T13:59:23.368Z</time></trkpt><trkpt lat="45.7567602" lon="9.4267044"><ele>212.00000000000003</ele><time>2026-03-25T13:59:24.368Z</time></trkpt><trkpt lat="45.756672" lon="9.426704"><ele>212.0</ele><time>2026-03-25T13:59:25.368Z</time></trkpt><trkpt lat="45.756585" lon="9.426703"><ele>213.00000000000003</ele><time>2026-03-25T13:59:26.368Z</time></trkpt><trkpt lat="45.7565048" lon="9.4267016"><ele>214.0</ele><time>2026-03-25T13:59:27.368Z</time></trkpt><trkpt lat="45.7564306" lon="9.4267012"><ele>215.0</ele><time>2026-03-25T13:59:28.368Z</time></trkpt><trkpt lat="45.7563641" lon="9.4267036"><ele>216.0</ele><time>2026-03-25T13:59:29.368Z</time></trkpt><trkpt lat="45.7562985" lon="9.4267089"><ele>217.00000000000003</ele><time>2026-03-25T13:59:30.368Z</time></trkpt><trkpt lat="45.7561794" lon="9.4267186"><ele>218.0</ele><time>2026-03-25T13:59:32.368Z</time></trkpt><trkpt lat="45.7560759" lon="9.4267297"><ele>218.0</ele><time>2026-03-25T13:59:34.368Z</time></trkpt><trkpt lat="45.7559801" lon="9.4266957"><ele>218.0</ele><time>2026-03-25T13:59:36.368Z</time></trkpt><trkpt lat="45.7558741" lon="9.4266705"><ele>218.0</ele><time>2026-03-25T13:59:38.367Z</time></trkpt><trkpt lat="45.7557694" lon="9.426673"><ele>218.0</ele><time>2026-03-25T13:59:40.367Z</time></trkpt><trkpt lat="45.7556712" lon="9.4266699"><ele>218.0</ele><time>2026-03-25T13:59:42.367Z</time></trkpt><trkpt lat="45.7555873" lon="9.4266694"><ele>218.0</ele><time>2026-03-25T13:59:44.368Z</time></trkpt><trkpt lat="45.7554946" lon="9.426664"><ele>218.0</ele><time>2026-03-25T13:59:46.368Z</time></trkpt><trkpt lat="45.7553807" lon="9.4266668"><ele>218.0</ele><time>2026-03-25T13:59:48.368Z</time></trkpt><trkpt lat="45.7552802" lon="9.4266561"><ele>218.0</ele><time>2026-03-25T13:59:50.367Z</time></trkpt><trkpt lat="45.755206" lon="9.4266534"><ele>218.0</ele><time>2026-03-25T13:59:52.367Z</time></trkpt><trkpt lat="45.7551146" lon="9.4266456"><ele>218.33333333333334</ele><time>2026-03-25T13:59:54.367Z</time></trkpt><trkpt lat="45.7549984" lon="9.4266351"><ele>218.66666666666669</ele><time>2026-03-25T13:59:56.367Z</time></trkpt><trkpt lat="45.7549308" lon="9.4266333"><ele>219.0</ele><time>2026-03-25T13:59:57.368Z</time></trkpt><trkpt lat="45.7548627" lon="9.4266302"><ele>219.33333333333331</ele><time>2026-03-25T13:59:58.368Z</time></trkpt><trkpt lat="45.7547889" lon="9.4266316"><ele>219.66666666666666</ele><time>2026-03-25T13:59:59.368Z</time></trkpt><trkpt lat="45.7547112" lon="9.426632"><ele>220.0</ele><time>2026-03-25T14:00:00.368Z</time></trkpt><trkpt lat="45.7546332" lon="9.4266323"><ele>219.99999999999997</ele><time>2026-03-25T14:00:01.368Z</time></trkpt><trkpt lat="45.7545534" lon="9.4266286"><ele>220.0</ele><time>2026-03-25T14:00:02.368Z</time></trkpt><trkpt lat="45.7544689" lon="9.4266269"><ele>220.0</ele><time>2026-03-25T14:00:03.368Z</time></trkpt><trkpt lat="45.754389" lon="9.4266278"><ele>220.0</ele><time>2026-03-25T14:00:04.368Z</time></trkpt><trkpt lat="45.7543148" lon="9.4266367"><ele>219.99999999999997</ele><time>2026-03-25T14:00:05.367Z</time></trkpt><trkpt lat="45.7542324" lon="9.4266322"><ele>220.0</ele><time>2026-03-25T14:00:06.368Z</time></trkpt><trkpt lat="45.7541489" lon="9.4266283"><ele>219.66666666666666</ele><time>2026-03-25T14:00:07.368Z</time></trkpt><trkpt lat="45.7540636" lon="9.4266235"><ele>219.33333333333331</ele><time>2026-03-25T14:00:08.368Z</time></trkpt><trkpt lat="45.75398" lon="9.4266242"><ele>219.0</ele><time>2026-03-25T14:00:09.368Z</time></trkpt><trkpt lat="45.7538976" lon="9.4266231"><ele>218.66666666666669</ele><time>2026-03-25T14:00:10.368Z</time></trkpt><trkpt lat="45.7538163" lon="9.4266205"><ele>218.33333333333334</ele><time>2026-03-25T14:00:11.368Z</time></trkpt><trkpt lat="45.7537327" lon="9.426625"><ele>218.0</ele><time>2026-03-25T14:00:12.368Z</time></trkpt><trkpt lat="45.7536488" lon="9.4266154"><ele>218.00000000000003</ele><time>2026-03-25T14:00:13.368Z</time></trkpt><trkpt lat="45.7535671" lon="9.4266116"><ele>218.0</ele><time>2026-03-25T14:00:14.367Z</time></trkpt><trkpt lat="45.753487" lon="9.4266056"><ele>218.0</ele><time>2026-03-25T14:00:15.367Z</time></trkpt><trkpt lat="45.7534087" lon="9.4265989"><ele>218.0</ele><time>2026-03-25T14:00:16.367Z</time></trkpt><trkpt lat="45.7533288" lon="9.4265868"><ele>218.00000000000003</ele><time>2026-03-25T14:00:17.368Z</time></trkpt><trkpt lat="45.7532456" lon="9.4265854"><ele>218.0</ele><time>2026-03-25T14:00:18.368Z</time></trkpt><trkpt lat="45.7531671" lon="9.4265795"><ele>217.66666666666669</ele><time>2026-03-25T14:00:19.367Z</time></trkpt><trkpt lat="45.7530878" lon="9.4265816"><ele>217.33333333333334</ele><time>2026-03-25T14:00:20.368Z</time></trkpt><trkpt lat="45.7530018" lon="9.4265804"><ele>217.0</ele><time>2026-03-25T14:00:21.368Z</time></trkpt><trkpt lat="45.7529199" lon="9.4265819"><ele>216.66666666666669</ele><time>2026-03-25T14:00:22.367Z</time></trkpt><trkpt lat="45.7528383" lon="9.4265811"><ele>216.33333333333334</ele><time>2026-03-25T14:00:23.368Z</time></trkpt><trkpt lat="45.7527583" lon="9.4265763"><ele>216.0</ele><time>2026-03-25T14:00:24.368Z</time></trkpt><trkpt lat="45.7526763" lon="9.4265744"><ele>215.66666666666666</ele><time>2026-03-25T14:00:25.368Z</time></trkpt><trkpt lat="45.7525952" lon="9.4265764"><ele>215.33333333333331</ele><time>2026-03-25T14:00:26.367Z</time></trkpt><trkpt lat="45.7525116" lon="9.4265692"><ele>215.0</ele><time>2026-03-25T14:00:27.368Z</time></trkpt><trkpt lat="45.7524282" lon="9.4265692"><ele>214.66666666666666</ele><time>2026-03-25T14:00:28.368Z</time></trkpt><trkpt lat="45.7523457" lon="9.4265691"><ele>214.33333333333331</ele><time>2026-03-25T14:00:29.368Z</time></trkpt><trkpt lat="45.7522596" lon="9.4265769"><ele>214.0</ele><time>2026-03-25T14:00:30.368Z</time></trkpt><trkpt lat="45.7521738" lon="9.4265803"><ele>213.99999999999997</ele><time>2026-03-25T14:00:31.367Z</time></trkpt><trkpt lat="45.7520871" lon="9.4265823"><ele>214.0</ele><time>2026-03-25T14:00:32.367Z</time></trkpt><trkpt lat="45.7520037" lon="9.4265789"><ele>214.0</ele><time>2026-03-25T14:00:33.367Z</time></trkpt><trkpt lat="45.7519192" lon="9.4265669"><ele>214.0</ele><time>2026-03-25T14:00:34.368Z</time></trkpt><trkpt lat="45.7518329" lon="9.4265525"><ele>213.99999999999997</ele><time>2026-03-25T14:00:35.368Z</time></trkpt><trkpt lat="45.7517468" lon="9.4265442"><ele>214.0</ele><time>2026-03-25T14:00:36.368Z</time></trkpt><trkpt lat="45.7516603" lon="9.4265441"><ele>213.33333333333331</ele><time>2026-03-25T14:00:37.367Z</time></trkpt><trkpt lat="45.7515749" lon="9.4265369"><ele>212.66666666666666</ele><time>2026-03-25T14:00:38.367Z</time></trkpt><trkpt lat="45.7514893" lon="9.4265287"><ele>212.0</ele><time>2026-03-25T14:00:39.367Z</time></trkpt><trkpt lat="45.7514033" lon="9.4265252"><ele>211.33333333333331</ele><time>2026-03-25T14:00:40.367Z</time></trkpt><trkpt lat="45.7513207" lon="9.4265184"><ele>210.66666666666666</ele><time>2026-03-25T14:00:41.367Z</time></trkpt><trkpt lat="45.7512404" lon="9.4264997"><ele>210.0</ele><time>2026-03-25T14:00:42.368Z</time></trkpt><trkpt lat="45.7511548" lon="9.4264867"><ele>210.0</ele><time>2026-03-25T14:00:43.368Z</time></trkpt><trkpt lat="45.7510719" lon="9.4264753"><ele>210.0</ele><time>2026-03-25T14:00:44.367Z</time></trkpt><trkpt lat="45.7509932" lon="9.4264664"><ele>210.0</ele><time>2026-03-25T14:00:45.368Z</time></trkpt><trkpt lat="45.7509074" lon="9.4264603"><ele>210.0</ele><time>2026-03-25T14:00:46.368Z</time></trkpt><trkpt lat="45.7508247" lon="9.4264548"><ele>210.0</ele><time>2026-03-25T14:00:47.368Z</time></trkpt><trkpt lat="45.7507518" lon="9.4264527"><ele>210.0</ele><time>2026-03-25T14:00:48.368Z</time></trkpt><trkpt lat="45.7506502" lon="9.4264361"><ele>209.8</ele><time>2026-03-25T14:00:50.367Z</time></trkpt><trkpt lat="45.7505551" lon="9.4263883"><ele>209.6</ele><time>2026-03-25T14:00:52.367Z</time></trkpt><trkpt lat="45.7504348" lon="9.4263934"><ele>209.39999999999998</ele><time>2026-03-25T14:00:54.368Z</time></trkpt><trkpt lat="45.7503064" lon="9.4264056"><ele>209.2</ele><time>2026-03-25T14:00:56.368Z</time></trkpt><trkpt lat="45.7502382" lon="9.4264035"><ele>209.0</ele><time>2026-03-25T14:00:57.368Z</time></trkpt><trkpt lat="45.7501706" lon="9.4264012"><ele>209.0</ele><time>2026-03-25T14:00:58.368Z</time></trkpt><trkpt lat="45.7501007" lon="9.4264054"><ele>209.0</ele><time>2026-03-25T14:00:59.368Z</time></trkpt><trkpt lat="45.7500323" lon="9.426405"><ele>209.0</ele><time>2026-03-25T14:01:00.367Z</time></trkpt><trkpt lat="45.7499614" lon="9.4264065"><ele>209.0</ele><time>2026-03-25T14:01:01.368Z</time></trkpt><trkpt lat="45.7498921" lon="9.4264028"><ele>209.0</ele><time>2026-03-25T14:01:02.368Z</time></trkpt><trkpt lat="45.7498215" lon="9.4263992"><ele>209.0</ele><time>2026-03-25T14:01:03.368Z</time></trkpt><trkpt lat="45.7497474" lon="9.426396"><ele>209.0</ele><time>2026-03-25T14:01:04.368Z</time></trkpt><trkpt lat="45.7496729" lon="9.4263903"><ele>209.0</ele><time>2026-03-25T14:01:05.368Z</time></trkpt><trkpt lat="45.7495988" lon="9.4263862"><ele>209.0</ele><time>2026-03-25T14:01:06.368Z</time></trkpt><trkpt lat="45.7495264" lon="9.4263753"><ele>209.0</ele><time>2026-03-25T14:01:07.368Z</time></trkpt><trkpt lat="45.7494544" lon="9.4263673"><ele>209.0</ele><time>2026-03-25T14:01:08.368Z</time></trkpt><trkpt lat="45.7493806" lon="9.4263563"><ele>209.0</ele><time>2026-03-25T14:01:09.368Z</time></trkpt><trkpt lat="45.7493063" lon="9.4263521"><ele>209.0</ele><time>2026-03-25T14:01:10.367Z</time></trkpt><trkpt lat="45.7492327" lon="9.426349"><ele>209.0</ele><time>2026-03-25T14:01:11.367Z</time></trkpt><trkpt lat="45.7491561" lon="9.4263407"><ele>209.16666666666669</ele><time>2026-03-25T14:01:12.367Z</time></trkpt><trkpt lat="45.7490763" lon="9.4263355"><ele>209.33333333333334</ele><time>2026-03-25T14:01:13.367Z</time></trkpt><trkpt lat="45.7489999" lon="9.4263262"><ele>209.5</ele><time>2026-03-25T14:01:14.367Z</time></trkpt><trkpt lat="45.7489222" lon="9.4263174"><ele>209.66666666666669</ele><time>2026-03-25T14:01:15.368Z</time></trkpt><trkpt lat="45.7488419" lon="9.4263052"><ele>209.83333333333334</ele><time>2026-03-25T14:01:16.368Z</time></trkpt><trkpt lat="45.7487625" lon="9.4262942"><ele>210.0</ele><time>2026-03-25T14:01:17.368Z</time></trkpt><trkpt lat="45.7486816" lon="9.4262881"><ele>210.66666666666666</ele><time>2026-03-25T14:01:18.368Z</time></trkpt><trkpt lat="45.7486039" lon="9.426281"><ele>211.33333333333331</ele><time>2026-03-25T14:01:19.367Z</time></trkpt><trkpt lat="45.7485192" lon="9.4262737"><ele>212.0</ele><time>2026-03-25T14:01:20.368Z</time></trkpt><trkpt lat="45.7484333" lon="9.426267"><ele>212.66666666666666</ele><time>2026-03-25T14:01:21.367Z</time></trkpt><trkpt lat="45.7483479" lon="9.4262621"><ele>213.33333333333331</ele><time>2026-03-25T14:01:22.368Z</time></trkpt><trkpt lat="45.7482633" lon="9.4262557"><ele>214.0</ele><time>2026-03-25T14:01:23.368Z</time></trkpt><trkpt lat="45.7481781" lon="9.4262482"><ele>214.16666666666666</ele><time>2026-03-25T14:01:24.368Z</time></trkpt><trkpt lat="45.7480967" lon="9.4262339"><ele>214.33333333333331</ele><time>2026-03-25T14:01:25.368Z</time></trkpt><trkpt lat="45.7480151" lon="9.4262207"><ele>214.5</ele><time>2026-03-25T14:01:26.368Z</time></trkpt><trkpt lat="45.7479342" lon="9.4262112"><ele>214.66666666666669</ele><time>2026-03-25T14:01:27.367Z</time></trkpt><trkpt lat="45.7478505" lon="9.4262019"><ele>214.83333333333334</ele><time>2026-03-25T14:01:28.368Z</time></trkpt><trkpt lat="45.7477675" lon="9.4261873"><ele>215.0</ele><time>2026-03-25T14:01:29.367Z</time></trkpt><trkpt lat="45.7476851" lon="9.4261768"><ele>215.50000000000003</ele><time>2026-03-25T14:01:30.368Z</time></trkpt><trkpt lat="45.7476005" lon="9.4261707"><ele>216.0</ele><time>2026-03-25T14:01:31.367Z</time></trkpt><trkpt lat="45.747518" lon="9.4261647"><ele>216.5</ele><time>2026-03-25T14:01:32.367Z</time></trkpt><trkpt lat="45.7474317" lon="9.4261605"><ele>217.0</ele><time>2026-03-25T14:01:33.368Z</time></trkpt><trkpt lat="45.7473459" lon="9.4261564"><ele>217.50000000000003</ele><time>2026-03-25T14:01:34.368Z</time></trkpt><trkpt lat="45.7472656" lon="9.426141"><ele>218.0</ele><time>2026-03-25T14:01:35.367Z</time></trkpt><trkpt lat="45.7471809" lon="9.4261337"><ele>218.00000000000003</ele><time>2026-03-25T14:01:36.368Z</time></trkpt><trkpt lat="45.7470971" lon="9.4261245"><ele>218.0</ele><time>2026-03-25T14:01:37.368Z</time></trkpt><trkpt lat="45.7470148" lon="9.4261155"><ele>218.0</ele><time>2026-03-25T14:01:38.368Z</time></trkpt><trkpt lat="45.7469301" lon="9.4261079"><ele>218.0</ele><time>2026-03-25T14:01:39.368Z</time></trkpt><trkpt lat="45.7468444" lon="9.4260999"><ele>218.00000000000003</ele><time>2026-03-25T14:01:40.368Z</time></trkpt><trkpt lat="45.7467599" lon="9.4260901"><ele>218.0</ele><time>2026-03-25T14:01:41.367Z</time></trkpt><trkpt lat="45.7466718" lon="9.4260819"><ele>217.66666666666669</ele><time>2026-03-25T14:01:42.368Z</time></trkpt><trkpt lat="45.7465883" lon="9.4260727"><ele>217.33333333333334</ele><time>2026-03-25T14:01:43.368Z</time></trkpt><trkpt lat="45.7465026" lon="9.426065"><ele>217.0</ele><time>2026-03-25T14:01:44.368Z</time></trkpt><trkpt lat="45.7464171" lon="9.426054"><ele>216.66666666666669</ele><time>2026-03-25T14:01:45.368Z</time></trkpt><trkpt lat="45.7463308" lon="9.4260438"><ele>216.33333333333334</ele><time>2026-03-25T14:01:46.368Z</time></trkpt><trkpt lat="45.7462441" lon="9.4260307"><ele>216.0</ele><time>2026-03-25T14:01:47.368Z</time></trkpt><trkpt lat="45.7461659" lon="9.4260048"><ele>216.0</ele><time>2026-03-25T14:01:48.368Z</time></trkpt><trkpt lat="45.7460846" lon="9.4259843"><ele>216.0</ele><time>2026-03-25T14:01:49.368Z</time></trkpt><trkpt lat="45.7460027" lon="9.4259569"><ele>216.0</ele><time>2026-03-25T14:01:50.368Z</time></trkpt><trkpt lat="45.7459197" lon="9.425928"><ele>216.0</ele><time>2026-03-25T14:01:51.368Z</time></trkpt><trkpt lat="45.7458381" lon="9.4258963"><ele>216.0</ele><time>2026-03-25T14:01:52.367Z</time></trkpt><trkpt lat="45.7457565" lon="9.4258675"><ele>216.0</ele><time>2026-03-25T14:01:53.368Z</time></trkpt><trkpt lat="45.7456733" lon="9.425837"><ele>216.0</ele><time>2026-03-25T14:01:54.368Z</time></trkpt><trkpt lat="45.7455919" lon="9.4257988"><ele>216.0</ele><time>2026-03-25T14:01:55.367Z</time></trkpt><trkpt lat="45.745511" lon="9.42576"><ele>216.0</ele><time>2026-03-25T14:01:56.368Z</time></trkpt><trkpt lat="45.7454322" lon="9.4257193"><ele>216.0</ele><time>2026-03-25T14:01:57.368Z</time></trkpt><trkpt lat="45.7453516" lon="9.4256751"><ele>216.0</ele><time>2026-03-25T14:01:58.368Z</time></trkpt><trkpt lat="45.7452717" lon="9.4256288"><ele>216.0</ele><time>2026-03-25T14:01:59.368Z</time></trkpt><trkpt lat="45.7451903" lon="9.4255829"><ele>215.33333333333334</ele><time>2026-03-25T14:02:00.368Z</time></trkpt><trkpt lat="45.7451079" lon="9.4255372"><ele>214.66666666666669</ele><time>2026-03-25T14:02:01.368Z</time></trkpt><trkpt lat="45.7450251" lon="9.4254929"><ele>214.0</ele><time>2026-03-25T14:02:02.368Z</time></trkpt><trkpt lat="45.7449409" lon="9.4254469"><ele>213.33333333333334</ele><time>2026-03-25T14:02:03.367Z</time></trkpt><trkpt lat="45.7448575" lon="9.4254028"><ele>212.66666666666669</ele><time>2026-03-25T14:02:04.368Z</time></trkpt><trkpt lat="45.7447752" lon="9.4253581"><ele>212.0</ele><time>2026-03-25T14:02:05.367Z</time></trkpt><trkpt lat="45.744692" lon="9.4253124"><ele>213.2</ele><time>2026-03-25T14:02:06.368Z</time></trkpt><trkpt lat="45.7446078" lon="9.4252607"><ele>214.39999999999998</ele><time>2026-03-25T14:02:07.367Z</time></trkpt><trkpt lat="45.7445209" lon="9.4252122"><ele>215.60000000000002</ele><time>2026-03-25T14:02:08.368Z</time></trkpt><trkpt lat="45.7444346" lon="9.4251651"><ele>216.8</ele><time>2026-03-25T14:02:09.368Z</time></trkpt><trkpt lat="45.744347" lon="9.4251208"><ele>218.0</ele><time>2026-03-25T14:02:10.368Z</time></trkpt><trkpt lat="45.7442597" lon="9.4250774"><ele>218.0</ele><time>2026-03-25T14:02:11.368Z</time></trkpt><trkpt lat="45.7441738" lon="9.4250353"><ele>218.0</ele><time>2026-03-25T14:02:12.367Z</time></trkpt><trkpt lat="45.7440882" lon="9.4249902"><ele>218.0</ele><time>2026-03-25T14:02:13.367Z</time></trkpt><trkpt lat="45.7440029" lon="9.424945"><ele>218.0</ele><time>2026-03-25T14:02:14.368Z</time></trkpt><trkpt lat="45.7439177" lon="9.4248984"><ele>218.0</ele><time>2026-03-25T14:02:15.368Z</time></trkpt><trkpt lat="45.7438358" lon="9.4248443"><ele>218.0</ele><time>2026-03-25T14:02:16.367Z</time></trkpt><trkpt lat="45.7437519" lon="9.4247884"><ele>218.0</ele><time>2026-03-25T14:02:17.368Z</time></trkpt><trkpt lat="45.7436691" lon="9.4247382"><ele>218.0</ele><time>2026-03-25T14:02:18.368Z</time></trkpt><trkpt lat="45.7435846" lon="9.4246913"><ele>218.0</ele><time>2026-03-25T14:02:19.368Z</time></trkpt><trkpt lat="45.7434999" lon="9.4246433"><ele>218.0</ele><time>2026-03-25T14:02:20.367Z</time></trkpt><trkpt lat="45.7434163" lon="9.4245992"><ele>219.4</ele><time>2026-03-25T14:02:21.367Z</time></trkpt><trkpt lat="45.7433331" lon="9.4245539"><ele>220.8</ele><time>2026-03-25T14:02:22.368Z</time></trkpt><trkpt lat="45.7432479" lon="9.4245114"><ele>222.2</ele><time>2026-03-25T14:02:23.368Z</time></trkpt><trkpt lat="45.7431621" lon="9.4244631"><ele>223.6</ele><time>2026-03-25T14:02:24.368Z</time></trkpt><trkpt lat="45.7430761" lon="9.4244128"><ele>225.0</ele><time>2026-03-25T14:02:25.367Z</time></trkpt><trkpt lat="45.7429931" lon="9.4243629"><ele>225.0</ele><time>2026-03-25T14:02:26.368Z</time></trkpt><trkpt lat="45.7429082" lon="9.4243164"><ele>225.0</ele><time>2026-03-25T14:02:27.368Z</time></trkpt><trkpt lat="45.7428221" lon="9.4242673"><ele>225.0</ele><time>2026-03-25T14:02:28.368Z</time></trkpt><trkpt lat="45.7427354" lon="9.4242208"><ele>225.0</ele><time>2026-03-25T14:02:29.367Z</time></trkpt><trkpt lat="45.7426494" lon="9.4241743"><ele>225.0</ele><time>2026-03-25T14:02:30.368Z</time></trkpt><trkpt lat="45.7425615" lon="9.4241244"><ele>223.2</ele><time>2026-03-25T14:02:31.368Z</time></trkpt><trkpt lat="45.7424743" lon="9.4240718"><ele>221.4</ele><time>2026-03-25T14:02:32.368Z</time></trkpt><trkpt lat="45.7423852" lon="9.4240213"><ele>219.60000000000002</ele><time>2026-03-25T14:02:33.368Z</time></trkpt><trkpt lat="45.7422959" lon="9.4239742"><ele>217.8</ele><time>2026-03-25T14:02:34.368Z</time></trkpt><trkpt lat="45.7422061" lon="9.4239243"><ele>216.0</ele><time>2026-03-25T14:02:35.368Z</time></trkpt><trkpt lat="45.7421173" lon="9.4238751"><ele>216.0</ele><time>2026-03-25T14:02:36.368Z</time></trkpt><trkpt lat="45.7420304" lon="9.4238183"><ele>216.00000000000003</ele><time>2026-03-25T14:02:37.367Z</time></trkpt><trkpt lat="45.7419416" lon="9.4237614"><ele>216.00000000000003</ele><time>2026-03-25T14:02:38.368Z</time></trkpt><trkpt lat="45.7418543" lon="9.4237079"><ele>216.0</ele><time>2026-03-25T14:02:39.368Z</time></trkpt><trkpt lat="45.7417672" lon="9.4236495"><ele>216.0</ele><time>2026-03-25T14:02:40.368Z</time></trkpt><trkpt lat="45.7416808" lon="9.4235865"><ele>216.60000000000002</ele><time>2026-03-25T14:02:41.367Z</time></trkpt><trkpt lat="45.7415952" lon="9.423526"><ele>217.20000000000002</ele><time>2026-03-25T14:02:42.367Z</time></trkpt><trkpt lat="45.7415079" lon="9.423464"><ele>217.79999999999998</ele><time>2026-03-25T14:02:43.368Z</time></trkpt><trkpt lat="45.7414206" lon="9.4234009"><ele>218.39999999999998</ele><time>2026-03-25T14:02:44.368Z</time></trkpt><trkpt lat="45.7413339" lon="9.423337"><ele>219.0</ele><time>2026-03-25T14:02:45.368Z</time></trkpt><trkpt lat="45.7412482" lon="9.4232723"><ele>219.0</ele><time>2026-03-25T14:02:46.368Z</time></trkpt><trkpt lat="45.7411639" lon="9.4231972"><ele>218.99999999999997</ele><time>2026-03-25T14:02:47.368Z</time></trkpt><trkpt lat="45.7410793" lon="9.4231254"><ele>218.99999999999997</ele><time>2026-03-25T14:02:48.367Z</time></trkpt><trkpt lat="45.7409952" lon="9.4230551"><ele>219.0</ele><time>2026-03-25T14:02:49.368Z</time></trkpt><trkpt lat="45.7409078" lon="9.4229887"><ele>219.0</ele><time>2026-03-25T14:02:50.368Z</time></trkpt><trkpt lat="45.7408187" lon="9.422921"><ele>219.6</ele><time>2026-03-25T14:02:51.368Z</time></trkpt><trkpt lat="45.7407298" lon="9.422852"><ele>220.2</ele><time>2026-03-25T14:02:52.368Z</time></trkpt><trkpt lat="45.7406415" lon="9.4227825"><ele>220.79999999999998</ele><time>2026-03-25T14:02:53.367Z</time></trkpt><trkpt lat="45.7405521" lon="9.4227157"><ele>221.39999999999998</ele><time>2026-03-25T14:02:54.367Z</time></trkpt><trkpt lat="45.7404645" lon="9.4226486"><ele>222.0</ele><time>2026-03-25T14:02:55.367Z</time></trkpt><trkpt lat="45.7403775" lon="9.4225857"><ele>222.0</ele><time>2026-03-25T14:02:56.368Z</time></trkpt><trkpt lat="45.7402913" lon="9.4225225"><ele>222.0</ele><time>2026-03-25T14:02:57.368Z</time></trkpt><trkpt lat="45.7402067" lon="9.4224572"><ele>222.0</ele><time>2026-03-25T14:02:58.368Z</time></trkpt><trkpt lat="45.7401271" lon="9.4223857"><ele>222.0</ele><time>2026-03-25T14:02:59.368Z</time></trkpt><trkpt lat="45.7400432" lon="9.4223145"><ele>222.0</ele><time>2026-03-25T14:03:00.368Z</time></trkpt><trkpt lat="45.7399605" lon="9.4222474"><ele>221.6</ele><time>2026-03-25T14:03:01.368Z</time></trkpt><trkpt lat="45.7398777" lon="9.4221841"><ele>221.2</ele><time>2026-03-25T14:03:02.368Z</time></trkpt><trkpt lat="45.7397961" lon="9.4221173"><ele>220.8</ele><time>2026-03-25T14:03:03.367Z</time></trkpt><trkpt lat="45.7397138" lon="9.4220521"><ele>220.4</ele><time>2026-03-25T14:03:04.368Z</time></trkpt><trkpt lat="45.739633" lon="9.4219875"><ele>220.0</ele><time>2026-03-25T14:03:05.368Z</time></trkpt><trkpt lat="45.7395524" lon="9.4219204"><ele>220.0</ele><time>2026-03-25T14:03:06.368Z</time></trkpt><trkpt lat="45.7394691" lon="9.4218538"><ele>220.0</ele><time>2026-03-25T14:03:07.367Z</time></trkpt><trkpt lat="45.7393852" lon="9.4217881"><ele>220.0</ele><time>2026-03-25T14:03:08.367Z</time></trkpt><trkpt lat="45.7393008" lon="9.4217257"><ele>220.0</ele><time>2026-03-25T14:03:09.368Z</time></trkpt><trkpt lat="45.7392153" lon="9.4216631"><ele>220.0</ele><time>2026-03-25T14:03:10.368Z</time></trkpt><trkpt lat="45.7391304" lon="9.4216019"><ele>220.0</ele><time>2026-03-25T14:03:11.368Z</time></trkpt><trkpt lat="45.7390453" lon="9.4215393"><ele>220.0</ele><time>2026-03-25T14:03:12.368Z</time></trkpt><trkpt lat="45.7389635" lon="9.4214731"><ele>220.0</ele><time>2026-03-25T14:03:13.367Z</time></trkpt><trkpt lat="45.7388811" lon="9.4214063"><ele>220.0</ele><time>2026-03-25T14:03:14.368Z</time></trkpt><trkpt lat="45.7388033" lon="9.4213391"><ele>220.0</ele><time>2026-03-25T14:03:15.367Z</time></trkpt><trkpt lat="45.7387199" lon="9.4212797"><ele>220.0</ele><time>2026-03-25T14:03:16.368Z</time></trkpt><trkpt lat="45.7386375" lon="9.4212208"><ele>220.0</ele><time>2026-03-25T14:03:17.367Z</time></trkpt><trkpt lat="45.7385584" lon="9.421157"><ele>220.0</ele><time>2026-03-25T14:03:18.368Z</time></trkpt><trkpt lat="45.738478" lon="9.4210909"><ele>220.0</ele><time>2026-03-25T14:03:19.368Z</time></trkpt><trkpt lat="45.7383978" lon="9.4210247"><ele>220.0</ele><time>2026-03-25T14:03:20.368Z</time></trkpt><trkpt lat="45.738319" lon="9.4209637"><ele>219.8</ele><time>2026-03-25T14:03:21.368Z</time></trkpt><trkpt lat="45.7382341" lon="9.4209036"><ele>219.6</ele><time>2026-03-25T14:03:22.368Z</time></trkpt><trkpt lat="45.7381516" lon="9.4208427"><ele>219.39999999999998</ele><time>2026-03-25T14:03:23.368Z</time></trkpt><trkpt lat="45.7380698" lon="9.4207796"><ele>219.2</ele><time>2026-03-25T14:03:24.367Z</time></trkpt><trkpt lat="45.7379866" lon="9.4207169"><ele>219.0</ele><time>2026-03-25T14:03:25.367Z</time></trkpt><trkpt lat="45.7379024" lon="9.420654"><ele>219.0</ele><time>2026-03-25T14:03:26.368Z</time></trkpt><trkpt lat="45.7378186" lon="9.420591"><ele>218.99999999999997</ele><time>2026-03-25T14:03:27.368Z</time></trkpt><trkpt lat="45.7377394" lon="9.4205316"><ele>218.99999999999997</ele><time>2026-03-25T14:03:28.368Z</time></trkpt><trkpt lat="45.737654" lon="9.4204672"><ele>219.0</ele><time>2026-03-25T14:03:29.368Z</time></trkpt><trkpt lat="45.7375696" lon="9.4204033"><ele>219.0</ele><time>2026-03-25T14:03:30.368Z</time></trkpt><trkpt lat="45.7374898" lon="9.4203376"><ele>219.39999999999998</ele><time>2026-03-25T14:03:31.368Z</time></trkpt><trkpt lat="45.7374065" lon="9.4202771"><ele>219.79999999999998</ele><time>2026-03-25T14:03:32.367Z</time></trkpt><trkpt lat="45.7373255" lon="9.4202161"><ele>220.20000000000002</ele><time>2026-03-25T14:03:33.367Z</time></trkpt><trkpt lat="45.7372421" lon="9.4201555"><ele>220.60000000000002</ele><time>2026-03-25T14:03:34.368Z</time></trkpt><trkpt lat="45.7371589" lon="9.4200948"><ele>221.0</ele><time>2026-03-25T14:03:35.368Z</time></trkpt><trkpt lat="45.7370774" lon="9.4200293"><ele>221.0</ele><time>2026-03-25T14:03:36.368Z</time></trkpt><trkpt lat="45.7369966" lon="9.4199609"><ele>221.00000000000003</ele><time>2026-03-25T14:03:37.368Z</time></trkpt><trkpt lat="45.7369143" lon="9.4198966"><ele>221.00000000000003</ele><time>2026-03-25T14:03:38.368Z</time></trkpt><trkpt lat="45.7368355" lon="9.4198305"><ele>221.0</ele><time>2026-03-25T14:03:39.368Z</time></trkpt><trkpt lat="45.7367536" lon="9.4197704"><ele>221.0</ele><time>2026-03-25T14:03:40.368Z</time></trkpt><trkpt lat="45.7366717" lon="9.4197061"><ele>221.20000000000002</ele><time>2026-03-25T14:03:41.367Z</time></trkpt><trkpt lat="45.7365888" lon="9.4196466"><ele>221.40000000000003</ele><time>2026-03-25T14:03:42.368Z</time></trkpt><trkpt lat="45.7365058" lon="9.4195823"><ele>221.6</ele><time>2026-03-25T14:03:43.368Z</time></trkpt><trkpt lat="45.7364245" lon="9.419516"><ele>221.8</ele><time>2026-03-25T14:03:44.367Z</time></trkpt><trkpt lat="45.7363437" lon="9.4194552"><ele>222.0</ele><time>2026-03-25T14:03:45.367Z</time></trkpt><trkpt lat="45.7362644" lon="9.4193983"><ele>222.0</ele><time>2026-03-25T14:03:46.368Z</time></trkpt><trkpt lat="45.736183" lon="9.419338"><ele>222.0</ele><time>2026-03-25T14:03:47.368Z</time></trkpt><trkpt lat="45.7361067" lon="9.4192692"><ele>222.0</ele><time>2026-03-25T14:03:48.368Z</time></trkpt><trkpt lat="45.7360285" lon="9.4192099"><ele>222.0</ele><time>2026-03-25T14:03:49.367Z</time></trkpt><trkpt lat="45.7359525" lon="9.4191515"><ele>222.0</ele><time>2026-03-25T14:03:50.368Z</time></trkpt><trkpt lat="45.7358805" lon="9.4190853"><ele>222.0</ele><time>2026-03-25T14:03:51.367Z</time></trkpt><trkpt lat="45.7358081" lon="9.4190266"><ele>221.66666666666666</ele><time>2026-03-25T14:03:52.368Z</time></trkpt><trkpt lat="45.7357347" lon="9.4189688"><ele>221.33333333333331</ele><time>2026-03-25T14:03:53.368Z</time></trkpt><trkpt lat="45.7356587" lon="9.4189157"><ele>221.0</ele><time>2026-03-25T14:03:54.367Z</time></trkpt><trkpt lat="45.7355896" lon="9.4188574"><ele>220.66666666666666</ele><time>2026-03-25T14:03:55.367Z</time></trkpt><trkpt lat="45.7355191" lon="9.4188004"><ele>220.33333333333331</ele><time>2026-03-25T14:03:56.367Z</time></trkpt><trkpt lat="45.7354487" lon="9.4187418"><ele>220.0</ele><time>2026-03-25T14:03:57.367Z</time></trkpt><trkpt lat="45.7353815" lon="9.4186779"><ele>219.99999999999997</ele><time>2026-03-25T14:03:58.368Z</time></trkpt><trkpt lat="45.7353133" lon="9.418618"><ele>220.0</ele><time>2026-03-25T14:03:59.367Z</time></trkpt><trkpt lat="45.7352461" lon="9.4185545"><ele>220.0</ele><time>2026-03-25T14:04:00.368Z</time></trkpt><trkpt lat="45.735179" lon="9.4184907"><ele>220.0</ele><time>2026-03-25T14:04:01.368Z</time></trkpt><trkpt lat="45.7351152" lon="9.4184219"><ele>219.99999999999997</ele><time>2026-03-25T14:04:02.368Z</time></trkpt><trkpt lat="45.7350535" lon="9.418354"><ele>220.0</ele><time>2026-03-25T14:04:03.368Z</time></trkpt><trkpt lat="45.7350056" lon="9.4182608"><ele>220.49999999999997</ele><time>2026-03-25T14:04:04.368Z</time></trkpt><trkpt lat="45.7349576" lon="9.4181683"><ele>221.0</ele><time>2026-03-25T14:04:05.367Z</time></trkpt><trkpt lat="45.7349068" lon="9.418077"><ele>221.5</ele><time>2026-03-25T14:04:06.368Z</time></trkpt><trkpt lat="45.7348443" lon="9.4180124"><ele>222.0</ele><time>2026-03-25T14:04:07.368Z</time></trkpt><trkpt lat="45.7347714" lon="9.4179683"><ele>222.49999999999997</ele><time>2026-03-25T14:04:08.368Z</time></trkpt><trkpt lat="45.7347" lon="9.4179145"><ele>223.0</ele><time>2026-03-25T14:04:09.368Z</time></trkpt><trkpt lat="45.7346329" lon="9.4178535"><ele>222.99999999999997</ele><time>2026-03-25T14:04:10.368Z</time></trkpt><trkpt lat="45.7345694" lon="9.4177829"><ele>223.0</ele><time>2026-03-25T14:04:11.368Z</time></trkpt><trkpt lat="45.7345125" lon="9.4177101"><ele>223.0</ele><time>2026-03-25T14:04:12.368Z</time></trkpt><trkpt lat="45.7344506" lon="9.4176383"><ele>223.0</ele><time>2026-03-25T14:04:13.368Z</time></trkpt><trkpt lat="45.7343899" lon="9.4175648"><ele>222.99999999999997</ele><time>2026-03-25T14:04:14.367Z</time></trkpt><trkpt lat="45.734334" lon="9.4174848"><ele>223.0</ele><time>2026-03-25T14:04:15.368Z</time></trkpt><trkpt lat="45.7342726" lon="9.4174177"><ele>224.16666666666666</ele><time>2026-03-25T14:04:16.368Z</time></trkpt><trkpt lat="45.7342149" lon="9.4173491"><ele>225.33333333333331</ele><time>2026-03-25T14:04:17.368Z</time></trkpt><trkpt lat="45.7341514" lon="9.4172842"><ele>226.5</ele><time>2026-03-25T14:04:18.368Z</time></trkpt><trkpt lat="45.7340911" lon="9.4172175"><ele>227.66666666666669</ele><time>2026-03-25T14:04:19.368Z</time></trkpt><trkpt lat="45.73402" lon="9.4171613"><ele>228.83333333333334</ele><time>2026-03-25T14:04:20.368Z</time></trkpt><trkpt lat="45.7339517" lon="9.4171197"><ele>230.0</ele><time>2026-03-25T14:04:21.368Z</time></trkpt><trkpt lat="45.7338777" lon="9.4170817"><ele>230.00000000000003</ele><time>2026-03-25T14:04:22.368Z</time></trkpt><trkpt lat="45.733801" lon="9.417061"><ele>230.0</ele><time>2026-03-25T14:04:23.367Z</time></trkpt><trkpt lat="45.7337249" lon="9.4170376"><ele>230.0</ele><time>2026-03-25T14:04:24.367Z</time></trkpt><trkpt lat="45.7336467" lon="9.4170262"><ele>230.0</ele><time>2026-03-25T14:04:25.368Z</time></trkpt><trkpt lat="45.733571" lon="9.4170284"><ele>230.00000000000003</ele><time>2026-03-25T14:04:26.368Z</time></trkpt><trkpt lat="45.7334987" lon="9.4170279"><ele>230.0</ele><time>2026-03-25T14:04:27.367Z</time></trkpt><trkpt lat="45.7334267" lon="9.4170391"><ele>230.57142857142856</ele><time>2026-03-25T14:04:28.368Z</time></trkpt><trkpt lat="45.7333525" lon="9.4170672"><ele>231.14285714285714</ele><time>2026-03-25T14:04:29.368Z</time></trkpt><trkpt lat="45.7332781" lon="9.4171047"><ele>231.71428571428572</ele><time>2026-03-25T14:04:30.368Z</time></trkpt><trkpt lat="45.7332098" lon="9.4171439"><ele>232.28571428571428</ele><time>2026-03-25T14:04:31.367Z</time></trkpt><trkpt lat="45.7331431" lon="9.4171879"><ele>232.8571428571429</ele><time>2026-03-25T14:04:32.368Z</time></trkpt><trkpt lat="45.7330858" lon="9.4172422"><ele>233.42857142857144</ele><time>2026-03-25T14:04:33.368Z</time></trkpt><trkpt lat="45.733024" lon="9.4173023"><ele>234.0</ele><time>2026-03-25T14:04:34.368Z</time></trkpt><trkpt lat="45.7329686" lon="9.4173695"><ele>235.42857142857144</ele><time>2026-03-25T14:04:35.368Z</time></trkpt><trkpt lat="45.7329176" lon="9.4174358"><ele>236.8571428571429</ele><time>2026-03-25T14:04:36.368Z</time></trkpt><trkpt lat="45.7328666" lon="9.4175157"><ele>238.28571428571428</ele><time>2026-03-25T14:04:37.368Z</time></trkpt><trkpt lat="45.7328267" lon="9.4176067"><ele>239.71428571428572</ele><time>2026-03-25T14:04:38.368Z</time></trkpt><trkpt lat="45.7327928" lon="9.4177011"><ele>241.14285714285714</ele><time>2026-03-25T14:04:39.368Z</time></trkpt><trkpt lat="45.7327619" lon="9.4177937"><ele>242.57142857142856</ele><time>2026-03-25T14:04:40.368Z</time></trkpt><trkpt lat="45.7327409" lon="9.4178917"><ele>243.99999999999997</ele><time>2026-03-25T14:04:41.368Z</time></trkpt><trkpt lat="45.7327282" lon="9.4179915"><ele>244.99999999999997</ele><time>2026-03-25T14:04:42.368Z</time></trkpt><trkpt lat="45.7327109" lon="9.4180905"><ele>246.0</ele><time>2026-03-25T14:04:43.368Z</time></trkpt><trkpt lat="45.7326988" lon="9.418196"><ele>247.0</ele><time>2026-03-25T14:04:44.368Z</time></trkpt><trkpt lat="45.7326861" lon="9.4183064"><ele>248.0</ele><time>2026-03-25T14:04:45.367Z</time></trkpt><trkpt lat="45.7326808" lon="9.4184151"><ele>248.99999999999997</ele><time>2026-03-25T14:04:46.368Z</time></trkpt><trkpt lat="45.7326728" lon="9.4185276"><ele>250.0</ele><time>2026-03-25T14:04:47.368Z</time></trkpt><trkpt lat="45.7326651" lon="9.4186299"><ele>249.99999999999997</ele><time>2026-03-25T14:04:48.368Z</time></trkpt><trkpt lat="45.7326501" lon="9.4187345"><ele>250.0</ele><time>2026-03-25T14:04:49.368Z</time></trkpt><trkpt lat="45.7326363" lon="9.4188385"><ele>250.0</ele><time>2026-03-25T14:04:50.367Z</time></trkpt><trkpt lat="45.7326107" lon="9.418947"><ele>250.0</ele><time>2026-03-25T14:04:51.367Z</time></trkpt><trkpt lat="45.7325871" lon="9.4190559"><ele>249.99999999999997</ele><time>2026-03-25T14:04:52.368Z</time></trkpt><trkpt lat="45.7325576" lon="9.4191563"><ele>250.0</ele><time>2026-03-25T14:04:53.367Z</time></trkpt><trkpt lat="45.7325231" lon="9.4192573"><ele>250.42857142857142</ele><time>2026-03-25T14:04:54.367Z</time></trkpt><trkpt lat="45.7324868" lon="9.4193534"><ele>250.8571428571429</ele><time>2026-03-25T14:04:55.368Z</time></trkpt><trkpt lat="45.73245" lon="9.4194422"><ele>251.2857142857143</ele><time>2026-03-25T14:04:56.368Z</time></trkpt><trkpt lat="45.732406" lon="9.4195272"><ele>251.71428571428572</ele><time>2026-03-25T14:04:57.368Z</time></trkpt><trkpt lat="45.7323579" lon="9.4196093"><ele>252.14285714285717</ele><time>2026-03-25T14:04:58.368Z</time></trkpt><trkpt lat="45.7323048" lon="9.4196798"><ele>252.5714285714286</ele><time>2026-03-25T14:04:59.368Z</time></trkpt><trkpt lat="45.7322535" lon="9.4197416"><ele>253.00000000000003</ele><time>2026-03-25T14:05:00.368Z</time></trkpt><trkpt lat="45.7321898" lon="9.4197877"><ele>253.14285714285717</ele><time>2026-03-25T14:05:01.368Z</time></trkpt><trkpt lat="45.7321257" lon="9.4198209"><ele>253.28571428571428</ele><time>2026-03-25T14:05:02.367Z</time></trkpt><trkpt lat="45.7320565" lon="9.4198483"><ele>253.42857142857144</ele><time>2026-03-25T14:05:03.368Z</time></trkpt><trkpt lat="45.7319926" lon="9.4198496"><ele>253.57142857142858</ele><time>2026-03-25T14:05:04.367Z</time></trkpt><trkpt lat="45.731929" lon="9.4198486"><ele>253.71428571428572</ele><time>2026-03-25T14:05:05.368Z</time></trkpt><trkpt lat="45.7318592" lon="9.4198505"><ele>253.85714285714286</ele><time>2026-03-25T14:05:06.368Z</time></trkpt><trkpt lat="45.7317953" lon="9.4198385"><ele>254.0</ele><time>2026-03-25T14:05:07.368Z</time></trkpt><trkpt lat="45.7317294" lon="9.419817"><ele>253.71428571428572</ele><time>2026-03-25T14:05:08.368Z</time></trkpt><trkpt lat="45.7316677" lon="9.4197806"><ele>253.42857142857142</ele><time>2026-03-25T14:05:09.368Z</time></trkpt><trkpt lat="45.7316069" lon="9.4197311"><ele>253.14285714285714</ele><time>2026-03-25T14:05:10.368Z</time></trkpt><trkpt lat="45.7315416" lon="9.4196829"><ele>252.85714285714286</ele><time>2026-03-25T14:05:11.368Z</time></trkpt><trkpt lat="45.7314785" lon="9.4196291"><ele>252.57142857142856</ele><time>2026-03-25T14:05:12.368Z</time></trkpt><trkpt lat="45.7314159" lon="9.4195778"><ele>252.28571428571428</ele><time>2026-03-25T14:05:13.368Z</time></trkpt><trkpt lat="45.7313539" lon="9.4195212"><ele>252.0</ele><time>2026-03-25T14:05:14.368Z</time></trkpt><trkpt lat="45.7312943" lon="9.4194626"><ele>252.0</ele><time>2026-03-25T14:05:15.368Z</time></trkpt><trkpt lat="45.731239" lon="9.4193964"><ele>252.0</ele><time>2026-03-25T14:05:16.368Z</time></trkpt><trkpt lat="45.7311809" lon="9.4193368"><ele>252.0</ele><time>2026-03-25T14:05:17.368Z</time></trkpt><trkpt lat="45.7311225" lon="9.4192789"><ele>252.0</ele><time>2026-03-25T14:05:18.368Z</time></trkpt><trkpt lat="45.7310592" lon="9.4192191"><ele>252.0</ele><time>2026-03-25T14:05:19.368Z</time></trkpt><trkpt lat="45.7309964" lon="9.4191616"><ele>252.0</ele><time>2026-03-25T14:05:20.368Z</time></trkpt><trkpt lat="45.7309433" lon="9.4190963"><ele>252.0</ele><time>2026-03-25T14:05:21.368Z</time></trkpt><trkpt lat="45.7308845" lon="9.4190361"><ele>252.71428571428572</ele><time>2026-03-25T14:05:22.368Z</time></trkpt><trkpt lat="45.7308243" lon="9.4189748"><ele>253.42857142857144</ele><time>2026-03-25T14:05:23.368Z</time></trkpt><trkpt lat="45.7307646" lon="9.4189139"><ele>254.14285714285714</ele><time>2026-03-25T14:05:24.368Z</time></trkpt><trkpt lat="45.7307054" lon="9.4188505"><ele>254.85714285714286</ele><time>2026-03-25T14:05:25.368Z</time></trkpt><trkpt lat="45.7306442" lon="9.4187906"><ele>255.57142857142858</ele><time>2026-03-25T14:05:26.367Z</time></trkpt><trkpt lat="45.7305851" lon="9.4187299"><ele>256.2857142857143</ele><time>2026-03-25T14:05:27.368Z</time></trkpt><trkpt lat="45.7305244" lon="9.4186696"><ele>257.0</ele><time>2026-03-25T14:05:28.368Z</time></trkpt><trkpt lat="45.7304628" lon="9.4186087"><ele>257.0</ele><time>2026-03-25T14:05:29.368Z</time></trkpt><trkpt lat="45.730405" lon="9.4185478"><ele>257.0</ele><time>2026-03-25T14:05:30.367Z</time></trkpt><trkpt lat="45.7303444" lon="9.418488"><ele>257.0</ele><time>2026-03-25T14:05:31.368Z</time></trkpt><trkpt lat="45.7302832" lon="9.4184283"><ele>257.0</ele><time>2026-03-25T14:05:32.368Z</time></trkpt><trkpt lat="45.7302221" lon="9.4183769"><ele>257.0</ele><time>2026-03-25T14:05:33.368Z</time></trkpt><trkpt lat="45.7301601" lon="9.4183156"><ele>257.0</ele><time>2026-03-25T14:05:34.368Z</time></trkpt><trkpt lat="45.7300986" lon="9.4182629"><ele>257.0</ele><time>2026-03-25T14:05:35.368Z</time></trkpt><trkpt lat="45.7300376" lon="9.4182069"><ele>257.1428571428571</ele><time>2026-03-25T14:05:36.368Z</time></trkpt><trkpt lat="45.7299731" lon="9.4181565"><ele>257.2857142857143</ele><time>2026-03-25T14:05:37.368Z</time></trkpt><trkpt lat="45.7299099" lon="9.4181046"><ele>257.42857142857144</ele><time>2026-03-25T14:05:38.368Z</time></trkpt><trkpt lat="45.7298447" lon="9.4180538"><ele>257.57142857142856</ele><time>2026-03-25T14:05:39.367Z</time></trkpt><trkpt lat="45.7297814" lon="9.4179985"><ele>257.7142857142857</ele><time>2026-03-25T14:05:40.368Z</time></trkpt><trkpt lat="45.7297178" lon="9.4179436"><ele>257.85714285714283</ele><time>2026-03-25T14:05:41.368Z</time></trkpt><trkpt lat="45.7296595" lon="9.417886"><ele>258.0</ele><time>2026-03-25T14:05:42.368Z</time></trkpt><trkpt lat="45.7295937" lon="9.4178314"><ele>257.99999999999994</ele><time>2026-03-25T14:05:43.367Z</time></trkpt><trkpt lat="45.7295285" lon="9.4177747"><ele>258.0</ele><time>2026-03-25T14:05:44.368Z</time></trkpt><trkpt lat="45.7294694" lon="9.4177137"><ele>258.0</ele><time>2026-03-25T14:05:45.368Z</time></trkpt><trkpt lat="45.7294095" lon="9.4176501"><ele>258.0</ele><time>2026-03-25T14:05:46.368Z</time></trkpt><trkpt lat="45.7293511" lon="9.4175836"><ele>258.0</ele><time>2026-03-25T14:05:47.367Z</time></trkpt><trkpt lat="45.729295" lon="9.4175147"><ele>257.99999999999994</ele><time>2026-03-25T14:05:48.367Z</time></trkpt><trkpt lat="45.7292386" lon="9.4174456"><ele>258.0</ele><time>2026-03-25T14:05:49.368Z</time></trkpt><trkpt lat="45.7291892" lon="9.4173705"><ele>258.71428571428567</ele><time>2026-03-25T14:05:50.367Z</time></trkpt><trkpt lat="45.7291399" lon="9.4172896"><ele>259.42857142857144</ele><time>2026-03-25T14:05:51.368Z</time></trkpt><trkpt lat="45.7290916" lon="9.4172099"><ele>260.1428571428571</ele><time>2026-03-25T14:05:52.368Z</time></trkpt><trkpt lat="45.7290456" lon="9.4171263"><ele>260.85714285714283</ele><time>2026-03-25T14:05:53.368Z</time></trkpt><trkpt lat="45.7289968" lon="9.4170511"><ele>261.57142857142856</ele><time>2026-03-25T14:05:54.368Z</time></trkpt><trkpt lat="45.7289523" lon="9.416972"><ele>262.2857142857143</ele><time>2026-03-25T14:05:55.367Z</time></trkpt><trkpt lat="45.7289049" lon="9.4168935"><ele>263.0</ele><time>2026-03-25T14:05:56.367Z</time></trkpt><trkpt lat="45.7288536" lon="9.4168171"><ele>263.0</ele><time>2026-03-25T14:05:57.368Z</time></trkpt><trkpt lat="45.728803" lon="9.4167432"><ele>263.0</ele><time>2026-03-25T14:05:58.368Z</time></trkpt><trkpt lat="45.7287522" lon="9.4166643"><ele>263.0</ele><time>2026-03-25T14:05:59.368Z</time></trkpt><trkpt lat="45.7287013" lon="9.4165885"><ele>263.0</ele><time>2026-03-25T14:06:00.368Z</time></trkpt><trkpt lat="45.7286508" lon="9.4165129"><ele>263.0</ele><time>2026-03-25T14:06:01.367Z</time></trkpt><trkpt lat="45.7285946" lon="9.4164435"><ele>263.0</ele><time>2026-03-25T14:06:02.368Z</time></trkpt><trkpt lat="45.7285364" lon="9.4163781"><ele>263.0</ele><time>2026-03-25T14:06:03.368Z</time></trkpt><trkpt lat="45.728477" lon="9.4163143"><ele>263.57142857142856</ele><time>2026-03-25T14:06:04.367Z</time></trkpt><trkpt lat="45.7284151" lon="9.4162533"><ele>264.1428571428571</ele><time>2026-03-25T14:06:05.368Z</time></trkpt><trkpt lat="45.728355" lon="9.4161919"><ele>264.7142857142857</ele><time>2026-03-25T14:06:06.367Z</time></trkpt><trkpt lat="45.7282953" lon="9.416137"><ele>265.2857142857143</ele><time>2026-03-25T14:06:07.368Z</time></trkpt><trkpt lat="45.7282358" lon="9.4160822"><ele>265.8571428571429</ele><time>2026-03-25T14:06:08.367Z</time></trkpt><trkpt lat="45.7281753" lon="9.4160289"><ele>266.42857142857144</ele><time>2026-03-25T14:06:09.368Z</time></trkpt><trkpt lat="45.7281077" lon="9.415978"><ele>267.0</ele><time>2026-03-25T14:06:10.368Z</time></trkpt><trkpt lat="45.728047" lon="9.4159224"><ele>267.00000000000006</ele><time>2026-03-25T14:06:11.367Z</time></trkpt><trkpt lat="45.7279808" lon="9.4158799"><ele>267.0</ele><time>2026-03-25T14:06:12.368Z</time></trkpt><trkpt lat="45.7279132" lon="9.4158377"><ele>267.0</ele><time>2026-03-25T14:06:13.368Z</time></trkpt><trkpt lat="45.7278467" lon="9.4157983"><ele>267.0</ele><time>2026-03-25T14:06:14.367Z</time></trkpt><trkpt lat="45.7277759" lon="9.41576"><ele>267.0</ele><time>2026-03-25T14:06:15.367Z</time></trkpt><trkpt lat="45.7277054" lon="9.4157265"><ele>267.00000000000006</ele><time>2026-03-25T14:06:16.368Z</time></trkpt><trkpt lat="45.7276337" lon="9.4156909"><ele>267.0</ele><time>2026-03-25T14:06:17.367Z</time></trkpt><trkpt lat="45.727562" lon="9.4156619"><ele>267.8571428571429</ele><time>2026-03-25T14:06:18.368Z</time></trkpt><trkpt lat="45.7274911" lon="9.4156307"><ele>268.7142857142857</ele><time>2026-03-25T14:06:19.368Z</time></trkpt><trkpt lat="45.7274195" lon="9.4156042"><ele>269.57142857142856</ele><time>2026-03-25T14:06:20.368Z</time></trkpt><trkpt lat="45.7273481" lon="9.4155793"><ele>270.42857142857144</ele><time>2026-03-25T14:06:21.368Z</time></trkpt><trkpt lat="45.7272777" lon="9.4155546"><ele>271.2857142857143</ele><time>2026-03-25T14:06:22.367Z</time></trkpt><trkpt lat="45.727209" lon="9.4155349"><ele>272.14285714285717</ele><time>2026-03-25T14:06:23.368Z</time></trkpt><trkpt lat="45.7271379" lon="9.4155131"><ele>273.0</ele><time>2026-03-25T14:06:24.367Z</time></trkpt><trkpt lat="45.7270687" lon="9.4154922"><ele>272.42857142857144</ele><time>2026-03-25T14:06:25.368Z</time></trkpt><trkpt lat="45.7269949" lon="9.4154827"><ele>271.8571428571429</ele><time>2026-03-25T14:06:26.367Z</time></trkpt><trkpt lat="45.7269231" lon="9.4154695"><ele>271.2857142857143</ele><time>2026-03-25T14:06:27.368Z</time></trkpt><trkpt lat="45.7268481" lon="9.4154578"><ele>270.7142857142857</ele><time>2026-03-25T14:06:28.367Z</time></trkpt><trkpt lat="45.7267732" lon="9.4154502"><ele>270.14285714285717</ele><time>2026-03-25T14:06:29.368Z</time></trkpt><trkpt lat="45.7266979" lon="9.4154419"><ele>269.57142857142856</ele><time>2026-03-25T14:06:30.368Z</time></trkpt><trkpt lat="45.7266259" lon="9.4154352"><ele>269.0</ele><time>2026-03-25T14:06:31.368Z</time></trkpt><trkpt lat="45.7265525" lon="9.4154331"><ele>270.6666666666667</ele><time>2026-03-25T14:06:32.368Z</time></trkpt><trkpt lat="45.7264819" lon="9.415438"><ele>272.33333333333337</ele><time>2026-03-25T14:06:33.368Z</time></trkpt><trkpt lat="45.7263559" lon="9.4154558"><ele>274.0</ele><time>2026-03-25T14:06:35.368Z</time></trkpt><trkpt lat="45.7262894" lon="9.4154604"><ele>275.6666666666667</ele><time>2026-03-25T14:06:36.367Z</time></trkpt><trkpt lat="45.7262177" lon="9.415462"><ele>277.3333333333333</ele><time>2026-03-25T14:06:37.368Z</time></trkpt><trkpt lat="45.7261525" lon="9.4154648"><ele>279.0</ele><time>2026-03-25T14:06:38.368Z</time></trkpt><trkpt lat="45.726083" lon="9.4154701"><ele>279.1428571428571</ele><time>2026-03-25T14:06:39.368Z</time></trkpt><trkpt lat="45.7260156" lon="9.4154799"><ele>279.2857142857143</ele><time>2026-03-25T14:06:40.368Z</time></trkpt><trkpt lat="45.725951" lon="9.4154909"><ele>279.42857142857144</ele><time>2026-03-25T14:06:41.368Z</time></trkpt><trkpt lat="45.7258853" lon="9.415509"><ele>279.57142857142856</ele><time>2026-03-25T14:06:42.368Z</time></trkpt><trkpt lat="45.7258156" lon="9.41553"><ele>279.7142857142857</ele><time>2026-03-25T14:06:43.367Z</time></trkpt><trkpt lat="45.7257512" lon="9.4155499"><ele>279.85714285714283</ele><time>2026-03-25T14:06:44.368Z</time></trkpt><trkpt lat="45.7256882" lon="9.4155718"><ele>280.0</ele><time>2026-03-25T14:06:45.368Z</time></trkpt><trkpt lat="45.7256223" lon="9.4155953"><ele>280.0</ele><time>2026-03-25T14:06:46.368Z</time></trkpt><trkpt lat="45.7255556" lon="9.4156175"><ele>280.0</ele><time>2026-03-25T14:06:47.368Z</time></trkpt><trkpt lat="45.7254888" lon="9.4156429"><ele>280.0</ele><time>2026-03-25T14:06:48.368Z</time></trkpt><trkpt lat="45.7254198" lon="9.4156766"><ele>280.0</ele><time>2026-03-25T14:06:49.367Z</time></trkpt><trkpt lat="45.7253531" lon="9.4157096"><ele>280.0</ele><time>2026-03-25T14:06:50.368Z</time></trkpt><trkpt lat="45.7252868" lon="9.4157441"><ele>280.0</ele><time>2026-03-25T14:06:51.368Z</time></trkpt><trkpt lat="45.725221" lon="9.4157716"><ele>280.0</ele><time>2026-03-25T14:06:52.368Z</time></trkpt><trkpt lat="45.7251081" lon="9.4158219"><ele>280.8</ele><time>2026-03-25T14:06:54.368Z</time></trkpt><trkpt lat="45.7250254" lon="9.4158465"><ele>281.6</ele><time>2026-03-25T14:06:56.368Z</time></trkpt><trkpt lat="45.7249543" lon="9.4158344"><ele>282.4</ele><time>2026-03-25T14:07:03.367Z</time></trkpt><trkpt lat="45.7248513" lon="9.4158203"><ele>283.2</ele><time>2026-03-25T14:07:06.367Z</time></trkpt><trkpt lat="45.7247609" lon="9.4158459"><ele>284.0</ele><time>2026-03-25T14:07:08.368Z</time></trkpt><trkpt lat="45.7246466" lon="9.4158239"><ele>284.0</ele><time>2026-03-25T14:07:10.368Z</time></trkpt><trkpt lat="45.7245294" lon="9.4157487"><ele>284.0</ele><time>2026-03-25T14:07:12.367Z</time></trkpt><trkpt lat="45.7244733" lon="9.415687"><ele>284.0</ele><time>2026-03-25T14:07:13.367Z</time></trkpt><trkpt lat="45.7244141" lon="9.4156232"><ele>284.0</ele><time>2026-03-25T14:07:14.368Z</time></trkpt><trkpt lat="45.724352" lon="9.4155568"><ele>284.0</ele><time>2026-03-25T14:07:15.368Z</time></trkpt><trkpt lat="45.7242918" lon="9.4154861"><ele>284.0</ele><time>2026-03-25T14:07:16.368Z</time></trkpt><trkpt lat="45.7242272" lon="9.4154248"><ele>284.0</ele><time>2026-03-25T14:07:17.368Z</time></trkpt><trkpt lat="45.7241598" lon="9.4153624"><ele>284.0</ele><time>2026-03-25T14:07:18.367Z</time></trkpt><trkpt lat="45.724095" lon="9.4152979"><ele>284.0</ele><time>2026-03-25T14:07:19.367Z</time></trkpt><trkpt lat="45.7240309" lon="9.4152378"><ele>284.0</ele><time>2026-03-25T14:07:20.368Z</time></trkpt><trkpt lat="45.7239653" lon="9.4151735"><ele>284.0</ele><time>2026-03-25T14:07:21.368Z</time></trkpt><trkpt lat="45.7238977" lon="9.4151096"><ele>284.0</ele><time>2026-03-25T14:07:22.367Z</time></trkpt><trkpt lat="45.7238313" lon="9.4150442"><ele>284.0</ele><time>2026-03-25T14:07:23.368Z</time></trkpt><trkpt lat="45.7237689" lon="9.4149812"><ele>284.0</ele><time>2026-03-25T14:07:24.367Z</time></trkpt><trkpt lat="45.7237041" lon="9.414916"><ele>284.0</ele><time>2026-03-25T14:07:25.368Z</time></trkpt><trkpt lat="45.7236404" lon="9.4148483"><ele>284.0</ele><time>2026-03-25T14:07:26.368Z</time></trkpt><trkpt lat="45.7235709" lon="9.4147831"><ele>284.0</ele><time>2026-03-25T14:07:27.368Z</time></trkpt><trkpt lat="45.7235044" lon="9.414715"><ele>284.0</ele><time>2026-03-25T14:07:28.367Z</time></trkpt><trkpt lat="45.7234369" lon="9.4146442"><ele>284.33333333333337</ele><time>2026-03-25T14:07:29.367Z</time></trkpt><trkpt lat="45.7233719" lon="9.4145776"><ele>284.6666666666667</ele><time>2026-03-25T14:07:30.368Z</time></trkpt><trkpt lat="45.723307" lon="9.4145021"><ele>285.0</ele><time>2026-03-25T14:07:31.368Z</time></trkpt><trkpt lat="45.7232448" lon="9.4144276"><ele>285.3333333333333</ele><time>2026-03-25T14:07:32.368Z</time></trkpt><trkpt lat="45.7231789" lon="9.4143603"><ele>285.66666666666663</ele><time>2026-03-25T14:07:33.367Z</time></trkpt><trkpt lat="45.7231147" lon="9.4142874"><ele>286.0</ele><time>2026-03-25T14:07:34.367Z</time></trkpt><trkpt lat="45.7230497" lon="9.4142209"><ele>286.0</ele><time>2026-03-25T14:07:35.368Z</time></trkpt><trkpt lat="45.7229825" lon="9.4141567"><ele>286.0</ele><time>2026-03-25T14:07:36.368Z</time></trkpt><trkpt lat="45.722917" lon="9.4140918"><ele>286.0</ele><time>2026-03-25T14:07:37.367Z</time></trkpt><trkpt lat="45.7228523" lon="9.4140232"><ele>286.0</ele><time>2026-03-25T14:07:38.367Z</time></trkpt><trkpt lat="45.7227909" lon="9.4139538"><ele>286.0</ele><time>2026-03-25T14:07:39.368Z</time></trkpt><trkpt lat="45.722723" lon="9.4138892"><ele>286.0</ele><time>2026-03-25T14:07:40.368Z</time></trkpt><trkpt lat="45.7226572" lon="9.4138222"><ele>286.3333333333333</ele><time>2026-03-25T14:07:41.368Z</time></trkpt><trkpt lat="45.7225905" lon="9.4137568"><ele>286.66666666666663</ele><time>2026-03-25T14:07:42.368Z</time></trkpt><trkpt lat="45.7225219" lon="9.4136891"><ele>287.0</ele><time>2026-03-25T14:07:43.367Z</time></trkpt><trkpt lat="45.7224554" lon="9.4136197"><ele>287.3333333333333</ele><time>2026-03-25T14:07:44.367Z</time></trkpt><trkpt lat="45.722388" lon="9.4135525"><ele>287.6666666666667</ele><time>2026-03-25T14:07:45.368Z</time></trkpt><trkpt lat="45.7223208" lon="9.4134829"><ele>288.0</ele><time>2026-03-25T14:07:46.367Z</time></trkpt><trkpt lat="45.7222557" lon="9.4134178"><ele>288.0</ele><time>2026-03-25T14:07:47.368Z</time></trkpt><trkpt lat="45.7221956" lon="9.4133463"><ele>288.0</ele><time>2026-03-25T14:07:48.368Z</time></trkpt><trkpt lat="45.7221284" lon="9.4132802"><ele>288.0</ele><time>2026-03-25T14:07:49.368Z</time></trkpt><trkpt lat="45.7220589" lon="9.4132211"><ele>288.0</ele><time>2026-03-25T14:07:50.368Z</time></trkpt><trkpt lat="45.7219879" lon="9.4131619"><ele>288.0</ele><time>2026-03-25T14:07:51.368Z</time></trkpt><trkpt lat="45.721921" lon="9.4130906"><ele>288.0</ele><time>2026-03-25T14:07:52.368Z</time></trkpt><trkpt lat="45.7218589" lon="9.4130177"><ele>288.3333333333333</ele><time>2026-03-25T14:07:53.367Z</time></trkpt><trkpt lat="45.721792" lon="9.4129477"><ele>288.6666666666667</ele><time>2026-03-25T14:07:54.368Z</time></trkpt><trkpt lat="45.721728" lon="9.4128762"><ele>289.0</ele><time>2026-03-25T14:07:55.368Z</time></trkpt><trkpt lat="45.721666" lon="9.412798"><ele>289.33333333333337</ele><time>2026-03-25T14:07:56.367Z</time></trkpt><trkpt lat="45.7216023" lon="9.4127253"><ele>289.6666666666667</ele><time>2026-03-25T14:07:57.368Z</time></trkpt><trkpt lat="45.7215382" lon="9.412647"><ele>290.0</ele><time>2026-03-25T14:07:58.368Z</time></trkpt><trkpt lat="45.7214702" lon="9.4125789"><ele>290.0</ele><time>2026-03-25T14:07:59.367Z</time></trkpt><trkpt lat="45.721405" lon="9.4125081"><ele>290.0</ele><time>2026-03-25T14:08:00.368Z</time></trkpt><trkpt lat="45.721339" lon="9.4124432"><ele>290.0</ele><time>2026-03-25T14:08:01.368Z</time></trkpt><trkpt lat="45.7212738" lon="9.4123701"><ele>290.0</ele><time>2026-03-25T14:08:02.367Z</time></trkpt><trkpt lat="45.7212053" lon="9.4123027"><ele>290.0</ele><time>2026-03-25T14:08:03.368Z</time></trkpt><trkpt lat="45.7211377" lon="9.4122306"><ele>290.0</ele><time>2026-03-25T14:08:04.368Z</time></trkpt><trkpt lat="45.7210701" lon="9.4121617"><ele>291.0</ele><time>2026-03-25T14:08:05.368Z</time></trkpt><trkpt lat="45.7210009" lon="9.4120944"><ele>292.0</ele><time>2026-03-25T14:08:06.368Z</time></trkpt><trkpt lat="45.7209341" lon="9.4120177"><ele>293.0</ele><time>2026-03-25T14:08:07.367Z</time></trkpt><trkpt lat="45.7208681" lon="9.41194"><ele>294.0</ele><time>2026-03-25T14:08:08.368Z</time></trkpt><trkpt lat="45.720802" lon="9.4118666"><ele>295.0</ele><time>2026-03-25T14:08:09.367Z</time></trkpt><trkpt lat="45.7207342" lon="9.411795"><ele>296.0</ele><time>2026-03-25T14:08:10.367Z</time></trkpt><trkpt lat="45.7206644" lon="9.411728"><ele>296.0</ele><time>2026-03-25T14:08:11.368Z</time></trkpt><trkpt lat="45.7205923" lon="9.4116538"><ele>296.0</ele><time>2026-03-25T14:08:12.368Z</time></trkpt><trkpt lat="45.7205213" lon="9.4115774"><ele>296.0</ele><time>2026-03-25T14:08:13.368Z</time></trkpt><trkpt lat="45.7204499" lon="9.4115025"><ele>296.0</ele><time>2026-03-25T14:08:14.367Z</time></trkpt><trkpt lat="45.7203782" lon="9.4114295"><ele>296.0</ele><time>2026-03-25T14:08:15.368Z</time></trkpt><trkpt lat="45.7203066" lon="9.4113566"><ele>296.0</ele><time>2026-03-25T14:08:16.368Z</time></trkpt><trkpt lat="45.7202358" lon="9.4112871"><ele>296.0</ele><time>2026-03-25T14:08:17.367Z</time></trkpt><trkpt lat="45.7201668" lon="9.4112051"><ele>296.0</ele><time>2026-03-25T14:08:18.368Z</time></trkpt><trkpt lat="45.7200972" lon="9.4111306"><ele>296.0</ele><time>2026-03-25T14:08:19.368Z</time></trkpt><trkpt lat="45.7200262" lon="9.4110567"><ele>296.0</ele><time>2026-03-25T14:08:20.368Z</time></trkpt><trkpt lat="45.7199545" lon="9.4109867"><ele>296.0</ele><time>2026-03-25T14:08:21.368Z</time></trkpt><trkpt lat="45.7198888" lon="9.4109106"><ele>296.0</ele><time>2026-03-25T14:08:22.368Z</time></trkpt><trkpt lat="45.7198182" lon="9.4108399"><ele>296.0</ele><time>2026-03-25T14:08:23.368Z</time></trkpt><trkpt lat="45.7197459" lon="9.4107654"><ele>296.0</ele><time>2026-03-25T14:08:24.368Z</time></trkpt><trkpt lat="45.7196745" lon="9.4106935"><ele>296.0</ele><time>2026-03-25T14:08:25.367Z</time></trkpt><trkpt lat="45.7196033" lon="9.4106184"><ele>296.0</ele><time>2026-03-25T14:08:26.367Z</time></trkpt><trkpt lat="45.7195314" lon="9.4105456"><ele>296.0</ele><time>2026-03-25T14:08:27.368Z</time></trkpt><trkpt lat="45.7194649" lon="9.4104709"><ele>296.0</ele><time>2026-03-25T14:08:28.368Z</time></trkpt><trkpt lat="45.7193961" lon="9.4103973"><ele>296.5</ele><time>2026-03-25T14:08:29.368Z</time></trkpt><trkpt lat="45.7193259" lon="9.4103234"><ele>297.0</ele><time>2026-03-25T14:08:30.368Z</time></trkpt><trkpt lat="45.7192547" lon="9.4102484"><ele>297.5</ele><time>2026-03-25T14:08:31.368Z</time></trkpt><trkpt lat="45.7191825" lon="9.4101771"><ele>298.0</ele><time>2026-03-25T14:08:32.368Z</time></trkpt><trkpt lat="45.7191103" lon="9.4101063"><ele>298.5</ele><time>2026-03-25T14:08:33.368Z</time></trkpt><trkpt lat="45.7190387" lon="9.4100294"><ele>299.0</ele><time>2026-03-25T14:08:34.368Z</time></trkpt><trkpt lat="45.7189656" lon="9.4099554"><ele>299.0</ele><time>2026-03-25T14:08:35.368Z</time></trkpt><trkpt lat="45.7189006" lon="9.409873"><ele>299.0</ele><time>2026-03-25T14:08:36.367Z</time></trkpt><trkpt lat="45.7188312" lon="9.4098001"><ele>299.0</ele><time>2026-03-25T14:08:37.368Z</time></trkpt><trkpt lat="45.7187607" lon="9.4097276"><ele>299.0</ele><time>2026-03-25T14:08:38.367Z</time></trkpt><trkpt lat="45.7186903" lon="9.4096568"><ele>299.0</ele><time>2026-03-25T14:08:39.368Z</time></trkpt><trkpt lat="45.7186197" lon="9.4095795"><ele>299.0</ele><time>2026-03-25T14:08:40.368Z</time></trkpt><trkpt lat="45.7185524" lon="9.4095098"><ele>298.83333333333337</ele><time>2026-03-25T14:08:41.368Z</time></trkpt><trkpt lat="45.7184892" lon="9.4094451"><ele>298.6666666666667</ele><time>2026-03-25T14:08:42.368Z</time></trkpt><trkpt lat="45.7184291" lon="9.4093852"><ele>298.5</ele><time>2026-03-25T14:08:43.368Z</time></trkpt><trkpt lat="45.7183772" lon="9.4093216"><ele>298.3333333333333</ele><time>2026-03-25T14:08:44.368Z</time></trkpt><trkpt lat="45.7183223" lon="9.4092716"><ele>298.16666666666663</ele><time>2026-03-25T14:08:45.367Z</time></trkpt><trkpt lat="45.7182213" lon="9.4091708"><ele>298.0</ele><time>2026-03-25T14:08:47.368Z</time></trkpt><trkpt lat="45.7181361" lon="9.4090806"><ele>298.0</ele><time>2026-03-25T14:08:49.368Z</time></trkpt><trkpt lat="45.7180445" lon="9.4089925"><ele>298.0</ele><time>2026-03-25T14:08:51.368Z</time></trkpt><trkpt lat="45.7179405" lon="9.4088878"><ele>298.0</ele><time>2026-03-25T14:08:53.368Z</time></trkpt><trkpt lat="45.7178358" lon="9.4087824"><ele>298.0</ele><time>2026-03-25T14:08:55.368Z</time></trkpt><trkpt lat="45.7177818" lon="9.4087259"><ele>298.0</ele><time>2026-03-25T14:08:56.368Z</time></trkpt><trkpt lat="45.7177247" lon="9.4086706"><ele>297.8</ele><time>2026-03-25T14:08:57.368Z</time></trkpt><trkpt lat="45.7176716" lon="9.408617"><ele>297.6</ele><time>2026-03-25T14:08:58.368Z</time></trkpt><trkpt lat="45.7175858" lon="9.4085189"><ele>297.4</ele><time>2026-03-25T14:09:00.368Z</time></trkpt><trkpt lat="45.7175289" lon="9.4084144"><ele>297.2</ele><time>2026-03-25T14:09:02.368Z</time></trkpt><trkpt lat="45.7174876" lon="9.4082919"><ele>297.0</ele><time>2026-03-25T14:09:04.367Z</time></trkpt><trkpt lat="45.7174284" lon="9.4081699"><ele>297.0</ele><time>2026-03-25T14:09:06.367Z</time></trkpt><trkpt lat="45.7173257" lon="9.4081606"><ele>297.0</ele><time>2026-03-25T14:09:08.367Z</time></trkpt><trkpt lat="45.7172828" lon="9.4082496"><ele>297.0</ele><time>2026-03-25T14:09:10.368Z</time></trkpt><trkpt lat="45.7173234" lon="9.4083273"><ele>297.0</ele><time>2026-03-25T14:09:12.368Z</time></trkpt><trkpt lat="45.7173923" lon="9.4083587"><ele>297.0</ele><time>2026-03-25T14:09:14.368Z</time></trkpt><trkpt lat="45.7174607" lon="9.4083048"><ele>297.0</ele><time>2026-03-25T14:09:16.368Z</time></trkpt><trkpt lat="45.7174621" lon="9.4081616"><ele>297.0</ele><time>2026-03-25T14:09:18.368Z</time></trkpt><trkpt lat="45.7173987" lon="9.408091"><ele>297.0</ele><time>2026-03-25T14:09:20.367Z</time></trkpt><trkpt lat="45.7172907" lon="9.4081266"><ele>297.0</ele><time>2026-03-25T14:09:22.367Z</time></trkpt><trkpt lat="45.7171832" lon="9.4081849"><ele>297.0</ele><time>2026-03-25T14:09:24.368Z</time></trkpt><trkpt lat="45.7170623" lon="9.40817"><ele>297.0</ele><time>2026-03-25T14:09:26.368Z</time></trkpt><trkpt lat="45.7169994" lon="9.4081554"><ele>297.1666666666667</ele><time>2026-03-25T14:09:27.368Z</time></trkpt><trkpt lat="45.7168766" lon="9.4081116"><ele>297.3333333333333</ele><time>2026-03-25T14:09:29.368Z</time></trkpt><trkpt lat="45.7168099" lon="9.4080845"><ele>297.5</ele><time>2026-03-25T14:09:30.368Z</time></trkpt><trkpt lat="45.71674" lon="9.4080582"><ele>297.66666666666663</ele><time>2026-03-25T14:09:31.368Z</time></trkpt><trkpt lat="45.716674" lon="9.4080362"><ele>297.8333333333333</ele><time>2026-03-25T14:09:32.368Z</time></trkpt><trkpt lat="45.7166113" lon="9.4080118"><ele>298.0</ele><time>2026-03-25T14:09:33.368Z</time></trkpt><trkpt lat="45.7165428" lon="9.407992"><ele>298.0</ele><time>2026-03-25T14:09:34.368Z</time></trkpt><trkpt lat="45.7164759" lon="9.4079721"><ele>298.0</ele><time>2026-03-25T14:09:35.367Z</time></trkpt><trkpt lat="45.7164102" lon="9.407948"><ele>298.0</ele><time>2026-03-25T14:09:36.368Z</time></trkpt><trkpt lat="45.7163442" lon="9.4079236"><ele>298.0</ele><time>2026-03-25T14:09:37.368Z</time></trkpt><trkpt lat="45.716276" lon="9.4079037"><ele>298.0</ele><time>2026-03-25T14:09:38.368Z</time></trkpt><trkpt lat="45.7162112" lon="9.4078779"><ele>298.0</ele><time>2026-03-25T14:09:39.368Z</time></trkpt><trkpt lat="45.7161455" lon="9.4078462"><ele>298.0</ele><time>2026-03-25T14:09:40.368Z</time></trkpt><trkpt lat="45.7160663" lon="9.4078369"><ele>298.3333333333333</ele><time>2026-03-25T14:09:41.367Z</time></trkpt><trkpt lat="45.715992" lon="9.4078151"><ele>298.66666666666663</ele><time>2026-03-25T14:09:42.368Z</time></trkpt><trkpt lat="45.7159144" lon="9.407788"><ele>299.0</ele><time>2026-03-25T14:09:43.367Z</time></trkpt><trkpt lat="45.7158375" lon="9.4077595"><ele>299.3333333333333</ele><time>2026-03-25T14:09:44.368Z</time></trkpt><trkpt lat="45.7157598" lon="9.4077358"><ele>299.6666666666667</ele><time>2026-03-25T14:09:45.367Z</time></trkpt><trkpt lat="45.7156858" lon="9.4077069"><ele>300.0</ele><time>2026-03-25T14:09:46.368Z</time></trkpt><trkpt lat="45.7156117" lon="9.4076765"><ele>300.0</ele><time>2026-03-25T14:09:47.368Z</time></trkpt><trkpt lat="45.7155355" lon="9.4076508"><ele>300.0</ele><time>2026-03-25T14:09:48.368Z</time></trkpt><trkpt lat="45.7154624" lon="9.4076278"><ele>300.0</ele><time>2026-03-25T14:09:49.368Z</time></trkpt><trkpt lat="45.7153883" lon="9.4075948"><ele>300.0</ele><time>2026-03-25T14:09:50.368Z</time></trkpt><trkpt lat="45.7153086" lon="9.407567"><ele>300.0</ele><time>2026-03-25T14:09:51.368Z</time></trkpt><trkpt lat="45.7152332" lon="9.4075345"><ele>300.0</ele><time>2026-03-25T14:09:52.368Z</time></trkpt><trkpt lat="45.7151578" lon="9.4075011"><ele>300.1666666666667</ele><time>2026-03-25T14:09:53.368Z</time></trkpt><trkpt lat="45.7150787" lon="9.407473"><ele>300.3333333333333</ele><time>2026-03-25T14:09:54.368Z</time></trkpt><trkpt lat="45.7150025" lon="9.4074382"><ele>300.5</ele><time>2026-03-25T14:09:55.368Z</time></trkpt><trkpt lat="45.7149276" lon="9.4074019"><ele>300.66666666666663</ele><time>2026-03-25T14:09:56.368Z</time></trkpt><trkpt lat="45.7148533" lon="9.4073637"><ele>300.8333333333333</ele><time>2026-03-25T14:09:57.368Z</time></trkpt><trkpt lat="45.7147751" lon="9.4073246"><ele>301.0</ele><time>2026-03-25T14:09:58.368Z</time></trkpt><trkpt lat="45.7147006" lon="9.4072851"><ele>301.0</ele><time>2026-03-25T14:09:59.368Z</time></trkpt><trkpt lat="45.7146245" lon="9.4072483"><ele>301.0</ele><time>2026-03-25T14:10:00.368Z</time></trkpt><trkpt lat="45.7145468" lon="9.4072137"><ele>301.0</ele><time>2026-03-25T14:10:01.368Z</time></trkpt><trkpt lat="45.7144705" lon="9.4071735"><ele>301.0</ele><time>2026-03-25T14:10:02.367Z</time></trkpt><trkpt lat="45.7143955" lon="9.4071398"><ele>301.0</ele><time>2026-03-25T14:10:03.367Z</time></trkpt><trkpt lat="45.7143214" lon="9.4070999"><ele>301.0</ele><time>2026-03-25T14:10:04.368Z</time></trkpt><trkpt lat="45.7142476" lon="9.4070645"><ele>300.8333333333333</ele><time>2026-03-25T14:10:05.368Z</time></trkpt><trkpt lat="45.7141705" lon="9.4070295"><ele>300.66666666666663</ele><time>2026-03-25T14:10:06.367Z</time></trkpt><trkpt lat="45.7140922" lon="9.4069943"><ele>300.5</ele><time>2026-03-25T14:10:07.368Z</time></trkpt><trkpt lat="45.7140155" lon="9.4069587"><ele>300.3333333333333</ele><time>2026-03-25T14:10:08.368Z</time></trkpt><trkpt lat="45.7139415" lon="9.4069267"><ele>300.1666666666667</ele><time>2026-03-25T14:10:09.367Z</time></trkpt><trkpt lat="45.7138692" lon="9.4068859"><ele>300.0</ele><time>2026-03-25T14:10:10.368Z</time></trkpt><trkpt lat="45.7137878" lon="9.406845"><ele>300.0</ele><time>2026-03-25T14:10:11.368Z</time></trkpt><trkpt lat="45.7137108" lon="9.4068052"><ele>300.0</ele><time>2026-03-25T14:10:12.367Z</time></trkpt><trkpt lat="45.7136381" lon="9.4067699"><ele>300.0</ele><time>2026-03-25T14:10:13.368Z</time></trkpt><trkpt lat="45.7135633" lon="9.4067304"><ele>300.0</ele><time>2026-03-25T14:10:14.368Z</time></trkpt><trkpt lat="45.713488" lon="9.4066875"><ele>300.0</ele><time>2026-03-25T14:10:15.368Z</time></trkpt><trkpt lat="45.7134128" lon="9.4066509"><ele>300.0</ele><time>2026-03-25T14:10:16.368Z</time></trkpt><trkpt lat="45.7133362" lon="9.4066135"><ele>300.5</ele><time>2026-03-25T14:10:17.368Z</time></trkpt><trkpt lat="45.7132624" lon="9.4065768"><ele>301.0</ele><time>2026-03-25T14:10:18.368Z</time></trkpt><trkpt lat="45.7131909" lon="9.4065325"><ele>301.5</ele><time>2026-03-25T14:10:19.368Z</time></trkpt><trkpt lat="45.7131171" lon="9.4064972"><ele>302.0</ele><time>2026-03-25T14:10:20.367Z</time></trkpt><trkpt lat="45.713042" lon="9.4064588"><ele>302.5</ele><time>2026-03-25T14:10:21.367Z</time></trkpt><trkpt lat="45.7129675" lon="9.4064235"><ele>303.0</ele><time>2026-03-25T14:10:22.367Z</time></trkpt><trkpt lat="45.7128945" lon="9.406386"><ele>303.0</ele><time>2026-03-25T14:10:23.368Z</time></trkpt><trkpt lat="45.7128251" lon="9.4063413"><ele>303.0</ele><time>2026-03-25T14:10:24.368Z</time></trkpt><trkpt lat="45.712751" lon="9.406304"><ele>303.0</ele><time>2026-03-25T14:10:25.368Z</time></trkpt><trkpt lat="45.7126785" lon="9.4062701"><ele>303.0</ele><time>2026-03-25T14:10:26.367Z</time></trkpt><trkpt lat="45.7126021" lon="9.4062384"><ele>303.0</ele><time>2026-03-25T14:10:27.368Z</time></trkpt><trkpt lat="45.7125231" lon="9.4062085"><ele>303.0</ele><time>2026-03-25T14:10:28.368Z</time></trkpt><trkpt lat="45.7124468" lon="9.4061823"><ele>302.6666666666667</ele><time>2026-03-25T14:10:29.368Z</time></trkpt><trkpt lat="45.7123708" lon="9.4061619"><ele>302.3333333333333</ele><time>2026-03-25T14:10:30.368Z</time></trkpt><trkpt lat="45.7122983" lon="9.4061383"><ele>302.0</ele><time>2026-03-25T14:10:31.367Z</time></trkpt><trkpt lat="45.7122184" lon="9.4061271"><ele>301.66666666666663</ele><time>2026-03-25T14:10:32.368Z</time></trkpt><trkpt lat="45.712138" lon="9.4061177"><ele>301.3333333333333</ele><time>2026-03-25T14:10:33.368Z</time></trkpt><trkpt lat="45.7120567" lon="9.4061127"><ele>301.0</ele><time>2026-03-25T14:10:34.368Z</time></trkpt><trkpt lat="45.7119768" lon="9.406108"><ele>301.42857142857144</ele><time>2026-03-25T14:10:35.368Z</time></trkpt><trkpt lat="45.7118982" lon="9.4061037"><ele>301.8571428571429</ele><time>2026-03-25T14:10:36.368Z</time></trkpt><trkpt lat="45.7118167" lon="9.4061091"><ele>302.2857142857143</ele><time>2026-03-25T14:10:37.367Z</time></trkpt><trkpt lat="45.7117391" lon="9.4061141"><ele>302.7142857142857</ele><time>2026-03-25T14:10:38.368Z</time></trkpt><trkpt lat="45.7116719" lon="9.4061103"><ele>303.14285714285717</ele><time>2026-03-25T14:10:39.367Z</time></trkpt><trkpt lat="45.711601" lon="9.4061182"><ele>303.57142857142856</ele><time>2026-03-25T14:10:40.368Z</time></trkpt><trkpt lat="45.711537" lon="9.4061185"><ele>304.0</ele><time>2026-03-25T14:10:41.368Z</time></trkpt><trkpt lat="45.711436" lon="9.406121"><ele>304.0</ele><time>2026-03-25T14:10:43.367Z</time></trkpt><trkpt lat="45.7113599" lon="9.406105"><ele>304.0</ele><time>2026-03-25T14:10:45.367Z</time></trkpt><trkpt lat="45.7112768" lon="9.4060831"><ele>304.0</ele><time>2026-03-25T14:10:47.368Z</time></trkpt><trkpt lat="45.7111695" lon="9.4060811"><ele>304.0</ele><time>2026-03-25T14:10:49.368Z</time></trkpt><trkpt lat="45.7110551" lon="9.4061569"><ele>304.0</ele><time>2026-03-25T14:10:51.368Z</time></trkpt><trkpt lat="45.7109938" lon="9.406206"><ele>304.8333333333333</ele><time>2026-03-25T14:10:52.368Z</time></trkpt><trkpt lat="45.710931" lon="9.4062628"><ele>305.66666666666663</ele><time>2026-03-25T14:10:53.368Z</time></trkpt><trkpt lat="45.71087" lon="9.4063193"><ele>306.5</ele><time>2026-03-25T14:10:54.368Z</time></trkpt><trkpt lat="45.7108027" lon="9.4063798"><ele>307.3333333333333</ele><time>2026-03-25T14:10:55.368Z</time></trkpt><trkpt lat="45.7107378" lon="9.4064379"><ele>308.1666666666667</ele><time>2026-03-25T14:10:56.367Z</time></trkpt><trkpt lat="45.710665" lon="9.4065017"><ele>309.0</ele><time>2026-03-25T14:10:57.368Z</time></trkpt><trkpt lat="45.710595" lon="9.4065622"><ele>309.00000000000006</ele><time>2026-03-25T14:10:58.368Z</time></trkpt><trkpt lat="45.7105289" lon="9.4066188"><ele>309.0</ele><time>2026-03-25T14:10:59.367Z</time></trkpt><trkpt lat="45.7104686" lon="9.4066684"><ele>309.0</ele><time>2026-03-25T14:11:00.367Z</time></trkpt><trkpt lat="45.7104062" lon="9.4067198"><ele>309.0</ele><time>2026-03-25T14:11:01.368Z</time></trkpt><trkpt lat="45.7103478" lon="9.4067641"><ele>309.0</ele><time>2026-03-25T14:11:02.367Z</time></trkpt><trkpt lat="45.7102887" lon="9.4068118"><ele>309.00000000000006</ele><time>2026-03-25T14:11:03.368Z</time></trkpt><trkpt lat="45.7102314" lon="9.4068551"><ele>309.0</ele><time>2026-03-25T14:11:04.368Z</time></trkpt><trkpt lat="45.7101214" lon="9.4069368"><ele>309.1666666666667</ele><time>2026-03-25T14:11:06.368Z</time></trkpt><trkpt lat="45.7100349" lon="9.4069908"><ele>309.3333333333333</ele><time>2026-03-25T14:11:08.368Z</time></trkpt><trkpt lat="45.7099626" lon="9.4070364"><ele>309.5</ele><time>2026-03-25T14:13:52.368Z</time></trkpt><trkpt lat="45.709914" lon="9.4071004"><ele>309.66666666666663</ele><time>2026-03-25T14:13:56.367Z</time></trkpt><trkpt lat="45.7098468" lon="9.4071493"><ele>309.8333333333333</ele><time>2026-03-25T14:13:58.368Z</time></trkpt><trkpt lat="45.7097608" lon="9.4072091"><ele>310.0</ele><time>2026-03-25T14:14:00.368Z</time></trkpt><trkpt lat="45.7096933" lon="9.4072628"><ele>310.0</ele><time>2026-03-25T14:14:02.367Z</time></trkpt><trkpt lat="45.7096346" lon="9.4073153"><ele>310.0</ele><time>2026-03-25T14:14:13.368Z</time></trkpt><trkpt lat="45.7095693" lon="9.4073647"><ele>310.0</ele><time>2026-03-25T14:14:15.367Z</time></trkpt><trkpt lat="45.7094935" lon="9.4074319"><ele>310.0</ele><time>2026-03-25T14:14:17.368Z</time></trkpt><trkpt lat="45.7094064" lon="9.4075066"><ele>310.0</ele><time>2026-03-25T14:14:19.367Z</time></trkpt><trkpt lat="45.7093098" lon="9.4075812"><ele>310.0</ele><time>2026-03-25T14:14:21.368Z</time></trkpt><trkpt lat="45.709227" lon="9.4076493"><ele>309.5</ele><time>2026-03-25T14:14:23.368Z</time></trkpt><trkpt lat="45.7091531" lon="9.407708"><ele>309.0</ele><time>2026-03-25T14:14:25.367Z</time></trkpt><trkpt lat="45.7090552" lon="9.4077893"><ele>308.5</ele><time>2026-03-25T14:14:27.368Z</time></trkpt><trkpt lat="45.7090012" lon="9.407838"><ele>308.0</ele><time>2026-03-25T14:14:28.367Z</time></trkpt><trkpt lat="45.7089412" lon="9.4078863"><ele>307.5</ele><time>2026-03-25T14:14:29.367Z</time></trkpt><trkpt lat="45.7088798" lon="9.4079339"><ele>307.0</ele><time>2026-03-25T14:14:30.368Z</time></trkpt><trkpt lat="45.7088199" lon="9.4079855"><ele>306.85714285714283</ele><time>2026-03-25T14:14:31.368Z</time></trkpt><trkpt lat="45.7087592" lon="9.4080337"><ele>306.7142857142857</ele><time>2026-03-25T14:14:32.368Z</time></trkpt><trkpt lat="45.7086958" lon="9.4080867"><ele>306.57142857142856</ele><time>2026-03-25T14:14:33.367Z</time></trkpt><trkpt lat="45.7086294" lon="9.4081384"><ele>306.42857142857144</ele><time>2026-03-25T14:14:34.368Z</time></trkpt><trkpt lat="45.7085651" lon="9.4081887"><ele>306.2857142857143</ele><time>2026-03-25T14:14:35.368Z</time></trkpt><trkpt lat="45.7084976" lon="9.4082465"><ele>306.1428571428571</ele><time>2026-03-25T14:14:36.368Z</time></trkpt><trkpt lat="45.7084285" lon="9.4082983"><ele>306.0</ele><time>2026-03-25T14:14:37.368Z</time></trkpt><trkpt lat="45.7083581" lon="9.408355"><ele>305.8333333333333</ele><time>2026-03-25T14:14:38.368Z</time></trkpt><trkpt lat="45.7082879" lon="9.4084102"><ele>305.6666666666667</ele><time>2026-03-25T14:14:39.367Z</time></trkpt><trkpt lat="45.708216" lon="9.4084676"><ele>305.5</ele><time>2026-03-25T14:14:40.368Z</time></trkpt><trkpt lat="45.7081501" lon="9.4085235"><ele>305.33333333333337</ele><time>2026-03-25T14:14:41.368Z</time></trkpt><trkpt lat="45.7080789" lon="9.4085838"><ele>305.1666666666667</ele><time>2026-03-25T14:14:42.368Z</time></trkpt><trkpt lat="45.7080117" lon="9.4086348"><ele>305.0</ele><time>2026-03-25T14:14:43.368Z</time></trkpt><trkpt lat="45.7079425" lon="9.4086895"><ele>305.0</ele><time>2026-03-25T14:14:44.368Z</time></trkpt><trkpt lat="45.7078686" lon="9.4087503"><ele>305.0</ele><time>2026-03-25T14:14:45.368Z</time></trkpt><trkpt lat="45.707796" lon="9.4088118"><ele>305.0</ele><time>2026-03-25T14:14:46.368Z</time></trkpt><trkpt lat="45.7077245" lon="9.4088716"><ele>305.0</ele><time>2026-03-25T14:14:47.368Z</time></trkpt><trkpt lat="45.707655" lon="9.4089232"><ele>305.0</ele><time>2026-03-25T14:14:48.368Z</time></trkpt><trkpt lat="45.7075839" lon="9.4089761"><ele>305.0</ele><time>2026-03-25T14:14:49.368Z</time></trkpt><trkpt lat="45.7075122" lon="9.4090366"><ele>304.33333333333337</ele><time>2026-03-25T14:14:50.368Z</time></trkpt><trkpt lat="45.7074393" lon="9.4090927"><ele>303.6666666666667</ele><time>2026-03-25T14:14:51.368Z</time></trkpt><trkpt lat="45.7073673" lon="9.4091482"><ele>303.0</ele><time>2026-03-25T14:14:52.367Z</time></trkpt><trkpt lat="45.7072934" lon="9.4092035"><ele>302.3333333333333</ele><time>2026-03-25T14:14:53.368Z</time></trkpt><trkpt lat="45.7072249" lon="9.4092574"><ele>301.66666666666663</ele><time>2026-03-25T14:14:54.368Z</time></trkpt><trkpt lat="45.7071575" lon="9.4093082"><ele>301.0</ele><time>2026-03-25T14:14:55.367Z</time></trkpt><trkpt lat="45.7071002" lon="9.4093507"><ele>301.0</ele><time>2026-03-25T14:14:56.368Z</time></trkpt><trkpt lat="45.7070432" lon="9.4093951"><ele>301.0</ele><time>2026-03-25T14:14:57.368Z</time></trkpt><trkpt lat="45.7069871" lon="9.409443"><ele>301.0</ele><time>2026-03-25T14:14:58.367Z</time></trkpt><trkpt lat="45.706887" lon="9.4095047"><ele>301.0</ele><time>2026-03-25T14:15:00.368Z</time></trkpt><trkpt lat="45.7067796" lon="9.4095881"><ele>301.0</ele><time>2026-03-25T14:15:02.367Z</time></trkpt><trkpt lat="45.7067268" lon="9.409638"><ele>301.0</ele><time>2026-03-25T14:15:03.368Z</time></trkpt><trkpt lat="45.7066346" lon="9.4097296"><ele>300.6</ele><time>2026-03-25T14:15:05.368Z</time></trkpt><trkpt lat="45.7065541" lon="9.409811"><ele>300.20000000000005</ele><time>2026-03-25T14:15:07.368Z</time></trkpt><trkpt lat="45.7064572" lon="9.4098652"><ele>299.79999999999995</ele><time>2026-03-25T14:15:09.367Z</time></trkpt><trkpt lat="45.7063458" lon="9.4099487"><ele>299.4</ele><time>2026-03-25T14:15:11.368Z</time></trkpt><trkpt lat="45.7062847" lon="9.4099981"><ele>299.0</ele><time>2026-03-25T14:15:12.367Z</time></trkpt><trkpt lat="45.706222" lon="9.4100548"><ele>299.0</ele><time>2026-03-25T14:15:13.368Z</time></trkpt><trkpt lat="45.7061564" lon="9.4101136"><ele>299.0</ele><time>2026-03-25T14:15:14.367Z</time></trkpt><trkpt lat="45.7060895" lon="9.4101707"><ele>299.0</ele><time>2026-03-25T14:15:15.367Z</time></trkpt><trkpt lat="45.7060209" lon="9.4102176"><ele>299.0</ele><time>2026-03-25T14:15:16.368Z</time></trkpt><trkpt lat="45.7059558" lon="9.4102767"><ele>299.0</ele><time>2026-03-25T14:15:17.368Z</time></trkpt><trkpt lat="45.7058859" lon="9.4103337"><ele>299.0</ele><time>2026-03-25T14:15:18.367Z</time></trkpt><trkpt lat="45.7058186" lon="9.4103869"><ele>298.33333333333337</ele><time>2026-03-25T14:15:19.368Z</time></trkpt><trkpt lat="45.7057493" lon="9.4104488"><ele>297.6666666666667</ele><time>2026-03-25T14:15:20.368Z</time></trkpt><trkpt lat="45.7056791" lon="9.4105092"><ele>297.0</ele><time>2026-03-25T14:15:21.368Z</time></trkpt><trkpt lat="45.7056103" lon="9.4105604"><ele>296.3333333333333</ele><time>2026-03-25T14:15:22.367Z</time></trkpt><trkpt lat="45.7055411" lon="9.4106161"><ele>295.66666666666663</ele><time>2026-03-25T14:15:23.368Z</time></trkpt><trkpt lat="45.7054741" lon="9.4106712"><ele>295.0</ele><time>2026-03-25T14:15:24.368Z</time></trkpt><trkpt lat="45.7054027" lon="9.4107298"><ele>295.0</ele><time>2026-03-25T14:15:25.368Z</time></trkpt><trkpt lat="45.705336" lon="9.4107849"><ele>295.0</ele><time>2026-03-25T14:15:26.368Z</time></trkpt><trkpt lat="45.7052662" lon="9.4108407"><ele>295.0</ele><time>2026-03-25T14:15:27.368Z</time></trkpt><trkpt lat="45.705199" lon="9.4108985"><ele>295.0</ele><time>2026-03-25T14:15:28.368Z</time></trkpt><trkpt lat="45.7051301" lon="9.4109618"><ele>295.0</ele><time>2026-03-25T14:15:29.368Z</time></trkpt><trkpt lat="45.7050654" lon="9.4110135"><ele>295.0</ele><time>2026-03-25T14:15:30.367Z</time></trkpt><trkpt lat="45.7049999" lon="9.4110684"><ele>295.0</ele><time>2026-03-25T14:15:31.368Z</time></trkpt><trkpt lat="45.704935" lon="9.4111175"><ele>295.0</ele><time>2026-03-25T14:15:32.367Z</time></trkpt><trkpt lat="45.7048736" lon="9.4111597"><ele>295.0</ele><time>2026-03-25T14:15:33.368Z</time></trkpt><trkpt lat="45.7048101" lon="9.411203"><ele>295.0</ele><time>2026-03-25T14:15:34.368Z</time></trkpt><trkpt lat="45.704751" lon="9.4112496"><ele>295.0</ele><time>2026-03-25T14:15:35.368Z</time></trkpt><trkpt lat="45.7046907" lon="9.4112861"><ele>295.0</ele><time>2026-03-25T14:15:36.368Z</time></trkpt><trkpt lat="45.704574" lon="9.4113504"><ele>295.0</ele><time>2026-03-25T14:15:38.368Z</time></trkpt><trkpt lat="45.7044629" lon="9.4113977"><ele>295.0</ele><time>2026-03-25T14:15:40.368Z</time></trkpt><trkpt lat="45.7043742" lon="9.4114275"><ele>295.0</ele><time>2026-03-25T14:15:42.368Z</time></trkpt><trkpt lat="45.704308" lon="9.4114361"><ele>295.0</ele><time>2026-03-25T14:15:44.368Z</time></trkpt><trkpt lat="45.7042392" lon="9.4114551"><ele>295.0</ele><time>2026-03-25T14:15:46.368Z</time></trkpt><trkpt lat="45.7041385" lon="9.4114663"><ele>295.0</ele><time>2026-03-25T14:15:48.368Z</time></trkpt><trkpt lat="45.7040298" lon="9.411487"><ele>294.0</ele><time>2026-03-25T14:15:50.368Z</time></trkpt><trkpt lat="45.7039198" lon="9.4115012"><ele>293.0</ele><time>2026-03-25T14:15:52.368Z</time></trkpt><trkpt lat="45.7038072" lon="9.411505"><ele>292.0</ele><time>2026-03-25T14:15:54.367Z</time></trkpt><trkpt lat="45.7036846" lon="9.4114946"><ele>291.0</ele><time>2026-03-25T14:15:56.368Z</time></trkpt><trkpt lat="45.7036203" lon="9.4114876"><ele>290.0</ele><time>2026-03-25T14:15:57.368Z</time></trkpt><trkpt lat="45.7035524" lon="9.4114751"><ele>290.0</ele><time>2026-03-25T14:15:58.368Z</time></trkpt><trkpt lat="45.7034841" lon="9.4114635"><ele>290.0</ele><time>2026-03-25T14:15:59.368Z</time></trkpt><trkpt lat="45.7034156" lon="9.4114498"><ele>290.0</ele><time>2026-03-25T14:16:00.367Z</time></trkpt><trkpt lat="45.7033528" lon="9.4114256"><ele>290.0</ele><time>2026-03-25T14:16:01.368Z</time></trkpt><trkpt lat="45.7032341" lon="9.4113895"><ele>290.0</ele><time>2026-03-25T14:16:03.367Z</time></trkpt><trkpt lat="45.7031237" lon="9.4113481"><ele>290.0</ele><time>2026-03-25T14:16:05.368Z</time></trkpt><trkpt lat="45.7030149" lon="9.4113053"><ele>289.6</ele><time>2026-03-25T14:16:07.368Z</time></trkpt><trkpt lat="45.7029031" lon="9.4112494"><ele>289.2</ele><time>2026-03-25T14:16:09.368Z</time></trkpt><trkpt lat="45.7027958" lon="9.4111948"><ele>288.8</ele><time>2026-03-25T14:16:11.368Z</time></trkpt><trkpt lat="45.7026769" lon="9.4111392"><ele>288.4</ele><time>2026-03-25T14:16:13.368Z</time></trkpt><trkpt lat="45.7026117" lon="9.411111"><ele>288.0</ele><time>2026-03-25T14:16:14.368Z</time></trkpt><trkpt lat="45.7025081" lon="9.4110499"><ele>288.0</ele><time>2026-03-25T14:16:16.368Z</time></trkpt><trkpt lat="45.7024123" lon="9.4110029"><ele>288.0</ele><time>2026-03-25T14:16:18.368Z</time></trkpt><trkpt lat="45.7023186" lon="9.4109653"><ele>288.0</ele><time>2026-03-25T14:16:20.368Z</time></trkpt><trkpt lat="45.7022331" lon="9.4109312"><ele>288.0</ele><time>2026-03-25T14:16:22.368Z</time></trkpt><trkpt lat="45.7021423" lon="9.4109194"><ele>288.0</ele><time>2026-03-25T14:16:24.368Z</time></trkpt><trkpt lat="45.7020248" lon="9.4108587"><ele>288.2</ele><time>2026-03-25T14:16:26.368Z</time></trkpt><trkpt lat="45.7019126" lon="9.4107815"><ele>288.4</ele><time>2026-03-25T14:16:28.368Z</time></trkpt><trkpt lat="45.7018526" lon="9.410736"><ele>288.59999999999997</ele><time>2026-03-25T14:16:29.368Z</time></trkpt><trkpt lat="45.7017955" lon="9.4106876"><ele>288.8</ele><time>2026-03-25T14:16:30.368Z</time></trkpt><trkpt lat="45.7016869" lon="9.410588"><ele>289.0</ele><time>2026-03-25T14:16:32.367Z</time></trkpt><trkpt lat="45.7015819" lon="9.4104829"><ele>288.14285714285717</ele><time>2026-03-25T14:16:34.368Z</time></trkpt><trkpt lat="45.7015261" lon="9.4104271"><ele>287.2857142857143</ele><time>2026-03-25T14:16:35.368Z</time></trkpt><trkpt lat="45.7014715" lon="9.410371"><ele>286.42857142857144</ele><time>2026-03-25T14:16:36.368Z</time></trkpt><trkpt lat="45.7014206" lon="9.4103091"><ele>285.57142857142856</ele><time>2026-03-25T14:16:37.367Z</time></trkpt><trkpt lat="45.7013666" lon="9.4102484"><ele>284.7142857142857</ele><time>2026-03-25T14:16:38.368Z</time></trkpt><trkpt lat="45.701314" lon="9.410187"><ele>283.8571428571429</ele><time>2026-03-25T14:16:39.368Z</time></trkpt><trkpt lat="45.7012613" lon="9.4101262"><ele>283.0</ele><time>2026-03-25T14:16:40.368Z</time></trkpt><trkpt lat="45.7012066" lon="9.4100608"><ele>283.0</ele><time>2026-03-25T14:16:41.368Z</time></trkpt><trkpt lat="45.7011505" lon="9.4099993"><ele>283.0</ele><time>2026-03-25T14:16:42.367Z</time></trkpt><trkpt lat="45.7011011" lon="9.4099383"><ele>283.0</ele><time>2026-03-25T14:16:43.367Z</time></trkpt><trkpt lat="45.7010504" lon="9.4098701"><ele>283.0</ele><time>2026-03-25T14:16:44.368Z</time></trkpt><trkpt lat="45.7009956" lon="9.4098048"><ele>283.0</ele><time>2026-03-25T14:16:45.368Z</time></trkpt><trkpt lat="45.7009414" lon="9.4097455"><ele>283.0</ele><time>2026-03-25T14:16:46.368Z</time></trkpt><trkpt lat="45.7008886" lon="9.4096854"><ele>283.0</ele><time>2026-03-25T14:16:47.368Z</time></trkpt><trkpt lat="45.7008344" lon="9.4096276"><ele>283.2857142857143</ele><time>2026-03-25T14:16:48.368Z</time></trkpt><trkpt lat="45.7007878" lon="9.4095609"><ele>283.5714285714286</ele><time>2026-03-25T14:16:49.368Z</time></trkpt><trkpt lat="45.7007324" lon="9.409494"><ele>283.8571428571429</ele><time>2026-03-25T14:16:50.368Z</time></trkpt><trkpt lat="45.7006792" lon="9.4094331"><ele>284.14285714285717</ele><time>2026-03-25T14:16:51.367Z</time></trkpt><trkpt lat="45.7006233" lon="9.4093694"><ele>284.42857142857144</ele><time>2026-03-25T14:16:52.368Z</time></trkpt><trkpt lat="45.7005695" lon="9.409299"><ele>284.7142857142857</ele><time>2026-03-25T14:16:53.367Z</time></trkpt><trkpt lat="45.7005129" lon="9.4092274"><ele>285.0</ele><time>2026-03-25T14:16:54.368Z</time></trkpt><trkpt lat="45.7004536" lon="9.4091602"><ele>285.0</ele><time>2026-03-25T14:16:55.368Z</time></trkpt><trkpt lat="45.7004002" lon="9.4090863"><ele>285.0</ele><time>2026-03-25T14:16:56.368Z</time></trkpt><trkpt lat="45.7003497" lon="9.4090161"><ele>285.0</ele><time>2026-03-25T14:16:57.368Z</time></trkpt><trkpt lat="45.7002994" lon="9.4089469"><ele>285.0</ele><time>2026-03-25T14:16:58.368Z</time></trkpt><trkpt lat="45.7002523" lon="9.4088799"><ele>285.0</ele><time>2026-03-25T14:16:59.368Z</time></trkpt><trkpt lat="45.700203" lon="9.408815"><ele>285.0</ele><time>2026-03-25T14:17:00.368Z</time></trkpt><trkpt lat="45.7001488" lon="9.408756"><ele>285.0</ele><time>2026-03-25T14:17:01.368Z</time></trkpt><trkpt lat="45.7000999" lon="9.4086988"><ele>285.4</ele><time>2026-03-25T14:17:02.367Z</time></trkpt><trkpt lat="45.7000052" lon="9.4085762"><ele>285.8</ele><time>2026-03-25T14:17:04.368Z</time></trkpt><trkpt lat="45.6999504" lon="9.4085135"><ele>286.2</ele><time>2026-03-25T14:17:05.368Z</time></trkpt><trkpt lat="45.6998636" lon="9.4083875"><ele>286.6</ele><time>2026-03-25T14:17:07.368Z</time></trkpt><trkpt lat="45.6997728" lon="9.4082649"><ele>287.0</ele><time>2026-03-25T14:17:09.368Z</time></trkpt><trkpt lat="45.6997239" lon="9.4082028"><ele>287.0</ele><time>2026-03-25T14:17:10.367Z</time></trkpt><trkpt lat="45.6996759" lon="9.4081381"><ele>287.0</ele><time>2026-03-25T14:17:11.367Z</time></trkpt><trkpt lat="45.6995967" lon="9.4080251"><ele>287.0</ele><time>2026-03-25T14:17:13.368Z</time></trkpt><trkpt lat="45.6995168" lon="9.4079081"><ele>287.0</ele><time>2026-03-25T14:17:15.368Z</time></trkpt><trkpt lat="45.6994311" lon="9.4077966"><ele>287.0</ele><time>2026-03-25T14:17:17.368Z</time></trkpt><trkpt lat="45.6993481" lon="9.4076817"><ele>286.25</ele><time>2026-03-25T14:17:19.368Z</time></trkpt><trkpt lat="45.6992642" lon="9.4075523"><ele>285.5</ele><time>2026-03-25T14:17:21.368Z</time></trkpt><trkpt lat="45.699189" lon="9.4074286"><ele>284.75</ele><time>2026-03-25T14:17:23.367Z</time></trkpt><trkpt lat="45.6991058" lon="9.4073238"><ele>284.0</ele><time>2026-03-25T14:17:25.368Z</time></trkpt><trkpt lat="45.69902" lon="9.407208"><ele>283.4</ele><time>2026-03-25T14:17:27.368Z</time></trkpt><trkpt lat="45.6989387" lon="9.4071143"><ele>282.79999999999995</ele><time>2026-03-25T14:17:29.368Z</time></trkpt><trkpt lat="45.6988546" lon="9.4070487"><ele>282.20000000000005</ele><time>2026-03-25T14:17:31.368Z</time></trkpt><trkpt lat="45.6987771" lon="9.4069565"><ele>281.6</ele><time>2026-03-25T14:17:33.368Z</time></trkpt><trkpt lat="45.6987063" lon="9.4068519"><ele>281.0</ele><time>2026-03-25T14:17:35.368Z</time></trkpt><trkpt lat="45.6986607" lon="9.4067712"><ele>281.0</ele><time>2026-03-25T14:17:37.367Z</time></trkpt><trkpt lat="45.6985979" lon="9.4066563"><ele>281.0</ele><time>2026-03-25T14:17:40.368Z</time></trkpt><trkpt lat="45.6985194" lon="9.4065608"><ele>281.0</ele><time>2026-03-25T14:17:42.368Z</time></trkpt><trkpt lat="45.6984116" lon="9.4064788"><ele>281.0</ele><time>2026-03-25T14:17:44.368Z</time></trkpt><trkpt lat="45.6982954" lon="9.4064086"><ele>280.875</ele><time>2026-03-25T14:17:46.368Z</time></trkpt><trkpt lat="45.6982375" lon="9.4063721"><ele>280.75</ele><time>2026-03-25T14:17:47.368Z</time></trkpt><trkpt lat="45.6981841" lon="9.4063207"><ele>280.625</ele><time>2026-03-25T14:17:48.368Z</time></trkpt><trkpt lat="45.6981271" lon="9.4062721"><ele>280.5</ele><time>2026-03-25T14:17:49.368Z</time></trkpt><trkpt lat="45.6980719" lon="9.4062266"><ele>280.375</ele><time>2026-03-25T14:17:50.368Z</time></trkpt><trkpt lat="45.6980175" lon="9.4061783"><ele>280.25</ele><time>2026-03-25T14:17:51.368Z</time></trkpt><trkpt lat="45.6979674" lon="9.4061236"><ele>280.125</ele><time>2026-03-25T14:17:52.368Z</time></trkpt><trkpt lat="45.697916" lon="9.4060683"><ele>280.0</ele><time>2026-03-25T14:17:53.368Z</time></trkpt><trkpt lat="45.6978618" lon="9.4060173"><ele>279.66666666666663</ele><time>2026-03-25T14:17:54.368Z</time></trkpt><trkpt lat="45.6978073" lon="9.4059679"><ele>279.3333333333333</ele><time>2026-03-25T14:17:55.368Z</time></trkpt><trkpt lat="45.6977537" lon="9.4059147"><ele>279.0</ele><time>2026-03-25T14:17:56.368Z</time></trkpt><trkpt lat="45.6977034" lon="9.4058597"><ele>278.6666666666667</ele><time>2026-03-25T14:17:57.367Z</time></trkpt><trkpt lat="45.6976495" lon="9.4058063"><ele>278.33333333333337</ele><time>2026-03-25T14:17:58.368Z</time></trkpt><trkpt lat="45.6975958" lon="9.4057553"><ele>278.0</ele><time>2026-03-25T14:17:59.368Z</time></trkpt><trkpt lat="45.6974866" lon="9.4056446"><ele>277.83333333333337</ele><time>2026-03-25T14:18:01.368Z</time></trkpt><trkpt lat="45.69743" lon="9.4055898"><ele>277.6666666666667</ele><time>2026-03-25T14:18:02.367Z</time></trkpt><trkpt lat="45.6973759" lon="9.4055344"><ele>277.5</ele><time>2026-03-25T14:18:03.368Z</time></trkpt><trkpt lat="45.6972814" lon="9.4054243"><ele>277.3333333333333</ele><time>2026-03-25T14:18:05.368Z</time></trkpt><trkpt lat="45.697226" lon="9.4053669"><ele>277.16666666666663</ele><time>2026-03-25T14:18:06.368Z</time></trkpt><trkpt lat="45.697176" lon="9.4053071"><ele>277.0</ele><time>2026-03-25T14:18:07.368Z</time></trkpt><trkpt lat="45.697126" lon="9.4052489"><ele>277.0</ele><time>2026-03-25T14:18:08.368Z</time></trkpt><trkpt lat="45.6970773" lon="9.4051905"><ele>277.0</ele><time>2026-03-25T14:18:09.368Z</time></trkpt><trkpt lat="45.697023" lon="9.405134"><ele>277.0</ele><time>2026-03-25T14:18:10.367Z</time></trkpt><trkpt lat="45.6969704" lon="9.4050794"><ele>277.0</ele><time>2026-03-25T14:18:11.368Z</time></trkpt><trkpt lat="45.6968809" lon="9.4049863"><ele>277.0</ele><time>2026-03-25T14:18:13.368Z</time></trkpt><trkpt lat="45.696789" lon="9.4049075"><ele>277.0</ele><time>2026-03-25T14:18:15.367Z</time></trkpt><trkpt lat="45.6966924" lon="9.4048157"><ele>277.0</ele><time>2026-03-25T14:18:17.367Z</time></trkpt><trkpt lat="45.6965891" lon="9.4047176"><ele>277.0</ele><time>2026-03-25T14:18:19.367Z</time></trkpt><trkpt lat="45.6965342" lon="9.4046729"><ele>277.0</ele><time>2026-03-25T14:18:20.368Z</time></trkpt><trkpt lat="45.6964349" lon="9.4045827"><ele>277.0</ele><time>2026-03-25T14:18:22.368Z</time></trkpt><trkpt lat="45.6963775" lon="9.4045398"><ele>277.0</ele><time>2026-03-25T14:18:23.368Z</time></trkpt><trkpt lat="45.6963131" lon="9.4044981"><ele>277.0</ele><time>2026-03-25T14:18:24.367Z</time></trkpt><trkpt lat="45.6962126" lon="9.4043916"><ele>276.8333333333333</ele><time>2026-03-25T14:18:26.368Z</time></trkpt><trkpt lat="45.6961597" lon="9.40434"><ele>276.66666666666663</ele><time>2026-03-25T14:18:27.367Z</time></trkpt><trkpt lat="45.6960602" lon="9.4042305"><ele>276.5</ele><time>2026-03-25T14:18:29.368Z</time></trkpt><trkpt lat="45.6959572" lon="9.4041282"><ele>276.3333333333333</ele><time>2026-03-25T14:18:31.368Z</time></trkpt><trkpt lat="45.6959055" lon="9.4040757"><ele>276.1666666666667</ele><time>2026-03-25T14:18:32.368Z</time></trkpt><trkpt lat="45.6958526" lon="9.4040257"><ele>276.0</ele><time>2026-03-25T14:18:33.368Z</time></trkpt><trkpt lat="45.6957505" lon="9.4039149"><ele>275.7142857142857</ele><time>2026-03-25T14:18:35.368Z</time></trkpt><trkpt lat="45.6956991" lon="9.4038581"><ele>275.42857142857144</ele><time>2026-03-25T14:18:36.368Z</time></trkpt><trkpt lat="45.6956466" lon="9.4038034"><ele>275.14285714285717</ele><time>2026-03-25T14:18:37.368Z</time></trkpt><trkpt lat="45.695593" lon="9.4037478"><ele>274.8571428571429</ele><time>2026-03-25T14:18:38.368Z</time></trkpt><trkpt lat="45.6955385" lon="9.4036967"><ele>274.57142857142856</ele><time>2026-03-25T14:18:39.367Z</time></trkpt><trkpt lat="45.6954832" lon="9.4036426"><ele>274.28571428571433</ele><time>2026-03-25T14:18:40.368Z</time></trkpt><trkpt lat="45.6954307" lon="9.4035803"><ele>274.0</ele><time>2026-03-25T14:18:41.368Z</time></trkpt><trkpt lat="45.6953751" lon="9.4035241"><ele>274.00000000000006</ele><time>2026-03-25T14:18:42.368Z</time></trkpt><trkpt lat="45.6953225" lon="9.4034668"><ele>274.0</ele><time>2026-03-25T14:18:43.368Z</time></trkpt><trkpt lat="45.6952672" lon="9.4034107"><ele>274.0</ele><time>2026-03-25T14:18:44.368Z</time></trkpt><trkpt lat="45.6952116" lon="9.4033608"><ele>274.0</ele><time>2026-03-25T14:18:45.368Z</time></trkpt><trkpt lat="45.6951552" lon="9.4033018"><ele>274.0</ele><time>2026-03-25T14:18:46.368Z</time></trkpt><trkpt lat="45.6950993" lon="9.4032424"><ele>274.00000000000006</ele><time>2026-03-25T14:18:47.368Z</time></trkpt><trkpt lat="45.6950444" lon="9.4031913"><ele>274.0</ele><time>2026-03-25T14:18:48.368Z</time></trkpt><trkpt lat="45.6949908" lon="9.4031384"><ele>274.00000000000006</ele><time>2026-03-25T14:18:49.368Z</time></trkpt><trkpt lat="45.6949373" lon="9.4030816"><ele>274.0</ele><time>2026-03-25T14:18:50.368Z</time></trkpt><trkpt lat="45.6948844" lon="9.4030237"><ele>274.0</ele><time>2026-03-25T14:18:51.368Z</time></trkpt><trkpt lat="45.6948315" lon="9.4029605"><ele>274.0</ele><time>2026-03-25T14:18:52.367Z</time></trkpt><trkpt lat="45.6947797" lon="9.4029007"><ele>274.0</ele><time>2026-03-25T14:18:53.368Z</time></trkpt><trkpt lat="45.6947283" lon="9.4028423"><ele>274.00000000000006</ele><time>2026-03-25T14:18:54.368Z</time></trkpt><trkpt lat="45.6946723" lon="9.4027883"><ele>274.0</ele><time>2026-03-25T14:18:55.367Z</time></trkpt><trkpt lat="45.6946186" lon="9.402731"><ele>274.0</ele><time>2026-03-25T14:18:56.368Z</time></trkpt><trkpt lat="45.6945668" lon="9.4026783"><ele>274.0</ele><time>2026-03-25T14:18:57.368Z</time></trkpt><trkpt lat="45.6944727" lon="9.4025908"><ele>274.0</ele><time>2026-03-25T14:18:59.367Z</time></trkpt><trkpt lat="45.6944106" lon="9.4025242"><ele>274.0</ele><time>2026-03-25T14:19:01.368Z</time></trkpt><trkpt lat="45.6943366" lon="9.402474"><ele>274.0</ele><time>2026-03-25T14:19:33.364Z</time></trkpt><trkpt lat="45.6942786" lon="9.4024271"><ele>274.0</ele><time>2026-03-25T14:19:35.364Z</time></trkpt><trkpt lat="45.6942146" lon="9.4023538"><ele>273.0</ele><time>2026-03-25T14:19:37.363Z</time></trkpt><trkpt lat="45.6941326" lon="9.4022686"><ele>272.0</ele><time>2026-03-25T14:19:39.364Z</time></trkpt><trkpt lat="45.6940328" lon="9.4021896"><ele>271.0</ele><time>2026-03-25T14:19:41.364Z</time></trkpt><trkpt lat="45.6939189" lon="9.4021392"><ele>270.0</ele><time>2026-03-25T14:19:43.364Z</time></trkpt><trkpt lat="45.6937989" lon="9.4021242"><ele>269.75</ele><time>2026-03-25T14:19:45.364Z</time></trkpt><trkpt lat="45.6936764" lon="9.402132"><ele>269.5</ele><time>2026-03-25T14:19:47.364Z</time></trkpt><trkpt lat="45.6935524" lon="9.4021493"><ele>269.25</ele><time>2026-03-25T14:19:49.364Z</time></trkpt><trkpt lat="45.6934307" lon="9.4021623"><ele>269.0</ele><time>2026-03-25T14:19:51.363Z</time></trkpt><trkpt lat="45.6933129" lon="9.4021859"><ele>269.0</ele><time>2026-03-25T14:19:53.364Z</time></trkpt><trkpt lat="45.6931902" lon="9.4021969"><ele>269.0</ele><time>2026-03-25T14:19:55.364Z</time></trkpt><trkpt lat="45.6931267" lon="9.4021976"><ele>269.0</ele><time>2026-03-25T14:19:56.363Z</time></trkpt><trkpt lat="45.6930616" lon="9.4021909"><ele>269.0</ele><time>2026-03-25T14:19:57.364Z</time></trkpt><trkpt lat="45.6929807" lon="9.4021801"><ele>269.0</ele><time>2026-03-25T14:19:58.649Z</time></trkpt><trkpt lat="45.692872" lon="9.402161"><ele>269.0</ele><time>2026-03-25T14:20:00.374Z</time></trkpt><trkpt lat="45.6927466" lon="9.4021226"><ele>269.0</ele><time>2026-03-25T14:20:02.374Z</time></trkpt><trkpt lat="45.6926287" lon="9.4020684"><ele>269.0</ele><time>2026-03-25T14:20:04.374Z</time></trkpt><trkpt lat="45.6925134" lon="9.4020099"><ele>269.0</ele><time>2026-03-25T14:20:06.374Z</time></trkpt><trkpt lat="45.6924091" lon="9.4019562"><ele>269.0</ele><time>2026-03-25T14:20:08.374Z</time></trkpt><trkpt lat="45.6923405" lon="9.4019179"><ele>269.0</ele><time>2026-03-25T14:20:10.374Z</time></trkpt><trkpt lat="45.6922637" lon="9.4018862"><ele>269.0</ele><time>2026-03-25T14:20:49.374Z</time></trkpt><trkpt lat="45.6922025" lon="9.4018573"><ele>269.0</ele><time>2026-03-25T14:20:51.374Z</time></trkpt><trkpt lat="45.6921164" lon="9.4018172"><ele>269.0</ele><time>2026-03-25T14:20:53.373Z</time></trkpt><trkpt lat="45.6920204" lon="9.4017725"><ele>269.0</ele><time>2026-03-25T14:20:55.374Z</time></trkpt><trkpt lat="45.6919172" lon="9.401719"><ele>269.0</ele><time>2026-03-25T14:20:57.374Z</time></trkpt><trkpt lat="45.6918046" lon="9.4016641"><ele>268.83333333333337</ele><time>2026-03-25T14:20:59.374Z</time></trkpt><trkpt lat="45.6916844" lon="9.4016027"><ele>268.6666666666667</ele><time>2026-03-25T14:21:01.374Z</time></trkpt><trkpt lat="45.6916219" lon="9.4015707"><ele>268.5</ele><time>2026-03-25T14:21:02.374Z</time></trkpt><trkpt lat="45.6915566" lon="9.4015391"><ele>268.3333333333333</ele><time>2026-03-25T14:21:03.374Z</time></trkpt><trkpt lat="45.6914883" lon="9.4015024"><ele>268.16666666666663</ele><time>2026-03-25T14:21:04.374Z</time></trkpt><trkpt lat="45.6914258" lon="9.4014692"><ele>268.0</ele><time>2026-03-25T14:21:05.374Z</time></trkpt><trkpt lat="45.6913622" lon="9.4014347"><ele>268.0</ele><time>2026-03-25T14:21:06.373Z</time></trkpt><trkpt lat="45.6912945" lon="9.4013966"><ele>268.0</ele><time>2026-03-25T14:21:07.374Z</time></trkpt><trkpt lat="45.6912345" lon="9.4013539"><ele>268.0</ele><time>2026-03-25T14:21:08.374Z</time></trkpt><trkpt lat="45.6911689" lon="9.4013191"><ele>268.0</ele><time>2026-03-25T14:21:09.373Z</time></trkpt><trkpt lat="45.6911048" lon="9.4012861"><ele>268.0</ele><time>2026-03-25T14:21:10.373Z</time></trkpt><trkpt lat="45.6910396" lon="9.4012532"><ele>268.0</ele><time>2026-03-25T14:21:11.373Z</time></trkpt><trkpt lat="45.6909742" lon="9.4012176"><ele>268.0</ele><time>2026-03-25T14:21:12.373Z</time></trkpt><trkpt lat="45.6909085" lon="9.4011867"><ele>267.57142857142856</ele><time>2026-03-25T14:21:13.374Z</time></trkpt><trkpt lat="45.6908398" lon="9.4011559"><ele>267.1428571428571</ele><time>2026-03-25T14:21:14.374Z</time></trkpt><trkpt lat="45.6907747" lon="9.401123"><ele>266.71428571428567</ele><time>2026-03-25T14:21:15.374Z</time></trkpt><trkpt lat="45.6907037" lon="9.4010935"><ele>266.2857142857143</ele><time>2026-03-25T14:21:16.374Z</time></trkpt><trkpt lat="45.6906373" lon="9.4010547"><ele>265.85714285714283</ele><time>2026-03-25T14:21:17.374Z</time></trkpt><trkpt lat="45.6905673" lon="9.401023"><ele>265.4285714285714</ele><time>2026-03-25T14:21:18.374Z</time></trkpt><trkpt lat="45.6904939" lon="9.4009875"><ele>265.0</ele><time>2026-03-25T14:21:19.373Z</time></trkpt><trkpt lat="45.6904248" lon="9.4009599"><ele>264.99999999999994</ele><time>2026-03-25T14:21:20.374Z</time></trkpt><trkpt lat="45.6903559" lon="9.4009267"><ele>265.0</ele><time>2026-03-25T14:21:21.374Z</time></trkpt><trkpt lat="45.6902867" lon="9.4008957"><ele>265.0</ele><time>2026-03-25T14:21:22.373Z</time></trkpt><trkpt lat="45.6902204" lon="9.4008573"><ele>265.0</ele><time>2026-03-25T14:21:23.374Z</time></trkpt><trkpt lat="45.6901524" lon="9.4008326"><ele>265.0</ele><time>2026-03-25T14:21:24.374Z</time></trkpt><trkpt lat="45.6900861" lon="9.4008002"><ele>264.99999999999994</ele><time>2026-03-25T14:21:25.374Z</time></trkpt><trkpt lat="45.6900157" lon="9.4007691"><ele>265.0</ele><time>2026-03-25T14:21:26.374Z</time></trkpt><trkpt lat="45.6899482" lon="9.4007407"><ele>264.57142857142856</ele><time>2026-03-25T14:21:27.373Z</time></trkpt><trkpt lat="45.6898823" lon="9.4007138"><ele>264.1428571428571</ele><time>2026-03-25T14:21:28.373Z</time></trkpt><trkpt lat="45.6898169" lon="9.4006795"><ele>263.7142857142857</ele><time>2026-03-25T14:21:29.374Z</time></trkpt><trkpt lat="45.6897581" lon="9.4006394"><ele>263.2857142857143</ele><time>2026-03-25T14:21:30.374Z</time></trkpt><trkpt lat="45.6896939" lon="9.4006017"><ele>262.8571428571429</ele><time>2026-03-25T14:21:31.374Z</time></trkpt><trkpt lat="45.6896227" lon="9.4005652"><ele>262.42857142857144</ele><time>2026-03-25T14:21:32.374Z</time></trkpt><trkpt lat="45.6895542" lon="9.400536"><ele>262.0</ele><time>2026-03-25T14:21:33.374Z</time></trkpt><trkpt lat="45.6894812" lon="9.4005054"><ele>262.16666666666663</ele><time>2026-03-25T14:21:34.373Z</time></trkpt><trkpt lat="45.6894128" lon="9.4004696"><ele>262.3333333333333</ele><time>2026-03-25T14:21:35.374Z</time></trkpt><trkpt lat="45.689342" lon="9.4004363"><ele>262.5</ele><time>2026-03-25T14:21:36.374Z</time></trkpt><trkpt lat="45.6892697" lon="9.400397"><ele>262.6666666666667</ele><time>2026-03-25T14:21:37.374Z</time></trkpt><trkpt lat="45.6891992" lon="9.4003576"><ele>262.83333333333337</ele><time>2026-03-25T14:21:38.374Z</time></trkpt><trkpt lat="45.6891258" lon="9.4003149"><ele>263.0</ele><time>2026-03-25T14:21:39.373Z</time></trkpt><trkpt lat="45.6890576" lon="9.4002826"><ele>263.0</ele><time>2026-03-25T14:21:40.374Z</time></trkpt><trkpt lat="45.6889908" lon="9.4002547"><ele>263.0</ele><time>2026-03-25T14:21:41.373Z</time></trkpt><trkpt lat="45.6888993" lon="9.4002078"><ele>263.0</ele><time>2026-03-25T14:21:43.374Z</time></trkpt><trkpt lat="45.6888438" lon="9.400125"><ele>263.0</ele><time>2026-03-25T14:21:46.373Z</time></trkpt><trkpt lat="45.6887733" lon="9.4000412"><ele>263.0</ele><time>2026-03-25T14:21:48.374Z</time></trkpt><trkpt lat="45.6886574" lon="9.3999688"><ele>262.85714285714283</ele><time>2026-03-25T14:21:50.374Z</time></trkpt><trkpt lat="45.6885893" lon="9.3999576"><ele>262.71428571428567</ele><time>2026-03-25T14:21:51.373Z</time></trkpt><trkpt lat="45.68852" lon="9.3999825"><ele>262.57142857142856</ele><time>2026-03-25T14:21:52.374Z</time></trkpt><trkpt lat="45.6884468" lon="9.4000112"><ele>262.42857142857144</ele><time>2026-03-25T14:21:53.373Z</time></trkpt><trkpt lat="45.6883734" lon="9.4000319"><ele>262.28571428571433</ele><time>2026-03-25T14:21:54.374Z</time></trkpt><trkpt lat="45.6882979" lon="9.4000281"><ele>262.14285714285717</ele><time>2026-03-25T14:21:55.374Z</time></trkpt><trkpt lat="45.6882211" lon="9.400015"><ele>262.0</ele><time>2026-03-25T14:21:56.374Z</time></trkpt><trkpt lat="45.6881457" lon="9.3999908"><ele>262.0</ele><time>2026-03-25T14:21:57.374Z</time></trkpt><trkpt lat="45.6880654" lon="9.3999715"><ele>262.0</ele><time>2026-03-25T14:21:58.373Z</time></trkpt><trkpt lat="45.6879857" lon="9.3999505"><ele>262.0</ele><time>2026-03-25T14:21:59.374Z</time></trkpt><trkpt lat="45.6879081" lon="9.3999284"><ele>262.0</ele><time>2026-03-25T14:22:00.373Z</time></trkpt><trkpt lat="45.6878295" lon="9.3999101"><ele>262.0</ele><time>2026-03-25T14:22:01.374Z</time></trkpt><trkpt lat="45.687751" lon="9.3998882"><ele>262.0</ele><time>2026-03-25T14:22:02.374Z</time></trkpt><trkpt lat="45.6876722" lon="9.3998623"><ele>261.3333333333333</ele><time>2026-03-25T14:22:03.374Z</time></trkpt><trkpt lat="45.6876005" lon="9.3998323"><ele>260.66666666666663</ele><time>2026-03-25T14:22:04.374Z</time></trkpt><trkpt lat="45.6875241" lon="9.3998004"><ele>260.0</ele><time>2026-03-25T14:22:05.374Z</time></trkpt><trkpt lat="45.6874444" lon="9.3997695"><ele>259.3333333333333</ele><time>2026-03-25T14:22:06.374Z</time></trkpt><trkpt lat="45.6873658" lon="9.3997373"><ele>258.6666666666667</ele><time>2026-03-25T14:22:07.374Z</time></trkpt><trkpt lat="45.6872854" lon="9.3997068"><ele>258.0</ele><time>2026-03-25T14:22:08.374Z</time></trkpt><trkpt lat="45.6872052" lon="9.399685"><ele>258.0</ele><time>2026-03-25T14:22:09.373Z</time></trkpt><trkpt lat="45.6871242" lon="9.3996619"><ele>258.0</ele><time>2026-03-25T14:22:10.374Z</time></trkpt><trkpt lat="45.6870546" lon="9.3996316"><ele>258.0</ele><time>2026-03-25T14:22:11.374Z</time></trkpt><trkpt lat="45.6869736" lon="9.3996046"><ele>258.0</ele><time>2026-03-25T14:22:12.373Z</time></trkpt><trkpt lat="45.6868934" lon="9.3995764"><ele>258.0</ele><time>2026-03-25T14:22:13.374Z</time></trkpt><trkpt lat="45.6868163" lon="9.3995492"><ele>258.0</ele><time>2026-03-25T14:22:14.374Z</time></trkpt><trkpt lat="45.6867413" lon="9.3995187"><ele>257.8333333333333</ele><time>2026-03-25T14:22:15.373Z</time></trkpt><trkpt lat="45.6866643" lon="9.3994889"><ele>257.6666666666667</ele><time>2026-03-25T14:22:16.374Z</time></trkpt><trkpt lat="45.6865864" lon="9.3994636"><ele>257.5</ele><time>2026-03-25T14:22:17.373Z</time></trkpt><trkpt lat="45.6865051" lon="9.3994345"><ele>257.33333333333337</ele><time>2026-03-25T14:22:18.374Z</time></trkpt><trkpt lat="45.6864277" lon="9.3994059"><ele>257.1666666666667</ele><time>2026-03-25T14:22:19.374Z</time></trkpt><trkpt lat="45.6863468" lon="9.3993757"><ele>257.0</ele><time>2026-03-25T14:22:20.374Z</time></trkpt><trkpt lat="45.686271" lon="9.3993461"><ele>257.0</ele><time>2026-03-25T14:22:21.374Z</time></trkpt><trkpt lat="45.6861902" lon="9.3993197"><ele>257.0</ele><time>2026-03-25T14:22:22.373Z</time></trkpt><trkpt lat="45.6861135" lon="9.3992928"><ele>257.0</ele><time>2026-03-25T14:22:23.374Z</time></trkpt><trkpt lat="45.6860289" lon="9.3992677"><ele>257.0</ele><time>2026-03-25T14:22:24.374Z</time></trkpt><trkpt lat="45.6859473" lon="9.3992464"><ele>257.0</ele><time>2026-03-25T14:22:25.374Z</time></trkpt><trkpt lat="45.6858696" lon="9.3992152"><ele>257.0</ele><time>2026-03-25T14:22:26.374Z</time></trkpt><trkpt lat="45.6857886" lon="9.3991833"><ele>256.33333333333337</ele><time>2026-03-25T14:22:27.374Z</time></trkpt><trkpt lat="45.68571" lon="9.3991597"><ele>255.66666666666669</ele><time>2026-03-25T14:22:28.373Z</time></trkpt><trkpt lat="45.6856318" lon="9.3991384"><ele>255.0</ele><time>2026-03-25T14:22:29.373Z</time></trkpt><trkpt lat="45.6855506" lon="9.3991102"><ele>254.33333333333331</ele><time>2026-03-25T14:22:30.373Z</time></trkpt><trkpt lat="45.685478" lon="9.3990785"><ele>253.66666666666666</ele><time>2026-03-25T14:22:31.374Z</time></trkpt><trkpt lat="45.6853964" lon="9.3990532"><ele>253.0</ele><time>2026-03-25T14:22:32.373Z</time></trkpt><trkpt lat="45.6853159" lon="9.3990245"><ele>253.49999999999997</ele><time>2026-03-25T14:22:33.373Z</time></trkpt><trkpt lat="45.6852383" lon="9.3989959"><ele>254.0</ele><time>2026-03-25T14:22:34.373Z</time></trkpt><trkpt lat="45.6851584" lon="9.3989663"><ele>254.5</ele><time>2026-03-25T14:22:35.374Z</time></trkpt><trkpt lat="45.685077" lon="9.3989424"><ele>255.0</ele><time>2026-03-25T14:22:36.374Z</time></trkpt><trkpt lat="45.6849983" lon="9.3989105"><ele>255.49999999999997</ele><time>2026-03-25T14:22:37.374Z</time></trkpt><trkpt lat="45.6849172" lon="9.3988827"><ele>256.0</ele><time>2026-03-25T14:22:38.374Z</time></trkpt><trkpt lat="45.6848407" lon="9.3988533"><ele>255.66666666666666</ele><time>2026-03-25T14:22:39.374Z</time></trkpt><trkpt lat="45.6847661" lon="9.3988206"><ele>255.33333333333331</ele><time>2026-03-25T14:22:40.373Z</time></trkpt><trkpt lat="45.6846926" lon="9.3987848"><ele>255.0</ele><time>2026-03-25T14:22:41.374Z</time></trkpt><trkpt lat="45.6846116" lon="9.3987646"><ele>254.66666666666669</ele><time>2026-03-25T14:22:42.374Z</time></trkpt><trkpt lat="45.6845274" lon="9.3987346"><ele>254.33333333333334</ele><time>2026-03-25T14:22:43.373Z</time></trkpt><trkpt lat="45.6844459" lon="9.398706"><ele>254.0</ele><time>2026-03-25T14:22:44.373Z</time></trkpt><trkpt lat="45.6843673" lon="9.3986812"><ele>253.83333333333334</ele><time>2026-03-25T14:22:45.374Z</time></trkpt><trkpt lat="45.6842881" lon="9.3986529"><ele>253.66666666666669</ele><time>2026-03-25T14:22:46.374Z</time></trkpt><trkpt lat="45.6842107" lon="9.3986209"><ele>253.5</ele><time>2026-03-25T14:22:47.374Z</time></trkpt><trkpt lat="45.6841296" lon="9.3985923"><ele>253.33333333333331</ele><time>2026-03-25T14:22:48.373Z</time></trkpt><trkpt lat="45.6840538" lon="9.3985632"><ele>253.16666666666666</ele><time>2026-03-25T14:22:49.374Z</time></trkpt><trkpt lat="45.6839717" lon="9.3985327"><ele>253.0</ele><time>2026-03-25T14:22:50.374Z</time></trkpt><trkpt lat="45.6838923" lon="9.3985073"><ele>252.99999999999997</ele><time>2026-03-25T14:22:51.373Z</time></trkpt><trkpt lat="45.6838159" lon="9.3984795"><ele>253.0</ele><time>2026-03-25T14:22:52.374Z</time></trkpt><trkpt lat="45.6837407" lon="9.3984552"><ele>253.0</ele><time>2026-03-25T14:22:53.373Z</time></trkpt><trkpt lat="45.683663" lon="9.3984246"><ele>253.0</ele><time>2026-03-25T14:22:54.374Z</time></trkpt><trkpt lat="45.6835831" lon="9.3983962"><ele>252.99999999999997</ele><time>2026-03-25T14:22:55.374Z</time></trkpt><trkpt lat="45.6835018" lon="9.3983652"><ele>253.0</ele><time>2026-03-25T14:22:56.374Z</time></trkpt><trkpt lat="45.6834212" lon="9.3983338"><ele>252.99999999999997</ele><time>2026-03-25T14:22:57.374Z</time></trkpt><trkpt lat="45.6833425" lon="9.3983052"><ele>253.0</ele><time>2026-03-25T14:22:58.374Z</time></trkpt><trkpt lat="45.6832647" lon="9.3982842"><ele>253.0</ele><time>2026-03-25T14:22:59.374Z</time></trkpt><trkpt lat="45.6831865" lon="9.3982601"><ele>253.0</ele><time>2026-03-25T14:23:00.374Z</time></trkpt><trkpt lat="45.6831024" lon="9.3982422"><ele>252.99999999999997</ele><time>2026-03-25T14:23:01.374Z</time></trkpt><trkpt lat="45.6830252" lon="9.3982204"><ele>253.0</ele><time>2026-03-25T14:23:02.373Z</time></trkpt><trkpt lat="45.6829489" lon="9.3981895"><ele>252.99999999999997</ele><time>2026-03-25T14:23:03.373Z</time></trkpt><trkpt lat="45.6828727" lon="9.39815"><ele>253.0</ele><time>2026-03-25T14:23:04.373Z</time></trkpt><trkpt lat="45.6827955" lon="9.3981147"><ele>253.0</ele><time>2026-03-25T14:23:05.374Z</time></trkpt><trkpt lat="45.6827158" lon="9.3980928"><ele>253.0</ele><time>2026-03-25T14:23:06.373Z</time></trkpt><trkpt lat="45.6826356" lon="9.3980709"><ele>252.99999999999997</ele><time>2026-03-25T14:23:07.374Z</time></trkpt><trkpt lat="45.6825588" lon="9.3980379"><ele>253.0</ele><time>2026-03-25T14:23:08.374Z</time></trkpt><trkpt lat="45.6824826" lon="9.3980032"><ele>253.66666666666666</ele><time>2026-03-25T14:23:09.373Z</time></trkpt><trkpt lat="45.682401" lon="9.3979755"><ele>254.33333333333331</ele><time>2026-03-25T14:23:10.374Z</time></trkpt><trkpt lat="45.6823193" lon="9.3979482"><ele>255.0</ele><time>2026-03-25T14:23:11.373Z</time></trkpt><trkpt lat="45.6822432" lon="9.3979132"><ele>255.66666666666669</ele><time>2026-03-25T14:23:12.374Z</time></trkpt><trkpt lat="45.6821636" lon="9.3978853"><ele>256.33333333333337</ele><time>2026-03-25T14:23:13.374Z</time></trkpt><trkpt lat="45.6820832" lon="9.3978593"><ele>257.0</ele><time>2026-03-25T14:23:14.374Z</time></trkpt><trkpt lat="45.6820057" lon="9.3978299"><ele>256.6666666666667</ele><time>2026-03-25T14:23:15.374Z</time></trkpt><trkpt lat="45.6819263" lon="9.3977999"><ele>256.33333333333337</ele><time>2026-03-25T14:23:16.374Z</time></trkpt><trkpt lat="45.6818478" lon="9.3977718"><ele>256.0</ele><time>2026-03-25T14:23:17.374Z</time></trkpt><trkpt lat="45.6817728" lon="9.3977396"><ele>255.66666666666669</ele><time>2026-03-25T14:23:18.374Z</time></trkpt><trkpt lat="45.6816956" lon="9.3977101"><ele>255.33333333333334</ele><time>2026-03-25T14:23:19.374Z</time></trkpt><trkpt lat="45.6816153" lon="9.3976817"><ele>255.0</ele><time>2026-03-25T14:23:20.374Z</time></trkpt><trkpt lat="45.6815342" lon="9.3976555"><ele>255.0</ele><time>2026-03-25T14:23:21.374Z</time></trkpt><trkpt lat="45.6814545" lon="9.3976287"><ele>255.0</ele><time>2026-03-25T14:23:22.374Z</time></trkpt><trkpt lat="45.6813769" lon="9.3975975"><ele>255.0</ele><time>2026-03-25T14:23:23.373Z</time></trkpt><trkpt lat="45.6812981" lon="9.3975674"><ele>255.0</ele><time>2026-03-25T14:23:24.374Z</time></trkpt><trkpt lat="45.6812193" lon="9.397542"><ele>255.0</ele><time>2026-03-25T14:23:25.374Z</time></trkpt><trkpt lat="45.6811404" lon="9.3975147"><ele>255.0</ele><time>2026-03-25T14:23:26.374Z</time></trkpt><trkpt lat="45.6810601" lon="9.3974867"><ele>254.83333333333334</ele><time>2026-03-25T14:23:27.374Z</time></trkpt><trkpt lat="45.6809807" lon="9.3974603"><ele>254.66666666666669</ele><time>2026-03-25T14:23:28.374Z</time></trkpt><trkpt lat="45.6809013" lon="9.3974309"><ele>254.5</ele><time>2026-03-25T14:23:29.374Z</time></trkpt><trkpt lat="45.6808207" lon="9.3973987"><ele>254.33333333333334</ele><time>2026-03-25T14:23:30.374Z</time></trkpt><trkpt lat="45.6807408" lon="9.3973714"><ele>254.16666666666669</ele><time>2026-03-25T14:23:31.373Z</time></trkpt><trkpt lat="45.6806619" lon="9.3973408"><ele>254.0</ele><time>2026-03-25T14:23:32.374Z</time></trkpt><trkpt lat="45.6805806" lon="9.397314"><ele>254.00000000000003</ele><time>2026-03-25T14:23:33.374Z</time></trkpt><trkpt lat="45.6805006" lon="9.3972856"><ele>254.0</ele><time>2026-03-25T14:23:34.374Z</time></trkpt><trkpt lat="45.6804231" lon="9.3972519"><ele>254.0</ele><time>2026-03-25T14:23:35.374Z</time></trkpt><trkpt lat="45.6803462" lon="9.397214"><ele>254.0</ele><time>2026-03-25T14:23:36.374Z</time></trkpt><trkpt lat="45.6802701" lon="9.3971709"><ele>254.00000000000003</ele><time>2026-03-25T14:23:37.374Z</time></trkpt><trkpt lat="45.6801941" lon="9.3971211"><ele>254.0</ele><time>2026-03-25T14:23:38.373Z</time></trkpt><trkpt lat="45.680118" lon="9.3970752"><ele>253.66666666666669</ele><time>2026-03-25T14:23:39.374Z</time></trkpt><trkpt lat="45.6800407" lon="9.3970337"><ele>253.33333333333334</ele><time>2026-03-25T14:23:40.374Z</time></trkpt><trkpt lat="45.6799653" lon="9.3970007"><ele>253.0</ele><time>2026-03-25T14:23:41.373Z</time></trkpt><trkpt lat="45.6798914" lon="9.3969568"><ele>252.66666666666669</ele><time>2026-03-25T14:23:42.374Z</time></trkpt><trkpt lat="45.6798202" lon="9.3969013"><ele>252.33333333333334</ele><time>2026-03-25T14:23:43.374Z</time></trkpt><trkpt lat="45.6797565" lon="9.3968331"><ele>252.0</ele><time>2026-03-25T14:23:44.374Z</time></trkpt><trkpt lat="45.6796945" lon="9.3967611"><ele>252.0</ele><time>2026-03-25T14:23:45.374Z</time></trkpt><trkpt lat="45.6796285" lon="9.3967086"><ele>252.0</ele><time>2026-03-25T14:23:46.374Z</time></trkpt><trkpt lat="45.6795494" lon="9.3966812"><ele>252.0</ele><time>2026-03-25T14:23:47.374Z</time></trkpt><trkpt lat="45.6794683" lon="9.3966803"><ele>252.0</ele><time>2026-03-25T14:23:48.374Z</time></trkpt><trkpt lat="45.679386" lon="9.3967004"><ele>252.0</ele><time>2026-03-25T14:23:49.374Z</time></trkpt><trkpt lat="45.6793111" lon="9.39673"><ele>252.0</ele><time>2026-03-25T14:23:50.374Z</time></trkpt><trkpt lat="45.6792355" lon="9.3967586"><ele>251.66666666666666</ele><time>2026-03-25T14:23:51.374Z</time></trkpt><trkpt lat="45.6791545" lon="9.3967582"><ele>251.33333333333331</ele><time>2026-03-25T14:23:52.373Z</time></trkpt><trkpt lat="45.6790762" lon="9.3967449"><ele>251.0</ele><time>2026-03-25T14:23:53.374Z</time></trkpt><trkpt lat="45.6789954" lon="9.3967331"><ele>250.66666666666666</ele><time>2026-03-25T14:23:54.374Z</time></trkpt><trkpt lat="45.6789149" lon="9.3967147"><ele>250.33333333333331</ele><time>2026-03-25T14:23:55.374Z</time></trkpt><trkpt lat="45.6788356" lon="9.3966877"><ele>250.0</ele><time>2026-03-25T14:23:56.374Z</time></trkpt><trkpt lat="45.6787553" lon="9.3966569"><ele>249.99999999999997</ele><time>2026-03-25T14:23:57.374Z</time></trkpt><trkpt lat="45.6786747" lon="9.396629"><ele>250.0</ele><time>2026-03-25T14:23:58.374Z</time></trkpt><trkpt lat="45.6786029" lon="9.3965893"><ele>250.0</ele><time>2026-03-25T14:23:59.374Z</time></trkpt><trkpt lat="45.6785264" lon="9.3965571"><ele>250.0</ele><time>2026-03-25T14:24:00.374Z</time></trkpt><trkpt lat="45.6784472" lon="9.3965322"><ele>249.99999999999997</ele><time>2026-03-25T14:24:01.373Z</time></trkpt><trkpt lat="45.678366" lon="9.3965046"><ele>250.0</ele><time>2026-03-25T14:24:02.374Z</time></trkpt><trkpt lat="45.678283" lon="9.3964744"><ele>249.83333333333331</ele><time>2026-03-25T14:24:03.374Z</time></trkpt><trkpt lat="45.6782068" lon="9.3964454"><ele>249.66666666666666</ele><time>2026-03-25T14:24:04.373Z</time></trkpt><trkpt lat="45.6781291" lon="9.3964172"><ele>249.5</ele><time>2026-03-25T14:24:05.374Z</time></trkpt><trkpt lat="45.6780512" lon="9.3963856"><ele>249.33333333333331</ele><time>2026-03-25T14:24:06.374Z</time></trkpt><trkpt lat="45.6779778" lon="9.3963507"><ele>249.16666666666666</ele><time>2026-03-25T14:24:07.373Z</time></trkpt><trkpt lat="45.6778989" lon="9.3963247"><ele>249.0</ele><time>2026-03-25T14:24:08.374Z</time></trkpt><trkpt lat="45.6778216" lon="9.3962968"><ele>249.0</ele><time>2026-03-25T14:24:09.374Z</time></trkpt><trkpt lat="45.6777421" lon="9.3962695"><ele>249.0</ele><time>2026-03-25T14:24:10.374Z</time></trkpt><trkpt lat="45.6776639" lon="9.3962402"><ele>249.0</ele><time>2026-03-25T14:24:11.374Z</time></trkpt><trkpt lat="45.6775876" lon="9.3962142"><ele>249.0</ele><time>2026-03-25T14:24:12.374Z</time></trkpt><trkpt lat="45.6775134" lon="9.3961823"><ele>249.0</ele><time>2026-03-25T14:24:13.374Z</time></trkpt><trkpt lat="45.6774355" lon="9.3961509"><ele>249.0</ele><time>2026-03-25T14:24:14.374Z</time></trkpt><trkpt lat="45.6773581" lon="9.396124"><ele>249.0</ele><time>2026-03-25T14:24:15.374Z</time></trkpt><trkpt lat="45.6772791" lon="9.396104"><ele>249.0</ele><time>2026-03-25T14:24:16.374Z</time></trkpt><trkpt lat="45.6772028" lon="9.3960788"><ele>249.0</ele><time>2026-03-25T14:24:17.373Z</time></trkpt><trkpt lat="45.6771255" lon="9.396056"><ele>249.0</ele><time>2026-03-25T14:24:18.374Z</time></trkpt><trkpt lat="45.6770497" lon="9.3960277"><ele>249.0</ele><time>2026-03-25T14:24:19.374Z</time></trkpt><trkpt lat="45.6769724" lon="9.3959983"><ele>249.0</ele><time>2026-03-25T14:24:20.374Z</time></trkpt><trkpt lat="45.6768963" lon="9.3959717"><ele>249.0</ele><time>2026-03-25T14:24:21.374Z</time></trkpt><trkpt lat="45.6768152" lon="9.3959457"><ele>249.0</ele><time>2026-03-25T14:24:22.373Z</time></trkpt><trkpt lat="45.6767348" lon="9.3959199"><ele>249.0</ele><time>2026-03-25T14:24:23.374Z</time></trkpt><trkpt lat="45.6766551" lon="9.3958897"><ele>249.0</ele><time>2026-03-25T14:24:24.373Z</time></trkpt><trkpt lat="45.6765751" lon="9.3958632"><ele>249.0</ele><time>2026-03-25T14:24:25.373Z</time></trkpt><trkpt lat="45.6764963" lon="9.3958375"><ele>249.0</ele><time>2026-03-25T14:24:26.374Z</time></trkpt><trkpt lat="45.676417" lon="9.3958087"><ele>249.0</ele><time>2026-03-25T14:24:27.373Z</time></trkpt><trkpt lat="45.6763413" lon="9.3957768"><ele>249.0</ele><time>2026-03-25T14:24:28.374Z</time></trkpt><trkpt lat="45.6762623" lon="9.395746"><ele>249.0</ele><time>2026-03-25T14:24:29.374Z</time></trkpt><trkpt lat="45.6761818" lon="9.3957155"><ele>249.0</ele><time>2026-03-25T14:24:30.374Z</time></trkpt><trkpt lat="45.6761042" lon="9.3956788"><ele>249.0</ele><time>2026-03-25T14:24:31.373Z</time></trkpt><trkpt lat="45.6760259" lon="9.3956456"><ele>249.0</ele><time>2026-03-25T14:24:32.374Z</time></trkpt><trkpt lat="45.6759472" lon="9.3956103"><ele>248.66666666666666</ele><time>2026-03-25T14:24:33.374Z</time></trkpt><trkpt lat="45.6758701" lon="9.3955718"><ele>248.33333333333331</ele><time>2026-03-25T14:24:34.374Z</time></trkpt><trkpt lat="45.6757923" lon="9.3955305"><ele>248.0</ele><time>2026-03-25T14:24:35.374Z</time></trkpt><trkpt lat="45.6757166" lon="9.39549"><ele>247.66666666666666</ele><time>2026-03-25T14:24:36.373Z</time></trkpt><trkpt lat="45.6756418" lon="9.395447"><ele>247.33333333333331</ele><time>2026-03-25T14:24:37.374Z</time></trkpt><trkpt lat="45.6755661" lon="9.3954002"><ele>247.0</ele><time>2026-03-25T14:24:38.373Z</time></trkpt><trkpt lat="45.67549" lon="9.3953548"><ele>246.99999999999997</ele><time>2026-03-25T14:24:39.374Z</time></trkpt><trkpt lat="45.6754159" lon="9.395306"><ele>247.0</ele><time>2026-03-25T14:24:40.374Z</time></trkpt><trkpt lat="45.6753422" lon="9.3952548"><ele>247.0</ele><time>2026-03-25T14:24:41.373Z</time></trkpt><trkpt lat="45.6752679" lon="9.3952057"><ele>247.0</ele><time>2026-03-25T14:24:42.374Z</time></trkpt><trkpt lat="45.6751942" lon="9.395153"><ele>246.99999999999997</ele><time>2026-03-25T14:24:43.374Z</time></trkpt><trkpt lat="45.6751239" lon="9.395105"><ele>247.0</ele><time>2026-03-25T14:24:44.374Z</time></trkpt><trkpt lat="45.675054" lon="9.3950507"><ele>246.49999999999997</ele><time>2026-03-25T14:24:45.374Z</time></trkpt><trkpt lat="45.6749831" lon="9.3949956"><ele>246.0</ele><time>2026-03-25T14:24:46.374Z</time></trkpt><trkpt lat="45.6749113" lon="9.3949354"><ele>245.5</ele><time>2026-03-25T14:24:47.374Z</time></trkpt><trkpt lat="45.6748403" lon="9.3948732"><ele>245.0</ele><time>2026-03-25T14:24:48.374Z</time></trkpt><trkpt lat="45.6747701" lon="9.3948118"><ele>244.49999999999997</ele><time>2026-03-25T14:24:49.373Z</time></trkpt><trkpt lat="45.6747008" lon="9.3947507"><ele>244.0</ele><time>2026-03-25T14:24:50.374Z</time></trkpt><trkpt lat="45.6746331" lon="9.3946869"><ele>243.99999999999997</ele><time>2026-03-25T14:24:51.374Z</time></trkpt><trkpt lat="45.6745645" lon="9.3946256"><ele>244.0</ele><time>2026-03-25T14:24:52.374Z</time></trkpt><trkpt lat="45.6744954" lon="9.3945577"><ele>244.0</ele><time>2026-03-25T14:24:53.374Z</time></trkpt><trkpt lat="45.6744262" lon="9.3944909"><ele>244.0</ele><time>2026-03-25T14:24:54.373Z</time></trkpt><trkpt lat="45.674359" lon="9.3944201"><ele>243.99999999999997</ele><time>2026-03-25T14:24:55.373Z</time></trkpt><trkpt lat="45.6742941" lon="9.3943472"><ele>244.0</ele><time>2026-03-25T14:24:56.374Z</time></trkpt><trkpt lat="45.6742325" lon="9.3942678"><ele>244.16666666666666</ele><time>2026-03-25T14:24:57.374Z</time></trkpt><trkpt lat="45.6741689" lon="9.394197"><ele>244.33333333333331</ele><time>2026-03-25T14:24:58.374Z</time></trkpt><trkpt lat="45.6741058" lon="9.394124"><ele>244.5</ele><time>2026-03-25T14:24:59.373Z</time></trkpt><trkpt lat="45.6740428" lon="9.3940484"><ele>244.66666666666669</ele><time>2026-03-25T14:25:00.374Z</time></trkpt><trkpt lat="45.6739825" lon="9.3939768"><ele>244.83333333333334</ele><time>2026-03-25T14:25:01.374Z</time></trkpt><trkpt lat="45.6739242" lon="9.3938968"><ele>245.0</ele><time>2026-03-25T14:25:02.373Z</time></trkpt><trkpt lat="45.6738656" lon="9.3938153"><ele>245.00000000000003</ele><time>2026-03-25T14:25:03.373Z</time></trkpt><trkpt lat="45.6738076" lon="9.3937295"><ele>245.0</ele><time>2026-03-25T14:25:04.374Z</time></trkpt><trkpt lat="45.6737492" lon="9.3936442"><ele>245.0</ele><time>2026-03-25T14:25:05.374Z</time></trkpt><trkpt lat="45.6736928" lon="9.3935593"><ele>245.0</ele><time>2026-03-25T14:25:06.374Z</time></trkpt><trkpt lat="45.6736367" lon="9.393472"><ele>245.00000000000003</ele><time>2026-03-25T14:25:07.373Z</time></trkpt><trkpt lat="45.6735814" lon="9.3933856"><ele>245.0</ele><time>2026-03-25T14:25:08.374Z</time></trkpt><trkpt lat="45.6735277" lon="9.393301"><ele>245.16666666666669</ele><time>2026-03-25T14:25:09.374Z</time></trkpt><trkpt lat="45.673474" lon="9.3932164"><ele>245.33333333333334</ele><time>2026-03-25T14:25:10.374Z</time></trkpt><trkpt lat="45.6734191" lon="9.3931311"><ele>245.5</ele><time>2026-03-25T14:25:11.373Z</time></trkpt><trkpt lat="45.6733639" lon="9.3930445"><ele>245.66666666666669</ele><time>2026-03-25T14:25:12.374Z</time></trkpt><trkpt lat="45.6733092" lon="9.3929567"><ele>245.83333333333334</ele><time>2026-03-25T14:25:13.374Z</time></trkpt><trkpt lat="45.6732524" lon="9.3928702"><ele>246.0</ele><time>2026-03-25T14:25:14.374Z</time></trkpt><trkpt lat="45.6731927" lon="9.3927845"><ele>245.66666666666666</ele><time>2026-03-25T14:25:15.373Z</time></trkpt><trkpt lat="45.6731344" lon="9.3927009"><ele>245.33333333333331</ele><time>2026-03-25T14:25:16.374Z</time></trkpt><trkpt lat="45.6730771" lon="9.3926145"><ele>245.0</ele><time>2026-03-25T14:25:17.373Z</time></trkpt><trkpt lat="45.6730215" lon="9.3925259"><ele>244.66666666666666</ele><time>2026-03-25T14:25:18.374Z</time></trkpt><trkpt lat="45.672969" lon="9.3924352"><ele>244.33333333333331</ele><time>2026-03-25T14:25:19.374Z</time></trkpt><trkpt lat="45.6729128" lon="9.3923479"><ele>244.0</ele><time>2026-03-25T14:25:20.374Z</time></trkpt><trkpt lat="45.6728582" lon="9.3922581"><ele>243.99999999999997</ele><time>2026-03-25T14:25:21.374Z</time></trkpt><trkpt lat="45.6728044" lon="9.3921703"><ele>244.0</ele><time>2026-03-25T14:25:22.374Z</time></trkpt><trkpt lat="45.6727506" lon="9.3920823"><ele>244.0</ele><time>2026-03-25T14:25:23.374Z</time></trkpt><trkpt lat="45.6726981" lon="9.39199"><ele>244.0</ele><time>2026-03-25T14:25:24.374Z</time></trkpt><trkpt lat="45.672645" lon="9.3918946"><ele>243.99999999999997</ele><time>2026-03-25T14:25:25.374Z</time></trkpt><trkpt lat="45.6725948" lon="9.3917952"><ele>244.0</ele><time>2026-03-25T14:25:26.374Z</time></trkpt><trkpt lat="45.6725444" lon="9.3916993"><ele>243.49999999999997</ele><time>2026-03-25T14:25:27.374Z</time></trkpt><trkpt lat="45.6724949" lon="9.3916032"><ele>243.0</ele><time>2026-03-25T14:25:28.373Z</time></trkpt><trkpt lat="45.6724446" lon="9.3915107"><ele>242.5</ele><time>2026-03-25T14:25:29.374Z</time></trkpt><trkpt lat="45.6723945" lon="9.3914175"><ele>242.0</ele><time>2026-03-25T14:25:30.374Z</time></trkpt><trkpt lat="45.6723439" lon="9.3913209"><ele>241.49999999999997</ele><time>2026-03-25T14:25:31.374Z</time></trkpt><trkpt lat="45.6722923" lon="9.3912304"><ele>241.0</ele><time>2026-03-25T14:25:32.373Z</time></trkpt><trkpt lat="45.672238" lon="9.3911432"><ele>240.99999999999997</ele><time>2026-03-25T14:25:33.374Z</time></trkpt><trkpt lat="45.6721787" lon="9.3910604"><ele>241.0</ele><time>2026-03-25T14:25:34.374Z</time></trkpt><trkpt lat="45.6721192" lon="9.3909786"><ele>241.0</ele><time>2026-03-25T14:25:35.374Z</time></trkpt><trkpt lat="45.6720597" lon="9.3908977"><ele>241.0</ele><time>2026-03-25T14:25:36.373Z</time></trkpt><trkpt lat="45.6719987" lon="9.3908156"><ele>240.99999999999997</ele><time>2026-03-25T14:25:37.373Z</time></trkpt><trkpt lat="45.6719375" lon="9.3907403"><ele>241.0</ele><time>2026-03-25T14:25:38.374Z</time></trkpt><trkpt lat="45.671875" lon="9.3906688"><ele>240.99999999999997</ele><time>2026-03-25T14:25:39.374Z</time></trkpt><trkpt lat="45.6718127" lon="9.3905958"><ele>241.0</ele><time>2026-03-25T14:25:40.374Z</time></trkpt><trkpt lat="45.6717475" lon="9.3905211"><ele>241.0</ele><time>2026-03-25T14:25:41.374Z</time></trkpt><trkpt lat="45.6716794" lon="9.3904532"><ele>241.0</ele><time>2026-03-25T14:25:42.374Z</time></trkpt><trkpt lat="45.671608" lon="9.3903902"><ele>240.99999999999997</ele><time>2026-03-25T14:25:43.374Z</time></trkpt><trkpt lat="45.6715381" lon="9.3903311"><ele>241.0</ele><time>2026-03-25T14:25:44.373Z</time></trkpt><trkpt lat="45.6714672" lon="9.3902702"><ele>240.83333333333331</ele><time>2026-03-25T14:25:45.374Z</time></trkpt><trkpt lat="45.6713932" lon="9.3902123"><ele>240.66666666666666</ele><time>2026-03-25T14:25:46.374Z</time></trkpt><trkpt lat="45.6713179" lon="9.3901608"><ele>240.5</ele><time>2026-03-25T14:25:47.374Z</time></trkpt><trkpt lat="45.6712412" lon="9.3901093"><ele>240.33333333333331</ele><time>2026-03-25T14:25:48.373Z</time></trkpt><trkpt lat="45.6711657" lon="9.3900565"><ele>240.16666666666666</ele><time>2026-03-25T14:25:49.374Z</time></trkpt><trkpt lat="45.6710875" lon="9.3900094"><ele>240.0</ele><time>2026-03-25T14:25:50.373Z</time></trkpt><trkpt lat="45.6710161" lon="9.3899586"><ele>240.0</ele><time>2026-03-25T14:25:51.374Z</time></trkpt><trkpt lat="45.6709405" lon="9.3899142"><ele>240.0</ele><time>2026-03-25T14:25:52.373Z</time></trkpt><trkpt lat="45.6708612" lon="9.3898693"><ele>240.0</ele><time>2026-03-25T14:25:53.374Z</time></trkpt><trkpt lat="45.6707823" lon="9.3898222"><ele>240.0</ele><time>2026-03-25T14:25:54.374Z</time></trkpt><trkpt lat="45.6707052" lon="9.3897749"><ele>240.0</ele><time>2026-03-25T14:25:55.374Z</time></trkpt><trkpt lat="45.6706277" lon="9.3897246"><ele>240.0</ele><time>2026-03-25T14:25:56.374Z</time></trkpt><trkpt lat="45.6705529" lon="9.3896726"><ele>240.0</ele><time>2026-03-25T14:25:57.373Z</time></trkpt><trkpt lat="45.6704766" lon="9.3896213"><ele>240.0</ele><time>2026-03-25T14:25:58.373Z</time></trkpt><trkpt lat="45.6703968" lon="9.3895689"><ele>240.0</ele><time>2026-03-25T14:25:59.374Z</time></trkpt><trkpt lat="45.670317" lon="9.3895183"><ele>240.0</ele><time>2026-03-25T14:26:00.374Z</time></trkpt><trkpt lat="45.6702391" lon="9.3894732"><ele>240.0</ele><time>2026-03-25T14:26:01.374Z</time></trkpt><trkpt lat="45.6701621" lon="9.3894221"><ele>240.0</ele><time>2026-03-25T14:26:02.374Z</time></trkpt><trkpt lat="45.6700868" lon="9.3893691"><ele>239.83333333333334</ele><time>2026-03-25T14:26:03.374Z</time></trkpt><trkpt lat="45.6700123" lon="9.3893171"><ele>239.66666666666669</ele><time>2026-03-25T14:26:04.374Z</time></trkpt><trkpt lat="45.6699374" lon="9.3892654"><ele>239.5</ele><time>2026-03-25T14:26:05.374Z</time></trkpt><trkpt lat="45.6698634" lon="9.3892138"><ele>239.33333333333334</ele><time>2026-03-25T14:26:06.374Z</time></trkpt><trkpt lat="45.6697864" lon="9.3891646"><ele>239.16666666666669</ele><time>2026-03-25T14:26:07.374Z</time></trkpt><trkpt lat="45.6697077" lon="9.3891194"><ele>239.0</ele><time>2026-03-25T14:26:08.373Z</time></trkpt><trkpt lat="45.6696296" lon="9.3890703"><ele>239.00000000000003</ele><time>2026-03-25T14:26:09.374Z</time></trkpt><trkpt lat="45.6695483" lon="9.3890255"><ele>239.0</ele><time>2026-03-25T14:26:10.374Z</time></trkpt><trkpt lat="45.6694674" lon="9.388983"><ele>239.0</ele><time>2026-03-25T14:26:11.374Z</time></trkpt><trkpt lat="45.6693946" lon="9.3889405"><ele>239.0</ele><time>2026-03-25T14:26:12.374Z</time></trkpt><trkpt lat="45.6693183" lon="9.3888977"><ele>239.00000000000003</ele><time>2026-03-25T14:26:13.373Z</time></trkpt><trkpt lat="45.6692378" lon="9.3888555"><ele>239.0</ele><time>2026-03-25T14:26:14.374Z</time></trkpt><trkpt lat="45.6691589" lon="9.388813"><ele>238.33333333333334</ele><time>2026-03-25T14:26:15.374Z</time></trkpt><trkpt lat="45.6690774" lon="9.3887654"><ele>237.66666666666669</ele><time>2026-03-25T14:26:16.374Z</time></trkpt><trkpt lat="45.668993" lon="9.3887209"><ele>237.0</ele><time>2026-03-25T14:26:17.374Z</time></trkpt><trkpt lat="45.668913" lon="9.3886742"><ele>236.33333333333331</ele><time>2026-03-25T14:26:18.374Z</time></trkpt><trkpt lat="45.668832" lon="9.3886318"><ele>235.66666666666666</ele><time>2026-03-25T14:26:19.374Z</time></trkpt><trkpt lat="45.6687513" lon="9.3885876"><ele>235.0</ele><time>2026-03-25T14:26:20.374Z</time></trkpt><trkpt lat="45.6686697" lon="9.3885408"><ele>235.16666666666666</ele><time>2026-03-25T14:26:21.374Z</time></trkpt><trkpt lat="45.6685904" lon="9.3884921"><ele>235.33333333333331</ele><time>2026-03-25T14:26:22.374Z</time></trkpt><trkpt lat="45.6685096" lon="9.3884445"><ele>235.5</ele><time>2026-03-25T14:26:23.374Z</time></trkpt><trkpt lat="45.6684282" lon="9.3883959"><ele>235.66666666666669</ele><time>2026-03-25T14:26:24.373Z</time></trkpt><trkpt lat="45.668349" lon="9.3883486"><ele>235.83333333333334</ele><time>2026-03-25T14:26:25.374Z</time></trkpt><trkpt lat="45.6682711" lon="9.3882975"><ele>236.0</ele><time>2026-03-25T14:26:26.374Z</time></trkpt><trkpt lat="45.6681923" lon="9.3882445"><ele>236.00000000000003</ele><time>2026-03-25T14:26:27.374Z</time></trkpt><trkpt lat="45.6681149" lon="9.3881905"><ele>236.0</ele><time>2026-03-25T14:26:28.374Z</time></trkpt><trkpt lat="45.6680402" lon="9.3881338"><ele>236.0</ele><time>2026-03-25T14:26:29.373Z</time></trkpt><trkpt lat="45.6679644" lon="9.3880779"><ele>236.0</ele><time>2026-03-25T14:26:30.374Z</time></trkpt><trkpt lat="45.6678879" lon="9.3880245"><ele>236.00000000000003</ele><time>2026-03-25T14:26:31.374Z</time></trkpt><trkpt lat="45.6678099" lon="9.3879727"><ele>236.0</ele><time>2026-03-25T14:26:32.374Z</time></trkpt><trkpt lat="45.6677343" lon="9.3879156"><ele>235.66666666666669</ele><time>2026-03-25T14:26:33.373Z</time></trkpt><trkpt lat="45.6676599" lon="9.3878559"><ele>235.33333333333334</ele><time>2026-03-25T14:26:34.374Z</time></trkpt><trkpt lat="45.6675867" lon="9.3877976"><ele>235.0</ele><time>2026-03-25T14:26:35.373Z</time></trkpt><trkpt lat="45.6675155" lon="9.3877406"><ele>234.66666666666669</ele><time>2026-03-25T14:26:36.373Z</time></trkpt><trkpt lat="45.6674448" lon="9.3876807"><ele>234.33333333333334</ele><time>2026-03-25T14:26:37.374Z</time></trkpt><trkpt lat="45.6673709" lon="9.3876172"><ele>234.0</ele><time>2026-03-25T14:26:38.374Z</time></trkpt><trkpt lat="45.6672975" lon="9.3875564"><ele>234.0</ele><time>2026-03-25T14:26:39.374Z</time></trkpt><trkpt lat="45.6672204" lon="9.3875006"><ele>234.0</ele><time>2026-03-25T14:26:40.374Z</time></trkpt><trkpt lat="45.6671422" lon="9.3874458"><ele>234.0</ele><time>2026-03-25T14:26:41.373Z</time></trkpt><trkpt lat="45.6670672" lon="9.3873863"><ele>234.0</ele><time>2026-03-25T14:26:42.373Z</time></trkpt><trkpt lat="45.6669912" lon="9.387323"><ele>234.0</ele><time>2026-03-25T14:26:43.374Z</time></trkpt><trkpt lat="45.666916" lon="9.3872645"><ele>234.0</ele><time>2026-03-25T14:26:44.374Z</time></trkpt><trkpt lat="45.6668398" lon="9.3872039"><ele>233.66666666666666</ele><time>2026-03-25T14:26:45.373Z</time></trkpt><trkpt lat="45.6667642" lon="9.3871503"><ele>233.33333333333331</ele><time>2026-03-25T14:26:46.374Z</time></trkpt><trkpt lat="45.6666897" lon="9.3870947"><ele>233.0</ele><time>2026-03-25T14:26:47.373Z</time></trkpt><trkpt lat="45.6666139" lon="9.3870372"><ele>232.66666666666666</ele><time>2026-03-25T14:26:48.374Z</time></trkpt><trkpt lat="45.666538" lon="9.3869773"><ele>232.33333333333331</ele><time>2026-03-25T14:26:49.374Z</time></trkpt><trkpt lat="45.6664647" lon="9.3869143"><ele>232.0</ele><time>2026-03-25T14:26:50.374Z</time></trkpt><trkpt lat="45.6663867" lon="9.3868553"><ele>231.99999999999997</ele><time>2026-03-25T14:26:51.373Z</time></trkpt><trkpt lat="45.6663076" lon="9.3867955"><ele>232.0</ele><time>2026-03-25T14:26:52.374Z</time></trkpt><trkpt lat="45.666232" lon="9.3867313"><ele>232.0</ele><time>2026-03-25T14:26:53.374Z</time></trkpt><trkpt lat="45.6661552" lon="9.3866666"><ele>232.0</ele><time>2026-03-25T14:26:54.374Z</time></trkpt><trkpt lat="45.6660782" lon="9.3866002"><ele>231.99999999999997</ele><time>2026-03-25T14:26:55.374Z</time></trkpt><trkpt lat="45.6660033" lon="9.386544"><ele>232.0</ele><time>2026-03-25T14:26:56.374Z</time></trkpt><trkpt lat="45.6659281" lon="9.3864849"><ele>232.33333333333331</ele><time>2026-03-25T14:26:57.374Z</time></trkpt><trkpt lat="45.6658577" lon="9.3864277"><ele>232.66666666666666</ele><time>2026-03-25T14:26:58.374Z</time></trkpt><trkpt lat="45.6657838" lon="9.3863656"><ele>233.0</ele><time>2026-03-25T14:26:59.374Z</time></trkpt><trkpt lat="45.6657141" lon="9.3862996"><ele>233.33333333333331</ele><time>2026-03-25T14:27:00.373Z</time></trkpt><trkpt lat="45.6656419" lon="9.386237"><ele>233.66666666666666</ele><time>2026-03-25T14:27:01.373Z</time></trkpt><trkpt lat="45.6655679" lon="9.386177"><ele>234.0</ele><time>2026-03-25T14:27:02.374Z</time></trkpt><trkpt lat="45.6654971" lon="9.386119"><ele>234.0</ele><time>2026-03-25T14:27:03.374Z</time></trkpt><trkpt lat="45.6654246" lon="9.386059"><ele>234.0</ele><time>2026-03-25T14:27:04.374Z</time></trkpt><trkpt lat="45.6653513" lon="9.3860029"><ele>234.0</ele><time>2026-03-25T14:27:05.374Z</time></trkpt><trkpt lat="45.6652771" lon="9.3859424"><ele>234.0</ele><time>2026-03-25T14:27:06.373Z</time></trkpt><trkpt lat="45.6652063" lon="9.3858836"><ele>234.0</ele><time>2026-03-25T14:27:07.373Z</time></trkpt><trkpt lat="45.6651342" lon="9.3858218"><ele>234.0</ele><time>2026-03-25T14:27:08.374Z</time></trkpt><trkpt lat="45.6650622" lon="9.3857627"><ele>233.57142857142858</ele><time>2026-03-25T14:27:09.374Z</time></trkpt><trkpt lat="45.6649957" lon="9.3856995"><ele>233.14285714285717</ele><time>2026-03-25T14:27:10.374Z</time></trkpt><trkpt lat="45.6649332" lon="9.3856345"><ele>232.71428571428572</ele><time>2026-03-25T14:27:11.374Z</time></trkpt><trkpt lat="45.6648722" lon="9.385567"><ele>232.28571428571428</ele><time>2026-03-25T14:27:12.374Z</time></trkpt><trkpt lat="45.6648151" lon="9.3854998"><ele>231.85714285714286</ele><time>2026-03-25T14:27:13.374Z</time></trkpt><trkpt lat="45.6647589" lon="9.3854378"><ele>231.42857142857144</ele><time>2026-03-25T14:27:14.373Z</time></trkpt><trkpt lat="45.6647101" lon="9.3853699"><ele>231.0</ele><time>2026-03-25T14:27:15.374Z</time></trkpt><trkpt lat="45.6646517" lon="9.3853067"><ele>231.0</ele><time>2026-03-25T14:27:16.374Z</time></trkpt><trkpt lat="45.6645909" lon="9.3852485"><ele>231.0</ele><time>2026-03-25T14:27:17.374Z</time></trkpt><trkpt lat="45.664529" lon="9.3851883"><ele>231.0</ele><time>2026-03-25T14:27:18.374Z</time></trkpt><trkpt lat="45.6644673" lon="9.3851268"><ele>231.0</ele><time>2026-03-25T14:27:19.374Z</time></trkpt><trkpt lat="45.6644049" lon="9.3850706"><ele>231.0</ele><time>2026-03-25T14:27:20.373Z</time></trkpt><trkpt lat="45.6643507" lon="9.3850213"><ele>231.0</ele><time>2026-03-25T14:27:21.374Z</time></trkpt><trkpt lat="45.6642688" lon="9.384938"><ele>230.8</ele><time>2026-03-25T14:27:23.374Z</time></trkpt><trkpt lat="45.6642255" lon="9.3848051"><ele>230.60000000000002</ele><time>2026-03-25T14:27:25.374Z</time></trkpt><trkpt lat="45.6641516" lon="9.3846924"><ele>230.4</ele><time>2026-03-25T14:27:27.374Z</time></trkpt><trkpt lat="45.6640368" lon="9.3846716"><ele>230.2</ele><time>2026-03-25T14:27:29.374Z</time></trkpt><trkpt lat="45.6639264" lon="9.3847125"><ele>230.0</ele><time>2026-03-25T14:27:31.374Z</time></trkpt><trkpt lat="45.6638175" lon="9.3847015"><ele>230.25</ele><time>2026-03-25T14:27:33.373Z</time></trkpt><trkpt lat="45.663716" lon="9.3846387"><ele>230.5</ele><time>2026-03-25T14:27:35.374Z</time></trkpt><trkpt lat="45.6636126" lon="9.38456"><ele>230.75</ele><time>2026-03-25T14:27:37.374Z</time></trkpt><trkpt lat="45.6635076" lon="9.3844711"><ele>231.0</ele><time>2026-03-25T14:27:39.374Z</time></trkpt><trkpt lat="45.6633995" lon="9.3843768"><ele>231.0</ele><time>2026-03-25T14:27:41.374Z</time></trkpt><trkpt lat="45.6633441" lon="9.3843298"><ele>231.0</ele><time>2026-03-25T14:27:42.374Z</time></trkpt><trkpt lat="45.6632873" lon="9.3842833"><ele>231.0</ele><time>2026-03-25T14:27:43.374Z</time></trkpt><trkpt lat="45.6632294" lon="9.3842363"><ele>231.0</ele><time>2026-03-25T14:27:44.374Z</time></trkpt><trkpt lat="45.6631735" lon="9.3841932"><ele>231.0</ele><time>2026-03-25T14:27:45.374Z</time></trkpt><trkpt lat="45.6631182" lon="9.3841469"><ele>231.0</ele><time>2026-03-25T14:27:46.374Z</time></trkpt><trkpt lat="45.6630628" lon="9.3841"><ele>231.0</ele><time>2026-03-25T14:27:47.374Z</time></trkpt><trkpt lat="45.6630037" lon="9.3840543"><ele>231.0</ele><time>2026-03-25T14:27:48.374Z</time></trkpt><trkpt lat="45.6629466" lon="9.3840069"><ele>231.0</ele><time>2026-03-25T14:27:49.373Z</time></trkpt><trkpt lat="45.662889" lon="9.3839554"><ele>231.0</ele><time>2026-03-25T14:27:50.374Z</time></trkpt><trkpt lat="45.6628323" lon="9.3839008"><ele>231.0</ele><time>2026-03-25T14:27:51.373Z</time></trkpt><trkpt lat="45.6627776" lon="9.3838485"><ele>231.0</ele><time>2026-03-25T14:27:52.374Z</time></trkpt><trkpt lat="45.662723" lon="9.3837945"><ele>231.0</ele><time>2026-03-25T14:27:53.374Z</time></trkpt><trkpt lat="45.6626679" lon="9.3837421"><ele>231.0</ele><time>2026-03-25T14:27:54.374Z</time></trkpt><trkpt lat="45.6626116" lon="9.3836935"><ele>230.60000000000002</ele><time>2026-03-25T14:27:55.374Z</time></trkpt><trkpt lat="45.662556" lon="9.3836426"><ele>230.20000000000002</ele><time>2026-03-25T14:27:56.374Z</time></trkpt><trkpt lat="45.6625012" lon="9.3835901"><ele>229.79999999999998</ele><time>2026-03-25T14:27:57.373Z</time></trkpt><trkpt lat="45.6623959" lon="9.3834874"><ele>229.39999999999998</ele><time>2026-03-25T14:27:59.374Z</time></trkpt><trkpt lat="45.6623401" lon="9.3834403"><ele>229.0</ele><time>2026-03-25T14:28:00.374Z</time></trkpt><trkpt lat="45.662234" lon="9.3833392"><ele>229.0</ele><time>2026-03-25T14:28:02.374Z</time></trkpt><trkpt lat="45.6621788" lon="9.3832846"><ele>229.0</ele><time>2026-03-25T14:28:03.373Z</time></trkpt><trkpt lat="45.6621234" lon="9.3832266"><ele>229.0</ele><time>2026-03-25T14:28:04.374Z</time></trkpt><trkpt lat="45.6620686" lon="9.3831692"><ele>229.0</ele><time>2026-03-25T14:28:05.374Z</time></trkpt><trkpt lat="45.6620135" lon="9.3831125"><ele>229.0</ele><time>2026-03-25T14:28:06.374Z</time></trkpt><trkpt lat="45.6619576" lon="9.3830553"><ele>229.0</ele><time>2026-03-25T14:28:07.374Z</time></trkpt><trkpt lat="45.6619004" lon="9.3829987"><ele>229.0</ele><time>2026-03-25T14:28:08.373Z</time></trkpt><trkpt lat="45.6618422" lon="9.3829413"><ele>229.0</ele><time>2026-03-25T14:28:09.374Z</time></trkpt><trkpt lat="45.6617837" lon="9.3828808"><ele>229.0</ele><time>2026-03-25T14:28:10.374Z</time></trkpt><trkpt lat="45.6617272" lon="9.3828174"><ele>229.0</ele><time>2026-03-25T14:28:11.374Z</time></trkpt><trkpt lat="45.661672" lon="9.3827579"><ele>229.0</ele><time>2026-03-25T14:28:12.374Z</time></trkpt><trkpt lat="45.6616186" lon="9.3826962"><ele>229.0</ele><time>2026-03-25T14:28:13.374Z</time></trkpt><trkpt lat="45.661564" lon="9.3826318"><ele>229.0</ele><time>2026-03-25T14:28:14.373Z</time></trkpt><trkpt lat="45.6615125" lon="9.3825692"><ele>229.0</ele><time>2026-03-25T14:28:15.374Z</time></trkpt><trkpt lat="45.6614571" lon="9.3825101"><ele>229.0</ele><time>2026-03-25T14:28:16.374Z</time></trkpt><trkpt lat="45.6614098" lon="9.3824464"><ele>229.0</ele><time>2026-03-25T14:28:17.374Z</time></trkpt><trkpt lat="45.661356" lon="9.382388"><ele>229.0</ele><time>2026-03-25T14:28:18.374Z</time></trkpt><trkpt lat="45.6613032" lon="9.3823316"><ele>229.0</ele><time>2026-03-25T14:28:19.374Z</time></trkpt><trkpt lat="45.6612485" lon="9.3822733"><ele>229.0</ele><time>2026-03-25T14:28:20.374Z</time></trkpt><trkpt lat="45.6611953" lon="9.3822126"><ele>229.0</ele><time>2026-03-25T14:28:21.373Z</time></trkpt><trkpt lat="45.6611419" lon="9.3821529"><ele>229.0</ele><time>2026-03-25T14:28:22.374Z</time></trkpt><trkpt lat="45.6610891" lon="9.3820925"><ele>230.0</ele><time>2026-03-25T14:28:23.374Z</time></trkpt><trkpt lat="45.6610377" lon="9.3820322"><ele>231.0</ele><time>2026-03-25T14:28:24.374Z</time></trkpt><trkpt lat="45.6609852" lon="9.3819697"><ele>232.0</ele><time>2026-03-25T14:28:25.374Z</time></trkpt><trkpt lat="45.6609325" lon="9.3819103"><ele>233.0</ele><time>2026-03-25T14:28:26.374Z</time></trkpt><trkpt lat="45.6608797" lon="9.381848"><ele>234.0</ele><time>2026-03-25T14:28:27.374Z</time></trkpt><trkpt lat="45.6608265" lon="9.3817862"><ele>235.0</ele><time>2026-03-25T14:28:28.374Z</time></trkpt><trkpt lat="45.6607733" lon="9.3817234"><ele>236.0</ele><time>2026-03-25T14:28:29.373Z</time></trkpt><trkpt lat="45.6607201" lon="9.3816585"><ele>236.0</ele><time>2026-03-25T14:28:30.374Z</time></trkpt><trkpt lat="45.6606666" lon="9.3815946"><ele>236.0</ele><time>2026-03-25T14:28:31.374Z</time></trkpt><trkpt lat="45.6606168" lon="9.3815329"><ele>236.0</ele><time>2026-03-25T14:28:32.374Z</time></trkpt><trkpt lat="45.6605635" lon="9.3814646"><ele>236.0</ele><time>2026-03-25T14:28:33.374Z</time></trkpt><trkpt lat="45.6605151" lon="9.3813943"><ele>236.0</ele><time>2026-03-25T14:28:34.374Z</time></trkpt><trkpt lat="45.6604599" lon="9.3813291"><ele>236.0</ele><time>2026-03-25T14:28:35.374Z</time></trkpt><trkpt lat="45.6604073" lon="9.3812523"><ele>236.0</ele><time>2026-03-25T14:28:36.374Z</time></trkpt><trkpt lat="45.6603481" lon="9.3811779"><ele>235.50000000000003</ele><time>2026-03-25T14:28:37.373Z</time></trkpt><trkpt lat="45.6602903" lon="9.3811048"><ele>235.0</ele><time>2026-03-25T14:28:38.374Z</time></trkpt><trkpt lat="45.6602336" lon="9.3810258"><ele>234.5</ele><time>2026-03-25T14:28:39.374Z</time></trkpt><trkpt lat="45.6601798" lon="9.3809525"><ele>234.0</ele><time>2026-03-25T14:28:40.374Z</time></trkpt><trkpt lat="45.6601216" lon="9.3808713"><ele>233.50000000000003</ele><time>2026-03-25T14:28:41.374Z</time></trkpt><trkpt lat="45.6600544" lon="9.3807918"><ele>233.0</ele><time>2026-03-25T14:28:42.373Z</time></trkpt><trkpt lat="45.6599937" lon="9.3807143"><ele>233.00000000000003</ele><time>2026-03-25T14:28:43.374Z</time></trkpt><trkpt lat="45.659938" lon="9.380645"><ele>233.0</ele><time>2026-03-25T14:28:44.374Z</time></trkpt><trkpt lat="45.6598795" lon="9.3805695"><ele>233.0</ele><time>2026-03-25T14:28:45.374Z</time></trkpt><trkpt lat="45.6598235" lon="9.3804869"><ele>233.0</ele><time>2026-03-25T14:28:46.374Z</time></trkpt><trkpt lat="45.6597655" lon="9.3804088"><ele>233.00000000000003</ele><time>2026-03-25T14:28:47.374Z</time></trkpt><trkpt lat="45.6597087" lon="9.3803318"><ele>233.0</ele><time>2026-03-25T14:28:48.374Z</time></trkpt><trkpt lat="45.6596523" lon="9.3802528"><ele>232.66666666666669</ele><time>2026-03-25T14:28:49.374Z</time></trkpt><trkpt lat="45.6595965" lon="9.3801682"><ele>232.33333333333334</ele><time>2026-03-25T14:28:50.373Z</time></trkpt><trkpt lat="45.6595404" lon="9.3800881"><ele>232.0</ele><time>2026-03-25T14:28:51.374Z</time></trkpt><trkpt lat="45.6594822" lon="9.3800093"><ele>231.66666666666669</ele><time>2026-03-25T14:28:52.374Z</time></trkpt><trkpt lat="45.6594318" lon="9.3799247"><ele>231.33333333333334</ele><time>2026-03-25T14:28:53.374Z</time></trkpt><trkpt lat="45.6593761" lon="9.3798374"><ele>231.0</ele><time>2026-03-25T14:28:54.373Z</time></trkpt><trkpt lat="45.6593193" lon="9.3797546"><ele>231.66666666666666</ele><time>2026-03-25T14:28:55.374Z</time></trkpt><trkpt lat="45.6592603" lon="9.3796761"><ele>232.33333333333331</ele><time>2026-03-25T14:28:56.373Z</time></trkpt><trkpt lat="45.6592106" lon="9.3795905"><ele>233.0</ele><time>2026-03-25T14:28:57.374Z</time></trkpt><trkpt lat="45.6591588" lon="9.3795058"><ele>233.66666666666666</ele><time>2026-03-25T14:28:58.373Z</time></trkpt><trkpt lat="45.6591052" lon="9.3794201"><ele>234.33333333333331</ele><time>2026-03-25T14:28:59.374Z</time></trkpt><trkpt lat="45.6590505" lon="9.3793419"><ele>235.0</ele><time>2026-03-25T14:29:00.374Z</time></trkpt><trkpt lat="45.6590003" lon="9.379256"><ele>234.99999999999997</ele><time>2026-03-25T14:29:01.374Z</time></trkpt><trkpt lat="45.6589478" lon="9.3791706"><ele>235.0</ele><time>2026-03-25T14:29:02.373Z</time></trkpt><trkpt lat="45.6588944" lon="9.3790857"><ele>235.0</ele><time>2026-03-25T14:29:03.374Z</time></trkpt><trkpt lat="45.6588384" lon="9.3790052"><ele>235.0</ele><time>2026-03-25T14:29:04.374Z</time></trkpt><trkpt lat="45.6587846" lon="9.3789315"><ele>234.99999999999997</ele><time>2026-03-25T14:29:05.374Z</time></trkpt><trkpt lat="45.658732" lon="9.3788494"><ele>235.0</ele><time>2026-03-25T14:29:06.373Z</time></trkpt><trkpt lat="45.6586793" lon="9.37877"><ele>234.49999999999997</ele><time>2026-03-25T14:29:07.374Z</time></trkpt><trkpt lat="45.6586244" lon="9.3786881"><ele>234.0</ele><time>2026-03-25T14:29:08.374Z</time></trkpt><trkpt lat="45.6585746" lon="9.3786017"><ele>233.5</ele><time>2026-03-25T14:29:09.374Z</time></trkpt><trkpt lat="45.6585218" lon="9.3785163"><ele>233.0</ele><time>2026-03-25T14:29:10.374Z</time></trkpt><trkpt lat="45.6584674" lon="9.3784322"><ele>232.49999999999997</ele><time>2026-03-25T14:29:11.374Z</time></trkpt><trkpt lat="45.6584146" lon="9.3783526"><ele>232.0</ele><time>2026-03-25T14:29:12.374Z</time></trkpt><trkpt lat="45.6583633" lon="9.3782785"><ele>231.99999999999997</ele><time>2026-03-25T14:29:13.374Z</time></trkpt><trkpt lat="45.6583107" lon="9.3782027"><ele>232.0</ele><time>2026-03-25T14:29:14.373Z</time></trkpt><trkpt lat="45.658257" lon="9.3781297"><ele>232.0</ele><time>2026-03-25T14:29:15.374Z</time></trkpt><trkpt lat="45.6582072" lon="9.3780457"><ele>232.0</ele><time>2026-03-25T14:29:16.374Z</time></trkpt><trkpt lat="45.6581537" lon="9.3779628"><ele>231.99999999999997</ele><time>2026-03-25T14:29:17.374Z</time></trkpt><trkpt lat="45.6581037" lon="9.3778771"><ele>232.0</ele><time>2026-03-25T14:29:18.374Z</time></trkpt><trkpt lat="45.6580549" lon="9.3777911"><ele>232.83333333333331</ele><time>2026-03-25T14:29:19.374Z</time></trkpt><trkpt lat="45.6580069" lon="9.3777091"><ele>233.66666666666666</ele><time>2026-03-25T14:29:20.374Z</time></trkpt><trkpt lat="45.6579587" lon="9.3776221"><ele>234.5</ele><time>2026-03-25T14:29:21.374Z</time></trkpt><trkpt lat="45.6579126" lon="9.3775379"><ele>235.33333333333331</ele><time>2026-03-25T14:29:22.374Z</time></trkpt><trkpt lat="45.6578677" lon="9.3774533"><ele>236.16666666666666</ele><time>2026-03-25T14:29:23.374Z</time></trkpt><trkpt lat="45.6578197" lon="9.3773701"><ele>237.0</ele><time>2026-03-25T14:29:24.373Z</time></trkpt><trkpt lat="45.6577678" lon="9.3772873"><ele>235.33333333333334</ele><time>2026-03-25T14:29:25.374Z</time></trkpt><trkpt lat="45.657719" lon="9.3772017"><ele>233.66666666666669</ele><time>2026-03-25T14:29:26.374Z</time></trkpt><trkpt lat="45.6576776" lon="9.3771139"><ele>232.0</ele><time>2026-03-25T14:29:27.373Z</time></trkpt><trkpt lat="45.6576301" lon="9.3770286"><ele>230.33333333333334</ele><time>2026-03-25T14:29:28.374Z</time></trkpt><trkpt lat="45.6575814" lon="9.3769434"><ele>228.66666666666669</ele><time>2026-03-25T14:29:29.373Z</time></trkpt><trkpt lat="45.6575332" lon="9.3768556"><ele>227.0</ele><time>2026-03-25T14:29:30.373Z</time></trkpt><trkpt lat="45.6574895" lon="9.3767693"><ele>226.85714285714286</ele><time>2026-03-25T14:29:31.374Z</time></trkpt><trkpt lat="45.6574461" lon="9.3766818"><ele>226.71428571428572</ele><time>2026-03-25T14:29:32.374Z</time></trkpt><trkpt lat="45.6574029" lon="9.3765968"><ele>226.57142857142858</ele><time>2026-03-25T14:29:33.374Z</time></trkpt><trkpt lat="45.6573532" lon="9.376519"><ele>226.42857142857144</ele><time>2026-03-25T14:29:34.374Z</time></trkpt><trkpt lat="45.6572994" lon="9.3764446"><ele>226.28571428571428</ele><time>2026-03-25T14:29:35.374Z</time></trkpt><trkpt lat="45.6572447" lon="9.3763709"><ele>226.14285714285717</ele><time>2026-03-25T14:29:36.374Z</time></trkpt><trkpt lat="45.6571891" lon="9.3762943"><ele>226.0</ele><time>2026-03-25T14:29:37.374Z</time></trkpt><trkpt lat="45.6571317" lon="9.3762224"><ele>225.99999999999997</ele><time>2026-03-25T14:29:38.374Z</time></trkpt><trkpt lat="45.6570725" lon="9.3761535"><ele>226.0</ele><time>2026-03-25T14:29:39.373Z</time></trkpt><trkpt lat="45.6570133" lon="9.3760875"><ele>226.0</ele><time>2026-03-25T14:29:40.374Z</time></trkpt><trkpt lat="45.6569528" lon="9.3760198"><ele>226.0</ele><time>2026-03-25T14:29:41.374Z</time></trkpt><trkpt lat="45.6568923" lon="9.375949"><ele>225.99999999999997</ele><time>2026-03-25T14:29:42.374Z</time></trkpt><trkpt lat="45.656834" lon="9.3758767"><ele>226.0</ele><time>2026-03-25T14:29:43.373Z</time></trkpt><trkpt lat="45.6567769" lon="9.3758046"><ele>225.99999999999997</ele><time>2026-03-25T14:29:44.374Z</time></trkpt><trkpt lat="45.6567231" lon="9.3757279"><ele>226.0</ele><time>2026-03-25T14:29:45.374Z</time></trkpt><trkpt lat="45.6566719" lon="9.3756509"><ele>226.0</ele><time>2026-03-25T14:29:46.373Z</time></trkpt><trkpt lat="45.6566232" lon="9.37557"><ele>226.0</ele><time>2026-03-25T14:29:47.374Z</time></trkpt><trkpt lat="45.6565753" lon="9.3754849"><ele>225.99999999999997</ele><time>2026-03-25T14:29:48.374Z</time></trkpt><trkpt lat="45.6565368" lon="9.3753921"><ele>226.0</ele><time>2026-03-25T14:29:49.374Z</time></trkpt><trkpt lat="45.6564983" lon="9.3753019"><ele>226.83333333333331</ele><time>2026-03-25T14:29:50.374Z</time></trkpt><trkpt lat="45.6564582" lon="9.3752085"><ele>227.66666666666666</ele><time>2026-03-25T14:29:51.374Z</time></trkpt><trkpt lat="45.6564145" lon="9.3751177"><ele>228.5</ele><time>2026-03-25T14:29:52.374Z</time></trkpt><trkpt lat="45.656373" lon="9.3750248"><ele>229.33333333333331</ele><time>2026-03-25T14:29:53.374Z</time></trkpt><trkpt lat="45.6563358" lon="9.3749327"><ele>230.16666666666666</ele><time>2026-03-25T14:29:54.374Z</time></trkpt><trkpt lat="45.6562967" lon="9.3748388"><ele>231.0</ele><time>2026-03-25T14:29:55.374Z</time></trkpt><trkpt lat="45.6562608" lon="9.3747459"><ele>231.66666666666666</ele><time>2026-03-25T14:29:56.373Z</time></trkpt><trkpt lat="45.6562243" lon="9.3746529"><ele>232.33333333333331</ele><time>2026-03-25T14:29:57.373Z</time></trkpt><trkpt lat="45.6561893" lon="9.3745608"><ele>233.0</ele><time>2026-03-25T14:29:58.374Z</time></trkpt><trkpt lat="45.6561552" lon="9.3744634"><ele>233.66666666666666</ele><time>2026-03-25T14:29:59.373Z</time></trkpt><trkpt lat="45.656118" lon="9.3743674"><ele>234.33333333333331</ele><time>2026-03-25T14:30:00.374Z</time></trkpt><trkpt lat="45.6560793" lon="9.3742723"><ele>235.0</ele><time>2026-03-25T14:30:01.374Z</time></trkpt><trkpt lat="45.6560393" lon="9.3741824"><ele>233.66666666666666</ele><time>2026-03-25T14:30:02.374Z</time></trkpt><trkpt lat="45.6560013" lon="9.3740879"><ele>232.33333333333331</ele><time>2026-03-25T14:30:03.374Z</time></trkpt><trkpt lat="45.6559625" lon="9.3739946"><ele>231.0</ele><time>2026-03-25T14:30:04.374Z</time></trkpt><trkpt lat="45.6559268" lon="9.3738973"><ele>229.66666666666669</ele><time>2026-03-25T14:30:05.374Z</time></trkpt><trkpt lat="45.655891" lon="9.3738019"><ele>228.33333333333334</ele><time>2026-03-25T14:30:06.373Z</time></trkpt><trkpt lat="45.6558543" lon="9.3737079"><ele>227.0</ele><time>2026-03-25T14:30:07.373Z</time></trkpt><trkpt lat="45.6558203" lon="9.3736145"><ele>227.00000000000003</ele><time>2026-03-25T14:30:08.373Z</time></trkpt><trkpt lat="45.6557825" lon="9.3735203"><ele>227.0</ele><time>2026-03-25T14:30:09.374Z</time></trkpt><trkpt lat="45.6557462" lon="9.3734247"><ele>227.0</ele><time>2026-03-25T14:30:10.373Z</time></trkpt><trkpt lat="45.6557099" lon="9.3733293"><ele>227.0</ele><time>2026-03-25T14:30:11.374Z</time></trkpt><trkpt lat="45.6556731" lon="9.3732365"><ele>227.00000000000003</ele><time>2026-03-25T14:30:12.374Z</time></trkpt><trkpt lat="45.6556392" lon="9.373143"><ele>227.0</ele><time>2026-03-25T14:30:13.374Z</time></trkpt><trkpt lat="45.6556058" lon="9.3730458"><ele>227.57142857142858</ele><time>2026-03-25T14:30:14.374Z</time></trkpt><trkpt lat="45.6555752" lon="9.3729489"><ele>228.14285714285717</ele><time>2026-03-25T14:30:15.374Z</time></trkpt><trkpt lat="45.6555439" lon="9.3728548"><ele>228.71428571428572</ele><time>2026-03-25T14:30:16.373Z</time></trkpt><trkpt lat="45.6555076" lon="9.3727653"><ele>229.28571428571428</ele><time>2026-03-25T14:30:17.374Z</time></trkpt><trkpt lat="45.6554729" lon="9.3726729"><ele>229.85714285714286</ele><time>2026-03-25T14:30:18.374Z</time></trkpt><trkpt lat="45.655438" lon="9.3725775"><ele>230.42857142857144</ele><time>2026-03-25T14:30:19.374Z</time></trkpt><trkpt lat="45.655406" lon="9.3724791"><ele>231.0</ele><time>2026-03-25T14:30:20.374Z</time></trkpt><trkpt lat="45.6553726" lon="9.37238"><ele>231.0</ele><time>2026-03-25T14:30:21.374Z</time></trkpt><trkpt lat="45.6553373" lon="9.3722775"><ele>231.0</ele><time>2026-03-25T14:30:22.373Z</time></trkpt><trkpt lat="45.6552998" lon="9.3721768"><ele>231.0</ele><time>2026-03-25T14:30:23.373Z</time></trkpt><trkpt lat="45.655263" lon="9.3720789"><ele>231.0</ele><time>2026-03-25T14:30:24.374Z</time></trkpt><trkpt lat="45.6552262" lon="9.3719783"><ele>231.0</ele><time>2026-03-25T14:30:25.374Z</time></trkpt><trkpt lat="45.6551875" lon="9.3718804"><ele>231.0</ele><time>2026-03-25T14:30:26.374Z</time></trkpt><trkpt lat="45.6551521" lon="9.3717797"><ele>230.33333333333334</ele><time>2026-03-25T14:30:27.374Z</time></trkpt><trkpt lat="45.6551145" lon="9.3716783"><ele>229.66666666666669</ele><time>2026-03-25T14:30:28.373Z</time></trkpt><trkpt lat="45.6550762" lon="9.371575"><ele>229.0</ele><time>2026-03-25T14:30:29.374Z</time></trkpt><trkpt lat="45.655038" lon="9.3714695"><ele>228.33333333333334</ele><time>2026-03-25T14:30:30.374Z</time></trkpt><trkpt lat="45.6550006" lon="9.3713606"><ele>227.66666666666669</ele><time>2026-03-25T14:30:31.374Z</time></trkpt><trkpt lat="45.6549624" lon="9.3712544"><ele>227.0</ele><time>2026-03-25T14:30:32.374Z</time></trkpt><trkpt lat="45.6549221" lon="9.3711458"><ele>227.00000000000003</ele><time>2026-03-25T14:30:33.374Z</time></trkpt><trkpt lat="45.6548802" lon="9.3710393"><ele>227.0</ele><time>2026-03-25T14:30:34.374Z</time></trkpt><trkpt lat="45.6548403" lon="9.370932"><ele>227.0</ele><time>2026-03-25T14:30:35.374Z</time></trkpt><trkpt lat="45.6548001" lon="9.3708297"><ele>227.0</ele><time>2026-03-25T14:30:36.374Z</time></trkpt><trkpt lat="45.6547674" lon="9.3707257"><ele>227.00000000000003</ele><time>2026-03-25T14:30:37.374Z</time></trkpt><trkpt lat="45.6547268" lon="9.370623"><ele>227.0</ele><time>2026-03-25T14:30:38.374Z</time></trkpt><trkpt lat="45.6546805" lon="9.3705231"><ele>227.83333333333334</ele><time>2026-03-25T14:30:39.373Z</time></trkpt><trkpt lat="45.6546318" lon="9.3704261"><ele>228.66666666666669</ele><time>2026-03-25T14:30:40.374Z</time></trkpt><trkpt lat="45.6545816" lon="9.3703311"><ele>229.5</ele><time>2026-03-25T14:30:41.373Z</time></trkpt><trkpt lat="45.6545225" lon="9.3702473"><ele>230.33333333333331</ele><time>2026-03-25T14:30:42.374Z</time></trkpt><trkpt lat="45.6544566" lon="9.3701707"><ele>231.16666666666666</ele><time>2026-03-25T14:30:43.374Z</time></trkpt><trkpt lat="45.6543905" lon="9.3701116"><ele>232.0</ele><time>2026-03-25T14:30:44.374Z</time></trkpt><trkpt lat="45.654322" lon="9.370054"><ele>229.99999999999997</ele><time>2026-03-25T14:30:45.373Z</time></trkpt><trkpt lat="45.6542511" lon="9.3700042"><ele>228.0</ele><time>2026-03-25T14:30:46.374Z</time></trkpt><trkpt lat="45.6541832" lon="9.3699585"><ele>226.0</ele><time>2026-03-25T14:30:47.374Z</time></trkpt><trkpt lat="45.6541081" lon="9.3699175"><ele>224.0</ele><time>2026-03-25T14:30:48.373Z</time></trkpt><trkpt lat="45.654033" lon="9.3698767"><ele>221.99999999999997</ele><time>2026-03-25T14:30:49.374Z</time></trkpt><trkpt lat="45.653957" lon="9.3698401"><ele>220.0</ele><time>2026-03-25T14:30:50.374Z</time></trkpt><trkpt lat="45.6538786" lon="9.3698063"><ele>219.99999999999997</ele><time>2026-03-25T14:30:51.374Z</time></trkpt><trkpt lat="45.6537978" lon="9.3697695"><ele>220.0</ele><time>2026-03-25T14:30:52.374Z</time></trkpt><trkpt lat="45.6537173" lon="9.3697314"><ele>220.0</ele><time>2026-03-25T14:30:53.374Z</time></trkpt><trkpt lat="45.6536321" lon="9.3696877"><ele>220.0</ele><time>2026-03-25T14:30:54.374Z</time></trkpt><trkpt lat="45.6535457" lon="9.3696473"><ele>219.99999999999997</ele><time>2026-03-25T14:30:55.374Z</time></trkpt><trkpt lat="45.6534608" lon="9.369601"><ele>220.0</ele><time>2026-03-25T14:30:56.374Z</time></trkpt><trkpt lat="45.6533744" lon="9.3695601"><ele>219.6</ele><time>2026-03-25T14:30:57.373Z</time></trkpt><trkpt lat="45.6532857" lon="9.3695155"><ele>219.2</ele><time>2026-03-25T14:30:58.374Z</time></trkpt><trkpt lat="45.6531945" lon="9.369468"><ele>218.8</ele><time>2026-03-25T14:30:59.374Z</time></trkpt><trkpt lat="45.6530989" lon="9.3694195"><ele>218.4</ele><time>2026-03-25T14:31:00.374Z</time></trkpt><trkpt lat="45.6530046" lon="9.3693744"><ele>218.0</ele><time>2026-03-25T14:31:01.374Z</time></trkpt><trkpt lat="45.6529125" lon="9.3693253"><ele>218.0</ele><time>2026-03-25T14:31:02.374Z</time></trkpt><trkpt lat="45.6528144" lon="9.3692794"><ele>218.0</ele><time>2026-03-25T14:31:03.374Z</time></trkpt><trkpt lat="45.6527193" lon="9.3692328"><ele>218.0</ele><time>2026-03-25T14:31:04.373Z</time></trkpt><trkpt lat="45.6526236" lon="9.3691891"><ele>218.0</ele><time>2026-03-25T14:31:05.374Z</time></trkpt><trkpt lat="45.6525272" lon="9.3691467"><ele>218.0</ele><time>2026-03-25T14:31:06.374Z</time></trkpt><trkpt lat="45.6524295" lon="9.3691075"><ele>218.4</ele><time>2026-03-25T14:31:07.374Z</time></trkpt><trkpt lat="45.6523398" lon="9.3690619"><ele>218.8</ele><time>2026-03-25T14:31:08.374Z</time></trkpt><trkpt lat="45.6522482" lon="9.3690214"><ele>219.2</ele><time>2026-03-25T14:31:09.374Z</time></trkpt><trkpt lat="45.6521571" lon="9.3689834"><ele>219.6</ele><time>2026-03-25T14:31:10.374Z</time></trkpt><trkpt lat="45.6520674" lon="9.3689514"><ele>220.0</ele><time>2026-03-25T14:31:11.374Z</time></trkpt><trkpt lat="45.651978" lon="9.3689199"><ele>220.0</ele><time>2026-03-25T14:31:12.373Z</time></trkpt><trkpt lat="45.6518904" lon="9.3688861"><ele>220.0</ele><time>2026-03-25T14:31:13.374Z</time></trkpt><trkpt lat="45.6518016" lon="9.3688556"><ele>220.0</ele><time>2026-03-25T14:31:14.374Z</time></trkpt><trkpt lat="45.6517139" lon="9.3688284"><ele>220.0</ele><time>2026-03-25T14:31:15.374Z</time></trkpt><trkpt lat="45.6516254" lon="9.3687928"><ele>220.0</ele><time>2026-03-25T14:31:16.374Z</time></trkpt><trkpt lat="45.6515409" lon="9.3687663"><ele>219.99999999999997</ele><time>2026-03-25T14:31:17.374Z</time></trkpt><trkpt lat="45.6514573" lon="9.3687356"><ele>220.0</ele><time>2026-03-25T14:31:18.374Z</time></trkpt><trkpt lat="45.6513739" lon="9.368697"><ele>220.0</ele><time>2026-03-25T14:31:19.374Z</time></trkpt><trkpt lat="45.6512878" lon="9.3686627"><ele>220.0</ele><time>2026-03-25T14:31:20.374Z</time></trkpt><trkpt lat="45.651203" lon="9.3686357"><ele>219.99999999999997</ele><time>2026-03-25T14:31:21.374Z</time></trkpt><trkpt lat="45.6511201" lon="9.3686072"><ele>220.0</ele><time>2026-03-25T14:31:22.374Z</time></trkpt><trkpt lat="45.6510365" lon="9.3685767"><ele>219.99999999999997</ele><time>2026-03-25T14:31:23.374Z</time></trkpt><trkpt lat="45.650948" lon="9.3685458"><ele>220.0</ele><time>2026-03-25T14:31:24.374Z</time></trkpt><trkpt lat="45.6508656" lon="9.3685119"><ele>220.0</ele><time>2026-03-25T14:31:25.373Z</time></trkpt><trkpt lat="45.6507831" lon="9.3684844"><ele>220.0</ele><time>2026-03-25T14:31:26.374Z</time></trkpt><trkpt lat="45.6507121" lon="9.3684519"><ele>219.99999999999997</ele><time>2026-03-25T14:31:27.374Z</time></trkpt><trkpt lat="45.6506351" lon="9.368423"><ele>220.0</ele><time>2026-03-25T14:31:28.374Z</time></trkpt><trkpt lat="45.6505485" lon="9.368395"><ele>219.99999999999997</ele><time>2026-03-25T14:31:29.374Z</time></trkpt><trkpt lat="45.6504694" lon="9.3683621"><ele>220.0</ele><time>2026-03-25T14:31:30.374Z</time></trkpt><trkpt lat="45.6503956" lon="9.368328"><ele>220.0</ele><time>2026-03-25T14:31:31.374Z</time></trkpt><trkpt lat="45.650323" lon="9.3683025"><ele>220.0</ele><time>2026-03-25T14:31:32.374Z</time></trkpt><trkpt lat="45.6502415" lon="9.3682714"><ele>219.99999999999997</ele><time>2026-03-25T14:31:33.373Z</time></trkpt><trkpt lat="45.6501602" lon="9.368256"><ele>220.0</ele><time>2026-03-25T14:31:34.374Z</time></trkpt><trkpt lat="45.6500761" lon="9.3682288"><ele>219.49999999999997</ele><time>2026-03-25T14:31:35.373Z</time></trkpt><trkpt lat="45.649995" lon="9.3682048"><ele>219.0</ele><time>2026-03-25T14:31:36.374Z</time></trkpt><trkpt lat="45.6499136" lon="9.3681728"><ele>218.5</ele><time>2026-03-25T14:31:37.373Z</time></trkpt><trkpt lat="45.6498312" lon="9.3681434"><ele>218.0</ele><time>2026-03-25T14:31:38.374Z</time></trkpt><trkpt lat="45.649754" lon="9.3681085"><ele>217.49999999999997</ele><time>2026-03-25T14:31:39.374Z</time></trkpt><trkpt lat="45.6496718" lon="9.3680815"><ele>217.0</ele><time>2026-03-25T14:31:40.373Z</time></trkpt><trkpt lat="45.6495911" lon="9.3680546"><ele>216.83333333333331</ele><time>2026-03-25T14:31:41.373Z</time></trkpt><trkpt lat="45.6495153" lon="9.3680235"><ele>216.66666666666666</ele><time>2026-03-25T14:31:42.374Z</time></trkpt><trkpt lat="45.6494358" lon="9.3679945"><ele>216.5</ele><time>2026-03-25T14:31:43.374Z</time></trkpt><trkpt lat="45.6493564" lon="9.3679642"><ele>216.33333333333331</ele><time>2026-03-25T14:31:44.374Z</time></trkpt><trkpt lat="45.6492764" lon="9.3679364"><ele>216.16666666666666</ele><time>2026-03-25T14:31:45.373Z</time></trkpt><trkpt lat="45.6491963" lon="9.3679103"><ele>216.0</ele><time>2026-03-25T14:31:46.374Z</time></trkpt><trkpt lat="45.6491154" lon="9.3678861"><ele>216.0</ele><time>2026-03-25T14:31:47.373Z</time></trkpt><trkpt lat="45.6490325" lon="9.3678581"><ele>216.0</ele><time>2026-03-25T14:31:48.374Z</time></trkpt><trkpt lat="45.6489517" lon="9.3678305"><ele>216.0</ele><time>2026-03-25T14:31:49.374Z</time></trkpt><trkpt lat="45.6488722" lon="9.367804"><ele>216.0</ele><time>2026-03-25T14:31:50.373Z</time></trkpt><trkpt lat="45.6487901" lon="9.3677783"><ele>216.0</ele><time>2026-03-25T14:31:51.374Z</time></trkpt><trkpt lat="45.6487075" lon="9.3677501"><ele>216.0</ele><time>2026-03-25T14:31:52.374Z</time></trkpt><trkpt lat="45.6486244" lon="9.3677224"><ele>216.33333333333334</ele><time>2026-03-25T14:31:53.374Z</time></trkpt><trkpt lat="45.6485404" lon="9.3676961"><ele>216.66666666666669</ele><time>2026-03-25T14:31:54.373Z</time></trkpt><trkpt lat="45.6484568" lon="9.3676671"><ele>217.0</ele><time>2026-03-25T14:31:55.374Z</time></trkpt><trkpt lat="45.6483712" lon="9.3676363"><ele>217.33333333333334</ele><time>2026-03-25T14:31:56.374Z</time></trkpt><trkpt lat="45.6482893" lon="9.3676"><ele>217.66666666666669</ele><time>2026-03-25T14:31:57.374Z</time></trkpt><trkpt lat="45.648205" lon="9.3675674"><ele>218.0</ele><time>2026-03-25T14:31:58.374Z</time></trkpt><trkpt lat="45.6481194" lon="9.3675329"><ele>218.0</ele><time>2026-03-25T14:31:59.373Z</time></trkpt><trkpt lat="45.6480309" lon="9.3675022"><ele>218.0</ele><time>2026-03-25T14:32:00.373Z</time></trkpt><trkpt lat="45.6479444" lon="9.3674747"><ele>218.0</ele><time>2026-03-25T14:32:01.374Z</time></trkpt><trkpt lat="45.6478572" lon="9.3674407"><ele>218.0</ele><time>2026-03-25T14:32:02.373Z</time></trkpt><trkpt lat="45.6477691" lon="9.3674064"><ele>218.0</ele><time>2026-03-25T14:32:03.373Z</time></trkpt><trkpt lat="45.6476819" lon="9.3673755"><ele>218.2</ele><time>2026-03-25T14:32:04.374Z</time></trkpt><trkpt lat="45.6475943" lon="9.367347"><ele>218.4</ele><time>2026-03-25T14:32:05.374Z</time></trkpt><trkpt lat="45.6475058" lon="9.3673168"><ele>218.59999999999997</ele><time>2026-03-25T14:32:06.374Z</time></trkpt><trkpt lat="45.6474143" lon="9.3672857"><ele>218.79999999999998</ele><time>2026-03-25T14:32:07.374Z</time></trkpt><trkpt lat="45.6473257" lon="9.3672488"><ele>219.0</ele><time>2026-03-25T14:32:08.374Z</time></trkpt><trkpt lat="45.6472401" lon="9.3672118"><ele>218.83333333333334</ele><time>2026-03-25T14:32:09.374Z</time></trkpt><trkpt lat="45.6471576" lon="9.3671745"><ele>218.66666666666669</ele><time>2026-03-25T14:32:10.374Z</time></trkpt><trkpt lat="45.6470705" lon="9.3671428"><ele>218.5</ele><time>2026-03-25T14:32:11.374Z</time></trkpt><trkpt lat="45.6469814" lon="9.367113"><ele>218.33333333333334</ele><time>2026-03-25T14:32:12.374Z</time></trkpt><trkpt lat="45.6468925" lon="9.3670836"><ele>218.16666666666669</ele><time>2026-03-25T14:32:13.373Z</time></trkpt><trkpt lat="45.6468069" lon="9.367047"><ele>218.0</ele><time>2026-03-25T14:32:14.374Z</time></trkpt><trkpt lat="45.6467187" lon="9.3670158"><ele>218.33333333333334</ele><time>2026-03-25T14:32:15.373Z</time></trkpt><trkpt lat="45.6466261" lon="9.3669881"><ele>218.66666666666669</ele><time>2026-03-25T14:32:16.373Z</time></trkpt><trkpt lat="45.6465403" lon="9.3669585"><ele>219.0</ele><time>2026-03-25T14:32:17.374Z</time></trkpt><trkpt lat="45.6464546" lon="9.3669229"><ele>219.33333333333331</ele><time>2026-03-25T14:32:18.374Z</time></trkpt><trkpt lat="45.6463707" lon="9.3668879"><ele>219.66666666666666</ele><time>2026-03-25T14:32:19.373Z</time></trkpt><trkpt lat="45.6462846" lon="9.3668595"><ele>220.0</ele><time>2026-03-25T14:32:20.373Z</time></trkpt><trkpt lat="45.6462011" lon="9.3668313"><ele>219.16666666666666</ele><time>2026-03-25T14:32:21.373Z</time></trkpt><trkpt lat="45.6461156" lon="9.3668013"><ele>218.33333333333331</ele><time>2026-03-25T14:32:22.374Z</time></trkpt><trkpt lat="45.6460328" lon="9.3667729"><ele>217.5</ele><time>2026-03-25T14:32:23.374Z</time></trkpt><trkpt lat="45.6459472" lon="9.3667449"><ele>216.66666666666669</ele><time>2026-03-25T14:32:24.373Z</time></trkpt><trkpt lat="45.6458623" lon="9.3667205"><ele>215.83333333333334</ele><time>2026-03-25T14:32:25.374Z</time></trkpt><trkpt lat="45.6457782" lon="9.3666923"><ele>215.0</ele><time>2026-03-25T14:32:26.374Z</time></trkpt><trkpt lat="45.6456923" lon="9.3666624"><ele>215.00000000000003</ele><time>2026-03-25T14:32:27.374Z</time></trkpt><trkpt lat="45.6456079" lon="9.3666322"><ele>215.0</ele><time>2026-03-25T14:32:28.374Z</time></trkpt><trkpt lat="45.645525" lon="9.3666019"><ele>215.0</ele><time>2026-03-25T14:32:29.374Z</time></trkpt><trkpt lat="45.6454417" lon="9.3665704"><ele>215.0</ele><time>2026-03-25T14:32:30.374Z</time></trkpt><trkpt lat="45.6453567" lon="9.3665412"><ele>215.00000000000003</ele><time>2026-03-25T14:32:31.374Z</time></trkpt><trkpt lat="45.6452735" lon="9.3665048"><ele>215.0</ele><time>2026-03-25T14:32:32.373Z</time></trkpt><trkpt lat="45.6451922" lon="9.3664684"><ele>214.83333333333334</ele><time>2026-03-25T14:32:33.373Z</time></trkpt><trkpt lat="45.6451083" lon="9.3664377"><ele>214.66666666666669</ele><time>2026-03-25T14:32:34.374Z</time></trkpt><trkpt lat="45.6450232" lon="9.3664009"><ele>214.5</ele><time>2026-03-25T14:32:35.374Z</time></trkpt><trkpt lat="45.6449386" lon="9.3663676"><ele>214.33333333333331</ele><time>2026-03-25T14:32:36.374Z</time></trkpt><trkpt lat="45.6448536" lon="9.3663299"><ele>214.16666666666666</ele><time>2026-03-25T14:32:37.374Z</time></trkpt><trkpt lat="45.6447707" lon="9.3662939"><ele>214.0</ele><time>2026-03-25T14:32:38.374Z</time></trkpt><trkpt lat="45.6446858" lon="9.3662564"><ele>214.49999999999997</ele><time>2026-03-25T14:32:39.374Z</time></trkpt><trkpt lat="45.6446012" lon="9.3662216"><ele>215.0</ele><time>2026-03-25T14:32:40.374Z</time></trkpt><trkpt lat="45.6445167" lon="9.3661868"><ele>215.5</ele><time>2026-03-25T14:32:41.374Z</time></trkpt><trkpt lat="45.6444327" lon="9.366151"><ele>216.0</ele><time>2026-03-25T14:32:42.374Z</time></trkpt><trkpt lat="45.644348" lon="9.3661153"><ele>216.49999999999997</ele><time>2026-03-25T14:32:43.374Z</time></trkpt><trkpt lat="45.6442629" lon="9.3660819"><ele>217.0</ele><time>2026-03-25T14:32:44.374Z</time></trkpt><trkpt lat="45.6441792" lon="9.3660501"><ele>217.33333333333331</ele><time>2026-03-25T14:32:45.373Z</time></trkpt><trkpt lat="45.6440947" lon="9.3660196"><ele>217.66666666666666</ele><time>2026-03-25T14:32:46.373Z</time></trkpt><trkpt lat="45.6440137" lon="9.3659926"><ele>218.0</ele><time>2026-03-25T14:32:47.373Z</time></trkpt><trkpt lat="45.6439356" lon="9.3659621"><ele>218.33333333333331</ele><time>2026-03-25T14:32:48.374Z</time></trkpt><trkpt lat="45.6438597" lon="9.3659325"><ele>218.66666666666666</ele><time>2026-03-25T14:32:49.374Z</time></trkpt><trkpt lat="45.643783" lon="9.3659025"><ele>219.0</ele><time>2026-03-25T14:32:50.374Z</time></trkpt><trkpt lat="45.6437122" lon="9.3658683"><ele>219.0</ele><time>2026-03-25T14:32:51.374Z</time></trkpt><trkpt lat="45.6436445" lon="9.3658272"><ele>219.0</ele><time>2026-03-25T14:32:52.374Z</time></trkpt><trkpt lat="45.6435876" lon="9.3657691"><ele>219.0</ele><time>2026-03-25T14:32:53.374Z</time></trkpt><trkpt lat="45.6435415" lon="9.3656998"><ele>219.0</ele><time>2026-03-25T14:32:54.374Z</time></trkpt><trkpt lat="45.6435087" lon="9.3656211"><ele>219.0</ele><time>2026-03-25T14:32:55.373Z</time></trkpt><trkpt lat="45.6434751" lon="9.3654441"><ele>219.0</ele><time>2026-03-25T14:32:57.374Z</time></trkpt><trkpt lat="45.6434686" lon="9.3653498"><ele>218.57142857142858</ele><time>2026-03-25T14:32:58.373Z</time></trkpt><trkpt lat="45.643473" lon="9.3652473"><ele>218.14285714285714</ele><time>2026-03-25T14:32:59.373Z</time></trkpt><trkpt lat="45.6434714" lon="9.3651453"><ele>217.71428571428572</ele><time>2026-03-25T14:33:00.373Z</time></trkpt><trkpt lat="45.6434694" lon="9.3650445"><ele>217.28571428571428</ele><time>2026-03-25T14:33:01.374Z</time></trkpt><trkpt lat="45.643467" lon="9.3649406"><ele>216.85714285714283</ele><time>2026-03-25T14:33:02.373Z</time></trkpt><trkpt lat="45.643463" lon="9.3648347"><ele>216.42857142857142</ele><time>2026-03-25T14:33:03.374Z</time></trkpt><trkpt lat="45.6434584" lon="9.364727"><ele>216.0</ele><time>2026-03-25T14:33:04.374Z</time></trkpt><trkpt lat="45.6434573" lon="9.3646203"><ele>216.0</ele><time>2026-03-25T14:33:05.373Z</time></trkpt><trkpt lat="45.6434614" lon="9.3645124"><ele>216.0</ele><time>2026-03-25T14:33:06.374Z</time></trkpt><trkpt lat="45.6434614" lon="9.3644215"><ele>216.0</ele><time>2026-03-25T14:33:07.374Z</time></trkpt><trkpt lat="45.6434616" lon="9.3642714"><ele>216.0</ele><time>2026-03-25T14:33:09.374Z</time></trkpt><trkpt lat="45.643473" lon="9.3641574"><ele>216.0</ele><time>2026-03-25T14:33:11.374Z</time></trkpt><trkpt lat="45.6435267" lon="9.3640477"><ele>216.0</ele><time>2026-03-25T14:33:13.374Z</time></trkpt><trkpt lat="45.6435087" lon="9.3639012"><ele>216.0</ele><time>2026-03-25T14:33:15.373Z</time></trkpt><trkpt lat="45.6434058" lon="9.3638203"><ele>216.00000000000003</ele><time>2026-03-25T14:33:17.374Z</time></trkpt><trkpt lat="45.6432918" lon="9.3638871"><ele>216.00000000000003</ele><time>2026-03-25T14:33:19.374Z</time></trkpt><trkpt lat="45.6432337" lon="9.3639238"><ele>216.0</ele><time>2026-03-25T14:33:20.374Z</time></trkpt><trkpt lat="45.6431083" lon="9.3639186"><ele>216.0</ele><time>2026-03-25T14:33:22.374Z</time></trkpt><trkpt lat="45.6430424" lon="9.3638873"><ele>215.71428571428572</ele><time>2026-03-25T14:33:23.373Z</time></trkpt><trkpt lat="45.6429799" lon="9.3638538"><ele>215.42857142857142</ele><time>2026-03-25T14:33:24.374Z</time></trkpt><trkpt lat="45.642914" lon="9.3638218"><ele>215.14285714285717</ele><time>2026-03-25T14:33:25.374Z</time></trkpt><trkpt lat="45.6428499" lon="9.3637826"><ele>214.85714285714286</ele><time>2026-03-25T14:33:26.374Z</time></trkpt><trkpt lat="45.6427863" lon="9.3637382"><ele>214.57142857142858</ele><time>2026-03-25T14:33:27.374Z</time></trkpt><trkpt lat="45.642723" lon="9.3636894"><ele>214.2857142857143</ele><time>2026-03-25T14:33:28.374Z</time></trkpt><trkpt lat="45.6426611" lon="9.3636354"><ele>214.0</ele><time>2026-03-25T14:33:29.374Z</time></trkpt><trkpt lat="45.6426045" lon="9.3635763"><ele>214.00000000000003</ele><time>2026-03-25T14:33:30.374Z</time></trkpt><trkpt lat="45.6425511" lon="9.3635118"><ele>214.0</ele><time>2026-03-25T14:33:31.373Z</time></trkpt><trkpt lat="45.6424955" lon="9.3634494"><ele>214.0</ele><time>2026-03-25T14:33:32.374Z</time></trkpt><trkpt lat="45.6424413" lon="9.3633854"><ele>214.0</ele><time>2026-03-25T14:33:33.373Z</time></trkpt><trkpt lat="45.6423887" lon="9.3633198"><ele>214.0</ele><time>2026-03-25T14:33:34.374Z</time></trkpt><trkpt lat="45.6423372" lon="9.3632494"><ele>214.00000000000003</ele><time>2026-03-25T14:33:35.374Z</time></trkpt><trkpt lat="45.642293" lon="9.3631717"><ele>214.0</ele><time>2026-03-25T14:33:36.373Z</time></trkpt><trkpt lat="45.6422511" lon="9.3630861"><ele>213.57142857142858</ele><time>2026-03-25T14:33:37.373Z</time></trkpt><trkpt lat="45.6422147" lon="9.3629966"><ele>213.14285714285714</ele><time>2026-03-25T14:33:38.374Z</time></trkpt><trkpt lat="45.6421756" lon="9.3629066"><ele>212.71428571428572</ele><time>2026-03-25T14:33:39.374Z</time></trkpt><trkpt lat="45.6421358" lon="9.3628182"><ele>212.28571428571428</ele><time>2026-03-25T14:33:40.373Z</time></trkpt><trkpt lat="45.642096" lon="9.3627319"><ele>211.85714285714286</ele><time>2026-03-25T14:33:41.374Z</time></trkpt><trkpt lat="45.6420576" lon="9.3626482"><ele>211.42857142857144</ele><time>2026-03-25T14:33:42.374Z</time></trkpt><trkpt lat="45.6420221" lon="9.3625686"><ele>211.0</ele><time>2026-03-25T14:33:43.373Z</time></trkpt><trkpt lat="45.6419866" lon="9.3624889"><ele>211.66666666666666</ele><time>2026-03-25T14:33:44.373Z</time></trkpt><trkpt lat="45.6419498" lon="9.362415"><ele>212.33333333333331</ele><time>2026-03-25T14:33:45.374Z</time></trkpt><trkpt lat="45.6419056" lon="9.3623433"><ele>213.0</ele><time>2026-03-25T14:33:46.374Z</time></trkpt><trkpt lat="45.6418561" lon="9.3622817"><ele>213.66666666666669</ele><time>2026-03-25T14:33:47.373Z</time></trkpt><trkpt lat="45.6417454" lon="9.3622235"><ele>214.33333333333334</ele><time>2026-03-25T14:33:49.373Z</time></trkpt><trkpt lat="45.641639" lon="9.3622766"><ele>215.0</ele><time>2026-03-25T14:33:51.374Z</time></trkpt><trkpt lat="45.6416043" lon="9.3623594"><ele>215.0</ele><time>2026-03-25T14:33:52.374Z</time></trkpt><trkpt lat="45.6415859" lon="9.3624613"><ele>215.0</ele><time>2026-03-25T14:33:53.374Z</time></trkpt><trkpt lat="45.641584" lon="9.362563"><ele>215.0</ele><time>2026-03-25T14:33:54.374Z</time></trkpt><trkpt lat="45.6415949" lon="9.3626612"><ele>215.0</ele><time>2026-03-25T14:33:55.374Z</time></trkpt><trkpt lat="45.6416125" lon="9.3627598"><ele>215.0</ele><time>2026-03-25T14:33:56.373Z</time></trkpt><trkpt lat="45.641622" lon="9.3628574"><ele>215.0</ele><time>2026-03-25T14:33:57.374Z</time></trkpt><trkpt lat="45.6416243" lon="9.3629588"><ele>215.0</ele><time>2026-03-25T14:33:58.374Z</time></trkpt><trkpt lat="45.6416229" lon="9.3630639"><ele>215.16666666666669</ele><time>2026-03-25T14:33:59.374Z</time></trkpt><trkpt lat="45.6416183" lon="9.3631691"><ele>215.33333333333334</ele><time>2026-03-25T14:34:00.373Z</time></trkpt><trkpt lat="45.6416082" lon="9.3632613"><ele>215.5</ele><time>2026-03-25T14:34:01.374Z</time></trkpt><trkpt lat="45.6415734" lon="9.3633706"><ele>215.66666666666669</ele><time>2026-03-25T14:34:03.374Z</time></trkpt><trkpt lat="45.6415069" lon="9.3634174"><ele>215.83333333333334</ele><time>2026-03-25T14:34:09.374Z</time></trkpt><trkpt lat="45.6414686" lon="9.3635207"><ele>216.0</ele><time>2026-03-25T14:34:11.374Z</time></trkpt><trkpt lat="45.6414178" lon="9.363646"><ele>216.0</ele><time>2026-03-25T14:34:13.374Z</time></trkpt><trkpt lat="45.6413587" lon="9.3637793"><ele>216.0</ele><time>2026-03-25T14:34:15.374Z</time></trkpt><trkpt lat="45.6412867" lon="9.3639168"><ele>216.0</ele><time>2026-03-25T14:34:17.373Z</time></trkpt><trkpt lat="45.6412043" lon="9.3640383"><ele>216.0</ele><time>2026-03-25T14:34:19.374Z</time></trkpt><trkpt lat="45.6411015" lon="9.3641347"><ele>215.66666666666666</ele><time>2026-03-25T14:34:21.374Z</time></trkpt><trkpt lat="45.641043" lon="9.3641699"><ele>215.33333333333331</ele><time>2026-03-25T14:34:22.373Z</time></trkpt><trkpt lat="45.6409789" lon="9.3641861"><ele>215.0</ele><time>2026-03-25T14:34:23.374Z</time></trkpt><trkpt lat="45.6409108" lon="9.3641964"><ele>214.66666666666666</ele><time>2026-03-25T14:34:24.374Z</time></trkpt><trkpt lat="45.6408434" lon="9.3641997"><ele>214.33333333333331</ele><time>2026-03-25T14:34:25.373Z</time></trkpt><trkpt lat="45.6407805" lon="9.3642102"><ele>214.0</ele><time>2026-03-25T14:34:26.373Z</time></trkpt><trkpt lat="45.6406484" lon="9.3642222"><ele>214.00000000000003</ele><time>2026-03-25T14:34:28.374Z</time></trkpt><trkpt lat="45.6405786" lon="9.3642259"><ele>214.0</ele><time>2026-03-25T14:34:29.374Z</time></trkpt><trkpt lat="45.6405044" lon="9.3642371"><ele>214.0</ele><time>2026-03-25T14:34:30.373Z</time></trkpt><trkpt lat="45.6404302" lon="9.3642455"><ele>214.0</ele><time>2026-03-25T14:34:31.374Z</time></trkpt><trkpt lat="45.6403537" lon="9.3642512"><ele>214.0</ele><time>2026-03-25T14:34:32.374Z</time></trkpt><trkpt lat="45.6402804" lon="9.3642652"><ele>214.00000000000003</ele><time>2026-03-25T14:34:33.374Z</time></trkpt><trkpt lat="45.6402029" lon="9.3642733"><ele>214.0</ele><time>2026-03-25T14:34:34.373Z</time></trkpt><trkpt lat="45.6401269" lon="9.3642779"><ele>213.66666666666666</ele><time>2026-03-25T14:34:35.374Z</time></trkpt><trkpt lat="45.6400518" lon="9.3642843"><ele>213.33333333333331</ele><time>2026-03-25T14:34:36.374Z</time></trkpt><trkpt lat="45.6399723" lon="9.3642802"><ele>213.0</ele><time>2026-03-25T14:34:37.374Z</time></trkpt><trkpt lat="45.6398909" lon="9.3642755"><ele>212.66666666666669</ele><time>2026-03-25T14:34:38.374Z</time></trkpt><trkpt lat="45.6398147" lon="9.3642622"><ele>212.33333333333334</ele><time>2026-03-25T14:34:39.374Z</time></trkpt><trkpt lat="45.6397358" lon="9.3642426"><ele>212.0</ele><time>2026-03-25T14:34:40.374Z</time></trkpt><trkpt lat="45.6396565" lon="9.3642247"><ele>212.00000000000003</ele><time>2026-03-25T14:34:41.374Z</time></trkpt><trkpt lat="45.639574" lon="9.3642073"><ele>212.0</ele><time>2026-03-25T14:34:42.374Z</time></trkpt><trkpt lat="45.6394896" lon="9.3641816"><ele>212.0</ele><time>2026-03-25T14:34:43.374Z</time></trkpt><trkpt lat="45.6394094" lon="9.3641621"><ele>212.0</ele><time>2026-03-25T14:34:44.374Z</time></trkpt><trkpt lat="45.6393274" lon="9.3641386"><ele>212.00000000000003</ele><time>2026-03-25T14:34:45.374Z</time></trkpt><trkpt lat="45.6392439" lon="9.3641251"><ele>212.0</ele><time>2026-03-25T14:34:46.374Z</time></trkpt><trkpt lat="45.6391617" lon="9.3641116"><ele>211.83333333333334</ele><time>2026-03-25T14:34:47.374Z</time></trkpt><trkpt lat="45.6390811" lon="9.3640905"><ele>211.66666666666669</ele><time>2026-03-25T14:34:48.373Z</time></trkpt><trkpt lat="45.6390024" lon="9.3640707"><ele>211.5</ele><time>2026-03-25T14:34:49.374Z</time></trkpt><trkpt lat="45.6389232" lon="9.3640465"><ele>211.33333333333331</ele><time>2026-03-25T14:34:50.373Z</time></trkpt><trkpt lat="45.6388469" lon="9.3640175"><ele>211.16666666666666</ele><time>2026-03-25T14:34:51.373Z</time></trkpt><trkpt lat="45.6387656" lon="9.3639929"><ele>211.0</ele><time>2026-03-25T14:34:52.374Z</time></trkpt><trkpt lat="45.6386876" lon="9.363968"><ele>211.16666666666666</ele><time>2026-03-25T14:34:53.374Z</time></trkpt><trkpt lat="45.6386055" lon="9.3639438"><ele>211.33333333333331</ele><time>2026-03-25T14:34:54.374Z</time></trkpt><trkpt lat="45.6385186" lon="9.3639245"><ele>211.5</ele><time>2026-03-25T14:34:55.373Z</time></trkpt><trkpt lat="45.6384334" lon="9.3639023"><ele>211.66666666666669</ele><time>2026-03-25T14:34:56.374Z</time></trkpt><trkpt lat="45.6383485" lon="9.3638863"><ele>211.83333333333334</ele><time>2026-03-25T14:34:57.373Z</time></trkpt><trkpt lat="45.6382616" lon="9.3638587"><ele>212.0</ele><time>2026-03-25T14:34:58.374Z</time></trkpt><trkpt lat="45.6381804" lon="9.3638407"><ele>212.0</ele><time>2026-03-25T14:34:59.374Z</time></trkpt><trkpt lat="45.6380968" lon="9.3638156"><ele>212.0</ele><time>2026-03-25T14:35:00.374Z</time></trkpt><trkpt lat="45.6380091" lon="9.3637844"><ele>212.0</ele><time>2026-03-25T14:35:01.374Z</time></trkpt><trkpt lat="45.6379174" lon="9.3637569"><ele>212.0</ele><time>2026-03-25T14:35:02.373Z</time></trkpt><trkpt lat="45.637827" lon="9.3637335"><ele>212.0</ele><time>2026-03-25T14:35:03.374Z</time></trkpt><trkpt lat="45.6377372" lon="9.3637045"><ele>212.0</ele><time>2026-03-25T14:35:04.374Z</time></trkpt><trkpt lat="45.6376489" lon="9.3636761"><ele>212.0</ele><time>2026-03-25T14:35:05.374Z</time></trkpt><trkpt lat="45.6375604" lon="9.3636457"><ele>212.0</ele><time>2026-03-25T14:35:06.374Z</time></trkpt><trkpt lat="45.6374694" lon="9.3636204"><ele>212.0</ele><time>2026-03-25T14:35:07.374Z</time></trkpt><trkpt lat="45.6373809" lon="9.3635916"><ele>212.0</ele><time>2026-03-25T14:35:08.374Z</time></trkpt><trkpt lat="45.6372946" lon="9.3635564"><ele>212.0</ele><time>2026-03-25T14:35:09.373Z</time></trkpt><trkpt lat="45.6372075" lon="9.3635101"><ele>212.0</ele><time>2026-03-25T14:35:10.374Z</time></trkpt><trkpt lat="45.6371237" lon="9.3634519"><ele>212.0</ele><time>2026-03-25T14:35:11.374Z</time></trkpt><trkpt lat="45.6370409" lon="9.3633935"><ele>212.0</ele><time>2026-03-25T14:35:12.374Z</time></trkpt><trkpt lat="45.6369667" lon="9.3633191"><ele>212.0</ele><time>2026-03-25T14:35:13.374Z</time></trkpt><trkpt lat="45.6368971" lon="9.3632319"><ele>212.0</ele><time>2026-03-25T14:35:14.374Z</time></trkpt><trkpt lat="45.6368279" lon="9.3631523"><ele>212.0</ele><time>2026-03-25T14:35:15.373Z</time></trkpt><trkpt lat="45.636755" lon="9.363072"><ele>212.0</ele><time>2026-03-25T14:35:16.374Z</time></trkpt><trkpt lat="45.6366752" lon="9.3630064"><ele>212.0</ele><time>2026-03-25T14:35:17.374Z</time></trkpt><trkpt lat="45.6365903" lon="9.3629478"><ele>212.0</ele><time>2026-03-25T14:35:18.374Z</time></trkpt><trkpt lat="45.6365085" lon="9.3628994"><ele>212.0</ele><time>2026-03-25T14:35:19.374Z</time></trkpt><trkpt lat="45.6364204" lon="9.3628482"><ele>212.0</ele><time>2026-03-25T14:35:20.374Z</time></trkpt><trkpt lat="45.6363399" lon="9.3628014"><ele>212.0</ele><time>2026-03-25T14:35:21.374Z</time></trkpt><trkpt lat="45.636248" lon="9.3627832"><ele>212.0</ele><time>2026-03-25T14:35:22.373Z</time></trkpt><trkpt lat="45.6361549" lon="9.3627464"><ele>212.0</ele><time>2026-03-25T14:35:23.374Z</time></trkpt><trkpt lat="45.6360624" lon="9.3627175"><ele>211.6</ele><time>2026-03-25T14:35:24.373Z</time></trkpt><trkpt lat="45.6359675" lon="9.3626976"><ele>211.2</ele><time>2026-03-25T14:35:25.373Z</time></trkpt><trkpt lat="45.6358821" lon="9.3626869"><ele>210.8</ele><time>2026-03-25T14:35:26.374Z</time></trkpt><trkpt lat="45.635784" lon="9.3626978"><ele>210.4</ele><time>2026-03-25T14:35:27.374Z</time></trkpt><trkpt lat="45.6356914" lon="9.3627013"><ele>210.0</ele><time>2026-03-25T14:35:28.374Z</time></trkpt><trkpt lat="45.6355955" lon="9.3627153"><ele>210.0</ele><time>2026-03-25T14:35:29.373Z</time></trkpt><trkpt lat="45.6355051" lon="9.3627335"><ele>210.0</ele><time>2026-03-25T14:35:30.374Z</time></trkpt><trkpt lat="45.6354128" lon="9.3627567"><ele>210.0</ele><time>2026-03-25T14:35:31.373Z</time></trkpt><trkpt lat="45.6353176" lon="9.3627773"><ele>210.0</ele><time>2026-03-25T14:35:32.374Z</time></trkpt><trkpt lat="45.6352183" lon="9.3628009"><ele>210.0</ele><time>2026-03-25T14:35:33.374Z</time></trkpt><trkpt lat="45.6351197" lon="9.3628183"><ele>210.0</ele><time>2026-03-25T14:35:34.374Z</time></trkpt><trkpt lat="45.63502" lon="9.3628339"><ele>210.0</ele><time>2026-03-25T14:35:35.374Z</time></trkpt><trkpt lat="45.6349211" lon="9.3628277"><ele>210.0</ele><time>2026-03-25T14:35:36.373Z</time></trkpt><trkpt lat="45.6348195" lon="9.3628035"><ele>210.0</ele><time>2026-03-25T14:35:37.374Z</time></trkpt><trkpt lat="45.6347195" lon="9.362765"><ele>210.0</ele><time>2026-03-25T14:35:38.373Z</time></trkpt><trkpt lat="45.6346313" lon="9.3627016"><ele>210.0</ele><time>2026-03-25T14:35:39.374Z</time></trkpt><trkpt lat="45.6345415" lon="9.3626303"><ele>210.0</ele><time>2026-03-25T14:35:40.374Z</time></trkpt><trkpt lat="45.6344521" lon="9.3625464"><ele>210.0</ele><time>2026-03-25T14:35:41.374Z</time></trkpt><trkpt lat="45.6343732" lon="9.3624595"><ele>210.0</ele><time>2026-03-25T14:35:42.374Z</time></trkpt><trkpt lat="45.6342953" lon="9.3623625"><ele>210.0</ele><time>2026-03-25T14:35:43.373Z</time></trkpt><trkpt lat="45.6342319" lon="9.3622544"><ele>210.2</ele><time>2026-03-25T14:35:44.374Z</time></trkpt><trkpt lat="45.6341676" lon="9.3621439"><ele>210.4</ele><time>2026-03-25T14:35:45.374Z</time></trkpt><trkpt lat="45.6340957" lon="9.3620475"><ele>210.60000000000002</ele><time>2026-03-25T14:35:46.374Z</time></trkpt><trkpt lat="45.6340276" lon="9.3619501"><ele>210.8</ele><time>2026-03-25T14:35:47.374Z</time></trkpt><trkpt lat="45.6339526" lon="9.3618629"><ele>211.0</ele><time>2026-03-25T14:35:48.374Z</time></trkpt><trkpt lat="45.6338852" lon="9.3617615"><ele>211.0</ele><time>2026-03-25T14:35:49.373Z</time></trkpt><trkpt lat="45.633812" lon="9.361679"><ele>211.0</ele><time>2026-03-25T14:35:50.373Z</time></trkpt><trkpt lat="45.6337389" lon="9.3615823"><ele>211.0</ele><time>2026-03-25T14:35:51.373Z</time></trkpt><trkpt lat="45.6336673" lon="9.3614945"><ele>211.0</ele><time>2026-03-25T14:35:52.374Z</time></trkpt><trkpt lat="45.6335928" lon="9.3614027"><ele>211.0</ele><time>2026-03-25T14:35:53.374Z</time></trkpt><trkpt lat="45.6335176" lon="9.3613205"><ele>211.0</ele><time>2026-03-25T14:35:54.374Z</time></trkpt><trkpt lat="45.6334323" lon="9.3612726"><ele>211.0</ele><time>2026-03-25T14:35:55.374Z</time></trkpt><trkpt lat="45.6333441" lon="9.3612188"><ele>211.0</ele><time>2026-03-25T14:35:56.374Z</time></trkpt><trkpt lat="45.633246" lon="9.3611808"><ele>211.0</ele><time>2026-03-25T14:35:57.374Z</time></trkpt><trkpt lat="45.6331567" lon="9.3611551"><ele>211.0</ele><time>2026-03-25T14:35:58.374Z</time></trkpt><trkpt lat="45.6330855" lon="9.3611674"><ele>211.0</ele><time>2026-03-25T14:35:59.373Z</time></trkpt><trkpt lat="45.6329916" lon="9.3612439"><ele>211.0</ele><time>2026-03-25T14:36:01.374Z</time></trkpt><trkpt lat="45.6329643" lon="9.3613608"><ele>211.0</ele><time>2026-03-25T14:36:03.374Z</time></trkpt><trkpt lat="45.6329273" lon="9.3615239"><ele>211.0</ele><time>2026-03-25T14:36:05.374Z</time></trkpt><trkpt lat="45.63291" lon="9.3616208"><ele>211.0</ele><time>2026-03-25T14:36:06.374Z</time></trkpt><trkpt lat="45.6328912" lon="9.3617159"><ele>210.99999999999997</ele><time>2026-03-25T14:36:07.374Z</time></trkpt><trkpt lat="45.6328662" lon="9.3618239"><ele>211.0</ele><time>2026-03-25T14:36:08.374Z</time></trkpt><trkpt lat="45.6328478" lon="9.3619353"><ele>211.0</ele><time>2026-03-25T14:36:09.374Z</time></trkpt><trkpt lat="45.6328274" lon="9.3620477"><ele>211.0</ele><time>2026-03-25T14:36:10.373Z</time></trkpt><trkpt lat="45.6328058" lon="9.3621588"><ele>210.99999999999997</ele><time>2026-03-25T14:36:11.374Z</time></trkpt><trkpt lat="45.6327882" lon="9.3622653"><ele>211.0</ele><time>2026-03-25T14:36:12.374Z</time></trkpt><trkpt lat="45.6327561" lon="9.3623788"><ele>210.83333333333331</ele><time>2026-03-25T14:36:13.374Z</time></trkpt><trkpt lat="45.6327077" lon="9.3624766"><ele>210.66666666666666</ele><time>2026-03-25T14:36:14.373Z</time></trkpt><trkpt lat="45.6326459" lon="9.3625491"><ele>210.5</ele><time>2026-03-25T14:36:15.373Z</time></trkpt><trkpt lat="45.6325689" lon="9.3625981"><ele>210.33333333333331</ele><time>2026-03-25T14:36:16.373Z</time></trkpt><trkpt lat="45.6324851" lon="9.3626175"><ele>210.16666666666666</ele><time>2026-03-25T14:36:17.374Z</time></trkpt><trkpt lat="45.6323951" lon="9.3626122"><ele>210.0</ele><time>2026-03-25T14:36:18.374Z</time></trkpt><trkpt lat="45.6323013" lon="9.3625943"><ele>210.0</ele><time>2026-03-25T14:36:19.373Z</time></trkpt><trkpt lat="45.6322079" lon="9.3625797"><ele>210.0</ele><time>2026-03-25T14:36:20.374Z</time></trkpt><trkpt lat="45.6321128" lon="9.3625625"><ele>210.0</ele><time>2026-03-25T14:36:21.374Z</time></trkpt><trkpt lat="45.6320208" lon="9.3625435"><ele>210.0</ele><time>2026-03-25T14:36:22.373Z</time></trkpt><trkpt lat="45.6319294" lon="9.362521"><ele>210.0</ele><time>2026-03-25T14:36:23.374Z</time></trkpt><trkpt lat="45.6318341" lon="9.362501"><ele>209.8</ele><time>2026-03-25T14:36:24.374Z</time></trkpt><trkpt lat="45.6317404" lon="9.3624811"><ele>209.6</ele><time>2026-03-25T14:36:25.374Z</time></trkpt><trkpt lat="45.6316474" lon="9.3624591"><ele>209.39999999999998</ele><time>2026-03-25T14:36:26.374Z</time></trkpt><trkpt lat="45.6315535" lon="9.3624435"><ele>209.2</ele><time>2026-03-25T14:36:27.373Z</time></trkpt><trkpt lat="45.6314561" lon="9.3624265"><ele>209.0</ele><time>2026-03-25T14:36:28.374Z</time></trkpt><trkpt lat="45.631362" lon="9.3624094"><ele>209.0</ele><time>2026-03-25T14:36:29.374Z</time></trkpt><trkpt lat="45.6312749" lon="9.3623808"><ele>209.0</ele><time>2026-03-25T14:36:30.374Z</time></trkpt><trkpt lat="45.6311802" lon="9.3623666"><ele>209.0</ele><time>2026-03-25T14:36:31.374Z</time></trkpt><trkpt lat="45.6310902" lon="9.3623491"><ele>209.0</ele><time>2026-03-25T14:36:32.374Z</time></trkpt><trkpt lat="45.6309987" lon="9.3623353"><ele>209.0</ele><time>2026-03-25T14:36:33.374Z</time></trkpt><trkpt lat="45.6309104" lon="9.3623206"><ele>209.0</ele><time>2026-03-25T14:36:34.373Z</time></trkpt><trkpt lat="45.6308197" lon="9.3622974"><ele>209.0</ele><time>2026-03-25T14:36:35.374Z</time></trkpt><trkpt lat="45.6307265" lon="9.362289"><ele>209.0</ele><time>2026-03-25T14:36:36.374Z</time></trkpt><trkpt lat="45.6306445" lon="9.3622636"><ele>209.0</ele><time>2026-03-25T14:36:37.374Z</time></trkpt><trkpt lat="45.6305501" lon="9.3622469"><ele>209.0</ele><time>2026-03-25T14:36:38.374Z</time></trkpt><trkpt lat="45.6304588" lon="9.3622308"><ele>209.0</ele><time>2026-03-25T14:36:39.374Z</time></trkpt><trkpt lat="45.6303697" lon="9.3622115"><ele>209.0</ele><time>2026-03-25T14:36:40.373Z</time></trkpt><trkpt lat="45.6302782" lon="9.3621929"><ele>209.0</ele><time>2026-03-25T14:36:41.373Z</time></trkpt><trkpt lat="45.6301875" lon="9.3621706"><ele>209.0</ele><time>2026-03-25T14:36:42.374Z</time></trkpt><trkpt lat="45.6300959" lon="9.362161"><ele>209.0</ele><time>2026-03-25T14:36:43.373Z</time></trkpt><trkpt lat="45.6300048" lon="9.362144"><ele>209.0</ele><time>2026-03-25T14:36:44.374Z</time></trkpt><trkpt lat="45.6299145" lon="9.3621263"><ele>209.0</ele><time>2026-03-25T14:36:45.374Z</time></trkpt><trkpt lat="45.6298205" lon="9.3621156"><ele>209.0</ele><time>2026-03-25T14:36:46.373Z</time></trkpt><trkpt lat="45.6297327" lon="9.3620918"><ele>209.0</ele><time>2026-03-25T14:36:47.374Z</time></trkpt><trkpt lat="45.6296378" lon="9.3620734"><ele>209.0</ele><time>2026-03-25T14:36:48.374Z</time></trkpt><trkpt lat="45.6295468" lon="9.3620522"><ele>209.0</ele><time>2026-03-25T14:36:49.373Z</time></trkpt><trkpt lat="45.6294528" lon="9.3620358"><ele>209.0</ele><time>2026-03-25T14:36:50.374Z</time></trkpt><trkpt lat="45.6293604" lon="9.3620182"><ele>209.0</ele><time>2026-03-25T14:36:51.374Z</time></trkpt><trkpt lat="45.6292694" lon="9.3620012"><ele>209.0</ele><time>2026-03-25T14:36:52.374Z</time></trkpt><trkpt lat="45.6291746" lon="9.36198"><ele>209.0</ele><time>2026-03-25T14:36:53.374Z</time></trkpt><trkpt lat="45.6290769" lon="9.3619584"><ele>209.0</ele><time>2026-03-25T14:36:54.374Z</time></trkpt><trkpt lat="45.6289812" lon="9.3619418"><ele>209.0</ele><time>2026-03-25T14:36:55.374Z</time></trkpt><trkpt lat="45.6288855" lon="9.3619253"><ele>209.0</ele><time>2026-03-25T14:36:56.374Z</time></trkpt><trkpt lat="45.6287925" lon="9.3619044"><ele>209.0</ele><time>2026-03-25T14:36:57.374Z</time></trkpt><trkpt lat="45.6286991" lon="9.3618868"><ele>209.0</ele><time>2026-03-25T14:36:58.374Z</time></trkpt><trkpt lat="45.6286073" lon="9.3618709"><ele>208.79999999999998</ele><time>2026-03-25T14:36:59.374Z</time></trkpt><trkpt lat="45.6285129" lon="9.3618473"><ele>208.6</ele><time>2026-03-25T14:37:00.373Z</time></trkpt><trkpt lat="45.6284185" lon="9.3618354"><ele>208.4</ele><time>2026-03-25T14:37:01.374Z</time></trkpt><trkpt lat="45.6283263" lon="9.3618137"><ele>208.2</ele><time>2026-03-25T14:37:02.373Z</time></trkpt><trkpt lat="45.6282311" lon="9.3617972"><ele>208.0</ele><time>2026-03-25T14:37:03.373Z</time></trkpt><trkpt lat="45.6281363" lon="9.3617776"><ele>208.0</ele><time>2026-03-25T14:37:04.374Z</time></trkpt><trkpt lat="45.628041" lon="9.3617587"><ele>208.0</ele><time>2026-03-25T14:37:05.374Z</time></trkpt><trkpt lat="45.6279446" lon="9.3617396"><ele>208.0</ele><time>2026-03-25T14:37:06.373Z</time></trkpt><trkpt lat="45.6278503" lon="9.3617166"><ele>208.0</ele><time>2026-03-25T14:37:07.374Z</time></trkpt><trkpt lat="45.6277579" lon="9.3616922"><ele>208.0</ele><time>2026-03-25T14:37:08.374Z</time></trkpt><trkpt lat="45.6276685" lon="9.3616714"><ele>207.60000000000002</ele><time>2026-03-25T14:37:09.373Z</time></trkpt><trkpt lat="45.6275852" lon="9.3616436"><ele>207.20000000000002</ele><time>2026-03-25T14:37:10.374Z</time></trkpt><trkpt lat="45.6274887" lon="9.3616253"><ele>206.8</ele><time>2026-03-25T14:37:11.373Z</time></trkpt><trkpt lat="45.6273935" lon="9.3616083"><ele>206.4</ele><time>2026-03-25T14:37:12.373Z</time></trkpt><trkpt lat="45.6272946" lon="9.3615952"><ele>206.0</ele><time>2026-03-25T14:37:13.374Z</time></trkpt><trkpt lat="45.6271973" lon="9.3615756"><ele>206.0</ele><time>2026-03-25T14:37:14.374Z</time></trkpt><trkpt lat="45.6271055" lon="9.361559"><ele>206.0</ele><time>2026-03-25T14:37:15.373Z</time></trkpt><trkpt lat="45.6270098" lon="9.3615344"><ele>206.0</ele><time>2026-03-25T14:37:16.374Z</time></trkpt><trkpt lat="45.6269137" lon="9.3615176"><ele>206.0</ele><time>2026-03-25T14:37:17.374Z</time></trkpt><trkpt lat="45.6268147" lon="9.3614984"><ele>206.0</ele><time>2026-03-25T14:37:18.374Z</time></trkpt><trkpt lat="45.6267172" lon="9.3614774"><ele>205.4</ele><time>2026-03-25T14:37:19.373Z</time></trkpt><trkpt lat="45.6266205" lon="9.3614644"><ele>204.8</ele><time>2026-03-25T14:37:20.374Z</time></trkpt><trkpt lat="45.6265257" lon="9.3614442"><ele>204.20000000000002</ele><time>2026-03-25T14:37:21.374Z</time></trkpt><trkpt lat="45.6264302" lon="9.3614218"><ele>203.60000000000002</ele><time>2026-03-25T14:37:22.373Z</time></trkpt><trkpt lat="45.6263399" lon="9.3614047"><ele>203.0</ele><time>2026-03-25T14:37:23.374Z</time></trkpt><trkpt lat="45.6262423" lon="9.3613952"><ele>203.0</ele><time>2026-03-25T14:37:24.374Z</time></trkpt><trkpt lat="45.6261496" lon="9.3613783"><ele>203.0</ele><time>2026-03-25T14:37:25.374Z</time></trkpt><trkpt lat="45.6260527" lon="9.3613633"><ele>203.0</ele><time>2026-03-25T14:37:26.373Z</time></trkpt><trkpt lat="45.625954" lon="9.3613456"><ele>203.0</ele><time>2026-03-25T14:37:27.373Z</time></trkpt><trkpt lat="45.6258588" lon="9.3613331"><ele>203.0</ele><time>2026-03-25T14:37:28.374Z</time></trkpt><trkpt lat="45.6257593" lon="9.3613106"><ele>202.60000000000002</ele><time>2026-03-25T14:37:29.374Z</time></trkpt><trkpt lat="45.6256618" lon="9.3612856"><ele>202.20000000000002</ele><time>2026-03-25T14:37:30.374Z</time></trkpt><trkpt lat="45.6255675" lon="9.3612644"><ele>201.8</ele><time>2026-03-25T14:37:31.374Z</time></trkpt><trkpt lat="45.6254687" lon="9.3612438"><ele>201.4</ele><time>2026-03-25T14:37:32.374Z</time></trkpt><trkpt lat="45.6253672" lon="9.3612197"><ele>201.0</ele><time>2026-03-25T14:37:33.374Z</time></trkpt><trkpt lat="45.6252679" lon="9.3612027"><ele>201.0</ele><time>2026-03-25T14:37:34.374Z</time></trkpt><trkpt lat="45.6251693" lon="9.3611834"><ele>201.0</ele><time>2026-03-25T14:37:35.373Z</time></trkpt><trkpt lat="45.6250683" lon="9.3611649"><ele>201.0</ele><time>2026-03-25T14:37:36.374Z</time></trkpt><trkpt lat="45.6249722" lon="9.361146"><ele>201.0</ele><time>2026-03-25T14:37:37.374Z</time></trkpt><trkpt lat="45.6248733" lon="9.361125"><ele>201.0</ele><time>2026-03-25T14:37:38.373Z</time></trkpt><trkpt lat="45.624778" lon="9.3611088"><ele>201.0</ele><time>2026-03-25T14:37:39.374Z</time></trkpt><trkpt lat="45.6246796" lon="9.3610863"><ele>201.0</ele><time>2026-03-25T14:37:40.373Z</time></trkpt><trkpt lat="45.6245884" lon="9.3610636"><ele>201.0</ele><time>2026-03-25T14:37:41.373Z</time></trkpt><trkpt lat="45.6244946" lon="9.3610424"><ele>201.0</ele><time>2026-03-25T14:37:42.374Z</time></trkpt><trkpt lat="45.6243994" lon="9.3610223"><ele>201.0</ele><time>2026-03-25T14:37:43.374Z</time></trkpt><trkpt lat="45.6243029" lon="9.3610003"><ele>200.60000000000002</ele><time>2026-03-25T14:37:44.373Z</time></trkpt><trkpt lat="45.6242018" lon="9.3609824"><ele>200.2</ele><time>2026-03-25T14:37:45.373Z</time></trkpt><trkpt lat="45.624104" lon="9.3609662"><ele>199.8</ele><time>2026-03-25T14:37:46.374Z</time></trkpt><trkpt lat="45.6240022" lon="9.3609432"><ele>199.39999999999998</ele><time>2026-03-25T14:37:47.374Z</time></trkpt><trkpt lat="45.6239024" lon="9.3609271"><ele>199.0</ele><time>2026-03-25T14:37:48.374Z</time></trkpt><trkpt lat="45.6238015" lon="9.360914"><ele>199.0</ele><time>2026-03-25T14:37:49.374Z</time></trkpt><trkpt lat="45.6237038" lon="9.3608898"><ele>199.0</ele><time>2026-03-25T14:37:50.374Z</time></trkpt><trkpt lat="45.6236047" lon="9.3608648"><ele>199.0</ele><time>2026-03-25T14:37:51.373Z</time></trkpt><trkpt lat="45.6235082" lon="9.3608432"><ele>199.0</ele><time>2026-03-25T14:37:52.374Z</time></trkpt><trkpt lat="45.6234119" lon="9.3608249"><ele>199.0</ele><time>2026-03-25T14:37:53.373Z</time></trkpt><trkpt lat="45.6233141" lon="9.3608078"><ele>199.0</ele><time>2026-03-25T14:37:54.374Z</time></trkpt><trkpt lat="45.6232149" lon="9.3607906"><ele>199.0</ele><time>2026-03-25T14:37:55.374Z</time></trkpt><trkpt lat="45.62312" lon="9.3607712"><ele>199.0</ele><time>2026-03-25T14:37:56.374Z</time></trkpt><trkpt lat="45.6230196" lon="9.3607513"><ele>199.0</ele><time>2026-03-25T14:37:57.374Z</time></trkpt><trkpt lat="45.6229217" lon="9.3607311"><ele>199.0</ele><time>2026-03-25T14:37:58.374Z</time></trkpt><trkpt lat="45.622823" lon="9.3607143"><ele>198.39999999999998</ele><time>2026-03-25T14:37:59.374Z</time></trkpt><trkpt lat="45.6227232" lon="9.360696"><ele>197.8</ele><time>2026-03-25T14:38:00.374Z</time></trkpt><trkpt lat="45.6226279" lon="9.3606739"><ele>197.2</ele><time>2026-03-25T14:38:01.373Z</time></trkpt><trkpt lat="45.6225305" lon="9.3606533"><ele>196.60000000000002</ele><time>2026-03-25T14:38:02.374Z</time></trkpt><trkpt lat="45.6224289" lon="9.3606319"><ele>196.0</ele><time>2026-03-25T14:38:03.374Z</time></trkpt><trkpt lat="45.6223298" lon="9.3606147"><ele>196.0</ele><time>2026-03-25T14:38:04.374Z</time></trkpt><trkpt lat="45.622225" lon="9.3605927"><ele>196.0</ele><time>2026-03-25T14:38:05.373Z</time></trkpt><trkpt lat="45.6221229" lon="9.3605688"><ele>196.0</ele><time>2026-03-25T14:38:06.374Z</time></trkpt><trkpt lat="45.6220165" lon="9.3605488"><ele>196.0</ele><time>2026-03-25T14:38:07.374Z</time></trkpt><trkpt lat="45.6219186" lon="9.3605186"><ele>196.0</ele><time>2026-03-25T14:38:08.373Z</time></trkpt><trkpt lat="45.6218198" lon="9.3604835"><ele>196.20000000000002</ele><time>2026-03-25T14:38:09.373Z</time></trkpt><trkpt lat="45.6217256" lon="9.3604548"><ele>196.4</ele><time>2026-03-25T14:38:10.373Z</time></trkpt><trkpt lat="45.6216262" lon="9.3604177"><ele>196.6</ele><time>2026-03-25T14:38:11.373Z</time></trkpt><trkpt lat="45.6215251" lon="9.3603863"><ele>196.8</ele><time>2026-03-25T14:38:12.374Z</time></trkpt><trkpt lat="45.6214259" lon="9.3603486"><ele>197.0</ele><time>2026-03-25T14:38:13.374Z</time></trkpt><trkpt lat="45.6213246" lon="9.3603158"><ele>197.0</ele><time>2026-03-25T14:38:14.374Z</time></trkpt><trkpt lat="45.6212242" lon="9.3602807"><ele>197.0</ele><time>2026-03-25T14:38:15.374Z</time></trkpt><trkpt lat="45.6211264" lon="9.3602487"><ele>197.0</ele><time>2026-03-25T14:38:16.374Z</time></trkpt><trkpt lat="45.6210338" lon="9.360221"><ele>197.0</ele><time>2026-03-25T14:38:17.374Z</time></trkpt><trkpt lat="45.6209301" lon="9.3602014"><ele>197.0</ele><time>2026-03-25T14:38:18.374Z</time></trkpt><trkpt lat="45.6208299" lon="9.36018"><ele>196.39999999999998</ele><time>2026-03-25T14:38:19.374Z</time></trkpt><trkpt lat="45.6207267" lon="9.3601611"><ele>195.79999999999998</ele><time>2026-03-25T14:38:20.374Z</time></trkpt><trkpt lat="45.6206313" lon="9.3601427"><ele>195.2</ele><time>2026-03-25T14:38:21.373Z</time></trkpt><trkpt lat="45.6205256" lon="9.3601289"><ele>194.6</ele><time>2026-03-25T14:38:22.373Z</time></trkpt><trkpt lat="45.620418" lon="9.3601146"><ele>194.0</ele><time>2026-03-25T14:38:23.374Z</time></trkpt><trkpt lat="45.6203174" lon="9.3600995"><ele>193.39999999999998</ele><time>2026-03-25T14:38:24.373Z</time></trkpt><trkpt lat="45.6202132" lon="9.3600821"><ele>192.8</ele><time>2026-03-25T14:38:25.373Z</time></trkpt><trkpt lat="45.6201082" lon="9.3600667"><ele>192.2</ele><time>2026-03-25T14:38:26.374Z</time></trkpt><trkpt lat="45.6200027" lon="9.3600514"><ele>191.60000000000002</ele><time>2026-03-25T14:38:27.374Z</time></trkpt><trkpt lat="45.6198963" lon="9.3600434"><ele>191.0</ele><time>2026-03-25T14:38:28.374Z</time></trkpt><trkpt lat="45.6197935" lon="9.3600252"><ele>191.0</ele><time>2026-03-25T14:38:29.374Z</time></trkpt><trkpt lat="45.6196888" lon="9.3600126"><ele>191.0</ele><time>2026-03-25T14:38:30.373Z</time></trkpt><trkpt lat="45.6195843" lon="9.3599978"><ele>191.0</ele><time>2026-03-25T14:38:31.374Z</time></trkpt><trkpt lat="45.619478" lon="9.359982"><ele>191.0</ele><time>2026-03-25T14:38:32.374Z</time></trkpt><trkpt lat="45.6193814" lon="9.3599569"><ele>191.0</ele><time>2026-03-25T14:38:33.373Z</time></trkpt><trkpt lat="45.6192785" lon="9.359957"><ele>191.20000000000002</ele><time>2026-03-25T14:38:34.373Z</time></trkpt><trkpt lat="45.6191705" lon="9.3599477"><ele>191.4</ele><time>2026-03-25T14:38:35.374Z</time></trkpt><trkpt lat="45.6190668" lon="9.3599359"><ele>191.6</ele><time>2026-03-25T14:38:36.374Z</time></trkpt><trkpt lat="45.6189656" lon="9.3599225"><ele>191.8</ele><time>2026-03-25T14:38:37.374Z</time></trkpt><trkpt lat="45.6188679" lon="9.3599053"><ele>192.0</ele><time>2026-03-25T14:38:38.373Z</time></trkpt><trkpt lat="45.6187709" lon="9.35988"><ele>192.0</ele><time>2026-03-25T14:38:39.374Z</time></trkpt><trkpt lat="45.6186787" lon="9.3598654"><ele>192.0</ele><time>2026-03-25T14:38:40.374Z</time></trkpt><trkpt lat="45.6185935" lon="9.3598468"><ele>192.0</ele><time>2026-03-25T14:38:41.374Z</time></trkpt><trkpt lat="45.6185" lon="9.359826"><ele>192.0</ele><time>2026-03-25T14:38:42.373Z</time></trkpt><trkpt lat="45.6184105" lon="9.3598068"><ele>192.0</ele><time>2026-03-25T14:38:43.373Z</time></trkpt><trkpt lat="45.6183172" lon="9.3597859"><ele>192.33333333333334</ele><time>2026-03-25T14:38:44.374Z</time></trkpt><trkpt lat="45.6182267" lon="9.3597657"><ele>192.66666666666669</ele><time>2026-03-25T14:38:45.374Z</time></trkpt><trkpt lat="45.6181387" lon="9.3597538"><ele>193.0</ele><time>2026-03-25T14:38:46.373Z</time></trkpt><trkpt lat="45.6180576" lon="9.3597396"><ele>193.33333333333334</ele><time>2026-03-25T14:38:47.373Z</time></trkpt><trkpt lat="45.6179748" lon="9.3597261"><ele>193.66666666666669</ele><time>2026-03-25T14:38:48.374Z</time></trkpt><trkpt lat="45.6178973" lon="9.3597127"><ele>194.0</ele><time>2026-03-25T14:38:49.374Z</time></trkpt><trkpt lat="45.617832" lon="9.3596962"><ele>193.83333333333334</ele><time>2026-03-25T14:38:50.374Z</time></trkpt><trkpt lat="45.617763" lon="9.3596857"><ele>193.66666666666669</ele><time>2026-03-25T14:38:51.373Z</time></trkpt><trkpt lat="45.6176974" lon="9.3596708"><ele>193.5</ele><time>2026-03-25T14:38:52.374Z</time></trkpt><trkpt lat="45.6175679" lon="9.3596479"><ele>193.33333333333331</ele><time>2026-03-25T14:38:54.374Z</time></trkpt><trkpt lat="45.6174965" lon="9.3596364"><ele>193.16666666666666</ele><time>2026-03-25T14:38:55.374Z</time></trkpt><trkpt lat="45.6174252" lon="9.3596233"><ele>193.0</ele><time>2026-03-25T14:38:56.373Z</time></trkpt><trkpt lat="45.6173494" lon="9.3596287"><ele>192.99999999999997</ele><time>2026-03-25T14:38:57.374Z</time></trkpt><trkpt lat="45.6172721" lon="9.3596546"><ele>193.0</ele><time>2026-03-25T14:38:58.374Z</time></trkpt><trkpt lat="45.6171953" lon="9.3596825"><ele>193.0</ele><time>2026-03-25T14:38:59.374Z</time></trkpt><trkpt lat="45.6171148" lon="9.3596951"><ele>193.0</ele><time>2026-03-25T14:39:00.374Z</time></trkpt><trkpt lat="45.6170311" lon="9.3596887"><ele>192.99999999999997</ele><time>2026-03-25T14:39:01.374Z</time></trkpt><trkpt lat="45.6169449" lon="9.3596756"><ele>193.0</ele><time>2026-03-25T14:39:02.374Z</time></trkpt><trkpt lat="45.6168626" lon="9.3596544"><ele>192.83333333333331</ele><time>2026-03-25T14:39:03.373Z</time></trkpt><trkpt lat="45.6167719" lon="9.3596417"><ele>192.66666666666666</ele><time>2026-03-25T14:39:04.374Z</time></trkpt><trkpt lat="45.6166902" lon="9.3596209"><ele>192.5</ele><time>2026-03-25T14:39:05.374Z</time></trkpt><trkpt lat="45.6166051" lon="9.3596073"><ele>192.33333333333331</ele><time>2026-03-25T14:39:06.374Z</time></trkpt><trkpt lat="45.6165223" lon="9.3595785"><ele>192.16666666666666</ele><time>2026-03-25T14:39:07.374Z</time></trkpt><trkpt lat="45.616438" lon="9.3595382"><ele>192.0</ele><time>2026-03-25T14:39:08.374Z</time></trkpt><trkpt lat="45.616353" lon="9.3594964"><ele>192.0</ele><time>2026-03-25T14:39:09.374Z</time></trkpt><trkpt lat="45.6162696" lon="9.3594518"><ele>192.0</ele><time>2026-03-25T14:39:10.374Z</time></trkpt><trkpt lat="45.616183" lon="9.3594126"><ele>192.0</ele><time>2026-03-25T14:39:11.374Z</time></trkpt><trkpt lat="45.6161008" lon="9.3593824"><ele>192.0</ele><time>2026-03-25T14:39:12.374Z</time></trkpt><trkpt lat="45.6160103" lon="9.3593547"><ele>192.0</ele><time>2026-03-25T14:39:13.374Z</time></trkpt><trkpt lat="45.6159194" lon="9.3593304"><ele>191.6</ele><time>2026-03-25T14:39:14.374Z</time></trkpt><trkpt lat="45.6158259" lon="9.3593037"><ele>191.2</ele><time>2026-03-25T14:39:15.374Z</time></trkpt><trkpt lat="45.6157351" lon="9.3592818"><ele>190.8</ele><time>2026-03-25T14:39:16.374Z</time></trkpt><trkpt lat="45.6156425" lon="9.3592621"><ele>190.4</ele><time>2026-03-25T14:39:17.373Z</time></trkpt><trkpt lat="45.615546" lon="9.3592413"><ele>190.0</ele><time>2026-03-25T14:39:18.374Z</time></trkpt><trkpt lat="45.615449" lon="9.3592225"><ele>190.0</ele><time>2026-03-25T14:39:19.374Z</time></trkpt><trkpt lat="45.6153504" lon="9.3592041"><ele>190.0</ele><time>2026-03-25T14:39:20.373Z</time></trkpt><trkpt lat="45.6152578" lon="9.3591806"><ele>190.0</ele><time>2026-03-25T14:39:21.374Z</time></trkpt><trkpt lat="45.6151649" lon="9.3591612"><ele>190.0</ele><time>2026-03-25T14:39:22.374Z</time></trkpt><trkpt lat="45.6150719" lon="9.3591394"><ele>190.0</ele><time>2026-03-25T14:39:23.374Z</time></trkpt><trkpt lat="45.6149797" lon="9.3591273"><ele>190.0</ele><time>2026-03-25T14:39:24.373Z</time></trkpt><trkpt lat="45.6148902" lon="9.3591206"><ele>190.0</ele><time>2026-03-25T14:39:25.374Z</time></trkpt><trkpt lat="45.6147984" lon="9.3591201"><ele>190.0</ele><time>2026-03-25T14:39:26.374Z</time></trkpt><trkpt lat="45.6147027" lon="9.3591178"><ele>190.0</ele><time>2026-03-25T14:39:27.374Z</time></trkpt><trkpt lat="45.6146114" lon="9.3591252"><ele>190.0</ele><time>2026-03-25T14:39:28.374Z</time></trkpt><trkpt lat="45.6145163" lon="9.3591258"><ele>190.0</ele><time>2026-03-25T14:39:29.374Z</time></trkpt><trkpt lat="45.6144312" lon="9.3591233"><ele>190.0</ele><time>2026-03-25T14:39:30.374Z</time></trkpt><trkpt lat="45.6143522" lon="9.3591074"><ele>190.0</ele><time>2026-03-25T14:39:31.373Z</time></trkpt><trkpt lat="45.6142724" lon="9.3590931"><ele>190.0</ele><time>2026-03-25T14:39:32.374Z</time></trkpt><trkpt lat="45.6141931" lon="9.3590801"><ele>190.0</ele><time>2026-03-25T14:39:33.374Z</time></trkpt><trkpt lat="45.6141275" lon="9.359068"><ele>190.0</ele><time>2026-03-25T14:39:34.374Z</time></trkpt><trkpt lat="45.6140562" lon="9.3590557"><ele>190.0</ele><time>2026-03-25T14:39:35.373Z</time></trkpt><trkpt lat="45.6139884" lon="9.3590441"><ele>190.0</ele><time>2026-03-25T14:39:36.374Z</time></trkpt><trkpt lat="45.6139218" lon="9.3590331"><ele>190.0</ele><time>2026-03-25T14:39:37.373Z</time></trkpt><trkpt lat="45.613859" lon="9.3590167"><ele>190.0</ele><time>2026-03-25T14:39:38.374Z</time></trkpt><trkpt lat="45.6137605" lon="9.3589538"><ele>190.0</ele><time>2026-03-25T14:39:40.374Z</time></trkpt><trkpt lat="45.6136894" lon="9.3588384"><ele>190.0</ele><time>2026-03-25T14:39:42.374Z</time></trkpt><trkpt lat="45.6136756" lon="9.3586753"><ele>190.0</ele><time>2026-03-25T14:39:44.374Z</time></trkpt><trkpt lat="45.6136766" lon="9.3585797"><ele>190.0</ele><time>2026-03-25T14:39:45.373Z</time></trkpt><trkpt lat="45.6136764" lon="9.3584835"><ele>190.0</ele><time>2026-03-25T14:39:46.374Z</time></trkpt><trkpt lat="45.6136803" lon="9.3583803"><ele>190.0</ele><time>2026-03-25T14:39:47.374Z</time></trkpt><trkpt lat="45.6136854" lon="9.3582716"><ele>190.0</ele><time>2026-03-25T14:39:48.373Z</time></trkpt><trkpt lat="45.6136907" lon="9.3581663"><ele>190.0</ele><time>2026-03-25T14:39:49.374Z</time></trkpt><trkpt lat="45.6136954" lon="9.3580599"><ele>190.0</ele><time>2026-03-25T14:39:50.374Z</time></trkpt><trkpt lat="45.6137029" lon="9.3579491"><ele>190.0</ele><time>2026-03-25T14:39:51.374Z</time></trkpt><trkpt lat="45.6137111" lon="9.3578432"><ele>190.0</ele><time>2026-03-25T14:39:52.373Z</time></trkpt><trkpt lat="45.6137177" lon="9.3577323"><ele>190.0</ele><time>2026-03-25T14:39:53.374Z</time></trkpt><trkpt lat="45.6137211" lon="9.3576247"><ele>190.0</ele><time>2026-03-25T14:39:54.374Z</time></trkpt><trkpt lat="45.6137254" lon="9.3575245"><ele>190.0</ele><time>2026-03-25T14:39:55.374Z</time></trkpt><trkpt lat="45.6137278" lon="9.3574177"><ele>190.0</ele><time>2026-03-25T14:39:56.373Z</time></trkpt><trkpt lat="45.6137225" lon="9.3573067"><ele>189.83333333333334</ele><time>2026-03-25T14:39:57.373Z</time></trkpt><trkpt lat="45.613718" lon="9.3571985"><ele>189.66666666666669</ele><time>2026-03-25T14:39:58.374Z</time></trkpt><trkpt lat="45.6137138" lon="9.3570851"><ele>189.5</ele><time>2026-03-25T14:39:59.373Z</time></trkpt><trkpt lat="45.6137026" lon="9.3569799"><ele>189.33333333333334</ele><time>2026-03-25T14:40:00.374Z</time></trkpt><trkpt lat="45.6136882" lon="9.3568715"><ele>189.16666666666666</ele><time>2026-03-25T14:40:01.374Z</time></trkpt><trkpt lat="45.6136726" lon="9.3567665"><ele>189.0</ele><time>2026-03-25T14:40:02.374Z</time></trkpt><trkpt lat="45.6136577" lon="9.3566567"><ele>188.83333333333334</ele><time>2026-03-25T14:40:03.374Z</time></trkpt><trkpt lat="45.6136422" lon="9.3565429"><ele>188.66666666666666</ele><time>2026-03-25T14:40:04.374Z</time></trkpt><trkpt lat="45.6136235" lon="9.3564416"><ele>188.5</ele><time>2026-03-25T14:40:05.374Z</time></trkpt><trkpt lat="45.6136023" lon="9.356339"><ele>188.33333333333331</ele><time>2026-03-25T14:40:06.374Z</time></trkpt><trkpt lat="45.6135847" lon="9.3562289"><ele>188.16666666666666</ele><time>2026-03-25T14:40:07.374Z</time></trkpt><trkpt lat="45.6135685" lon="9.3561192"><ele>188.0</ele><time>2026-03-25T14:40:08.374Z</time></trkpt><trkpt lat="45.6135574" lon="9.3560043"><ele>188.0</ele><time>2026-03-25T14:40:09.374Z</time></trkpt><trkpt lat="45.6135378" lon="9.355898"><ele>188.0</ele><time>2026-03-25T14:40:10.374Z</time></trkpt><trkpt lat="45.6135216" lon="9.355798"><ele>188.0</ele><time>2026-03-25T14:40:11.374Z</time></trkpt><trkpt lat="45.6135077" lon="9.3556863"><ele>188.0</ele><time>2026-03-25T14:40:12.373Z</time></trkpt><trkpt lat="45.6134903" lon="9.3555752"><ele>188.0</ele><time>2026-03-25T14:40:13.374Z</time></trkpt><trkpt lat="45.613472" lon="9.3554542"><ele>188.0</ele><time>2026-03-25T14:40:14.374Z</time></trkpt><trkpt lat="45.6134524" lon="9.3553392"><ele>187.83333333333331</ele><time>2026-03-25T14:40:15.374Z</time></trkpt><trkpt lat="45.6134394" lon="9.3552257"><ele>187.66666666666666</ele><time>2026-03-25T14:40:16.374Z</time></trkpt><trkpt lat="45.6134313" lon="9.3551138"><ele>187.5</ele><time>2026-03-25T14:40:17.374Z</time></trkpt><trkpt lat="45.6134237" lon="9.3549936"><ele>187.33333333333334</ele><time>2026-03-25T14:40:18.374Z</time></trkpt><trkpt lat="45.6134209" lon="9.3548807"><ele>187.16666666666669</ele><time>2026-03-25T14:40:19.373Z</time></trkpt><trkpt lat="45.6134195" lon="9.3547643"><ele>187.0</ele><time>2026-03-25T14:40:20.373Z</time></trkpt><trkpt lat="45.6134197" lon="9.3546476"><ele>187.0</ele><time>2026-03-25T14:40:21.373Z</time></trkpt><trkpt lat="45.6134221" lon="9.3545272"><ele>187.0</ele><time>2026-03-25T14:40:22.373Z</time></trkpt><trkpt lat="45.61342" lon="9.3544149"><ele>187.0</ele><time>2026-03-25T14:40:23.374Z</time></trkpt><trkpt lat="45.61342" lon="9.3543012"><ele>187.0</ele><time>2026-03-25T14:40:24.374Z</time></trkpt><trkpt lat="45.6134215" lon="9.3541961"><ele>187.0</ele><time>2026-03-25T14:40:25.374Z</time></trkpt><trkpt lat="45.613428" lon="9.3541009"><ele>187.0</ele><time>2026-03-25T14:40:26.374Z</time></trkpt><trkpt lat="45.613457" lon="9.3540159"><ele>187.0</ele><time>2026-03-25T14:40:27.374Z</time></trkpt><trkpt lat="45.6134855" lon="9.353929"><ele>187.0</ele><time>2026-03-25T14:40:28.374Z</time></trkpt><trkpt lat="45.6135024" lon="9.3538373"><ele>187.0</ele><time>2026-03-25T14:40:29.374Z</time></trkpt><trkpt lat="45.6134621" lon="9.3536689"><ele>187.0</ele><time>2026-03-25T14:40:31.374Z</time></trkpt><trkpt lat="45.6133516" lon="9.3536162"><ele>187.0</ele><time>2026-03-25T14:40:33.374Z</time></trkpt><trkpt lat="45.6132384" lon="9.3535845"><ele>187.0</ele><time>2026-03-25T14:40:35.374Z</time></trkpt><trkpt lat="45.6131644" lon="9.3534446"><ele>187.0</ele><time>2026-03-25T14:40:37.374Z</time></trkpt><trkpt lat="45.6131415" lon="9.3533562"><ele>187.0</ele><time>2026-03-25T14:40:38.373Z</time></trkpt><trkpt lat="45.6131187" lon="9.3532632"><ele>187.0</ele><time>2026-03-25T14:40:39.373Z</time></trkpt><trkpt lat="45.613104" lon="9.3531647"><ele>187.0</ele><time>2026-03-25T14:40:40.374Z</time></trkpt><trkpt lat="45.6130892" lon="9.3530676"><ele>187.0</ele><time>2026-03-25T14:40:41.374Z</time></trkpt><trkpt lat="45.6130756" lon="9.352964"><ele>187.0</ele><time>2026-03-25T14:40:42.373Z</time></trkpt><trkpt lat="45.613047" lon="9.3528695"><ele>187.0</ele><time>2026-03-25T14:40:43.374Z</time></trkpt><trkpt lat="45.6130172" lon="9.3527712"><ele>187.0</ele><time>2026-03-25T14:40:44.374Z</time></trkpt><trkpt lat="45.6129831" lon="9.3526763"><ele>187.0</ele><time>2026-03-25T14:40:45.374Z</time></trkpt><trkpt lat="45.6129513" lon="9.3525738"><ele>187.0</ele><time>2026-03-25T14:40:46.374Z</time></trkpt><trkpt lat="45.6129137" lon="9.3524764"><ele>187.0</ele><time>2026-03-25T14:40:47.373Z</time></trkpt><trkpt lat="45.6128853" lon="9.3523757"><ele>187.0</ele><time>2026-03-25T14:40:48.374Z</time></trkpt><trkpt lat="45.6128482" lon="9.3522789"><ele>187.0</ele><time>2026-03-25T14:40:49.374Z</time></trkpt><trkpt lat="45.6128085" lon="9.3521868"><ele>186.83333333333334</ele><time>2026-03-25T14:40:50.374Z</time></trkpt><trkpt lat="45.6127689" lon="9.352086"><ele>186.66666666666669</ele><time>2026-03-25T14:40:51.374Z</time></trkpt><trkpt lat="45.6127294" lon="9.3519892"><ele>186.5</ele><time>2026-03-25T14:40:52.374Z</time></trkpt><trkpt lat="45.6126917" lon="9.3518936"><ele>186.33333333333334</ele><time>2026-03-25T14:40:53.374Z</time></trkpt><trkpt lat="45.6126579" lon="9.3518003"><ele>186.16666666666666</ele><time>2026-03-25T14:40:54.374Z</time></trkpt><trkpt lat="45.6126195" lon="9.3517007"><ele>186.0</ele><time>2026-03-25T14:40:55.374Z</time></trkpt><trkpt lat="45.6125848" lon="9.3516018"><ele>186.0</ele><time>2026-03-25T14:40:56.373Z</time></trkpt><trkpt lat="45.6125512" lon="9.3514956"><ele>186.0</ele><time>2026-03-25T14:40:57.373Z</time></trkpt><trkpt lat="45.612517" lon="9.3513969"><ele>186.0</ele><time>2026-03-25T14:40:58.374Z</time></trkpt><trkpt lat="45.6124812" lon="9.351292"><ele>186.0</ele><time>2026-03-25T14:40:59.374Z</time></trkpt><trkpt lat="45.612448" lon="9.3511874"><ele>186.0</ele><time>2026-03-25T14:41:00.374Z</time></trkpt><trkpt lat="45.6124133" lon="9.3510868"><ele>186.0</ele><time>2026-03-25T14:41:01.374Z</time></trkpt><trkpt lat="45.6123775" lon="9.3509845"><ele>186.16666666666666</ele><time>2026-03-25T14:41:02.374Z</time></trkpt><trkpt lat="45.6123415" lon="9.3508805"><ele>186.33333333333334</ele><time>2026-03-25T14:41:03.374Z</time></trkpt><trkpt lat="45.6123096" lon="9.3507725"><ele>186.5</ele><time>2026-03-25T14:41:04.374Z</time></trkpt><trkpt lat="45.6122777" lon="9.3506652"><ele>186.66666666666669</ele><time>2026-03-25T14:41:05.374Z</time></trkpt><trkpt lat="45.6122449" lon="9.3505618"><ele>186.83333333333334</ele><time>2026-03-25T14:41:06.374Z</time></trkpt><trkpt lat="45.6122162" lon="9.3504521"><ele>187.0</ele><time>2026-03-25T14:41:07.373Z</time></trkpt><trkpt lat="45.6121898" lon="9.3503512"><ele>186.66666666666669</ele><time>2026-03-25T14:41:08.374Z</time></trkpt><trkpt lat="45.6121593" lon="9.3502426"><ele>186.33333333333334</ele><time>2026-03-25T14:41:09.374Z</time></trkpt><trkpt lat="45.612126" lon="9.3501372"><ele>186.0</ele><time>2026-03-25T14:41:10.374Z</time></trkpt><trkpt lat="45.6120992" lon="9.3500316"><ele>185.66666666666666</ele><time>2026-03-25T14:41:11.373Z</time></trkpt><trkpt lat="45.6120695" lon="9.3499249"><ele>185.33333333333331</ele><time>2026-03-25T14:41:12.374Z</time></trkpt><trkpt lat="45.6120467" lon="9.3498165"><ele>185.0</ele><time>2026-03-25T14:41:13.374Z</time></trkpt><trkpt lat="45.6120219" lon="9.3497081"><ele>184.83333333333331</ele><time>2026-03-25T14:41:14.373Z</time></trkpt><trkpt lat="45.6119959" lon="9.349601"><ele>184.66666666666666</ele><time>2026-03-25T14:41:15.373Z</time></trkpt><trkpt lat="45.6119686" lon="9.3494935"><ele>184.5</ele><time>2026-03-25T14:41:16.374Z</time></trkpt><trkpt lat="45.6119427" lon="9.3493887"><ele>184.33333333333334</ele><time>2026-03-25T14:41:17.374Z</time></trkpt><trkpt lat="45.6119277" lon="9.3492772"><ele>184.16666666666669</ele><time>2026-03-25T14:41:18.374Z</time></trkpt><trkpt lat="45.6119037" lon="9.349169"><ele>184.0</ele><time>2026-03-25T14:41:19.374Z</time></trkpt><trkpt lat="45.6118819" lon="9.3490574"><ele>184.0</ele><time>2026-03-25T14:41:20.373Z</time></trkpt><trkpt lat="45.6118601" lon="9.3489505"><ele>184.0</ele><time>2026-03-25T14:41:21.373Z</time></trkpt><trkpt lat="45.6118388" lon="9.3488432"><ele>184.0</ele><time>2026-03-25T14:41:22.374Z</time></trkpt><trkpt lat="45.6118147" lon="9.3487401"><ele>184.0</ele><time>2026-03-25T14:41:23.373Z</time></trkpt><trkpt lat="45.6117923" lon="9.3486334"><ele>184.0</ele><time>2026-03-25T14:41:24.374Z</time></trkpt><trkpt lat="45.611775" lon="9.3485232"><ele>184.0</ele><time>2026-03-25T14:41:25.374Z</time></trkpt><trkpt lat="45.6117523" lon="9.348415"><ele>184.0</ele><time>2026-03-25T14:41:26.374Z</time></trkpt><trkpt lat="45.6117285" lon="9.3483043"><ele>184.0</ele><time>2026-03-25T14:41:27.374Z</time></trkpt><trkpt lat="45.6117109" lon="9.3481926"><ele>184.0</ele><time>2026-03-25T14:41:28.374Z</time></trkpt><trkpt lat="45.6116882" lon="9.3480872"><ele>184.0</ele><time>2026-03-25T14:41:29.374Z</time></trkpt><trkpt lat="45.6116624" lon="9.3479832"><ele>184.0</ele><time>2026-03-25T14:41:30.373Z</time></trkpt><trkpt lat="45.6116402" lon="9.3478753"><ele>184.0</ele><time>2026-03-25T14:41:31.373Z</time></trkpt><trkpt lat="45.611614" lon="9.3477729"><ele>184.5</ele><time>2026-03-25T14:41:32.374Z</time></trkpt><trkpt lat="45.6115887" lon="9.3476757"><ele>185.0</ele><time>2026-03-25T14:41:33.373Z</time></trkpt><trkpt lat="45.6115537" lon="9.3475226"><ele>185.5</ele><time>2026-03-25T14:41:35.374Z</time></trkpt><trkpt lat="45.6115332" lon="9.347425"><ele>186.0</ele><time>2026-03-25T14:41:37.373Z</time></trkpt><trkpt lat="45.6114921" lon="9.3473528"><ele>186.5</ele><time>2026-03-25T14:41:40.374Z</time></trkpt><trkpt lat="45.6114005" lon="9.3473815"><ele>187.0</ele><time>2026-03-25T14:41:42.374Z</time></trkpt><trkpt lat="45.6113006" lon="9.3474319"><ele>187.0</ele><time>2026-03-25T14:41:44.374Z</time></trkpt><trkpt lat="45.6112324" lon="9.347453"><ele>187.0</ele><time>2026-03-25T14:41:45.374Z</time></trkpt><trkpt lat="45.6111219" lon="9.3475057"><ele>187.0</ele><time>2026-03-25T14:41:47.374Z</time></trkpt><trkpt lat="45.611006" lon="9.3475636"><ele>187.0</ele><time>2026-03-25T14:41:49.374Z</time></trkpt><trkpt lat="45.6109409" lon="9.3475946"><ele>187.0</ele><time>2026-03-25T14:41:50.374Z</time></trkpt><trkpt lat="45.6108712" lon="9.347629"><ele>186.6</ele><time>2026-03-25T14:41:51.374Z</time></trkpt><trkpt lat="45.6108025" lon="9.347659"><ele>186.2</ele><time>2026-03-25T14:41:52.373Z</time></trkpt><trkpt lat="45.6106799" lon="9.3476893"><ele>185.8</ele><time>2026-03-25T14:41:54.374Z</time></trkpt><trkpt lat="45.6105574" lon="9.3477217"><ele>185.4</ele><time>2026-03-25T14:41:56.374Z</time></trkpt><trkpt lat="45.6104355" lon="9.3477444"><ele>185.0</ele><time>2026-03-25T14:41:58.374Z</time></trkpt><trkpt lat="45.6103146" lon="9.3477566"><ele>184.99999999999997</ele><time>2026-03-25T14:42:00.374Z</time></trkpt><trkpt lat="45.6102481" lon="9.3477743"><ele>185.0</ele><time>2026-03-25T14:42:01.374Z</time></trkpt><trkpt lat="45.6101767" lon="9.3477887"><ele>185.0</ele><time>2026-03-25T14:42:02.374Z</time></trkpt><trkpt lat="45.6101154" lon="9.3478118"><ele>185.0</ele><time>2026-03-25T14:42:03.374Z</time></trkpt><trkpt lat="45.6100427" lon="9.3478341"><ele>185.0</ele><time>2026-03-25T14:42:04.373Z</time></trkpt><trkpt lat="45.6099766" lon="9.3478482"><ele>184.99999999999997</ele><time>2026-03-25T14:42:05.374Z</time></trkpt><trkpt lat="45.6099014" lon="9.3478644"><ele>185.0</ele><time>2026-03-25T14:42:06.374Z</time></trkpt><trkpt lat="45.6098278" lon="9.347882"><ele>185.0</ele><time>2026-03-25T14:42:07.374Z</time></trkpt><trkpt lat="45.6097504" lon="9.3479002"><ele>185.0</ele><time>2026-03-25T14:42:08.373Z</time></trkpt><trkpt lat="45.6096755" lon="9.3479097"><ele>185.0</ele><time>2026-03-25T14:42:09.374Z</time></trkpt><trkpt lat="45.6096021" lon="9.3479217"><ele>185.0</ele><time>2026-03-25T14:42:10.374Z</time></trkpt><trkpt lat="45.6095242" lon="9.3479174"><ele>185.0</ele><time>2026-03-25T14:42:11.374Z</time></trkpt><trkpt lat="45.6094508" lon="9.3479105"><ele>185.0</ele><time>2026-03-25T14:42:12.374Z</time></trkpt><trkpt lat="45.6093777" lon="9.3478961"><ele>185.0</ele><time>2026-03-25T14:42:13.374Z</time></trkpt><trkpt lat="45.6093002" lon="9.3478693"><ele>185.0</ele><time>2026-03-25T14:42:14.374Z</time></trkpt><trkpt lat="45.6092255" lon="9.3478486"><ele>185.0</ele><time>2026-03-25T14:42:15.374Z</time></trkpt><trkpt lat="45.6091524" lon="9.3478201"><ele>185.0</ele><time>2026-03-25T14:42:16.374Z</time></trkpt><trkpt lat="45.6090742" lon="9.3478015"><ele>185.0</ele><time>2026-03-25T14:42:17.374Z</time></trkpt><trkpt lat="45.6089941" lon="9.3477843"><ele>185.0</ele><time>2026-03-25T14:42:18.373Z</time></trkpt><trkpt lat="45.6089146" lon="9.3477661"><ele>185.0</ele><time>2026-03-25T14:42:19.373Z</time></trkpt><trkpt lat="45.6088405" lon="9.3477445"><ele>185.0</ele><time>2026-03-25T14:42:20.373Z</time></trkpt><trkpt lat="45.6087616" lon="9.3477246"><ele>185.0</ele><time>2026-03-25T14:42:21.374Z</time></trkpt><trkpt lat="45.6086789" lon="9.3477074"><ele>185.0</ele><time>2026-03-25T14:42:22.373Z</time></trkpt><trkpt lat="45.6086007" lon="9.347688"><ele>185.0</ele><time>2026-03-25T14:42:23.374Z</time></trkpt><trkpt lat="45.6085216" lon="9.3476672"><ele>185.0</ele><time>2026-03-25T14:42:24.374Z</time></trkpt><trkpt lat="45.6084463" lon="9.3476442"><ele>185.0</ele><time>2026-03-25T14:42:25.374Z</time></trkpt><trkpt lat="45.6083704" lon="9.3476201"><ele>185.0</ele><time>2026-03-25T14:42:26.374Z</time></trkpt><trkpt lat="45.6082905" lon="9.347593"><ele>185.0</ele><time>2026-03-25T14:42:27.373Z</time></trkpt><trkpt lat="45.6082114" lon="9.3475696"><ele>185.0</ele><time>2026-03-25T14:42:28.374Z</time></trkpt><trkpt lat="45.6081355" lon="9.347527"><ele>185.0</ele><time>2026-03-25T14:42:29.373Z</time></trkpt><trkpt lat="45.6080549" lon="9.3474861"><ele>185.0</ele><time>2026-03-25T14:42:30.374Z</time></trkpt><trkpt lat="45.6079848" lon="9.347436"><ele>185.0</ele><time>2026-03-25T14:42:31.374Z</time></trkpt><trkpt lat="45.6079103" lon="9.3473863"><ele>185.0</ele><time>2026-03-25T14:42:32.373Z</time></trkpt><trkpt lat="45.6078305" lon="9.3473473"><ele>185.0</ele><time>2026-03-25T14:42:33.374Z</time></trkpt><trkpt lat="45.6077604" lon="9.3472932"><ele>185.0</ele><time>2026-03-25T14:42:34.374Z</time></trkpt><trkpt lat="45.6076926" lon="9.3472367"><ele>185.0</ele><time>2026-03-25T14:42:35.374Z</time></trkpt><trkpt lat="45.6076197" lon="9.3471936"><ele>185.0</ele><time>2026-03-25T14:42:36.374Z</time></trkpt><trkpt lat="45.6075497" lon="9.3471432"><ele>185.0</ele><time>2026-03-25T14:42:37.374Z</time></trkpt><trkpt lat="45.6074715" lon="9.3470965"><ele>185.0</ele><time>2026-03-25T14:42:38.374Z</time></trkpt><trkpt lat="45.6073926" lon="9.347041"><ele>185.0</ele><time>2026-03-25T14:42:39.374Z</time></trkpt><trkpt lat="45.6073145" lon="9.3469899"><ele>185.0</ele><time>2026-03-25T14:42:40.374Z</time></trkpt><trkpt lat="45.6072419" lon="9.3469433"><ele>185.0</ele><time>2026-03-25T14:42:41.374Z</time></trkpt><trkpt lat="45.607159" lon="9.3469038"><ele>185.0</ele><time>2026-03-25T14:42:42.373Z</time></trkpt><trkpt lat="45.6070701" lon="9.3468947"><ele>185.0</ele><time>2026-03-25T14:42:43.374Z</time></trkpt><trkpt lat="45.6069848" lon="9.3468983"><ele>185.0</ele><time>2026-03-25T14:42:44.374Z</time></trkpt><trkpt lat="45.6068996" lon="9.346911"><ele>185.0</ele><time>2026-03-25T14:42:45.374Z</time></trkpt><trkpt lat="45.6068169" lon="9.3469475"><ele>185.0</ele><time>2026-03-25T14:42:46.374Z</time></trkpt><trkpt lat="45.6067394" lon="9.3469798"><ele>185.0</ele><time>2026-03-25T14:42:47.374Z</time></trkpt><trkpt lat="45.6066663" lon="9.347032"><ele>185.0</ele><time>2026-03-25T14:42:48.374Z</time></trkpt><trkpt lat="45.6065969" lon="9.3470719"><ele>185.0</ele><time>2026-03-25T14:42:49.374Z</time></trkpt><trkpt lat="45.6065248" lon="9.3471169"><ele>185.0</ele><time>2026-03-25T14:42:50.374Z</time></trkpt><trkpt lat="45.606454" lon="9.3471596"><ele>185.0</ele><time>2026-03-25T14:42:51.374Z</time></trkpt><trkpt lat="45.6063849" lon="9.3471954"><ele>185.0</ele><time>2026-03-25T14:42:52.374Z</time></trkpt><trkpt lat="45.6063103" lon="9.3472299"><ele>185.0</ele><time>2026-03-25T14:42:53.374Z</time></trkpt><trkpt lat="45.6062398" lon="9.3472467"><ele>185.0</ele><time>2026-03-25T14:42:54.374Z</time></trkpt><trkpt lat="45.6061688" lon="9.3472637"><ele>184.6</ele><time>2026-03-25T14:42:55.374Z</time></trkpt><trkpt lat="45.6060737" lon="9.3472692"><ele>184.2</ele><time>2026-03-25T14:42:57.374Z</time></trkpt><trkpt lat="45.6059994" lon="9.3472371"><ele>183.8</ele><time>2026-03-25T14:42:59.374Z</time></trkpt><trkpt lat="45.6059197" lon="9.3471367"><ele>183.4</ele><time>2026-03-25T14:43:01.374Z</time></trkpt><trkpt lat="45.6058935" lon="9.3469789"><ele>183.0</ele><time>2026-03-25T14:43:03.374Z</time></trkpt><trkpt lat="45.605907" lon="9.3467987"><ele>183.0</ele><time>2026-03-25T14:43:05.373Z</time></trkpt><trkpt lat="45.6059207" lon="9.3467004"><ele>183.0</ele><time>2026-03-25T14:43:06.374Z</time></trkpt><trkpt lat="45.6059308" lon="9.3466014"><ele>183.0</ele><time>2026-03-25T14:43:07.373Z</time></trkpt><trkpt lat="45.6059434" lon="9.3465039"><ele>183.0</ele><time>2026-03-25T14:43:08.374Z</time></trkpt><trkpt lat="45.6059548" lon="9.3464099"><ele>183.0</ele><time>2026-03-25T14:43:09.374Z</time></trkpt><trkpt lat="45.6059696" lon="9.3463116"><ele>183.0</ele><time>2026-03-25T14:43:10.373Z</time></trkpt><trkpt lat="45.6059845" lon="9.3462119"><ele>183.0</ele><time>2026-03-25T14:43:11.374Z</time></trkpt><trkpt lat="45.6060002" lon="9.3461208"><ele>183.28571428571428</ele><time>2026-03-25T14:43:12.374Z</time></trkpt><trkpt lat="45.6060123" lon="9.3460193"><ele>183.57142857142858</ele><time>2026-03-25T14:43:13.374Z</time></trkpt><trkpt lat="45.6060273" lon="9.3459186"><ele>183.85714285714283</ele><time>2026-03-25T14:43:14.374Z</time></trkpt><trkpt lat="45.6060401" lon="9.3458204"><ele>184.14285714285714</ele><time>2026-03-25T14:43:15.374Z</time></trkpt><trkpt lat="45.6060573" lon="9.345715"><ele>184.42857142857142</ele><time>2026-03-25T14:43:16.374Z</time></trkpt><trkpt lat="45.6060701" lon="9.3456099"><ele>184.7142857142857</ele><time>2026-03-25T14:43:17.374Z</time></trkpt><trkpt lat="45.6060866" lon="9.3455122"><ele>185.0</ele><time>2026-03-25T14:43:18.374Z</time></trkpt><trkpt lat="45.6061006" lon="9.345407"><ele>184.99999999999997</ele><time>2026-03-25T14:43:19.373Z</time></trkpt><trkpt lat="45.6061184" lon="9.3453043"><ele>185.0</ele><time>2026-03-25T14:43:20.374Z</time></trkpt><trkpt lat="45.6061308" lon="9.3452117"><ele>185.0</ele><time>2026-03-25T14:43:21.374Z</time></trkpt><trkpt lat="45.6061441" lon="9.3451047"><ele>185.0</ele><time>2026-03-25T14:43:22.374Z</time></trkpt><trkpt lat="45.6061534" lon="9.3450009"><ele>185.0</ele><time>2026-03-25T14:43:23.374Z</time></trkpt><trkpt lat="45.6061684" lon="9.3448959"><ele>184.99999999999997</ele><time>2026-03-25T14:43:24.374Z</time></trkpt><trkpt lat="45.6061819" lon="9.3447963"><ele>185.0</ele><time>2026-03-25T14:43:25.374Z</time></trkpt><trkpt lat="45.6062001" lon="9.3446957"><ele>184.99999999999997</ele><time>2026-03-25T14:43:26.373Z</time></trkpt><trkpt lat="45.6062142" lon="9.3445837"><ele>185.0</ele><time>2026-03-25T14:43:27.374Z</time></trkpt><trkpt lat="45.6062284" lon="9.3444816"><ele>185.0</ele><time>2026-03-25T14:43:28.374Z</time></trkpt><trkpt lat="45.6062402" lon="9.3443798"><ele>185.0</ele><time>2026-03-25T14:43:29.374Z</time></trkpt><trkpt lat="45.6062554" lon="9.3442735"><ele>185.0</ele><time>2026-03-25T14:43:30.373Z</time></trkpt><trkpt lat="45.6062677" lon="9.3441697"><ele>184.99999999999997</ele><time>2026-03-25T14:43:31.374Z</time></trkpt><trkpt lat="45.6062871" lon="9.3440707"><ele>185.0</ele><time>2026-03-25T14:43:32.374Z</time></trkpt><trkpt lat="45.6063011" lon="9.3439651"><ele>184.83333333333331</ele><time>2026-03-25T14:43:33.374Z</time></trkpt><trkpt lat="45.6063163" lon="9.3438613"><ele>184.66666666666666</ele><time>2026-03-25T14:43:34.373Z</time></trkpt><trkpt lat="45.606338" lon="9.3437584"><ele>184.5</ele><time>2026-03-25T14:43:35.374Z</time></trkpt><trkpt lat="45.6063551" lon="9.3436489"><ele>184.33333333333334</ele><time>2026-03-25T14:43:36.374Z</time></trkpt><trkpt lat="45.6063802" lon="9.3435404"><ele>184.16666666666669</ele><time>2026-03-25T14:43:37.374Z</time></trkpt><trkpt lat="45.6063892" lon="9.3434326"><ele>184.0</ele><time>2026-03-25T14:43:38.374Z</time></trkpt><trkpt lat="45.6064065" lon="9.343321"><ele>184.0</ele><time>2026-03-25T14:43:39.374Z</time></trkpt><trkpt lat="45.6064202" lon="9.3432169"><ele>184.0</ele><time>2026-03-25T14:43:40.374Z</time></trkpt><trkpt lat="45.6064335" lon="9.3431075"><ele>184.0</ele><time>2026-03-25T14:43:41.374Z</time></trkpt><trkpt lat="45.6064476" lon="9.342996"><ele>184.0</ele><time>2026-03-25T14:43:42.374Z</time></trkpt><trkpt lat="45.6064641" lon="9.3428854"><ele>184.0</ele><time>2026-03-25T14:43:43.374Z</time></trkpt><trkpt lat="45.6064874" lon="9.3427813"><ele>184.0</ele><time>2026-03-25T14:43:44.374Z</time></trkpt><trkpt lat="45.6065065" lon="9.3426755"><ele>184.0</ele><time>2026-03-25T14:43:45.374Z</time></trkpt><trkpt lat="45.6065209" lon="9.3425653"><ele>184.0</ele><time>2026-03-25T14:43:46.374Z</time></trkpt><trkpt lat="45.6065355" lon="9.3424522"><ele>184.0</ele><time>2026-03-25T14:43:47.374Z</time></trkpt><trkpt lat="45.6065546" lon="9.342341"><ele>184.0</ele><time>2026-03-25T14:43:48.374Z</time></trkpt><trkpt lat="45.606568" lon="9.3422304"><ele>184.0</ele><time>2026-03-25T14:43:49.373Z</time></trkpt><trkpt lat="45.6065884" lon="9.3421184"><ele>184.0</ele><time>2026-03-25T14:43:50.374Z</time></trkpt><trkpt lat="45.6066018" lon="9.3420087"><ele>183.66666666666669</ele><time>2026-03-25T14:43:51.374Z</time></trkpt><trkpt lat="45.6066238" lon="9.3418943"><ele>183.33333333333334</ele><time>2026-03-25T14:43:52.374Z</time></trkpt><trkpt lat="45.6066377" lon="9.3417821"><ele>183.0</ele><time>2026-03-25T14:43:53.373Z</time></trkpt><trkpt lat="45.6066545" lon="9.34167"><ele>182.66666666666666</ele><time>2026-03-25T14:43:54.373Z</time></trkpt><trkpt lat="45.6066683" lon="9.3415577"><ele>182.33333333333331</ele><time>2026-03-25T14:43:55.373Z</time></trkpt><trkpt lat="45.6066826" lon="9.3414493"><ele>182.0</ele><time>2026-03-25T14:43:56.374Z</time></trkpt><trkpt lat="45.6066989" lon="9.3413349"><ele>182.0</ele><time>2026-03-25T14:43:57.374Z</time></trkpt><trkpt lat="45.6067111" lon="9.341222"><ele>182.0</ele><time>2026-03-25T14:43:58.374Z</time></trkpt><trkpt lat="45.6067243" lon="9.3411118"><ele>182.0</ele><time>2026-03-25T14:43:59.374Z</time></trkpt><trkpt lat="45.6067402" lon="9.3409998"><ele>182.0</ele><time>2026-03-25T14:44:00.374Z</time></trkpt><trkpt lat="45.6067561" lon="9.3408904"><ele>182.0</ele><time>2026-03-25T14:44:01.374Z</time></trkpt><trkpt lat="45.6067719" lon="9.3407811"><ele>182.0</ele><time>2026-03-25T14:44:02.373Z</time></trkpt><trkpt lat="45.6067901" lon="9.3406696"><ele>182.0</ele><time>2026-03-25T14:44:03.374Z</time></trkpt><trkpt lat="45.6068052" lon="9.340557"><ele>182.0</ele><time>2026-03-25T14:44:04.374Z</time></trkpt><trkpt lat="45.6068211" lon="9.3404424"><ele>182.0</ele><time>2026-03-25T14:44:05.373Z</time></trkpt><trkpt lat="45.6068355" lon="9.340328"><ele>182.0</ele><time>2026-03-25T14:44:06.373Z</time></trkpt><trkpt lat="45.6068543" lon="9.3402146"><ele>182.0</ele><time>2026-03-25T14:44:07.374Z</time></trkpt><trkpt lat="45.6068703" lon="9.3401042"><ele>182.0</ele><time>2026-03-25T14:44:08.373Z</time></trkpt><trkpt lat="45.6068864" lon="9.3399892"><ele>182.16666666666666</ele><time>2026-03-25T14:44:09.374Z</time></trkpt><trkpt lat="45.6069009" lon="9.3398765"><ele>182.33333333333331</ele><time>2026-03-25T14:44:10.373Z</time></trkpt><trkpt lat="45.6069204" lon="9.3397629"><ele>182.5</ele><time>2026-03-25T14:44:11.374Z</time></trkpt><trkpt lat="45.6069346" lon="9.3396538"><ele>182.66666666666666</ele><time>2026-03-25T14:44:12.374Z</time></trkpt><trkpt lat="45.6069495" lon="9.3395421"><ele>182.83333333333334</ele><time>2026-03-25T14:44:13.374Z</time></trkpt><trkpt lat="45.6069673" lon="9.3394233"><ele>183.0</ele><time>2026-03-25T14:44:14.374Z</time></trkpt><trkpt lat="45.606984" lon="9.3393103"><ele>183.0</ele><time>2026-03-25T14:44:15.374Z</time></trkpt><trkpt lat="45.6069997" lon="9.339198"><ele>183.0</ele><time>2026-03-25T14:44:16.374Z</time></trkpt><trkpt lat="45.6070187" lon="9.3390944"><ele>183.0</ele><time>2026-03-25T14:44:17.373Z</time></trkpt><trkpt lat="45.6070319" lon="9.3389773"><ele>183.0</ele><time>2026-03-25T14:44:18.373Z</time></trkpt><trkpt lat="45.6070489" lon="9.3388609"><ele>183.0</ele><time>2026-03-25T14:44:19.374Z</time></trkpt><trkpt lat="45.6070666" lon="9.3387476"><ele>183.0</ele><time>2026-03-25T14:44:20.374Z</time></trkpt><trkpt lat="45.6070848" lon="9.3386348"><ele>183.16666666666666</ele><time>2026-03-25T14:44:21.374Z</time></trkpt><trkpt lat="45.6071058" lon="9.3385115"><ele>183.33333333333334</ele><time>2026-03-25T14:44:22.374Z</time></trkpt><trkpt lat="45.6071237" lon="9.3383981"><ele>183.5</ele><time>2026-03-25T14:44:23.374Z</time></trkpt><trkpt lat="45.6071409" lon="9.3382822"><ele>183.66666666666669</ele><time>2026-03-25T14:44:24.374Z</time></trkpt><trkpt lat="45.60716" lon="9.3381714"><ele>183.83333333333334</ele><time>2026-03-25T14:44:25.374Z</time></trkpt><trkpt lat="45.6071781" lon="9.3380538"><ele>184.0</ele><time>2026-03-25T14:44:26.374Z</time></trkpt><trkpt lat="45.6071961" lon="9.3379363"><ele>184.0</ele><time>2026-03-25T14:44:27.374Z</time></trkpt><trkpt lat="45.6072093" lon="9.3378236"><ele>184.0</ele><time>2026-03-25T14:44:28.373Z</time></trkpt><trkpt lat="45.6072262" lon="9.3377079"><ele>184.0</ele><time>2026-03-25T14:44:29.374Z</time></trkpt><trkpt lat="45.6072461" lon="9.3375935"><ele>184.0</ele><time>2026-03-25T14:44:30.374Z</time></trkpt><trkpt lat="45.6072666" lon="9.3374808"><ele>184.0</ele><time>2026-03-25T14:44:31.374Z</time></trkpt><trkpt lat="45.6072822" lon="9.3373748"><ele>184.0</ele><time>2026-03-25T14:44:32.374Z</time></trkpt><trkpt lat="45.6072965" lon="9.3372534"><ele>183.66666666666669</ele><time>2026-03-25T14:44:33.373Z</time></trkpt><trkpt lat="45.6073142" lon="9.3371337"><ele>183.33333333333334</ele><time>2026-03-25T14:44:34.374Z</time></trkpt><trkpt lat="45.6073297" lon="9.3370212"><ele>183.0</ele><time>2026-03-25T14:44:35.374Z</time></trkpt><trkpt lat="45.6073457" lon="9.3369056"><ele>182.66666666666666</ele><time>2026-03-25T14:44:36.374Z</time></trkpt><trkpt lat="45.6073626" lon="9.3367865"><ele>182.33333333333331</ele><time>2026-03-25T14:44:37.374Z</time></trkpt><trkpt lat="45.6073769" lon="9.3366697"><ele>182.0</ele><time>2026-03-25T14:44:38.373Z</time></trkpt><trkpt lat="45.6073938" lon="9.3365633"><ele>182.0</ele><time>2026-03-25T14:44:39.374Z</time></trkpt><trkpt lat="45.6074112" lon="9.3364445"><ele>182.0</ele><time>2026-03-25T14:44:40.373Z</time></trkpt><trkpt lat="45.6074252" lon="9.3363347"><ele>182.0</ele><time>2026-03-25T14:44:41.374Z</time></trkpt><trkpt lat="45.6074467" lon="9.3362236"><ele>182.0</ele><time>2026-03-25T14:44:42.374Z</time></trkpt><trkpt lat="45.6074658" lon="9.3361091"><ele>182.0</ele><time>2026-03-25T14:44:43.374Z</time></trkpt><trkpt lat="45.6074808" lon="9.33599"><ele>182.0</ele><time>2026-03-25T14:44:44.374Z</time></trkpt><trkpt lat="45.6074971" lon="9.3358765"><ele>182.0</ele><time>2026-03-25T14:44:45.373Z</time></trkpt><trkpt lat="45.6075158" lon="9.3357589"><ele>182.0</ele><time>2026-03-25T14:44:46.374Z</time></trkpt><trkpt lat="45.6075312" lon="9.3356411"><ele>182.0</ele><time>2026-03-25T14:44:47.374Z</time></trkpt><trkpt lat="45.6075552" lon="9.3355232"><ele>182.0</ele><time>2026-03-25T14:44:48.374Z</time></trkpt><trkpt lat="45.6075715" lon="9.335408"><ele>182.0</ele><time>2026-03-25T14:44:49.373Z</time></trkpt><trkpt lat="45.6075858" lon="9.3352975"><ele>182.0</ele><time>2026-03-25T14:44:50.373Z</time></trkpt><trkpt lat="45.607603" lon="9.3351745"><ele>182.16666666666666</ele><time>2026-03-25T14:44:51.373Z</time></trkpt><trkpt lat="45.6076192" lon="9.3350623"><ele>182.33333333333331</ele><time>2026-03-25T14:44:52.374Z</time></trkpt><trkpt lat="45.6076373" lon="9.3349469"><ele>182.5</ele><time>2026-03-25T14:44:53.374Z</time></trkpt><trkpt lat="45.6076525" lon="9.3348309"><ele>182.66666666666666</ele><time>2026-03-25T14:44:54.374Z</time></trkpt><trkpt lat="45.6076675" lon="9.3347184"><ele>182.83333333333334</ele><time>2026-03-25T14:44:55.373Z</time></trkpt><trkpt lat="45.6076823" lon="9.3345951"><ele>183.0</ele><time>2026-03-25T14:44:56.374Z</time></trkpt><trkpt lat="45.6076974" lon="9.3344725"><ele>183.0</ele><time>2026-03-25T14:44:57.373Z</time></trkpt><trkpt lat="45.6077092" lon="9.3343576"><ele>183.0</ele><time>2026-03-25T14:44:58.373Z</time></trkpt><trkpt lat="45.6077279" lon="9.3342494"><ele>183.0</ele><time>2026-03-25T14:44:59.373Z</time></trkpt><trkpt lat="45.6077465" lon="9.3341382"><ele>183.0</ele><time>2026-03-25T14:45:00.374Z</time></trkpt><trkpt lat="45.6077616" lon="9.3340196"><ele>183.0</ele><time>2026-03-25T14:45:01.373Z</time></trkpt><trkpt lat="45.6077718" lon="9.3338987"><ele>183.0</ele><time>2026-03-25T14:45:02.374Z</time></trkpt><trkpt lat="45.6077857" lon="9.3337852"><ele>183.0</ele><time>2026-03-25T14:45:03.374Z</time></trkpt><trkpt lat="45.6078027" lon="9.3336682"><ele>183.0</ele><time>2026-03-25T14:45:04.373Z</time></trkpt><trkpt lat="45.6078167" lon="9.3335519"><ele>183.0</ele><time>2026-03-25T14:45:05.373Z</time></trkpt><trkpt lat="45.6078355" lon="9.3334363"><ele>183.0</ele><time>2026-03-25T14:45:06.374Z</time></trkpt><trkpt lat="45.6078528" lon="9.3333189"><ele>183.0</ele><time>2026-03-25T14:45:07.373Z</time></trkpt><trkpt lat="45.6078684" lon="9.3332023"><ele>183.0</ele><time>2026-03-25T14:45:08.374Z</time></trkpt><trkpt lat="45.6078863" lon="9.3330904"><ele>182.66666666666666</ele><time>2026-03-25T14:45:09.374Z</time></trkpt><trkpt lat="45.6079025" lon="9.3329718"><ele>182.33333333333334</ele><time>2026-03-25T14:45:10.374Z</time></trkpt><trkpt lat="45.607919" lon="9.3328617"><ele>182.0</ele><time>2026-03-25T14:45:11.374Z</time></trkpt><trkpt lat="45.6079364" lon="9.3327479"><ele>181.66666666666669</ele><time>2026-03-25T14:45:12.374Z</time></trkpt><trkpt lat="45.6079566" lon="9.3326362"><ele>181.33333333333334</ele><time>2026-03-25T14:45:13.374Z</time></trkpt><trkpt lat="45.6079763" lon="9.3325226"><ele>181.0</ele><time>2026-03-25T14:45:14.374Z</time></trkpt><trkpt lat="45.6079949" lon="9.3324097"><ele>181.0</ele><time>2026-03-25T14:45:15.374Z</time></trkpt><trkpt lat="45.6080162" lon="9.3322873"><ele>181.0</ele><time>2026-03-25T14:45:16.374Z</time></trkpt><trkpt lat="45.6080342" lon="9.3321774"><ele>181.0</ele><time>2026-03-25T14:45:17.374Z</time></trkpt><trkpt lat="45.6080518" lon="9.3320538"><ele>181.0</ele><time>2026-03-25T14:45:18.373Z</time></trkpt><trkpt lat="45.6080714" lon="9.3319352"><ele>181.0</ele><time>2026-03-25T14:45:19.374Z</time></trkpt><trkpt lat="45.6080853" lon="9.3318165"><ele>181.0</ele><time>2026-03-25T14:45:20.374Z</time></trkpt><trkpt lat="45.6081064" lon="9.3316993"><ele>181.16666666666669</ele><time>2026-03-25T14:45:21.374Z</time></trkpt><trkpt lat="45.6081393" lon="9.331587"><ele>181.33333333333334</ele><time>2026-03-25T14:45:22.374Z</time></trkpt><trkpt lat="45.6081726" lon="9.3314863"><ele>181.5</ele><time>2026-03-25T14:45:23.374Z</time></trkpt><trkpt lat="45.6082148" lon="9.3313859"><ele>181.66666666666666</ele><time>2026-03-25T14:45:24.374Z</time></trkpt><trkpt lat="45.6082701" lon="9.3312866"><ele>181.83333333333331</ele><time>2026-03-25T14:45:25.374Z</time></trkpt><trkpt lat="45.6083225" lon="9.3311946"><ele>182.0</ele><time>2026-03-25T14:45:26.374Z</time></trkpt><trkpt lat="45.6083795" lon="9.3311249"><ele>182.0</ele><time>2026-03-25T14:45:27.374Z</time></trkpt><trkpt lat="45.6084329" lon="9.3310539"><ele>182.0</ele><time>2026-03-25T14:45:28.374Z</time></trkpt><trkpt lat="45.6084914" lon="9.3309795"><ele>182.0</ele><time>2026-03-25T14:45:29.374Z</time></trkpt><trkpt lat="45.608553" lon="9.3308988"><ele>182.0</ele><time>2026-03-25T14:45:30.374Z</time></trkpt><trkpt lat="45.6086088" lon="9.3308037"><ele>182.0</ele><time>2026-03-25T14:45:31.374Z</time></trkpt><trkpt lat="45.6086435" lon="9.3306938"><ele>182.0</ele><time>2026-03-25T14:45:32.374Z</time></trkpt><trkpt lat="45.6086635" lon="9.3305726"><ele>182.16666666666666</ele><time>2026-03-25T14:45:33.374Z</time></trkpt><trkpt lat="45.6086623" lon="9.3304464"><ele>182.33333333333331</ele><time>2026-03-25T14:45:34.374Z</time></trkpt><trkpt lat="45.6086436" lon="9.3303312"><ele>182.5</ele><time>2026-03-25T14:45:35.374Z</time></trkpt><trkpt lat="45.6086052" lon="9.3302182"><ele>182.66666666666666</ele><time>2026-03-25T14:45:36.374Z</time></trkpt><trkpt lat="45.6085558" lon="9.3301188"><ele>182.83333333333334</ele><time>2026-03-25T14:45:37.374Z</time></trkpt><trkpt lat="45.6084888" lon="9.3300367"><ele>183.0</ele><time>2026-03-25T14:45:38.374Z</time></trkpt><trkpt lat="45.6084174" lon="9.3299777"><ele>183.0</ele><time>2026-03-25T14:45:39.374Z</time></trkpt><trkpt lat="45.6083361" lon="9.3299479"><ele>183.0</ele><time>2026-03-25T14:45:40.373Z</time></trkpt><trkpt lat="45.6082544" lon="9.3299406"><ele>183.0</ele><time>2026-03-25T14:45:41.373Z</time></trkpt><trkpt lat="45.6081679" lon="9.3299571"><ele>183.0</ele><time>2026-03-25T14:45:42.374Z</time></trkpt><trkpt lat="45.608085" lon="9.3299815"><ele>183.0</ele><time>2026-03-25T14:45:43.374Z</time></trkpt><trkpt lat="45.6080023" lon="9.3300004"><ele>183.0</ele><time>2026-03-25T14:45:44.374Z</time></trkpt><trkpt lat="45.6079233" lon="9.3300101"><ele>183.0</ele><time>2026-03-25T14:45:45.373Z</time></trkpt><trkpt lat="45.6078396" lon="9.3300209"><ele>183.0</ele><time>2026-03-25T14:45:46.374Z</time></trkpt><trkpt lat="45.607752" lon="9.3300179"><ele>183.0</ele><time>2026-03-25T14:45:47.374Z</time></trkpt><trkpt lat="45.607666" lon="9.3300017"><ele>183.0</ele><time>2026-03-25T14:45:48.374Z</time></trkpt><trkpt lat="45.6075864" lon="9.329973"><ele>183.0</ele><time>2026-03-25T14:45:49.373Z</time></trkpt><trkpt lat="45.6075065" lon="9.3299322"><ele>183.0</ele><time>2026-03-25T14:45:50.374Z</time></trkpt><trkpt lat="45.6074228" lon="9.3298839"><ele>183.16666666666666</ele><time>2026-03-25T14:45:51.374Z</time></trkpt><trkpt lat="45.6073422" lon="9.329836"><ele>183.33333333333334</ele><time>2026-03-25T14:45:52.374Z</time></trkpt><trkpt lat="45.6072589" lon="9.3297846"><ele>183.5</ele><time>2026-03-25T14:45:53.374Z</time></trkpt><trkpt lat="45.6071755" lon="9.3297374"><ele>183.66666666666669</ele><time>2026-03-25T14:45:54.374Z</time></trkpt><trkpt lat="45.6070986" lon="9.329682"><ele>183.83333333333334</ele><time>2026-03-25T14:45:55.374Z</time></trkpt><trkpt lat="45.6070176" lon="9.3296303"><ele>184.0</ele><time>2026-03-25T14:45:56.374Z</time></trkpt><trkpt lat="45.6069334" lon="9.3295814"><ele>183.16666666666669</ele><time>2026-03-25T14:45:57.373Z</time></trkpt><trkpt lat="45.6068534" lon="9.32953"><ele>182.33333333333334</ele><time>2026-03-25T14:45:58.374Z</time></trkpt><trkpt lat="45.6067682" lon="9.3294764"><ele>181.5</ele><time>2026-03-25T14:45:59.373Z</time></trkpt><trkpt lat="45.6066888" lon="9.329424"><ele>180.66666666666666</ele><time>2026-03-25T14:46:00.373Z</time></trkpt><trkpt lat="45.6066083" lon="9.329363"><ele>179.83333333333331</ele><time>2026-03-25T14:46:01.374Z</time></trkpt><trkpt lat="45.606534" lon="9.3293016"><ele>179.0</ele><time>2026-03-25T14:46:02.373Z</time></trkpt><trkpt lat="45.6064582" lon="9.3292334"><ele>179.0</ele><time>2026-03-25T14:46:03.374Z</time></trkpt><trkpt lat="45.6063817" lon="9.3291639"><ele>179.0</ele><time>2026-03-25T14:46:04.374Z</time></trkpt><trkpt lat="45.6063089" lon="9.329087"><ele>179.0</ele><time>2026-03-25T14:46:05.374Z</time></trkpt><trkpt lat="45.6062328" lon="9.3290054"><ele>179.0</ele><time>2026-03-25T14:46:06.374Z</time></trkpt><trkpt lat="45.6061606" lon="9.3289229"><ele>179.0</ele><time>2026-03-25T14:46:07.374Z</time></trkpt><trkpt lat="45.6060906" lon="9.3288332"><ele>178.6</ele><time>2026-03-25T14:46:08.373Z</time></trkpt><trkpt lat="45.6060181" lon="9.328752"><ele>178.2</ele><time>2026-03-25T14:46:09.374Z</time></trkpt><trkpt lat="45.6059499" lon="9.3286658"><ele>177.79999999999998</ele><time>2026-03-25T14:46:10.374Z</time></trkpt><trkpt lat="45.6058902" lon="9.3285653"><ele>177.39999999999998</ele><time>2026-03-25T14:46:11.373Z</time></trkpt><trkpt lat="45.6058301" lon="9.3284761"><ele>177.0</ele><time>2026-03-25T14:46:12.374Z</time></trkpt><trkpt lat="45.6057737" lon="9.3283778"><ele>177.0</ele><time>2026-03-25T14:46:13.374Z</time></trkpt><trkpt lat="45.6057186" lon="9.3282765"><ele>177.0</ele><time>2026-03-25T14:46:14.374Z</time></trkpt><trkpt lat="45.6056655" lon="9.3281724"><ele>177.0</ele><time>2026-03-25T14:46:15.374Z</time></trkpt><trkpt lat="45.605613" lon="9.3280623"><ele>177.0</ele><time>2026-03-25T14:46:16.374Z</time></trkpt><trkpt lat="45.6055663" lon="9.3279567"><ele>177.0</ele><time>2026-03-25T14:46:17.373Z</time></trkpt><trkpt lat="45.6055148" lon="9.3278432"><ele>177.0</ele><time>2026-03-25T14:46:18.374Z</time></trkpt><trkpt lat="45.6054692" lon="9.3277276"><ele>177.0</ele><time>2026-03-25T14:46:19.374Z</time></trkpt><trkpt lat="45.6054245" lon="9.3276154"><ele>177.0</ele><time>2026-03-25T14:46:20.373Z</time></trkpt><trkpt lat="45.6053822" lon="9.3275069"><ele>177.0</ele><time>2026-03-25T14:46:21.373Z</time></trkpt><trkpt lat="45.6053545" lon="9.3273913"><ele>177.0</ele><time>2026-03-25T14:46:22.373Z</time></trkpt><trkpt lat="45.6053209" lon="9.327274"><ele>177.0</ele><time>2026-03-25T14:46:23.374Z</time></trkpt><trkpt lat="45.6052859" lon="9.3271448"><ele>177.0</ele><time>2026-03-25T14:46:24.374Z</time></trkpt><trkpt lat="45.6052535" lon="9.3270207"><ele>177.0</ele><time>2026-03-25T14:46:25.374Z</time></trkpt><trkpt lat="45.6052127" lon="9.3268924"><ele>177.0</ele><time>2026-03-25T14:46:26.374Z</time></trkpt><trkpt lat="45.6051878" lon="9.326779"><ele>177.0</ele><time>2026-03-25T14:46:27.374Z</time></trkpt><trkpt lat="45.6051525" lon="9.3266511"><ele>177.0</ele><time>2026-03-25T14:46:28.374Z</time></trkpt><trkpt lat="45.6051151" lon="9.3265388"><ele>177.0</ele><time>2026-03-25T14:46:29.374Z</time></trkpt><trkpt lat="45.605081" lon="9.3264274"><ele>177.0</ele><time>2026-03-25T14:46:30.374Z</time></trkpt><trkpt lat="45.6050496" lon="9.3263096"><ele>177.0</ele><time>2026-03-25T14:46:31.373Z</time></trkpt><trkpt lat="45.6050168" lon="9.3261946"><ele>177.0</ele><time>2026-03-25T14:46:32.373Z</time></trkpt><trkpt lat="45.6049837" lon="9.3260806"><ele>177.0</ele><time>2026-03-25T14:46:33.374Z</time></trkpt><trkpt lat="45.6049515" lon="9.3259684"><ele>177.0</ele><time>2026-03-25T14:46:34.374Z</time></trkpt><trkpt lat="45.6049217" lon="9.3258433"><ele>177.0</ele><time>2026-03-25T14:46:35.374Z</time></trkpt><trkpt lat="45.6048879" lon="9.3257245"><ele>177.0</ele><time>2026-03-25T14:46:36.373Z</time></trkpt><trkpt lat="45.6048536" lon="9.3256103"><ele>177.0</ele><time>2026-03-25T14:46:37.374Z</time></trkpt><trkpt lat="45.6048211" lon="9.325495"><ele>177.0</ele><time>2026-03-25T14:46:38.374Z</time></trkpt><trkpt lat="45.6047845" lon="9.3253756"><ele>177.0</ele><time>2026-03-25T14:46:39.374Z</time></trkpt><trkpt lat="45.604755" lon="9.3252627"><ele>177.0</ele><time>2026-03-25T14:46:40.374Z</time></trkpt><trkpt lat="45.604724" lon="9.3251489"><ele>177.0</ele><time>2026-03-25T14:46:41.374Z</time></trkpt><trkpt lat="45.6046926" lon="9.3250359"><ele>177.0</ele><time>2026-03-25T14:46:42.374Z</time></trkpt><trkpt lat="45.6046593" lon="9.3249174"><ele>177.0</ele><time>2026-03-25T14:46:43.374Z</time></trkpt><trkpt lat="45.6046254" lon="9.324809"><ele>177.0</ele><time>2026-03-25T14:46:44.374Z</time></trkpt><trkpt lat="45.6045978" lon="9.3246904"><ele>177.0</ele><time>2026-03-25T14:46:45.374Z</time></trkpt><trkpt lat="45.6045638" lon="9.3245719"><ele>177.0</ele><time>2026-03-25T14:46:46.374Z</time></trkpt><trkpt lat="45.6045335" lon="9.324457"><ele>177.0</ele><time>2026-03-25T14:46:47.374Z</time></trkpt><trkpt lat="45.6045015" lon="9.3243428"><ele>177.0</ele><time>2026-03-25T14:46:48.374Z</time></trkpt><trkpt lat="45.6044717" lon="9.3242264"><ele>177.0</ele><time>2026-03-25T14:46:49.374Z</time></trkpt><trkpt lat="45.6044405" lon="9.3241123"><ele>177.0</ele><time>2026-03-25T14:46:50.374Z</time></trkpt><trkpt lat="45.6044121" lon="9.3239903"><ele>177.0</ele><time>2026-03-25T14:46:51.374Z</time></trkpt><trkpt lat="45.6043825" lon="9.3238738"><ele>177.0</ele><time>2026-03-25T14:46:52.374Z</time></trkpt><trkpt lat="45.6043492" lon="9.3237535"><ele>177.2</ele><time>2026-03-25T14:46:53.374Z</time></trkpt><trkpt lat="45.6043124" lon="9.3236356"><ele>177.39999999999998</ele><time>2026-03-25T14:46:54.374Z</time></trkpt><trkpt lat="45.604277" lon="9.3235215"><ele>177.60000000000002</ele><time>2026-03-25T14:46:55.373Z</time></trkpt><trkpt lat="45.6042457" lon="9.3233989"><ele>177.8</ele><time>2026-03-25T14:46:56.374Z</time></trkpt><trkpt lat="45.6042161" lon="9.323275"><ele>178.0</ele><time>2026-03-25T14:46:57.374Z</time></trkpt><trkpt lat="45.6041851" lon="9.323152"><ele>178.2</ele><time>2026-03-25T14:46:58.373Z</time></trkpt><trkpt lat="45.6041533" lon="9.3230385"><ele>178.4</ele><time>2026-03-25T14:46:59.373Z</time></trkpt><trkpt lat="45.6041157" lon="9.3229182"><ele>178.6</ele><time>2026-03-25T14:47:00.373Z</time></trkpt><trkpt lat="45.6040784" lon="9.3228008"><ele>178.79999999999998</ele><time>2026-03-25T14:47:01.373Z</time></trkpt><trkpt lat="45.6040419" lon="9.3226849"><ele>179.0</ele><time>2026-03-25T14:47:02.373Z</time></trkpt><trkpt lat="45.6040068" lon="9.3225537"><ele>179.0</ele><time>2026-03-25T14:47:03.374Z</time></trkpt><trkpt lat="45.6039742" lon="9.3224356"><ele>179.0</ele><time>2026-03-25T14:47:04.374Z</time></trkpt><trkpt lat="45.6039422" lon="9.322318"><ele>179.0</ele><time>2026-03-25T14:47:05.374Z</time></trkpt><trkpt lat="45.6039069" lon="9.3221936"><ele>179.0</ele><time>2026-03-25T14:47:06.374Z</time></trkpt><trkpt lat="45.6038747" lon="9.322077"><ele>179.0</ele><time>2026-03-25T14:47:07.374Z</time></trkpt><trkpt lat="45.6038391" lon="9.3219577"><ele>179.0</ele><time>2026-03-25T14:47:08.374Z</time></trkpt><trkpt lat="45.6038068" lon="9.321839"><ele>179.0</ele><time>2026-03-25T14:47:09.374Z</time></trkpt><trkpt lat="45.6037725" lon="9.3217195"><ele>179.0</ele><time>2026-03-25T14:47:10.374Z</time></trkpt><trkpt lat="45.6037403" lon="9.3215983"><ele>179.0</ele><time>2026-03-25T14:47:11.374Z</time></trkpt><trkpt lat="45.6037052" lon="9.3214822"><ele>179.0</ele><time>2026-03-25T14:47:12.373Z</time></trkpt><trkpt lat="45.6036699" lon="9.3213665"><ele>179.0</ele><time>2026-03-25T14:47:13.373Z</time></trkpt><trkpt lat="45.6036363" lon="9.321252"><ele>179.0</ele><time>2026-03-25T14:47:14.374Z</time></trkpt><trkpt lat="45.6036049" lon="9.3211329"><ele>178.6</ele><time>2026-03-25T14:47:15.374Z</time></trkpt><trkpt lat="45.6035733" lon="9.3210138"><ele>178.2</ele><time>2026-03-25T14:47:16.373Z</time></trkpt><trkpt lat="45.6035361" lon="9.3209017"><ele>177.79999999999998</ele><time>2026-03-25T14:47:17.374Z</time></trkpt><trkpt lat="45.6034979" lon="9.3207892"><ele>177.39999999999998</ele><time>2026-03-25T14:47:18.373Z</time></trkpt><trkpt lat="45.6034505" lon="9.3206717"><ele>177.0</ele><time>2026-03-25T14:47:19.374Z</time></trkpt><trkpt lat="45.6034008" lon="9.3205583"><ele>177.0</ele><time>2026-03-25T14:47:20.374Z</time></trkpt><trkpt lat="45.6033513" lon="9.3204468"><ele>177.0</ele><time>2026-03-25T14:47:21.373Z</time></trkpt><trkpt lat="45.6033022" lon="9.3203453"><ele>177.0</ele><time>2026-03-25T14:47:22.373Z</time></trkpt><trkpt lat="45.6032491" lon="9.3202423"><ele>177.0</ele><time>2026-03-25T14:47:23.374Z</time></trkpt><trkpt lat="45.6031934" lon="9.3201414"><ele>177.0</ele><time>2026-03-25T14:47:24.374Z</time></trkpt><trkpt lat="45.6031344" lon="9.3200461"><ele>177.0</ele><time>2026-03-25T14:47:25.373Z</time></trkpt><trkpt lat="45.6030744" lon="9.3199477"><ele>177.0</ele><time>2026-03-25T14:47:26.374Z</time></trkpt><trkpt lat="45.603014" lon="9.3198549"><ele>177.0</ele><time>2026-03-25T14:47:27.373Z</time></trkpt><trkpt lat="45.6029564" lon="9.3197623"><ele>177.0</ele><time>2026-03-25T14:47:28.374Z</time></trkpt><trkpt lat="45.6028942" lon="9.3196743"><ele>177.0</ele><time>2026-03-25T14:47:29.374Z</time></trkpt><trkpt lat="45.6028257" lon="9.3195843"><ele>177.0</ele><time>2026-03-25T14:47:30.374Z</time></trkpt><trkpt lat="45.6027493" lon="9.3194966"><ele>176.2</ele><time>2026-03-25T14:47:31.374Z</time></trkpt><trkpt lat="45.6026794" lon="9.3194134"><ele>175.39999999999998</ele><time>2026-03-25T14:47:32.373Z</time></trkpt><trkpt lat="45.6026046" lon="9.319334"><ele>174.60000000000002</ele><time>2026-03-25T14:47:33.374Z</time></trkpt><trkpt lat="45.6025299" lon="9.3192559"><ele>173.8</ele><time>2026-03-25T14:47:34.374Z</time></trkpt><trkpt lat="45.6024508" lon="9.3191821"><ele>173.0</ele><time>2026-03-25T14:47:35.374Z</time></trkpt><trkpt lat="45.6023682" lon="9.3191107"><ele>173.0</ele><time>2026-03-25T14:47:36.373Z</time></trkpt><trkpt lat="45.6022842" lon="9.3190458"><ele>173.0</ele><time>2026-03-25T14:47:37.373Z</time></trkpt><trkpt lat="45.6022026" lon="9.3189836"><ele>173.0</ele><time>2026-03-25T14:47:38.374Z</time></trkpt><trkpt lat="45.6021211" lon="9.3189196"><ele>173.0</ele><time>2026-03-25T14:47:39.374Z</time></trkpt><trkpt lat="45.6020379" lon="9.318853"><ele>173.0</ele><time>2026-03-25T14:47:40.374Z</time></trkpt><trkpt lat="45.6019552" lon="9.3187905"><ele>173.5</ele><time>2026-03-25T14:47:41.374Z</time></trkpt><trkpt lat="45.6018727" lon="9.3187263"><ele>174.0</ele><time>2026-03-25T14:47:42.374Z</time></trkpt><trkpt lat="45.6017963" lon="9.318665"><ele>174.5</ele><time>2026-03-25T14:47:43.374Z</time></trkpt><trkpt lat="45.6017179" lon="9.3186006"><ele>175.0</ele><time>2026-03-25T14:47:44.374Z</time></trkpt><trkpt lat="45.6016397" lon="9.3185406"><ele>175.5</ele><time>2026-03-25T14:47:45.373Z</time></trkpt><trkpt lat="45.6015624" lon="9.3184825"><ele>176.0</ele><time>2026-03-25T14:47:46.373Z</time></trkpt><trkpt lat="45.6014808" lon="9.3184225"><ele>176.0</ele><time>2026-03-25T14:47:47.374Z</time></trkpt><trkpt lat="45.6014066" lon="9.3183613"><ele>176.0</ele><time>2026-03-25T14:47:48.373Z</time></trkpt><trkpt lat="45.6013296" lon="9.3183006"><ele>176.0</ele><time>2026-03-25T14:47:49.374Z</time></trkpt><trkpt lat="45.6012516" lon="9.3182439"><ele>176.0</ele><time>2026-03-25T14:47:50.373Z</time></trkpt><trkpt lat="45.6011717" lon="9.3181813"><ele>176.0</ele><time>2026-03-25T14:47:51.373Z</time></trkpt><trkpt lat="45.6010934" lon="9.3181248"><ele>176.0</ele><time>2026-03-25T14:47:52.374Z</time></trkpt><trkpt lat="45.601023" lon="9.31806"><ele>175.66666666666666</ele><time>2026-03-25T14:47:53.373Z</time></trkpt><trkpt lat="45.600944" lon="9.3180033"><ele>175.33333333333331</ele><time>2026-03-25T14:47:54.374Z</time></trkpt><trkpt lat="45.6008662" lon="9.3179432"><ele>175.0</ele><time>2026-03-25T14:47:55.374Z</time></trkpt><trkpt lat="45.6007917" lon="9.3178838"><ele>174.66666666666666</ele><time>2026-03-25T14:47:56.373Z</time></trkpt><trkpt lat="45.6007163" lon="9.3178272"><ele>174.33333333333334</ele><time>2026-03-25T14:47:57.374Z</time></trkpt><trkpt lat="45.6006394" lon="9.3177705"><ele>174.0</ele><time>2026-03-25T14:47:58.373Z</time></trkpt><trkpt lat="45.6005607" lon="9.3177115"><ele>174.0</ele><time>2026-03-25T14:47:59.374Z</time></trkpt><trkpt lat="45.6004841" lon="9.3176506"><ele>174.0</ele><time>2026-03-25T14:48:00.374Z</time></trkpt><trkpt lat="45.6004075" lon="9.3175886"><ele>174.0</ele><time>2026-03-25T14:48:01.374Z</time></trkpt><trkpt lat="45.6003335" lon="9.3175223"><ele>174.0</ele><time>2026-03-25T14:48:02.374Z</time></trkpt><trkpt lat="45.6002587" lon="9.3174569"><ele>174.0</ele><time>2026-03-25T14:48:03.373Z</time></trkpt><trkpt lat="45.6001824" lon="9.3174012"><ele>174.0</ele><time>2026-03-25T14:48:04.374Z</time></trkpt><trkpt lat="45.6001175" lon="9.3173412"><ele>174.0</ele><time>2026-03-25T14:48:05.374Z</time></trkpt><trkpt lat="45.6000395" lon="9.3172829"><ele>174.0</ele><time>2026-03-25T14:48:06.373Z</time></trkpt><trkpt lat="45.5999609" lon="9.3172325"><ele>174.0</ele><time>2026-03-25T14:48:07.373Z</time></trkpt><trkpt lat="45.5998895" lon="9.3171752"><ele>174.0</ele><time>2026-03-25T14:48:08.374Z</time></trkpt><trkpt lat="45.5998138" lon="9.3171218"><ele>174.0</ele><time>2026-03-25T14:48:09.374Z</time></trkpt><trkpt lat="45.5997434" lon="9.3170541"><ele>174.0</ele><time>2026-03-25T14:48:10.374Z</time></trkpt><trkpt lat="45.5996654" lon="9.3169951"><ele>174.16666666666666</ele><time>2026-03-25T14:48:11.373Z</time></trkpt><trkpt lat="45.5995865" lon="9.3169394"><ele>174.33333333333334</ele><time>2026-03-25T14:48:12.374Z</time></trkpt><trkpt lat="45.5995129" lon="9.316877"><ele>174.5</ele><time>2026-03-25T14:48:13.374Z</time></trkpt><trkpt lat="45.5994397" lon="9.3168132"><ele>174.66666666666669</ele><time>2026-03-25T14:48:14.374Z</time></trkpt><trkpt lat="45.5993627" lon="9.3167564"><ele>174.83333333333334</ele><time>2026-03-25T14:48:15.374Z</time></trkpt><trkpt lat="45.5992883" lon="9.316695"><ele>175.0</ele><time>2026-03-25T14:48:16.374Z</time></trkpt><trkpt lat="45.5992134" lon="9.316639"><ele>175.16666666666669</ele><time>2026-03-25T14:48:17.373Z</time></trkpt><trkpt lat="45.5991421" lon="9.3165836"><ele>175.33333333333334</ele><time>2026-03-25T14:48:18.374Z</time></trkpt><trkpt lat="45.5990685" lon="9.3165228"><ele>175.5</ele><time>2026-03-25T14:48:19.373Z</time></trkpt><trkpt lat="45.5989915" lon="9.3164617"><ele>175.66666666666666</ele><time>2026-03-25T14:48:20.374Z</time></trkpt><trkpt lat="45.5989129" lon="9.316405"><ele>175.83333333333331</ele><time>2026-03-25T14:48:21.374Z</time></trkpt><trkpt lat="45.598837" lon="9.316349"><ele>176.0</ele><time>2026-03-25T14:48:22.374Z</time></trkpt><trkpt lat="45.598762" lon="9.3162944"><ele>176.0</ele><time>2026-03-25T14:48:23.373Z</time></trkpt><trkpt lat="45.5986866" lon="9.3162356"><ele>176.0</ele><time>2026-03-25T14:48:24.374Z</time></trkpt><trkpt lat="45.5986165" lon="9.3161733"><ele>176.0</ele><time>2026-03-25T14:48:25.374Z</time></trkpt><trkpt lat="45.5985394" lon="9.316119"><ele>176.0</ele><time>2026-03-25T14:48:26.374Z</time></trkpt><trkpt lat="45.5984626" lon="9.3160587"><ele>176.0</ele><time>2026-03-25T14:48:27.374Z</time></trkpt><trkpt lat="45.5983908" lon="9.3160027"><ele>176.0</ele><time>2026-03-25T14:48:28.374Z</time></trkpt><trkpt lat="45.598316" lon="9.3159483"><ele>175.5</ele><time>2026-03-25T14:48:29.374Z</time></trkpt><trkpt lat="45.5982398" lon="9.3158917"><ele>175.0</ele><time>2026-03-25T14:48:30.373Z</time></trkpt><trkpt lat="45.5981633" lon="9.3158305"><ele>174.5</ele><time>2026-03-25T14:48:31.374Z</time></trkpt><trkpt lat="45.598095" lon="9.3157763"><ele>174.0</ele><time>2026-03-25T14:48:32.374Z</time></trkpt><trkpt lat="45.5980219" lon="9.3157191"><ele>173.5</ele><time>2026-03-25T14:48:33.373Z</time></trkpt><trkpt lat="45.5979525" lon="9.315661"><ele>173.0</ele><time>2026-03-25T14:48:34.374Z</time></trkpt><trkpt lat="45.5978768" lon="9.3156038"><ele>173.0</ele><time>2026-03-25T14:48:35.374Z</time></trkpt><trkpt lat="45.5978044" lon="9.3155442"><ele>173.0</ele><time>2026-03-25T14:48:36.374Z</time></trkpt><trkpt lat="45.5977308" lon="9.3154874"><ele>173.0</ele><time>2026-03-25T14:48:37.374Z</time></trkpt><trkpt lat="45.5976503" lon="9.3154284"><ele>173.0</ele><time>2026-03-25T14:48:38.374Z</time></trkpt><trkpt lat="45.5975791" lon="9.3153734"><ele>173.0</ele><time>2026-03-25T14:48:39.373Z</time></trkpt><trkpt lat="45.5975069" lon="9.3153123"><ele>173.0</ele><time>2026-03-25T14:48:40.374Z</time></trkpt><trkpt lat="45.5974385" lon="9.3152593"><ele>173.0</ele><time>2026-03-25T14:48:41.374Z</time></trkpt><trkpt lat="45.5973695" lon="9.3152059"><ele>173.0</ele><time>2026-03-25T14:48:42.374Z</time></trkpt><trkpt lat="45.5973088" lon="9.3151452"><ele>173.0</ele><time>2026-03-25T14:48:43.374Z</time></trkpt><trkpt lat="45.5972461" lon="9.3150894"><ele>173.0</ele><time>2026-03-25T14:48:44.374Z</time></trkpt><trkpt lat="45.5971828" lon="9.3150299"><ele>173.0</ele><time>2026-03-25T14:48:45.374Z</time></trkpt><trkpt lat="45.5971211" lon="9.3149677"><ele>173.0</ele><time>2026-03-25T14:48:46.373Z</time></trkpt><trkpt lat="45.5970615" lon="9.3149007"><ele>172.57142857142856</ele><time>2026-03-25T14:48:47.374Z</time></trkpt><trkpt lat="45.5969999" lon="9.3148333"><ele>172.14285714285717</ele><time>2026-03-25T14:48:48.374Z</time></trkpt><trkpt lat="45.5969422" lon="9.3147684"><ele>171.71428571428572</ele><time>2026-03-25T14:48:49.374Z</time></trkpt><trkpt lat="45.5968845" lon="9.3146976"><ele>171.28571428571428</ele><time>2026-03-25T14:48:50.374Z</time></trkpt><trkpt lat="45.5968302" lon="9.3146216"><ele>170.85714285714283</ele><time>2026-03-25T14:48:51.373Z</time></trkpt><trkpt lat="45.5967757" lon="9.3145613"><ele>170.42857142857144</ele><time>2026-03-25T14:48:52.374Z</time></trkpt><trkpt lat="45.5967228" lon="9.314486"><ele>170.0</ele><time>2026-03-25T14:48:53.373Z</time></trkpt><trkpt lat="45.5966699" lon="9.3144158"><ele>170.0</ele><time>2026-03-25T14:48:54.374Z</time></trkpt><trkpt lat="45.5966197" lon="9.3143416"><ele>170.0</ele><time>2026-03-25T14:48:55.374Z</time></trkpt><trkpt lat="45.5965679" lon="9.3142694"><ele>170.0</ele><time>2026-03-25T14:48:56.374Z</time></trkpt><trkpt lat="45.5965197" lon="9.3141988"><ele>170.0</ele><time>2026-03-25T14:48:57.374Z</time></trkpt><trkpt lat="45.5964679" lon="9.3141235"><ele>170.0</ele><time>2026-03-25T14:48:58.373Z</time></trkpt><trkpt lat="45.5964186" lon="9.3140543"><ele>170.0</ele><time>2026-03-25T14:48:59.374Z</time></trkpt><trkpt lat="45.5963663" lon="9.3139839"><ele>170.0</ele><time>2026-03-25T14:49:00.374Z</time></trkpt><trkpt lat="45.5963179" lon="9.3139082"><ele>170.14285714285714</ele><time>2026-03-25T14:49:01.374Z</time></trkpt><trkpt lat="45.5962662" lon="9.3138372"><ele>170.28571428571428</ele><time>2026-03-25T14:49:02.373Z</time></trkpt><trkpt lat="45.59622" lon="9.3137607"><ele>170.42857142857142</ele><time>2026-03-25T14:49:03.373Z</time></trkpt><trkpt lat="45.5961729" lon="9.3136883"><ele>170.57142857142856</ele><time>2026-03-25T14:49:04.374Z</time></trkpt><trkpt lat="45.5961213" lon="9.313621"><ele>170.71428571428572</ele><time>2026-03-25T14:49:05.373Z</time></trkpt><trkpt lat="45.5960717" lon="9.3135586"><ele>170.85714285714283</ele><time>2026-03-25T14:49:06.373Z</time></trkpt><trkpt lat="45.5960223" lon="9.3134929"><ele>171.0</ele><time>2026-03-25T14:49:07.374Z</time></trkpt><trkpt lat="45.5959722" lon="9.3134293"><ele>170.99999999999997</ele><time>2026-03-25T14:49:08.374Z</time></trkpt><trkpt lat="45.5959257" lon="9.3133647"><ele>171.0</ele><time>2026-03-25T14:49:09.374Z</time></trkpt><trkpt lat="45.5958325" lon="9.3132426"><ele>171.0</ele><time>2026-03-25T14:49:11.374Z</time></trkpt><trkpt lat="45.5957842" lon="9.3131798"><ele>171.0</ele><time>2026-03-25T14:49:12.374Z</time></trkpt><trkpt lat="45.5957365" lon="9.3131169"><ele>171.0</ele><time>2026-03-25T14:49:13.374Z</time></trkpt><trkpt lat="45.5956892" lon="9.3130557"><ele>170.99999999999997</ele><time>2026-03-25T14:49:14.374Z</time></trkpt><trkpt lat="45.5956403" lon="9.3129965"><ele>171.0</ele><time>2026-03-25T14:49:15.373Z</time></trkpt><trkpt lat="45.5955543" lon="9.31288"><ele>171.0</ele><time>2026-03-25T14:49:17.374Z</time></trkpt><trkpt lat="45.5954656" lon="9.3127668"><ele>171.0</ele><time>2026-03-25T14:49:19.374Z</time></trkpt><trkpt lat="45.5953614" lon="9.3126692"><ele>171.0</ele><time>2026-03-25T14:49:21.374Z</time></trkpt><trkpt lat="45.5952585" lon="9.3125714"><ele>171.0</ele><time>2026-03-25T14:49:23.374Z</time></trkpt><trkpt lat="45.595155" lon="9.312481"><ele>171.5</ele><time>2026-03-25T14:49:25.374Z</time></trkpt><trkpt lat="45.5950523" lon="9.3123859"><ele>172.0</ele><time>2026-03-25T14:49:27.374Z</time></trkpt><trkpt lat="45.594948" lon="9.3123029"><ele>172.5</ele><time>2026-03-25T14:49:29.373Z</time></trkpt><trkpt lat="45.5948472" lon="9.3122226"><ele>173.0</ele><time>2026-03-25T14:49:31.374Z</time></trkpt><trkpt lat="45.5947414" lon="9.3121669"><ele>172.2</ele><time>2026-03-25T14:49:33.374Z</time></trkpt><trkpt lat="45.5946312" lon="9.3121052"><ele>171.4</ele><time>2026-03-25T14:49:35.374Z</time></trkpt><trkpt lat="45.5945255" lon="9.3120416"><ele>170.6</ele><time>2026-03-25T14:49:37.374Z</time></trkpt><trkpt lat="45.5944208" lon="9.3119834"><ele>169.79999999999998</ele><time>2026-03-25T14:49:39.374Z</time></trkpt><trkpt lat="45.5943239" lon="9.3119314"><ele>169.0</ele><time>2026-03-25T14:49:41.373Z</time></trkpt><trkpt lat="45.5942326" lon="9.3118958"><ele>169.0</ele><time>2026-03-25T14:49:43.373Z</time></trkpt><trkpt lat="45.5941286" lon="9.3118502"><ele>169.0</ele><time>2026-03-25T14:49:45.373Z</time></trkpt><trkpt lat="45.5940357" lon="9.3117988"><ele>169.0</ele><time>2026-03-25T14:49:47.374Z</time></trkpt><trkpt lat="45.5939429" lon="9.3117585"><ele>169.0</ele><time>2026-03-25T14:49:49.374Z</time></trkpt><trkpt lat="45.5938466" lon="9.3117087"><ele>169.0</ele><time>2026-03-25T14:49:51.374Z</time></trkpt><trkpt lat="45.5937431" lon="9.3116604"><ele>168.6</ele><time>2026-03-25T14:49:53.373Z</time></trkpt><trkpt lat="45.5936438" lon="9.3116221"><ele>168.2</ele><time>2026-03-25T14:49:55.374Z</time></trkpt><trkpt lat="45.5935489" lon="9.3115777"><ele>167.79999999999998</ele><time>2026-03-25T14:49:57.374Z</time></trkpt><trkpt lat="45.5934529" lon="9.3115319"><ele>167.39999999999998</ele><time>2026-03-25T14:49:59.373Z</time></trkpt><trkpt lat="45.5933585" lon="9.3114921"><ele>167.0</ele><time>2026-03-25T14:50:01.374Z</time></trkpt><trkpt lat="45.5932613" lon="9.3114558"><ele>167.0</ele><time>2026-03-25T14:50:03.373Z</time></trkpt><trkpt lat="45.5931691" lon="9.3114141"><ele>167.0</ele><time>2026-03-25T14:50:05.373Z</time></trkpt><trkpt lat="45.5930795" lon="9.3113801"><ele>167.0</ele><time>2026-03-25T14:50:07.374Z</time></trkpt><trkpt lat="45.5929827" lon="9.3113334"><ele>167.0</ele><time>2026-03-25T14:50:09.374Z</time></trkpt><trkpt lat="45.5928799" lon="9.3112973"><ele>167.0</ele><time>2026-03-25T14:50:11.374Z</time></trkpt><trkpt lat="45.5927911" lon="9.3112635"><ele>166.85714285714286</ele><time>2026-03-25T14:50:13.374Z</time></trkpt><trkpt lat="45.5927127" lon="9.3112279"><ele>166.71428571428572</ele><time>2026-03-25T14:50:15.373Z</time></trkpt><trkpt lat="45.5926467" lon="9.3112038"><ele>166.57142857142856</ele><time>2026-03-25T14:50:17.374Z</time></trkpt><trkpt lat="45.5925831" lon="9.3111723"><ele>166.42857142857144</ele><time>2026-03-25T14:50:19.374Z</time></trkpt><trkpt lat="45.5925202" lon="9.3111308"><ele>166.2857142857143</ele><time>2026-03-25T14:50:21.374Z</time></trkpt><trkpt lat="45.5924696" lon="9.3110702"><ele>166.14285714285714</ele><time>2026-03-25T14:50:23.374Z</time></trkpt><trkpt lat="45.5924" lon="9.3109914"><ele>166.0</ele><time>2026-03-25T14:50:26.374Z</time></trkpt><trkpt lat="45.5923347" lon="9.3109364"><ele>166.0</ele><time>2026-03-25T14:50:29.373Z</time></trkpt><trkpt lat="45.592265" lon="9.3109105"><ele>166.0</ele><time>2026-03-25T14:52:41.374Z</time></trkpt><trkpt lat="45.5921927" lon="9.3108787"><ele>166.0</ele><time>2026-03-25T14:52:44.374Z</time></trkpt><trkpt lat="45.5921224" lon="9.3108638"><ele>166.0</ele><time>2026-03-25T14:52:46.374Z</time></trkpt><trkpt lat="45.59205" lon="9.3108553"><ele>166.0</ele><time>2026-03-25T14:52:48.374Z</time></trkpt><trkpt lat="45.5919743" lon="9.3108523"><ele>166.0</ele><time>2026-03-25T14:52:50.373Z</time></trkpt><trkpt lat="45.5918995" lon="9.3108664"><ele>166.0</ele><time>2026-03-25T14:52:52.373Z</time></trkpt><trkpt lat="45.5918263" lon="9.3108964"><ele>165.83333333333334</ele><time>2026-03-25T14:52:54.374Z</time></trkpt><trkpt lat="45.5917543" lon="9.3109396"><ele>165.66666666666669</ele><time>2026-03-25T14:52:56.373Z</time></trkpt><trkpt lat="45.5916824" lon="9.3109965"><ele>165.5</ele><time>2026-03-25T14:52:58.374Z</time></trkpt><trkpt lat="45.5916045" lon="9.3110484"><ele>165.33333333333334</ele><time>2026-03-25T14:53:00.374Z</time></trkpt><trkpt lat="45.5915239" lon="9.311095"><ele>165.16666666666666</ele><time>2026-03-25T14:53:02.374Z</time></trkpt><trkpt lat="45.5914383" lon="9.3111275"><ele>165.0</ele><time>2026-03-25T14:53:04.373Z</time></trkpt><trkpt lat="45.5913537" lon="9.3111502"><ele>165.0</ele><time>2026-03-25T14:53:06.374Z</time></trkpt><trkpt lat="45.5912721" lon="9.3111621"><ele>165.0</ele><time>2026-03-25T14:53:08.373Z</time></trkpt><trkpt lat="45.5911916" lon="9.3111629"><ele>165.0</ele><time>2026-03-25T14:53:10.373Z</time></trkpt><trkpt lat="45.5911029" lon="9.3111484"><ele>165.0</ele><time>2026-03-25T14:53:12.374Z</time></trkpt><trkpt lat="45.5910059" lon="9.3111399"><ele>165.0</ele><time>2026-03-25T14:53:14.374Z</time></trkpt><trkpt lat="45.5909129" lon="9.311123"><ele>165.0</ele><time>2026-03-25T14:53:16.374Z</time></trkpt><trkpt lat="45.5908076" lon="9.3111047"><ele>165.0</ele><time>2026-03-25T14:53:18.374Z</time></trkpt><trkpt lat="45.5907016" lon="9.3110965"><ele>165.0</ele><time>2026-03-25T14:53:20.374Z</time></trkpt><trkpt lat="45.5905943" lon="9.3110773"><ele>165.0</ele><time>2026-03-25T14:53:22.374Z</time></trkpt><trkpt lat="45.5904918" lon="9.3110661"><ele>165.0</ele><time>2026-03-25T14:53:24.373Z</time></trkpt><trkpt lat="45.5903921" lon="9.311055"><ele>165.0</ele><time>2026-03-25T14:53:26.374Z</time></trkpt><trkpt lat="45.5902829" lon="9.3110316"><ele>164.8</ele><time>2026-03-25T14:53:28.374Z</time></trkpt><trkpt lat="45.5901761" lon="9.3110164"><ele>164.6</ele><time>2026-03-25T14:53:30.374Z</time></trkpt><trkpt lat="45.5900709" lon="9.3110001"><ele>164.39999999999998</ele><time>2026-03-25T14:53:32.373Z</time></trkpt><trkpt lat="45.5899644" lon="9.3109957"><ele>164.2</ele><time>2026-03-25T14:53:34.373Z</time></trkpt><trkpt lat="45.5898609" lon="9.3109783"><ele>164.0</ele><time>2026-03-25T14:53:36.374Z</time></trkpt><trkpt lat="45.5897539" lon="9.3109569"><ele>164.0</ele><time>2026-03-25T14:53:38.374Z</time></trkpt><trkpt lat="45.5896476" lon="9.3109373"><ele>164.0</ele><time>2026-03-25T14:53:40.373Z</time></trkpt><trkpt lat="45.5895482" lon="9.3109247"><ele>164.0</ele><time>2026-03-25T14:53:42.374Z</time></trkpt><trkpt lat="45.589446" lon="9.3109097"><ele>164.0</ele><time>2026-03-25T14:53:44.374Z</time></trkpt><trkpt lat="45.589338" lon="9.3108892"><ele>164.0</ele><time>2026-03-25T14:53:46.374Z</time></trkpt><trkpt lat="45.5892325" lon="9.3108786"><ele>164.2</ele><time>2026-03-25T14:53:48.374Z</time></trkpt><trkpt lat="45.5891275" lon="9.3108593"><ele>164.39999999999998</ele><time>2026-03-25T14:53:50.374Z</time></trkpt><trkpt lat="45.5890171" lon="9.3108397"><ele>164.6</ele><time>2026-03-25T14:53:52.374Z</time></trkpt><trkpt lat="45.5889173" lon="9.3108205"><ele>164.8</ele><time>2026-03-25T14:53:54.374Z</time></trkpt><trkpt lat="45.5888146" lon="9.3108101"><ele>165.0</ele><time>2026-03-25T14:53:56.374Z</time></trkpt><trkpt lat="45.5887141" lon="9.3107899"><ele>165.2</ele><time>2026-03-25T14:53:58.374Z</time></trkpt><trkpt lat="45.588608" lon="9.3107718"><ele>165.4</ele><time>2026-03-25T14:54:00.373Z</time></trkpt><trkpt lat="45.5884953" lon="9.3107475"><ele>165.60000000000002</ele><time>2026-03-25T14:54:02.374Z</time></trkpt><trkpt lat="45.5883865" lon="9.3107299"><ele>165.8</ele><time>2026-03-25T14:54:04.374Z</time></trkpt><trkpt lat="45.588287" lon="9.3107056"><ele>166.0</ele><time>2026-03-25T14:54:06.374Z</time></trkpt><trkpt lat="45.588184" lon="9.3106869"><ele>166.0</ele><time>2026-03-25T14:54:08.374Z</time></trkpt><trkpt lat="45.588078" lon="9.3106674"><ele>166.0</ele><time>2026-03-25T14:54:10.374Z</time></trkpt><trkpt lat="45.5879714" lon="9.3106531"><ele>166.0</ele><time>2026-03-25T14:54:12.374Z</time></trkpt><trkpt lat="45.5878657" lon="9.3106384"><ele>166.0</ele><time>2026-03-25T14:54:14.374Z</time></trkpt><trkpt lat="45.587766" lon="9.3106192"><ele>166.0</ele><time>2026-03-25T14:54:16.374Z</time></trkpt><trkpt lat="45.5876644" lon="9.3106009"><ele>165.8</ele><time>2026-03-25T14:54:18.374Z</time></trkpt><trkpt lat="45.5875669" lon="9.310587"><ele>165.60000000000002</ele><time>2026-03-25T14:54:20.374Z</time></trkpt><trkpt lat="45.5874599" lon="9.3105678"><ele>165.4</ele><time>2026-03-25T14:54:22.374Z</time></trkpt><trkpt lat="45.5873554" lon="9.3105366"><ele>165.2</ele><time>2026-03-25T14:54:24.374Z</time></trkpt><trkpt lat="45.5872495" lon="9.3105203"><ele>165.0</ele><time>2026-03-25T14:54:26.374Z</time></trkpt><trkpt lat="45.5871527" lon="9.3105048"><ele>164.4</ele><time>2026-03-25T14:54:28.374Z</time></trkpt><trkpt lat="45.5870572" lon="9.3104824"><ele>163.8</ele><time>2026-03-25T14:54:30.374Z</time></trkpt><trkpt lat="45.5869579" lon="9.3104603"><ele>163.2</ele><time>2026-03-25T14:54:32.373Z</time></trkpt><trkpt lat="45.5868489" lon="9.3104516"><ele>162.6</ele><time>2026-03-25T14:54:34.374Z</time></trkpt><trkpt lat="45.5867385" lon="9.3104307"><ele>162.0</ele><time>2026-03-25T14:54:36.374Z</time></trkpt><trkpt lat="45.586635" lon="9.3104055"><ele>161.8</ele><time>2026-03-25T14:54:38.374Z</time></trkpt><trkpt lat="45.586571" lon="9.3103993"><ele>161.6</ele><time>2026-03-25T14:54:39.373Z</time></trkpt><trkpt lat="45.5864499" lon="9.3103884"><ele>161.4</ele><time>2026-03-25T14:54:41.373Z</time></trkpt><trkpt lat="45.5863873" lon="9.3103748"><ele>161.20000000000002</ele><time>2026-03-25T14:54:42.374Z</time></trkpt><trkpt lat="45.5862725" lon="9.3103506"><ele>161.0</ele><time>2026-03-25T14:54:44.374Z</time></trkpt><trkpt lat="45.5861584" lon="9.3103351"><ele>161.0</ele><time>2026-03-25T14:54:46.374Z</time></trkpt><trkpt lat="45.5860929" lon="9.3103248"><ele>161.0</ele><time>2026-03-25T14:54:47.374Z</time></trkpt><trkpt lat="45.5860305" lon="9.3103106"><ele>161.0</ele><time>2026-03-25T14:54:48.373Z</time></trkpt><trkpt lat="45.5859677" lon="9.3103008"><ele>161.0</ele><time>2026-03-25T14:54:49.373Z</time></trkpt><trkpt lat="45.5858577" lon="9.3102709"><ele>161.0</ele><time>2026-03-25T14:54:51.374Z</time></trkpt><trkpt lat="45.5857373" lon="9.3102598"><ele>161.0</ele><time>2026-03-25T14:54:53.374Z</time></trkpt><trkpt lat="45.5856131" lon="9.3102452"><ele>161.0</ele><time>2026-03-25T14:54:55.374Z</time></trkpt><trkpt lat="45.5854901" lon="9.3102268"><ele>161.0</ele><time>2026-03-25T14:54:57.374Z</time></trkpt><trkpt lat="45.5853758" lon="9.3102121"><ele>161.0</ele><time>2026-03-25T14:54:59.374Z</time></trkpt><trkpt lat="45.5853127" lon="9.3102061"><ele>161.0</ele><time>2026-03-25T14:55:00.373Z</time></trkpt><trkpt lat="45.5851903" lon="9.3101853"><ele>161.0</ele><time>2026-03-25T14:55:02.373Z</time></trkpt><trkpt lat="45.5850696" lon="9.3101689"><ele>161.75</ele><time>2026-03-25T14:55:04.374Z</time></trkpt><trkpt lat="45.5849568" lon="9.3101397"><ele>162.5</ele><time>2026-03-25T14:55:06.374Z</time></trkpt><trkpt lat="45.5848341" lon="9.3101254"><ele>163.25</ele><time>2026-03-25T14:55:08.374Z</time></trkpt><trkpt lat="45.584719" lon="9.3100959"><ele>164.0</ele><time>2026-03-25T14:55:10.374Z</time></trkpt><trkpt lat="45.5845988" lon="9.310077"><ele>164.0</ele><time>2026-03-25T14:55:12.374Z</time></trkpt><trkpt lat="45.5845357" lon="9.3100691"><ele>164.0</ele><time>2026-03-25T14:55:13.374Z</time></trkpt><trkpt lat="45.5844158" lon="9.3100529"><ele>164.0</ele><time>2026-03-25T14:55:15.374Z</time></trkpt><trkpt lat="45.5842935" lon="9.3100361"><ele>164.0</ele><time>2026-03-25T14:55:17.374Z</time></trkpt><trkpt lat="45.5841767" lon="9.3100271"><ele>164.0</ele><time>2026-03-25T14:55:19.374Z</time></trkpt><trkpt lat="45.5840608" lon="9.3100062"><ele>163.0</ele><time>2026-03-25T14:55:21.374Z</time></trkpt><trkpt lat="45.5839458" lon="9.3099763"><ele>162.0</ele><time>2026-03-25T14:55:23.374Z</time></trkpt><trkpt lat="45.5838238" lon="9.3099594"><ele>161.0</ele><time>2026-03-25T14:55:25.374Z</time></trkpt><trkpt lat="45.5837076" lon="9.3099416"><ele>160.0</ele><time>2026-03-25T14:55:27.373Z</time></trkpt><trkpt lat="45.5835926" lon="9.3099263"><ele>160.0</ele><time>2026-03-25T14:55:29.373Z</time></trkpt><trkpt lat="45.5834723" lon="9.3099145"><ele>160.0</ele><time>2026-03-25T14:55:31.374Z</time></trkpt><trkpt lat="45.5833573" lon="9.3098871"><ele>160.0</ele><time>2026-03-25T14:55:33.374Z</time></trkpt><trkpt lat="45.5832403" lon="9.3098665"><ele>160.0</ele><time>2026-03-25T14:55:35.373Z</time></trkpt><trkpt lat="45.5831764" lon="9.309853"><ele>160.0</ele><time>2026-03-25T14:55:36.374Z</time></trkpt><trkpt lat="45.5830575" lon="9.3098433"><ele>160.0</ele><time>2026-03-25T14:55:38.374Z</time></trkpt><trkpt lat="45.5829931" lon="9.3098322"><ele>160.0</ele><time>2026-03-25T14:55:39.374Z</time></trkpt><trkpt lat="45.5828665" lon="9.3098082"><ele>160.0</ele><time>2026-03-25T14:55:41.374Z</time></trkpt><trkpt lat="45.5827433" lon="9.3097888"><ele>160.0</ele><time>2026-03-25T14:55:43.374Z</time></trkpt><trkpt lat="45.5826227" lon="9.3097727"><ele>160.0</ele><time>2026-03-25T14:55:45.373Z</time></trkpt><trkpt lat="45.5825562" lon="9.3097606"><ele>159.75</ele><time>2026-03-25T14:55:46.373Z</time></trkpt><trkpt lat="45.5824398" lon="9.3097442"><ele>159.5</ele><time>2026-03-25T14:55:48.374Z</time></trkpt><trkpt lat="45.5823266" lon="9.3097336"><ele>159.25</ele><time>2026-03-25T14:55:50.374Z</time></trkpt><trkpt lat="45.5822034" lon="9.3097167"><ele>159.0</ele><time>2026-03-25T14:55:52.373Z</time></trkpt><trkpt lat="45.5820838" lon="9.3096938"><ele>159.8</ele><time>2026-03-25T14:55:54.374Z</time></trkpt><trkpt lat="45.5819608" lon="9.3096796"><ele>160.60000000000002</ele><time>2026-03-25T14:55:56.373Z</time></trkpt><trkpt lat="45.5818432" lon="9.3096576"><ele>161.4</ele><time>2026-03-25T14:55:58.374Z</time></trkpt><trkpt lat="45.5817793" lon="9.3096545"><ele>162.20000000000002</ele><time>2026-03-25T14:55:59.374Z</time></trkpt><trkpt lat="45.5816635" lon="9.3096316"><ele>163.0</ele><time>2026-03-25T14:56:01.374Z</time></trkpt><trkpt lat="45.5815755" lon="9.3096164"><ele>163.0</ele><time>2026-03-25T14:56:03.374Z</time></trkpt><trkpt lat="45.5814979" lon="9.30959"><ele>163.0</ele><time>2026-03-25T14:56:05.374Z</time></trkpt><trkpt lat="45.5814348" lon="9.3095549"><ele>163.0</ele><time>2026-03-25T14:56:07.374Z</time></trkpt><trkpt lat="45.5813493" lon="9.3094951"><ele>163.0</ele><time>2026-03-25T14:56:10.374Z</time></trkpt><trkpt lat="45.5812622" lon="9.3094267"><ele>163.0</ele><time>2026-03-25T14:56:12.374Z</time></trkpt><trkpt lat="45.5811614" lon="9.3093755"><ele>163.0</ele><time>2026-03-25T14:56:14.374Z</time></trkpt><trkpt lat="45.5810466" lon="9.3093918"><ele>162.60000000000002</ele><time>2026-03-25T14:56:16.374Z</time></trkpt><trkpt lat="45.5809267" lon="9.3094328"><ele>162.20000000000002</ele><time>2026-03-25T14:56:18.372Z</time></trkpt><trkpt lat="45.5808027" lon="9.3094584"><ele>161.8</ele><time>2026-03-25T14:56:20.374Z</time></trkpt><trkpt lat="45.580736" lon="9.3094568"><ele>161.4</ele><time>2026-03-25T14:56:21.374Z</time></trkpt><trkpt lat="45.5806069" lon="9.3094452"><ele>161.0</ele><time>2026-03-25T14:56:23.373Z</time></trkpt><trkpt lat="45.5805434" lon="9.3094282"><ele>161.0</ele><time>2026-03-25T14:56:24.374Z</time></trkpt><trkpt lat="45.5804253" lon="9.3094038"><ele>161.0</ele><time>2026-03-25T14:56:26.374Z</time></trkpt><trkpt lat="45.5803069" lon="9.3093748"><ele>161.0</ele><time>2026-03-25T14:56:28.373Z</time></trkpt><trkpt lat="45.5802417" lon="9.3093597"><ele>161.0</ele><time>2026-03-25T14:56:29.374Z</time></trkpt><trkpt lat="45.5801776" lon="9.3093482"><ele>161.0</ele><time>2026-03-25T14:56:30.374Z</time></trkpt><trkpt lat="45.5801134" lon="9.3093422"><ele>161.0</ele><time>2026-03-25T14:56:31.374Z</time></trkpt><trkpt lat="45.5799864" lon="9.3093251"><ele>160.66666666666666</ele><time>2026-03-25T14:56:33.374Z</time></trkpt><trkpt lat="45.5798671" lon="9.309301"><ele>160.33333333333331</ele><time>2026-03-25T14:56:35.374Z</time></trkpt><trkpt lat="45.5798043" lon="9.3092851"><ele>160.0</ele><time>2026-03-25T14:56:36.374Z</time></trkpt><trkpt lat="45.5796748" lon="9.3092653"><ele>159.66666666666666</ele><time>2026-03-25T14:56:38.373Z</time></trkpt><trkpt lat="45.57961" lon="9.3092615"><ele>159.33333333333334</ele><time>2026-03-25T14:56:39.373Z</time></trkpt><trkpt lat="45.5795467" lon="9.3092469"><ele>159.0</ele><time>2026-03-25T14:56:40.374Z</time></trkpt><trkpt lat="45.5794833" lon="9.3092298"><ele>159.0</ele><time>2026-03-25T14:56:41.373Z</time></trkpt><trkpt lat="45.5794161" lon="9.3092169"><ele>159.0</ele><time>2026-03-25T14:56:42.373Z</time></trkpt><trkpt lat="45.5793465" lon="9.3092086"><ele>159.0</ele><time>2026-03-25T14:56:43.373Z</time></trkpt><trkpt lat="45.5792793" lon="9.3091957"><ele>159.0</ele><time>2026-03-25T14:56:44.373Z</time></trkpt><trkpt lat="45.579213" lon="9.3091811"><ele>159.0</ele><time>2026-03-25T14:56:45.374Z</time></trkpt><trkpt lat="45.5791425" lon="9.3091683"><ele>159.0</ele><time>2026-03-25T14:56:46.374Z</time></trkpt><trkpt lat="45.5790741" lon="9.3091555"><ele>159.0</ele><time>2026-03-25T14:56:47.374Z</time></trkpt><trkpt lat="45.5790066" lon="9.3091521"><ele>159.0</ele><time>2026-03-25T14:56:48.374Z</time></trkpt><trkpt lat="45.5789389" lon="9.3091419"><ele>159.0</ele><time>2026-03-25T14:56:49.374Z</time></trkpt><trkpt lat="45.5788141" lon="9.3091227"><ele>159.0</ele><time>2026-03-25T14:56:51.374Z</time></trkpt><trkpt lat="45.5787428" lon="9.3091151"><ele>159.0</ele><time>2026-03-25T14:56:52.374Z</time></trkpt><trkpt lat="45.5786741" lon="9.3091105"><ele>159.0</ele><time>2026-03-25T14:56:53.373Z</time></trkpt><trkpt lat="45.578602" lon="9.3091028"><ele>159.0</ele><time>2026-03-25T14:56:54.373Z</time></trkpt><trkpt lat="45.5785265" lon="9.3090874"><ele>159.0</ele><time>2026-03-25T14:56:55.374Z</time></trkpt><trkpt lat="45.5784021" lon="9.3090584"><ele>159.0</ele><time>2026-03-25T14:56:57.374Z</time></trkpt><trkpt lat="45.5782709" lon="9.3090392"><ele>159.0</ele><time>2026-03-25T14:56:59.374Z</time></trkpt><trkpt lat="45.5781963" lon="9.3090233"><ele>159.0</ele><time>2026-03-25T14:57:00.373Z</time></trkpt><trkpt lat="45.5781264" lon="9.3090177"><ele>159.0</ele><time>2026-03-25T14:57:01.373Z</time></trkpt><trkpt lat="45.5780588" lon="9.3090086"><ele>159.0</ele><time>2026-03-25T14:57:02.373Z</time></trkpt><trkpt lat="45.5779831" lon="9.3089946"><ele>159.0</ele><time>2026-03-25T14:57:03.373Z</time></trkpt><trkpt lat="45.577908" lon="9.3089838"><ele>159.0</ele><time>2026-03-25T14:57:04.373Z</time></trkpt><trkpt lat="45.5778354" lon="9.3089752"><ele>159.0</ele><time>2026-03-25T14:57:05.374Z</time></trkpt><trkpt lat="45.5777665" lon="9.3089591"><ele>159.0</ele><time>2026-03-25T14:57:06.374Z</time></trkpt><trkpt lat="45.5776947" lon="9.3089458"><ele>159.0</ele><time>2026-03-25T14:57:07.373Z</time></trkpt><trkpt lat="45.577628" lon="9.3089263"><ele>159.0</ele><time>2026-03-25T14:57:08.374Z</time></trkpt><trkpt lat="45.5775535" lon="9.3089181"><ele>158.5</ele><time>2026-03-25T14:57:09.374Z</time></trkpt><trkpt lat="45.5774774" lon="9.3089064"><ele>158.0</ele><time>2026-03-25T14:57:10.373Z</time></trkpt><trkpt lat="45.5774066" lon="9.3088914"><ele>157.5</ele><time>2026-03-25T14:57:11.374Z</time></trkpt><trkpt lat="45.5773267" lon="9.3088816"><ele>157.0</ele><time>2026-03-25T14:57:12.374Z</time></trkpt><trkpt lat="45.577254" lon="9.3088682"><ele>156.5</ele><time>2026-03-25T14:57:13.373Z</time></trkpt><trkpt lat="45.5771819" lon="9.3088545"><ele>156.0</ele><time>2026-03-25T14:57:14.374Z</time></trkpt><trkpt lat="45.5771051" lon="9.3088406"><ele>156.0</ele><time>2026-03-25T14:57:15.374Z</time></trkpt><trkpt lat="45.5770267" lon="9.3088197"><ele>156.0</ele><time>2026-03-25T14:57:16.374Z</time></trkpt><trkpt lat="45.5769536" lon="9.3087954"><ele>156.0</ele><time>2026-03-25T14:57:17.373Z</time></trkpt><trkpt lat="45.5768802" lon="9.3087704"><ele>156.0</ele><time>2026-03-25T14:57:18.374Z</time></trkpt><trkpt lat="45.5768067" lon="9.308751"><ele>156.0</ele><time>2026-03-25T14:57:19.374Z</time></trkpt><trkpt lat="45.5767387" lon="9.3087353"><ele>156.0</ele><time>2026-03-25T14:57:20.373Z</time></trkpt><trkpt lat="45.5766694" lon="9.3087121"><ele>156.0</ele><time>2026-03-25T14:57:21.374Z</time></trkpt><trkpt lat="45.576592" lon="9.3086818"><ele>156.0</ele><time>2026-03-25T14:57:22.374Z</time></trkpt><trkpt lat="45.576517" lon="9.3086492"><ele>156.0</ele><time>2026-03-25T14:57:23.374Z</time></trkpt><trkpt lat="45.5764362" lon="9.3086162"><ele>156.0</ele><time>2026-03-25T14:57:24.374Z</time></trkpt><trkpt lat="45.5763619" lon="9.3085824"><ele>156.0</ele><time>2026-03-25T14:57:25.373Z</time></trkpt><trkpt lat="45.5762804" lon="9.3085518"><ele>156.0</ele><time>2026-03-25T14:57:26.373Z</time></trkpt><trkpt lat="45.5762011" lon="9.308518"><ele>156.0</ele><time>2026-03-25T14:57:27.374Z</time></trkpt><trkpt lat="45.5761272" lon="9.3084725"><ele>156.16666666666666</ele><time>2026-03-25T14:57:28.374Z</time></trkpt><trkpt lat="45.5760542" lon="9.3084283"><ele>156.33333333333334</ele><time>2026-03-25T14:57:29.374Z</time></trkpt><trkpt lat="45.5759817" lon="9.3083945"><ele>156.5</ele><time>2026-03-25T14:57:30.373Z</time></trkpt><trkpt lat="45.5759067" lon="9.3083605"><ele>156.66666666666669</ele><time>2026-03-25T14:57:31.374Z</time></trkpt><trkpt lat="45.5758354" lon="9.3083125"><ele>156.83333333333334</ele><time>2026-03-25T14:57:32.374Z</time></trkpt><trkpt lat="45.5757642" lon="9.3082658"><ele>157.0</ele><time>2026-03-25T14:57:33.374Z</time></trkpt><trkpt lat="45.5756939" lon="9.3082195"><ele>157.0</ele><time>2026-03-25T14:57:34.374Z</time></trkpt><trkpt lat="45.5756196" lon="9.308175"><ele>157.0</ele><time>2026-03-25T14:57:35.373Z</time></trkpt><trkpt lat="45.575551" lon="9.3081294"><ele>157.0</ele><time>2026-03-25T14:57:36.374Z</time></trkpt><trkpt lat="45.5754902" lon="9.3080762"><ele>157.0</ele><time>2026-03-25T14:57:37.374Z</time></trkpt><trkpt lat="45.5754201" lon="9.3080255"><ele>157.0</ele><time>2026-03-25T14:57:38.374Z</time></trkpt><trkpt lat="45.5753505" lon="9.3079816"><ele>157.0</ele><time>2026-03-25T14:57:39.373Z</time></trkpt><trkpt lat="45.5752815" lon="9.3079354"><ele>156.66666666666669</ele><time>2026-03-25T14:57:40.374Z</time></trkpt><trkpt lat="45.575212" lon="9.307888"><ele>156.33333333333334</ele><time>2026-03-25T14:57:41.374Z</time></trkpt><trkpt lat="45.5751412" lon="9.3078361"><ele>156.0</ele><time>2026-03-25T14:57:42.374Z</time></trkpt><trkpt lat="45.5750735" lon="9.3077808"><ele>155.66666666666666</ele><time>2026-03-25T14:57:43.373Z</time></trkpt><trkpt lat="45.5750128" lon="9.3077295"><ele>155.33333333333331</ele><time>2026-03-25T14:57:44.374Z</time></trkpt><trkpt lat="45.5749478" lon="9.3076697"><ele>155.0</ele><time>2026-03-25T14:57:45.374Z</time></trkpt><trkpt lat="45.5748854" lon="9.3076145"><ele>155.0</ele><time>2026-03-25T14:57:46.374Z</time></trkpt><trkpt lat="45.5748192" lon="9.3075612"><ele>155.0</ele><time>2026-03-25T14:57:47.373Z</time></trkpt><trkpt lat="45.5747561" lon="9.3075116"><ele>155.0</ele><time>2026-03-25T14:57:48.374Z</time></trkpt><trkpt lat="45.5746973" lon="9.3074537"><ele>155.0</ele><time>2026-03-25T14:57:49.374Z</time></trkpt><trkpt lat="45.5746339" lon="9.3073892"><ele>155.0</ele><time>2026-03-25T14:57:50.374Z</time></trkpt><trkpt lat="45.5745721" lon="9.3073298"><ele>155.0</ele><time>2026-03-25T14:57:51.373Z</time></trkpt><trkpt lat="45.5745114" lon="9.3072706"><ele>155.0</ele><time>2026-03-25T14:57:52.374Z</time></trkpt><trkpt lat="45.5744495" lon="9.3072107"><ele>155.28571428571428</ele><time>2026-03-25T14:57:53.374Z</time></trkpt><trkpt lat="45.5743909" lon="9.3071449"><ele>155.57142857142856</ele><time>2026-03-25T14:57:54.374Z</time></trkpt><trkpt lat="45.5743324" lon="9.30708"><ele>155.85714285714283</ele><time>2026-03-25T14:57:55.373Z</time></trkpt><trkpt lat="45.5742755" lon="9.3070177"><ele>156.14285714285714</ele><time>2026-03-25T14:57:56.374Z</time></trkpt><trkpt lat="45.5742179" lon="9.3069548"><ele>156.42857142857142</ele><time>2026-03-25T14:57:57.374Z</time></trkpt><trkpt lat="45.5741617" lon="9.3068859"><ele>156.7142857142857</ele><time>2026-03-25T14:57:58.373Z</time></trkpt><trkpt lat="45.574103" lon="9.3068224"><ele>157.0</ele><time>2026-03-25T14:57:59.374Z</time></trkpt><trkpt lat="45.5740499" lon="9.3067597"><ele>156.99999999999997</ele><time>2026-03-25T14:58:00.373Z</time></trkpt><trkpt lat="45.573995" lon="9.3066896"><ele>157.0</ele><time>2026-03-25T14:58:01.374Z</time></trkpt><trkpt lat="45.5739434" lon="9.3066106"><ele>157.0</ele><time>2026-03-25T14:58:02.374Z</time></trkpt><trkpt lat="45.5738885" lon="9.3065401"><ele>157.0</ele><time>2026-03-25T14:58:03.374Z</time></trkpt><trkpt lat="45.5738343" lon="9.3064646"><ele>157.0</ele><time>2026-03-25T14:58:04.374Z</time></trkpt><trkpt lat="45.57378" lon="9.306393"><ele>156.99999999999997</ele><time>2026-03-25T14:58:05.374Z</time></trkpt><trkpt lat="45.5737277" lon="9.3063202"><ele>157.0</ele><time>2026-03-25T14:58:06.374Z</time></trkpt><trkpt lat="45.573676" lon="9.3062492"><ele>156.85714285714283</ele><time>2026-03-25T14:58:07.374Z</time></trkpt><trkpt lat="45.5736209" lon="9.3061719"><ele>156.71428571428572</ele><time>2026-03-25T14:58:08.374Z</time></trkpt><trkpt lat="45.5735678" lon="9.3060887"><ele>156.57142857142856</ele><time>2026-03-25T14:58:09.374Z</time></trkpt><trkpt lat="45.5735204" lon="9.3060102"><ele>156.42857142857142</ele><time>2026-03-25T14:58:10.374Z</time></trkpt><trkpt lat="45.5734774" lon="9.3059221"><ele>156.28571428571428</ele><time>2026-03-25T14:58:11.373Z</time></trkpt><trkpt lat="45.5734309" lon="9.3058438"><ele>156.14285714285714</ele><time>2026-03-25T14:58:12.373Z</time></trkpt><trkpt lat="45.5733857" lon="9.3057693"><ele>156.0</ele><time>2026-03-25T14:58:13.374Z</time></trkpt><trkpt lat="45.5733357" lon="9.3056911"><ele>156.0</ele><time>2026-03-25T14:58:14.373Z</time></trkpt><trkpt lat="45.5732897" lon="9.3056087"><ele>156.0</ele><time>2026-03-25T14:58:15.374Z</time></trkpt><trkpt lat="45.5732468" lon="9.3055271"><ele>156.0</ele><time>2026-03-25T14:58:16.374Z</time></trkpt><trkpt lat="45.5732063" lon="9.305441"><ele>156.0</ele><time>2026-03-25T14:58:17.374Z</time></trkpt><trkpt lat="45.5731613" lon="9.3053583"><ele>156.0</ele><time>2026-03-25T14:58:18.374Z</time></trkpt><trkpt lat="45.5731159" lon="9.3052782"><ele>156.0</ele><time>2026-03-25T14:58:19.374Z</time></trkpt><trkpt lat="45.5730698" lon="9.305194"><ele>156.0</ele><time>2026-03-25T14:58:20.374Z</time></trkpt><trkpt lat="45.5730249" lon="9.3051086"><ele>156.14285714285714</ele><time>2026-03-25T14:58:21.374Z</time></trkpt><trkpt lat="45.5729816" lon="9.3050211"><ele>156.28571428571428</ele><time>2026-03-25T14:58:22.373Z</time></trkpt><trkpt lat="45.5729439" lon="9.3049312"><ele>156.42857142857142</ele><time>2026-03-25T14:58:23.374Z</time></trkpt><trkpt lat="45.5729004" lon="9.3048492"><ele>156.57142857142856</ele><time>2026-03-25T14:58:24.374Z</time></trkpt><trkpt lat="45.5728668" lon="9.304756"><ele>156.71428571428572</ele><time>2026-03-25T14:58:25.373Z</time></trkpt><trkpt lat="45.572826" lon="9.3046656"><ele>156.85714285714283</ele><time>2026-03-25T14:58:26.374Z</time></trkpt><trkpt lat="45.5727916" lon="9.3045746"><ele>157.0</ele><time>2026-03-25T14:58:27.373Z</time></trkpt><trkpt lat="45.5727545" lon="9.3044873"><ele>156.99999999999997</ele><time>2026-03-25T14:58:28.374Z</time></trkpt><trkpt lat="45.572724" lon="9.3044014"><ele>157.0</ele><time>2026-03-25T14:58:29.373Z</time></trkpt><trkpt lat="45.5726887" lon="9.3043089"><ele>157.0</ele><time>2026-03-25T14:58:30.374Z</time></trkpt><trkpt lat="45.572652" lon="9.3042155"><ele>157.0</ele><time>2026-03-25T14:58:31.374Z</time></trkpt><trkpt lat="45.572616" lon="9.3041274"><ele>157.0</ele><time>2026-03-25T14:58:32.374Z</time></trkpt><trkpt lat="45.5725839" lon="9.3040382"><ele>156.99999999999997</ele><time>2026-03-25T14:58:33.374Z</time></trkpt><trkpt lat="45.5725471" lon="9.3039429"><ele>157.0</ele><time>2026-03-25T14:58:34.374Z</time></trkpt><trkpt lat="45.5725131" lon="9.3038461"><ele>156.99999999999997</ele><time>2026-03-25T14:58:35.373Z</time></trkpt><trkpt lat="45.5724777" lon="9.3037534"><ele>157.0</ele><time>2026-03-25T14:58:36.374Z</time></trkpt><trkpt lat="45.572448" lon="9.3036577"><ele>157.0</ele><time>2026-03-25T14:58:37.373Z</time></trkpt><trkpt lat="45.5724105" lon="9.3035647"><ele>157.0</ele><time>2026-03-25T14:58:38.374Z</time></trkpt><trkpt lat="45.5723816" lon="9.3034832"><ele>157.0</ele><time>2026-03-25T14:58:39.374Z</time></trkpt><trkpt lat="45.5723486" lon="9.3033973"><ele>156.99999999999997</ele><time>2026-03-25T14:58:40.374Z</time></trkpt><trkpt lat="45.5723109" lon="9.303316"><ele>157.0</ele><time>2026-03-25T14:58:41.374Z</time></trkpt><trkpt lat="45.5722785" lon="9.3032376"><ele>157.0</ele><time>2026-03-25T14:58:42.374Z</time></trkpt><trkpt lat="45.5722223" lon="9.3031012"><ele>157.0</ele><time>2026-03-25T14:58:44.374Z</time></trkpt><trkpt lat="45.5721795" lon="9.3029688"><ele>157.0</ele><time>2026-03-25T14:58:46.374Z</time></trkpt><trkpt lat="45.5721646" lon="9.3028351"><ele>157.0</ele><time>2026-03-25T14:58:48.373Z</time></trkpt><trkpt lat="45.5721887" lon="9.3026798"><ele>157.0</ele><time>2026-03-25T14:58:50.373Z</time></trkpt><trkpt lat="45.5721705" lon="9.3025324"><ele>157.0</ele><time>2026-03-25T14:58:52.374Z</time></trkpt><trkpt lat="45.5721108" lon="9.3024014"><ele>157.0</ele><time>2026-03-25T14:58:54.374Z</time></trkpt><trkpt lat="45.5720219" lon="9.3023067"><ele>157.0</ele><time>2026-03-25T14:58:56.374Z</time></trkpt><trkpt lat="45.5719561" lon="9.3021857"><ele>157.0</ele><time>2026-03-25T14:58:58.374Z</time></trkpt><trkpt lat="45.5719081" lon="9.3020429"><ele>157.0</ele><time>2026-03-25T14:59:00.374Z</time></trkpt><trkpt lat="45.5718725" lon="9.3018899"><ele>156.79999999999998</ele><time>2026-03-25T14:59:02.374Z</time></trkpt><trkpt lat="45.5718438" lon="9.3017299"><ele>156.6</ele><time>2026-03-25T14:59:04.374Z</time></trkpt><trkpt lat="45.5718457" lon="9.3015692"><ele>156.39999999999998</ele><time>2026-03-25T14:59:06.373Z</time></trkpt><trkpt lat="45.5718879" lon="9.3014256"><ele>156.2</ele><time>2026-03-25T14:59:08.374Z</time></trkpt><trkpt lat="45.5719127" lon="9.3012701"><ele>156.0</ele><time>2026-03-25T14:59:10.374Z</time></trkpt><trkpt lat="45.571907" lon="9.3011212"><ele>156.0</ele><time>2026-03-25T14:59:12.374Z</time></trkpt><trkpt lat="45.5718701" lon="9.300963"><ele>156.0</ele><time>2026-03-25T14:59:14.373Z</time></trkpt><trkpt lat="45.5717934" lon="9.300863"><ele>156.0</ele><time>2026-03-25T14:59:16.374Z</time></trkpt><trkpt lat="45.5716899" lon="9.300784"><ele>156.0</ele><time>2026-03-25T14:59:18.374Z</time></trkpt><trkpt lat="45.5715945" lon="9.30068"><ele>156.0</ele><time>2026-03-25T14:59:20.374Z</time></trkpt><trkpt lat="45.5715308" lon="9.3005432"><ele>156.0</ele><time>2026-03-25T14:59:22.374Z</time></trkpt><trkpt lat="45.5715055" lon="9.3004563"><ele>156.0</ele><time>2026-03-25T14:59:23.374Z</time></trkpt><trkpt lat="45.5714812" lon="9.30037"><ele>156.0</ele><time>2026-03-25T14:59:24.374Z</time></trkpt><trkpt lat="45.5714251" lon="9.3002161"><ele>156.0</ele><time>2026-03-25T14:59:26.374Z</time></trkpt><trkpt lat="45.5714029" lon="9.3001257"><ele>156.0</ele><time>2026-03-25T14:59:27.374Z</time></trkpt><trkpt lat="45.5713858" lon="9.3000377"><ele>156.0</ele><time>2026-03-25T14:59:28.373Z</time></trkpt><trkpt lat="45.5713419" lon="9.2998658"><ele>156.0</ele><time>2026-03-25T14:59:30.374Z</time></trkpt><trkpt lat="45.5712925" lon="9.2996974"><ele>156.0</ele><time>2026-03-25T14:59:32.374Z</time></trkpt><trkpt lat="45.5712402" lon="9.299536"><ele>156.0</ele><time>2026-03-25T14:59:34.374Z</time></trkpt><trkpt lat="45.571198" lon="9.2993712"><ele>155.5</ele><time>2026-03-25T14:59:36.374Z</time></trkpt><trkpt lat="45.5711737" lon="9.2992818"><ele>155.0</ele><time>2026-03-25T14:59:37.373Z</time></trkpt><trkpt lat="45.5711519" lon="9.2991969"><ele>154.5</ele><time>2026-03-25T14:59:38.374Z</time></trkpt><trkpt lat="45.5711054" lon="9.2990295"><ele>154.0</ele><time>2026-03-25T14:59:40.374Z</time></trkpt><trkpt lat="45.5710815" lon="9.2989444"><ele>153.5</ele><time>2026-03-25T14:59:41.374Z</time></trkpt><trkpt lat="45.5710581" lon="9.2988599"><ele>153.0</ele><time>2026-03-25T14:59:42.374Z</time></trkpt><trkpt lat="45.5710343" lon="9.2987705"><ele>152.71428571428572</ele><time>2026-03-25T14:59:43.373Z</time></trkpt><trkpt lat="45.5710125" lon="9.2986818"><ele>152.42857142857144</ele><time>2026-03-25T14:59:44.373Z</time></trkpt><trkpt lat="45.5709965" lon="9.2985928"><ele>152.14285714285717</ele><time>2026-03-25T14:59:45.374Z</time></trkpt><trkpt lat="45.5709702" lon="9.2985094"><ele>151.85714285714286</ele><time>2026-03-25T14:59:46.374Z</time></trkpt><trkpt lat="45.5709459" lon="9.2984234"><ele>151.57142857142858</ele><time>2026-03-25T14:59:47.374Z</time></trkpt><trkpt lat="45.5709194" lon="9.2983379"><ele>151.2857142857143</ele><time>2026-03-25T14:59:48.374Z</time></trkpt><trkpt lat="45.5708918" lon="9.2982548"><ele>151.0</ele><time>2026-03-25T14:59:49.374Z</time></trkpt><trkpt lat="45.5708625" lon="9.29817"><ele>151.6</ele><time>2026-03-25T14:59:50.373Z</time></trkpt><trkpt lat="45.5708186" lon="9.298008"><ele>152.2</ele><time>2026-03-25T14:59:52.374Z</time></trkpt><trkpt lat="45.5707736" lon="9.2978481"><ele>152.8</ele><time>2026-03-25T14:59:54.374Z</time></trkpt><trkpt lat="45.5707468" lon="9.297759"><ele>153.4</ele><time>2026-03-25T14:59:55.374Z</time></trkpt><trkpt lat="45.57072" lon="9.2976765"><ele>154.0</ele><time>2026-03-25T14:59:56.374Z</time></trkpt><trkpt lat="45.5706664" lon="9.2975178"><ele>154.0</ele><time>2026-03-25T14:59:58.373Z</time></trkpt><trkpt lat="45.5706453" lon="9.2974329"><ele>154.0</ele><time>2026-03-25T14:59:59.374Z</time></trkpt><trkpt lat="45.5705955" lon="9.2972692"><ele>154.0</ele><time>2026-03-25T15:00:01.374Z</time></trkpt><trkpt lat="45.5705697" lon="9.2971855"><ele>154.0</ele><time>2026-03-25T15:00:02.374Z</time></trkpt><trkpt lat="45.570526" lon="9.2970209"><ele>154.0</ele><time>2026-03-25T15:00:04.374Z</time></trkpt><trkpt lat="45.5704997" lon="9.2969358"><ele>154.0</ele><time>2026-03-25T15:00:05.374Z</time></trkpt><trkpt lat="45.5704768" lon="9.2968516"><ele>154.25</ele><time>2026-03-25T15:00:06.374Z</time></trkpt><trkpt lat="45.5704291" lon="9.2966835"><ele>154.5</ele><time>2026-03-25T15:00:08.373Z</time></trkpt><trkpt lat="45.5703767" lon="9.2965211"><ele>154.75</ele><time>2026-03-25T15:00:10.373Z</time></trkpt><trkpt lat="45.5703325" lon="9.2963571"><ele>155.0</ele><time>2026-03-25T15:00:12.374Z</time></trkpt><trkpt lat="45.5702895" lon="9.2961903"><ele>154.5</ele><time>2026-03-25T15:00:14.374Z</time></trkpt><trkpt lat="45.5702365" lon="9.2960324"><ele>154.0</ele><time>2026-03-25T15:00:16.373Z</time></trkpt><trkpt lat="45.5701907" lon="9.2958678"><ele>153.5</ele><time>2026-03-25T15:00:18.373Z</time></trkpt><trkpt lat="45.5701476" lon="9.2957034"><ele>153.0</ele><time>2026-03-25T15:00:20.374Z</time></trkpt><trkpt lat="45.5701025" lon="9.2955397"><ele>153.0</ele><time>2026-03-25T15:00:22.374Z</time></trkpt><trkpt lat="45.5700766" lon="9.2954547"><ele>153.0</ele><time>2026-03-25T15:00:23.374Z</time></trkpt><trkpt lat="45.5700531" lon="9.29537"><ele>153.0</ele><time>2026-03-25T15:00:24.374Z</time></trkpt><trkpt lat="45.5700341" lon="9.2952836"><ele>153.0</ele><time>2026-03-25T15:00:25.374Z</time></trkpt><trkpt lat="45.5699787" lon="9.2951329"><ele>153.0</ele><time>2026-03-25T15:00:27.374Z</time></trkpt><trkpt lat="45.5699518" lon="9.2950505"><ele>153.0</ele><time>2026-03-25T15:00:28.373Z</time></trkpt><trkpt lat="45.5698968" lon="9.2948863"><ele>153.0</ele><time>2026-03-25T15:00:30.374Z</time></trkpt><trkpt lat="45.5698703" lon="9.2947995"><ele>153.0</ele><time>2026-03-25T15:00:31.374Z</time></trkpt><trkpt lat="45.5698478" lon="9.2947088"><ele>153.0</ele><time>2026-03-25T15:00:32.373Z</time></trkpt><trkpt lat="45.5697947" lon="9.2945434"><ele>153.0</ele><time>2026-03-25T15:00:34.374Z</time></trkpt><trkpt lat="45.5697528" lon="9.2943835"><ele>153.0</ele><time>2026-03-25T15:00:36.374Z</time></trkpt><trkpt lat="45.5697292" lon="9.2942959"><ele>153.0</ele><time>2026-03-25T15:00:37.374Z</time></trkpt><trkpt lat="45.5697122" lon="9.2942089"><ele>152.85714285714286</ele><time>2026-03-25T15:00:38.373Z</time></trkpt><trkpt lat="45.5696879" lon="9.2941206"><ele>152.71428571428572</ele><time>2026-03-25T15:00:39.374Z</time></trkpt><trkpt lat="45.5696389" lon="9.2939595"><ele>152.57142857142856</ele><time>2026-03-25T15:00:41.374Z</time></trkpt><trkpt lat="45.5696177" lon="9.2938744"><ele>152.42857142857144</ele><time>2026-03-25T15:00:42.374Z</time></trkpt><trkpt lat="45.5695985" lon="9.2937848"><ele>152.2857142857143</ele><time>2026-03-25T15:00:43.374Z</time></trkpt><trkpt lat="45.5695776" lon="9.293699"><ele>152.14285714285714</ele><time>2026-03-25T15:00:44.374Z</time></trkpt><trkpt lat="45.5695545" lon="9.2936138"><ele>152.0</ele><time>2026-03-25T15:00:45.374Z</time></trkpt><trkpt lat="45.5695103" lon="9.2934522"><ele>152.28571428571428</ele><time>2026-03-25T15:00:47.374Z</time></trkpt><trkpt lat="45.5694824" lon="9.2933707"><ele>152.57142857142858</ele><time>2026-03-25T15:00:48.373Z</time></trkpt><trkpt lat="45.5694568" lon="9.2932868"><ele>152.85714285714286</ele><time>2026-03-25T15:00:49.374Z</time></trkpt><trkpt lat="45.5694065" lon="9.2931289"><ele>153.14285714285714</ele><time>2026-03-25T15:00:51.373Z</time></trkpt><trkpt lat="45.5693773" lon="9.2930442"><ele>153.42857142857144</ele><time>2026-03-25T15:00:52.374Z</time></trkpt><trkpt lat="45.569353" lon="9.2929556"><ele>153.71428571428572</ele><time>2026-03-25T15:00:53.373Z</time></trkpt><trkpt lat="45.569329" lon="9.2928719"><ele>154.0</ele><time>2026-03-25T15:00:54.374Z</time></trkpt><trkpt lat="45.5693049" lon="9.2927887"><ele>154.0</ele><time>2026-03-25T15:00:55.374Z</time></trkpt><trkpt lat="45.5692809" lon="9.2927039"><ele>154.0</ele><time>2026-03-25T15:00:56.374Z</time></trkpt><trkpt lat="45.56926" lon="9.2926136"><ele>154.0</ele><time>2026-03-25T15:00:57.374Z</time></trkpt><trkpt lat="45.5692357" lon="9.2925216"><ele>154.0</ele><time>2026-03-25T15:00:58.374Z</time></trkpt><trkpt lat="45.5691859" lon="9.2923635"><ele>154.0</ele><time>2026-03-25T15:01:00.374Z</time></trkpt><trkpt lat="45.5691575" lon="9.2922775"><ele>154.0</ele><time>2026-03-25T15:01:01.374Z</time></trkpt><trkpt lat="45.5691056" lon="9.2921107"><ele>154.0</ele><time>2026-03-25T15:01:03.374Z</time></trkpt><trkpt lat="45.5690793" lon="9.2920182"><ele>154.0</ele><time>2026-03-25T15:01:04.374Z</time></trkpt><trkpt lat="45.5690572" lon="9.2919336"><ele>154.0</ele><time>2026-03-25T15:01:05.374Z</time></trkpt><trkpt lat="45.569032" lon="9.2918491"><ele>154.0</ele><time>2026-03-25T15:01:06.374Z</time></trkpt><trkpt lat="45.5690105" lon="9.2917645"><ele>154.0</ele><time>2026-03-25T15:01:07.374Z</time></trkpt><trkpt lat="45.568985" lon="9.2916751"><ele>154.0</ele><time>2026-03-25T15:01:08.373Z</time></trkpt><trkpt lat="45.5689591" lon="9.2915895"><ele>154.0</ele><time>2026-03-25T15:01:09.373Z</time></trkpt><trkpt lat="45.5689131" lon="9.2914254"><ele>153.6</ele><time>2026-03-25T15:01:11.374Z</time></trkpt><trkpt lat="45.5688625" lon="9.2912582"><ele>153.2</ele><time>2026-03-25T15:01:13.374Z</time></trkpt><trkpt lat="45.5688344" lon="9.2911755"><ele>152.79999999999998</ele><time>2026-03-25T15:01:14.374Z</time></trkpt><trkpt lat="45.5688087" lon="9.2910922"><ele>152.4</ele><time>2026-03-25T15:01:15.374Z</time></trkpt><trkpt lat="45.5687842" lon="9.291003"><ele>152.0</ele><time>2026-03-25T15:01:16.374Z</time></trkpt><trkpt lat="45.5687344" lon="9.2908332"><ele>152.0</ele><time>2026-03-25T15:01:18.373Z</time></trkpt><trkpt lat="45.5687096" lon="9.2907499"><ele>152.0</ele><time>2026-03-25T15:01:19.374Z</time></trkpt><trkpt lat="45.5686885" lon="9.290661"><ele>152.0</ele><time>2026-03-25T15:01:20.374Z</time></trkpt><trkpt lat="45.5686616" lon="9.2905694"><ele>152.0</ele><time>2026-03-25T15:01:21.373Z</time></trkpt><trkpt lat="45.568642" lon="9.2904763"><ele>152.0</ele><time>2026-03-25T15:01:22.374Z</time></trkpt><trkpt lat="45.5686154" lon="9.2903897"><ele>152.0</ele><time>2026-03-25T15:01:23.373Z</time></trkpt><trkpt lat="45.5685949" lon="9.2903045"><ele>152.0</ele><time>2026-03-25T15:01:24.374Z</time></trkpt><trkpt lat="45.5685693" lon="9.2902172"><ele>152.0</ele><time>2026-03-25T15:01:25.374Z</time></trkpt><trkpt lat="45.5685442" lon="9.2901289"><ele>152.0</ele><time>2026-03-25T15:01:26.374Z</time></trkpt><trkpt lat="45.5684901" lon="9.2899679"><ele>152.0</ele><time>2026-03-25T15:01:28.373Z</time></trkpt><trkpt lat="45.5684408" lon="9.2898063"><ele>152.0</ele><time>2026-03-25T15:01:30.374Z</time></trkpt><trkpt lat="45.5683935" lon="9.28964"><ele>152.0</ele><time>2026-03-25T15:01:32.373Z</time></trkpt><trkpt lat="45.5683431" lon="9.2894714"><ele>152.0</ele><time>2026-03-25T15:01:34.373Z</time></trkpt><trkpt lat="45.5682932" lon="9.2892966"><ele>152.0</ele><time>2026-03-25T15:01:36.374Z</time></trkpt><trkpt lat="45.5682718" lon="9.2892114"><ele>152.0</ele><time>2026-03-25T15:01:37.374Z</time></trkpt><trkpt lat="45.568223" lon="9.289048"><ele>152.0</ele><time>2026-03-25T15:01:39.373Z</time></trkpt><trkpt lat="45.5682018" lon="9.2889554"><ele>152.0</ele><time>2026-03-25T15:01:40.374Z</time></trkpt><trkpt lat="45.5681756" lon="9.2888678"><ele>151.83333333333331</ele><time>2026-03-25T15:01:41.373Z</time></trkpt><trkpt lat="45.5681477" lon="9.2887754"><ele>151.66666666666666</ele><time>2026-03-25T15:01:42.374Z</time></trkpt><trkpt lat="45.5681221" lon="9.2886926"><ele>151.5</ele><time>2026-03-25T15:01:43.373Z</time></trkpt><trkpt lat="45.5680989" lon="9.2886043"><ele>151.33333333333334</ele><time>2026-03-25T15:01:44.374Z</time></trkpt><trkpt lat="45.5680697" lon="9.2885165"><ele>151.16666666666669</ele><time>2026-03-25T15:01:45.374Z</time></trkpt><trkpt lat="45.568047" lon="9.2884281"><ele>151.0</ele><time>2026-03-25T15:01:46.374Z</time></trkpt><trkpt lat="45.5679963" lon="9.2882659"><ele>151.0</ele><time>2026-03-25T15:01:48.374Z</time></trkpt><trkpt lat="45.5679529" lon="9.2880995"><ele>151.0</ele><time>2026-03-25T15:01:50.374Z</time></trkpt><trkpt lat="45.5679269" lon="9.2880173"><ele>151.0</ele><time>2026-03-25T15:01:51.374Z</time></trkpt><trkpt lat="45.5678833" lon="9.2878612"><ele>151.0</ele><time>2026-03-25T15:01:53.373Z</time></trkpt><trkpt lat="45.5678362" lon="9.2877062"><ele>151.0</ele><time>2026-03-25T15:01:55.374Z</time></trkpt><trkpt lat="45.5677901" lon="9.2875412"><ele>151.5</ele><time>2026-03-25T15:01:57.373Z</time></trkpt><trkpt lat="45.5677471" lon="9.287381"><ele>152.0</ele><time>2026-03-25T15:01:59.374Z</time></trkpt><trkpt lat="45.5677015" lon="9.2872281"><ele>152.5</ele><time>2026-03-25T15:02:01.374Z</time></trkpt><trkpt lat="45.5676586" lon="9.2870752"><ele>153.0</ele><time>2026-03-25T15:02:03.374Z</time></trkpt><trkpt lat="45.567624" lon="9.2869093"><ele>153.0</ele><time>2026-03-25T15:02:05.374Z</time></trkpt><trkpt lat="45.5675968" lon="9.2867366"><ele>153.0</ele><time>2026-03-25T15:02:07.374Z</time></trkpt><trkpt lat="45.5675591" lon="9.2865715"><ele>153.0</ele><time>2026-03-25T15:02:09.374Z</time></trkpt><trkpt lat="45.5675152" lon="9.2864193"><ele>153.0</ele><time>2026-03-25T15:02:11.373Z</time></trkpt><trkpt lat="45.5674732" lon="9.2862684"><ele>152.8</ele><time>2026-03-25T15:02:13.374Z</time></trkpt><trkpt lat="45.5674172" lon="9.2861053"><ele>152.60000000000002</ele><time>2026-03-25T15:02:15.374Z</time></trkpt><trkpt lat="45.5673721" lon="9.2859394"><ele>152.39999999999998</ele><time>2026-03-25T15:02:17.373Z</time></trkpt><trkpt lat="45.5673237" lon="9.2857689"><ele>152.2</ele><time>2026-03-25T15:02:19.374Z</time></trkpt><trkpt lat="45.5672942" lon="9.285684"><ele>152.0</ele><time>2026-03-25T15:02:20.374Z</time></trkpt><trkpt lat="45.5672454" lon="9.2855223"><ele>152.0</ele><time>2026-03-25T15:02:22.373Z</time></trkpt><trkpt lat="45.567239" lon="9.2853648"><ele>152.0</ele><time>2026-03-25T15:02:24.373Z</time></trkpt><trkpt lat="45.5672663" lon="9.2852124"><ele>152.0</ele><time>2026-03-25T15:02:26.373Z</time></trkpt><trkpt lat="45.5672818" lon="9.2850444"><ele>152.0</ele><time>2026-03-25T15:02:28.374Z</time></trkpt><trkpt lat="45.5672426" lon="9.2848903"><ele>152.0</ele><time>2026-03-25T15:02:30.373Z</time></trkpt><trkpt lat="45.567153" lon="9.2847712"><ele>152.0</ele><time>2026-03-25T15:02:32.373Z</time></trkpt><trkpt lat="45.5671" lon="9.2847164"><ele>152.0</ele><time>2026-03-25T15:02:33.374Z</time></trkpt><trkpt lat="45.5670491" lon="9.2846615"><ele>152.0</ele><time>2026-03-25T15:02:34.373Z</time></trkpt><trkpt lat="45.5670003" lon="9.284602"><ele>152.0</ele><time>2026-03-25T15:02:35.374Z</time></trkpt><trkpt lat="45.5669255" lon="9.2844697"><ele>152.0</ele><time>2026-03-25T15:02:37.374Z</time></trkpt><trkpt lat="45.5668629" lon="9.2843339"><ele>152.0</ele><time>2026-03-25T15:02:39.374Z</time></trkpt><trkpt lat="45.5667986" lon="9.2842033"><ele>152.0</ele><time>2026-03-25T15:02:41.374Z</time></trkpt><trkpt lat="45.5667563" lon="9.2840809"><ele>152.0</ele><time>2026-03-25T15:02:43.374Z</time></trkpt><trkpt lat="45.5667183" lon="9.2839545"><ele>152.0</ele><time>2026-03-25T15:02:45.374Z</time></trkpt><trkpt lat="45.5666631" lon="9.2838277"><ele>152.0</ele><time>2026-03-25T15:02:47.374Z</time></trkpt><trkpt lat="45.5666059" lon="9.2836889"><ele>152.25</ele><time>2026-03-25T15:02:49.374Z</time></trkpt><trkpt lat="45.5665445" lon="9.283549"><ele>152.5</ele><time>2026-03-25T15:02:51.374Z</time></trkpt><trkpt lat="45.5664825" lon="9.2834106"><ele>152.75</ele><time>2026-03-25T15:02:53.374Z</time></trkpt><trkpt lat="45.5664187" lon="9.2832688"><ele>153.0</ele><time>2026-03-25T15:02:55.374Z</time></trkpt><trkpt lat="45.5663684" lon="9.2831211"><ele>152.75</ele><time>2026-03-25T15:02:57.373Z</time></trkpt><trkpt lat="45.5663068" lon="9.2829889"><ele>152.5</ele><time>2026-03-25T15:02:59.374Z</time></trkpt><trkpt lat="45.5662391" lon="9.2828465"><ele>152.25</ele><time>2026-03-25T15:03:01.374Z</time></trkpt><trkpt lat="45.5661767" lon="9.282703"><ele>152.0</ele><time>2026-03-25T15:03:03.374Z</time></trkpt><trkpt lat="45.5661041" lon="9.282566"><ele>151.79999999999998</ele><time>2026-03-25T15:03:05.374Z</time></trkpt><trkpt lat="45.5660248" lon="9.2824334"><ele>151.6</ele><time>2026-03-25T15:03:07.374Z</time></trkpt><trkpt lat="45.5659848" lon="9.2823619"><ele>151.39999999999998</ele><time>2026-03-25T15:03:08.374Z</time></trkpt><trkpt lat="45.565921" lon="9.2822185"><ele>151.2</ele><time>2026-03-25T15:03:10.374Z</time></trkpt><trkpt lat="45.565864" lon="9.2820686"><ele>151.0</ele><time>2026-03-25T15:03:12.374Z</time></trkpt><trkpt lat="45.5657974" lon="9.2819359"><ele>151.0</ele><time>2026-03-25T15:03:14.374Z</time></trkpt><trkpt lat="45.565731" lon="9.281786"><ele>151.0</ele><time>2026-03-25T15:03:16.374Z</time></trkpt><trkpt lat="45.5656617" lon="9.2816398"><ele>151.0</ele><time>2026-03-25T15:03:18.373Z</time></trkpt><trkpt lat="45.5656001" lon="9.2814846"><ele>151.0</ele><time>2026-03-25T15:03:20.374Z</time></trkpt><trkpt lat="45.5655626" lon="9.2814097"><ele>151.0</ele><time>2026-03-25T15:03:21.374Z</time></trkpt><trkpt lat="45.5654991" lon="9.2812578"><ele>150.83333333333334</ele><time>2026-03-25T15:03:23.374Z</time></trkpt><trkpt lat="45.5654366" lon="9.2811083"><ele>150.66666666666669</ele><time>2026-03-25T15:03:25.374Z</time></trkpt><trkpt lat="45.5654019" lon="9.2810284"><ele>150.5</ele><time>2026-03-25T15:03:26.374Z</time></trkpt><trkpt lat="45.5653676" lon="9.2809527"><ele>150.33333333333334</ele><time>2026-03-25T15:03:27.374Z</time></trkpt><trkpt lat="45.5653005" lon="9.2808069"><ele>150.16666666666666</ele><time>2026-03-25T15:03:29.373Z</time></trkpt><trkpt lat="45.5652639" lon="9.2807279"><ele>150.0</ele><time>2026-03-25T15:03:30.374Z</time></trkpt><trkpt lat="45.5651979" lon="9.280576"><ele>150.0</ele><time>2026-03-25T15:03:32.374Z</time></trkpt><trkpt lat="45.5651642" lon="9.2804971"><ele>150.0</ele><time>2026-03-25T15:03:33.373Z</time></trkpt><trkpt lat="45.5650974" lon="9.2803498"><ele>150.0</ele><time>2026-03-25T15:03:35.374Z</time></trkpt><trkpt lat="45.5650663" lon="9.2802665"><ele>150.0</ele><time>2026-03-25T15:03:36.374Z</time></trkpt><trkpt lat="45.5650051" lon="9.2801117"><ele>150.0</ele><time>2026-03-25T15:03:38.374Z</time></trkpt><trkpt lat="45.5649737" lon="9.2800293"><ele>150.0</ele><time>2026-03-25T15:03:39.373Z</time></trkpt><trkpt lat="45.5649422" lon="9.2799486"><ele>150.0</ele><time>2026-03-25T15:03:40.374Z</time></trkpt><trkpt lat="45.5649077" lon="9.279872"><ele>150.0</ele><time>2026-03-25T15:03:41.374Z</time></trkpt><trkpt lat="45.5648402" lon="9.2797194"><ele>150.0</ele><time>2026-03-25T15:03:43.373Z</time></trkpt><trkpt lat="45.5647766" lon="9.2795703"><ele>150.0</ele><time>2026-03-25T15:03:45.374Z</time></trkpt><trkpt lat="45.5647419" lon="9.2794927"><ele>150.0</ele><time>2026-03-25T15:03:46.374Z</time></trkpt><trkpt lat="45.5646829" lon="9.2793382"><ele>149.5</ele><time>2026-03-25T15:03:48.374Z</time></trkpt><trkpt lat="45.5646148" lon="9.2791892"><ele>149.0</ele><time>2026-03-25T15:03:50.374Z</time></trkpt><trkpt lat="45.5645439" lon="9.2790334"><ele>148.5</ele><time>2026-03-25T15:03:52.374Z</time></trkpt><trkpt lat="45.5644755" lon="9.2788865"><ele>148.0</ele><time>2026-03-25T15:03:54.374Z</time></trkpt><trkpt lat="45.5644112" lon="9.2787455"><ele>148.0</ele><time>2026-03-25T15:03:56.374Z</time></trkpt><trkpt lat="45.5643752" lon="9.2786703"><ele>148.0</ele><time>2026-03-25T15:03:57.373Z</time></trkpt><trkpt lat="45.5643084" lon="9.2785223"><ele>148.0</ele><time>2026-03-25T15:03:59.374Z</time></trkpt><trkpt lat="45.5642391" lon="9.2783721"><ele>148.0</ele><time>2026-03-25T15:04:01.374Z</time></trkpt><trkpt lat="45.5642039" lon="9.2782965"><ele>148.0</ele><time>2026-03-25T15:04:02.373Z</time></trkpt><trkpt lat="45.5641504" lon="9.2781432"><ele>147.85714285714286</ele><time>2026-03-25T15:04:04.373Z</time></trkpt><trkpt lat="45.5641186" lon="9.2780635"><ele>147.71428571428572</ele><time>2026-03-25T15:04:05.374Z</time></trkpt><trkpt lat="45.5640836" lon="9.2779855"><ele>147.57142857142856</ele><time>2026-03-25T15:04:06.374Z</time></trkpt><trkpt lat="45.5640155" lon="9.2778352"><ele>147.42857142857144</ele><time>2026-03-25T15:04:08.373Z</time></trkpt><trkpt lat="45.5639826" lon="9.2777567"><ele>147.28571428571428</ele><time>2026-03-25T15:04:09.373Z</time></trkpt><trkpt lat="45.5639451" lon="9.2776797"><ele>147.14285714285714</ele><time>2026-03-25T15:04:10.373Z</time></trkpt><trkpt lat="45.5639109" lon="9.2776042"><ele>147.0</ele><time>2026-03-25T15:04:11.374Z</time></trkpt><trkpt lat="45.5638743" lon="9.2775211"><ele>147.0</ele><time>2026-03-25T15:04:12.374Z</time></trkpt><trkpt lat="45.5638352" lon="9.2774465"><ele>147.0</ele><time>2026-03-25T15:04:13.374Z</time></trkpt><trkpt lat="45.5638001" lon="9.2773702"><ele>147.0</ele><time>2026-03-25T15:04:14.374Z</time></trkpt><trkpt lat="45.5637636" lon="9.2772911"><ele>147.0</ele><time>2026-03-25T15:04:15.374Z</time></trkpt><trkpt lat="45.5636916" lon="9.2771355"><ele>147.0</ele><time>2026-03-25T15:04:17.374Z</time></trkpt><trkpt lat="45.56366" lon="9.2770555"><ele>147.0</ele><time>2026-03-25T15:04:18.374Z</time></trkpt><trkpt lat="45.5636258" lon="9.2769784"><ele>147.16666666666666</ele><time>2026-03-25T15:04:19.374Z</time></trkpt><trkpt lat="45.56359" lon="9.2769"><ele>147.33333333333334</ele><time>2026-03-25T15:04:20.373Z</time></trkpt><trkpt lat="45.563554" lon="9.276819"><ele>147.5</ele><time>2026-03-25T15:04:21.374Z</time></trkpt><trkpt lat="45.5635176" lon="9.2767342"><ele>147.66666666666669</ele><time>2026-03-25T15:04:22.374Z</time></trkpt><trkpt lat="45.5634459" lon="9.2765809"><ele>147.83333333333334</ele><time>2026-03-25T15:04:24.374Z</time></trkpt><trkpt lat="45.5634054" lon="9.2765019"><ele>148.0</ele><time>2026-03-25T15:04:25.374Z</time></trkpt><trkpt lat="45.5633657" lon="9.2764204"><ele>148.0</ele><time>2026-03-25T15:04:26.374Z</time></trkpt><trkpt lat="45.5633219" lon="9.2763425"><ele>148.0</ele><time>2026-03-25T15:04:27.373Z</time></trkpt><trkpt lat="45.5632824" lon="9.2762584"><ele>148.0</ele><time>2026-03-25T15:04:28.374Z</time></trkpt><trkpt lat="45.5632397" lon="9.2761792"><ele>148.0</ele><time>2026-03-25T15:04:29.374Z</time></trkpt><trkpt lat="45.5631944" lon="9.2761034"><ele>148.0</ele><time>2026-03-25T15:04:30.373Z</time></trkpt><trkpt lat="45.5631523" lon="9.2760281"><ele>148.0</ele><time>2026-03-25T15:04:31.373Z</time></trkpt><trkpt lat="45.5631112" lon="9.2759529"><ele>148.0</ele><time>2026-03-25T15:04:32.373Z</time></trkpt><trkpt lat="45.5630361" lon="9.2758101"><ele>148.0</ele><time>2026-03-25T15:04:34.374Z</time></trkpt><trkpt lat="45.5629677" lon="9.2756747"><ele>148.0</ele><time>2026-03-25T15:04:36.374Z</time></trkpt><trkpt lat="45.5629101" lon="9.2755441"><ele>148.0</ele><time>2026-03-25T15:04:38.373Z</time></trkpt><trkpt lat="45.5628482" lon="9.2754206"><ele>148.0</ele><time>2026-03-25T15:04:40.374Z</time></trkpt><trkpt lat="45.5627871" lon="9.2753049"><ele>148.0</ele><time>2026-03-25T15:04:42.373Z</time></trkpt><trkpt lat="45.5627215" lon="9.2751932"><ele>148.20000000000002</ele><time>2026-03-25T15:04:44.374Z</time></trkpt><trkpt lat="45.5626653" lon="9.2750836"><ele>148.4</ele><time>2026-03-25T15:04:46.374Z</time></trkpt><trkpt lat="45.5626045" lon="9.2749826"><ele>148.60000000000002</ele><time>2026-03-25T15:04:48.373Z</time></trkpt><trkpt lat="45.5625472" lon="9.2748632"><ele>148.8</ele><time>2026-03-25T15:04:50.374Z</time></trkpt><trkpt lat="45.5624858" lon="9.274752"><ele>149.0</ele><time>2026-03-25T15:04:52.374Z</time></trkpt><trkpt lat="45.5624342" lon="9.2746339"><ele>149.2</ele><time>2026-03-25T15:04:54.374Z</time></trkpt><trkpt lat="45.5623801" lon="9.274521"><ele>149.4</ele><time>2026-03-25T15:04:56.374Z</time></trkpt><trkpt lat="45.5623199" lon="9.2744069"><ele>149.6</ele><time>2026-03-25T15:04:58.373Z</time></trkpt><trkpt lat="45.5622686" lon="9.2742911"><ele>149.8</ele><time>2026-03-25T15:05:00.374Z</time></trkpt><trkpt lat="45.562212" lon="9.2741721"><ele>150.0</ele><time>2026-03-25T15:05:02.374Z</time></trkpt><trkpt lat="45.5621528" lon="9.2740525"><ele>150.0</ele><time>2026-03-25T15:05:04.374Z</time></trkpt><trkpt lat="45.562094" lon="9.2739335"><ele>150.0</ele><time>2026-03-25T15:05:06.374Z</time></trkpt><trkpt lat="45.5620391" lon="9.2738091"><ele>150.0</ele><time>2026-03-25T15:05:08.373Z</time></trkpt><trkpt lat="45.5619806" lon="9.2736837"><ele>150.0</ele><time>2026-03-25T15:05:10.374Z</time></trkpt><trkpt lat="45.5619273" lon="9.2735637"><ele>150.0</ele><time>2026-03-25T15:05:12.373Z</time></trkpt><trkpt lat="45.5618719" lon="9.2734421"><ele>150.0</ele><time>2026-03-25T15:05:14.374Z</time></trkpt><trkpt lat="45.5618137" lon="9.2733167"><ele>150.0</ele><time>2026-03-25T15:05:16.374Z</time></trkpt><trkpt lat="45.5617647" lon="9.273191"><ele>150.0</ele><time>2026-03-25T15:05:18.373Z</time></trkpt><trkpt lat="45.5617081" lon="9.2730695"><ele>150.0</ele><time>2026-03-25T15:05:20.374Z</time></trkpt><trkpt lat="45.5616507" lon="9.2729406"><ele>150.0</ele><time>2026-03-25T15:05:22.374Z</time></trkpt><trkpt lat="45.5615961" lon="9.2728128"><ele>149.75</ele><time>2026-03-25T15:05:24.374Z</time></trkpt><trkpt lat="45.5615404" lon="9.2726844"><ele>149.5</ele><time>2026-03-25T15:05:26.374Z</time></trkpt><trkpt lat="45.5614821" lon="9.272546"><ele>149.25</ele><time>2026-03-25T15:05:28.374Z</time></trkpt><trkpt lat="45.5614215" lon="9.2724"><ele>149.0</ele><time>2026-03-25T15:05:30.374Z</time></trkpt><trkpt lat="45.5613609" lon="9.2722482"><ele>148.4</ele><time>2026-03-25T15:05:32.373Z</time></trkpt><trkpt lat="45.5612952" lon="9.272099"><ele>147.8</ele><time>2026-03-25T15:05:34.374Z</time></trkpt><trkpt lat="45.5612371" lon="9.2719448"><ele>147.2</ele><time>2026-03-25T15:05:36.374Z</time></trkpt><trkpt lat="45.5612052" lon="9.2718651"><ele>146.6</ele><time>2026-03-25T15:05:37.374Z</time></trkpt><trkpt lat="45.5611769" lon="9.2717798"><ele>146.0</ele><time>2026-03-25T15:05:38.374Z</time></trkpt><trkpt lat="45.561116" lon="9.2716127"><ele>146.0</ele><time>2026-03-25T15:05:40.374Z</time></trkpt><trkpt lat="45.561083" lon="9.2715248"><ele>146.0</ele><time>2026-03-25T15:05:41.374Z</time></trkpt><trkpt lat="45.561051" lon="9.2714427"><ele>146.0</ele><time>2026-03-25T15:05:42.373Z</time></trkpt><trkpt lat="45.5610216" lon="9.2713548"><ele>146.0</ele><time>2026-03-25T15:05:43.374Z</time></trkpt><trkpt lat="45.5609919" lon="9.2712717"><ele>146.0</ele><time>2026-03-25T15:05:44.373Z</time></trkpt><trkpt lat="45.56096" lon="9.2711864"><ele>146.0</ele><time>2026-03-25T15:05:45.373Z</time></trkpt><trkpt lat="45.5609256" lon="9.2711066"><ele>146.0</ele><time>2026-03-25T15:05:46.373Z</time></trkpt><trkpt lat="45.5608939" lon="9.2710228"><ele>146.28571428571428</ele><time>2026-03-25T15:05:47.374Z</time></trkpt><trkpt lat="45.5608605" lon="9.2709385"><ele>146.57142857142858</ele><time>2026-03-25T15:05:48.374Z</time></trkpt><trkpt lat="45.5608279" lon="9.2708582"><ele>146.85714285714286</ele><time>2026-03-25T15:05:49.373Z</time></trkpt><trkpt lat="45.5608034" lon="9.2707646"><ele>147.14285714285714</ele><time>2026-03-25T15:05:50.374Z</time></trkpt><trkpt lat="45.5607711" lon="9.2706744"><ele>147.42857142857142</ele><time>2026-03-25T15:05:51.374Z</time></trkpt><trkpt lat="45.5607401" lon="9.2705926"><ele>147.71428571428572</ele><time>2026-03-25T15:05:52.374Z</time></trkpt><trkpt lat="45.5607051" lon="9.2705009"><ele>148.0</ele><time>2026-03-25T15:05:53.374Z</time></trkpt><trkpt lat="45.5606736" lon="9.2704147"><ele>148.5</ele><time>2026-03-25T15:05:54.374Z</time></trkpt><trkpt lat="45.5606371" lon="9.2703182"><ele>149.0</ele><time>2026-03-25T15:05:55.374Z</time></trkpt><trkpt lat="45.560604" lon="9.2702194"><ele>149.5</ele><time>2026-03-25T15:05:56.373Z</time></trkpt><trkpt lat="45.5605742" lon="9.2701192"><ele>150.0</ele><time>2026-03-25T15:05:57.374Z</time></trkpt><trkpt lat="45.5605375" lon="9.2700233"><ele>150.5</ele><time>2026-03-25T15:05:58.374Z</time></trkpt><trkpt lat="45.5605026" lon="9.2699301"><ele>151.0</ele><time>2026-03-25T15:05:59.374Z</time></trkpt><trkpt lat="45.5604692" lon="9.2698359"><ele>151.0</ele><time>2026-03-25T15:06:00.373Z</time></trkpt><trkpt lat="45.5604374" lon="9.2697375"><ele>151.0</ele><time>2026-03-25T15:06:01.373Z</time></trkpt><trkpt lat="45.5604074" lon="9.2696351"><ele>151.0</ele><time>2026-03-25T15:06:02.374Z</time></trkpt><trkpt lat="45.5603737" lon="9.2695264"><ele>151.0</ele><time>2026-03-25T15:06:03.374Z</time></trkpt><trkpt lat="45.5603384" lon="9.2694268"><ele>151.0</ele><time>2026-03-25T15:06:04.373Z</time></trkpt><trkpt lat="45.5603019" lon="9.2693296"><ele>151.0</ele><time>2026-03-25T15:06:05.374Z</time></trkpt><trkpt lat="45.5602627" lon="9.2692361"><ele>150.5</ele><time>2026-03-25T15:06:06.374Z</time></trkpt><trkpt lat="45.5602169" lon="9.269146"><ele>150.0</ele><time>2026-03-25T15:06:07.374Z</time></trkpt><trkpt lat="45.5601721" lon="9.2690538"><ele>149.5</ele><time>2026-03-25T15:06:08.374Z</time></trkpt><trkpt lat="45.5601192" lon="9.2689729"><ele>149.0</ele><time>2026-03-25T15:06:09.374Z</time></trkpt><trkpt lat="45.560066" lon="9.2688908"><ele>148.5</ele><time>2026-03-25T15:06:10.374Z</time></trkpt><trkpt lat="45.5600159" lon="9.2688173"><ele>148.0</ele><time>2026-03-25T15:06:11.374Z</time></trkpt><trkpt lat="45.5599698" lon="9.2687424"><ele>147.83333333333334</ele><time>2026-03-25T15:06:12.374Z</time></trkpt><trkpt lat="45.5599232" lon="9.2686712"><ele>147.66666666666669</ele><time>2026-03-25T15:06:13.374Z</time></trkpt><trkpt lat="45.5598723" lon="9.2686039"><ele>147.5</ele><time>2026-03-25T15:06:14.374Z</time></trkpt><trkpt lat="45.5598225" lon="9.2685373"><ele>147.33333333333334</ele><time>2026-03-25T15:06:15.373Z</time></trkpt><trkpt lat="45.5597776" lon="9.2684726"><ele>147.16666666666666</ele><time>2026-03-25T15:06:16.373Z</time></trkpt><trkpt lat="45.5596856" lon="9.2683526"><ele>147.0</ele><time>2026-03-25T15:06:18.373Z</time></trkpt><trkpt lat="45.5595942" lon="9.2682228"><ele>147.0</ele><time>2026-03-25T15:06:20.374Z</time></trkpt><trkpt lat="45.5595465" lon="9.2681555"><ele>147.0</ele><time>2026-03-25T15:06:21.374Z</time></trkpt><trkpt lat="45.5594602" lon="9.2680322"><ele>147.0</ele><time>2026-03-25T15:06:23.374Z</time></trkpt><trkpt lat="45.5593775" lon="9.2679097"><ele>147.0</ele><time>2026-03-25T15:06:25.374Z</time></trkpt><trkpt lat="45.5593003" lon="9.2677726"><ele>147.0</ele><time>2026-03-25T15:06:27.374Z</time></trkpt><trkpt lat="45.5592282" lon="9.2676284"><ele>147.5</ele><time>2026-03-25T15:06:29.374Z</time></trkpt><trkpt lat="45.5591636" lon="9.2674841"><ele>148.0</ele><time>2026-03-25T15:06:31.374Z</time></trkpt><trkpt lat="45.559102" lon="9.2673354"><ele>148.5</ele><time>2026-03-25T15:06:33.373Z</time></trkpt><trkpt lat="45.5590493" lon="9.267178"><ele>149.0</ele><time>2026-03-25T15:06:35.374Z</time></trkpt><trkpt lat="45.5589954" lon="9.2670263"><ele>149.0</ele><time>2026-03-25T15:06:37.374Z</time></trkpt><trkpt lat="45.5589688" lon="9.2669446"><ele>149.0</ele><time>2026-03-25T15:06:38.373Z</time></trkpt><trkpt lat="45.5589157" lon="9.2668009"><ele>149.0</ele><time>2026-03-25T15:06:40.374Z</time></trkpt><trkpt lat="45.5588856" lon="9.2667217"><ele>149.0</ele><time>2026-03-25T15:06:41.374Z</time></trkpt><trkpt lat="45.5588349" lon="9.2665774"><ele>149.0</ele><time>2026-03-25T15:06:43.374Z</time></trkpt><trkpt lat="45.558776" lon="9.2664379"><ele>149.0</ele><time>2026-03-25T15:06:45.374Z</time></trkpt><trkpt lat="45.5587406" lon="9.266294"><ele>149.0</ele><time>2026-03-25T15:06:47.374Z</time></trkpt><trkpt lat="45.5587003" lon="9.2661468"><ele>149.0</ele><time>2026-03-25T15:06:49.374Z</time></trkpt><trkpt lat="45.5586655" lon="9.2660048"><ele>149.0</ele><time>2026-03-25T15:06:51.374Z</time></trkpt><trkpt lat="45.5586251" lon="9.2658566"><ele>149.0</ele><time>2026-03-25T15:06:53.374Z</time></trkpt><trkpt lat="45.5585787" lon="9.2657215"><ele>149.0</ele><time>2026-03-25T15:06:55.373Z</time></trkpt><trkpt lat="45.5585282" lon="9.2655919"><ele>149.0</ele><time>2026-03-25T15:06:57.374Z</time></trkpt><trkpt lat="45.5584796" lon="9.2654588"><ele>149.0</ele><time>2026-03-25T15:06:59.374Z</time></trkpt><trkpt lat="45.5584319" lon="9.2653178"><ele>149.0</ele><time>2026-03-25T15:07:01.374Z</time></trkpt><trkpt lat="45.5583808" lon="9.2651907"><ele>149.0</ele><time>2026-03-25T15:07:03.374Z</time></trkpt><trkpt lat="45.558328" lon="9.2650566"><ele>149.0</ele><time>2026-03-25T15:07:05.374Z</time></trkpt><trkpt lat="45.5582727" lon="9.264926"><ele>149.0</ele><time>2026-03-25T15:07:07.374Z</time></trkpt><trkpt lat="45.5582135" lon="9.2648052"><ele>149.0</ele><time>2026-03-25T15:07:09.374Z</time></trkpt><trkpt lat="45.5581555" lon="9.264673"><ele>149.0</ele><time>2026-03-25T15:07:11.373Z</time></trkpt><trkpt lat="45.5581092" lon="9.2645497"><ele>149.0</ele><time>2026-03-25T15:07:13.373Z</time></trkpt><trkpt lat="45.5580528" lon="9.26442"><ele>149.2</ele><time>2026-03-25T15:07:15.374Z</time></trkpt><trkpt lat="45.5579904" lon="9.2642874"><ele>149.4</ele><time>2026-03-25T15:07:17.374Z</time></trkpt><trkpt lat="45.5579316" lon="9.26416"><ele>149.6</ele><time>2026-03-25T15:07:19.373Z</time></trkpt><trkpt lat="45.5578725" lon="9.2640293"><ele>149.8</ele><time>2026-03-25T15:07:21.374Z</time></trkpt><trkpt lat="45.557821" lon="9.2638938"><ele>150.0</ele><time>2026-03-25T15:07:23.374Z</time></trkpt><trkpt lat="45.5577613" lon="9.2637591"><ele>150.0</ele><time>2026-03-25T15:07:25.374Z</time></trkpt><trkpt lat="45.5577029" lon="9.2636237"><ele>150.0</ele><time>2026-03-25T15:07:27.374Z</time></trkpt><trkpt lat="45.5576531" lon="9.2635011"><ele>150.0</ele><time>2026-03-25T15:07:29.374Z</time></trkpt><trkpt lat="45.5576018" lon="9.2633772"><ele>150.0</ele><time>2026-03-25T15:07:31.374Z</time></trkpt><trkpt lat="45.5575523" lon="9.2632715"><ele>150.0</ele><time>2026-03-25T15:07:33.374Z</time></trkpt><trkpt lat="45.5574954" lon="9.2631617"><ele>150.2</ele><time>2026-03-25T15:07:35.373Z</time></trkpt><trkpt lat="45.5574475" lon="9.263048"><ele>150.4</ele><time>2026-03-25T15:07:37.374Z</time></trkpt><trkpt lat="45.5573965" lon="9.2629276"><ele>150.6</ele><time>2026-03-25T15:07:39.374Z</time></trkpt><trkpt lat="45.5573418" lon="9.2627994"><ele>150.8</ele><time>2026-03-25T15:07:41.374Z</time></trkpt><trkpt lat="45.5572952" lon="9.2626816"><ele>151.0</ele><time>2026-03-25T15:07:43.373Z</time></trkpt><trkpt lat="45.5572389" lon="9.2625547"><ele>151.0</ele><time>2026-03-25T15:07:45.374Z</time></trkpt><trkpt lat="45.5571833" lon="9.2624316"><ele>151.0</ele><time>2026-03-25T15:07:47.374Z</time></trkpt><trkpt lat="45.5571246" lon="9.2622981"><ele>151.0</ele><time>2026-03-25T15:07:49.374Z</time></trkpt><trkpt lat="45.5570671" lon="9.2621671"><ele>151.0</ele><time>2026-03-25T15:07:51.374Z</time></trkpt><trkpt lat="45.5570109" lon="9.2620336"><ele>151.0</ele><time>2026-03-25T15:07:53.374Z</time></trkpt><trkpt lat="45.5569548" lon="9.2619056"><ele>151.0</ele><time>2026-03-25T15:07:55.374Z</time></trkpt><trkpt lat="45.5568876" lon="9.2617902"><ele>151.0</ele><time>2026-03-25T15:07:57.373Z</time></trkpt><trkpt lat="45.5568262" lon="9.2616957"><ele>151.0</ele><time>2026-03-25T15:07:59.374Z</time></trkpt><trkpt lat="45.5567565" lon="9.2616041"><ele>151.0</ele><time>2026-03-25T15:08:01.373Z</time></trkpt><trkpt lat="45.5566664" lon="9.261547"><ele>151.0</ele><time>2026-03-25T15:08:03.374Z</time></trkpt><trkpt lat="45.5565761" lon="9.2614862"><ele>151.0</ele><time>2026-03-25T15:08:05.374Z</time></trkpt><trkpt lat="45.5564839" lon="9.2614414"><ele>151.0</ele><time>2026-03-25T15:08:07.374Z</time></trkpt><trkpt lat="45.5563934" lon="9.2614037"><ele>151.0</ele><time>2026-03-25T15:08:09.374Z</time></trkpt><trkpt lat="45.5562947" lon="9.2613644"><ele>151.0</ele><time>2026-03-25T15:08:11.374Z</time></trkpt><trkpt lat="45.5561997" lon="9.2613246"><ele>151.0</ele><time>2026-03-25T15:08:13.374Z</time></trkpt><trkpt lat="45.5561071" lon="9.2612754"><ele>151.0</ele><time>2026-03-25T15:08:15.374Z</time></trkpt><trkpt lat="45.5560116" lon="9.2612316"><ele>151.0</ele><time>2026-03-25T15:08:17.374Z</time></trkpt><trkpt lat="45.5559237" lon="9.2611986"><ele>151.0</ele><time>2026-03-25T15:08:19.373Z</time></trkpt><trkpt lat="45.5558321" lon="9.2611711"><ele>151.0</ele><time>2026-03-25T15:08:21.374Z</time></trkpt><trkpt lat="45.5557457" lon="9.2611522"><ele>151.0</ele><time>2026-03-25T15:08:23.374Z</time></trkpt><trkpt lat="45.5556568" lon="9.2611192"><ele>151.0</ele><time>2026-03-25T15:08:25.374Z</time></trkpt><trkpt lat="45.5555623" lon="9.2610896"><ele>151.0</ele><time>2026-03-25T15:08:27.373Z</time></trkpt><trkpt lat="45.5554756" lon="9.2610518"><ele>151.0</ele><time>2026-03-25T15:08:29.374Z</time></trkpt><trkpt lat="45.5553887" lon="9.2610054"><ele>151.0</ele><time>2026-03-25T15:08:31.374Z</time></trkpt><trkpt lat="45.5552972" lon="9.2609715"><ele>151.0</ele><time>2026-03-25T15:08:33.374Z</time></trkpt><trkpt lat="45.5552229" lon="9.2609359"><ele>150.5</ele><time>2026-03-25T15:08:35.374Z</time></trkpt><trkpt lat="45.5551474" lon="9.2609032"><ele>150.0</ele><time>2026-03-25T15:08:37.373Z</time></trkpt><trkpt lat="45.5550738" lon="9.2608651"><ele>149.5</ele><time>2026-03-25T15:08:39.374Z</time></trkpt><trkpt lat="45.5550016" lon="9.2608335"><ele>149.0</ele><time>2026-03-25T15:08:41.373Z</time></trkpt><trkpt lat="45.5549237" lon="9.2607937"><ele>148.5</ele><time>2026-03-25T15:08:43.374Z</time></trkpt><trkpt lat="45.5548465" lon="9.2607553"><ele>148.0</ele><time>2026-03-25T15:08:45.374Z</time></trkpt><trkpt lat="45.55477" lon="9.2607231"><ele>148.0</ele><time>2026-03-25T15:08:47.373Z</time></trkpt><trkpt lat="45.5546798" lon="9.2606792"><ele>148.0</ele><time>2026-03-25T15:08:49.374Z</time></trkpt><trkpt lat="45.5545951" lon="9.2606238"><ele>148.0</ele><time>2026-03-25T15:08:51.373Z</time></trkpt><trkpt lat="45.5545043" lon="9.2605629"><ele>148.0</ele><time>2026-03-25T15:08:53.373Z</time></trkpt><trkpt lat="45.5544104" lon="9.2604984"><ele>148.0</ele><time>2026-03-25T15:08:55.374Z</time></trkpt><trkpt lat="45.5543285" lon="9.2604419"><ele>148.0</ele><time>2026-03-25T15:08:57.374Z</time></trkpt><trkpt lat="45.5542551" lon="9.2603877"><ele>148.0</ele><time>2026-03-25T15:08:59.374Z</time></trkpt><trkpt lat="45.5541824" lon="9.2603456"><ele>148.0</ele><time>2026-03-25T15:09:01.373Z</time></trkpt><trkpt lat="45.5541062" lon="9.260304"><ele>148.0</ele><time>2026-03-25T15:09:04.374Z</time></trkpt><trkpt lat="45.5540422" lon="9.2602615"><ele>148.0</ele><time>2026-03-25T15:09:15.373Z</time></trkpt><trkpt lat="45.5539721" lon="9.2602247"><ele>148.0</ele><time>2026-03-25T15:09:17.374Z</time></trkpt><trkpt lat="45.5538859" lon="9.2601808"><ele>148.0</ele><time>2026-03-25T15:09:19.374Z</time></trkpt><trkpt lat="45.5538001" lon="9.2601356"><ele>148.0</ele><time>2026-03-25T15:09:21.374Z</time></trkpt><trkpt lat="45.5537191" lon="9.2600919"><ele>148.0</ele><time>2026-03-25T15:09:23.374Z</time></trkpt><trkpt lat="45.5536388" lon="9.2600479"><ele>148.0</ele><time>2026-03-25T15:09:25.374Z</time></trkpt><trkpt lat="45.5535592" lon="9.2600036"><ele>148.0</ele><time>2026-03-25T15:09:27.373Z</time></trkpt><trkpt lat="45.5534797" lon="9.2599589"><ele>148.0</ele><time>2026-03-25T15:09:29.373Z</time></trkpt><trkpt lat="45.5534014" lon="9.2599165"><ele>148.16666666666669</ele><time>2026-03-25T15:09:31.373Z</time></trkpt><trkpt lat="45.5533223" lon="9.2598725"><ele>148.33333333333334</ele><time>2026-03-25T15:09:33.373Z</time></trkpt><trkpt lat="45.5532463" lon="9.2598266"><ele>148.5</ele><time>2026-03-25T15:09:35.374Z</time></trkpt><trkpt lat="45.5531738" lon="9.2597822"><ele>148.66666666666666</ele><time>2026-03-25T15:09:37.374Z</time></trkpt><trkpt lat="45.5530956" lon="9.2597404"><ele>148.83333333333331</ele><time>2026-03-25T15:09:39.373Z</time></trkpt><trkpt lat="45.5530182" lon="9.2596912"><ele>149.0</ele><time>2026-03-25T15:09:41.374Z</time></trkpt><trkpt lat="45.5529383" lon="9.2596476"><ele>149.16666666666666</ele><time>2026-03-25T15:09:43.373Z</time></trkpt><trkpt lat="45.5528569" lon="9.2595905"><ele>149.33333333333331</ele><time>2026-03-25T15:09:45.374Z</time></trkpt><trkpt lat="45.5527709" lon="9.2595422"><ele>149.5</ele><time>2026-03-25T15:09:47.374Z</time></trkpt><trkpt lat="45.5526913" lon="9.2595009"><ele>149.66666666666666</ele><time>2026-03-25T15:09:49.374Z</time></trkpt><trkpt lat="45.5526133" lon="9.2594608"><ele>149.83333333333334</ele><time>2026-03-25T15:09:51.374Z</time></trkpt><trkpt lat="45.5525342" lon="9.2594086"><ele>150.0</ele><time>2026-03-25T15:09:53.374Z</time></trkpt><trkpt lat="45.5524498" lon="9.2593604"><ele>150.0</ele><time>2026-03-25T15:09:55.374Z</time></trkpt><trkpt lat="45.5523657" lon="9.2593246"><ele>150.0</ele><time>2026-03-25T15:09:57.374Z</time></trkpt><trkpt lat="45.5522835" lon="9.2592773"><ele>150.0</ele><time>2026-03-25T15:09:59.373Z</time></trkpt><trkpt lat="45.5521972" lon="9.2592297"><ele>150.0</ele><time>2026-03-25T15:10:01.374Z</time></trkpt><trkpt lat="45.552119" lon="9.2591675"><ele>150.0</ele><time>2026-03-25T15:10:03.373Z</time></trkpt><trkpt lat="45.5520365" lon="9.2591196"><ele>150.0</ele><time>2026-03-25T15:10:05.374Z</time></trkpt><trkpt lat="45.5519564" lon="9.2590799"><ele>149.83333333333334</ele><time>2026-03-25T15:10:07.374Z</time></trkpt><trkpt lat="45.5518835" lon="9.2590359"><ele>149.66666666666666</ele><time>2026-03-25T15:10:09.374Z</time></trkpt><trkpt lat="45.5518068" lon="9.2589861"><ele>149.5</ele><time>2026-03-25T15:10:11.374Z</time></trkpt><trkpt lat="45.5517312" lon="9.2589399"><ele>149.33333333333331</ele><time>2026-03-25T15:10:13.374Z</time></trkpt><trkpt lat="45.551657" lon="9.2588866"><ele>149.16666666666666</ele><time>2026-03-25T15:10:15.373Z</time></trkpt><trkpt lat="45.5515851" lon="9.2588423"><ele>149.0</ele><time>2026-03-25T15:10:17.373Z</time></trkpt><trkpt lat="45.5515175" lon="9.2587685"><ele>148.5</ele><time>2026-03-25T15:10:19.374Z</time></trkpt><trkpt lat="45.5514554" lon="9.2586855"><ele>148.0</ele><time>2026-03-25T15:10:21.374Z</time></trkpt><trkpt lat="45.5513757" lon="9.2586396"><ele>147.5</ele><time>2026-03-25T15:10:23.374Z</time></trkpt><trkpt lat="45.551293" lon="9.2585956"><ele>147.0</ele><time>2026-03-25T15:10:25.374Z</time></trkpt><trkpt lat="45.5512142" lon="9.258538"><ele>146.5</ele><time>2026-03-25T15:10:27.373Z</time></trkpt><trkpt lat="45.5511373" lon="9.2584784"><ele>146.0</ele><time>2026-03-25T15:10:29.374Z</time></trkpt><trkpt lat="45.5510607" lon="9.2584179"><ele>146.0</ele><time>2026-03-25T15:10:31.374Z</time></trkpt><trkpt lat="45.5509832" lon="9.2583573"><ele>146.0</ele><time>2026-03-25T15:10:33.374Z</time></trkpt><trkpt lat="45.550909" lon="9.2583041"><ele>146.0</ele><time>2026-03-25T15:10:35.374Z</time></trkpt><trkpt lat="45.550831" lon="9.2582532"><ele>146.0</ele><time>2026-03-25T15:10:37.374Z</time></trkpt><trkpt lat="45.5507501" lon="9.2582118"><ele>146.0</ele><time>2026-03-25T15:10:39.374Z</time></trkpt><trkpt lat="45.5506709" lon="9.2581698"><ele>146.0</ele><time>2026-03-25T15:10:41.374Z</time></trkpt><trkpt lat="45.5505947" lon="9.2581294"><ele>145.66666666666666</ele><time>2026-03-25T15:10:43.374Z</time></trkpt><trkpt lat="45.5505158" lon="9.2580817"><ele>145.33333333333331</ele><time>2026-03-25T15:10:45.374Z</time></trkpt><trkpt lat="45.5504431" lon="9.2580273"><ele>145.0</ele><time>2026-03-25T15:10:47.374Z</time></trkpt><trkpt lat="45.5503725" lon="9.2579722"><ele>144.66666666666666</ele><time>2026-03-25T15:10:49.373Z</time></trkpt><trkpt lat="45.5502996" lon="9.2579225"><ele>144.33333333333334</ele><time>2026-03-25T15:10:51.374Z</time></trkpt><trkpt lat="45.5502257" lon="9.2578709"><ele>144.0</ele><time>2026-03-25T15:10:53.373Z</time></trkpt><trkpt lat="45.5501492" lon="9.2578291"><ele>144.00000000000003</ele><time>2026-03-25T15:10:55.374Z</time></trkpt><trkpt lat="45.550078" lon="9.2577849"><ele>144.0</ele><time>2026-03-25T15:10:57.373Z</time></trkpt><trkpt lat="45.5500126" lon="9.2577428"><ele>144.0</ele><time>2026-03-25T15:10:59.374Z</time></trkpt><trkpt lat="45.5499528" lon="9.257704"><ele>144.0</ele><time>2026-03-25T15:11:01.373Z</time></trkpt><trkpt lat="45.5498805" lon="9.2576529"><ele>144.0</ele><time>2026-03-25T15:11:04.374Z</time></trkpt><trkpt lat="45.5498112" lon="9.2576041"><ele>144.00000000000003</ele><time>2026-03-25T15:11:08.373Z</time></trkpt><trkpt lat="45.549751" lon="9.2575768"><ele>144.0</ele><time>2026-03-25T15:11:16.373Z</time></trkpt><trkpt lat="45.5496901" lon="9.2575366"><ele>144.0</ele><time>2026-03-25T15:13:48.373Z</time></trkpt><trkpt lat="45.5496305" lon="9.2575056"><ele>144.0</ele><time>2026-03-25T15:13:53.374Z</time></trkpt><trkpt lat="45.5495701" lon="9.2574697"><ele>144.0</ele><time>2026-03-25T15:13:59.374Z</time></trkpt><trkpt lat="45.5494975" lon="9.25744"><ele>144.0</ele><time>2026-03-25T15:19:01.374Z</time></trkpt><trkpt lat="45.549437" lon="9.2574091"><ele>144.0</ele><time>2026-03-25T15:19:06.374Z</time></trkpt><trkpt lat="45.5494746" lon="9.2572424"><ele>144.0</ele><time>2026-03-25T15:19:12.374Z</time></trkpt><trkpt lat="45.5494187" lon="9.2571782"><ele>143.42857142857144</ele><time>2026-03-25T15:19:16.996Z</time></trkpt><trkpt lat="45.5493613" lon="9.2571208"><ele>142.85714285714286</ele><time>2026-03-25T15:19:21.356Z</time></trkpt><trkpt lat="45.5492853" lon="9.2571567"><ele>142.28571428571428</ele><time>2026-03-25T15:19:26.374Z</time></trkpt><trkpt lat="45.5492147" lon="9.2571765"><ele>141.71428571428572</ele><time>2026-03-25T15:19:30.374Z</time></trkpt><trkpt lat="45.5491335" lon="9.2571843"><ele>141.14285714285714</ele><time>2026-03-25T15:19:34.374Z</time></trkpt><trkpt lat="45.5490663" lon="9.2571652"><ele>140.57142857142858</ele><time>2026-03-25T15:19:39.374Z</time></trkpt><trkpt lat="45.5490027" lon="9.2571322"><ele>140.0</ele><time>2026-03-25T15:19:43.357Z</time></trkpt><trkpt lat="45.548943" lon="9.2570989"><ele>140.0</ele><time>2026-03-25T15:19:47.315Z</time></trkpt><trkpt lat="45.5488758" lon="9.257052"><ele>140.0</ele><time>2026-03-25T15:19:53.374Z</time></trkpt><trkpt lat="45.5488171" lon="9.2569968"><ele>140.0</ele><time>2026-03-25T15:19:57.377Z</time></trkpt><trkpt lat="45.5487696" lon="9.2569256"><ele>140.0</ele><time>2026-03-25T15:20:02.373Z</time></trkpt><trkpt lat="45.548708" lon="9.25689"><ele>140.0</ele><time>2026-03-25T15:20:09.374Z</time></trkpt><trkpt lat="45.548643" lon="9.256925"><ele>140.0</ele><time>2026-03-25T15:20:14.373Z</time></trkpt><trkpt lat="45.5485806" lon="9.2569053"><ele>140.0</ele><time>2026-03-25T15:20:19.337Z</time></trkpt><trkpt lat="45.5485322" lon="9.2568427"><ele>140.42857142857142</ele><time>2026-03-25T15:20:24.374Z</time></trkpt><trkpt lat="45.5484937" lon="9.2567651"><ele>140.85714285714286</ele><time>2026-03-25T15:20:29.373Z</time></trkpt><trkpt lat="45.5484738" lon="9.2566729"><ele>141.28571428571428</ele><time>2026-03-25T15:20:34.374Z</time></trkpt><trkpt lat="45.5484564" lon="9.2565735"><ele>141.71428571428572</ele><time>2026-03-25T15:20:41.355Z</time></trkpt><trkpt lat="45.548444" lon="9.2564831"><ele>142.14285714285714</ele><time>2026-03-25T15:20:46.357Z</time></trkpt><trkpt lat="45.5484148" lon="9.2563823"><ele>142.57142857142856</ele><time>2026-03-25T15:20:52.373Z</time></trkpt><trkpt lat="45.5483991" lon="9.256287"><ele>143.0</ele><time>2026-03-25T15:20:58.374Z</time></trkpt><trkpt lat="45.5483652" lon="9.2561961"><ele>143.28571428571428</ele><time>2026-03-25T15:21:05.373Z</time></trkpt><trkpt lat="45.5483147" lon="9.2561318"><ele>143.57142857142856</ele><time>2026-03-25T15:21:11.373Z</time></trkpt><trkpt lat="45.5482589" lon="9.2560795"><ele>143.85714285714286</ele><time>2026-03-25T15:21:52.374Z</time></trkpt><trkpt lat="45.5482144" lon="9.2559987"><ele>144.14285714285714</ele><time>2026-03-25T15:21:57.373Z</time></trkpt><trkpt lat="45.5481565" lon="9.2559422"><ele>144.42857142857144</ele><time>2026-03-25T15:22:03.33Z</time></trkpt><trkpt lat="45.548094" lon="9.2558814"><ele>144.71428571428572</ele><time>2026-03-25T15:22:38.374Z</time></trkpt><trkpt lat="45.5480355" lon="9.2558247"><ele>145.0</ele><time>2026-03-25T15:22:43.395Z</time></trkpt><trkpt lat="45.5479675" lon="9.255846"><ele>145.0</ele><time>2026-03-25T15:22:49.374Z</time></trkpt><trkpt lat="45.5479155" lon="9.2559012"><ele>145.0</ele><time>2026-03-25T15:22:54.231Z</time></trkpt><trkpt lat="45.5478563" lon="9.255964"><ele>148.0</ele><time>2026-03-25T15:22:59.373Z</time></trkpt></trkseg></trk></gpx>